
Distance (Route):
Temperature : 21.8°C
Humidity : 56.1%
Pressure : 1000.6hPa| Receiver | Frames | First received | Last received |
|---|---|---|---|
| DL1XH-west | 743 | 2026-09-03 10:54:57 | 2026-09-03 13:10:38 |
| AA1-15 | 650 | 2026-09-03 10:59:05 | 2026-09-03 13:12:18 |
| DO2SHX-10 | 646 | 2026-09-03 11:04:01 | 2026-09-03 13:10:50 |
| DF8AY | 621 | 2026-09-03 10:56:09 | 2026-09-03 13:15:21 |
| DL1XH1-15 | 593 | 2026-09-03 10:55:18 | 2026-09-03 13:10:41 |
| DM0DOS-11 | 569 | 2026-09-03 10:53:34 | 2026-09-03 13:12:33 |
| DB0DAN | 414 | 2026-09-03 10:51:40 | 2026-09-03 13:16:40 |
| HSKMA3-T | 387 | 2026-09-03 11:32:04 | 2026-09-03 13:02:57 |
| DL1XH-15 | 373 | 2026-09-03 10:54:40 | 2026-09-03 13:08:27 |
| DL1NUX | 262 | 2026-09-03 11:52:22 | 2026-09-03 12:58:31 |
| BIOWL1-15 | 250 | 2026-09-03 10:57:09 | 2026-09-03 12:55:47 |
| GOEST3-10 | 198 | 2026-09-03 11:05:08 | 2026-09-03 13:00:00 |
| DD8BA-10 | 145 | 2026-09-03 10:58:01 | 2026-09-03 13:01:25 |
| DF8AY-15 | 85 | 2026-09-03 10:58:03 | 2026-09-03 13:14:15 |
| AM1SDL-15 | 78 | 2026-09-03 11:00:35 | 2026-09-03 13:17:05 |
| TFSTFS | 73 | 2026-09-03 11:15:27 | 2026-09-03 13:16:44 |
| DL4XJ-10 | 58 | 2026-09-03 10:54:44 | 2026-09-03 13:00:50 |
| DF7ER-10 | 55 | 2026-09-03 11:04:47 | 2026-09-03 13:08:36 |
| DB0NH | 54 | 2026-09-03 11:28:40 | 2026-09-03 13:08:45 |
| DO3MHA-11 | 51 | 2026-09-03 11:51:36 | 2026-09-03 12:51:26 |
| SONCRA | 47 | 2026-09-03 11:03:10 | 2026-09-03 13:12:34 |
| EDDB2-12 | 46 | 2026-09-03 11:17:32 | 2026-09-03 13:16:01 |
| SONDE2-11 | 44 | 2026-09-03 11:10:55 | 2026-09-03 13:15:38 |
| S3001 | 42 | 2026-09-03 11:01:32 | 2026-09-03 13:07:22 |
| EDDB2-11 | 42 | 2026-09-03 11:27:36 | 2026-09-03 13:15:44 |
| DB0UT-7 | 40 | 2026-09-03 11:19:00 | 2026-09-03 13:03:06 |
| DJ8HS-15 | 39 | 2026-09-03 12:11:42 | 2026-09-03 12:47:34 |
| SMARD9-15 | 33 | 2026-09-03 10:59:25 | 2026-09-03 12:54:18 |
| DL3AQ-11 | 33 | 2026-09-03 11:03:33 | 2026-09-03 11:58:53 |
| HTAHTA | 28 | 2026-09-03 11:20:56 | 2026-09-03 12:55:39 |
| BIOWL9-15 | 25 | 2026-09-03 10:58:55 | 2026-09-03 12:07:45 |
| DO2JMG | 23 | 2026-09-03 11:31:53 | 2026-09-03 11:43:55 |
| 13BRC | 23 | 2026-09-03 12:13:14 | 2026-09-03 12:57:48 |
| DJ2DS-15 | 22 | 2026-09-03 10:58:19 | 2026-09-03 13:06:22 |
| SMARD9-10 | 21 | 2026-09-03 10:54:33 | 2026-09-03 12:56:41 |
| DL4BBY-15 | 21 | 2026-09-03 11:01:07 | 2026-09-03 12:55:36 |
| MECKS9 | 19 | 2026-09-03 11:27:47 | 2026-09-03 12:49:26 |
| BUE01 | 18 | 2026-09-03 11:10:09 | 2026-09-03 13:00:55 |
| NBG1-10 | 14 | 2026-09-03 11:24:06 | 2026-09-03 13:00:32 |
| AP2371 | 14 | 2026-09-03 11:33:40 | 2026-09-03 12:36:19 |
| SP3WXH-11 | 14 | 2026-09-03 12:19:20 | 2026-09-03 12:49:51 |
| DL1CLM-18 | 11 | 2026-09-03 11:31:16 | 2026-09-03 12:49:56 |
| DO9LL-15 | 10 | 2026-09-03 12:14:07 | 2026-09-03 12:51:41 |
| DL1LOL-11 | 9 | 2026-09-03 11:00:20 | 2026-09-03 12:11:32 |
| SO1NDE-10 | 9 | 2026-09-03 11:53:51 | 2026-09-03 12:42:22 |
| SP3BTT-10 | 8 | 2026-09-03 11:39:38 | 2026-09-03 12:54:19 |
| DL2RXE-15 | 7 | 2026-09-03 11:15:56 | 2026-09-03 13:12:28 |
| DF7PN | 4 | 2026-09-03 12:02:32 | 2026-09-03 12:38:47 |
| DL8OAI-8 | 3 | 2026-09-03 11:17:57 | 2026-09-03 11:24:32 |
| DO2LYB-13 | 2 | 2026-09-03 11:05:26 | 2026-09-03 11:08:06 |
| HARRO8 | 1 | 2026-09-03 11:53:45 | 2026-09-03 11:53:45 |
| OE5DXL-15 | 1 | 2026-09-03 12:39:31 | 2026-09-03 12:39:31 |
| DH0BRO-15 | 1 | 2026-09-03 12:41:38 | 2026-09-03 12:41:38 |
| Receiver | Date | Latitude | Longitude | Direction | Speed | Altitude | Climb | Temperature | Humidity | Pressure | Voltage | Killtimer | Uptime | BKT | XDATA |
|---|---|---|---|---|---|---|---|---|---|---|---|---|---|---|---|
| AM1SDL-15 | 2026-09-03 13:17:05 | 52.28916 | 11.93258 | 72° | 42km/h | 154m | -13.5m/s | 21.8°C | 56.1% | 1000.6hPa | 2.7V | 02:36:00 | 02:45:27 | 00:00:00 | |
| AM1SDL-15 | 2026-09-03 13:17:03 | 52.28910 | 11.93225 | 73° | 42km/h | 180m | -12.9m/s | 21.6°C | 56.9% | 997.4hPa | 2.7V | 00:00:00 | 02:45:25 | 00:00:00 | |
| AM1SDL-15 | 2026-09-03 13:17:01 | 52.28903 | 11.93193 | 74° | 38km/h | 206m | -13.4m/s | 21.3°C | 57.3% | 995.2hPa | 2.7V | 00:00:00 | 02:45:23 | 00:00:00 | |
| AM1SDL-15 | 2026-09-03 13:16:59 | 52.28897 | 11.93161 | 70° | 42km/h | 230m | -13.0m/s | 21.0°C | 58.0% | 992.6hPa | 2.7V | 02:36:00 | 02:45:21 | 00:00:00 | |
| AM1SDL-15 | 2026-09-03 13:16:57 | 52.28889 | 11.93128 | 68° | 42km/h | 255m | -11.9m/s | 20.7°C | 58.8% | 989.2hPa | 2.7V | 00:00:00 | 02:45:19 | 00:00:00 | |
| AM1SDL-15 | 2026-09-03 13:16:55 | 52.28880 | 11.93095 | 70° | 38km/h | 279m | -12.9m/s | 20.6°C | 59.4% | 986.7hPa | 2.7V | 00:00:00 | 02:45:17 | 00:00:00 | |
| AM1SDL-15 | 2026-09-03 13:16:53 | 52.28873 | 11.93064 | 68° | 38km/h | 302m | -12.0m/s | 20.3°C | 60.1% | 983.9hPa | 2.7V | 02:36:00 | 02:45:15 | 00:00:00 | |
| AM1SDL-15 | 2026-09-03 13:16:51 | 52.28865 | 11.93033 | 67° | 38km/h | 324m | -12.2m/s | 20.1°C | 60.8% | 981.3hPa | 2.7V | 00:00:00 | 02:45:13 | 00:00:00 | |
| AM1SDL-15 | 2026-09-03 13:16:49 | 52.28857 | 11.93002 | 65° | 44km/h | 347m | -12.0m/s | 19.8°C | 61.7% | 978.6hPa | 2.7V | 00:00:00 | 02:45:11 | 00:00:00 | |
| AM1SDL-15 | 2026-09-03 13:16:47 | 52.28847 | 11.92969 | 65° | 46km/h | 370m | -12.5m/s | 19.5°C | 62.7% | 976.0hPa | 2.7V | 02:36:00 | 02:45:09 | 00:00:00 | |
| AM1SDL-15 | 2026-09-03 13:16:45 | 52.28837 | 11.92934 | 64° | 46km/h | 394m | -11.9m/s | 19.3°C | 63.2% | 973.4hPa | 2.7V | 00:00:00 | 02:45:07 | 00:00:00 | |
| TFSTFS | 2026-09-03 13:16:44 | 52.28832 | 11.92917 | 66° | 47km/h | 405m | -12.3m/s | 19.3°C | 63.9% | 972.2hPa | 2.7V | 02:36:00 | 00:00:00 | 00:00:00 | |
| AM1SDL-15 | 2026-09-03 13:16:43 | 52.28827 | 11.92899 | 66° | 46km/h | 417m | -12.1m/s | 19.1°C | 64.0% | 970.8hPa | 2.7V | 00:00:00 | 02:45:05 | 00:00:00 | |
| DB0DAN | 2026-09-03 13:16:40 | 52.28812 | 11.92847 | 66° | 46km/h | 452m | -12.7m/s | 18.7°C | 65.8% | 966.85hPa | 2.7V | 00:00:00 | 00:00:00 | 00:00:00 | |
| AM1SDL-15 | 2026-09-03 13:16:39 | 52.28807 | 11.92830 | 65° | 44km/h | 463m | -11.6m/s | 18.5°C | 65.8% | 965.4hPa | 2.7V | 00:00:00 | 02:45:01 | 00:00:00 | |
| AM1SDL-15 | 2026-09-03 13:16:37 | 52.28797 | 11.92795 | 66° | 44km/h | 486m | -12.2m/s | 18.3°C | 66.8% | 962.7hPa | 2.7V | 00:00:00 | 02:44:59 | 00:00:00 | |
| AM1SDL-15 | 2026-09-03 13:16:35 | 52.28788 | 11.92761 | 66° | 46km/h | 507m | -10.9m/s | 18.1°C | 67.4% | 960.4hPa | 2.7V | 02:36:00 | 02:44:57 | 00:00:00 | |
| AM1SDL-15 | 2026-09-03 13:16:33 | 52.28778 | 11.92727 | 65° | 46km/h | 528m | -10.5m/s | 17.9°C | 67.9% | 958.1hPa | 2.6V | 00:00:00 | 02:44:55 | 00:00:00 | |
| AM1SDL-15 | 2026-09-03 13:16:31 | 52.28768 | 11.92694 | 63° | 42km/h | 547m | -11.3m/s | 17.9°C | 68.1% | 955.9hPa | 2.6V | 00:00:00 | 02:44:53 | 00:00:00 | |
| AM1SDL-15 | 2026-09-03 13:16:29 | 52.28757 | 11.92663 | 58° | 42km/h | 569m | -11.5m/s | 17.7°C | 68.8% | 953.7hPa | 2.6V | 02:36:00 | 02:44:51 | 00:00:00 | |
| AM1SDL-15 | 2026-09-03 13:16:27 | 52.28746 | 11.92634 | 56° | 42km/h | 590m | -10.4m/s | 17.6°C | 69.1% | 951.4hPa | 2.7V | 00:00:00 | 02:44:49 | 00:00:00 | |
| DB0DAN | 2026-09-03 13:16:25 | 52.28735 | 11.92604 | 59° | 40km/h | 611m | -11.3m/s | 17.4°C | 70.2% | 949.19hPa | 2.7V | 00:00:00 | 00:00:00 | 00:00:00 | |
| TFSTFS | 2026-09-03 13:16:23 | 52.28730 | 11.92588 | 63° | 44km/h | 621m | -10.5m/s | 17.3°C | 70.5% | 948.0hPa | 2.7V | 00:00:00 | 00:00:00 | 00:00:00 | |
| AM1SDL-15 | 2026-09-03 13:16:23 | 52.28725 | 11.92572 | 64° | 44km/h | 632m | -10.4m/s | 17.1°C | 70.9% | 946.6hPa | 2.7V | 02:37:00 | 02:44:45 | 00:00:00 | |
| TFSTFS | 2026-09-03 13:16:21 | 52.28720 | 11.92556 | 64° | 42km/h | 642m | -11.5m/s | 16.9°C | 72.0% | 945.5hPa | 2.7V | 02:37:00 | 00:00:00 | 00:00:00 | |
| AM1SDL-15 | 2026-09-03 13:16:21 | 52.28715 | 11.92539 | 64° | 46km/h | 653m | -11.9m/s | 16.7°C | 72.4% | 944.3hPa | 2.7V | 00:00:00 | 02:44:43 | 00:00:00 | |
| AM1SDL-15 | 2026-09-03 13:16:19 | 52.28706 | 11.92505 | 66° | 46km/h | 675m | -12.0m/s | 16.5°C | 73.0% | 942.0hPa | 2.7V | 00:00:00 | 02:44:41 | 00:00:00 | |
| AM1SDL-15 | 2026-09-03 13:16:17 | 52.28697 | 11.92471 | 68° | 46km/h | 698m | -11.3m/s | 16.4°C | 73.7% | 939.3hPa | 2.7V | 02:37:00 | 02:44:39 | 00:00:00 | |
| DB0DAN | 2026-09-03 13:16:10 | 52.28662 | 11.92350 | 69° | 44km/h | 774m | -11.5m/s | 15.7°C | 76.5% | 931.16hPa | 2.7V | 00:00:00 | 00:00:00 | 00:00:00 | |
| AM1SDL-15 | 2026-09-03 13:16:09 | 52.28658 | 11.92333 | 73° | 40km/h | 784m | -10.6m/s | 15.5°C | 76.9% | 929.9hPa | 2.7V | 00:00:00 | 02:44:31 | 00:00:00 | |
| EDDB2-12 | 2026-09-03 13:16:01 | 52.28618 | 11.92121 | 68° | 42km/h | 927m | -13.1m/s | 14.2°C | 82.6% | 914.4hPa | 2.7V | 00:00:00 | 00:00:00 | 00:00:00 | |
| TFSTFS | 2026-09-03 13:15:59 | 52.28633 | 11.92186 | 70° | 42km/h | 877m | -13.1m/s | 14.8°C | 80.2% | 920.1hPa | 2.7V | 02:37:00 | 00:00:00 | 00:00:00 | |
| AM1SDL-15 | 2026-09-03 13:15:57 | 52.28622 | 11.92137 | 65° | 42km/h | 915m | -12.6m/s | 14.3°C | 82.0% | 915.7hPa | 2.7V | 00:00:00 | 02:44:19 | 00:00:00 | |
| TFSTFS | 2026-09-03 13:15:56 | 52.28622 | 11.92137 | 66° | 40km/h | 915m | -12.6m/s | 14.3°C | 82.1% | 915.8hPa | 2.7V | 00:00:00 | 00:00:00 | 00:00:00 | |
| DB0DAN | 2026-09-03 13:15:55 | 52.28614 | 11.92104 | 72° | 40km/h | 939m | -13.6m/s | 14.1°C | 83% | 912.9hPa | 2.7V | 00:00:00 | 00:00:00 | 00:00:00 | |
| AM1SDL-15 | 2026-09-03 13:15:45 | 52.28581 | 11.91941 | 71° | 42km/h | 1065m | -13.0m/s | 12.8°C | 89.2% | 899.6hPa | 2.7V | 02:37:00 | 02:44:07 | 00:00:00 | |
| EDDB2-11 | 2026-09-03 13:15:44 | 52.28574 | 11.91909 | 71° | 42km/h | 1089m | -12.8m/s | 12.6°C | 90.3% | 897.2hPa | 2.7V | 00:00:00 | 00:00:00 | 00:00:00 | |
| DB0DAN | 2026-09-03 13:15:40 | 52.28564 | 11.91859 | 73° | 40km/h | 1127m | -13m/s | 12.3°C | 91.8% | 893.23hPa | 2.7V | 00:00:00 | 00:00:00 | 00:00:00 | |
| SONDE2-11 | 2026-09-03 13:15:38 | 52.28558 | 11.91823 | 72° | 44km/h | 1151m | -12.5m/s | 12.1°C | 93.0% | 890.5hPa | 2.7V | 00:00:00 | 00:00:00 | 00:00:00 | |
| TFSTFS | 2026-09-03 13:15:37 | 52.28555 | 11.91806 | 73° | 42km/h | 1163m | -12.9m/s | 12.0°C | 93.5% | 889.1hPa | 2.7V | 02:38:00 | 00:00:00 | 00:00:00 | |
| AM1SDL-15 | 2026-09-03 13:15:33 | 52.28545 | 11.91738 | 81° | 44km/h | 1212m | -12.5m/s | 11.5°C | 95.9% | 883.9hPa | 2.7V | 00:00:00 | 02:43:55 | 00:00:00 | |
| TFSTFS | 2026-09-03 13:15:30 | 52.28542 | 11.91706 | 82° | 38km/h | 1236m | -13.2m/s | 11.3°C | 96.9% | 881.6hPa | 2.7V | 02:38:00 | 00:00:00 | 00:00:00 | |
| EDDB2-12 | 2026-09-03 13:15:30 | 52.28539 | 11.91674 | 83° | 42km/h | 1260m | -12.4m/s | 11.1°C | 98.1% | 878.7hPa | 2.7V | 00:00:00 | 00:00:00 | 00:00:00 | |
| DB0DAN | 2026-09-03 13:15:25 | 52.28533 | 11.91600 | 83° | 46km/h | 1307m | -11.8m/s | 11.1°C | 99.1% | 873.96hPa | 2.7V | 00:00:00 | 00:00:00 | 00:00:00 | |
| DF8AY | 2026-09-03 13:15:21 | 52.28529 | 11.91524 | 86° | 46km/h | 1352m | -12.2m/s | 10.8°C | 100% | 869.1hPa | 2.7V | 02:38:34 | 02:43:43 | 00:00:00 | |
| DF8AY | 2026-09-03 13:15:10 | 52.28525 | 11.91311 | 91° | 47km/h | 1475m | -11.9m/s | 10.3°C | 100% | 856.5hPa | 2.6V | 02:38:34 | 02:43:32 | 00:00:00 | |
| DB0DAN | 2026-09-03 13:15:10 | 52.28525 | 11.91311 | 91° | 44km/h | 1475m | -11.9m/s | 10.3°C | 100% | 856.47hPa | 2.6V | 00:00:00 | 00:00:00 | 00:00:00 | |
| DF8AY | 2026-09-03 13:15:04 | 52.28531 | 11.91168 | 98° | 51km/h | 1552m | -11.6m/s | 10.6°C | 100% | 848.6hPa | 2.7V | 02:38:34 | 02:43:25 | 00:00:00 | |
| DF8AY | 2026-09-03 13:15:00 | 52.28536 | 11.91106 | 97° | 51km/h | 1586m | -11.8m/s | 10.4°C | 100% | 845.5hPa | 2.7V | 02:38:34 | 02:43:22 | 00:00:00 | |
| DF8AY | 2026-09-03 13:14:59 | 52.28538 | 11.91085 | 97° | 49km/h | 1597m | -11.4m/s | 10.3°C | 100% | 844.4hPa | 2.7V | 02:38:34 | 02:43:21 | 00:00:00 | |
| DF8AY | 2026-09-03 13:14:58 | 52.28539 | 11.91064 | 96° | 51km/h | 1608m | -11.2m/s | 10.3°C | 100% | 843.1hPa | 2.7V | 02:38:34 | 02:43:20 | 00:00:00 | |
| DF8AY | 2026-09-03 13:14:57 | 52.28543 | 11.91023 | 97° | 49km/h | 1630m | -11.2m/s | 10.1°C | 100% | 840.9hPa | 2.7V | 02:38:34 | 02:43:18 | 00:00:00 | |
| DF8AY | 2026-09-03 13:14:56 | 52.28544 | 11.91002 | 98° | 51km/h | 1641m | -12.1m/s | 10°C | 100% | 839.9hPa | 2.6V | 02:38:34 | 02:43:17 | 00:00:00 | |
| DB0DAN | 2026-09-03 13:14:55 | 52.28544 | 11.91002 | 98° | 47km/h | 1641m | -12.1m/s | 10°C | 100% | 839.89hPa | 2.6V | 00:00:00 | 00:00:00 | 00:00:00 | |
| DF8AY | 2026-09-03 13:14:54 | 52.28546 | 11.90981 | 98° | 51km/h | 1652m | -12.2m/s | 10°C | 100% | 838.8hPa | 2.6V | 02:38:34 | 02:43:16 | 00:00:00 | |
| DF8AY | 2026-09-03 13:14:53 | 52.28548 | 11.90960 | 97° | 49km/h | 1664m | -11.8m/s | 9.9°C | 100% | 837.8hPa | 2.7V | 02:38:34 | 02:43:15 | 00:00:00 | |
| DF8AY | 2026-09-03 13:14:51 | 52.28551 | 11.90920 | 101° | 49km/h | 1685m | -11.7m/s | 10°C | 100% | 835.3hPa | 2.7V | 02:38:34 | 02:43:13 | 00:00:00 | |
| DF8AY | 2026-09-03 13:14:50 | 52.28553 | 11.90899 | 99° | 51km/h | 1696m | -11.3m/s | 10.1°C | 100% | 834.2hPa | 2.7V | 02:38:34 | 02:43:12 | 00:00:00 | |
| DF8AY | 2026-09-03 13:14:48 | 52.28557 | 11.90859 | 101° | 47km/h | 1718m | -11.7m/s | 10°C | 99.9% | 832.2hPa | 2.7V | 02:39:25 | 02:43:10 | 00:00:00 | |
| DF8AY | 2026-09-03 13:14:47 | 52.28560 | 11.90839 | 101° | 49km/h | 1729m | -12.1m/s | 10°C | 99.5% | 831.1hPa | 2.7V | 02:39:25 | 02:43:09 | 00:00:00 | |
| DF8AY | 2026-09-03 13:14:44 | 52.28570 | 11.90760 | 102° | 49km/h | 1774m | -12m/s | 9.5°C | 100% | 826.5hPa | 2.7V | 02:39:25 | 02:43:05 | 00:00:00 | |
| DF8AY | 2026-09-03 13:14:41 | 52.28576 | 11.90720 | 101° | 49km/h | 1797m | -11.3m/s | 9.5°C | 100% | 824.3hPa | 2.7V | 02:39:25 | 02:43:03 | 00:00:00 | |
| DF8AY | 2026-09-03 13:14:40 | 52.28578 | 11.90700 | 100° | 49km/h | 1807m | -12m/s | 9.5°C | 100% | 823.1hPa | 2.7V | 02:39:25 | 02:43:02 | 00:00:00 | |
| DB0DAN | 2026-09-03 13:14:40 | 52.28578 | 11.90700 | 100° | 47km/h | 1807m | -12m/s | 9.5°C | 96.7% | 823.13hPa | 2.7V | 00:00:00 | 00:00:00 | 00:00:00 | |
| DF8AY | 2026-09-03 13:14:39 | 52.28580 | 11.90679 | 100° | 49km/h | 1818m | -12m/s | 9.5°C | 99.4% | 822hPa | 2.7V | 02:39:25 | 02:43:01 | 00:00:00 | |
| DF8AY | 2026-09-03 13:14:37 | 52.28584 | 11.90637 | 97° | 49km/h | 1841m | -11.7m/s | 9.5°C | 99.1% | 819.9hPa | 2.7V | 02:39:25 | 02:42:59 | 00:00:00 | |
| DF8AY | 2026-09-03 13:14:36 | 52.28587 | 11.90595 | 96° | 51km/h | 1863m | -11.6m/s | 9.4°C | 99.4% | 817.6hPa | 2.7V | 02:39:25 | 02:42:57 | 00:00:00 | |
| DF8AY | 2026-09-03 13:14:34 | 52.28588 | 11.90574 | 96° | 51km/h | 1874m | -11.6m/s | 9.4°C | 99.7% | 816.6hPa | 2.7V | 02:39:25 | 02:42:56 | 00:00:00 | |
| DF8AY | 2026-09-03 13:14:32 | 52.28592 | 11.90531 | 98° | 53km/h | 1896m | -12.5m/s | 9.2°C | 100% | 814.3hPa | 2.7V | 02:39:25 | 02:42:54 | 00:00:00 | |
| DF8AY | 2026-09-03 13:14:30 | 52.28595 | 11.90487 | 98° | 55km/h | 1919m | -12.2m/s | 9.1°C | 99.5% | 812.1hPa | 2.6V | 02:39:25 | 02:42:52 | 00:00:00 | |
| DF8AY | 2026-09-03 13:14:28 | 52.28598 | 11.90443 | 97° | 55km/h | 1942m | -13m/s | 9.1°C | 97.5% | 809.9hPa | 2.7V | 02:39:25 | 02:42:50 | 00:00:00 | |
| DF8AY | 2026-09-03 13:14:27 | 52.28600 | 11.90420 | 97° | 57km/h | 1954m | -12.7m/s | 9°C | 97.4% | 808.6hPa | 2.7V | 02:39:25 | 02:42:49 | 00:00:00 | |
| DF8AY | 2026-09-03 13:14:26 | 52.28601 | 11.90397 | 98° | 55km/h | 1966m | -11.8m/s | 9°C | 96.7% | 807.6hPa | 2.7V | 02:39:25 | 02:42:48 | 00:00:00 | |
| DF8AY | 2026-09-03 13:14:24 | 52.28605 | 11.90350 | 97° | 57km/h | 1989m | -11.2m/s | 8.8°C | 96.6% | 805.3hPa | 2.7V | 02:39:25 | 02:42:46 | 00:00:00 | |
| DF8AY | 2026-09-03 13:14:22 | 52.28620 | 11.90185 | 97° | 58km/h | 2067m | -11.5m/s | 8.3°C | 97.3% | 797.5hPa | 2.7V | 02:39:25 | 02:42:39 | 00:00:00 | |
| AM1SDL-15 | 2026-09-03 13:14:21 | 52.28611 | 11.90280 | 101° | 58km/h | 2021m | -12.5m/s | 8.5°C | 90.1% | 802.1hPa | 2.7V | 00:00:00 | 02:42:43 | 00:00:00 | |
| DF8AY-15 | 2026-09-03 13:14:15 | 52.28623 | 11.90136 | 97° | 60km/h | 2090m | -11.8m/s | 8.1°C | 91.6% | 795.2hPa | 2.7V | 02:39:00 | 02:42:37 | 00:00:00 | |
| DB0DAN | 2026-09-03 13:14:10 | 52.28632 | 11.90013 | 96° | 58km/h | 2147m | -12.4m/s | 7.6°C | 94% | 789.92hPa | 2.6V | 00:00:00 | 00:00:00 | 00:00:00 | |
| DF8AY | 2026-09-03 13:14:07 | 52.28636 | 11.89938 | 96° | 60km/h | 2181m | -12.4m/s | 7.4°C | 100% | 786.6hPa | 2.7V | 02:39:25 | 02:42:29 | 00:00:00 | |
| DF8AY | 2026-09-03 13:13:56 | 52.28653 | 11.89656 | 95° | 64km/h | 2309m | -12.1m/s | 6.5°C | 96.6% | 774.7hPa | 2.7V | 02:40:16 | 02:42:18 | 00:00:00 | |
| DB0DAN | 2026-09-03 13:13:55 | 52.28655 | 11.89630 | 95° | 60km/h | 2320m | -12.4m/s | 6.4°C | 90.5% | 773.57hPa | 2.7V | 00:00:00 | 00:00:00 | 00:00:00 | |
| DF8AY | 2026-09-03 13:13:45 | 52.28669 | 11.89360 | 94° | 66km/h | 2437m | -12.7m/s | 5.5°C | 100% | 762.8hPa | 2.6V | 02:40:16 | 02:42:07 | 00:00:00 | |
| DF8AY | 2026-09-03 13:13:35 | 52.28682 | 11.89084 | 93° | 68km/h | 2555m | -12.9m/s | 4.7°C | 98% | 752.1hPa | 2.6V | 02:40:16 | 02:41:57 | 00:00:00 | |
| DF8AY | 2026-09-03 13:13:25 | 52.28692 | 11.88805 | 94° | 68km/h | 2670m | -11.8m/s | 3.9°C | 89.1% | 741.4hPa | 2.6V | 02:40:16 | 02:41:47 | 00:00:00 | |
| DB0DAN | 2026-09-03 13:13:25 | 52.28692 | 11.88805 | 94° | 64km/h | 2670m | -11.8m/s | 3.9°C | 87% | 741.44hPa | 2.6V | 00:00:00 | 00:00:00 | 00:00:00 | |
| DF8AY | 2026-09-03 13:13:14 | 52.28713 | 11.88506 | 100° | 68km/h | 2796m | -12.2m/s | 3.6°C | 69.4% | 729.7hPa | 2.7V | 02:40:16 | 02:41:36 | 00:00:00 | |
| DB0DAN | 2026-09-03 13:13:10 | 52.28725 | 11.88398 | 101° | 62km/h | 2843m | -12.3m/s | 4.2°C | 39.6% | 725.67hPa | 2.7V | 00:00:00 | 00:00:00 | 00:00:00 | |
| DF8AY | 2026-09-03 13:13:03 | 52.28748 | 11.88212 | 100° | 68km/h | 2925m | -12.6m/s | 4.1°C | 35.1% | 718.4hPa | 2.6V | 02:41:07 | 02:41:25 | 00:00:00 | |
| DF8AY | 2026-09-03 13:12:53 | 52.28779 | 11.87950 | 102° | 62km/h | 3039m | -11.8m/s | 3.5°C | 31.1% | 708.2hPa | 2.7V | 02:41:07 | 02:41:15 | 00:00:00 | |
| DF8AY | 2026-09-03 13:12:42 | 52.28815 | 11.87672 | 104° | 64km/h | 3164m | -12m/s | 2.7°C | 28.8% | 697.3hPa | 2.6V | 02:41:07 | 02:41:04 | 00:00:00 | |
| DB0DAN | 2026-09-03 13:12:40 | 52.28823 | 11.87621 | 104° | 60km/h | 3187m | -12.3m/s | 2.5°C | 24.3% | 695.39hPa | 2.6V | 00:00:00 | 00:00:00 | 00:00:00 | |
| EDDB2-11 | 2026-09-03 13:12:38 | 52.28831 | 11.87570 | 105° | 64km/h | 3210m | -12.1m/s | 2.3°C | 24.1% | 693.2hPa | 2.7V | 00:00:00 | 00:00:00 | 00:00:00 | |
| DF8AY-15 | 2026-09-03 13:12:35 | 52.28843 | 11.87493 | 106° | 69km/h | 3245m | -11.6m/s | 2.0°C | 23.6% | 690.2hPa | 2.7V | 00:00:00 | 02:40:57 | 00:00:00 | |
| SONCRA | 2026-09-03 13:12:34 | 52.28848 | 11.87467 | 105° | 66km/h | 3256m | -12.7m/s | 2.0°C | 23.0% | 689.6hPa | 2.7V | 00:00:00 | 00:00:00 | 00:00:00 | |
| DM0DOS-11 | 2026-09-03 13:12:33 | 52.28862 | 11.87387 | 104° | 68km/h | 3290m | -11.5m/s | 1.8°C | 21.9% | 686.6hPa | 2.7V | 02:40:53 | 02:40:53 | 00:00:00 | |
| DF8AY | 2026-09-03 13:12:32 | 52.28857 | 11.87413 | 106° | 68km/h | 3278m | -12.2m/s | 1.9°C | 25.6% | 687.3hPa | 2.7V | 02:41:07 | 02:40:54 | 00:00:00 | |
| DL2RXE-15 | 2026-09-03 13:12:28 | 52.28871 | 11.87331 | 106° | 69km/h | 3312m | -12.4m/s | 1.6°C | 28.4% | 684.7hPa | 2.6V | 00:00:00 | 00:00:00 | 00:00:00 | |
| DM0DOS-11 | 2026-09-03 13:12:26 | 52.28909 | 11.87106 | 105° | 71km/h | 3405m | -12.4m/s | 1°C | 26.7% | 676.9hPa | 2.6V | 02:41:03 | 02:40:43 | 00:00:00 | |
| DB0DAN | 2026-09-03 13:12:25 | 52.28890 | 11.87220 | 106° | 68km/h | 3359m | -12m/s | 1.3°C | 24.3% | 680.76hPa | 2.7V | 00:00:00 | 00:00:00 | 00:00:00 | |
| DF8AY | 2026-09-03 13:12:21 | 52.28909 | 11.87106 | 105° | 73km/h | 3405m | -12.4m/s | 1°C | 31.4% | 676.9hPa | 2.6V | 02:41:07 | 02:40:43 | 00:00:00 | |
| DM0DOS-11 | 2026-09-03 13:12:20 | 52.28939 | 11.86931 | 105° | 73km/h | 3474m | -12.2m/s | 0.4°C | 24.5% | 671.1hPa | 2.7V | 02:41:09 | 02:40:37 | 00:00:00 | |
| AA1-15 | 2026-09-03 13:12:18 | 52.28924 | 11.87019 | 105° | 75km/h | 3440m | -11.6m/s | 0.7°C | 30.2% | 674hPa | 2.7V | 02:41:58 | 02:40:40 | 00:00:00 | |
| DM0DOS-11 | 2026-09-03 13:12:15 | 52.28965 | 11.86782 | 105° | 75km/h | 3530m | -11.3m/s | -0.1°C | 21.8% | 666.2hPa | 2.7V | 02:41:14 | 02:40:32 | 00:00:00 | |
| DF8AY | 2026-09-03 13:12:11 | 52.28960 | 11.86812 | 106° | 75km/h | 3519m | -11.7m/s | 0°C | 26% | 667.3hPa | 2.6V | 02:41:58 | 02:40:33 | 00:00:00 | |
| AM1SDL-15 | 2026-09-03 13:12:08 | 52.28975 | 11.86721 | 105° | 78km/h | 3553m | -12.6m/s | -0.2°C | 22.0% | 664.3hPa | 2.7V | 02:41:00 | 02:40:30 | 00:00:00 | |
| EDDB2-11 | 2026-09-03 13:12:07 | 52.28980 | 11.86691 | 104° | 75km/h | 3564m | -12.0m/s | -0.3°C | 21.1% | 663.6hPa | 2.6V | 00:00:00 | 00:00:00 | 00:00:00 | |
| DM0DOS-11 | 2026-09-03 13:12:04 | 52.29018 | 11.86441 | 103° | 78km/h | 3658m | -12.3m/s | -0.8°C | 19.6% | 655.8hPa | 2.6V | 02:41:25 | 02:40:21 | 00:00:00 | |
| AA1-15 | 2026-09-03 13:12:01 | 52.29010 | 11.86504 | 102° | 75km/h | 3635m | -12.2m/s | -0.8°C | 23.7% | 657.7hPa | 2.6V | 02:41:58 | 02:40:23 | 00:00:00 | |
| DF8AY | 2026-09-03 13:12:00 | 52.29014 | 11.86473 | 103° | 77km/h | 3647m | -12.5m/s | -0.8°C | 23.3% | 656.6hPa | 2.6V | 02:41:58 | 02:40:22 | 00:00:00 | |
| DM0DOS-11 | 2026-09-03 13:11:59 | 52.29041 | 11.86285 | 102° | 77km/h | 3719m | -12.3m/s | -0.9°C | 20.7% | 650.8hPa | 2.7V | 02:41:30 | 02:40:16 | 00:00:00 | |
| AM1SDL-15 | 2026-09-03 13:11:56 | 52.29032 | 11.86347 | 102° | 75km/h | 3694m | -12.3m/s | -0.8°C | 17.8% | 652.8hPa | 2.6V | 00:00:00 | 02:40:18 | 00:00:00 | |
| DF8AY-15 | 2026-09-03 13:11:55 | 52.29036 | 11.86316 | 103° | 75km/h | 3706m | -12.6m/s | -0.8°C | 19.1% | 651.8hPa | 2.6V | 00:00:00 | 02:40:17 | 00:00:00 | |
| DM0DOS-11 | 2026-09-03 13:11:54 | 52.29062 | 11.86132 | 103° | 77km/h | 3778m | -12.1m/s | -1.3°C | 29.8% | 646hPa | 2.6V | 02:41:35 | 02:40:11 | 00:00:00 | |
| DF8AY | 2026-09-03 13:11:50 | 52.29062 | 11.86132 | 103° | 77km/h | 3778m | -12.1m/s | -1.3°C | 35% | 646hPa | 2.6V | 02:41:58 | 02:40:11 | 00:00:00 | |
| AM1SDL-15 | 2026-09-03 13:11:44 | 52.29083 | 11.85980 | 103° | 75km/h | 3836m | -12.6m/s | -1.8°C | 25.0% | 641.2hPa | 2.5V | 00:00:00 | 02:40:06 | 00:00:00 | |
| DM0DOS-11 | 2026-09-03 13:11:43 | 52.29107 | 11.85831 | 104° | 75km/h | 3895m | -12.6m/s | -2.2°C | 35.7% | 636.6hPa | 2.5V | 02:41:45 | 02:40:01 | 00:00:00 | |
| TFSTFS | 2026-09-03 13:11:41 | 52.29093 | 11.85920 | 107° | 75km/h | 3859m | -12.4m/s | -2.0°C | 21.1% | 639.4hPa | 2.6V | 02:41:00 | 00:00:00 | 00:00:00 | |
| DB0DAN | 2026-09-03 13:11:40 | 52.29102 | 11.85861 | 104° | 71km/h | 3883m | -11.8m/s | -2.1°C | 25.7% | 637.6hPa | 2.6V | 00:00:00 | 00:00:00 | 00:00:00 | |
| DF8AY | 2026-09-03 13:11:39 | 52.29107 | 11.85831 | 105° | 75km/h | 3895m | -12.6m/s | -2.2°C | 41.4% | 636.6hPa | 2.5V | 02:41:58 | 02:40:01 | 00:00:00 | |
| DM0DOS-11 | 2026-09-03 13:11:38 | 52.29136 | 11.85652 | 106° | 75km/h | 3966m | -11.9m/s | -2.5°C | 17.9% | 630.9hPa | 2.6V | 02:41:51 | 02:39:55 | 00:00:00 | |
| EDDB2-11 | 2026-09-03 13:11:36 | 52.29122 | 11.85742 | 103° | 71km/h | 3931m | -11.8m/s | -2.4°C | 24.4% | 633.7hPa | 2.6V | 00:00:00 | 00:00:00 | 00:00:00 | |
| DF8AY-15 | 2026-09-03 13:11:35 | 52.29126 | 11.85712 | 105° | 75km/h | 3943m | -11.8m/s | -2.4°C | 20.7% | 632.8hPa | 2.6V | 00:00:00 | 02:39:57 | 00:00:00 | |
| DM0DOS-11 | 2026-09-03 13:11:33 | 52.29168 | 11.85475 | 106° | 73km/h | 4036m | -12.1m/s | -2.9°C | 13.3% | 625.3hPa | 2.6V | 02:41:57 | 02:39:49 | 00:00:00 | |
| AA1-15 | 2026-09-03 13:11:28 | 52.29168 | 11.85475 | 107° | 73km/h | 4036m | -12.1m/s | -2.9°C | 15.4% | 625.3hPa | 2.6V | 02:41:58 | 02:39:49 | 00:00:00 | |
| DF8AY | 2026-09-03 13:11:28 | 52.29163 | 11.85504 | 106° | 73km/h | 4025m | -11.8m/s | -2.8°C | 15.8% | 626.3hPa | 2.6V | 02:41:58 | 02:39:50 | 00:00:00 | |
| DM0DOS-11 | 2026-09-03 13:11:22 | 52.29228 | 11.85180 | 108° | 73km/h | 4156m | -12.3m/s | -3.9°C | 20.8% | 616hPa | 2.6V | 02:42:07 | 02:39:39 | 00:00:00 | |
| DF8AY | 2026-09-03 13:11:18 | 52.29222 | 11.85209 | 109° | 75km/h | 4144m | -12.3m/s | -3.8°C | 21.7% | 616.7hPa | 2.6V | 02:42:49 | 02:39:40 | 00:00:00 | |
| TFSTFS | 2026-09-03 13:11:17 | 52.29222 | 11.85209 | 110° | 75km/h | 4144m | -12.3m/s | -3.8°C | 18.3% | 616.7hPa | 2.6V | 02:42:00 | 00:00:00 | 00:00:00 | |
| DF8AY-15 | 2026-09-03 13:11:15 | 52.29240 | 11.85123 | 109° | 75km/h | 4180m | -12.1m/s | -4.0°C | 23.9% | 614.1hPa | 2.6V | 02:42:00 | 02:39:37 | 00:00:00 | |
| DM0DOS-11 | 2026-09-03 13:11:12 | 52.29286 | 11.84886 | 107° | 75km/h | 4275m | -12.2m/s | -4.5°C | 45.9% | 606.7hPa | 2.5V | 02:42:17 | 02:39:29 | 00:00:00 | |
| DB0DAN | 2026-09-03 13:11:10 | 52.29269 | 11.84975 | 107° | 71km/h | 4239m | -12.5m/s | -4.5°C | 48.8% | 609.4hPa | 2.6V | 00:00:00 | 00:00:00 | 00:00:00 | |
| DF8AY | 2026-09-03 13:11:07 | 52.29286 | 11.84886 | 107° | 75km/h | 4275m | -12.2m/s | -4.6°C | 50.9% | 606.7hPa | 2.5V | 02:42:49 | 02:39:29 | 00:00:00 | |
| DM0DOS-11 | 2026-09-03 13:11:07 | 52.29314 | 11.84738 | 107° | 75km/h | 4336m | -11.8m/s | -4.8°C | 40.8% | 602.1hPa | 2.6V | 02:42:22 | 02:39:24 | 00:00:00 | |
| AA1-15 | 2026-09-03 13:11:07 | 52.29292 | 11.84857 | 107° | 73km/h | 4288m | -12.4m/s | -4.6°C | 49.9% | 605.8hPa | 2.6V | 02:42:49 | 02:39:28 | 00:00:00 | |
| EDDB2-11 | 2026-09-03 13:11:05 | 52.29297 | 11.84827 | 106° | 73km/h | 4300m | -12.6m/s | -4.7°C | 44.1% | 604.9hPa | 2.5V | 00:00:00 | 00:00:00 | 00:00:00 | |
| SONCRA | 2026-09-03 13:11:01 | 52.29319 | 11.84709 | 107° | 71km/h | 4348m | -11.9m/s | -4.9°C | 38.8% | 601.1hPa | 2.5V | 00:00:00 | 00:00:00 | 00:00:00 | |
| SONDE2-11 | 2026-09-03 13:10:59 | 52.29331 | 11.84651 | 107° | 73km/h | 4371m | -11.8m/s | -5.0°C | 38.7% | 599.2hPa | 2.5V | 00:00:00 | 00:00:00 | 00:00:00 | |
| DM0DOS-11 | 2026-09-03 13:10:57 | 52.29353 | 11.84533 | 105° | 71km/h | 4420m | -12.2m/s | -5.3°C | 46.6% | 595.4hPa | 2.5V | 02:42:29 | 02:39:17 | 00:00:00 | |
| DF8AY | 2026-09-03 13:10:56 | 52.29348 | 11.84562 | 107° | 75km/h | 4407m | -12.6m/s | -5.3°C | 51.4% | 596.5hPa | 2.6V | 02:42:49 | 02:39:18 | 00:00:00 | |
| DB0DAN | 2026-09-03 13:10:55 | 52.29353 | 11.84533 | 106° | 68km/h | 4420m | -12.2m/s | -5.3°C | 46% | 595.44hPa | 2.5V | 00:00:00 | 00:00:00 | 00:00:00 | |
| DF8AY-15 | 2026-09-03 13:10:55 | 52.29353 | 11.84533 | 106° | 71km/h | 4420m | -12.2m/s | -5.3°C | 46.6% | 595.4hPa | 2.6V | 00:00:00 | 02:39:17 | 00:00:00 | |
| DM0DOS-11 | 2026-09-03 13:10:52 | 52.29378 | 11.84389 | 106° | 73km/h | 4480m | -13.9m/s | -5.2°C | 22.2% | 590.9hPa | 2.6V | 02:42:34 | 02:39:12 | 00:00:00 | |
| DO2SHX-10 | 2026-09-03 13:10:50 | 52.29378 | 11.84389 | 107° | 71km/h | 4480m | -13.9m/s | -5.2°C | 22.2% | 590.9hPa | 2.6V | 02:42:00 | 02:39:12 | 00:00:00 | |
| DM0DOS-11 | 2026-09-03 13:10:47 | 52.29402 | 11.84246 | 103° | 73km/h | 4545m | -13.9m/s | -5.6°C | 10.8% | 586.3hPa | 2.6V | 02:42:39 | 02:39:07 | 00:00:00 | |
| DF8AY | 2026-09-03 13:10:45 | 52.29402 | 11.84246 | 104° | 73km/h | 4545m | -13.9m/s | -5.6°C | 12.4% | 586.3hPa | 2.6V | 02:42:49 | 02:39:07 | 00:00:00 | |
| DO2SHX-10 | 2026-09-03 13:10:44 | 52.29406 | 11.84217 | 104° | 71km/h | 4558m | -13.8m/s | -5.6°C | 8.7% | 585.1hPa | 2.5V | 00:00:00 | 02:39:06 | 00:00:00 | |
| DL1XH1-15 | 2026-09-03 13:10:41 | 52.29438 | 11.84017 | 103° | 71km/h | 4647m | -13m/s | -6.2°C | 8.4% | 578.6hPa | 2.5V | 02:42:47 | 02:38:59 | 00:00:00 | |
| DB0DAN | 2026-09-03 13:10:40 | 52.29424 | 11.84103 | 104° | 68km/h | 4607m | -13.5m/s | -6°C | 5.4% | 581.44hPa | 2.6V | 00:00:00 | 00:00:00 | 00:00:00 | |
| DL1XH-west | 2026-09-03 13:10:38 | 52.29437 | 11.84017 | 104° | 71km/h | 4647m | -13m/s | -6.2°C | 9.2% | 578.6hPa | 2.5V | 02:42:49 | 02:38:59 | 00:00:00 | |
| DM0DOS-11 | 2026-09-03 13:10:37 | 52.29446 | 11.83961 | 102° | 71km/h | 4672m | -14.1m/s | -6.4°C | 8.5% | 576.6hPa | 2.6V | 02:42:49 | 02:38:57 | 00:00:00 | |
| DL1XH1-15 | 2026-09-03 13:10:36 | 52.29462 | 11.83850 | 103° | 69km/h | 4722m | -12.7m/s | -6.8°C | 10.9% | 572.9hPa | 2.5V | 02:42:53 | 02:38:53 | 00:00:00 | |
| DF8AY | 2026-09-03 13:10:35 | 52.29446 | 11.83961 | 103° | 71km/h | 4672m | -14.1m/s | -6.4°C | 9.2% | 576.6hPa | 2.6V | 02:42:49 | 02:38:57 | 00:00:00 | |
| DF8AY-15 | 2026-09-03 13:10:35 | 52.29446 | 11.83960 | 103° | 69km/h | 4672m | -14.1m/s | -6.3°C | 8.5% | 576.5hPa | 2.6V | 00:00:00 | 02:38:57 | 00:00:00 | |
| DO2SHX-10 | 2026-09-03 13:10:34 | 52.29450 | 11.83932 | 104° | 68km/h | 4685m | -13.3m/s | -6.4°C | 8.7% | 575.6hPa | 2.6V | 00:00:00 | 02:38:56 | 00:00:00 | |
| AM1SDL-15 | 2026-09-03 13:10:32 | 52.29458 | 11.83877 | 103° | 69km/h | 4709m | -12.7m/s | -6.6°C | 10.7% | 573.8hPa | 2.6V | 00:00:00 | 02:38:54 | 00:00:00 | |
| DM0DOS-11 | 2026-09-03 13:10:31 | 52.29466 | 11.83821 | 103° | 69km/h | 4734m | -13.2m/s | -6.9°C | 11.1% | 572.1hPa | 2.6V | 02:42:54 | 02:38:52 | 00:00:00 | |
| DO2SHX-10 | 2026-09-03 13:10:31 | 52.29462 | 11.83849 | 104° | 69km/h | 4722m | -12.7m/s | -6.7°C | 10.9% | 572.9hPa | 2.5V | 02:42:00 | 02:38:53 | 00:00:00 | |
| DL1XH1-15 | 2026-09-03 13:10:30 | 52.29483 | 11.83711 | 104° | 71km/h | 4784m | -13m/s | -7.3°C | 12.1% | 568.3hPa | 2.6V | 02:42:58 | 02:38:48 | 00:00:00 | |
| DL1XH-west | 2026-09-03 13:10:26 | 52.29483 | 11.83711 | 104° | 71km/h | 4784m | -13m/s | -7.3°C | 14% | 568.3hPa | 2.6V | 02:43:40 | 02:38:48 | 00:00:00 | |
| DF8AY | 2026-09-03 13:10:24 | 52.29493 | 11.83655 | 105° | 69km/h | 4807m | -10.9m/s | -7.5°C | 14.3% | 566.6hPa | 2.5V | 02:43:40 | 02:38:46 | 00:00:00 | |
| DO2SHX-10 | 2026-09-03 13:10:22 | 52.29502 | 11.83599 | 106° | 69km/h | 4830m | -11.7m/s | -7.6°C | 12.6% | 564.9hPa | 2.6V | 02:43:00 | 02:38:44 | 00:00:00 | |
| DL1XH1-15 | 2026-09-03 13:10:20 | 52.29517 | 11.83515 | 105° | 71km/h | 4864m | -12.4m/s | -7.9°C | 12.9% | 562.5hPa | 2.5V | 02:43:05 | 02:38:41 | 00:00:00 | |
| DL1XH-west | 2026-09-03 13:10:16 | 52.29531 | 11.83430 | 105° | 69km/h | 4902m | -13.8m/s | -8.2°C | 16.1% | 559.9hPa | 2.6V | 02:43:40 | 02:38:38 | 00:00:00 | |
| AA1-15 | 2026-09-03 13:10:12 | 52.29550 | 11.83319 | 106° | 69km/h | 4955m | -13m/s | -8.6°C | 17.9% | 556hPa | 2.6V | 02:43:40 | 02:38:34 | 00:00:00 | |
| DL1XH-west | 2026-09-03 13:10:05 | 52.29583 | 11.83125 | 106° | 69km/h | 5036m | -11.3m/s | -9.2°C | 23.2% | 550.1hPa | 2.6V | 02:43:40 | 02:38:27 | 00:00:00 | |
| DM0DOS-11 | 2026-09-03 13:10:05 | 52.29599 | 11.83042 | 107° | 69km/h | 5069m | -12m/s | -9.5°C | 19% | 547.7hPa | 2.5V | 02:43:22 | 02:38:24 | 00:00:00 | |
| AA1-15 | 2026-09-03 13:10:03 | 52.29598 | 11.83042 | 107° | 71km/h | 5069m | -12m/s | -9.5°C | 22.7% | 547.7hPa | 2.5V | 02:43:40 | 02:38:24 | 00:00:00 | |
| DF8AY | 2026-09-03 13:10:01 | 52.29630 | 11.82877 | 108° | 68km/h | 5140m | -11.8m/s | -10.2°C | 21.5% | 542.8hPa | 2.5V | 02:43:40 | 02:38:18 | 00:00:00 | |
| DL1XH-west | 2026-09-03 13:09:55 | 52.29635 | 11.82850 | 108° | 69km/h | 5151m | -11.6m/s | -10.3°C | 22.1% | 542hPa | 2.6V | 02:43:40 | 02:38:17 | 00:00:00 | |
| DB0DAN | 2026-09-03 13:09:55 | 52.29635 | 11.82850 | 108° | 66km/h | 5151m | -11.6m/s | -10.3°C | 18.1% | 542hPa | 2.6V | 00:00:00 | 00:00:00 | 00:00:00 | |
| DM0DOS-11 | 2026-09-03 13:09:54 | 52.29651 | 11.82770 | 107° | 68km/h | 5186m | -12.6m/s | -10.6°C | 15.4% | 539.6hPa | 2.6V | 02:43:32 | 02:38:14 | 00:00:00 | |
| AA1-15 | 2026-09-03 13:09:52 | 52.29651 | 11.82770 | 108° | 68km/h | 5186m | -12.6m/s | -10.6°C | 18.3% | 539.6hPa | 2.6V | 02:43:40 | 02:38:14 | 00:00:00 | |
| EDDB2-12 | 2026-09-03 13:09:48 | 52.29673 | 11.82661 | 107° | 68km/h | 5233m | -12.7m/s | -10.9°C | 18.3% | 536.3hPa | 2.6V | 00:00:00 | 00:00:00 | 00:00:00 | |
| DM0DOS-11 | 2026-09-03 13:09:47 | 52.29710 | 11.82469 | 107° | 68km/h | 5316m | -12.2m/s | -11.5°C | 14.7% | 530.4hPa | 2.6V | 02:43:43 | 02:38:03 | 00:00:00 | |
| DF8AY | 2026-09-03 13:09:45 | 52.29689 | 11.82580 | 106° | 69km/h | 5268m | -12.8m/s | -11.1°C | 17.8% | 533.8hPa | 2.5V | 02:43:40 | 02:38:07 | 00:00:00 | |
| DL1XH-west | 2026-09-03 13:09:44 | 52.29694 | 11.82552 | 107° | 71km/h | 5280m | -12.2m/s | -11.2°C | 16.8% | 532.9hPa | 2.6V | 02:43:40 | 02:38:06 | 00:00:00 | |
| AA1-15 | 2026-09-03 13:09:41 | 52.29710 | 11.82469 | 108° | 68km/h | 5317m | -12.2m/s | -11.5°C | 17.4% | 530.4hPa | 2.6V | 02:44:31 | 02:38:03 | 00:00:00 | |
| DB0DAN | 2026-09-03 13:09:40 | 52.29715 | 11.82443 | 108° | 62km/h | 5329m | -12.6m/s | -11.5°C | 13.5% | 529.59hPa | 2.5V | 00:00:00 | 00:00:00 | 00:00:00 | |
| DF8AY | 2026-09-03 13:09:35 | 52.29742 | 11.82314 | 110° | 64km/h | 5389m | -12.7m/s | -11.9°C | 14% | 525.4hPa | 2.5V | 02:44:31 | 02:37:57 | 00:00:00 | |
| DM0DOS-11 | 2026-09-03 13:09:35 | 52.29758 | 11.82239 | 109° | 64km/h | 5425m | -13.1m/s | -12.1°C | 11.2% | 522.9hPa | 2.6V | 02:43:52 | 02:37:54 | 00:00:00 | |
| DL1XH-west | 2026-09-03 13:09:33 | 52.29753 | 11.82264 | 110° | 64km/h | 5413m | -13m/s | -12°C | 13.1% | 523.7hPa | 2.6V | 02:44:31 | 02:37:55 | 00:00:00 | |
| AA1-15 | 2026-09-03 13:09:30 | 52.29769 | 11.82190 | 110° | 66km/h | 5451m | -13.6m/s | -12.3°C | 13.8% | 521.2hPa | 2.5V | 02:44:31 | 02:37:52 | 00:00:00 | |
| DO2SHX-10 | 2026-09-03 13:09:29 | 52.29775 | 11.82164 | 110° | 64km/h | 5464m | -13.6m/s | -12.3°C | 12.3% | 520.2hPa | 2.6V | 00:00:00 | 02:37:51 | 00:00:00 | |
| SONCRA | 2026-09-03 13:09:28 | 52.29786 | 11.82114 | 110° | 64km/h | 5489m | -13.7m/s | -12.5°C | 13.1% | 518.6hPa | 2.6V | 00:00:00 | 00:00:00 | 00:00:00 | |
| DB0DAN | 2026-09-03 13:09:25 | 52.29799 | 11.82065 | 111° | 62km/h | 5515m | -13.7m/s | -12.7°C | 13.8% | 516.9hPa | 2.6V | 00:00:00 | 00:00:00 | 00:00:00 | |
| DM0DOS-11 | 2026-09-03 13:09:24 | 52.29816 | 11.81990 | 110° | 66km/h | 5553m | -13.4m/s | -13.1°C | 15.1% | 514.3hPa | 2.6V | 02:44:02 | 02:37:44 | 00:00:00 | |
| DF8AY | 2026-09-03 13:09:23 | 52.29810 | 11.82016 | 111° | 64km/h | 5540m | -13.5m/s | -13°C | 17.8% | 515.3hPa | 2.5V | 02:44:31 | 02:37:45 | 00:00:00 | |
| DL1XH-west | 2026-09-03 13:09:22 | 52.29816 | 11.81990 | 111° | 66km/h | 5553m | -13.4m/s | -13.1°C | 18.1% | 514.3hPa | 2.6V | 02:44:31 | 02:37:44 | 00:00:00 | |
| AA1-15 | 2026-09-03 13:09:20 | 52.29828 | 11.81940 | 111° | 64km/h | 5579m | -12.7m/s | -13.3°C | 18.8% | 512.7hPa | 2.6V | 02:44:31 | 02:37:42 | 00:00:00 | |
| AM1SDL-15 | 2026-09-03 13:09:19 | 52.29834 | 11.81915 | 112° | 66km/h | 5591m | -13.1m/s | -13.4°C | 15.9% | 511.8hPa | 2.5V | 00:00:00 | 02:37:41 | 00:00:00 | |
| DL1XH1-15 | 2026-09-03 13:09:17 | 52.29876 | 11.81734 | 110° | 68km/h | 5681m | -13.6m/s | -14°C | 19.6% | 505.8hPa | 2.5V | 02:44:12 | 02:37:34 | 00:00:00 | |
| DF8AY | 2026-09-03 13:09:13 | 52.29870 | 11.81760 | 111° | 68km/h | 5668m | -13.2m/s | -13.9°C | 20.9% | 506.7hPa | 2.5V | 02:44:31 | 02:37:35 | 00:00:00 | |
| DL1XH-west | 2026-09-03 13:09:12 | 52.29876 | 11.81734 | 111° | 68km/h | 5681m | -13.6m/s | -14°C | 23.5% | 505.8hPa | 2.5V | 02:44:31 | 02:37:34 | 00:00:00 | |
| DB0DAN | 2026-09-03 13:09:10 | 52.29888 | 11.81683 | 110° | 62km/h | 5706m | -13.2m/s | -14.3°C | 21.6% | 504.04hPa | 2.6V | 00:00:00 | 00:00:00 | 00:00:00 | |
| AA1-15 | 2026-09-03 13:09:04 | 52.29925 | 11.81529 | 112° | 69km/h | 5788m | -14m/s | -15°C | 31% | 498.7hPa | 2.6V | 02:44:31 | 02:37:26 | 00:00:00 | |
| DF8AY | 2026-09-03 13:09:03 | 52.29938 | 11.81476 | 112° | 68km/h | 5815m | -13.5m/s | -15.3°C | 47.4% | 496.9hPa | 2.6V | 02:44:31 | 02:37:24 | 00:00:00 | |
| DM0DOS-11 | 2026-09-03 13:09:03 | 52.29938 | 11.81476 | 112° | 68km/h | 5815m | -13.4m/s | -15.3°C | 42.4% | 496.9hPa | 2.6V | 02:44:22 | 02:37:24 | 00:00:00 | |
| DL1XH-west | 2026-09-03 13:09:02 | 52.29945 | 11.81450 | 113° | 68km/h | 5828m | -13m/s | -15.5°C | 48.6% | 496hPa | 2.5V | 02:44:31 | 02:37:23 | 00:00:00 | |
| EDDB2-11 | 2026-09-03 13:09:01 | 52.29945 | 11.81450 | 112° | 66km/h | 5828m | -13.0m/s | -15.5°C | 42.6% | 496.0hPa | 2.5V | 00:00:00 | 00:00:00 | 00:00:00 | |
| SONCRA | 2026-09-03 13:08:57 | 52.29969 | 11.81349 | 110° | 68km/h | 5878m | -13.6m/s | -15.9°C | 35.7% | 492.6hPa | 2.5V | 00:00:00 | 00:00:00 | 00:00:00 | |
| DB0DAN | 2026-09-03 13:08:55 | 52.29982 | 11.81296 | 111° | 66km/h | 5905m | -14.4m/s | -16.2°C | 51.3% | 490.94hPa | 2.5V | 00:00:00 | 00:00:00 | 00:00:00 | |
| SONDE2-11 | 2026-09-03 13:08:55 | 52.29988 | 11.81269 | 110° | 69km/h | 5918m | -14.4m/s | -16.3°C | 56.7% | 490.1hPa | 2.6V | 00:00:00 | 00:00:00 | 00:00:00 | |
| AM1SDL-15 | 2026-09-03 13:08:54 | 52.29988 | 11.81269 | 111° | 69km/h | 5919m | -14.4m/s | -16.2°C | 58.0% | 490.1hPa | 2.6V | 00:00:00 | 02:37:16 | 00:00:00 | |
| DM0DOS-11 | 2026-09-03 13:08:53 | 52.30001 | 11.81214 | 109° | 69km/h | 5946m | -14.4m/s | -16.5°C | 55.1% | 488.4hPa | 2.6V | 02:44:32 | 02:37:14 | 00:00:00 | |
| AA1-15 | 2026-09-03 13:08:53 | 52.29995 | 11.81241 | 111° | 71km/h | 5932m | -14.2m/s | -16.4°C | 59.6% | 489.2hPa | 2.6V | 02:44:31 | 02:37:15 | 00:00:00 | |
| DF8AY | 2026-09-03 13:08:52 | 52.30007 | 11.81187 | 110° | 69km/h | 5960m | -14.2m/s | -16.6°C | 59.9% | 487.5hPa | 2.5V | 02:45:22 | 02:37:13 | 00:00:00 | |
| DL1XH-west | 2026-09-03 13:08:51 | 52.30013 | 11.81160 | 110° | 69km/h | 5973m | -13.4m/s | -16.7°C | 62.5% | 486.6hPa | 2.5V | 02:45:22 | 02:37:12 | 00:00:00 | |
| EDDB2-12 | 2026-09-03 13:08:46 | 52.30036 | 11.81052 | 108° | 69km/h | 6025m | -13.8m/s | -17.0°C | 66.4% | 483.0hPa | 2.6V | 00:00:00 | 00:00:00 | 00:00:00 | |
| DB0NH | 2026-09-03 13:08:45 | 52.30042 | 11.81024 | 110° | 69km/h | 6038m | -13.7m/s | -17.1°C | 68.9% | 482.2hPa | 2.6V | 00:00:00 | 02:37:07 | 00:00:00 | |
| DM0DOS-11 | 2026-09-03 13:08:43 | 52.30060 | 11.80940 | 109° | 73km/h | 6079m | -13.8m/s | -17.2°C | 73.7% | 479.7hPa | 2.6V | 02:44:42 | 02:37:04 | 00:00:00 | |
| DF8AY | 2026-09-03 13:08:42 | 52.30066 | 11.80911 | 110° | 75km/h | 6092m | -13.7m/s | -17.2°C | 79.6% | 478.9hPa | 2.5V | 02:45:22 | 02:37:03 | 00:00:00 | |
| DL1XH-west | 2026-09-03 13:08:40 | 52.30073 | 11.80882 | 111° | 73km/h | 6105m | -13.9m/s | -17.3°C | 79.9% | 478hPa | 2.5V | 02:45:22 | 02:37:02 | 00:00:00 | |
| DB0DAN | 2026-09-03 13:08:40 | 52.30073 | 11.80882 | 111° | 69km/h | 6105m | -13.9m/s | -17.3°C | 73.4% | 478.03hPa | 2.5V | 00:00:00 | 00:00:00 | 00:00:00 | |
| AA1-15 | 2026-09-03 13:08:39 | 52.30080 | 11.80854 | 112° | 73km/h | 6118m | -13.7m/s | -17.4°C | 78.8% | 477.2hPa | 2.6V | 02:46:13 | 02:37:01 | 00:00:00 | |
| DF7ER-10 | 2026-09-03 13:08:36 | 52.30093 | 11.80797 | 111° | 71km/h | 6144m | -14.5m/s | -17.6°C | 70.1% | 475.6hPa | 2.6V | 02:45:00 | 00:00:00 | 00:00:00 | |
| DF8AY-15 | 2026-09-03 13:08:35 | 52.30106 | 11.80742 | 109° | 69km/h | 6172m | -13.9m/s | -17.7°C | 61.8% | 473.7hPa | 2.6V | 00:00:00 | 02:36:57 | 00:00:00 | |
| DM0DOS-11 | 2026-09-03 13:08:33 | 52.30123 | 11.80661 | 108° | 68km/h | 6214m | -15.2m/s | -18°C | 59.4% | 471.1hPa | 2.6V | 02:44:52 | 02:36:54 | 00:00:00 | |
| DF8AY | 2026-09-03 13:08:31 | 52.30128 | 11.80634 | 108° | 68km/h | 6229m | -15.1m/s | -18.2°C | 65.4% | 470.3hPa | 2.5V | 02:45:22 | 02:36:53 | 00:00:00 | |
| DL1XH-west | 2026-09-03 13:08:30 | 52.30134 | 11.80608 | 109° | 68km/h | 6243m | -15.2m/s | -18.3°C | 66.9% | 469.3hPa | 2.5V | 02:45:22 | 02:36:52 | 00:00:00 | |
| AA1-15 | 2026-09-03 13:08:29 | 52.30139 | 11.80581 | 107° | 69km/h | 6258m | -15.4m/s | -18.4°C | 65.7% | 468.4hPa | 2.6V | 02:46:13 | 02:36:51 | 00:00:00 | |
| DL1XH-15 | 2026-09-03 13:08:27 | 52.30156 | 11.80499 | 109° | 69km/h | 6301m | -14.2m/s | -18.9°C | 60.7% | 465.8hPa | 2.6V | 02:44:58 | 02:36:48 | 00:00:00 | |
| DO2SHX-10 | 2026-09-03 13:08:26 | 52.30156 | 11.80499 | 110° | 69km/h | 6301m | -14.1m/s | -18.8°C | 60.7% | 465.7hPa | 2.6V | 00:00:00 | 02:36:48 | 00:00:00 | |
| DL2RXE-15 | 2026-09-03 13:08:25 | 52.30156 | 11.80499 | 111° | 69km/h | 6301m | -14.2m/s | -18.9°C | 59.1% | 465.8hPa | 2.6V | 00:00:00 | 00:00:00 | 00:00:00 | |
| DM0DOS-11 | 2026-09-03 13:08:23 | 52.30182 | 11.80390 | 111° | 71km/h | 6357m | -14.6m/s | -19.4°C | 62.8% | 462.2hPa | 2.6V | 02:45:02 | 02:36:44 | 00:00:00 | |
| DL1XH-west | 2026-09-03 13:08:20 | 52.30194 | 11.80337 | 110° | 66km/h | 6384m | -13.6m/s | -19.7°C | 67.5% | 460.5hPa | 2.6V | 02:45:22 | 02:36:42 | 00:00:00 | |
| DO2SHX-10 | 2026-09-03 13:08:20 | 52.30194 | 11.80337 | 111° | 66km/h | 6384m | -13.5m/s | -19.6°C | 64.2% | 460.4hPa | 2.6V | 02:45:00 | 02:36:42 | 00:00:00 | |
| DL1XH-15 | 2026-09-03 13:08:17 | 52.30218 | 11.80232 | 110° | 68km/h | 6439m | -14.8m/s | -20.2°C | 68.2% | 457.2hPa | 2.6V | 02:45:08 | 02:36:38 | 00:00:00 | |
| DO2SHX-10 | 2026-09-03 13:08:17 | 52.30212 | 11.80259 | 111° | 69km/h | 6425m | -14.6m/s | -20.1°C | 67.2% | 457.9hPa | 2.6V | 00:00:00 | 02:36:39 | 00:00:00 | |
| AM1SDL-15 | 2026-09-03 13:08:16 | 52.30218 | 11.80232 | 111° | 69km/h | 6440m | -14.8m/s | -20.2°C | 68.2% | 457.1hPa | 2.6V | 00:00:00 | 02:36:38 | 00:00:00 | |
| DB0NH | 2026-09-03 13:08:15 | 52.30224 | 11.80206 | 111° | 71km/h | 6454m | -14.5m/s | -20.3°C | 69.3% | 456.3hPa | 2.6V | 00:00:00 | 02:36:37 | 00:00:00 | |
| DO2SHX-10 | 2026-09-03 13:08:14 | 52.30230 | 11.80178 | 111° | 71km/h | 6468m | -15.1m/s | -20.4°C | 69.9% | 455.4hPa | 2.6V | 00:00:00 | 02:36:36 | 00:00:00 | |
| DM0DOS-11 | 2026-09-03 13:08:13 | 52.30243 | 11.80124 | 111° | 71km/h | 6496m | -14.7m/s | -20.7°C | 70.9% | 453.8hPa | 2.6V | 02:45:12 | 02:36:34 | 00:00:00 | |
| AA1-15 | 2026-09-03 13:08:12 | 52.30243 | 11.80123 | 111° | 71km/h | 6496m | -14.7m/s | -20.7°C | 73.7% | 453.8hPa | 2.6V | 02:46:13 | 02:36:34 | 00:00:00 | |
| DF8AY | 2026-09-03 13:08:09 | 52.30263 | 11.80042 | 109° | 68km/h | 6536m | -13.3m/s | -21.1°C | 75.3% | 451.3hPa | 2.6V | 02:45:22 | 02:36:31 | 00:00:00 | |
| DM0DOS-11 | 2026-09-03 13:08:08 | 52.30303 | 11.79851 | 108° | 69km/h | 6627m | -13.5m/s | -21.8°C | 77.3% | 445.5hPa | 2.5V | 02:45:22 | 02:36:24 | 00:00:00 | |
| AA1-15 | 2026-09-03 13:08:01 | 52.30309 | 11.79824 | 108° | 69km/h | 6640m | -13.5m/s | -21.9°C | 79.6% | 444.9hPa | 2.5V | 02:46:13 | 02:36:23 | 00:00:00 | |
| DL1XH-west | 2026-09-03 13:07:59 | 52.30319 | 11.79769 | 107° | 69km/h | 6666m | -13.5m/s | -22.1°C | 80.8% | 443.2hPa | 2.6V | 02:46:13 | 02:36:21 | 00:00:00 | |
| EDDB2-11 | 2026-09-03 13:07:59 | 52.30319 | 11.79769 | 106° | 69km/h | 6666m | -13.5m/s | -22.1°C | 77.2% | 443.2hPa | 2.6V | 00:00:00 | 00:00:00 | 00:00:00 | |
| DO2SHX-10 | 2026-09-03 13:07:58 | 52.30324 | 11.79741 | 107° | 71km/h | 6679m | -13.3m/s | -22.2°C | 80.1% | 442.3hPa | 2.6V | 00:00:00 | 02:36:20 | 00:00:00 | |
| DL1XH1-15 | 2026-09-03 13:07:57 | 52.30356 | 11.79570 | 105° | 75km/h | 6753m | -12.6m/s | -22.8°C | 86.5% | 438hPa | 2.6V | 02:45:32 | 02:36:14 | 00:00:00 | |
| DM0DOS-11 | 2026-09-03 13:07:55 | 52.30367 | 11.79510 | 106° | 75km/h | 6778m | -12.6m/s | -23°C | 88.4% | 436.5hPa | 2.6V | 02:45:34 | 02:36:12 | 00:00:00 | |
| DB0DAN | 2026-09-03 13:07:55 | 52.30340 | 11.79656 | 108° | 68km/h | 6717m | -13.4m/s | -22.5°C | 81% | 440.27hPa | 2.5V | 00:00:00 | 00:00:00 | 00:00:00 | |
| AA1-15 | 2026-09-03 13:07:50 | 52.30367 | 11.79511 | 107° | 75km/h | 6778m | -12.6m/s | -23°C | 89.8% | 436.5hPa | 2.6V | 02:46:13 | 02:36:12 | 00:00:00 | |
| DL1XH-west | 2026-09-03 13:07:49 | 52.30372 | 11.79481 | 107° | 75km/h | 6790m | -12.6m/s | -23.1°C | 90.6% | 435.9hPa | 2.5V | 02:46:13 | 02:36:11 | 00:00:00 | |
| DL1XH1-15 | 2026-09-03 13:07:47 | 52.30411 | 11.79270 | 106° | 77km/h | 6877m | -12.7m/s | -23.6°C | 97.8% | 430.8hPa | 2.5V | 02:45:42 | 02:36:04 | 00:00:00 | |
| DO2SHX-10 | 2026-09-03 13:07:47 | 52.30383 | 11.79421 | 108° | 75km/h | 6815m | -13.6m/s | -23.2°C | 92.4% | 434.4hPa | 2.6V | 00:00:00 | 02:36:09 | 00:00:00 | |
| DB0NH | 2026-09-03 13:07:45 | 52.30394 | 11.79362 | 106° | 77km/h | 6839m | -12.9m/s | -23.2°C | 96.0% | 432.9hPa | 2.6V | 02:45:00 | 02:36:07 | 00:00:00 | |
| DO2SHX-10 | 2026-09-03 13:07:44 | 52.30400 | 11.79331 | 107° | 78km/h | 6852m | -13.0m/s | -23.3°C | 96.7% | 432.2hPa | 2.6V | 02:45:00 | 02:36:06 | 00:00:00 | |
| DF7ER-10 | 2026-09-03 13:07:43 | 52.30400 | 11.79331 | 108° | 78km/h | 6852m | -13.0m/s | -23.4°C | 94.1% | 432.3hPa | 2.5V | 02:46:00 | 00:00:00 | 00:00:00 | |
| TFSTFS | 2026-09-03 13:07:42 | 52.30405 | 11.79300 | 107° | 77km/h | 6864m | -12.8m/s | -23.5°C | 94.7% | 431.5hPa | 2.5V | 02:46:00 | 00:00:00 | 00:00:00 | |
| DM0DOS-11 | 2026-09-03 13:07:41 | 52.30422 | 11.79209 | 105° | 77km/h | 6900m | -12.9m/s | -23.7°C | 97.4% | 429.4hPa | 2.5V | 02:45:44 | 02:36:02 | 00:00:00 | |
| AA1-15 | 2026-09-03 13:07:39 | 52.30427 | 11.79178 | 105° | 75km/h | 6913m | -12.6m/s | -23.8°C | 98.7% | 428.7hPa | 2.6V | 02:46:13 | 02:36:01 | 00:00:00 | |
| DL1XH-west | 2026-09-03 13:07:38 | 52.30432 | 11.79148 | 104° | 77km/h | 6925m | -12m/s | -23.8°C | 99.2% | 428hPa | 2.6V | 02:46:13 | 02:36:00 | 00:00:00 | |
| DO2SHX-10 | 2026-09-03 13:07:38 | 52.30432 | 11.79148 | 105° | 77km/h | 6925m | -12.0m/s | -23.8°C | 97.9% | 427.9hPa | 2.6V | 00:00:00 | 02:36:00 | 00:00:00 | |
| DL2RXE-15 | 2026-09-03 13:07:37 | 52.30432 | 11.79148 | 105° | 77km/h | 6925m | -12.0m/s | -23.8°C | 95.2% | 428.0hPa | 2.6V | 00:00:00 | 00:00:00 | 00:00:00 | |
| DM0DOS-11 | 2026-09-03 13:07:35 | 52.30471 | 11.78901 | 103° | 75km/h | 7020m | -12.1m/s | -24.6°C | 0% | 422.4hPa | 2.6V | 02:45:54 | 02:35:52 | 00:00:00 | |
| AA1-15 | 2026-09-03 13:07:29 | 52.30476 | 11.78871 | 103° | 75km/h | 7031m | -12m/s | -24.7°C | 100% | 421.7hPa | 2.6V | 02:46:13 | 02:35:51 | 00:00:00 | |
| DL1XH-west | 2026-09-03 13:07:27 | 52.30484 | 11.78810 | 103° | 75km/h | 7055m | -12.7m/s | -25°C | 100% | 420.3hPa | 2.5V | 02:46:13 | 02:35:49 | 00:00:00 | |
| DO2SHX-10 | 2026-09-03 13:07:26 | 52.30489 | 11.78779 | 104° | 78km/h | 7067m | -12.6m/s | -25.0°C | 0% | 419.6hPa | 2.5V | 02:45:00 | 02:35:48 | 00:00:00 | |
| SONCRA | 2026-09-03 13:07:24 | 52.30503 | 11.78686 | 104° | 77km/h | 7104m | -12.5m/s | -25.3°C | 100.0% | 417.6hPa | 2.6V | 00:00:00 | 00:00:00 | 00:00:00 | |
| DO2SHX-10 | 2026-09-03 13:07:23 | 52.30503 | 11.78686 | 105° | 78km/h | 7104m | -12.5m/s | -25.3°C | 0% | 417.5hPa | 2.6V | 00:00:00 | 02:35:45 | 00:00:00 | |
| S3001 | 2026-09-03 13:07:22 | 52.30508 | 11.78654 | 103° | 77km/h | 7116m | -12.4m/s | -25.5°C | 100.0% | 416.9hPa | 2.6V | 00:00:00 | 00:00:00 | 00:00:00 | |
| DM0DOS-11 | 2026-09-03 13:07:21 | 52.30518 | 11.78591 | 104° | 78km/h | 7140m | -13.1m/s | -25.6°C | 0% | 415.5hPa | 2.6V | 02:46:04 | 02:35:42 | 00:00:00 | |
| AA1-15 | 2026-09-03 13:07:18 | 52.30528 | 11.78528 | 105° | 78km/h | 7166m | -13.3m/s | -25.9°C | 100% | 414.1hPa | 2.6V | 02:46:13 | 02:35:40 | 00:00:00 | |
| DF8AY | 2026-09-03 13:07:17 | 52.30563 | 11.78306 | 103° | 82km/h | 7255m | -14.2m/s | -26.4°C | 100% | 409.1hPa | 2.5V | 02:46:13 | 02:35:33 | 00:00:00 | |
| DL1XH-west | 2026-09-03 13:07:16 | 52.30538 | 11.78466 | 105° | 78km/h | 7191m | -13.3m/s | -26°C | 100% | 412.7hPa | 2.5V | 02:46:13 | 02:35:38 | 00:00:00 | |
| AM1SDL-15 | 2026-09-03 13:07:16 | 52.30538 | 11.78466 | 105° | 82km/h | 7191m | -13.2m/s | -26.0°C | 0% | 412.6hPa | 2.5V | 02:46:00 | 02:35:38 | 00:00:00 | |
| DM0DOS-11 | 2026-09-03 13:07:15 | 52.30568 | 11.78272 | 103° | 84km/h | 7268m | -13m/s | -26.6°C | 0% | 408.3hPa | 2.5V | 02:46:14 | 02:35:32 | 00:00:00 | |
| DF8AY-15 | 2026-09-03 13:07:15 | 52.30543 | 11.78434 | 104° | 82km/h | 7204m | -12.5m/s | -26.1°C | 0% | 411.9hPa | 2.6V | 02:46:00 | 02:35:37 | 00:00:00 | |
| EDDB2-12 | 2026-09-03 13:07:13 | 52.30553 | 11.78371 | 104° | 78km/h | 7229m | -13.5m/s | -26.3°C | 100.0% | 410.4hPa | 2.5V | 00:00:00 | 00:00:00 | 00:00:00 | |
| DF7ER-10 | 2026-09-03 13:07:12 | 52.30553 | 11.78371 | 105° | 80km/h | 7229m | -13.5m/s | -26.3°C | 108.8% | 410.4hPa | 2.5V | 02:46:00 | 00:00:00 | 00:00:00 | |
| DB0DAN | 2026-09-03 13:07:10 | 52.30567 | 11.78272 | 103° | 80km/h | 7268m | -13m/s | -26.6°C | 100% | 408.33hPa | 2.5V | 00:00:00 | 00:00:00 | 00:00:00 | |
| AA1-15 | 2026-09-03 13:07:08 | 52.30577 | 11.78206 | 104° | 82km/h | 7292m | -11.9m/s | -26.7°C | 100% | 406.8hPa | 2.6V | 02:47:04 | 02:35:30 | 00:00:00 | |
| DL1XH1-15 | 2026-09-03 13:07:08 | 52.30604 | 11.78001 | 100° | 86km/h | 7365m | -13.1m/s | -27.2°C | 0% | 402.9hPa | 2.6V | 02:46:22 | 02:35:24 | 00:00:00 | |
| DL1XH-west | 2026-09-03 13:07:06 | 52.30586 | 11.78138 | 103° | 86km/h | 7316m | -12.6m/s | -26.8°C | 100% | 405.4hPa | 2.6V | 02:47:04 | 02:35:28 | 00:00:00 | |
| DO2SHX-10 | 2026-09-03 13:07:04 | 52.30595 | 11.78070 | 103° | 86km/h | 7340m | -12.5m/s | -26.9°C | 0% | 404.3hPa | 2.5V | 02:46:00 | 02:35:26 | 00:00:00 | |
| DM0DOS-11 | 2026-09-03 13:07:01 | 52.30613 | 11.77932 | 100° | 84km/h | 7391m | -13.3m/s | -27.4°C | 0% | 401.5hPa | 2.6V | 02:46:24 | 02:35:22 | 00:00:00 | |
| DF8AY | 2026-09-03 13:07:00 | 52.30613 | 11.77932 | 100° | 84km/h | 7391m | -13.4m/s | -27.4°C | 100% | 401.5hPa | 2.6V | 02:47:04 | 02:35:22 | 00:00:00 | |
| AA1-15 | 2026-09-03 13:06:57 | 52.30626 | 11.77831 | 102° | 82km/h | 7430m | -12.8m/s | -27.7°C | 100% | 399.3hPa | 2.5V | 02:47:04 | 02:35:19 | 00:00:00 | |
| DL1XH-west | 2026-09-03 13:06:56 | 52.30630 | 11.77797 | 101° | 80km/h | 7442m | -12.6m/s | -27.8°C | 100% | 398.6hPa | 2.5V | 02:47:04 | 02:35:18 | 00:00:00 | |
| DF8AY | 2026-09-03 13:06:50 | 52.30656 | 11.77560 | 99° | 84km/h | 7528m | -11.5m/s | -28.6°C | 100% | 393.7hPa | 2.6V | 02:47:04 | 02:35:11 | 00:00:00 | |
| AA1-15 | 2026-09-03 13:06:47 | 52.30664 | 11.77491 | 102° | 86km/h | 7549m | -10.5m/s | -28.8°C | 100% | 392.5hPa | 2.5V | 02:47:04 | 02:35:09 | 00:00:00 | |
| DL1XH-west | 2026-09-03 13:06:46 | 52.30673 | 11.77422 | 101° | 86km/h | 7570m | -10.6m/s | -29°C | 100% | 391.4hPa | 2.5V | 02:47:04 | 02:35:07 | 00:00:00 | |
| DO2SHX-10 | 2026-09-03 13:06:46 | 52.30673 | 11.77421 | 101° | 88km/h | 7570m | -10.6m/s | -28.9°C | 0% | 391.4hPa | 2.5V | 02:46:00 | 02:35:07 | 00:00:00 | |
| DB0NH | 2026-09-03 13:06:45 | 52.30673 | 11.77421 | 101° | 97km/h | 7570m | -10.6m/s | -28.9°C | 0% | 391.4hPa | 2.5V | 00:00:00 | 02:35:07 | 00:00:00 | |
| DO2SHX-10 | 2026-09-03 13:06:42 | 52.30685 | 11.77314 | 100° | 89km/h | 7604m | -12.1m/s | -29.2°C | 0% | 389.7hPa | 2.5V | 00:00:00 | 02:35:04 | 00:00:00 | |
| DB0DAN | 2026-09-03 13:06:40 | 52.30694 | 11.77241 | 100° | 86km/h | 7627m | -11.2m/s | -29.5°C | 100% | 388.44hPa | 2.5V | 00:00:00 | 00:00:00 | 00:00:00 | |
| DF8AY | 2026-09-03 13:06:38 | 52.30702 | 11.77169 | 101° | 88km/h | 7649m | -10.8m/s | -29.8°C | 100% | 387.1hPa | 2.5V | 02:47:04 | 02:35:00 | 00:00:00 | |
| AA1-15 | 2026-09-03 13:06:36 | 52.30712 | 11.77095 | 103° | 91km/h | 7670m | -11.6m/s | -30.1°C | 100% | 385.9hPa | 2.6V | 02:47:04 | 02:34:58 | 00:00:00 | |
| DL1XH-west | 2026-09-03 13:06:35 | 52.30723 | 11.77019 | 104° | 95km/h | 7692m | -11.8m/s | -30.1°C | 83.2% | 384.8hPa | 2.5V | 02:47:04 | 02:34:56 | 00:00:00 | |
| TFSTFS | 2026-09-03 13:06:34 | 52.30717 | 11.77058 | 104° | 95km/h | 7681m | -10.9m/s | -30.1°C | 98.0% | 385.2hPa | 2.6V | 02:47:00 | 00:00:00 | 00:00:00 | |
| DO2SHX-10 | 2026-09-03 13:06:33 | 52.30729 | 11.76981 | 104° | 99km/h | 7704m | -12.4m/s | -29.8°C | 71.0% | 384.2hPa | 2.6V | 00:00:00 | 02:34:55 | 00:00:00 | |
| DM0DOS-11 | 2026-09-03 13:06:31 | 52.30749 | 11.76863 | 107° | 100km/h | 7740m | -12.2m/s | -30.1°C | 62.5% | 382.1hPa | 2.6V | 02:46:54 | 02:34:52 | 00:00:00 | |
| DF8AY | 2026-09-03 13:06:28 | 52.30773 | 11.76745 | 109° | 100km/h | 7778m | -13.6m/s | -30.2°C | 52.3% | 380.3hPa | 2.5V | 02:47:04 | 02:34:49 | 00:00:00 | |
| AA1-15 | 2026-09-03 13:06:26 | 52.30781 | 11.76705 | 109° | 102km/h | 7791m | -13.8m/s | -30.4°C | 50.1% | 379.5hPa | 2.6V | 02:47:04 | 02:34:48 | 00:00:00 | |
| DB0DAN | 2026-09-03 13:06:25 | 52.30790 | 11.76665 | 109° | 97km/h | 7804m | -12.7m/s | -30.5°C | 40.6% | 378.74hPa | 2.6V | 00:00:00 | 00:00:00 | 00:00:00 | |
| DL1XH-west | 2026-09-03 13:06:24 | 52.30798 | 11.76625 | 109° | 102km/h | 7817m | -13.2m/s | -30.6°C | 45.4% | 378.1hPa | 2.6V | 02:47:04 | 02:34:46 | 00:00:00 | |
| DO2SHX-10 | 2026-09-03 13:06:24 | 52.30798 | 11.76625 | 110° | 100km/h | 7817m | -13.1m/s | -30.5°C | 40.6% | 378.1hPa | 2.6V | 00:00:00 | 02:34:46 | 00:00:00 | |
| DJ2DS-15 | 2026-09-03 13:06:22 | 52.30815 | 11.76546 | 108° | 99km/h | 7842m | -13.5m/s | -30.8°C | 31.8% | 376.9hPa | 2.6V | 00:00:00 | 00:00:00 | 00:00:00 | |
| DM0DOS-11 | 2026-09-03 13:06:21 | 52.30832 | 11.76466 | 110° | 104km/h | 7868m | -13.6m/s | -30.9°C | 22.3% | 375.4hPa | 2.6V | 02:47:04 | 02:34:42 | 00:00:00 | |
| DO2SHX-10 | 2026-09-03 13:06:21 | 52.30823 | 11.76506 | 111° | 104km/h | 7855m | -13.4m/s | -30.8°C | 27.1% | 376.1hPa | 2.5V | 00:00:00 | 02:34:43 | 00:00:00 | |
| SONDE2-11 | 2026-09-03 13:06:19 | 52.30842 | 11.76426 | 111° | 102km/h | 7881m | -13.9m/s | -31.0°C | 19.3% | 374.8hPa | 2.5V | 00:00:00 | 00:00:00 | 00:00:00 | |
| DO2SHX-10 | 2026-09-03 13:06:18 | 52.30851 | 11.76385 | 112° | 104km/h | 7895m | -13.8m/s | -31.0°C | 18.2% | 374.0hPa | 2.5V | 02:47:00 | 02:34:40 | 00:00:00 | |
| DL1XH1-15 | 2026-09-03 13:06:17 | 52.30912 | 11.76146 | 113° | 106km/h | 7974m | -13.6m/s | -31.6°C | 8.7% | 369.9hPa | 2.6V | 02:47:12 | 02:34:34 | 00:00:00 | |
| AA1-15 | 2026-09-03 13:06:16 | 52.30872 | 11.76305 | 112° | 102km/h | 7922m | -13.5m/s | -31.3°C | 16.6% | 372.7hPa | 2.5V | 02:47:55 | 02:34:38 | 00:00:00 | |
| DL1XH-west | 2026-09-03 13:06:13 | 52.30902 | 11.76186 | 113° | 106km/h | 7961m | -13.7m/s | -31.5°C | 10% | 370.6hPa | 2.6V | 02:47:55 | 02:34:35 | 00:00:00 | |
| DO2SHX-10 | 2026-09-03 13:06:12 | 52.30912 | 11.76146 | 114° | 108km/h | 7974m | -13.6m/s | -31.6°C | 8.7% | 369.9hPa | 2.5V | 00:00:00 | 02:34:34 | 00:00:00 | |
| EDDB2-12 | 2026-09-03 13:06:11 | 52.30933 | 11.76064 | 113° | 108km/h | 7999m | -12.2m/s | -31.8°C | 7.2% | 368.5hPa | 2.5V | 00:00:00 | 00:00:00 | 00:00:00 | |
| DO2SHX-10 | 2026-09-03 13:06:09 | 52.30944 | 11.76023 | 115° | 106km/h | 8012m | -13.3m/s | -31.9°C | 8.4% | 367.8hPa | 2.5V | 02:47:00 | 02:34:31 | 00:00:00 | |
| DF7ER-10 | 2026-09-03 13:06:08 | 52.30944 | 11.76023 | 115° | 108km/h | 8012m | -13.3m/s | -31.9°C | 7.4% | 367.9hPa | 2.6V | 02:47:00 | 00:00:00 | 00:00:00 | |
| DL1XH1-15 | 2026-09-03 13:06:07 | 52.31019 | 11.75744 | 114° | 106km/h | 8101m | -13m/s | -32.7°C | 10.2% | 363.2hPa | 2.6V | 02:47:22 | 02:34:24 | 00:00:00 | |
| AA1-15 | 2026-09-03 13:06:06 | 52.30977 | 11.75904 | 113° | 104km/h | 8049m | -12.5m/s | -32.2°C | 11% | 365.9hPa | 2.6V | 02:47:55 | 02:34:28 | 00:00:00 | |
| DF8AY | 2026-09-03 13:06:05 | 52.30987 | 11.75864 | 113° | 104km/h | 8062m | -12.9m/s | -32.3°C | 11.1% | 365.3hPa | 2.5V | 02:47:55 | 02:34:27 | 00:00:00 | |
| DL1XH-west | 2026-09-03 13:06:02 | 52.31019 | 11.75744 | 114° | 106km/h | 8101m | -13m/s | -32.7°C | 11.8% | 363.3hPa | 2.6V | 02:47:55 | 02:34:24 | 00:00:00 | |
| DO2SHX-10 | 2026-09-03 13:06:00 | 52.31040 | 11.75665 | 114° | 104km/h | 8126m | -11.6m/s | -32.8°C | 10.8% | 362.0hPa | 2.5V | 02:47:00 | 02:34:22 | 00:00:00 | |
| DL1XH1-15 | 2026-09-03 13:05:57 | 52.31128 | 11.75347 | 115° | 108km/h | 8216m | -10.9m/s | -33.4°C | 12.3% | 357.4hPa | 2.6V | 02:47:32 | 02:34:14 | 00:00:00 | |
| DO2SHX-10 | 2026-09-03 13:05:57 | 52.31072 | 11.75546 | 115° | 106km/h | 8159m | -12.2m/s | -33.0°C | 11.5% | 360.3hPa | 2.5V | 00:00:00 | 02:34:19 | 00:00:00 | |
| DM0DOS-11 | 2026-09-03 13:05:55 | 52.31152 | 11.75267 | 116° | 110km/h | 8239m | -13m/s | -33.6°C | 12.6% | 356.3hPa | 2.5V | 02:47:34 | 02:34:12 | 00:00:00 | |
| AA1-15 | 2026-09-03 13:05:55 | 52.31094 | 11.75466 | 114° | 108km/h | 8183m | -12.2m/s | -33.2°C | 13.5% | 359.1hPa | 2.5V | 02:47:55 | 02:34:17 | 00:00:00 | |
| DF8AY | 2026-09-03 13:05:54 | 52.31105 | 11.75426 | 114° | 104km/h | 8195m | -11.1m/s | -33.3°C | 13.7% | 358.6hPa | 2.5V | 02:47:55 | 02:34:16 | 00:00:00 | |
| DL1XH-west | 2026-09-03 13:05:52 | 52.31128 | 11.75347 | 116° | 108km/h | 8216m | -10.9m/s | -33.4°C | 14.3% | 357.4hPa | 2.6V | 02:47:55 | 02:34:14 | 00:00:00 | |
| SONCRA | 2026-09-03 13:05:50 | 52.31152 | 11.75267 | 116° | 108km/h | 8239m | -13.0m/s | -33.6°C | 11.2% | 356.3hPa | 2.6V | 00:00:00 | 00:00:00 | 00:00:00 | |
| S3001 | 2026-09-03 13:05:49 | 52.31164 | 11.75227 | 117° | 108km/h | 8252m | -13.2m/s | -33.7°C | 11.4% | 355.7hPa | 2.6V | 00:00:00 | 00:00:00 | 00:00:00 | |
| DO2SHX-10 | 2026-09-03 13:05:48 | 52.31177 | 11.75187 | 118° | 110km/h | 8264m | -11.6m/s | -33.7°C | 13.1% | 355.1hPa | 2.6V | 00:00:00 | 02:34:10 | 00:00:00 | |
| DL1XH-15 | 2026-09-03 13:05:47 | 52.31254 | 11.74943 | 118° | 111km/h | 8333m | -10.4m/s | -34.3°C | 14.9% | 351.6hPa | 2.6V | 02:47:42 | 02:34:04 | 00:00:00 | |
| AA1-15 | 2026-09-03 13:05:44 | 52.31228 | 11.75025 | 117° | 110km/h | 8311m | -11.9m/s | -34.1°C | 16.6% | 352.7hPa | 2.5V | 02:47:55 | 02:34:06 | 00:00:00 | |
| DL1XH-west | 2026-09-03 13:05:42 | 52.31254 | 11.74943 | 118° | 111km/h | 8333m | -10.4m/s | -34.3°C | 17.5% | 351.6hPa | 2.6V | 02:47:55 | 02:34:04 | 00:00:00 | |
| DO2SHX-10 | 2026-09-03 13:05:42 | 52.31254 | 11.74943 | 119° | 113km/h | 8333m | -10.3m/s | -34.2°C | 14.9% | 351.5hPa | 2.6V | 02:47:00 | 02:34:04 | 00:00:00 | |
| DM0DOS-11 | 2026-09-03 13:05:41 | 52.31281 | 11.74861 | 118° | 115km/h | 8353m | -9.7m/s | -34.4°C | 15.7% | 350.5hPa | 2.6V | 02:47:44 | 02:34:02 | 00:00:00 | |
| EDDB2-12 | 2026-09-03 13:05:40 | 52.31295 | 11.74819 | 118° | 113km/h | 8362m | -10.2m/s | -34.5°C | 14.5% | 350.0hPa | 2.5V | 00:00:00 | 00:00:00 | 00:00:00 | |
| DO2SHX-10 | 2026-09-03 13:05:39 | 52.31295 | 11.74819 | 119° | 115km/h | 8362m | -10.1m/s | -34.4°C | 16.1% | 349.9hPa | 2.5V | 00:00:00 | 02:34:01 | 00:00:00 | |
| DL1XH-15 | 2026-09-03 13:05:37 | 52.31394 | 11.74526 | 119° | 117km/h | 8430m | -10m/s | -34.9°C | 18.5% | 346.6hPa | 2.5V | 02:47:52 | 02:33:54 | 00:00:00 | |
| DO2SHX-10 | 2026-09-03 13:05:36 | 52.31337 | 11.74694 | 119° | 117km/h | 8392m | -9.3m/s | -34.6°C | 17.4% | 348.4hPa | 2.6V | 00:00:00 | 02:33:58 | 00:00:00 | |
| DM0DOS-11 | 2026-09-03 13:05:35 | 52.31423 | 11.74441 | 118° | 117km/h | 8449m | -9.9m/s | -35°C | 19.1% | 345.7hPa | 2.6V | 02:47:54 | 02:33:52 | 00:00:00 | |
| AA1-15 | 2026-09-03 13:05:33 | 52.31380 | 11.74568 | 119° | 115km/h | 8420m | -10.5m/s | -34.8°C | 21.1% | 347.1hPa | 2.5V | 02:47:55 | 02:33:55 | 00:00:00 | |
| DL1XH-west | 2026-09-03 13:05:31 | 52.31408 | 11.74483 | 119° | 117km/h | 8439m | -10.1m/s | -35°C | 21.8% | 346.1hPa | 2.6V | 02:47:55 | 02:33:53 | 00:00:00 | |
| AA1-15 | 2026-09-03 13:05:23 | 52.31523 | 11.74145 | 120° | 117km/h | 8520m | -10.7m/s | -35.6°C | 21.9% | 342.2hPa | 2.5V | 02:48:46 | 02:33:45 | 00:00:00 | |
| DF8AY | 2026-09-03 13:05:22 | 52.31538 | 11.74102 | 120° | 119km/h | 8530m | -10.5m/s | -35.7°C | 21.9% | 341.7hPa | 2.6V | 02:48:46 | 02:33:44 | 00:00:00 | |
| DM0DOS-11 | 2026-09-03 13:05:21 | 52.31567 | 11.74018 | 120° | 117km/h | 8551m | -10.5m/s | -35.9°C | 18.9% | 340.7hPa | 2.6V | 02:48:04 | 02:33:42 | 00:00:00 | |
| DL1XH-west | 2026-09-03 13:05:20 | 52.31568 | 11.74018 | 120° | 117km/h | 8551m | -10.5m/s | -35.9°C | 21.9% | 340.7hPa | 2.6V | 02:48:46 | 02:33:42 | 00:00:00 | |
| SONCRA | 2026-09-03 13:05:19 | 52.31582 | 11.73975 | 119° | 117km/h | 8562m | -10.6m/s | -36.0°C | 17.3% | 340.2hPa | 2.5V | 00:00:00 | 00:00:00 | 00:00:00 | |
| SONDE2-11 | 2026-09-03 13:05:18 | 52.31611 | 11.73890 | 119° | 119km/h | 8582m | -10.0m/s | -36.2°C | 17.6% | 339.1hPa | 2.5V | 00:00:00 | 00:00:00 | 00:00:00 | |
| DL1XH1-15 | 2026-09-03 13:05:17 | 52.31686 | 11.73672 | 119° | 122km/h | 8629m | -9.8m/s | -36.6°C | 19.6% | 336.8hPa | 2.5V | 02:48:12 | 02:33:34 | 00:00:00 | |
| DM0DOS-11 | 2026-09-03 13:05:15 | 52.31717 | 11.73584 | 120° | 124km/h | 8648m | -10.2m/s | -36.7°C | 19.9% | 335.9hPa | 2.6V | 02:48:14 | 02:33:32 | 00:00:00 | |
| AA1-15 | 2026-09-03 13:05:13 | 52.31671 | 11.73716 | 120° | 122km/h | 8620m | -9.6m/s | -36.5°C | 22.7% | 337.3hPa | 2.5V | 02:48:46 | 02:33:35 | 00:00:00 | |
| DF8AY | 2026-09-03 13:05:11 | 52.31782 | 11.73404 | 121° | 128km/h | 8686m | -8.8m/s | -36.9°C | 25.4% | 334hPa | 2.6V | 02:48:46 | 02:33:28 | 00:00:00 | |
| DJ2DS-15 | 2026-09-03 13:05:10 | 52.31717 | 11.73584 | 120° | 124km/h | 8648m | -10.2m/s | -36.7°C | 18.0% | 335.9hPa | 2.5V | 00:00:00 | 00:00:00 | 00:00:00 | |
| EDDB2-12 | 2026-09-03 13:05:09 | 52.31749 | 11.73495 | 120° | 128km/h | 8668m | -9.9m/s | -36.8°C | 18.8% | 334.9hPa | 2.5V | 00:00:00 | 00:00:00 | 00:00:00 | |
| DL1XH-west | 2026-09-03 13:05:09 | 52.31733 | 11.73540 | 120° | 126km/h | 8658m | -10.1m/s | -36.8°C | 23.5% | 335.3hPa | 2.5V | 02:48:46 | 02:33:31 | 00:00:00 | |
| DL1XH1-15 | 2026-09-03 13:05:07 | 52.31847 | 11.73221 | 120° | 130km/h | 8721m | -9.6m/s | -37.1°C | 25.9% | 332.2hPa | 2.5V | 02:48:22 | 02:33:24 | 00:00:00 | |
| AA1-15 | 2026-09-03 13:05:02 | 52.31847 | 11.73221 | 120° | 130km/h | 8721m | -9.6m/s | -37.1°C | 29.1% | 332.2hPa | 2.5V | 02:48:46 | 02:33:24 | 00:00:00 | |
| DL1XH-west | 2026-09-03 13:04:59 | 52.31896 | 11.73081 | 120° | 135km/h | 8750m | -11.3m/s | -37.3°C | 33% | 331hPa | 2.6V | 02:48:46 | 02:33:21 | 00:00:00 | |
| DL1XH1-15 | 2026-09-03 13:04:57 | 52.32016 | 11.72750 | 121° | 131km/h | 8835m | -12.6m/s | -38°C | 31.5% | 327.1hPa | 2.6V | 02:48:32 | 02:33:14 | 00:00:00 | |
| DO2SHX-10 | 2026-09-03 13:04:57 | 52.31930 | 11.72985 | 121° | 133km/h | 8774m | -12.4m/s | -37.4°C | 29.9% | 329.9hPa | 2.5V | 02:48:00 | 02:33:19 | 00:00:00 | |
| DM0DOS-11 | 2026-09-03 13:04:56 | 52.32071 | 11.72609 | 121° | 133km/h | 8874m | -13.8m/s | -38.4°C | 31.7% | 325.2hPa | 2.5V | 02:48:35 | 02:33:11 | 00:00:00 | |
| DF8AY | 2026-09-03 13:04:55 | 52.31964 | 11.72892 | 120° | 131km/h | 8798m | -12m/s | -37.7°C | 35% | 328.8hPa | 2.6V | 02:48:46 | 02:33:17 | 00:00:00 | |
| AA1-15 | 2026-09-03 13:04:51 | 52.32034 | 11.72703 | 121° | 135km/h | 8848m | -13.1m/s | -38.2°C | 35.6% | 326.5hPa | 2.6V | 02:48:46 | 02:33:13 | 00:00:00 | |
| DL1XH-west | 2026-09-03 13:04:48 | 52.32089 | 11.72561 | 122° | 139km/h | 8887m | -13.7m/s | -38.5°C | 35% | 324.6hPa | 2.5V | 02:48:46 | 02:33:10 | 00:00:00 | |
| DF8AY | 2026-09-03 13:04:45 | 52.32163 | 11.72370 | 122° | 137km/h | 8936m | -12.8m/s | -38.8°C | 33.7% | 322.3hPa | 2.6V | 02:48:46 | 02:33:06 | 00:00:00 | |
| DB0NH | 2026-09-03 13:04:45 | 52.32144 | 11.72418 | 122° | 146km/h | 8924m | -13.1m/s | -38.7°C | 30.9% | 322.8hPa | 2.6V | 02:48:00 | 02:33:07 | 00:00:00 | |
| DO2SHX-10 | 2026-09-03 13:04:44 | 52.32163 | 11.72370 | 123° | 139km/h | 8936m | -12.8m/s | -38.8°C | 30.4% | 322.2hPa | 2.6V | 00:00:00 | 02:33:06 | 00:00:00 | |
| DM0DOS-11 | 2026-09-03 13:04:41 | 52.32238 | 11.72176 | 122° | 137km/h | 8987m | -12.4m/s | -39.2°C | 24.4% | 319.9hPa | 2.6V | 02:48:44 | 02:33:02 | 00:00:00 | |
| AA1-15 | 2026-09-03 13:04:40 | 52.32238 | 11.72176 | 122° | 137km/h | 8988m | -12.5m/s | -39.2°C | 27.3% | 319.9hPa | 2.6V | 02:48:46 | 02:33:02 | 00:00:00 | |
| DL1XH-west | 2026-09-03 13:04:37 | 52.32294 | 11.72030 | 122° | 141km/h | 9024m | -11.3m/s | -39.4°C | 23.1% | 318.2hPa | 2.6V | 02:49:37 | 02:32:59 | 00:00:00 | |
| TFSTFS | 2026-09-03 13:04:36 | 52.32294 | 11.72030 | 123° | 141km/h | 9024m | -11.3m/s | -39.4°C | 18.4% | 318.2hPa | 2.6V | 02:49:00 | 00:00:00 | 00:00:00 | |
| DM0DOS-11 | 2026-09-03 13:04:35 | 52.32433 | 11.71683 | 123° | 144km/h | 9102m | -12.1m/s | -39.9°C | 15.8% | 314.4hPa | 2.6V | 02:48:54 | 02:32:52 | 00:00:00 | |
| DF8AY | 2026-09-03 13:04:33 | 52.32372 | 11.71833 | 123° | 141km/h | 9068m | -11.7m/s | -39.8°C | 20.3% | 316hPa | 2.5V | 02:49:37 | 02:32:55 | 00:00:00 | |
| AA1-15 | 2026-09-03 13:04:30 | 52.32433 | 11.71683 | 124° | 144km/h | 9102m | -12.1m/s | -39.9°C | 17.5% | 314.4hPa | 2.6V | 02:50:28 | 02:32:52 | 00:00:00 | |
| DL1XH-west | 2026-09-03 13:04:26 | 52.32516 | 11.71482 | 124° | 150km/h | 9152m | -14.1m/s | -40°C | 15.4% | 312.2hPa | 2.5V | 02:49:37 | 02:32:48 | 00:00:00 | |
| DF8AY | 2026-09-03 13:04:23 | 52.32604 | 11.71279 | 126° | 150km/h | 9206m | -13.1m/s | -40.2°C | 15.3% | 309.9hPa | 2.5V | 02:49:37 | 02:32:44 | 00:00:00 | |
| DO2SHX-10 | 2026-09-03 13:04:23 | 52.32582 | 11.71329 | 126° | 150km/h | 9193m | -14.0m/s | -40.1°C | 13.4% | 310.4hPa | 2.6V | 00:00:00 | 02:32:45 | 00:00:00 | |
| DM0DOS-11 | 2026-09-03 13:04:22 | 52.32649 | 11.71178 | 125° | 151km/h | 9231m | -12.8m/s | -40.4°C | 13.9% | 308.6hPa | 2.6V | 02:49:04 | 02:32:42 | 00:00:00 | |
| AA1-15 | 2026-09-03 13:04:19 | 52.32671 | 11.71127 | 126° | 153km/h | 9243m | -13.5m/s | -40.5°C | 15.8% | 308hPa | 2.6V | 02:50:28 | 02:32:41 | 00:00:00 | |
| DL1XH1-15 | 2026-09-03 13:04:17 | 52.32835 | 11.70767 | 127° | 155km/h | 9340m | -14.5m/s | -41.2°C | 14.2% | 303.8hPa | 2.5V | 02:49:12 | 02:32:34 | 00:00:00 | |
| DL1XH-west | 2026-09-03 13:04:16 | 52.32741 | 11.70973 | 126° | 157km/h | 9284m | -14.1m/s | -40.8°C | 16.1% | 306.2hPa | 2.6V | 02:49:37 | 02:32:38 | 00:00:00 | |
| DM0DOS-11 | 2026-09-03 13:04:16 | 52.32883 | 11.70665 | 126° | 155km/h | 9367m | -13.8m/s | -41.4°C | 14.3% | 302.6hPa | 2.6V | 02:49:14 | 02:32:32 | 00:00:00 | |
| DF8AY | 2026-09-03 13:04:11 | 52.32859 | 11.70716 | 128° | 155km/h | 9354m | -14.1m/s | -41.3°C | 16% | 303.2hPa | 2.5V | 02:49:37 | 02:32:33 | 00:00:00 | |
| AA1-15 | 2026-09-03 13:04:08 | 52.32931 | 11.70561 | 127° | 159km/h | 9394m | -14.1m/s | -41.6°C | 16% | 301.4hPa | 2.6V | 02:50:28 | 02:32:30 | 00:00:00 | |
| DO2SHX-10 | 2026-09-03 13:04:08 | 52.32931 | 11.70561 | 127° | 161km/h | 9394m | -14.0m/s | -41.5°C | 14.3% | 301.3hPa | 2.6V | 00:00:00 | 02:32:30 | 00:00:00 | |
| DL1XH1-15 | 2026-09-03 13:04:07 | 52.33081 | 11.70241 | 128° | 164km/h | 9472m | -12.9m/s | -41.7°C | 15.3% | 298hPa | 2.6V | 02:49:22 | 02:32:24 | 00:00:00 | |
| DL1XH-west | 2026-09-03 13:04:06 | 52.32980 | 11.70454 | 127° | 162km/h | 9421m | -13.9m/s | -41.6°C | 16.2% | 300.2hPa | 2.5V | 02:49:37 | 02:32:28 | 00:00:00 | |
| DF8AY | 2026-09-03 13:04:01 | 52.33107 | 11.70187 | 128° | 166km/h | 9485m | -13.8m/s | -41.8°C | 17.8% | 297.4hPa | 2.5V | 02:49:37 | 02:32:23 | 00:00:00 | |
| DM0DOS-11 | 2026-09-03 13:04:01 | 52.33133 | 11.70133 | 128° | 166km/h | 9498m | -13.5m/s | -41.8°C | 16% | 296.8hPa | 2.5V | 02:49:24 | 02:32:22 | 00:00:00 | |
| DJ2DS-15 | 2026-09-03 13:03:58 | 52.33186 | 11.70025 | 128° | 168km/h | 9523m | -13.5m/s | -41.9°C | 14.4% | 295.6hPa | 2.5V | 00:00:00 | 00:00:00 | 00:00:00 | |
| AA1-15 | 2026-09-03 13:03:58 | 52.33186 | 11.70025 | 129° | 168km/h | 9523m | -13.5m/s | -41.9°C | 19% | 295.6hPa | 2.6V | 02:50:28 | 02:32:20 | 00:00:00 | |
| DL1XH1-15 | 2026-09-03 13:03:57 | 52.33347 | 11.69697 | 129° | 170km/h | 9600m | -11.5m/s | -42.4°C | 17.5% | 292.4hPa | 2.5V | 02:49:32 | 02:32:14 | 00:00:00 | |
| DL1XH-west | 2026-09-03 13:03:55 | 52.33266 | 11.69861 | 129° | 170km/h | 9563m | -14.3m/s | -42.2°C | 19.9% | 294.1hPa | 2.6V | 02:49:37 | 02:32:17 | 00:00:00 | |
| DB0DAN | 2026-09-03 13:03:55 | 52.33266 | 11.69861 | 128° | 162km/h | 9563m | -14.3m/s | -42.2°C | 15% | 294.12hPa | 2.6V | 00:00:00 | 00:00:00 | 00:00:00 | |
| DF8AY | 2026-09-03 13:03:51 | 52.33374 | 11.69642 | 130° | 172km/h | 9612m | -13.6m/s | -42.4°C | 20% | 291.9hPa | 2.5V | 02:49:37 | 02:32:13 | 00:00:00 | |
| AA1-15 | 2026-09-03 13:03:48 | 52.33457 | 11.69480 | 130° | 170km/h | 9647m | -9m/s | -42.6°C | 20.1% | 290.3hPa | 2.6V | 02:50:28 | 02:32:10 | 00:00:00 | |
| DL1XH1-15 | 2026-09-03 13:03:47 | 52.33627 | 11.69154 | 130° | 173km/h | 9702m | -9.4m/s | -42.9°C | 18.1% | 287.9hPa | 2.6V | 02:49:42 | 02:32:04 | 00:00:00 | |
| DL1XH-west | 2026-09-03 13:03:45 | 52.33542 | 11.69317 | 131° | 173km/h | 9674m | -9.7m/s | -42.8°C | 20.4% | 289.1hPa | 2.5V | 02:50:28 | 02:32:07 | 00:00:00 | |
| S3001 | 2026-09-03 13:03:45 | 52.33570 | 11.69263 | 130° | 173km/h | 9683m | -9.2m/s | -42.8°C | 15.7% | 288.7hPa | 2.6V | 00:00:00 | 00:00:00 | 00:00:00 | |
| SONDE2-11 | 2026-09-03 13:03:44 | 52.33570 | 11.69263 | 130° | 173km/h | 9683m | -9.2m/s | -42.8°C | 15.7% | 288.7hPa | 2.6V | 00:00:00 | 00:00:00 | 00:00:00 | |
| DF8AY | 2026-09-03 13:03:41 | 52.33656 | 11.69099 | 131° | 175km/h | 9712m | -9.7m/s | -43°C | 21% | 287.5hPa | 2.6V | 02:50:28 | 02:32:03 | 00:00:00 | |
| DB0DAN | 2026-09-03 13:03:40 | 52.33685 | 11.69044 | 131° | 168km/h | 9721m | -9.9m/s | -43.1°C | 16.3% | 287.08hPa | 2.5V | 00:00:00 | 00:00:00 | 00:00:00 | |
| DO2SHX-10 | 2026-09-03 13:03:38 | 52.33744 | 11.68935 | 132° | 177km/h | 9741m | -10.2m/s | -43.2°C | 19.3% | 286.3hPa | 2.6V | 00:00:00 | 02:32:00 | 00:00:00 | |
| DL1XH1-15 | 2026-09-03 13:03:37 | 52.33924 | 11.68604 | 131° | 181km/h | 9799m | -9.6m/s | -43.6°C | 20.9% | 283.8hPa | 2.6V | 02:49:52 | 02:31:54 | 00:00:00 | |
| DL2RXE-15 | 2026-09-03 13:03:37 | 52.33774 | 11.68880 | 132° | 177km/h | 9751m | -10.1m/s | -43.3°C | 17.0% | 285.9hPa | 2.5V | 02:50:00 | 00:00:00 | 00:00:00 | |
| EDDB2-12 | 2026-09-03 13:03:36 | 52.33833 | 11.68770 | 131° | 179km/h | 9770m | -10.4m/s | -43.4°C | 17.5% | 285.0hPa | 2.5V | 00:00:00 | 00:00:00 | 00:00:00 | |
| DM0DOS-11 | 2026-09-03 13:03:35 | 52.33984 | 11.68492 | 131° | 181km/h | 9819m | -10.2m/s | -43.8°C | 21.3% | 283hPa | 2.5V | 02:49:54 | 02:31:52 | 00:00:00 | |
| DL1XH-west | 2026-09-03 13:03:34 | 52.33863 | 11.68714 | 132° | 179km/h | 9780m | -9.8m/s | -43.5°C | 23% | 284.6hPa | 2.5V | 02:50:28 | 02:31:56 | 00:00:00 | |
| DF8AY | 2026-09-03 13:03:30 | 52.34015 | 11.68436 | 131° | 181km/h | 9828m | -9.5m/s | -43.8°C | 24.2% | 282.5hPa | 2.5V | 02:50:28 | 02:31:51 | 00:00:00 | |
| DO2SHX-10 | 2026-09-03 13:03:29 | 52.34015 | 11.68436 | 132° | 183km/h | 9829m | -9.5m/s | -43.8°C | 21.6% | 282.4hPa | 2.6V | 00:00:00 | 02:31:51 | 00:00:00 | |
| TFSTFS | 2026-09-03 13:03:28 | 52.34015 | 11.68436 | 132° | 181km/h | 9829m | -9.5m/s | -43.8°C | 18.9% | 282.5hPa | 2.6V | 02:50:00 | 00:00:00 | 00:00:00 | |
| DL1XH-15 | 2026-09-03 13:03:27 | 52.34230 | 11.68035 | 131° | 186km/h | 9896m | -10.4m/s | -44.3°C | 22.7% | 279.7hPa | 2.6V | 02:50:02 | 02:31:44 | 00:00:00 | |
| DB0DAN | 2026-09-03 13:03:25 | 52.34137 | 11.68208 | 131° | 175km/h | 9865m | -10.3m/s | -44.1°C | 19.3% | 280.94hPa | 2.5V | 00:00:00 | 00:00:00 | 00:00:00 | |
| DL1XH-west | 2026-09-03 13:03:24 | 52.34168 | 11.68150 | 131° | 184km/h | 9876m | -10.9m/s | -44.2°C | 25.2% | 280.5hPa | 2.5V | 02:50:28 | 02:31:46 | 00:00:00 | |
| AA1-15 | 2026-09-03 13:03:23 | 52.34199 | 11.68093 | 131° | 186km/h | 9886m | -10.6m/s | -44.2°C | 25.4% | 280.2hPa | 2.5V | 02:50:28 | 02:31:45 | 00:00:00 | |
| DO2SHX-10 | 2026-09-03 13:03:23 | 52.34199 | 11.68092 | 132° | 186km/h | 9886m | -10.6m/s | -44.2°C | 22.5% | 280.1hPa | 2.6V | 00:00:00 | 02:31:45 | 00:00:00 | |
| DM0DOS-11 | 2026-09-03 13:03:21 | 52.34291 | 11.67919 | 130° | 186km/h | 9916m | -10.1m/s | -44.4°C | 23% | 278.9hPa | 2.6V | 02:50:04 | 02:31:42 | 00:00:00 | |
| DF8AY | 2026-09-03 13:03:21 | 52.34292 | 11.67919 | 131° | 186km/h | 9916m | -10.1m/s | -44.4°C | 25.9% | 278.9hPa | 2.6V | 02:50:28 | 02:31:42 | 00:00:00 | |
| DO2SHX-10 | 2026-09-03 13:03:21 | 52.34292 | 11.67919 | 131° | 186km/h | 9916m | -10.0m/s | -44.4°C | 23.0% | 278.8hPa | 2.5V | 00:00:00 | 02:31:42 | 00:00:00 | |
| DF7ER-10 | 2026-09-03 13:03:19 | 52.34291 | 11.67919 | 132° | 188km/h | 9916m | -10.1m/s | -44.4°C | 20.1% | 278.9hPa | 2.5V | 02:50:00 | 00:00:00 | 00:00:00 | |
| DL1XH-15 | 2026-09-03 13:03:17 | 52.34540 | 11.67451 | 131° | 190km/h | 9998m | -10.3m/s | -44.8°C | 23.3% | 275.5hPa | 2.5V | 02:50:12 | 02:31:34 | 00:00:00 | |
| DO2SHX-10 | 2026-09-03 13:03:17 | 52.34384 | 11.67744 | 131° | 186km/h | 9946m | -10.8m/s | -44.5°C | 23.2% | 277.6hPa | 2.5V | 02:50:00 | 02:31:39 | 00:00:00 | |
| DM0DOS-11 | 2026-09-03 13:03:16 | 52.34604 | 11.67334 | 130° | 190km/h | 10018m | -10m/s | -44.9°C | 23.8% | 274.6hPa | 2.6V | 02:50:14 | 02:31:32 | 00:00:00 | |
| DL1XH-west | 2026-09-03 13:03:13 | 52.34509 | 11.67510 | 131° | 188km/h | 9987m | -10.8m/s | -44.7°C | 26.3% | 275.9hPa | 2.5V | 02:50:28 | 02:31:35 | 00:00:00 | |
| DF8AY | 2026-09-03 13:03:09 | 52.34635 | 11.67274 | 131° | 192km/h | 10028m | -10.5m/s | -45°C | 27.1% | 274.2hPa | 2.6V | 02:50:28 | 02:31:31 | 00:00:00 | |
| AA1-15 | 2026-09-03 13:03:08 | 52.34667 | 11.67215 | 131° | 190km/h | 10038m | -9.7m/s | -45.1°C | 27.4% | 273.8hPa | 2.6V | 02:50:28 | 02:31:30 | 00:00:00 | |
| DO2SHX-10 | 2026-09-03 13:03:08 | 52.34667 | 11.67215 | 132° | 192km/h | 10038m | -9.7m/s | -45.0°C | 24.2% | 273.7hPa | 2.6V | 02:50:00 | 02:31:30 | 00:00:00 | |
| DB0UT-7 | 2026-09-03 13:03:06 | 52.34731 | 11.67096 | 132° | 199km/h | 10058m | -9.9m/s | -45.1°C | 24.5% | 273.0hPa | 2.5V | 02:50:00 | 00:00:00 | 00:00:00 | |
| DM0DOS-11 | 2026-09-03 13:03:05 | 52.34926 | 11.66734 | 131° | 197km/h | 10117m | -10.1m/s | -45.5°C | 25.6% | 270.6hPa | 2.6V | 02:50:24 | 02:31:22 | 00:00:00 | |
| DL1XH-west | 2026-09-03 13:03:03 | 52.34828 | 11.66916 | 131° | 195km/h | 10088m | -10.4m/s | -45.3°C | 28.7% | 271.8hPa | 2.5V | 02:50:28 | 02:31:25 | 00:00:00 | |
| DF8AY | 2026-09-03 13:02:58 | 52.34991 | 11.66612 | 131° | 197km/h | 10137m | -9.9m/s | -45.7°C | 29.4% | 269.8hPa | 2.5V | 02:50:28 | 02:31:20 | 00:00:00 | |
| HSKMA3-T | 2026-09-03 13:02:57 | 52.35024 | 11.66551 | 132° | 197km/h | 10147m | -10.4m/s | -45.8°C | 29.5% | 269.3hPa | 2.5V | 02:54:43 | 02:31:19 | 00:00:00 | |
| DL1XH-west | 2026-09-03 13:02:52 | 52.35192 | 11.66243 | 132° | 201km/h | 10198m | -10.6m/s | -46.1°C | 28.9% | 267.4hPa | 2.5V | 02:51:19 | 02:31:14 | 00:00:00 | |
| DF8AY | 2026-09-03 13:02:52 | 52.35360 | 11.65936 | 132° | 201km/h | 10249m | -10.6m/s | -46.5°C | 29.5% | 265.4hPa | 2.6V | 02:51:19 | 02:31:09 | 00:00:00 | |
| HSKMA3-T | 2026-09-03 13:02:46 | 52.35394 | 11.65874 | 132° | 201km/h | 10259m | -10.9m/s | -46.5°C | 29.6% | 264.9hPa | 2.5V | 02:54:43 | 02:31:08 | 00:00:00 | |
| SONCRA | 2026-09-03 13:02:44 | 52.35461 | 11.65750 | 131° | 199km/h | 10280m | -10.2m/s | -46.7°C | 22.8% | 264.1hPa | 2.6V | 00:00:00 | 00:00:00 | 00:00:00 | |
| DL1XH-west | 2026-09-03 13:02:41 | 52.35562 | 11.65563 | 132° | 201km/h | 10312m | -11.1m/s | -46.9°C | 30.2% | 262.8hPa | 2.6V | 02:51:19 | 02:31:03 | 00:00:00 | |
| DF8AY | 2026-09-03 13:02:37 | 52.35698 | 11.65314 | 132° | 203km/h | 10353m | -10.4m/s | -47.3°C | 30.7% | 261.1hPa | 2.6V | 02:51:19 | 02:30:59 | 00:00:00 | |
| AA1-15 | 2026-09-03 13:02:36 | 52.35732 | 11.65252 | 132° | 203km/h | 10364m | -10.7m/s | -47.4°C | 30.8% | 260.7hPa | 2.5V | 02:52:10 | 02:30:58 | 00:00:00 | |
| HSKMA3-T | 2026-09-03 13:02:34 | 52.35799 | 11.65126 | 132° | 203km/h | 10384m | -10.6m/s | -47.6°C | 31% | 259.9hPa | 2.6V | 02:54:43 | 02:30:56 | 00:00:00 | |
| DL1XH-west | 2026-09-03 13:02:31 | 52.35902 | 11.64938 | 131° | 204km/h | 10416m | -10.7m/s | -47.8°C | 31.2% | 258.7hPa | 2.5V | 02:51:19 | 02:30:53 | 00:00:00 | |
| DM0DOS-11 | 2026-09-03 13:02:30 | 52.35936 | 11.64875 | 131° | 204km/h | 10426m | -10.8m/s | -47.9°C | 27.4% | 258.3hPa | 2.6V | 02:50:54 | 02:30:52 | 00:00:00 | |
| AA1-15 | 2026-09-03 13:02:26 | 52.36073 | 11.64622 | 131° | 204km/h | 10468m | -10.2m/s | -48.2°C | 31.2% | 256.7hPa | 2.5V | 02:52:10 | 02:30:48 | 00:00:00 | |
| DM0DOS-11 | 2026-09-03 13:02:25 | 52.36277 | 11.64241 | 131° | 204km/h | 10529m | -10.2m/s | -48.7°C | 29.1% | 254.2hPa | 2.5V | 02:51:04 | 02:30:42 | 00:00:00 | |
| DF8AY | 2026-09-03 13:02:24 | 52.36141 | 11.64495 | 131° | 204km/h | 10488m | -10.3m/s | -48.3°C | 31.4% | 255.8hPa | 2.6V | 02:51:19 | 02:30:46 | 00:00:00 | |
| DL1XH-west | 2026-09-03 13:02:20 | 52.36277 | 11.64241 | 132° | 204km/h | 10529m | -10.3m/s | -48.7°C | 32.3% | 254.2hPa | 2.5V | 02:51:19 | 02:30:42 | 00:00:00 | |
| DO2SHX-10 | 2026-09-03 13:02:20 | 52.36277 | 11.64241 | 132° | 204km/h | 10530m | -10.2m/s | -48.7°C | 29.1% | 254.2hPa | 2.6V | 00:00:00 | 02:30:42 | 00:00:00 | |
| DL1XH-15 | 2026-09-03 13:02:17 | 52.36551 | 11.63735 | 131° | 203km/h | 10612m | -10.4m/s | -49.5°C | 31.1% | 251.1hPa | 2.6V | 02:51:12 | 02:30:34 | 00:00:00 | |
| DL1XH1-15 | 2026-09-03 13:02:16 | 52.36619 | 11.63610 | 131° | 201km/h | 10632m | -10.3m/s | -49.7°C | 31.5% | 250.3hPa | 2.6V | 02:51:14 | 02:30:32 | 00:00:00 | |
| AA1-15 | 2026-09-03 13:02:16 | 52.36415 | 11.63987 | 131° | 204km/h | 10570m | -10.2m/s | -49.1°C | 33.2% | 252.7hPa | 2.6V | 02:52:10 | 02:30:38 | 00:00:00 | |
| DF8AY | 2026-09-03 13:02:13 | 52.36518 | 11.63798 | 131° | 203km/h | 10601m | -11.3m/s | -49.4°C | 33.9% | 251.5hPa | 2.5V | 02:51:19 | 02:30:35 | 00:00:00 | |
| DB0DAN | 2026-09-03 13:02:10 | 52.36619 | 11.63610 | 131° | 192km/h | 10632m | -10.3m/s | -49.7°C | 27.5% | 250.33hPa | 2.6V | 00:00:00 | 00:00:00 | 00:00:00 | |
| DL1XH-west | 2026-09-03 13:02:09 | 52.36652 | 11.63547 | 131° | 201km/h | 10642m | -11.4m/s | -49.8°C | 34.9% | 249.9hPa | 2.5V | 02:51:19 | 02:30:31 | 00:00:00 | |
| AA1-15 | 2026-09-03 13:02:06 | 52.36751 | 11.63360 | 131° | 199km/h | 10675m | -11m/s | -49.9°C | 35.5% | 248.8hPa | 2.6V | 02:52:10 | 02:30:28 | 00:00:00 | |
| DF8AY | 2026-09-03 13:02:02 | 52.36884 | 11.63109 | 130° | 203km/h | 10715m | -10.4m/s | -50.1°C | 36% | 247.1hPa | 2.6V | 02:53:52 | 02:30:24 | 00:00:00 | |
| DL1XH-west | 2026-09-03 13:01:59 | 52.36982 | 11.62915 | 129° | 204km/h | 10746m | -10.8m/s | -50.2°C | 36.6% | 246hPa | 2.6V | 02:52:10 | 02:30:21 | 00:00:00 | |
| DO2SHX-10 | 2026-09-03 13:01:59 | 52.36982 | 11.62915 | 130° | 204km/h | 10746m | -10.7m/s | -50.1°C | 33.1% | 245.9hPa | 2.6V | 00:00:00 | 02:30:21 | 00:00:00 | |
| AM1SDL-15 | 2026-09-03 13:01:58 | 52.37015 | 11.62850 | 130° | 204km/h | 10757m | -10.7m/s | -50.1°C | 33.5% | 245.5hPa | 2.6V | 00:00:00 | 02:30:20 | 00:00:00 | |
| DL1XH-15 | 2026-09-03 13:01:57 | 52.37207 | 11.62455 | 128° | 204km/h | 10819m | -11.6m/s | -50.3°C | 34.9% | 243.2hPa | 2.6V | 02:51:32 | 02:30:14 | 00:00:00 | |
| AA1-15 | 2026-09-03 13:01:54 | 52.37143 | 11.62588 | 128° | 204km/h | 10798m | -11.2m/s | -50.1°C | 38.9% | 244hPa | 2.5V | 02:52:10 | 02:30:16 | 00:00:00 | |
| DF8AY | 2026-09-03 13:01:52 | 52.37207 | 11.62455 | 128° | 204km/h | 10819m | -11.6m/s | -50.3°C | 39.6% | 243.2hPa | 2.6V | 02:53:52 | 02:30:14 | 00:00:00 | |
| DL1XH-west | 2026-09-03 13:01:49 | 52.37335 | 11.62188 | 128° | 208km/h | 10863m | -12m/s | -50.7°C | 41.2% | 241.6hPa | 2.5V | 02:52:10 | 02:30:10 | 00:00:00 | |
| HSKMA3-T | 2026-09-03 13:01:46 | 52.37399 | 11.62052 | 128° | 206km/h | 10886m | -11.8m/s | -50.9°C | 41.9% | 240.7hPa | 2.6V | 02:54:43 | 02:30:08 | 00:00:00 | |
| AA1-15 | 2026-09-03 13:01:44 | 52.37463 | 11.61916 | 127° | 208km/h | 10910m | -12.2m/s | -51.1°C | 42.6% | 239.9hPa | 2.5V | 02:52:10 | 02:30:06 | 00:00:00 | |
| DF8AY | 2026-09-03 13:01:42 | 52.37557 | 11.61709 | 127° | 210km/h | 10944m | -10.7m/s | -51.4°C | 43.8% | 238.6hPa | 2.6V | 02:53:52 | 02:30:03 | 00:00:00 | |
| DL1XH1-15 | 2026-09-03 13:01:41 | 52.37589 | 11.61640 | 126° | 210km/h | 10955m | -11.9m/s | -51.5°C | 39.6% | 238.2hPa | 2.6V | 02:51:44 | 02:30:02 | 00:00:00 | |
| DB0DAN | 2026-09-03 13:01:40 | 52.37589 | 11.61640 | 127° | 201km/h | 10955m | -11.9m/s | -51.5°C | 34.9% | 238.17hPa | 2.6V | 00:00:00 | 00:00:00 | 00:00:00 | |
| DL1XH-15 | 2026-09-03 13:01:38 | 52.37844 | 11.61073 | 126° | 214km/h | 11048m | -11.1m/s | -52.2°C | 42.8% | 234.8hPa | 2.6V | 02:51:52 | 02:29:54 | 00:00:00 | |
| DO2SHX-10 | 2026-09-03 13:01:38 | 52.37653 | 11.61499 | 127° | 214km/h | 10979m | -12.0m/s | -51.6°C | 40.6% | 237.3hPa | 2.5V | 02:51:00 | 02:30:00 | 00:00:00 | |
| DL1XH-west | 2026-09-03 13:01:38 | 52.37684 | 11.61428 | 127° | 212km/h | 10990m | -12m/s | -51.7°C | 45.2% | 236.9hPa | 2.5V | 02:52:10 | 02:29:59 | 00:00:00 | |
| DB0UT-7 | 2026-09-03 13:01:36 | 52.37716 | 11.61358 | 127° | 215km/h | 11002m | -11.8m/s | -51.8°C | 41.6% | 236.4hPa | 2.6V | 02:51:00 | 02:29:58 | 00:00:00 | |
| DL1XH1-15 | 2026-09-03 13:01:35 | 52.37908 | 11.60931 | 126° | 212km/h | 11071m | -11.7m/s | -52.4°C | 42.9% | 234hPa | 2.6V | 02:51:54 | 02:29:52 | 00:00:00 | |
| HSKMA3-T | 2026-09-03 13:01:34 | 52.37780 | 11.61215 | 126° | 214km/h | 11025m | -11.5m/s | -52°C | 46.3% | 235.7hPa | 2.5V | 02:54:43 | 02:29:56 | 00:00:00 | |
| AA1-15 | 2026-09-03 13:01:33 | 52.37812 | 11.61144 | 126° | 214km/h | 11037m | -12.3m/s | -52.1°C | 46.6% | 235.2hPa | 2.5V | 02:52:10 | 02:29:55 | 00:00:00 | |
| DF8AY | 2026-09-03 13:01:31 | 52.38037 | 11.60647 | 127° | 215km/h | 11123m | -13.9m/s | -52.9°C | 47.8% | 232.2hPa | 2.6V | 02:53:52 | 02:29:48 | 00:00:00 | |
| DL1XH-west | 2026-09-03 13:01:27 | 52.38005 | 11.60718 | 128° | 215km/h | 11109m | -14.8m/s | -52.7°C | 47.7% | 232.7hPa | 2.5V | 02:52:10 | 02:29:49 | 00:00:00 | |
| DO2SHX-10 | 2026-09-03 13:01:26 | 52.38037 | 11.60647 | 127° | 215km/h | 11123m | -13.9m/s | -52.8°C | 42.8% | 232.2hPa | 2.6V | 00:00:00 | 02:29:48 | 00:00:00 | |
| DD8BA-10 | 2026-09-03 13:01:25 | 52.38070 | 11.60576 | 128° | 217km/h | 11136m | -13.1m/s | -52.9°C | 42.9% | 231.7hPa | 2.6V | 02:51:00 | 00:00:00 | 00:00:00 | |
| DM0DOS-11 | 2026-09-03 13:01:24 | 52.38237 | 11.60222 | 128° | 217km/h | 11200m | -12.5m/s | -53.4°C | 43.6% | 229.4hPa | 2.6V | 02:52:04 | 02:29:42 | 00:00:00 | |
| AA1-15 | 2026-09-03 13:01:23 | 52.38136 | 11.60434 | 127° | 215km/h | 11162m | -14m/s | -53.2°C | 47.9% | 230.8hPa | 2.5V | 02:52:10 | 02:29:45 | 00:00:00 | |
| DF8AY | 2026-09-03 13:01:21 | 52.38408 | 11.59872 | 129° | 217km/h | 11257m | -11.6m/s | -53.9°C | 47.7% | 227.3hPa | 2.6V | 02:53:52 | 02:29:37 | 00:00:00 | |
| DL1XH-west | 2026-09-03 13:01:17 | 52.38339 | 11.60011 | 129° | 215km/h | 11234m | -11.7m/s | -53.7°C | 47.9% | 228.2hPa | 2.5V | 02:52:10 | 02:29:39 | 00:00:00 | |
| DO2SHX-10 | 2026-09-03 13:01:17 | 52.38339 | 11.60011 | 129° | 217km/h | 11235m | -11.6m/s | -53.7°C | 44.1% | 228.2hPa | 2.6V | 00:00:00 | 02:29:39 | 00:00:00 | |
| DF8AY-15 | 2026-09-03 13:01:15 | 52.38408 | 11.59872 | 129° | 219km/h | 11258m | -11.6m/s | -53.8°C | 43.9% | 227.3hPa | 2.6V | 02:52:00 | 02:29:37 | 00:00:00 | |
| DO2SHX-10 | 2026-09-03 13:01:14 | 52.38442 | 11.59802 | 129° | 217km/h | 11268m | -10.5m/s | -53.9°C | 43.8% | 226.9hPa | 2.6V | 00:00:00 | 02:29:36 | 00:00:00 | |
| DM0DOS-11 | 2026-09-03 13:01:12 | 52.38581 | 11.59524 | 128° | 219km/h | 11311m | -10.6m/s | -54.3°C | 43.7% | 225.5hPa | 2.6V | 02:52:14 | 02:29:32 | 00:00:00 | |
| HSKMA3-T | 2026-09-03 13:01:12 | 52.38512 | 11.59663 | 129° | 217km/h | 11290m | -10.8m/s | -54.1°C | 47.7% | 226.2hPa | 2.5V | 02:54:43 | 02:29:34 | 00:00:00 | |
| DF8AY | 2026-09-03 13:01:09 | 52.38616 | 11.59453 | 129° | 219km/h | 11322m | -11.6m/s | -54.4°C | 47.8% | 225.2hPa | 2.6V | 02:53:52 | 02:29:31 | 00:00:00 | |
| DL1XH-west | 2026-09-03 13:01:07 | 52.38720 | 11.59242 | 129° | 219km/h | 11355m | -10.7m/s | -54.7°C | 47.8% | 224hPa | 2.5V | 02:53:01 | 02:29:28 | 00:00:00 | |
| TFSTFS | 2026-09-03 13:01:06 | 52.38720 | 11.59242 | 130° | 219km/h | 11355m | -10.7m/s | -54.7°C | 38.6% | 224.0hPa | 2.5V | 02:53:00 | 00:00:00 | 00:00:00 | |
| DL1XH1-15 | 2026-09-03 13:01:05 | 52.38932 | 11.58821 | 129° | 221km/h | 11419m | -11.4m/s | -55.3°C | 44.3% | 221.7hPa | 2.5V | 02:52:24 | 02:29:22 | 00:00:00 | |
| AA1-15 | 2026-09-03 13:01:02 | 52.38861 | 11.58962 | 129° | 219km/h | 11397m | -10.7m/s | -55.1°C | 47.6% | 222.4hPa | 2.5V | 02:53:52 | 02:29:24 | 00:00:00 | |
| HSKMA3-T | 2026-09-03 13:01:01 | 52.38896 | 11.58891 | 130° | 221km/h | 11408m | -11.6m/s | -55.2°C | 47.5% | 222.1hPa | 2.5V | 02:54:43 | 02:29:23 | 00:00:00 | |
| DL1XH-west | 2026-09-03 13:00:56 | 52.39074 | 11.58539 | 130° | 221km/h | 11463m | -11.5m/s | -55.7°C | 46.4% | 220.2hPa | 2.5V | 02:53:01 | 02:29:18 | 00:00:00 | |
| DO2SHX-10 | 2026-09-03 13:00:56 | 52.39074 | 11.58539 | 130° | 221km/h | 11464m | -11.5m/s | -55.6°C | 43.6% | 220.1hPa | 2.6V | 00:00:00 | 02:29:18 | 00:00:00 | |
| DL1XH1-15 | 2026-09-03 13:00:55 | 52.39292 | 11.58118 | 130° | 223km/h | 11528m | -11.3m/s | -56.2°C | 42.2% | 217.9hPa | 2.6V | 02:52:34 | 02:29:12 | 00:00:00 | |
| BUE01 | 2026-09-03 13:00:55 | 52.39441 | 11.57837 | 131° | 224km/h | 11572m | -11.5m/s | -56.6°C | 34.3% | 216.5hPa | 2.5V | 00:00:00 | 00:00:00 | 00:00:00 | |
| DL1XH-15 | 2026-09-03 13:00:53 | 52.39219 | 11.58258 | 130° | 224km/h | 11507m | -11.6m/s | -56°C | 42.5% | 218.7hPa | 2.5V | 02:52:32 | 02:29:14 | 00:00:00 | |
| AA1-15 | 2026-09-03 13:00:52 | 52.39219 | 11.58258 | 130° | 224km/h | 11507m | -11.6m/s | -56°C | 44.9% | 218.7hPa | 2.5V | 02:53:52 | 02:29:14 | 00:00:00 | |
| DL4XJ-10 | 2026-09-03 13:00:50 | 52.39292 | 11.58118 | 131° | 221km/h | 11529m | -11.2m/s | -54.6°C | 0% | 0hPa | 2.6V | 00:00:00 | 00:00:00 | 00:00:00 | |
| DO2SHX-10 | 2026-09-03 13:00:49 | 52.39329 | 11.58048 | 132° | 224km/h | 11539m | -10.9m/s | -56.3°C | 41.6% | 217.5hPa | 2.6V | 00:00:00 | 02:29:11 | 00:00:00 | |
| DL1XH-15 | 2026-09-03 13:00:47 | 52.39592 | 11.57558 | 131° | 223km/h | 11615m | -11.5m/s | -56.8°C | 38.1% | 215.1hPa | 2.6V | 02:52:42 | 02:29:04 | 00:00:00 | |
| DL1XH-west | 2026-09-03 13:00:46 | 52.39441 | 11.57837 | 131° | 226km/h | 11572m | -11.5m/s | -56.6°C | 41.5% | 216.5hPa | 2.5V | 02:53:01 | 02:29:08 | 00:00:00 | |
| DF8AY | 2026-09-03 13:00:45 | 52.39479 | 11.57767 | 131° | 226km/h | 11583m | -10.8m/s | -56.6°C | 40.8% | 216.2hPa | 2.5V | 02:53:52 | 02:29:07 | 00:00:00 | |
| EDDB2-11 | 2026-09-03 13:00:44 | 52.39516 | 11.57696 | 131° | 224km/h | 11593m | -11.2m/s | -56.7°C | 33.8% | 215.8hPa | 2.5V | 00:00:00 | 00:00:00 | 00:00:00 | |
| AA1-15 | 2026-09-03 13:00:41 | 52.39630 | 11.57489 | 132° | 223km/h | 11626m | -11m/s | -56.9°C | 38.2% | 214.7hPa | 2.5V | 02:53:52 | 02:29:03 | 00:00:00 | |
| DO2SHX-10 | 2026-09-03 13:00:40 | 52.39667 | 11.57421 | 133° | 221km/h | 11637m | -10.9m/s | -56.9°C | 37.3% | 214.2hPa | 2.5V | 00:00:00 | 02:29:02 | 00:00:00 | |
| DB0DAN | 2026-09-03 13:00:40 | 52.39667 | 11.57421 | 132° | 212km/h | 11637m | -11m/s | -57°C | 31.5% | 214.27hPa | 2.5V | 00:00:00 | 00:00:00 | 00:00:00 | |
| SONDE2-11 | 2026-09-03 13:00:38 | 52.39780 | 11.57218 | 132° | 217km/h | 11667m | -10.7m/s | -57.1°C | 29.2% | 213.2hPa | 2.5V | 00:00:00 | 00:00:00 | 00:00:00 | |
| DL1XH-15 | 2026-09-03 13:00:37 | 52.39963 | 11.56891 | 133° | 210km/h | 11719m | -10.7m/s | -57.1°C | 29.2% | 211.5hPa | 2.5V | 02:52:52 | 02:28:54 | 00:00:00 | |
| DF8AY | 2026-09-03 13:00:35 | 52.39854 | 11.57085 | 132° | 215km/h | 11688m | -11.1m/s | -57.2°C | 32.8% | 212.5hPa | 2.6V | 02:53:52 | 02:28:57 | 00:00:00 | |
| DF8AY-15 | 2026-09-03 13:00:35 | 52.39854 | 11.57085 | 133° | 199km/h | 11688m | -11.1m/s | -57.2°C | 33.1% | 212.5hPa | 2.5V | 00:00:00 | 02:28:57 | 00:00:00 | |
| DO2SHX-10 | 2026-09-03 13:00:34 | 52.39890 | 11.57020 | 133° | 212km/h | 11699m | -10.7m/s | -57.2°C | 32.2% | 212.1hPa | 2.5V | 02:52:00 | 02:28:56 | 00:00:00 | |
| NBG1-10 | 2026-09-03 13:00:32 | 52.39963 | 11.56891 | 134° | 179km/h | 11719m | -10.6m/s | -57.0°C | 29.2% | 211.4hPa | 2.5V | 02:52:00 | 02:28:54 | 00:00:00 | |
| DO2SHX-10 | 2026-09-03 13:00:31 | 52.39999 | 11.56828 | 133° | 206km/h | 11730m | -11.4m/s | -57.1°C | 27.9% | 211.0hPa | 2.5V | 00:00:00 | 02:28:53 | 00:00:00 | |
| DL4XJ-10 | 2026-09-03 13:00:30 | 52.40035 | 11.56765 | 134° | 188km/h | 11741m | -11.2m/s | -55.5°C | 0% | 0hPa | 2.5V | 00:00:00 | 00:00:00 | 00:00:00 | |
| EDDB2-12 | 2026-09-03 13:00:29 | 52.40071 | 11.56703 | 133° | 204km/h | 11752m | -11.5m/s | -57.1°C | 20.5% | 210.5hPa | 2.5V | 00:00:00 | 00:00:00 | 00:00:00 | |
| DO2SHX-10 | 2026-09-03 13:00:28 | 52.40106 | 11.56642 | 134° | 201km/h | 11763m | -11.3m/s | -57.1°C | 24.5% | 210.0hPa | 2.5V | 00:00:00 | 02:28:50 | 00:00:00 | |
| DL1XH-15 | 2026-09-03 13:00:27 | 52.40311 | 11.56289 | 133° | 192km/h | 11828m | -11.3m/s | -57°C | 18.7% | 207.9hPa | 2.5V | 02:53:02 | 02:28:44 | 00:00:00 | |
| DL1XH1-15 | 2026-09-03 13:00:25 | 52.40378 | 11.56175 | 133° | 190km/h | 11850m | -11m/s | -56.9°C | 17.1% | 207.2hPa | 2.6V | 02:53:04 | 02:28:42 | 00:00:00 | |
| DB0DAN | 2026-09-03 13:00:25 | 52.40210 | 11.56463 | 133° | 188km/h | 11795m | -11.2m/s | -57°C | 16.7% | 208.99hPa | 2.6V | 00:00:00 | 00:00:00 | 00:00:00 | |
| DF8AY | 2026-09-03 13:00:24 | 52.40244 | 11.56404 | 134° | 193km/h | 11806m | -10.9m/s | -57°C | 20.4% | 208.7hPa | 2.6V | 02:53:52 | 02:28:46 | 00:00:00 | |
| DO2SHX-10 | 2026-09-03 13:00:22 | 52.40312 | 11.56288 | 134° | 190km/h | 11828m | -11.3m/s | -56.9°C | 18.7% | 207.8hPa | 2.5V | 00:00:00 | 02:28:44 | 00:00:00 | |
| DJ2DS-15 | 2026-09-03 13:00:21 | 52.40345 | 11.56231 | 133° | 190km/h | 11839m | -10.9m/s | -56.9°C | 13.6% | 207.6hPa | 2.5V | 00:00:00 | 00:00:00 | 00:00:00 | |
| DO2SHX-10 | 2026-09-03 13:00:19 | 52.40411 | 11.56118 | 134° | 186km/h | 11861m | -11.1m/s | -56.8°C | 16.3% | 206.8hPa | 2.5V | 00:00:00 | 02:28:41 | 00:00:00 | |
| DF7ER-10 | 2026-09-03 13:00:18 | 52.40444 | 11.56062 | 135° | 186km/h | 11872m | -11.2m/s | -56.8°C | 11.7% | 206.5hPa | 2.5V | 02:53:00 | 00:00:00 | 00:00:00 | |
| DL1XH-15 | 2026-09-03 13:00:17 | 52.40637 | 11.55738 | 134° | 179km/h | 11936m | -11m/s | -56.8°C | 12.7% | 204.4hPa | 2.5V | 02:53:12 | 02:28:34 | 00:00:00 | |
| AA1-15 | 2026-09-03 13:00:15 | 52.40542 | 11.55898 | 134° | 183km/h | 11905m | -11.1m/s | -56.6°C | 12.9% | 205.5hPa | 2.6V | 02:53:52 | 02:28:37 | 00:00:00 | |
| DL1XH1-15 | 2026-09-03 13:00:15 | 52.40700 | 11.55634 | 134° | 175km/h | 11957m | -9.9m/s | -56.8°C | 11.9% | 203.7hPa | 2.6V | 02:53:14 | 02:28:32 | 00:00:00 | |
| DF8AY | 2026-09-03 13:00:14 | 52.40574 | 11.55844 | 134° | 181km/h | 11915m | -10.2m/s | -56.7°C | 12.3% | 205.1hPa | 2.6V | 02:53:52 | 02:28:36 | 00:00:00 | |
| DF8AY | 2026-09-03 13:00:03 | 52.40907 | 11.55285 | 133° | 161km/h | 12027m | -10.3m/s | -56.9°C | 6.4% | 201.4hPa | 2.6V | 02:53:52 | 02:28:25 | 00:00:00 | |
| DL1XH1-15 | 2026-09-03 13:00:01 | 52.40988 | 11.55144 | 132° | 151km/h | 12058m | -11.1m/s | -56.5°C | 7.8% | 200.4hPa | 2.5V | 02:53:24 | 02:28:22 | 00:00:00 | |
| DO2SHX-10 | 2026-09-03 13:00:01 | 52.40962 | 11.55190 | 134° | 153km/h | 12048m | -10.0m/s | -56.6°C | 8.2% | 200.7hPa | 2.5V | 00:00:00 | 02:28:23 | 00:00:00 | |
| GOEST3-10 | 2026-09-03 13:00:00 | 52.40988 | 11.55144 | 133° | 148km/h | 12058m | -11.0m/s | -56.4°C | 7.8% | 200.4hPa | 2.5V | 00:00:00 | 00:00:00 | 00:00:00 | |
| DO2SHX-10 | 2026-09-03 12:59:58 | 52.41039 | 11.55051 | 133° | 148km/h | 12078m | -10.8m/s | -56.3°C | 7.4% | 199.9hPa | 2.5V | 02:53:00 | 02:28:20 | 00:00:00 | |
| DL1XH-15 | 2026-09-03 12:59:57 | 52.41181 | 11.54780 | 128° | 141km/h | 12143m | -11.3m/s | -55.4°C | 6.3% | 197.8hPa | 2.5V | 02:53:32 | 02:28:14 | 00:00:00 | |
| TFSTFS | 2026-09-03 12:59:56 | 52.41064 | 11.55006 | 133° | 148km/h | 12089m | -10.7m/s | -56.1°C | 3.9% | 199.5hPa | 2.6V | 00:00:00 | 00:00:00 | 00:00:00 | |
| DL1XH1-15 | 2026-09-03 12:59:55 | 52.41225 | 11.54688 | 127° | 141km/h | 12165m | -11.4m/s | -55°C | 6% | 197.2hPa | 2.6V | 02:53:34 | 02:28:12 | 00:00:00 | |
| AA1-15 | 2026-09-03 12:59:53 | 52.41159 | 11.54825 | 130° | 141km/h | 12132m | -11.4m/s | -55.5°C | 3.4% | 198.2hPa | 2.5V | 02:53:52 | 02:28:15 | 00:00:00 | |
| DF8AY | 2026-09-03 12:59:52 | 52.41181 | 11.54780 | 128° | 141km/h | 12144m | -11.3m/s | -55.4°C | 3.3% | 197.8hPa | 2.5V | 02:53:52 | 02:28:14 | 00:00:00 | |
| HSKMA3-T | 2026-09-03 12:59:46 | 52.41311 | 11.54498 | 126° | 144km/h | 12210m | -11.2m/s | -54.9°C | 2.6% | 195.8hPa | 2.6V | 02:54:43 | 02:28:08 | 00:00:00 | |
| DJ2DS-15 | 2026-09-03 12:59:45 | 52.41333 | 11.54450 | 125° | 144km/h | 12221m | -11.5m/s | -54.9°C | 2.8% | 195.4hPa | 2.5V | 00:00:00 | 00:00:00 | 00:00:00 | |
| AA1-15 | 2026-09-03 12:59:43 | 52.41375 | 11.54351 | 125° | 148km/h | 12243m | -11.1m/s | -54.5°C | 2.3% | 194.8hPa | 2.5V | 02:53:52 | 02:28:05 | 00:00:00 | |
| DL1XH-west | 2026-09-03 12:59:42 | 52.41419 | 11.54249 | 125° | 151km/h | 12265m | -10.7m/s | -53.7°C | 2.1% | 194.2hPa | 2.6V | 02:53:52 | 02:28:03 | 00:00:00 | |
| DF8AY | 2026-09-03 12:59:42 | 52.41718 | 11.53545 | 125° | 141km/h | 12414m | -11.3m/s | -53°C | 1.2% | 189.7hPa | 2.6V | 02:54:43 | 02:27:49 | 00:00:00 | |
| DL1XH1-15 | 2026-09-03 12:59:41 | 52.41440 | 11.54198 | 124° | 151km/h | 12275m | -10.2m/s | -53.6°C | 4.8% | 193.8hPa | 2.6V | 02:53:44 | 02:28:02 | 00:00:00 | |
| DB0DAN | 2026-09-03 12:59:40 | 52.41440 | 11.54198 | 125° | 144km/h | 12275m | -10.2m/s | 0°C | 0% | 0hPa | 2.6V | 00:00:00 | 00:00:00 | 00:00:00 | |
| DB0DAN | 2026-09-03 12:59:40 | 52.41440 | 11.54198 | 125° | 144km/h | 12275m | -10.2m/s | -53.6°C | 2.3% | 193.8hPa | 2.6V | 00:00:00 | 00:00:00 | 00:00:00 | |
| SONCRA | 2026-09-03 12:59:38 | 52.41505 | 11.54044 | 124° | 151km/h | 12306m | -11.6m/s | -53.6°C | 2.2% | 192.9hPa | 2.6V | 00:00:00 | 00:00:00 | 00:00:00 | |
| DO2SHX-10 | 2026-09-03 12:59:37 | 52.41505 | 11.54043 | 125° | 151km/h | 12306m | -11.5m/s | -53.6°C | 4.7% | 192.8hPa | 2.6V | 00:00:00 | 02:27:59 | 00:00:00 | |
| DB0UT-7 | 2026-09-03 12:59:36 | 52.41527 | 11.53992 | 125° | 131km/h | 12317m | -11.1m/s | -53.6°C | 4.8% | 192.5hPa | 2.6V | 00:00:00 | 02:27:58 | 00:00:00 | |
| DL1XH1-15 | 2026-09-03 12:59:35 | 52.41656 | 11.53690 | 125° | 144km/h | 12382m | -10.8m/s | -53.5°C | 4.5% | 190.6hPa | 2.6V | 02:53:54 | 02:27:52 | 00:00:00 | |
| AA1-15 | 2026-09-03 12:59:33 | 52.41591 | 11.53839 | 125° | 150km/h | 12350m | -11.1m/s | -53.4°C | 1.6% | 191.6hPa | 2.5V | 02:53:52 | 02:27:55 | 00:00:00 | |
| DD8BA-10 | 2026-09-03 12:59:33 | 52.41591 | 11.53839 | 126° | 142km/h | 12350m | -11.1m/s | -53.4°C | 4.6% | 191.5hPa | 2.6V | 00:00:00 | 00:00:00 | 00:00:00 | |
| DM0DOS-11 | 2026-09-03 12:59:32 | 52.41634 | 11.53739 | 125° | 146km/h | 12371m | -11m/s | -53.4°C | 4.6% | 190.9hPa | 2.6V | 02:53:53 | 02:27:53 | 00:00:00 | |
| DL1XH-west | 2026-09-03 12:59:32 | 52.41613 | 11.53789 | 125° | 148km/h | 12360m | -11m/s | -53.4°C | 1.5% | 191.2hPa | 2.5V | 02:53:52 | 02:27:54 | 00:00:00 | |
| DF8AY | 2026-09-03 12:59:30 | 52.41758 | 11.53451 | 125° | 137km/h | 12436m | -10.5m/s | -53.1°C | 1.1% | 189hPa | 2.6V | 02:54:43 | 02:27:47 | 00:00:00 | |
| DO2SHX-10 | 2026-09-03 12:59:28 | 52.41697 | 11.53593 | 125° | 141km/h | 12404m | -10.9m/s | -53.0°C | 4.3% | 189.9hPa | 2.5V | 00:00:00 | 02:27:50 | 00:00:00 | |
| DL1XH-15 | 2026-09-03 12:59:27 | 52.41816 | 11.53316 | 125° | 130km/h | 12468m | -10.9m/s | -53.2°C | 4.1% | 188.1hPa | 2.5V | 02:54:02 | 02:27:44 | 00:00:00 | |
| HSKMA3-T | 2026-09-03 12:59:26 | 52.41738 | 11.53498 | 125° | 139km/h | 12425m | -11m/s | -53°C | 1.1% | 189.3hPa | 2.6V | 02:54:43 | 02:27:48 | 00:00:00 | |
| DB0DAN | 2026-09-03 12:59:25 | 52.41758 | 11.53451 | 125° | 130km/h | 12436m | -10.5m/s | 0°C | 0% | 0hPa | 2.6V | 00:00:00 | 00:00:00 | 00:00:00 | |
| DB0DAN | 2026-09-03 12:59:25 | 52.41758 | 11.53451 | 125° | 130km/h | 12436m | -10.5m/s | -53.1°C | 1.8% | 189.04hPa | 2.6V | 00:00:00 | 00:00:00 | 00:00:00 | |
| AA1-15 | 2026-09-03 12:59:23 | 52.41816 | 11.53316 | 125° | 130km/h | 12469m | -10.9m/s | -53.2°C | 0.9% | 188.1hPa | 2.5V | 02:54:43 | 02:27:44 | 00:00:00 | |
| DL1XH-west | 2026-09-03 12:59:22 | 52.41835 | 11.53272 | 125° | 128km/h | 12479m | -10.7m/s | -53.2°C | 1% | 187.7hPa | 2.6V | 02:54:43 | 02:27:43 | 00:00:00 | |
| DL1XH1-15 | 2026-09-03 12:59:21 | 52.41853 | 11.53229 | 125° | 126km/h | 12489m | -9.6m/s | -53.3°C | 4.1% | 187.4hPa | 2.6V | 02:54:04 | 02:27:42 | 00:00:00 | |
| DO2SHX-10 | 2026-09-03 12:59:19 | 52.41871 | 11.53186 | 125° | 122km/h | 12499m | -10.4m/s | -53.2°C | 4.1% | 187.1hPa | 2.6V | 00:00:00 | 02:27:41 | 00:00:00 | |
| DL1XH-15 | 2026-09-03 12:59:18 | 52.41991 | 11.52907 | 124° | 115km/h | 12573m | -11.1m/s | -52.5°C | 3.6% | 185.1hPa | 2.6V | 02:54:12 | 02:27:34 | 00:00:00 | |
| DF8AY | 2026-09-03 12:59:18 | 52.41924 | 11.53063 | 126° | 119km/h | 12531m | -10.9m/s | -53°C | 0.7% | 186.3hPa | 2.6V | 02:54:43 | 02:27:38 | 00:00:00 | |
| DO2SHX-10 | 2026-09-03 12:59:17 | 52.41924 | 11.53063 | 126° | 117km/h | 12531m | -10.9m/s | -53.0°C | 3.9% | 186.2hPa | 2.6V | 00:00:00 | 02:27:38 | 00:00:00 | |
| DL1XH1-15 | 2026-09-03 12:59:16 | 52.42024 | 11.52829 | 124° | 113km/h | 12595m | -11.2m/s | -52.2°C | 3.5% | 184.4hPa | 2.6V | 02:54:14 | 02:27:32 | 00:00:00 | |
| DF8AY-15 | 2026-09-03 12:59:15 | 52.41941 | 11.53024 | 126° | 111km/h | 12542m | -10.8m/s | -52.8°C | 3.8% | 185.9hPa | 2.6V | 02:54:00 | 02:27:37 | 00:00:00 | |
| DF7ER-10 | 2026-09-03 12:59:14 | 52.41941 | 11.53024 | 126° | 117km/h | 12542m | -10.9m/s | -52.8°C | 1.6% | 185.9hPa | 2.6V | 02:54:00 | 00:00:00 | 00:00:00 | |
| DD8BA-10 | 2026-09-03 12:59:13 | 52.41975 | 11.52946 | 125° | 111km/h | 12563m | -10.3m/s | -52.5°C | 3.7% | 185.3hPa | 2.6V | 00:00:00 | 00:00:00 | 00:00:00 | |
| DM0DOS-11 | 2026-09-03 12:59:12 | 52.42007 | 11.52868 | 124° | 113km/h | 12584m | -10.8m/s | -52.4°C | 3.6% | 184.7hPa | 2.6V | 02:54:13 | 02:27:33 | 00:00:00 | |
| AA1-15 | 2026-09-03 12:59:11 | 52.42008 | 11.52868 | 125° | 113km/h | 12584m | -10.8m/s | -52.4°C | 0.4% | 184.7hPa | 2.6V | 02:54:43 | 02:27:33 | 00:00:00 | |
| DL1XH-west | 2026-09-03 12:59:11 | 52.42024 | 11.52829 | 124° | 113km/h | 12595m | -11.3m/s | -52.3°C | 0.3% | 184.4hPa | 2.6V | 02:54:43 | 02:27:32 | 00:00:00 | |
| DO2SHX-10 | 2026-09-03 12:59:10 | 52.42024 | 11.52829 | 125° | 111km/h | 12595m | -11.2m/s | -52.2°C | 3.5% | 184.4hPa | 2.5V | 00:00:00 | 02:27:32 | 00:00:00 | |
| AM1SDL-15 | 2026-09-03 12:59:09 | 52.42040 | 11.52791 | 125° | 110km/h | 12606m | -11.1m/s | -52.2°C | 3.5% | 184.0hPa | 2.5V | 00:00:00 | 02:27:31 | 00:00:00 | |
| TFSTFS | 2026-09-03 12:59:08 | 52.42040 | 11.52791 | 125° | 113km/h | 12606m | -11.2m/s | -52.2°C | 1.3% | 184.1hPa | 2.5V | 00:00:00 | 00:00:00 | 00:00:00 | |
| DL1XH-15 | 2026-09-03 12:59:07 | 52.42149 | 11.52526 | 122° | 108km/h | 12679m | -11.1m/s | -52.6°C | 3.7% | 181.9hPa | 2.5V | 02:54:22 | 02:27:24 | 00:00:00 | |
| SONCRA | 2026-09-03 12:59:07 | 52.42088 | 11.52677 | 124° | 110km/h | 12639m | -11.2m/s | -52.3°C | 1.4% | 183.2hPa | 2.6V | 00:00:00 | 00:00:00 | 00:00:00 | |
| DM0DOS-11 | 2026-09-03 12:59:06 | 52.42163 | 11.52489 | 121° | 108km/h | 12690m | -10.7m/s | -52.7°C | 3.6% | 181.7hPa | 2.6V | 02:54:23 | 02:27:23 | 00:00:00 | |
| DF8AY | 2026-09-03 12:59:05 | 52.42103 | 11.52640 | 124° | 110km/h | 12649m | -10.3m/s | -52.4°C | 0.3% | 182.8hPa | 2.6V | 02:54:43 | 02:27:27 | 00:00:00 | |
| HSKMA3-T | 2026-09-03 12:59:01 | 52.42163 | 11.52489 | 122° | 108km/h | 12690m | -10.7m/s | -52.7°C | 0.4% | 181.7hPa | 2.6V | 02:54:43 | 02:27:23 | 00:00:00 | |
| DL1XH1-15 | 2026-09-03 12:59:01 | 52.42178 | 11.52450 | 121° | 110km/h | 12701m | -11.1m/s | -52.7°C | 3.7% | 181.4hPa | 2.6V | 02:54:24 | 02:27:22 | 00:00:00 | |
| AA1-15 | 2026-09-03 12:59:00 | 52.42178 | 11.52450 | 122° | 110km/h | 12701m | -11.1m/s | -52.7°C | 0.5% | 181.4hPa | 2.6V | 02:54:43 | 02:27:22 | 00:00:00 | |
| DL1XH-west | 2026-09-03 12:58:59 | 52.42192 | 11.52412 | 122° | 110km/h | 12712m | -11.1m/s | -52.8°C | 0.4% | 181hPa | 2.6V | 02:54:43 | 02:27:21 | 00:00:00 | |
| DO2SHX-10 | 2026-09-03 12:58:58 | 52.42206 | 11.52373 | 121° | 110km/h | 12723m | -11.0m/s | -52.8°C | 3.7% | 180.7hPa | 2.5V | 00:00:00 | 02:27:20 | 00:00:00 | |
| DL1XH-15 | 2026-09-03 12:58:57 | 52.42287 | 11.52138 | 118° | 108km/h | 12788m | -11m/s | -53°C | 3.8% | 178.9hPa | 2.5V | 02:54:32 | 02:27:14 | 00:00:00 | |
| DM0DOS-11 | 2026-09-03 12:58:56 | 52.42300 | 11.52099 | 118° | 108km/h | 12799m | -11.6m/s | -52.9°C | 3.7% | 178.7hPa | 2.5V | 02:54:33 | 02:27:13 | 00:00:00 | |
| DL1XH1-15 | 2026-09-03 12:58:55 | 52.42313 | 11.52059 | 117° | 110km/h | 12810m | -11.4m/s | -52.8°C | 3.6% | 178.3hPa | 2.5V | 02:54:34 | 02:27:12 | 00:00:00 | |
| DF8AY | 2026-09-03 12:58:54 | 52.42274 | 11.52177 | 118° | 108km/h | 12777m | -11.5m/s | -53°C | 0.4% | 179.3hPa | 2.6V | 02:54:43 | 02:27:15 | 00:00:00 | |
| HSKMA3-T | 2026-09-03 12:58:50 | 52.42313 | 11.52059 | 118° | 110km/h | 12810m | -11.4m/s | -52.8°C | 0.3% | 178.3hPa | 2.5V | 02:54:43 | 02:27:12 | 00:00:00 | |
| AA1-15 | 2026-09-03 12:58:49 | 52.42326 | 11.52019 | 118° | 110km/h | 12821m | -11.2m/s | -52.8°C | 0.3% | 178hPa | 2.6V | 02:54:43 | 02:27:11 | 00:00:00 | |
| DL1XH-west | 2026-09-03 12:58:49 | 52.42339 | 11.51980 | 118° | 108km/h | 12831m | -10.1m/s | -52.8°C | 0.4% | 177.8hPa | 2.6V | 02:54:43 | 02:27:10 | 00:00:00 | |
| GOEST3-10 | 2026-09-03 12:58:48 | 52.42338 | 11.51980 | 119° | 110km/h | 12831m | -10.0m/s | -52.7°C | 3.7% | 177.7hPa | 2.6V | 02:54:00 | 02:27:10 | 00:00:00 | |
| DM0DOS-11 | 2026-09-03 12:58:46 | 52.42430 | 11.51701 | 118° | 110km/h | 12908m | -11.3m/s | -52.3°C | 3.5% | 175.6hPa | 2.6V | 02:54:43 | 02:27:03 | 00:00:00 | |
| DO2SHX-10 | 2026-09-03 12:58:46 | 52.42364 | 11.51900 | 118° | 110km/h | 12853m | -11.1m/s | -52.6°C | 3.6% | 177.1hPa | 2.6V | 02:54:00 | 02:27:08 | 00:00:00 | |
| DL1XH1-15 | 2026-09-03 12:58:45 | 52.42443 | 11.51661 | 118° | 111km/h | 12919m | -11.4m/s | -52.3°C | 3.5% | 175.3hPa | 2.6V | 02:54:44 | 02:27:02 | 00:00:00 | |
| DF8AY | 2026-09-03 12:58:44 | 52.42404 | 11.51781 | 118° | 110km/h | 12886m | -11.5m/s | -52.4°C | 0.3% | 176.3hPa | 2.5V | 02:54:43 | 02:27:05 | 00:00:00 | |
| HSKMA3-T | 2026-09-03 12:58:39 | 52.42457 | 11.51621 | 118° | 110km/h | 12930m | -11.6m/s | -52.4°C | 0.2% | 175.1hPa | 2.5V | 02:58:58 | 02:27:01 | 00:00:00 | |
| DL1XH-west | 2026-09-03 12:58:37 | 52.42483 | 11.51541 | 119° | 111km/h | 12952m | -12m/s | -52.4°C | 0.2% | 174.5hPa | 2.5V | 02:55:34 | 02:26:59 | 00:00:00 | |
| DL1XH-15 | 2026-09-03 12:58:37 | 52.42555 | 11.51344 | 122° | 111km/h | 13009m | -11.2m/s | -52.5°C | 3.5% | 173hPa | 2.5V | 02:54:52 | 02:26:54 | 00:00:00 | |
| DF8AY | 2026-09-03 12:58:33 | 52.42540 | 11.51383 | 123° | 111km/h | 12997m | -12.2m/s | -52.5°C | 0.2% | 173.3hPa | 2.5V | 02:55:34 | 02:26:55 | 00:00:00 | |
| DD8BA-10 | 2026-09-03 12:58:33 | 52.42540 | 11.51383 | 123° | 110km/h | 12997m | -12.2m/s | -52.4°C | 3.5% | 173.2hPa | 2.6V | 00:00:00 | 00:00:00 | 00:00:00 | |
| DF7ER-10 | 2026-09-03 12:58:32 | 52.42540 | 11.51383 | 124° | 111km/h | 12997m | -12.2m/s | -52.5°C | 1.3% | 173.3hPa | 2.6V | 02:55:00 | 00:00:00 | 00:00:00 | |
| DL1NUX | 2026-09-03 12:58:31 | 52.42585 | 11.51268 | 123° | 110km/h | 13031m | -10.9m/s | -52.6°C | 3.5% | 172.3hPa | 2.6V | 02:54:54 | 02:26:52 | 00:00:00 | |
| AA1-15 | 2026-09-03 12:58:29 | 52.42601 | 11.51230 | 125° | 110km/h | 13042m | -10.5m/s | -52.6°C | 0.2% | 172.1hPa | 2.6V | 02:55:34 | 02:26:51 | 00:00:00 | |
| DO2SHX-10 | 2026-09-03 12:58:28 | 52.42616 | 11.51193 | 125° | 110km/h | 13053m | -12.0m/s | -52.5°C | 3.5% | 171.8hPa | 2.5V | 02:54:00 | 02:26:50 | 00:00:00 | |
| DL1XH-15 | 2026-09-03 12:58:27 | 52.42708 | 11.50967 | 121° | 111km/h | 13121m | -11.9m/s | -52.5°C | 3.5% | 170hPa | 2.5V | 02:55:02 | 02:26:44 | 00:00:00 | |
| HSKMA3-T | 2026-09-03 12:58:26 | 52.42648 | 11.51118 | 124° | 108km/h | 13076m | -11.1m/s | -52.5°C | 0.3% | 171.2hPa | 2.5V | 02:58:58 | 02:26:48 | 00:00:00 | |
| DL1XH1-15 | 2026-09-03 12:58:25 | 52.42739 | 11.50889 | 122° | 111km/h | 13144m | -11.2m/s | -52.5°C | 3.4% | 169.4hPa | 2.6V | 02:55:04 | 02:26:42 | 00:00:00 | |
| DB0DAN | 2026-09-03 12:58:25 | 52.42663 | 11.51081 | 123° | 104km/h | 13087m | -11.7m/s | -52.5°C | 1.2% | 170.92hPa | 2.6V | 00:00:00 | 00:00:00 | 00:00:00 | |
| DF8AY | 2026-09-03 12:58:24 | 52.42693 | 11.51005 | 123° | 110km/h | 13109m | -11.4m/s | -52.6°C | 0.2% | 170.3hPa | 2.6V | 02:55:34 | 02:26:45 | 00:00:00 | |
| AA1-15 | 2026-09-03 12:58:18 | 52.42770 | 11.50811 | 124° | 113km/h | 13166m | -10.6m/s | -52.4°C | 0.2% | 168.8hPa | 2.5V | 02:55:34 | 02:26:40 | 00:00:00 | |
| DL1XH-west | 2026-09-03 12:58:15 | 52.42819 | 11.50695 | 125° | 113km/h | 13198m | -11.5m/s | -52.6°C | 0.2% | 168hPa | 2.6V | 02:55:34 | 02:26:37 | 00:00:00 | |
| DF8AY-15 | 2026-09-03 12:58:15 | 52.42819 | 11.50695 | 126° | 111km/h | 13198m | -11.4m/s | -52.6°C | 3.5% | 168.0hPa | 2.6V | 02:55:00 | 02:26:37 | 00:00:00 | |
| DM0DOS-11 | 2026-09-03 12:58:13 | 52.42884 | 11.50541 | 122° | 113km/h | 13244m | -11.3m/s | -52.7°C | 3.6% | 166.8hPa | 2.5V | 02:55:13 | 02:26:33 | 00:00:00 | |
| DF8AY | 2026-09-03 12:58:12 | 52.42884 | 11.50541 | 123° | 113km/h | 13244m | -11.3m/s | -52.7°C | 0.3% | 166.8hPa | 2.5V | 02:55:34 | 02:26:33 | 00:00:00 | |
| DF7ER-10 | 2026-09-03 12:58:12 | 52.42868 | 11.50580 | 125° | 113km/h | 13233m | -11.3m/s | -52.8°C | 1.3% | 167.2hPa | 2.6V | 02:55:00 | 00:00:00 | 00:00:00 | |
| DB0DAN | 2026-09-03 12:58:10 | 52.42899 | 11.50501 | 122° | 108km/h | 13255m | -11.6m/s | -52.7°C | 1.3% | 166.56hPa | 2.6V | 00:00:00 | 00:00:00 | 00:00:00 | |
| AA1-15 | 2026-09-03 12:58:08 | 52.42944 | 11.50380 | 120° | 113km/h | 13288m | -10.9m/s | -52.7°C | 0.2% | 165.7hPa | 2.5V | 02:55:34 | 02:26:29 | 00:00:00 | |
| DL1XH-15 | 2026-09-03 12:58:07 | 52.43015 | 11.50182 | 121° | 110km/h | 13344m | -11.7m/s | -52.8°C | 3.5% | 164.2hPa | 2.5V | 02:55:22 | 02:26:24 | 00:00:00 | |
| DL1XH-west | 2026-09-03 12:58:05 | 52.42972 | 11.50299 | 120° | 111km/h | 13311m | -11.2m/s | -52.8°C | 0.2% | 165.1hPa | 2.6V | 02:55:34 | 02:26:27 | 00:00:00 | |
| HSKMA3-T | 2026-09-03 12:58:02 | 52.43015 | 11.50182 | 121° | 110km/h | 13344m | -11.7m/s | -52.8°C | 0.2% | 164.2hPa | 2.5V | 02:58:58 | 02:26:24 | 00:00:00 | |
| DF8AY | 2026-09-03 12:58:01 | 52.43029 | 11.50144 | 122° | 108km/h | 13356m | -11.8m/s | -52.9°C | 0.2% | 163.9hPa | 2.5V | 02:55:34 | 02:26:23 | 00:00:00 | |
| DL1NUX | 2026-09-03 12:58:01 | 52.43058 | 11.50068 | 121° | 108km/h | 13378m | -10.9m/s | -53°C | 3.6% | 163.4hPa | 2.7V | 02:55:25 | 02:26:21 | 00:00:00 | |
| DO2SHX-10 | 2026-09-03 12:58:01 | 52.43029 | 11.50144 | 122° | 108km/h | 13356m | -11.8m/s | -52.8°C | 3.6% | 163.9hPa | 2.5V | 02:55:00 | 02:26:23 | 00:00:00 | |
| DB0UT-7 | 2026-09-03 12:58:00 | 52.43043 | 11.50106 | 122° | 97km/h | 13367m | -10.8m/s | -52.9°C | 3.6% | 163.6hPa | 2.5V | 00:00:00 | 00:00:00 | 00:00:00 | |
| TFSTFS | 2026-09-03 12:57:59 | 52.43043 | 11.50106 | 122° | 108km/h | 13367m | -10.9m/s | -52.9°C | 1.3% | 163.6hPa | 2.5V | 02:55:00 | 00:00:00 | 00:00:00 | |
| DO2SHX-10 | 2026-09-03 12:57:58 | 52.43072 | 11.50030 | 122° | 108km/h | 13388m | -10.9m/s | -52.9°C | 3.6% | 163.1hPa | 2.5V | 00:00:00 | 02:26:20 | 00:00:00 | |
| DL1XH-15 | 2026-09-03 12:57:57 | 52.43159 | 11.49809 | 124° | 104km/h | 13457m | -11.3m/s | -52.4°C | 3.5% | 161.4hPa | 2.5V | 02:55:32 | 02:26:14 | 00:00:00 | |
| AA1-15 | 2026-09-03 12:57:57 | 52.43100 | 11.49954 | 122° | 106km/h | 13411m | -11.7m/s | -52.6°C | 0.2% | 162.6hPa | 2.5V | 02:55:34 | 02:26:18 | 00:00:00 | |
| DL1XH-west | 2026-09-03 12:57:54 | 52.43129 | 11.49880 | 124° | 104km/h | 13434m | -11.9m/s | -52.5°C | 0.3% | 162hPa | 2.6V | 02:55:34 | 02:26:16 | 00:00:00 | |
| EDDB2-12 | 2026-09-03 12:57:54 | 52.43129 | 11.49880 | 123° | 104km/h | 13434m | -11.9m/s | -52.5°C | 1.2% | 162.0hPa | 2.7V | 00:00:00 | 00:00:00 | 00:00:00 | |
| DL1XH1-15 | 2026-09-03 12:57:53 | 52.43188 | 11.49738 | 124° | 102km/h | 13480m | -12.2m/s | -52.4°C | 3.4% | 160.8hPa | 2.7V | 02:55:34 | 02:26:12 | 00:00:00 | |
| DF8AY | 2026-09-03 12:57:50 | 52.43188 | 11.49738 | 125° | 102km/h | 13480m | -12.3m/s | -52.4°C | 0.2% | 160.8hPa | 2.7V | 02:55:34 | 02:26:12 | 00:00:00 | |
| GOEST3-10 | 2026-09-03 12:57:50 | 52.43188 | 11.49738 | 125° | 97km/h | 13480m | -12.2m/s | -52.3°C | 3.4% | 160.8hPa | 2.7V | 02:55:00 | 02:26:12 | 00:00:00 | |
| DO2SHX-10 | 2026-09-03 12:57:49 | 52.43203 | 11.49704 | 126° | 97km/h | 13492m | -11.5m/s | -52.3°C | 3.4% | 160.5hPa | 2.7V | 00:00:00 | 02:26:11 | 00:00:00 | |
| 13BRC | 2026-09-03 12:57:48 | 52.43203 | 11.49704 | 126° | 99km/h | 13492m | -11.5m/s | -52.4°C | 1.2% | 160.6hPa | 2.7V | 00:00:00 | 00:00:00 | 00:00:00 | |
| DL1XH-15 | 2026-09-03 12:57:47 | 52.43301 | 11.49487 | 127° | 88km/h | 13575m | -12.3m/s | -52.7°C | 3.5% | 158.5hPa | 2.7V | 02:55:42 | 02:26:04 | 00:00:00 | |
| HSKMA3-T | 2026-09-03 12:57:47 | 52.43232 | 11.49639 | 126° | 97km/h | 13515m | -11.9m/s | -52.4°C | 0.2% | 160hPa | 2.5V | 02:58:58 | 02:26:09 | 00:00:00 | |
| AA1-15 | 2026-09-03 12:57:46 | 52.43260 | 11.49576 | 126° | 93km/h | 13538m | -12.1m/s | -52.5°C | 0.2% | 159.4hPa | 2.5V | 02:56:25 | 02:26:07 | 00:00:00 | |
| DM0DOS-11 | 2026-09-03 12:57:45 | 52.43315 | 11.49458 | 127° | 89km/h | 13586m | -12.4m/s | -52.8°C | 3.5% | 158.2hPa | 2.5V | 02:55:43 | 02:26:03 | 00:00:00 | |
| DL1XH-west | 2026-09-03 12:57:44 | 52.43273 | 11.49545 | 127° | 91km/h | 13550m | -12.3m/s | -52.6°C | 0.2% | 159.2hPa | 2.7V | 02:56:25 | 02:26:06 | 00:00:00 | |
| DD8BA-10 | 2026-09-03 12:57:43 | 52.43287 | 11.49516 | 129° | 91km/h | 13562m | -12.2m/s | -52.6°C | 3.5% | 158.7hPa | 2.6V | 00:00:00 | 00:00:00 | 00:00:00 | |
| DB0DAN | 2026-09-03 12:57:40 | 52.43328 | 11.49429 | 127° | 86km/h | 13599m | -12.3m/s | -52.9°C | 1.3% | 157.9hPa | 2.6V | 00:00:00 | 00:00:00 | 00:00:00 | |
| DF8AY | 2026-09-03 12:57:40 | 52.43342 | 11.49399 | 126° | 91km/h | 13611m | -11.8m/s | -52.9°C | 0.3% | 157.6hPa | 2.7V | 02:56:25 | 02:26:01 | 00:00:00 | |
| GOEST3-10 | 2026-09-03 12:57:39 | 52.43342 | 11.49399 | 127° | 91km/h | 13611m | -11.8m/s | -52.9°C | 3.6% | 157.6hPa | 2.7V | 00:00:00 | 02:26:01 | 00:00:00 | |
| DL1XH-15 | 2026-09-03 12:57:37 | 52.43435 | 11.49176 | 123° | 95km/h | 13696m | -12.6m/s | -53.1°C | 3.5% | 155.5hPa | 2.7V | 02:55:52 | 02:25:54 | 00:00:00 | |
| DO2SHX-10 | 2026-09-03 12:57:37 | 52.43369 | 11.49338 | 126° | 93km/h | 13635m | -12.1m/s | -53.0°C | 3.6% | 157.0hPa | 2.6V | 00:00:00 | 02:25:59 | 00:00:00 | |
| DM0DOS-11 | 2026-09-03 12:57:36 | 52.43447 | 11.49143 | 123° | 95km/h | 13708m | -12.4m/s | -53.2°C | 3.6% | 155.2hPa | 2.6V | 02:55:53 | 02:25:53 | 00:00:00 | |
| AA1-15 | 2026-09-03 12:57:35 | 52.43396 | 11.49274 | 124° | 93km/h | 13659m | -12.2m/s | -53.1°C | 0.3% | 156.5hPa | 2.5V | 02:56:25 | 02:25:57 | 00:00:00 | |
| DL1XH-west | 2026-09-03 12:57:33 | 52.43422 | 11.49209 | 122° | 95km/h | 13683m | -12.6m/s | -53.1°C | 0.3% | 155.9hPa | 2.7V | 02:56:25 | 02:25:55 | 00:00:00 | |
| HSKMA3-T | 2026-09-03 12:57:29 | 52.43474 | 11.49077 | 123° | 97km/h | 13733m | -12.8m/s | -53.3°C | 0.2% | 154.7hPa | 2.5V | 02:58:58 | 02:25:51 | 00:00:00 | |
| GOEST3-10 | 2026-09-03 12:57:29 | 52.43474 | 11.49077 | 124° | 95km/h | 13733m | -12.7m/s | -53.2°C | 3.6% | 154.6hPa | 2.7V | 00:00:00 | 02:25:51 | 00:00:00 | |
| DO2SHX-10 | 2026-09-03 12:57:28 | 52.43487 | 11.49044 | 125° | 95km/h | 13745m | -12.8m/s | -53.2°C | 3.6% | 154.4hPa | 2.7V | 00:00:00 | 02:25:50 | 00:00:00 | |
| DL1XH-15 | 2026-09-03 12:57:27 | 52.43566 | 11.48856 | 123° | 86km/h | 13819m | -12.7m/s | -53.5°C | 3.6% | 152.7hPa | 2.7V | 02:56:02 | 02:25:44 | 00:00:00 | |
| DM0DOS-11 | 2026-09-03 12:57:26 | 52.43578 | 11.48827 | 123° | 84km/h | 13831m | -12.3m/s | -53.6°C | 3.6% | 152.4hPa | 2.7V | 02:56:03 | 02:25:43 | 00:00:00 | |
| DL1XH1-15 | 2026-09-03 12:57:25 | 52.43589 | 11.48798 | 122° | 82km/h | 13843m | -12.5m/s | -53.6°C | 3.6% | 152.1hPa | 2.7V | 02:56:04 | 02:25:42 | 00:00:00 | |
| DB0DAN | 2026-09-03 12:57:25 | 52.43528 | 11.48948 | 124° | 88km/h | 13782m | -12.4m/s | -53.3°C | 1.2% | 153.52hPa | 2.5V | 00:00:00 | 00:00:00 | 00:00:00 | |
| AA1-15 | 2026-09-03 12:57:25 | 52.43541 | 11.48917 | 125° | 91km/h | 13794m | -12.7m/s | -53.4°C | 0.2% | 153.2hPa | 2.5V | 02:56:25 | 02:25:46 | 00:00:00 | |
| DL1XH-west | 2026-09-03 12:57:22 | 52.43566 | 11.48856 | 123° | 86km/h | 13819m | -12.7m/s | -53.5°C | 0.2% | 152.7hPa | 2.7V | 02:56:25 | 02:25:44 | 00:00:00 | |
| HSKMA3-T | 2026-09-03 12:57:18 | 52.43612 | 11.48741 | 121° | 80km/h | 13867m | -12.2m/s | -53.7°C | 0.2% | 151.5hPa | 2.5V | 02:58:58 | 02:25:40 | 00:00:00 | |
| NBG1-10 | 2026-09-03 12:57:18 | 52.43612 | 11.48741 | 121° | 82km/h | 13867m | -12.1m/s | -53.6°C | 3.6% | 151.4hPa | 2.6V | 00:00:00 | 02:25:40 | 00:00:00 | |
| DL1XH-15 | 2026-09-03 12:57:17 | 52.43669 | 11.48572 | 117° | 77km/h | 13940m | -12.4m/s | -53.8°C | 3.7% | 149.8hPa | 2.6V | 02:56:12 | 02:25:34 | 00:00:00 | |
| DL1NUX | 2026-09-03 12:57:16 | 52.43678 | 11.48544 | 117° | 78km/h | 13952m | -12.8m/s | -53.8°C | 3.7% | 149.6hPa | 2.7V | 02:56:13 | 02:25:33 | 00:00:00 | |
| DL1XH1-15 | 2026-09-03 12:57:15 | 52.43687 | 11.48515 | 117° | 78km/h | 13964m | -12m/s | -53.9°C | 3.7% | 149.3hPa | 2.7V | 02:56:14 | 02:25:32 | 00:00:00 | |
| AA1-15 | 2026-09-03 12:57:15 | 52.43651 | 11.48629 | 118° | 78km/h | 13915m | -12.5m/s | -53.7°C | 0.2% | 150.4hPa | 2.5V | 02:56:25 | 02:25:36 | 00:00:00 | |
| DL1XH-west | 2026-09-03 12:57:11 | 52.43678 | 11.48544 | 118° | 78km/h | 13952m | -12.8m/s | -53.8°C | 0.3% | 149.6hPa | 2.7V | 02:56:25 | 02:25:33 | 00:00:00 | |
| DF8AY | 2026-09-03 12:57:07 | 52.43715 | 11.48428 | 117° | 80km/h | 14003m | -13.1m/s | -53.9°C | 0.2% | 148.3hPa | 2.6V | 02:56:25 | 02:25:29 | 00:00:00 | |
| DO2SHX-10 | 2026-09-03 12:57:07 | 52.43715 | 11.48428 | 117° | 82km/h | 14003m | -13.0m/s | -53.9°C | 3.7% | 148.3hPa | 2.6V | 02:56:00 | 02:25:29 | 00:00:00 | |
| DL1NUX | 2026-09-03 12:57:06 | 52.43776 | 11.48237 | 118° | 93km/h | 14080m | -12.8m/s | -54°C | 3.7% | 146.6hPa | 2.6V | 02:56:23 | 02:25:23 | 00:00:00 | |
| DL1XH1-15 | 2026-09-03 12:57:05 | 52.43788 | 11.48203 | 119° | 95km/h | 14092m | -12.5m/s | -54°C | 3.7% | 146.4hPa | 2.7V | 02:56:24 | 02:25:22 | 00:00:00 | |
| AA1-15 | 2026-09-03 12:57:03 | 52.43755 | 11.48303 | 118° | 89km/h | 14054m | -13.1m/s | -53.9°C | 0.2% | 147.2hPa | 2.5V | 02:56:25 | 02:25:25 | 00:00:00 | |
| DF8AY | 2026-09-03 12:57:02 | 52.43825 | 11.48101 | 121° | 97km/h | 14130m | -12.5m/s | -54°C | 0.2% | 145.5hPa | 2.6V | 02:57:16 | 02:25:19 | 00:00:00 | |
| DL1XH-west | 2026-09-03 12:57:01 | 52.43788 | 11.48203 | 119° | 95km/h | 14092m | -12.5m/s | -54°C | 0.2% | 146.4hPa | 2.7V | 02:56:25 | 02:25:22 | 00:00:00 | |
| DB0UT-7 | 2026-09-03 12:57:00 | 52.43788 | 11.48203 | 120° | 86km/h | 14092m | -12.5m/s | -53.9°C | 3.7% | 146.3hPa | 2.7V | 02:56:00 | 00:00:00 | 00:00:00 | |
| DO2SHX-10 | 2026-09-03 12:56:58 | 52.43812 | 11.48135 | 122° | 95km/h | 14117m | -12.5m/s | -53.9°C | 3.6% | 145.7hPa | 2.7V | 02:56:00 | 02:25:20 | 00:00:00 | |
| DM0DOS-11 | 2026-09-03 12:56:56 | 52.43901 | 11.47907 | 123° | 89km/h | 14204m | -13.1m/s | -53.7°C | 3.7% | 143.8hPa | 2.6V | 02:56:33 | 02:25:13 | 00:00:00 | |
| DL1XH1-15 | 2026-09-03 12:56:55 | 52.43914 | 11.47876 | 122° | 86km/h | 14217m | -12.6m/s | -53.5°C | 3.6% | 143.5hPa | 2.6V | 02:56:34 | 02:25:12 | 00:00:00 | |
| AA1-15 | 2026-09-03 12:56:53 | 52.43889 | 11.47938 | 123° | 91km/h | 14191m | -12.8m/s | -53.8°C | 0.3% | 144.1hPa | 2.5V | 02:57:16 | 02:25:14 | 00:00:00 | |
| DL1XH-west | 2026-09-03 12:56:50 | 52.43914 | 11.47876 | 123° | 86km/h | 14217m | -12.6m/s | -53.5°C | 0.2% | 143.5hPa | 2.6V | 02:57:16 | 02:25:12 | 00:00:00 | |
| DL1NUX | 2026-09-03 12:56:49 | 52.43977 | 11.47696 | 117° | 84km/h | 14294m | -12.8m/s | -53.4°C | 3.5% | 141.8hPa | 2.7V | 02:56:40 | 02:25:06 | 00:00:00 | |
| DF8AY | 2026-09-03 12:56:46 | 52.43958 | 11.47757 | 120° | 82km/h | 14268m | -12.8m/s | -53.3°C | 0.2% | 142.4hPa | 2.5V | 02:57:16 | 02:25:08 | 00:00:00 | |
| DM0DOS-11 | 2026-09-03 12:56:46 | 52.44007 | 11.47606 | 118° | 84km/h | 14331m | -13.1m/s | -53.7°C | 3.6% | 141hPa | 2.6V | 02:56:43 | 02:25:03 | 00:00:00 | |
| DO2SHX-10 | 2026-09-03 12:56:46 | 52.43958 | 11.47757 | 120° | 84km/h | 14268m | -12.7m/s | -53.3°C | 3.5% | 142.4hPa | 2.6V | 00:00:00 | 02:25:08 | 00:00:00 | |
| DL1XH1-15 | 2026-09-03 12:56:45 | 52.44017 | 11.47576 | 119° | 82km/h | 14344m | -12.6m/s | -53.8°C | 3.7% | 140.7hPa | 2.6V | 02:56:44 | 02:25:02 | 00:00:00 | |
| AA1-15 | 2026-09-03 12:56:41 | 52.44007 | 11.47606 | 119° | 84km/h | 14331m | -13.1m/s | -53.7°C | 0.2% | 141hPa | 2.6V | 02:57:16 | 02:25:03 | 00:00:00 | |
| SMARD9-10 | 2026-09-03 12:56:41 | 52.43997 | 11.47636 | 119° | 82km/h | 14319m | -12.7m/s | -53.6°C | 1.1% | 141.2hPa | 2.6V | 00:00:00 | 00:00:00 | 00:00:00 | |
| DB0DAN | 2026-09-03 12:56:40 | 52.44017 | 11.47576 | 119° | 78km/h | 14344m | -12.6m/s | -53.8°C | 1.2% | 140.69hPa | 2.6V | 00:00:00 | 00:00:00 | 00:00:00 | |
| DL1XH-west | 2026-09-03 12:56:40 | 52.44027 | 11.47547 | 121° | 80km/h | 14357m | -12.7m/s | -53.8°C | 0.2% | 140.4hPa | 2.6V | 02:57:16 | 02:25:01 | 00:00:00 | |
| GOEST3-10 | 2026-09-03 12:56:39 | 52.44027 | 11.47547 | 121° | 78km/h | 14357m | -12.7m/s | -53.7°C | 3.6% | 140.4hPa | 2.7V | 00:00:00 | 00:00:00 | 00:00:00 | |
| DL1XH-15 | 2026-09-03 12:56:38 | 52.44099 | 11.47353 | 120° | 77km/h | 14446m | -12.7m/s | -53.3°C | 3.4% | 138.5hPa | 2.7V | 02:56:52 | 02:24:54 | 00:00:00 | |
| DF8AY | 2026-09-03 12:56:36 | 52.44058 | 11.47463 | 121° | 78km/h | 14395m | -13.5m/s | -53.6°C | 0.1% | 139.6hPa | 2.7V | 02:57:16 | 02:24:58 | 00:00:00 | |
| EDDB2-11 | 2026-09-03 12:56:36 | 52.44069 | 11.47435 | 120° | 77km/h | 14408m | -13.0m/s | -53.5°C | 1.1% | 139.3hPa | 2.6V | 00:00:00 | 00:00:00 | 00:00:00 | |
| DL1XH1-15 | 2026-09-03 12:56:35 | 52.44118 | 11.47299 | 120° | 75km/h | 14472m | -13.1m/s | -53.2°C | 3.5% | 137.9hPa | 2.6V | 02:56:54 | 02:24:52 | 00:00:00 | |
| AA1-15 | 2026-09-03 12:56:31 | 52.44109 | 11.47326 | 121° | 75km/h | 14459m | -13.2m/s | -53.2°C | 0.1% | 138.3hPa | 2.7V | 02:57:16 | 02:24:53 | 00:00:00 | |
| DL1XH-west | 2026-09-03 12:56:29 | 52.44128 | 11.47272 | 122° | 75km/h | 14485m | -13.7m/s | -53.2°C | 0.1% | 137.7hPa | 2.6V | 02:57:16 | 02:24:51 | 00:00:00 | |
| DF8AY | 2026-09-03 12:56:26 | 52.44157 | 11.47191 | 117° | 75km/h | 14525m | -13.4m/s | -53.2°C | 0.1% | 136.8hPa | 2.7V | 02:57:16 | 02:24:48 | 00:00:00 | |
| DL1XH1-15 | 2026-09-03 12:56:25 | 52.44204 | 11.47018 | 110° | 80km/h | 14604m | -13.1m/s | -53.6°C | 3.5% | 135.1hPa | 2.7V | 02:57:04 | 02:24:42 | 00:00:00 | |
| DB0DAN | 2026-09-03 12:56:25 | 52.44165 | 11.47163 | 117° | 73km/h | 14538m | -13.4m/s | -53.2°C | 1.1% | 136.53hPa | 2.7V | 00:00:00 | 00:00:00 | 00:00:00 | |
| AA1-15 | 2026-09-03 12:56:22 | 52.44197 | 11.47048 | 112° | 78km/h | 14591m | -13.1m/s | -53.5°C | 0.1% | 135.4hPa | 2.7V | 02:57:16 | 02:24:43 | 00:00:00 | |
| DO2SHX-10 | 2026-09-03 12:56:22 | 52.44190 | 11.47077 | 113° | 78km/h | 14578m | -13.3m/s | -53.4°C | 3.5% | 135.6hPa | 2.7V | 02:57:00 | 02:24:44 | 00:00:00 | |
| DL1NUX | 2026-09-03 12:56:21 | 52.44212 | 11.46986 | 110° | 82km/h | 14617m | -13.6m/s | -53.7°C | 3.6% | 134.6hPa | 2.6V | 02:57:05 | 02:24:41 | 00:00:00 | |
| DL1XH-west | 2026-09-03 12:56:18 | 52.44219 | 11.46955 | 111° | 84km/h | 14630m | -13.6m/s | -53.8°C | 0.2% | 134.6hPa | 2.6V | 02:57:16 | 02:24:40 | 00:00:00 | |
| DF8AY | 2026-09-03 12:56:15 | 52.44242 | 11.46857 | 112° | 86km/h | 14670m | -13m/s | -54°C | 0.2% | 133.8hPa | 2.7V | 02:57:16 | 02:24:37 | 00:00:00 | |
| AA1-15 | 2026-09-03 12:56:11 | 52.44278 | 11.46724 | 114° | 89km/h | 14721m | -12.8m/s | -54°C | 0.2% | 132.8hPa | 2.7V | 02:57:16 | 02:24:33 | 00:00:00 | |
| DL1NUX | 2026-09-03 12:56:11 | 52.44329 | 11.46559 | 118° | 89km/h | 14787m | -13.5m/s | -53.8°C | 3.7% | 131.4hPa | 2.6V | 02:57:18 | 02:24:28 | 00:00:00 | |
| DL1XH-west | 2026-09-03 12:56:08 | 52.44329 | 11.46559 | 118° | 89km/h | 14787m | -13.5m/s | -53.8°C | 0.2% | 131.4hPa | 2.6V | 02:58:07 | 02:24:28 | 00:00:00 | |
| DF8AY | 2026-09-03 12:56:05 | 52.44340 | 11.46527 | 119° | 88km/h | 14800m | -13m/s | -53.8°C | 0.3% | 131.1hPa | 2.7V | 02:58:07 | 02:24:27 | 00:00:00 | |
| AA1-15 | 2026-09-03 12:56:00 | 52.44389 | 11.46375 | 116° | 82km/h | 14865m | -13.7m/s | -53.8°C | 0.3% | 129.8hPa | 2.6V | 02:58:07 | 02:24:22 | 00:00:00 | |
| DL1XH-west | 2026-09-03 12:55:55 | 52.44432 | 11.46222 | 113° | 84km/h | 14931m | -13.7m/s | -53.7°C | 0.2% | 128.4hPa | 2.6V | 02:58:07 | 02:24:17 | 00:00:00 | |
| DF8AY | 2026-09-03 12:55:54 | 52.44440 | 11.46190 | 113° | 84km/h | 14943m | -13m/s | -53.8°C | 0.2% | 128.2hPa | 2.6V | 02:58:07 | 02:24:16 | 00:00:00 | |
| AA1-15 | 2026-09-03 12:55:50 | 52.44479 | 11.46026 | 111° | 88km/h | 15006m | -12.6m/s | -54°C | 0.3% | 126.9hPa | 2.6V | 02:58:07 | 02:24:11 | 00:00:00 | |
| GOEST3-10 | 2026-09-03 12:55:49 | 52.44479 | 11.46025 | 111° | 88km/h | 15006m | -12.6m/s | -54.0°C | 3.8% | 126.9hPa | 2.5V | 00:00:00 | 02:24:11 | 00:00:00 | |
| DL1NUX | 2026-09-03 12:55:48 | 52.44527 | 11.45825 | 110° | 84km/h | 15084m | -14.1m/s | -53.3°C | 3.5% | 125.4hPa | 2.5V | 02:57:41 | 02:24:05 | 00:00:00 | |
| BIOWL1-15 | 2026-09-03 12:55:47 | 52.44495 | 11.45958 | 112° | 88km/h | 15031m | -12.9m/s | 0°C | 0% | 0hPa | 2.7V | 18:12:15 | 02:24:09 | 00:00:00 | |
| DL1XH-15 | 2026-09-03 12:55:46 | 52.44542 | 11.45761 | 111° | 80km/h | 15111m | -13.8m/s | -53.3°C | 3.5% | 124.9hPa | 2.6V | 02:57:43 | 02:24:03 | 00:00:00 | |
| DL1XH-west | 2026-09-03 12:55:45 | 52.44511 | 11.45891 | 111° | 88km/h | 15057m | -13.8m/s | -53.4°C | 0.2% | 126hPa | 2.7V | 02:58:07 | 02:24:07 | 00:00:00 | |
| DF8AY | 2026-09-03 12:55:44 | 52.44519 | 11.45857 | 111° | 86km/h | 15070m | -13.7m/s | -53.4°C | 0.2% | 125.7hPa | 2.7V | 02:58:07 | 02:24:06 | 00:00:00 | |
| GOEST3-10 | 2026-09-03 12:55:44 | 52.44519 | 11.45857 | 111° | 82km/h | 15071m | -13.6m/s | -53.3°C | 3.6% | 125.7hPa | 2.7V | 02:57:00 | 00:00:00 | 00:00:00 | |
| DD8BA-10 | 2026-09-03 12:55:43 | 52.44527 | 11.45825 | 111° | 80km/h | 15084m | -14.1m/s | -53.3°C | 3.5% | 125.4hPa | 2.7V | 00:00:00 | 00:00:00 | 00:00:00 | |
| DB0DAN | 2026-09-03 12:55:40 | 52.44549 | 11.45730 | 112° | 77km/h | 15125m | -13.4m/s | -53.3°C | 1.1% | 124.71hPa | 2.7V | 00:00:00 | 00:00:00 | 00:00:00 | |
| AA1-15 | 2026-09-03 12:55:39 | 52.44557 | 11.45699 | 112° | 80km/h | 15138m | -12.9m/s | -53.3°C | 0.2% | 124.4hPa | 2.7V | 02:58:07 | 02:24:01 | 00:00:00 | |
| HTAHTA | 2026-09-03 12:55:39 | 52.44573 | 11.45637 | 112° | 80km/h | 15163m | -12.8m/s | -53.2°C | 1.1% | 123.9hPa | 2.6V | 00:00:00 | 00:00:00 | 00:00:00 | |
| DO2SHX-10 | 2026-09-03 12:55:37 | 52.44573 | 11.45637 | 113° | 80km/h | 15164m | -12.8m/s | -53.1°C | 3.5% | 123.9hPa | 2.6V | 02:57:00 | 02:23:59 | 00:00:00 | |
| DL4BBY-15 | 2026-09-03 12:55:36 | 52.44580 | 11.45606 | 115° | 75km/h | 15177m | -13.5m/s | -51.6°C | 0% | 0hPa | 2.6V | 00:00:00 | 00:00:00 | 00:00:00 | |
| DL1XH1-15 | 2026-09-03 12:55:35 | 52.44629 | 11.45426 | 112° | 77km/h | 15256m | -13.9m/s | -53.3°C | 3.4% | 122.2hPa | 2.6V | 02:57:54 | 02:23:52 | 00:00:00 | |
| DL1XH-west | 2026-09-03 12:55:35 | 52.44589 | 11.45576 | 114° | 78km/h | 15190m | -13.1m/s | -53.2°C | 0.2% | 123.4hPa | 2.7V | 02:58:07 | 02:23:57 | 00:00:00 | |
| DF8AY | 2026-09-03 12:55:35 | 52.44597 | 11.45546 | 114° | 80km/h | 15203m | -13.5m/s | -53.3°C | 0.1% | 123.1hPa | 2.7V | 02:58:07 | 02:23:56 | 00:00:00 | |
| EDDB2-11 | 2026-09-03 12:55:34 | 52.44605 | 11.45516 | 113° | 78km/h | 15216m | -13.1m/s | -53.3°C | 1.1% | 122.9hPa | 2.6V | 00:00:00 | 00:00:00 | 00:00:00 | |
| DM0DOS-11 | 2026-09-03 12:55:33 | 52.44621 | 11.45456 | 112° | 77km/h | 15242m | -12.8m/s | -53.3°C | 3.5% | 122.4hPa | 2.6V | 02:57:53 | 02:23:53 | 00:00:00 | |
| AA1-15 | 2026-09-03 12:55:28 | 52.44643 | 11.45368 | 113° | 75km/h | 15282m | -13.5m/s | -53.2°C | 0.2% | 121.7hPa | 2.7V | 02:58:07 | 02:23:50 | 00:00:00 | |
| DL1NUX | 2026-09-03 12:55:28 | 52.44678 | 11.45226 | 109° | 71km/h | 15348m | -13.4m/s | -53.2°C | 3.4% | 120.4hPa | 2.6V | 02:58:01 | 02:23:45 | 00:00:00 | |
| S3001 | 2026-09-03 12:55:28 | 52.44651 | 11.45339 | 112° | 73km/h | 15295m | -12.8m/s | -53.2°C | 1.1% | 121.4hPa | 2.7V | 00:00:00 | 00:00:00 | 00:00:00 | |
| SONDE2-11 | 2026-09-03 12:55:27 | 52.44651 | 11.45339 | 112° | 73km/h | 15295m | -12.8m/s | -53.2°C | 1.1% | 121.4hPa | 2.7V | 00:00:00 | 00:00:00 | 00:00:00 | |
| DL1XH-15 | 2026-09-03 12:55:26 | 52.44689 | 11.45169 | 106° | 73km/h | 15374m | -14m/s | -53.3°C | 3.4% | 119.9hPa | 2.7V | 02:58:03 | 02:23:43 | 00:00:00 | |
| DB0DAN | 2026-09-03 12:55:25 | 52.44665 | 11.45282 | 111° | 71km/h | 15321m | -13.4m/s | -53.2°C | 1.1% | 120.91hPa | 2.6V | 00:00:00 | 00:00:00 | 00:00:00 | |
| DL1XH-west | 2026-09-03 12:55:24 | 52.44671 | 11.45254 | 111° | 73km/h | 15334m | -13.6m/s | -53.3°C | 0% | 120.7hPa | 2.6V | 02:58:07 | 02:23:46 | 00:00:00 | |
| DF8AY | 2026-09-03 12:55:23 | 52.44678 | 11.45226 | 110° | 71km/h | 15348m | -13.4m/s | -53.2°C | 0.1% | 120.4hPa | 2.6V | 02:58:07 | 02:23:45 | 00:00:00 | |
| DD8BA-10 | 2026-09-03 12:55:23 | 52.44678 | 11.45225 | 110° | 75km/h | 15348m | -13.3m/s | -53.2°C | 3.4% | 120.3hPa | 2.6V | 02:58:00 | 00:00:00 | 00:00:00 | |
| DO2SHX-10 | 2026-09-03 12:55:22 | 52.44684 | 11.45197 | 108° | 73km/h | 15361m | -13.3m/s | -53.2°C | 3.4% | 120.1hPa | 2.7V | 00:00:00 | 02:23:44 | 00:00:00 | |
| DL1XH1-15 | 2026-09-03 12:55:21 | 52.44695 | 11.45140 | 106° | 73km/h | 15387m | -13.6m/s | -53.5°C | 3.5% | 119.7hPa | 2.7V | 02:58:04 | 02:23:42 | 00:00:00 | |
| DO2SHX-10 | 2026-09-03 12:55:19 | 52.44699 | 11.45112 | 106° | 75km/h | 15401m | -12.9m/s | -53.5°C | 3.5% | 119.4hPa | 2.6V | 02:58:00 | 02:23:41 | 00:00:00 | |
| DL1NUX | 2026-09-03 12:55:18 | 52.44727 | 11.44930 | 102° | 75km/h | 15482m | -14m/s | -54.2°C | 3.6% | 117.9hPa | 2.6V | 02:58:11 | 02:23:35 | 00:00:00 | |
| AA1-15 | 2026-09-03 12:55:17 | 52.44709 | 11.45052 | 103° | 75km/h | 15427m | -13.9m/s | -53.7°C | 0.1% | 118.9hPa | 2.7V | 02:58:07 | 02:23:39 | 00:00:00 | |
| TFSTFS | 2026-09-03 12:55:16 | 52.44713 | 11.45022 | 104° | 77km/h | 15441m | -14.3m/s | -53.8°C | 1.1% | 118.7hPa | 2.7V | 00:00:00 | 00:00:00 | 00:00:00 | |
| DL1XH1-15 | 2026-09-03 12:55:15 | 52.44741 | 11.44841 | 106° | 73km/h | 15523m | -14.3m/s | -54.4°C | 3.6% | 117.1hPa | 2.7V | 02:58:14 | 02:23:32 | 00:00:00 | |
| DL1XH-west | 2026-09-03 12:55:13 | 52.44726 | 11.44930 | 103° | 75km/h | 15482m | -14m/s | -54.2°C | 0.1% | 117.9hPa | 2.6V | 02:58:58 | 02:23:35 | 00:00:00 | |
| DF8AY | 2026-09-03 12:55:12 | 52.44736 | 11.44870 | 105° | 75km/h | 15510m | -13.6m/s | -54.4°C | 0.2% | 117.4hPa | 2.7V | 02:58:58 | 02:23:33 | 00:00:00 | |
| DB0DAN | 2026-09-03 12:55:10 | 52.44741 | 11.44841 | 106° | 69km/h | 15523m | -14.3m/s | -54.4°C | 1.1% | 117.14hPa | 2.7V | 00:00:00 | 00:00:00 | 00:00:00 | |
| DO2SHX-10 | 2026-09-03 12:55:10 | 52.44741 | 11.44841 | 107° | 75km/h | 15523m | -14.2m/s | -54.3°C | 3.6% | 117.1hPa | 2.7V | 02:58:00 | 02:23:32 | 00:00:00 | |
| GOEST3-10 | 2026-09-03 12:55:09 | 52.44746 | 11.44812 | 107° | 77km/h | 15537m | -13.5m/s | -54.2°C | 3.6% | 116.8hPa | 2.7V | 00:00:00 | 02:23:31 | 00:00:00 | |
| DL1NUX | 2026-09-03 12:55:08 | 52.44783 | 11.44632 | 109° | 78km/h | 15619m | -14.7m/s | -54.3°C | 3.6% | 115.4hPa | 2.7V | 02:58:21 | 02:23:25 | 00:00:00 | |
| AA1-15 | 2026-09-03 12:55:06 | 52.44764 | 11.44723 | 108° | 77km/h | 15577m | -14.2m/s | -54.2°C | 0.1% | 116.2hPa | 2.6V | 02:58:58 | 02:23:28 | 00:00:00 | |
| DL1XH-15 | 2026-09-03 12:55:06 | 52.44797 | 11.44570 | 111° | 80km/h | 15647m | -13.7m/s | -54.5°C | 3.7% | 114.9hPa | 2.6V | 02:58:23 | 02:23:23 | 00:00:00 | |
| DL1XH-west | 2026-09-03 12:55:02 | 52.44789 | 11.44601 | 111° | 80km/h | 15633m | -14.2m/s | -54.4°C | 0.1% | 115.2hPa | 2.7V | 02:58:58 | 02:23:24 | 00:00:00 | |
| DO2SHX-10 | 2026-09-03 12:55:01 | 52.44797 | 11.44570 | 112° | 82km/h | 15647m | -13.7m/s | -54.4°C | 3.7% | 114.8hPa | 2.6V | 02:58:00 | 02:23:23 | 00:00:00 | |
| DB0UT-7 | 2026-09-03 12:55:00 | 52.44804 | 11.44539 | 113° | 82km/h | 15660m | -13.6m/s | -54.5°C | 3.6% | 114.6hPa | 2.7V | 00:00:00 | 00:00:00 | 00:00:00 | |
| GOEST3-10 | 2026-09-03 12:54:59 | 52.44812 | 11.44508 | 113° | 84km/h | 15673m | -13.4m/s | -54.6°C | 3.7% | 114.4hPa | 2.7V | 02:58:00 | 02:23:21 | 00:00:00 | |
| DL1NUX | 2026-09-03 12:54:58 | 52.44868 | 11.44320 | 119° | 86km/h | 15756m | -14.3m/s | -54.7°C | 3.6% | 113hPa | 2.7V | 02:58:31 | 02:23:15 | 00:00:00 | |
| SONCRA | 2026-09-03 12:54:58 | 52.44820 | 11.44476 | 113° | 82km/h | 15687m | -14.5m/s | -54.7°C | 1.1% | 114.2hPa | 2.7V | 00:00:00 | 00:00:00 | 00:00:00 | |
| S3001 | 2026-09-03 12:54:57 | 52.44838 | 11.44413 | 115° | 84km/h | 15714m | -13.8m/s | -54.8°C | 1.1% | 113.8hPa | 2.7V | 00:00:00 | 00:00:00 | 00:00:00 | |
| DM0DOS-11 | 2026-09-03 12:54:56 | 52.44889 | 11.44259 | 122° | 86km/h | 15784m | -14.2m/s | -54.8°C | 3.6% | 112.5hPa | 2.7V | 02:58:33 | 02:23:13 | 00:00:00 | |
| AA1-15 | 2026-09-03 12:54:55 | 52.44848 | 11.44382 | 117° | 84km/h | 15728m | -14.8m/s | -54.8°C | 0.1% | 113.5hPa | 2.6V | 02:58:58 | 02:23:17 | 00:00:00 | |
| BIOWL1-15 | 2026-09-03 12:54:54 | 52.44901 | 11.44230 | 123° | 84km/h | 15797m | -13.6m/s | 0°C | 0% | 0hPa | 2.7V | 18:12:15 | 02:23:12 | 00:00:00 | |
| GOEST3-10 | 2026-09-03 12:54:54 | 52.44857 | 11.44351 | 118° | 86km/h | 15742m | -14.6m/s | -54.7°C | 3.7% | 113.2hPa | 2.7V | 00:00:00 | 00:00:00 | 00:00:00 | |
| DL1XH1-15 | 2026-09-03 12:54:53 | 52.44901 | 11.44230 | 122° | 84km/h | 15797m | -13.6m/s | -54.8°C | 3.6% | 112.2hPa | 2.7V | 02:58:34 | 02:23:12 | 00:00:00 | |
| DF8AY | 2026-09-03 12:54:52 | 52.44878 | 11.44289 | 121° | 86km/h | 15770m | -13.9m/s | -54.8°C | 0.1% | 112.8hPa | 2.7V | 02:58:58 | 02:23:14 | 00:00:00 | |
| DL1XH-west | 2026-09-03 12:54:51 | 52.44890 | 11.44259 | 122° | 86km/h | 15784m | -14.3m/s | -54.8°C | 0.1% | 112.5hPa | 2.7V | 02:58:58 | 02:23:13 | 00:00:00 | |
| AM1SDL-15 | 2026-09-03 12:54:51 | 52.44890 | 11.44259 | 123° | 82km/h | 15784m | -14.2m/s | -54.7°C | 3.6% | 112.4hPa | 2.6V | 00:00:00 | 02:23:13 | 00:00:00 | |
| DO2SHX-10 | 2026-09-03 12:54:49 | 52.44913 | 11.44201 | 124° | 82km/h | 15812m | -14.5m/s | -54.7°C | 3.6% | 111.9hPa | 2.6V | 00:00:00 | 02:23:11 | 00:00:00 | |
| NBG1-10 | 2026-09-03 12:54:48 | 52.44925 | 11.44172 | 126° | 75km/h | 15826m | -13.9m/s | -54.8°C | 3.7% | 111.7hPa | 2.6V | 02:58:00 | 02:23:10 | 00:00:00 | |
| DL1NUX | 2026-09-03 12:54:48 | 52.44988 | 11.44038 | 129° | 82km/h | 15895m | -13.8m/s | -55°C | 3.7% | 110.6hPa | 2.7V | 02:58:41 | 02:23:05 | 00:00:00 | |
| DL1XH-15 | 2026-09-03 12:54:46 | 52.45015 | 11.43986 | 130° | 82km/h | 15924m | -14.7m/s | -55.1°C | 3.8% | 110.1hPa | 2.6V | 02:58:43 | 02:23:03 | 00:00:00 | |
| AA1-15 | 2026-09-03 12:54:45 | 52.44975 | 11.44064 | 130° | 82km/h | 15881m | -14.2m/s | -54.9°C | 0.1% | 110.8hPa | 2.7V | 02:58:58 | 02:23:06 | 00:00:00 | |
| DF8AY | 2026-09-03 12:54:41 | 52.45015 | 11.43986 | 130° | 82km/h | 15924m | -14.7m/s | -55.1°C | 0.1% | 110.1hPa | 2.6V | 02:58:58 | 02:23:03 | 00:00:00 | |
| BIOWL1-15 | 2026-09-03 12:54:40 | 52.45028 | 11.43960 | 130° | 82km/h | 15938m | -14m/s | 0°C | 0% | 0hPa | 2.6V | 18:12:15 | 02:23:02 | 00:00:00 | |
| DO2SHX-10 | 2026-09-03 12:54:40 | 52.45028 | 11.43960 | 131° | 80km/h | 15938m | -13.9m/s | -55.1°C | 3.8% | 109.8hPa | 2.7V | 00:00:00 | 02:23:02 | 00:00:00 | |
| DB0DAN | 2026-09-03 12:54:40 | 52.45028 | 11.43960 | 130° | 78km/h | 15938m | -14m/s | -55.2°C | 1% | 109.84hPa | 2.6V | 00:00:00 | 00:00:00 | 00:00:00 | |
| GOEST3-10 | 2026-09-03 12:54:39 | 52.45041 | 11.43934 | 130° | 78km/h | 15952m | -14.0m/s | -55.1°C | 3.8% | 109.6hPa | 2.7V | 00:00:00 | 02:23:01 | 00:00:00 | |
| DF7ER-10 | 2026-09-03 12:54:38 | 52.45041 | 11.43934 | 130° | 80km/h | 15952m | -14.1m/s | -55.2°C | 1.1% | 109.6hPa | 2.7V | 02:58:00 | 00:00:00 | 00:00:00 | |
| DL1NUX | 2026-09-03 12:54:37 | 52.45113 | 11.43780 | 124° | 77km/h | 16036m | -13.9m/s | -55°C | 3.7% | 108.1hPa | 2.7V | 02:58:51 | 02:22:55 | 00:00:00 | |
| HTAHTA | 2026-09-03 12:54:37 | 52.45079 | 11.43858 | 127° | 77km/h | 15994m | -14.9m/s | -54.9°C | 1.0% | 108.9hPa | 2.5V | 00:00:00 | 00:00:00 | 00:00:00 | |
| DM0DOS-11 | 2026-09-03 12:54:36 | 52.45135 | 11.43727 | 124° | 75km/h | 16064m | -13.1m/s | -54.9°C | 3.6% | 107.7hPa | 2.5V | 02:58:53 | 02:22:53 | 00:00:00 | |
| AA1-15 | 2026-09-03 12:54:34 | 52.45113 | 11.43780 | 124° | 77km/h | 16036m | -13.9m/s | -55°C | 0.1% | 108.1hPa | 2.7V | 02:58:58 | 02:22:55 | 00:00:00 | |
| HSKMA3-T | 2026-09-03 12:54:34 | 52.45124 | 11.43754 | 124° | 77km/h | 16050m | -14m/s | -55°C | 0% | 107.9hPa | 2.7V | 02:58:58 | 02:22:54 | 00:00:00 | |
| DL1XH1-15 | 2026-09-03 12:54:34 | 52.45145 | 11.43702 | 124° | 75km/h | 16077m | -13.4m/s | -54.9°C | 3.7% | 107.5hPa | 2.6V | 02:58:54 | 02:22:52 | 00:00:00 | |
| DF8AY | 2026-09-03 12:54:30 | 52.45146 | 11.43702 | 124° | 75km/h | 16077m | -13.4m/s | -54.9°C | 0% | 107.5hPa | 2.6V | 02:58:58 | 02:22:52 | 00:00:00 | |
| DB0UT-7 | 2026-09-03 12:54:30 | 52.45145 | 11.43701 | 125° | 71km/h | 16077m | -13.3m/s | -54.9°C | 3.7% | 107.4hPa | 2.6V | 00:00:00 | 02:22:52 | 00:00:00 | |
| GOEST3-10 | 2026-09-03 12:54:29 | 52.45156 | 11.43676 | 125° | 73km/h | 16091m | -14.1m/s | -54.9°C | 3.6% | 107.2hPa | 2.6V | 02:58:00 | 02:22:51 | 00:00:00 | |
| DO2SHX-10 | 2026-09-03 12:54:28 | 52.45167 | 11.43651 | 126° | 73km/h | 16105m | -13.9m/s | -54.8°C | 3.6% | 107.0hPa | 2.6V | 00:00:00 | 02:22:50 | 00:00:00 | |
| DL1NUX | 2026-09-03 12:54:27 | 52.45232 | 11.43505 | 126° | 71km/h | 16188m | -14.4m/s | -54.2°C | 3.4% | 105.7hPa | 2.6V | 02:59:02 | 02:22:44 | 00:00:00 | |
| DM0DOS-11 | 2026-09-03 12:54:26 | 52.45242 | 11.43482 | 125° | 71km/h | 16201m | -13.3m/s | -54.2°C | 3.4% | 105.5hPa | 2.7V | 02:59:03 | 02:22:43 | 00:00:00 | |
| S3001 | 2026-09-03 12:54:26 | 52.45200 | 11.43578 | 125° | 71km/h | 16146m | -13.7m/s | -54.3°C | 0.9% | 106.3hPa | 2.7V | 00:00:00 | 00:00:00 | 00:00:00 | |
| DL1XH1-15 | 2026-09-03 12:54:25 | 52.45253 | 11.43458 | 126° | 69km/h | 16215m | -14.3m/s | -54.2°C | 3.4% | 105.2hPa | 2.7V | 02:59:04 | 02:22:42 | 00:00:00 | |
| DB0DAN | 2026-09-03 12:54:25 | 52.45200 | 11.43578 | 126° | 69km/h | 16146m | -13.7m/s | -54.3°C | 0.9% | 106.31hPa | 2.7V | 00:00:00 | 00:00:00 | 00:00:00 | |
| DL1XH-west | 2026-09-03 12:54:24 | 52.45210 | 11.43553 | 126° | 71km/h | 16160m | -14.2m/s | -54.2°C | 0% | 106.1hPa | 2.6V | 02:59:49 | 02:22:46 | 00:00:00 | |
| AA1-15 | 2026-09-03 12:54:23 | 52.45221 | 11.43529 | 126° | 71km/h | 16174m | -14.4m/s | -54.1°C | 0% | 105.9hPa | 2.6V | 02:59:49 | 02:22:45 | 00:00:00 | |
| HSKMA3-T | 2026-09-03 12:54:21 | 52.45242 | 11.43482 | 126° | 71km/h | 16201m | -13.3m/s | -54.2°C | 0% | 105.5hPa | 2.7V | 02:59:49 | 02:22:43 | 00:00:00 | |
| DF8AY | 2026-09-03 12:54:20 | 52.45253 | 11.43458 | 127° | 69km/h | 16215m | -14.3m/s | -54.3°C | 0% | 105.2hPa | 2.7V | 02:59:49 | 02:22:42 | 00:00:00 | |
| SP3BTT-10 | 2026-09-03 12:54:19 | 52.45263 | 11.43435 | 127° | 38km/h | 16229m | -13.8m/s | -54.3°C | 3.5% | 104.9hPa | 2.7V | 00:00:00 | 00:00:00 | 00:00:00 | |
| SMARD9-15 | 2026-09-03 12:54:18 | 52.45304 | 11.43346 | 127° | 66km/h | 16284m | -13.2m/s | -54.6°C | 0.9% | 104.1hPa | 2.7V | 00:00:00 | 00:00:00 | 00:00:00 | |
| DL1NUX | 2026-09-03 12:54:17 | 52.45334 | 11.43279 | 124° | 69km/h | 16324m | -14m/s | -54.6°C | 3.6% | 103.4hPa | 2.7V | 02:59:12 | 02:22:34 | 00:00:00 | |
| EDDB2-12 | 2026-09-03 12:54:17 | 52.45294 | 11.43367 | 127° | 64km/h | 16271m | -13.7m/s | -54.6°C | 0.8% | 104.3hPa | 2.6V | 00:00:00 | 00:00:00 | 00:00:00 | |
| DM0DOS-11 | 2026-09-03 12:54:16 | 52.45344 | 11.43255 | 124° | 69km/h | 16338m | -14.1m/s | -54.7°C | 3.6% | 103.2hPa | 2.6V | 02:59:13 | 02:22:33 | 00:00:00 | |
| DF8AY | 2026-09-03 12:54:15 | 52.45355 | 11.43231 | 124° | 73km/h | 16352m | -14m/s | -54.7°C | 0% | 103hPa | 2.6V | 02:59:49 | 02:22:32 | 00:00:00 | |
| DL1XH-west | 2026-09-03 12:54:13 | 52.45324 | 11.43301 | 126° | 68km/h | 16311m | -14m/s | -54.6°C | 0% | 103.7hPa | 2.7V | 02:59:49 | 02:22:35 | 00:00:00 | |
| DL1XH1-15 | 2026-09-03 12:54:13 | 52.45355 | 11.43231 | 124° | 73km/h | 16352m | -14m/s | -54.7°C | 3.6% | 103hPa | 2.6V | 02:59:14 | 02:22:32 | 00:00:00 | |
| AA1-15 | 2026-09-03 12:54:13 | 52.45334 | 11.43279 | 125° | 69km/h | 16324m | -14m/s | -54.6°C | 0% | 103.4hPa | 2.7V | 02:59:49 | 02:22:34 | 00:00:00 | |
| HSKMA3-T | 2026-09-03 12:54:11 | 52.45344 | 11.43255 | 125° | 71km/h | 16338m | -14.1m/s | -54.7°C | 0% | 103.2hPa | 2.6V | 02:59:49 | 02:22:33 | 00:00:00 | |
| DO2SHX-10 | 2026-09-03 12:54:10 | 52.45355 | 11.43230 | 125° | 75km/h | 16352m | -13.9m/s | -54.6°C | 3.6% | 102.9hPa | 2.7V | 00:00:00 | 02:22:32 | 00:00:00 | |
| DO2SHX-10 | 2026-09-03 12:54:07 | 52.45385 | 11.43151 | 122° | 75km/h | 16394m | -13.4m/s | -54.6°C | 3.6% | 102.2hPa | 2.7V | 02:59:00 | 02:22:29 | 00:00:00 | |
| DL1XH-15 | 2026-09-03 12:54:06 | 52.45441 | 11.42994 | 121° | 68km/h | 16477m | -13.5m/s | -54.1°C | 3.6% | 101hPa | 2.6V | 02:59:23 | 02:22:23 | 00:00:00 | |
| HTAHTA | 2026-09-03 12:54:06 | 52.45405 | 11.43097 | 120° | 73km/h | 16422m | -14.3m/s | -54.5°C | 0.8% | 101.9hPa | 2.6V | 00:00:00 | 00:00:00 | 00:00:00 | |
| DL1XH1-15 | 2026-09-03 12:54:05 | 52.45449 | 11.42971 | 120° | 66km/h | 16490m | -14.4m/s | -54°C | 3.5% | 100.8hPa | 2.6V | 02:59:24 | 02:22:22 | 00:00:00 | |
| DO2SHX-10 | 2026-09-03 12:54:04 | 52.45414 | 11.43070 | 120° | 71km/h | 16436m | -13.9m/s | -54.5°C | 3.7% | 101.6hPa | 2.7V | 00:00:00 | 02:22:26 | 00:00:00 | |
| DL1NUX | 2026-09-03 12:54:03 | 52.45432 | 11.43019 | 120° | 69km/h | 16463m | -13.1m/s | -54.4°C | 3.7% | 101.3hPa | 2.7V | 02:59:22 | 02:22:24 | 00:00:00 | |
| AA1-15 | 2026-09-03 12:54:02 | 52.45441 | 11.42994 | 121° | 68km/h | 16477m | -13.5m/s | -54.1°C | 0% | 101hPa | 2.6V | 02:59:49 | 02:22:23 | 00:00:00 | |
| HSKMA3-T | 2026-09-03 12:54:00 | 52.45450 | 11.42971 | 121° | 66km/h | 16490m | -14.4m/s | -54°C | 0% | 100.8hPa | 2.6V | 02:59:49 | 02:22:22 | 00:00:00 | |
| DF8AY | 2026-09-03 12:53:59 | 52.45458 | 11.42948 | 121° | 64km/h | 16504m | -14.8m/s | -54°C | 0% | 100.5hPa | 2.6V | 02:59:49 | 02:22:21 | 00:00:00 | |
| GOEST3-10 | 2026-09-03 12:53:59 | 52.45458 | 11.42948 | 121° | 66km/h | 16505m | -14.7m/s | -53.9°C | 3.5% | 100.5hPa | 2.6V | 02:59:00 | 02:22:21 | 00:00:00 | |
| DO2SHX-10 | 2026-09-03 12:53:58 | 52.45467 | 11.42925 | 124° | 64km/h | 16519m | -13.2m/s | -53.8°C | 3.5% | 100.3hPa | 2.7V | 02:59:00 | 02:22:20 | 00:00:00 | |
| DL1NUX | 2026-09-03 12:53:57 | 52.45525 | 11.42789 | 125° | 69km/h | 16600m | -14m/s | -53.5°C | 3.4% | 99.1hPa | 2.6V | 02:59:32 | 02:22:14 | 00:00:00 | |
| SONCRA | 2026-09-03 12:53:56 | 52.45485 | 11.42881 | 126° | 64km/h | 16545m | -13.3m/s | -53.6°C | 0.8% | 99.9hPa | 2.7V | 00:00:00 | 00:00:00 | 00:00:00 | |
| DL1XH-15 | 2026-09-03 12:53:55 | 52.45535 | 11.42765 | 124° | 69km/h | 16615m | -14.6m/s | -53.4°C | 3.4% | 98.9hPa | 2.7V | 02:59:33 | 02:22:13 | 00:00:00 | |
| S3001 | 2026-09-03 12:53:55 | 52.45505 | 11.42836 | 125° | 68km/h | 16573m | -14.4m/s | -53.4°C | 0.8% | 99.5hPa | 2.7V | 00:00:00 | 00:00:00 | 00:00:00 | |
| GOEST3-10 | 2026-09-03 12:53:54 | 52.45505 | 11.42836 | 126° | 69km/h | 16573m | -14.4m/s | -53.3°C | 3.4% | 99.5hPa | 2.7V | 00:00:00 | 00:00:00 | 00:00:00 | |
| DL1XH1-15 | 2026-09-03 12:53:53 | 52.45545 | 11.42742 | 123° | 68km/h | 16629m | -14.4m/s | -53.2°C | 3.3% | 98.6hPa | 2.7V | 02:59:34 | 02:22:12 | 00:00:00 | |
| DL1XH-west | 2026-09-03 12:53:52 | 52.45525 | 11.42789 | 125° | 69km/h | 16600m | -14m/s | -53.5°C | 0% | 99.1hPa | 2.6V | 02:59:49 | 02:22:14 | 00:00:00 | |
| AA1-15 | 2026-09-03 12:53:50 | 52.45545 | 11.42742 | 124° | 68km/h | 16629m | -14.4m/s | -53.2°C | 0% | 98.6hPa | 2.7V | 02:59:49 | 02:22:12 | 00:00:00 | |
| DF8AY | 2026-09-03 12:53:49 | 52.45555 | 11.42718 | 124° | 68km/h | 16643m | -14.9m/s | -53.1°C | 0% | 98.5hPa | 2.7V | 02:59:49 | 02:22:11 | 00:00:00 | |
| DO2SHX-10 | 2026-09-03 12:53:49 | 52.45555 | 11.42718 | 125° | 68km/h | 16644m | -14.8m/s | -53.1°C | 3.3% | 98.4hPa | 2.7V | 02:59:00 | 02:22:11 | 00:00:00 | |
| DM0DOS-11 | 2026-09-03 12:53:46 | 52.45625 | 11.42538 | 119° | 60km/h | 16756m | -14.4m/s | -51.9°C | 3% | 96.7hPa | 2.7V | 02:59:43 | 02:22:03 | 00:00:00 | |
| EDDB2-12 | 2026-09-03 12:53:46 | 52.45591 | 11.42626 | 123° | 64km/h | 16701m | -14.3m/s | -53.0°C | 0.7% | 97.6hPa | 2.6V | 00:00:00 | 00:00:00 | 00:00:00 | |
| DL1XH1-15 | 2026-09-03 12:53:45 | 52.45633 | 11.42515 | 118° | 60km/h | 16770m | -14.2m/s | -51.9°C | 3.1% | 96.5hPa | 2.6V | 02:59:44 | 02:22:02 | 00:00:00 | |
| DJ2DS-15 | 2026-09-03 12:53:45 | 52.45600 | 11.42604 | 124° | 62km/h | 16715m | -13.8m/s | -52.8°C | 0.7% | 97.3hPa | 2.7V | 00:00:00 | 00:00:00 | 00:00:00 | |
| GOEST3-10 | 2026-09-03 12:53:44 | 52.45600 | 11.42603 | 125° | 62km/h | 16715m | -13.8m/s | -52.8°C | 3.3% | 97.3hPa | 2.7V | 02:59:00 | 00:00:00 | 00:00:00 | |
| DL1NUX | 2026-09-03 12:53:43 | 52.45618 | 11.42560 | 121° | 62km/h | 16742m | -13.3m/s | -52°C | 3% | 96.9hPa | 2.7V | 02:59:42 | 02:22:04 | 00:00:00 | |
| DL1XH-west | 2026-09-03 12:53:43 | 52.45618 | 11.42560 | 121° | 62km/h | 16742m | -13.3m/s | -52°C | 0% | 96.9hPa | 2.7V | 02:59:49 | 02:22:04 | 00:00:00 | |
| AA1-15 | 2026-09-03 12:53:40 | 52.45633 | 11.42516 | 119° | 60km/h | 16770m | -14.2m/s | -51.9°C | 0% | 96.5hPa | 2.6V | 02:59:49 | 02:22:02 | 00:00:00 | |
| DF8AY | 2026-09-03 12:53:39 | 52.45640 | 11.42493 | 117° | 60km/h | 16784m | -14.8m/s | -51.9°C | 0% | 96.3hPa | 2.6V | 02:59:49 | 02:22:01 | 00:00:00 | |
| HSKMA3-T | 2026-09-03 12:53:38 | 52.45647 | 11.42471 | 115° | 60km/h | 16799m | -14.2m/s | -52°C | 0% | 96.1hPa | 2.6V | 02:59:49 | 02:22:00 | 00:00:00 | |
| AM1SDL-15 | 2026-09-03 12:53:38 | 52.45647 | 11.42471 | 115° | 62km/h | 16799m | -14.2m/s | -52.0°C | 3.1% | 96.1hPa | 2.7V | 00:00:00 | 02:22:00 | 00:00:00 | |
| DO2SHX-10 | 2026-09-03 12:53:37 | 52.45653 | 11.42448 | 113° | 58km/h | 16813m | -14.8m/s | -52.1°C | 3.1% | 95.8hPa | 2.7V | 00:00:00 | 02:21:59 | 00:00:00 | |
| DF8AY-15 | 2026-09-03 12:53:35 | 52.45662 | 11.42402 | 106° | 62km/h | 16842m | -14.7m/s | -52.2°C | 3.1% | 95.5hPa | 2.7V | 00:00:00 | 02:21:57 | 00:00:00 | |
| DL1XH-15 | 2026-09-03 12:53:35 | 52.45676 | 11.42303 | 99° | 64km/h | 16899m | -14.8m/s | -52.2°C | 3.2% | 94.6hPa | 2.6V | 02:59:53 | 02:21:53 | 00:00:00 | |
| DO2SHX-10 | 2026-09-03 12:53:34 | 52.45666 | 11.42378 | 104° | 62km/h | 16856m | -14.1m/s | -52.2°C | 3.2% | 95.2hPa | 2.7V | 00:00:00 | 02:21:56 | 00:00:00 | |
| DL1XH1-15 | 2026-09-03 12:53:33 | 52.45678 | 11.42277 | 99° | 66km/h | 16914m | -15.1m/s | -52.2°C | 3.2% | 94.4hPa | 2.7V | 02:59:54 | 02:21:52 | 00:00:00 | |
| AA1-15 | 2026-09-03 12:53:30 | 52.45678 | 11.42277 | 99° | 66km/h | 16914m | -15.1m/s | -52.2°C | 0% | 94.4hPa | 2.7V | 03:00:40 | 02:21:52 | 00:00:00 | |
| DF8AY | 2026-09-03 12:53:29 | 52.45681 | 11.42250 | 101° | 66km/h | 16929m | -15m/s | -52.1°C | 0% | 94.2hPa | 2.7V | 03:00:40 | 02:21:51 | 00:00:00 | |
| HSKMA3-T | 2026-09-03 12:53:27 | 52.45688 | 11.42197 | 103° | 66km/h | 16958m | -14.3m/s | -51.6°C | 0% | 93.7hPa | 2.7V | 03:00:40 | 02:21:49 | 00:00:00 | |
| DL1XH-15 | 2026-09-03 12:53:26 | 52.45716 | 11.42045 | 112° | 62km/h | 17045m | -14.1m/s | -51°C | 2.9% | 92.5hPa | 2.7V | 03:00:03 | 02:21:43 | 00:00:00 | |
| AA1-15 | 2026-09-03 12:53:19 | 52.45729 | 11.42000 | 118° | 60km/h | 17074m | -14.7m/s | -50.9°C | 0% | 92.1hPa | 2.6V | 03:00:40 | 02:21:41 | 00:00:00 | |
| DF8AY | 2026-09-03 12:53:18 | 52.45736 | 11.41978 | 120° | 58km/h | 17089m | -15.4m/s | -50.8°C | 0% | 91.9hPa | 2.6V | 03:00:40 | 02:21:40 | 00:00:00 | |
| HSKMA3-T | 2026-09-03 12:53:16 | 52.45750 | 11.41938 | 121° | 55km/h | 17119m | -15.2m/s | -50.8°C | 0% | 91.5hPa | 2.7V | 03:00:40 | 02:21:38 | 00:00:00 | |
| EDDB2-12 | 2026-09-03 12:53:15 | 52.45765 | 11.41901 | 122° | 51km/h | 17149m | -15.3m/s | -50.9°C | 0.6% | 91.0hPa | 2.7V | 00:00:00 | 00:00:00 | 00:00:00 | |
| GOEST3-10 | 2026-09-03 12:53:14 | 52.45765 | 11.41901 | 123° | 53km/h | 17149m | -15.2m/s | -50.9°C | 2.9% | 91.0hPa | 2.7V | 03:00:00 | 00:00:00 | 00:00:00 | |
| DL1XH1-15 | 2026-09-03 12:53:13 | 52.45797 | 11.41831 | 131° | 53km/h | 17208m | -15.1m/s | -50.2°C | 2.7% | 90.2hPa | 2.6V | 03:00:14 | 02:21:32 | 00:00:00 | |
| DL1NUX | 2026-09-03 12:53:13 | 52.45780 | 11.41865 | 126° | 53km/h | 17179m | -14.9m/s | -50.9°C | 2.9% | 90.7hPa | 2.6V | 03:00:12 | 02:21:34 | 00:00:00 | |
| DF8AY | 2026-09-03 12:53:12 | 52.45832 | 11.41771 | 136° | 49km/h | 17269m | -15.9m/s | -49.8°C | 0% | 89.5hPa | 2.7V | 03:00:40 | 02:21:28 | 00:00:00 | |
| DB0DAN | 2026-09-03 12:53:10 | 52.45797 | 11.41831 | 131° | 49km/h | 17208m | -15.1m/s | -50.2°C | 0.5% | 90.21hPa | 2.6V | 00:00:00 | 00:00:00 | 00:00:00 | |
| DL1XH-west | 2026-09-03 12:53:09 | 52.45806 | 11.41815 | 133° | 51km/h | 17222m | -14.7m/s | -49.9°C | 0% | 90hPa | 2.7V | 03:00:40 | 02:21:31 | 00:00:00 | |
| AA1-15 | 2026-09-03 12:53:08 | 52.45814 | 11.41800 | 133° | 51km/h | 17237m | -15.6m/s | -49.7°C | 0% | 89.8hPa | 2.7V | 03:00:40 | 02:21:30 | 00:00:00 | |
| NBG1-10 | 2026-09-03 12:53:08 | 52.45814 | 11.41800 | 134° | 35km/h | 17238m | -15.6m/s | -49.6°C | 2.6% | 89.8hPa | 2.7V | 00:00:00 | 02:21:30 | 00:00:00 | |
| DL1NUX | 2026-09-03 12:53:07 | 52.45866 | 11.41720 | 139° | 42km/h | 17329m | -14.8m/s | -49.9°C | 2.6% | 88.6hPa | 2.7V | 03:00:22 | 02:21:24 | 00:00:00 | |
| DO2SHX-10 | 2026-09-03 12:53:07 | 52.45823 | 11.41785 | 135° | 47km/h | 17253m | -15.6m/s | -49.7°C | 2.6% | 89.6hPa | 2.7V | 00:00:00 | 02:21:29 | 00:00:00 | |
| DL1XH1-15 | 2026-09-03 12:53:06 | 52.45883 | 11.41698 | 138° | 42km/h | 17358m | -15.6m/s | -49.8°C | 2.6% | 88.2hPa | 2.7V | 03:00:24 | 02:21:22 | 00:00:00 | |
| HSKMA3-T | 2026-09-03 12:53:04 | 52.45850 | 11.41745 | 139° | 46km/h | 17300m | -15.5m/s | -49.9°C | 0% | 89hPa | 2.6V | 03:00:40 | 02:21:26 | 00:00:00 | |
| DL1XH-west | 2026-09-03 12:52:59 | 52.45897 | 11.41677 | 137° | 38km/h | 17388m | -14.7m/s | -50°C | 0% | 87.8hPa | 2.6V | 03:00:40 | 02:21:20 | 00:00:00 | |
| AA1-15 | 2026-09-03 12:52:57 | 52.45904 | 11.41666 | 137° | 37km/h | 17403m | -15.6m/s | -50.1°C | 0% | 87.6hPa | 2.6V | 03:00:40 | 02:21:19 | 00:00:00 | |
| DF8AY | 2026-09-03 12:52:56 | 52.45917 | 11.41646 | 137° | 35km/h | 17433m | -14.9m/s | -50.3°C | 0% | 87.2hPa | 2.7V | 03:00:40 | 02:21:17 | 00:00:00 | |
| DL1XH-15 | 2026-09-03 12:52:55 | 52.45937 | 11.41607 | 122° | 27km/h | 17492m | -15.2m/s | -50.5°C | 2.7% | 86.4hPa | 2.6V | 03:00:33 | 02:21:13 | 00:00:00 | |
| DM0DOS-11 | 2026-09-03 12:52:55 | 52.45922 | 11.41637 | 132° | 31km/h | 17448m | -15.1m/s | -50.3°C | 2.6% | 87hPa | 2.7V | 03:00:30 | 02:21:16 | 00:00:00 | |
| HSKMA3-T | 2026-09-03 12:52:51 | 52.45937 | 11.41607 | 122° | 27km/h | 17492m | -15.2m/s | -50.5°C | 0% | 86.4hPa | 2.6V | 03:00:40 | 02:21:13 | 00:00:00 | |
| AA1-15 | 2026-09-03 12:52:47 | 52.45947 | 11.41572 | 108° | 20km/h | 17553m | -14.7m/s | -50.9°C | 0% | 85.7hPa | 2.7V | 03:00:40 | 02:21:09 | 00:00:00 | |
| DL1NUX | 2026-09-03 12:52:47 | 52.45951 | 11.41531 | 94° | 22km/h | 17628m | -15.4m/s | -51.3°C | 2.8% | 84.6hPa | 2.6V | 03:00:42 | 02:21:04 | 00:00:00 | |
| DM0DOS-11 | 2026-09-03 12:52:47 | 52.45950 | 11.41548 | 95° | 20km/h | 17598m | -15.6m/s | -51.2°C | 2.8% | 85hPa | 2.6V | 03:00:40 | 02:21:06 | 00:00:00 | |
| DF8AY | 2026-09-03 12:52:45 | 52.45950 | 11.41556 | 98° | 20km/h | 17582m | -15.3m/s | -51.1°C | 0% | 85.2hPa | 2.7V | 03:00:40 | 02:21:07 | 00:00:00 | |
| SMARD9-15 | 2026-09-03 12:52:45 | 52.45950 | 11.41548 | 95° | 20km/h | 17598m | -15.6m/s | -51.2°C | 0.6% | 85.0hPa | 2.7V | 00:00:00 | 00:00:00 | 00:00:00 | |
| HSKMA3-T | 2026-09-03 12:52:41 | 52.45951 | 11.41521 | 91° | 22km/h | 17643m | -15.2m/s | -51.4°C | 0% | 84.5hPa | 2.7V | 03:01:31 | 02:21:03 | 00:00:00 | |
| AA1-15 | 2026-09-03 12:52:36 | 52.45951 | 11.41475 | 90° | 22km/h | 17718m | -14.2m/s | -51.8°C | 0% | 83.5hPa | 2.7V | 03:01:31 | 02:20:58 | 00:00:00 | |
| DM0DOS-11 | 2026-09-03 12:52:35 | 52.45952 | 11.41456 | 97° | 24km/h | 17745m | -14.9m/s | -52°C | 2.9% | 83.1hPa | 2.7V | 03:00:50 | 02:20:56 | 00:00:00 | |
| DF8AY | 2026-09-03 12:52:34 | 52.45952 | 11.41456 | 98° | 24km/h | 17745m | -14.9m/s | -52°C | 0% | 83.1hPa | 2.7V | 03:01:31 | 02:20:56 | 00:00:00 | |
| DO2SHX-10 | 2026-09-03 12:52:34 | 52.45952 | 11.41456 | 98° | 24km/h | 17746m | -14.9m/s | -52.0°C | 2.9% | 83.1hPa | 2.6V | 00:00:00 | 02:20:56 | 00:00:00 | |
| DL1NUX | 2026-09-03 12:52:33 | 52.45954 | 11.41436 | 98° | 26km/h | 17776m | -15m/s | -52.2°C | 3% | 82.7hPa | 2.6V | 03:00:52 | 02:20:54 | 00:00:00 | |
| HSKMA3-T | 2026-09-03 12:52:30 | 52.45957 | 11.41414 | 101° | 27km/h | 17806m | -15.2m/s | -52.3°C | 0% | 82.4hPa | 2.6V | 03:01:31 | 02:20:52 | 00:00:00 | |
| DB0UT-7 | 2026-09-03 12:52:30 | 52.45956 | 11.41414 | 102° | 37km/h | 17806m | -15.2m/s | -52.3°C | 3.0% | 82.3hPa | 2.6V | 03:00:00 | 02:20:52 | 00:00:00 | |
| DF7ER-10 | 2026-09-03 12:52:29 | 52.45957 | 11.41414 | 102° | 27km/h | 17806m | -15.2m/s | -52.3°C | 0.6% | 82.4hPa | 2.7V | 03:01:00 | 00:00:00 | 00:00:00 | |
| DL1NUX | 2026-09-03 12:52:28 | 52.45977 | 11.41307 | 110° | 44km/h | 17928m | -15.6m/s | -52.8°C | 3.1% | 80.8hPa | 2.7V | 03:01:02 | 02:20:44 | 00:00:00 | |
| DL4XJ-10 | 2026-09-03 12:52:27 | 52.45962 | 11.41378 | 108° | 40km/h | 17851m | -15.9m/s | -50.9°C | 0% | 0hPa | 2.7V | 00:00:00 | 00:00:00 | 00:00:00 | |
| DL1XH-15 | 2026-09-03 12:52:26 | 52.45981 | 11.41289 | 111° | 46km/h | 17943m | -15.5m/s | -52.8°C | 3.1% | 80.7hPa | 2.7V | 03:01:03 | 02:20:43 | 00:00:00 | |
| AA1-15 | 2026-09-03 12:52:26 | 52.45968 | 11.41352 | 106° | 35km/h | 17882m | -16m/s | -52.7°C | 0% | 81.4hPa | 2.6V | 03:01:31 | 02:20:47 | 00:00:00 | |
| DF8AY | 2026-09-03 12:52:24 | 52.45970 | 11.41338 | 107° | 38km/h | 17897m | -15.9m/s | -52.7°C | 0% | 81.2hPa | 2.6V | 03:01:31 | 02:20:46 | 00:00:00 | |
| HSKMA3-T | 2026-09-03 12:52:19 | 52.45991 | 11.41253 | 117° | 51km/h | 17974m | -15.8m/s | -52.8°C | 0% | 80.3hPa | 2.7V | 03:01:31 | 02:20:41 | 00:00:00 | |
| DO2SHX-10 | 2026-09-03 12:52:19 | 52.45991 | 11.41253 | 117° | 49km/h | 17974m | -15.7m/s | -52.8°C | 3.1% | 80.2hPa | 2.7V | 00:00:00 | 02:20:41 | 00:00:00 | |
| GOEST3-10 | 2026-09-03 12:52:18 | 52.45997 | 11.41234 | 118° | 44km/h | 17990m | -15.1m/s | -52.8°C | 3.1% | 80.0hPa | 2.7V | 00:00:00 | 02:20:40 | 00:00:00 | |
| DL1NUX | 2026-09-03 12:52:17 | 52.46034 | 11.41144 | 134° | 37km/h | 18083m | -15m/s | -53.2°C | 3.1% | 78.9hPa | 2.7V | 03:01:12 | 02:20:34 | 00:00:00 | |
| DL1XH-west | 2026-09-03 12:52:15 | 52.46015 | 11.41183 | 124° | 44km/h | 18037m | -16.4m/s | -53.1°C | 0% | 79.5hPa | 2.7V | 03:01:31 | 02:20:37 | 00:00:00 | |
| DL1XH-15 | 2026-09-03 12:52:15 | 52.46040 | 11.41134 | 135° | 35km/h | 18098m | -15.2m/s | -53.2°C | 3.1% | 78.7hPa | 2.5V | 03:01:13 | 02:20:33 | 00:00:00 | |
| AA1-15 | 2026-09-03 12:52:14 | 52.46021 | 11.41169 | 128° | 42km/h | 18053m | -15.8m/s | -53.1°C | 0% | 79.3hPa | 2.7V | 03:01:31 | 02:20:36 | 00:00:00 | |
| DF8AY | 2026-09-03 12:52:14 | 52.46028 | 11.41156 | 131° | 38km/h | 18069m | -15.1m/s | -53.2°C | 0% | 79.1hPa | 2.7V | 03:01:31 | 02:20:35 | 00:00:00 | |
| SMARD9-15 | 2026-09-03 12:52:14 | 52.46028 | 11.41156 | 131° | 38km/h | 18069m | -15.1m/s | -53.2°C | 0.7% | 79.1hPa | 2.7V | 00:00:00 | 00:00:00 | 00:00:00 | |
| EDDB2-12 | 2026-09-03 12:52:13 | 52.46034 | 11.41144 | 134° | 37km/h | 18083m | -15.0m/s | -53.2°C | 0.7% | 78.9hPa | 2.7V | 00:00:00 | 00:00:00 | 00:00:00 | |
| GOEST3-10 | 2026-09-03 12:52:12 | 52.46034 | 11.41144 | 135° | 33km/h | 18084m | -14.9m/s | -53.1°C | 3.1% | 78.8hPa | 2.7V | 03:01:00 | 00:00:00 | 00:00:00 | |
| DO2SHX-10 | 2026-09-03 12:52:10 | 52.46047 | 11.41124 | 137° | 31km/h | 18113m | -14.5m/s | -53.1°C | 3.1% | 78.5hPa | 2.6V | 00:00:00 | 02:20:32 | 00:00:00 | |
| DM0DOS-11 | 2026-09-03 12:52:09 | 52.46080 | 11.41066 | 129° | 33km/h | 18203m | -16.4m/s | -53.2°C | 3.1% | 77.4hPa | 2.6V | 03:01:20 | 02:20:26 | 00:00:00 | |
| HSKMA3-T | 2026-09-03 12:52:08 | 52.46058 | 11.41106 | 135° | 31km/h | 18142m | -15.3m/s | -53.1°C | 0% | 78.1hPa | 2.7V | 03:01:31 | 02:20:30 | 00:00:00 | |
| DL1NUX | 2026-09-03 12:52:07 | 52.46090 | 11.41045 | 124° | 33km/h | 18234m | -16.3m/s | -53.4°C | 3.2% | 77hPa | 2.7V | 03:01:22 | 02:20:24 | 00:00:00 | |
| DO2SHX-10 | 2026-09-03 12:52:07 | 52.46063 | 11.41097 | 136° | 33km/h | 18158m | -14.9m/s | -53.0°C | 3.1% | 77.9hPa | 2.7V | 00:00:00 | 02:20:29 | 00:00:00 | |
| DL1XH-15 | 2026-09-03 12:52:06 | 52.46094 | 11.41034 | 128° | 31km/h | 18251m | -16m/s | -53.5°C | 3.1% | 76.9hPa | 2.7V | 03:01:23 | 02:20:23 | 00:00:00 | |
| DL1XH1-15 | 2026-09-03 12:52:05 | 52.46099 | 11.41024 | 129° | 33km/h | 18266m | -16.1m/s | -53.5°C | 3.2% | 76.6hPa | 2.7V | 03:01:24 | 02:20:22 | 00:00:00 | |
| DL1XH-west | 2026-09-03 12:52:05 | 52.46079 | 11.41066 | 129° | 33km/h | 18203m | -16.4m/s | -53.2°C | 0% | 77.4hPa | 2.6V | 03:01:31 | 02:20:26 | 00:00:00 | |
| DF8AY | 2026-09-03 12:52:03 | 52.46085 | 11.41056 | 127° | 33km/h | 18219m | -16.1m/s | -53.3°C | 0% | 77.2hPa | 2.7V | 03:01:31 | 02:20:25 | 00:00:00 | |
| DD8BA-10 | 2026-09-03 12:52:03 | 52.46084 | 11.41056 | 127° | 29km/h | 18219m | -16.1m/s | -53.2°C | 3.1% | 77.2hPa | 2.7V | 00:00:00 | 00:00:00 | 00:00:00 | |
| GOEST3-10 | 2026-09-03 12:52:02 | 52.46090 | 11.41045 | 125° | 31km/h | 18235m | -16.2m/s | -53.3°C | 3.2% | 77.0hPa | 2.7V | 00:00:00 | 00:00:00 | 00:00:00 | |
| DO2SHX-10 | 2026-09-03 12:52:01 | 52.46094 | 11.41034 | 129° | 31km/h | 18251m | -15.9m/s | -53.4°C | 3.1% | 76.8hPa | 2.7V | 00:00:00 | 02:20:23 | 00:00:00 | |
| DB0UT-7 | 2026-09-03 12:52:00 | 52.46099 | 11.41024 | 130° | 29km/h | 18267m | -16.1m/s | -53.4°C | 3.2% | 76.6hPa | 2.7V | 00:00:00 | 00:00:00 | 00:00:00 | |
| DM0DOS-11 | 2026-09-03 12:51:59 | 52.46127 | 11.40970 | 125° | 24km/h | 18362m | -16.4m/s | -53.5°C | 3.2% | 75.5hPa | 2.7V | 03:01:30 | 02:20:16 | 00:00:00 | |
| HSKMA3-T | 2026-09-03 12:51:58 | 52.46109 | 11.41004 | 132° | 29km/h | 18298m | -15.6m/s | -53.5°C | 0% | 76.3hPa | 2.6V | 03:01:31 | 02:20:20 | 00:00:00 | |
| DO2SHX-10 | 2026-09-03 12:51:58 | 52.46109 | 11.41004 | 132° | 27km/h | 18298m | -15.6m/s | -53.4°C | 3.2% | 76.2hPa | 2.6V | 00:00:00 | 02:20:20 | 00:00:00 | |
| DL1NUX | 2026-09-03 12:51:57 | 52.46133 | 11.40954 | 125° | 22km/h | 18395m | -17m/s | -53.8°C | 3.3% | 75.2hPa | 2.6V | 03:01:32 | 02:20:14 | 00:00:00 | |
| EDDB2-11 | 2026-09-03 12:51:56 | 52.46118 | 11.40987 | 131° | 26km/h | 18330m | -15.5m/s | -53.4°C | 0.6% | 75.9hPa | 2.7V | 00:00:00 | 00:00:00 | 00:00:00 | |
| DB0DAN | 2026-09-03 12:51:55 | 52.46123 | 11.40978 | 128° | 26km/h | 18346m | -16.5m/s | -53.5°C | 0.7% | 75.76hPa | 2.7V | 00:00:00 | 00:00:00 | 00:00:00 | |
| DL1XH-west | 2026-09-03 12:51:54 | 52.46126 | 11.40970 | 126° | 24km/h | 18362m | -16.4m/s | -53.5°C | 0% | 75.5hPa | 2.7V | 03:01:31 | 02:20:16 | 00:00:00 | |
| DL1XH1-15 | 2026-09-03 12:51:53 | 52.46139 | 11.40939 | 117° | 20km/h | 18429m | -17.3m/s | -53.9°C | 3.3% | 74.8hPa | 2.7V | 03:01:34 | 02:20:12 | 00:00:00 | |
| DL1XH-15 | 2026-09-03 12:51:53 | 52.46136 | 11.40947 | 117° | 22km/h | 18412m | -17.5m/s | -53.8°C | 3.3% | 75hPa | 2.7V | 03:01:33 | 02:20:13 | 00:00:00 | |
| AA1-15 | 2026-09-03 12:51:53 | 52.46130 | 11.40962 | 124° | 24km/h | 18379m | -17.2m/s | -53.7°C | 0% | 75.4hPa | 2.6V | 03:01:31 | 02:20:15 | 00:00:00 | |
| SONCRA | 2026-09-03 12:51:52 | 52.46133 | 11.40954 | 125° | 22km/h | 18395m | -17.0m/s | -53.8°C | 0.7% | 75.2hPa | 2.7V | 00:00:00 | 00:00:00 | 00:00:00 | |
| SONDE2-11 | 2026-09-03 12:51:50 | 52.46139 | 11.40939 | 117° | 20km/h | 18429m | -17.3m/s | -53.9°C | 0.7% | 74.8hPa | 2.7V | 00:00:00 | 00:00:00 | 00:00:00 | |
| DM0DOS-11 | 2026-09-03 12:51:49 | 52.46148 | 11.40894 | 109° | 18km/h | 18528m | -16.6m/s | -54.2°C | 3.5% | 73.7hPa | 2.7V | 03:01:40 | 02:20:06 | 00:00:00 | |
| HSKMA3-T | 2026-09-03 12:51:47 | 52.46144 | 11.40917 | 105° | 16km/h | 18479m | -17m/s | -54°C | 0% | 74.2hPa | 2.6V | 03:02:22 | 02:20:09 | 00:00:00 | |
| DL1NUX | 2026-09-03 12:51:47 | 52.46151 | 11.40878 | 104° | 24km/h | 18562m | -17.5m/s | -54.3°C | 3.6% | 73.3hPa | 2.7V | 03:01:42 | 02:20:04 | 00:00:00 | |
| DL1XH-15 | 2026-09-03 12:51:47 | 52.46153 | 11.40868 | 103° | 26km/h | 18579m | -17m/s | -54.4°C | 3.6% | 73hPa | 2.6V | 03:01:43 | 02:20:03 | 00:00:00 | |
| 13BRC | 2026-09-03 12:51:47 | 52.46144 | 11.40917 | 106° | 16km/h | 18479m | -17.0m/s | -54.0°C | 0.7% | 74.2hPa | 2.6V | 03:02:00 | 00:00:00 | 00:00:00 | |
| DO2SHX-10 | 2026-09-03 12:51:46 | 52.46145 | 11.40910 | 105° | 20km/h | 18496m | -16.6m/s | -54.1°C | 3.4% | 73.9hPa | 2.6V | 00:00:00 | 02:20:08 | 00:00:00 | |
| DL1XH1-15 | 2026-09-03 12:51:45 | 52.46155 | 11.40857 | 104° | 27km/h | 18595m | -16.3m/s | -54.4°C | 3.6% | 72.9hPa | 2.6V | 03:01:44 | 02:20:02 | 00:00:00 | |
| AA1-15 | 2026-09-03 12:51:43 | 52.46150 | 11.40887 | 110° | 20km/h | 18545m | -16.6m/s | -54.3°C | 0% | 73.4hPa | 2.7V | 03:02:22 | 02:20:05 | 00:00:00 | |
| DF8AY | 2026-09-03 12:51:42 | 52.46151 | 11.40878 | 105° | 24km/h | 18562m | -17.5m/s | -54.3°C | 0% | 73.3hPa | 2.7V | 03:02:22 | 02:20:04 | 00:00:00 | |
| NBG1-10 | 2026-09-03 12:51:42 | 52.46153 | 11.40868 | 104° | 38km/h | 18579m | -16.9m/s | -54.3°C | 3.6% | 73.0hPa | 2.6V | 00:00:00 | 02:20:03 | 00:00:00 | |
| DO9LL-15 | 2026-09-03 12:51:41 | 52.46153 | 11.40868 | 104° | 22km/h | 18579m | -16.9m/s | -54.3°C | 3.6% | 73.0hPa | 2.6V | 03:01:00 | 02:20:03 | 00:00:00 | |
| DO2SHX-10 | 2026-09-03 12:51:40 | 52.46155 | 11.40857 | 105° | 31km/h | 18595m | -16.2m/s | -54.4°C | 3.6% | 72.8hPa | 2.6V | 03:01:00 | 02:20:02 | 00:00:00 | |
| DM0DOS-11 | 2026-09-03 12:51:39 | 52.46171 | 11.40770 | 109° | 46km/h | 18690m | -16.4m/s | -53.7°C | 3.4% | 71.8hPa | 2.6V | 03:01:50 | 02:19:56 | 00:00:00 | |
| HSKMA3-T | 2026-09-03 12:51:37 | 52.46161 | 11.40819 | 105° | 37km/h | 18643m | -15.7m/s | -54.1°C | 0% | 72.3hPa | 2.7V | 03:02:22 | 02:19:59 | 00:00:00 | |
| DO2SHX-10 | 2026-09-03 12:51:37 | 52.46161 | 11.40819 | 105° | 40km/h | 18643m | -15.6m/s | -54.0°C | 3.5% | 72.3hPa | 2.7V | 00:00:00 | 02:19:59 | 00:00:00 | |
| AM1SDL-15 | 2026-09-03 12:51:36 | 52.46164 | 11.40803 | 108° | 42km/h | 18659m | -15.8m/s | -53.7°C | 3.4% | 72.1hPa | 2.7V | 03:01:00 | 02:19:58 | 00:00:00 | |
| DL1XH-15 | 2026-09-03 12:51:35 | 52.46186 | 11.40719 | 119° | 44km/h | 18738m | -16.4m/s | -53.9°C | 3.5% | 71.2hPa | 2.7V | 03:01:53 | 02:19:53 | 00:00:00 | |
| DL1NUX | 2026-09-03 12:51:35 | 52.46180 | 11.40735 | 118° | 46km/h | 18722m | -16.2m/s | -53.8°C | 3.5% | 71.5hPa | 2.7V | 03:01:52 | 02:19:54 | 00:00:00 | |
| DF8AY-15 | 2026-09-03 12:51:35 | 52.46167 | 11.40787 | 110° | 38km/h | 18674m | -15.7m/s | -53.7°C | 3.4% | 71.9hPa | 2.6V | 03:01:00 | 02:19:57 | 00:00:00 | |
| DO2SHX-10 | 2026-09-03 12:51:34 | 52.46171 | 11.40769 | 110° | 46km/h | 18690m | -16.3m/s | -53.7°C | 3.4% | 71.7hPa | 2.6V | 00:00:00 | 02:19:56 | 00:00:00 | |
| DL1XH1-15 | 2026-09-03 12:51:33 | 52.46191 | 11.40703 | 122° | 44km/h | 18754m | -16.7m/s | -53.9°C | 3.5% | 71hPa | 2.7V | 03:01:54 | 02:19:52 | 00:00:00 | |
| AA1-15 | 2026-09-03 12:51:33 | 52.46175 | 11.40752 | 113° | 47km/h | 18706m | -16.4m/s | -53.8°C | 0% | 71.6hPa | 2.6V | 03:02:22 | 02:19:55 | 00:00:00 | |
| DF8AY | 2026-09-03 12:51:31 | 52.46186 | 11.40719 | 120° | 44km/h | 18738m | -16.4m/s | -53.9°C | 0% | 71.2hPa | 2.7V | 03:02:22 | 02:19:53 | 00:00:00 | |
| DO2SHX-10 | 2026-09-03 12:51:31 | 52.46186 | 11.40719 | 120° | 42km/h | 18738m | -16.3m/s | -53.9°C | 3.5% | 71.2hPa | 2.7V | 00:00:00 | 02:19:53 | 00:00:00 | |
| DB0UT-7 | 2026-09-03 12:51:30 | 52.46192 | 11.40703 | 123° | 33km/h | 18755m | -16.7m/s | -53.9°C | 3.5% | 71.0hPa | 2.7V | 00:00:00 | 02:19:52 | 00:00:00 | |
| DM0DOS-11 | 2026-09-03 12:51:29 | 52.46218 | 11.40623 | 107° | 35km/h | 18852m | -16.1m/s | -53.4°C | 3.5% | 70hPa | 2.7V | 03:02:00 | 02:19:46 | 00:00:00 | |
| HSKMA3-T | 2026-09-03 12:51:27 | 52.46208 | 11.40661 | 119° | 37km/h | 18804m | -16.7m/s | -53.8°C | 0% | 70.5hPa | 2.7V | 03:02:22 | 02:19:49 | 00:00:00 | |
| GOEST3-10 | 2026-09-03 12:51:27 | 52.46208 | 11.40661 | 120° | 35km/h | 18804m | -16.7m/s | -53.7°C | 3.5% | 70.5hPa | 2.7V | 00:00:00 | 02:19:49 | 00:00:00 | |
| DO3MHA-11 | 2026-09-03 12:51:26 | 52.46212 | 11.40648 | 116° | 37km/h | 18820m | -16.4m/s | -53.5°C | 3.5% | 70.3hPa | 2.7V | 00:00:00 | 02:19:48 | 00:00:00 | |
| DL1XH-15 | 2026-09-03 12:51:26 | 52.46225 | 11.40580 | 100° | 37km/h | 18900m | -16m/s | -53.1°C | 3.4% | 69.5hPa | 2.6V | 03:02:03 | 02:19:43 | 00:00:00 | |
| DL1XH1-15 | 2026-09-03 12:51:25 | 52.46227 | 11.40565 | 102° | 38km/h | 18916m | -16.4m/s | -53°C | 3.4% | 69.3hPa | 2.7V | 03:02:04 | 02:19:42 | 00:00:00 | |
| AA1-15 | 2026-09-03 12:51:23 | 52.46221 | 11.40609 | 103° | 35km/h | 18868m | -16.2m/s | -53.2°C | 0% | 69.8hPa | 2.6V | 03:02:22 | 02:19:45 | 00:00:00 | |
| DF8AY | 2026-09-03 12:51:21 | 52.46225 | 11.40580 | 101° | 37km/h | 18900m | -16m/s | -53.1°C | 0% | 69.5hPa | 2.6V | 03:02:22 | 02:19:43 | 00:00:00 | |
| SONCRA | 2026-09-03 12:51:21 | 52.46225 | 11.40580 | 100° | 35km/h | 18900m | -16.0m/s | -53.1°C | 0.7% | 69.5hPa | 2.7V | 00:00:00 | 00:00:00 | 00:00:00 | |
| TFSTFS | 2026-09-03 12:51:20 | 52.46225 | 11.40580 | 101° | 37km/h | 18900m | -16.0m/s | -53.1°C | 0.7% | 69.5hPa | 2.7V | 03:02:00 | 00:00:00 | 00:00:00 | |
| DM0DOS-11 | 2026-09-03 12:51:19 | 52.46247 | 11.40475 | 116° | 40km/h | 19016m | -17.2m/s | -51.9°C | 3.1% | 68.2hPa | 2.7V | 03:02:10 | 02:19:36 | 00:00:00 | |
| HSKMA3-T | 2026-09-03 12:51:17 | 52.46235 | 11.40520 | 111° | 38km/h | 18965m | -17.1m/s | -52.8°C | 0% | 68.8hPa | 2.6V | 03:02:22 | 02:19:39 | 00:00:00 | |
| DL1NUX | 2026-09-03 12:51:17 | 52.46256 | 11.40447 | 117° | 37km/h | 19050m | -17.8m/s | -51.6°C | 3% | 67.9hPa | 2.6V | 03:02:12 | 02:19:34 | 00:00:00 | |
| GOEST3-10 | 2026-09-03 12:51:17 | 52.46234 | 11.40520 | 112° | 40km/h | 18965m | -17.1m/s | -52.7°C | 3.4% | 68.7hPa | 2.7V | 00:00:00 | 02:19:39 | 00:00:00 | |
| DF7ER-10 | 2026-09-03 12:51:16 | 52.46234 | 11.40520 | 112° | 38km/h | 18965m | -17.1m/s | -52.8°C | 0.7% | 68.8hPa | 2.7V | 03:02:00 | 00:00:00 | 00:00:00 | |
| S3001 | 2026-09-03 12:51:15 | 52.46247 | 11.40475 | 116° | 38km/h | 19016m | -17.2m/s | -51.9°C | 0.6% | 68.2hPa | 2.7V | 00:00:00 | 00:00:00 | 00:00:00 | |
| DO2SHX-10 | 2026-09-03 12:51:13 | 52.46251 | 11.40460 | 116° | 37km/h | 19033m | -17.4m/s | -51.7°C | 3.0% | 68.0hPa | 2.7V | 00:00:00 | 02:19:35 | 00:00:00 | |
| DL1XH1-15 | 2026-09-03 12:51:12 | 52.46264 | 11.40420 | 114° | 35km/h | 19084m | -17.4m/s | -51.5°C | 2.9% | 67.6hPa | 2.7V | 03:02:14 | 02:19:32 | 00:00:00 | |
| AA1-15 | 2026-09-03 12:51:12 | 52.46256 | 11.40447 | 118° | 37km/h | 19050m | -17.8m/s | -51.7°C | 0% | 67.9hPa | 2.6V | 03:02:22 | 02:19:34 | 00:00:00 | |
| DF8AY | 2026-09-03 12:51:10 | 52.46264 | 11.40420 | 114° | 35km/h | 19084m | -17.4m/s | -51.5°C | 0% | 67.6hPa | 2.7V | 03:02:22 | 02:19:32 | 00:00:00 | |
| DB0DAN | 2026-09-03 12:51:10 | 52.46264 | 11.40420 | 114° | 33km/h | 19084m | -17.4m/s | -51.5°C | 0.6% | 67.57hPa | 2.7V | 00:00:00 | 00:00:00 | 00:00:00 | |
| DO2SHX-10 | 2026-09-03 12:51:10 | 52.46264 | 11.40420 | 115° | 31km/h | 19085m | -17.4m/s | -51.4°C | 2.9% | 67.5hPa | 2.6V | 00:00:00 | 02:19:32 | 00:00:00 | |
| DM0DOS-11 | 2026-09-03 12:51:09 | 52.46281 | 11.40362 | 114° | 18km/h | 19186m | -17.6m/s | -51.1°C | 2.8% | 66.5hPa | 2.6V | 03:02:20 | 02:19:26 | 00:00:00 | |
| DL1NUX | 2026-09-03 12:51:07 | 52.46285 | 11.40350 | 114° | 15km/h | 19220m | -17.5m/s | -51.1°C | 2.8% | 66.2hPa | 2.7V | 03:02:22 | 02:19:24 | 00:00:00 | |
| DL1XH-15 | 2026-09-03 12:51:06 | 52.46286 | 11.40344 | 99° | 15km/h | 19238m | -17.5m/s | -51.1°C | 2.8% | 66hPa | 2.7V | 03:02:23 | 02:19:23 | 00:00:00 | |
| HSKMA3-T | 2026-09-03 12:51:06 | 52.46277 | 11.40377 | 121° | 24km/h | 19151m | -17.1m/s | -51.2°C | 0% | 66.9hPa | 2.6V | 03:02:22 | 02:19:28 | 00:00:00 | |
| DL1XH1-15 | 2026-09-03 12:51:05 | 52.46286 | 11.40339 | 90° | 13km/h | 19255m | -17.3m/s | -51.2°C | 2.8% | 65.8hPa | 2.6V | 03:02:24 | 02:19:22 | 00:00:00 | |
| AA1-15 | 2026-09-03 12:51:02 | 52.46285 | 11.40350 | 115° | 15km/h | 19220m | -17.5m/s | -51.1°C | 0% | 66.2hPa | 2.7V | 03:02:22 | 02:19:24 | 00:00:00 | |
| DL1XH-west | 2026-09-03 12:51:01 | 52.46286 | 11.40344 | 99° | 15km/h | 19238m | -17.5m/s | -51.1°C | 0% | 66hPa | 2.7V | 03:03:13 | 02:19:23 | 00:00:00 | |
| DF8AY | 2026-09-03 12:51:00 | 52.46286 | 11.40339 | 90° | 13km/h | 19255m | -17.3m/s | -51.2°C | 0% | 65.8hPa | 2.6V | 03:03:13 | 02:19:22 | 00:00:00 | |
| HTAHTA | 2026-09-03 12:50:59 | 52.46286 | 11.40333 | 89° | 15km/h | 19272m | -18.0m/s | -51.4°C | 0.5% | 65.7hPa | 2.7V | 00:00:00 | 00:00:00 | 00:00:00 | |
| DO2SHX-10 | 2026-09-03 12:50:58 | 52.46286 | 11.40326 | 75° | 20km/h | 19290m | -16.7m/s | -51.4°C | 2.9% | 65.4hPa | 2.7V | 00:00:00 | 02:19:20 | 00:00:00 | |
| DL1NUX | 2026-09-03 12:50:57 | 52.46275 | 11.40276 | 74° | 24km/h | 19393m | -17.7m/s | -52.2°C | 3% | 64.4hPa | 2.7V | 03:02:32 | 02:19:14 | 00:00:00 | |
| GOEST3-10 | 2026-09-03 12:50:57 | 52.46284 | 11.40319 | 68° | 22km/h | 19306m | -17.5m/s | -51.5°C | 2.9% | 65.2hPa | 2.7V | 00:00:00 | 02:19:19 | 00:00:00 | |
| DL1XH-15 | 2026-09-03 12:50:56 | 52.46274 | 11.40267 | 83° | 22km/h | 19411m | -17.7m/s | -52.4°C | 3.1% | 64.3hPa | 2.7V | 03:02:33 | 02:19:13 | 00:00:00 | |
| HSKMA3-T | 2026-09-03 12:50:55 | 52.46280 | 11.40303 | 68° | 24km/h | 19341m | -17.6m/s | -51.8°C | 0% | 64.9hPa | 2.5V | 03:03:13 | 02:19:17 | 00:00:00 | |
| AA1-15 | 2026-09-03 12:50:51 | 52.46274 | 11.40266 | 83° | 22km/h | 19411m | -17.7m/s | -52.4°C | 0% | 64.3hPa | 2.7V | 03:03:13 | 02:19:13 | 00:00:00 | |
| DL1XH-west | 2026-09-03 12:50:51 | 52.46273 | 11.40258 | 83° | 22km/h | 19428m | -16.7m/s | -52.5°C | 0% | 64hPa | 2.6V | 03:03:13 | 02:19:12 | 00:00:00 | |
| DF8AY | 2026-09-03 12:50:49 | 52.46273 | 11.40248 | 88° | 24km/h | 19444m | -16.7m/s | -52.5°C | 0% | 63.9hPa | 2.6V | 03:03:13 | 02:19:11 | 00:00:00 | |
| DM0DOS-11 | 2026-09-03 12:50:49 | 52.46277 | 11.40180 | 96° | 31km/h | 19546m | -16.8m/s | -52.6°C | 3.2% | 62.9hPa | 2.7V | 03:02:41 | 02:19:05 | 00:00:00 | |
| DO2SHX-10 | 2026-09-03 12:50:49 | 52.46273 | 11.40248 | 89° | 24km/h | 19445m | -16.7m/s | -52.4°C | 3.1% | 63.9hPa | 2.6V | 00:00:00 | 02:19:11 | 00:00:00 | |
| AM1SDL-15 | 2026-09-03 12:50:48 | 52.46273 | 11.40238 | 93° | 27km/h | 19461m | -15.6m/s | -52.5°C | 3.2% | 63.7hPa | 2.7V | 03:02:00 | 02:19:10 | 00:00:00 | |
| DL1NUX | 2026-09-03 12:50:47 | 52.46278 | 11.40167 | 98° | 31km/h | 19563m | -17.6m/s | -52.7°C | 3.2% | 62.8hPa | 2.7V | 03:02:42 | 02:19:04 | 00:00:00 | |
| DL1XH-15 | 2026-09-03 12:50:46 | 52.46280 | 11.40154 | 99° | 31km/h | 19579m | -17.4m/s | -52.8°C | 3.3% | 62.6hPa | 2.7V | 03:02:43 | 02:19:03 | 00:00:00 | |
| DO2SHX-10 | 2026-09-03 12:50:46 | 52.46274 | 11.40217 | 96° | 29km/h | 19494m | -17.0m/s | -52.4°C | 3.1% | 63.4hPa | 2.6V | 00:00:00 | 02:19:08 | 00:00:00 | |
| DL1XH1-15 | 2026-09-03 12:50:45 | 52.46281 | 11.40142 | 106° | 27km/h | 19597m | -18m/s | -52.8°C | 3.3% | 62.5hPa | 2.6V | 03:02:44 | 02:19:02 | 00:00:00 | |
| HSKMA3-T | 2026-09-03 12:50:44 | 52.46277 | 11.40180 | 97° | 31km/h | 19546m | -16.8m/s | -52.6°C | 0% | 62.9hPa | 2.7V | 03:03:13 | 02:19:05 | 00:00:00 | |
| DL1XH-west | 2026-09-03 12:50:40 | 52.46282 | 11.40142 | 107° | 27km/h | 19597m | -18m/s | -52.8°C | 0% | 62.5hPa | 2.6V | 03:03:13 | 02:19:02 | 00:00:00 | |
| DB0DAN | 2026-09-03 12:50:40 | 52.46282 | 11.40142 | 107° | 27km/h | 19597m | -18m/s | -52.8°C | 0.6% | 62.48hPa | 2.6V | 00:00:00 | 00:00:00 | 00:00:00 | |
| DF8AY | 2026-09-03 12:50:38 | 52.46286 | 11.40121 | 107° | 27km/h | 19632m | -17.6m/s | -52.7°C | 0% | 62.1hPa | 2.7V | 03:03:13 | 02:19:00 | 00:00:00 | |
| DM0DOS-11 | 2026-09-03 12:50:38 | 52.46294 | 11.40078 | 102° | 27km/h | 19700m | -18.3m/s | -52.2°C | 3.1% | 61.4hPa | 2.6V | 03:02:50 | 02:18:56 | 00:00:00 | |
| DL1NUX | 2026-09-03 12:50:37 | 52.46297 | 11.40053 | 92° | 37km/h | 19736m | -18.1m/s | -52.3°C | 3.1% | 61.1hPa | 2.7V | 03:02:52 | 02:18:54 | 00:00:00 | |
| HSKMA3-T | 2026-09-03 12:50:34 | 52.46294 | 11.40078 | 103° | 27km/h | 19700m | -18.3m/s | -52.2°C | 0% | 61.4hPa | 2.6V | 03:03:13 | 02:18:56 | 00:00:00 | |
| DL1XH-15 | 2026-09-03 12:50:33 | 52.46297 | 11.40038 | 88° | 37km/h | 19754m | -18.1m/s | -52.4°C | 3.2% | 61hPa | 2.7V | 03:02:53 | 02:18:53 | 00:00:00 | |
| DD8BA-10 | 2026-09-03 12:50:33 | 52.46296 | 11.40066 | 100° | 38km/h | 19719m | -17.9m/s | -52.2°C | 3.1% | 61.2hPa | 2.6V | 00:00:00 | 00:00:00 | 00:00:00 | |
| DL1XH1-15 | 2026-09-03 12:50:32 | 52.46296 | 11.40022 | 86° | 40km/h | 19772m | -18.4m/s | -52.4°C | 3.2% | 60.8hPa | 2.6V | 03:02:54 | 02:18:52 | 00:00:00 | |
| AA1-15 | 2026-09-03 12:50:29 | 52.46296 | 11.40006 | 83° | 42km/h | 19790m | -18m/s | -52.3°C | 0% | 60.6hPa | 2.6V | 03:03:13 | 02:18:51 | 00:00:00 | |
| DF8AY | 2026-09-03 12:50:28 | 52.46295 | 11.39889 | 104° | 37km/h | 19911m | -17m/s | -52.2°C | 0% | 59.5hPa | 2.7V | 03:03:13 | 02:18:44 | 00:00:00 | |
| DL1NUX | 2026-09-03 12:50:27 | 52.46296 | 11.39889 | 103° | 37km/h | 19911m | -17m/s | -52.2°C | 3.2% | 59.5hPa | 2.7V | 03:03:02 | 02:18:44 | 00:00:00 | |
| DL1XH-15 | 2026-09-03 12:50:27 | 52.46298 | 11.39875 | 109° | 33km/h | 19929m | -18.1m/s | -52°C | 3.1% | 59.3hPa | 2.7V | 03:03:03 | 02:18:43 | 00:00:00 | |
| DB0DAN | 2026-09-03 12:50:25 | 52.46292 | 11.39937 | 89° | 40km/h | 19860m | -17.9m/s | -52.1°C | 0.6% | 59.97hPa | 2.6V | 00:00:00 | 00:00:00 | 00:00:00 | |
| DL1XH1-15 | 2026-09-03 12:50:25 | 52.46301 | 11.39862 | 112° | 33km/h | 19946m | -18.5m/s | -52°C | 3.1% | 59.2hPa | 2.6V | 03:03:04 | 02:18:42 | 00:00:00 | |
| HSKMA3-T | 2026-09-03 12:50:23 | 52.46293 | 11.39904 | 99° | 38km/h | 19894m | -17.7m/s | -52.2°C | 0% | 59.6hPa | 2.7V | 03:03:13 | 02:18:45 | 00:00:00 | |
| DL1XH-west | 2026-09-03 12:50:19 | 52.46304 | 11.39850 | 115° | 31km/h | 19965m | -18.7m/s | -52°C | 0% | 59hPa | 2.6V | 03:03:13 | 02:18:41 | 00:00:00 | |
| DO2SHX-10 | 2026-09-03 12:50:19 | 52.46304 | 11.39850 | 115° | 31km/h | 19965m | -18.6m/s | -52.0°C | 3.1% | 58.9hPa | 2.6V | 00:00:00 | 02:18:41 | 00:00:00 | |
| DM0DOS-11 | 2026-09-03 12:50:18 | 52.46317 | 11.39791 | 100° | 33km/h | 20056m | -18.1m/s | -51.7°C | 3.1% | 58.2hPa | 2.6V | 03:03:10 | 02:18:36 | 00:00:00 | |
| DL1NUX | 2026-09-03 12:50:17 | 52.46320 | 11.39764 | 104° | 33km/h | 20092m | -18.2m/s | -51.4°C | 3% | 57.8hPa | 2.7V | 03:03:12 | 02:18:34 | 00:00:00 | |
| GOEST3-10 | 2026-09-03 12:50:17 | 52.46310 | 11.39827 | 111° | 31km/h | 20002m | -18.6m/s | -52.0°C | 3.1% | 58.6hPa | 2.7V | 00:00:00 | 02:18:39 | 00:00:00 | |
| DL1XH-15 | 2026-09-03 12:50:16 | 52.46322 | 11.39751 | 104° | 31km/h | 20110m | -18m/s | -51.2°C | 2.9% | 57.7hPa | 2.7V | 03:03:13 | 02:18:33 | 00:00:00 | |
| HSKMA3-T | 2026-09-03 12:50:13 | 52.46320 | 11.39764 | 104° | 33km/h | 20092m | -18.2m/s | -51.4°C | 0% | 57.8hPa | 2.7V | 03:03:13 | 02:18:34 | 00:00:00 | |
| DL1XH1-15 | 2026-09-03 12:50:13 | 52.46325 | 11.39739 | 110° | 31km/h | 20128m | -18.4m/s | -51.3°C | 2.9% | 57.5hPa | 2.6V | 03:03:14 | 02:18:32 | 00:00:00 | |
| DF7ER-10 | 2026-09-03 12:50:12 | 52.46320 | 11.39764 | 105° | 33km/h | 20092m | -18.2m/s | -51.4°C | 0.6% | 57.8hPa | 2.6V | 03:03:00 | 00:00:00 | 00:00:00 | |
| DB0DAN | 2026-09-03 12:50:10 | 52.46324 | 11.39739 | 111° | 29km/h | 20128m | -18.4m/s | -51.3°C | 0.5% | 57.54hPa | 2.6V | 00:00:00 | 00:00:00 | 00:00:00 | |
| AA1-15 | 2026-09-03 12:50:08 | 52.46330 | 11.39714 | 109° | 29km/h | 20165m | -18.4m/s | -51.5°C | 0% | 57.2hPa | 2.7V | 03:04:04 | 02:18:30 | 00:00:00 | |
| DL1XH-west | 2026-09-03 12:50:08 | 52.46332 | 11.39703 | 108° | 26km/h | 20183m | -18.4m/s | -51.5°C | 0% | 57.1hPa | 2.7V | 03:04:04 | 02:18:29 | 00:00:00 | |
| DL1NUX | 2026-09-03 12:50:07 | 52.46338 | 11.39652 | 93° | 26km/h | 20271m | -17.7m/s | -51.5°C | 3% | 56.2hPa | 2.7V | 03:03:22 | 02:18:24 | 00:00:00 | |
| DM0DOS-11 | 2026-09-03 12:50:07 | 52.46337 | 11.39672 | 99° | 24km/h | 20236m | -17.8m/s | -51.3°C | 2.9% | 56.5hPa | 2.6V | 03:03:20 | 02:18:26 | 00:00:00 | |
| DL1XH-15 | 2026-09-03 12:50:06 | 52.46338 | 11.39640 | 91° | 31km/h | 20289m | -19.3m/s | -51.5°C | 3% | 56.1hPa | 2.7V | 03:03:23 | 02:18:23 | 00:00:00 | |
| DO3MHA-11 | 2026-09-03 12:50:06 | 52.46334 | 11.39692 | 106° | 27km/h | 20201m | -17.5m/s | -51.4°C | 3.0% | 56.8hPa | 2.7V | 00:00:00 | 02:18:28 | 00:00:00 | |
| DL1XH1-15 | 2026-09-03 12:50:05 | 52.46339 | 11.39627 | 91° | 31km/h | 20308m | -18.7m/s | -51.5°C | 3% | 55.9hPa | 2.6V | 03:03:24 | 02:18:22 | 00:00:00 | |
| HSKMA3-T | 2026-09-03 12:50:01 | 52.46338 | 11.39640 | 91° | 31km/h | 20289m | -19.3m/s | -51.5°C | 0% | 56.1hPa | 2.7V | 03:04:04 | 02:18:23 | 00:00:00 | |
| DO2SHX-10 | 2026-09-03 12:50:01 | 52.46338 | 11.39640 | 92° | 31km/h | 20290m | -19.3m/s | -51.5°C | 3.0% | 56.1hPa | 2.6V | 00:00:00 | 02:18:23 | 00:00:00 | |
| DB0UT-7 | 2026-09-03 12:50:00 | 52.46338 | 11.39627 | 92° | 27km/h | 20308m | -18.7m/s | -51.5°C | 3.0% | 55.9hPa | 2.6V | 00:00:00 | 00:00:00 | 00:00:00 | |
| NBG1-10 | 2026-09-03 12:49:59 | 52.46339 | 11.39615 | 94° | 26km/h | 20326m | -18.4m/s | -51.5°C | 3.0% | 55.7hPa | 2.6V | 00:00:00 | 02:18:21 | 00:00:00 | |
| DO2SHX-10 | 2026-09-03 12:49:58 | 52.46340 | 11.39602 | 96° | 31km/h | 20344m | -18.1m/s | -51.5°C | 3.0% | 55.6hPa | 2.6V | 00:00:00 | 02:18:20 | 00:00:00 | |
| DM0DOS-11 | 2026-09-03 12:49:57 | 52.46344 | 11.39553 | 96° | 27km/h | 20416m | -17.9m/s | -51.1°C | 2.9% | 55hPa | 2.6V | 03:03:30 | 02:18:16 | 00:00:00 | |
| AA1-15 | 2026-09-03 12:49:57 | 52.46341 | 11.39589 | 94° | 29km/h | 20362m | -18.1m/s | -51.5°C | 0% | 55.5hPa | 2.7V | 03:04:04 | 02:18:19 | 00:00:00 | |
| DL1NUX | 2026-09-03 12:49:57 | 52.46347 | 11.39530 | 100° | 31km/h | 20452m | -18m/s | -51.1°C | 3% | 54.7hPa | 2.7V | 03:03:32 | 02:18:14 | 00:00:00 | |
| DL1CLM-18 | 2026-09-03 12:49:56 | 52.46340 | 11.39589 | 95° | 29km/h | 20362m | -18.1m/s | -51.5°C | 0.5% | 55.5hPa | 2.6V | 00:00:00 | 00:00:00 | 00:00:00 | |
| DB0DAN | 2026-09-03 12:49:55 | 52.46343 | 11.39565 | 97° | 27km/h | 20398m | -19.2m/s | -51.2°C | 0.5% | 55.18hPa | 2.6V | 00:00:00 | 00:00:00 | 00:00:00 | |
| DD8BA-10 | 2026-09-03 12:49:53 | 52.46345 | 11.39542 | 105° | 33km/h | 20434m | -18.5m/s | -51.1°C | 3.0% | 54.8hPa | 2.7V | 00:00:00 | 00:00:00 | 00:00:00 | |
| DL1XH-15 | 2026-09-03 12:49:52 | 52.46348 | 11.39518 | 99° | 33km/h | 20470m | -18.9m/s | -51.1°C | 2.9% | 54.6hPa | 2.7V | 03:03:33 | 02:18:13 | 00:00:00 | |
| DF8AY | 2026-09-03 12:49:52 | 52.46350 | 11.39504 | 104° | 35km/h | 20488m | -19m/s | -51°C | 0% | 54.4hPa | 2.6V | 03:04:04 | 02:18:12 | 00:00:00 | |
| HSKMA3-T | 2026-09-03 12:49:51 | 52.46348 | 11.39518 | 100° | 33km/h | 20470m | -18.9m/s | -51.1°C | 0% | 54.6hPa | 2.7V | 03:04:04 | 02:18:13 | 00:00:00 | |
| SP3WXH-11 | 2026-09-03 12:49:51 | 52.46350 | 11.39504 | 103° | 35km/h | 20488m | -19.0m/s | -51.0°C | 0.5% | 54.4hPa | 2.6V | 00:00:00 | 00:00:00 | 00:00:00 | |
| SONCRA | 2026-09-03 12:49:48 | 52.46358 | 11.39464 | 113° | 33km/h | 20542m | -17.9m/s | -50.5°C | 0.5% | 54.0hPa | 2.6V | 00:00:00 | 00:00:00 | 00:00:00 | |
| DM0DOS-11 | 2026-09-03 12:49:47 | 52.46369 | 11.39424 | 118° | 31km/h | 20597m | -18.3m/s | -50.9°C | 2.8% | 53.5hPa | 2.6V | 03:03:40 | 02:18:06 | 00:00:00 | |
| AA1-15 | 2026-09-03 12:49:47 | 52.46358 | 11.39464 | 113° | 35km/h | 20542m | -17.9m/s | -50.5°C | 0% | 54hPa | 2.7V | 03:04:04 | 02:18:09 | 00:00:00 | |
| DL1NUX | 2026-09-03 12:49:47 | 52.46376 | 11.39404 | 122° | 26km/h | 20633m | -19.1m/s | -51.1°C | 2.9% | 53.2hPa | 2.7V | 03:03:42 | 02:18:04 | 00:00:00 | |
| DL1XH-15 | 2026-09-03 12:49:46 | 52.46380 | 11.39395 | 125° | 26km/h | 20651m | -18.1m/s | -51.2°C | 2.9% | 53hPa | 2.7V | 03:03:43 | 02:18:03 | 00:00:00 | |
| HSKMA3-T | 2026-09-03 12:49:41 | 52.46380 | 11.39395 | 126° | 26km/h | 20651m | -18.1m/s | -51.2°C | 0% | 53.1hPa | 2.7V | 03:04:04 | 02:18:03 | 00:00:00 | |
| DB0DAN | 2026-09-03 12:49:40 | 52.46383 | 11.39387 | 129° | 18km/h | 20669m | -18.2m/s | -51.2°C | 0.5% | 52.9hPa | 2.6V | 00:00:00 | 00:00:00 | 00:00:00 | |
| DF8AY | 2026-09-03 12:49:40 | 52.46387 | 11.39381 | 131° | 22km/h | 20687m | -18.2m/s | -51.1°C | 0% | 52.8hPa | 2.6V | 03:04:04 | 02:18:01 | 00:00:00 | |
| AA1-15 | 2026-09-03 12:49:37 | 52.46394 | 11.39368 | 139° | 20km/h | 20723m | -18.8m/s | -50.8°C | 0% | 52.5hPa | 2.7V | 03:04:04 | 02:17:59 | 00:00:00 | |
| DL1NUX | 2026-09-03 12:49:37 | 52.46410 | 11.39339 | 116° | 16km/h | 20818m | -19.4m/s | -50.8°C | 2.9% | 51.7hPa | 2.7V | 03:03:52 | 02:17:54 | 00:00:00 | |
| DL1XH-15 | 2026-09-03 12:49:37 | 52.46412 | 11.39333 | 108° | 18km/h | 20837m | -19m/s | -50.9°C | 2.8% | 51.6hPa | 2.7V | 03:03:53 | 02:17:53 | 00:00:00 | |
| DM0DOS-11 | 2026-09-03 12:49:36 | 52.46405 | 11.39351 | 131° | 16km/h | 20781m | -19.5m/s | -50.7°C | 2.8% | 52hPa | 2.6V | 03:03:50 | 02:17:56 | 00:00:00 | |
| DL1XH-west | 2026-09-03 12:49:34 | 52.46405 | 11.39351 | 131° | 16km/h | 20781m | -19.5m/s | -50.7°C | 0% | 52hPa | 2.6V | 03:04:04 | 02:17:56 | 00:00:00 | |
| HSKMA3-T | 2026-09-03 12:49:31 | 52.46412 | 11.39333 | 109° | 18km/h | 20837m | -19m/s | -50.9°C | 0% | 51.6hPa | 2.7V | 03:04:04 | 02:17:53 | 00:00:00 | |
| DO2SHX-10 | 2026-09-03 12:49:31 | 52.46412 | 11.39333 | 109° | 16km/h | 20838m | -19.0m/s | -50.9°C | 2.8% | 51.5hPa | 2.6V | 00:00:00 | 02:17:53 | 00:00:00 | |
| DB0UT-7 | 2026-09-03 12:49:30 | 52.46413 | 11.39327 | 101° | 22km/h | 20856m | -19.1m/s | -50.9°C | 2.9% | 51.4hPa | 2.6V | 00:00:00 | 02:17:52 | 00:00:00 | |
| DM0DOS-11 | 2026-09-03 12:49:29 | 52.46422 | 11.39278 | 111° | 26km/h | 20968m | -19.3m/s | -51.2°C | 2.9% | 50.5hPa | 2.6V | 03:04:00 | 02:17:46 | 00:00:00 | |
| DF8AY | 2026-09-03 12:49:28 | 52.46425 | 11.39269 | 121° | 26km/h | 20987m | -19.4m/s | -51.3°C | 0% | 50.4hPa | 2.7V | 03:04:04 | 02:17:45 | 00:00:00 | |
| AA1-15 | 2026-09-03 12:49:27 | 52.46416 | 11.39306 | 102° | 22km/h | 20911m | -19.2m/s | -51.1°C | 0% | 51hPa | 2.7V | 03:04:04 | 02:17:49 | 00:00:00 | |
| MECKS9 | 2026-09-03 12:49:26 | 52.46416 | 11.39305 | 103° | 22km/h | 20911m | -19.2m/s | -51.1°C | 0.5% | 51.0hPa | 2.6V | 00:00:00 | 00:00:00 | 00:00:00 | |
| DB0DAN | 2026-09-03 12:49:25 | 52.46420 | 11.39288 | 109° | 24km/h | 20949m | -19.3m/s | -51.2°C | 0.5% | 50.69hPa | 2.6V | 00:00:00 | 00:00:00 | 00:00:00 | |
| DL1XH-west | 2026-09-03 12:49:25 | 52.46422 | 11.39278 | 111° | 26km/h | 20968m | -19.3m/s | -51.2°C | 0% | 50.5hPa | 2.6V | 03:04:04 | 02:17:46 | 00:00:00 | |
| DL4XJ-10 | 2026-09-03 12:49:24 | 52.46422 | 11.39278 | 112° | 24km/h | 20968m | -19.3m/s | -49.6°C | 0% | 0hPa | 2.7V | 00:00:00 | 00:00:00 | 00:00:00 | |
| DL1XH-15 | 2026-09-03 12:49:22 | 52.46432 | 11.39250 | 116° | 29km/h | 21024m | -18.7m/s | -51.3°C | 2.9% | 50.1hPa | 2.7V | 03:04:03 | 02:17:43 | 00:00:00 | |
| HSKMA3-T | 2026-09-03 12:49:21 | 52.46432 | 11.39250 | 117° | 29km/h | 21024m | -18.7m/s | -51.3°C | 0% | 50.1hPa | 2.7V | 03:04:04 | 02:17:43 | 00:00:00 | |
| GOEST3-10 | 2026-09-03 12:49:21 | 52.46432 | 11.39249 | 117° | 27km/h | 21024m | -18.7m/s | -51.3°C | 2.9% | 50.1hPa | 2.6V | 00:00:00 | 00:00:00 | 00:00:00 | |
| SP3WXH-11 | 2026-09-03 12:49:20 | 52.46440 | 11.39230 | 127° | 27km/h | 21062m | -18.9m/s | -51.4°C | 0.5% | 49.8hPa | 2.6V | 00:00:00 | 00:00:00 | 00:00:00 | |
| DM0DOS-11 | 2026-09-03 12:49:19 | 52.46456 | 11.39187 | 117° | 20km/h | 21157m | -19.7m/s | -51.4°C | 2.9% | 49.1hPa | 2.6V | 03:04:10 | 02:17:36 | 00:00:00 | |
| DO2SHX-10 | 2026-09-03 12:49:19 | 52.46440 | 11.39230 | 128° | 27km/h | 21062m | -18.8m/s | -51.4°C | 2.9% | 49.8hPa | 2.6V | 00:00:00 | 02:17:41 | 00:00:00 | |
| DL1NUX | 2026-09-03 12:49:18 | 52.46459 | 11.39173 | 98° | 16km/h | 21195m | -19.3m/s | -51.4°C | 2.9% | 48.8hPa | 2.7V | 03:04:12 | 02:17:34 | 00:00:00 | |
| AA1-15 | 2026-09-03 12:49:17 | 52.46448 | 11.39211 | 121° | 22km/h | 21099m | -19.6m/s | -51.5°C | 0% | 49.5hPa | 2.7V | 03:04:55 | 02:17:39 | 00:00:00 | |
| DL1XH-west | 2026-09-03 12:49:14 | 52.46456 | 11.39187 | 117° | 20km/h | 21157m | -19.7m/s | -51.4°C | 0% | 49.1hPa | 2.6V | 03:04:55 | 02:17:36 | 00:00:00 | |
| DL1XH1-15 | 2026-09-03 12:49:13 | 52.46460 | 11.39159 | 95° | 18km/h | 21234m | -20m/s | -51.6°C | 3% | 48.5hPa | 2.6V | 03:04:14 | 02:17:32 | 00:00:00 | |
| HSKMA3-T | 2026-09-03 12:49:10 | 52.46459 | 11.39159 | 96° | 18km/h | 21234m | -20m/s | -51.7°C | 0% | 48.5hPa | 2.6V | 03:04:55 | 02:17:32 | 00:00:00 | |
| DO2SHX-10 | 2026-09-03 12:49:10 | 52.46459 | 11.39159 | 96° | 20km/h | 21235m | -20.0m/s | -51.6°C | 3.0% | 48.5hPa | 2.6V | 00:00:00 | 02:17:32 | 00:00:00 | |
| DM0DOS-11 | 2026-09-03 12:49:09 | 52.46464 | 11.39111 | 96° | 24km/h | 21352m | -20.2m/s | -52.1°C | 3.1% | 47.7hPa | 2.6V | 03:04:20 | 02:17:26 | 00:00:00 | |
| DL1NUX | 2026-09-03 12:49:07 | 52.46465 | 11.39092 | 97° | 22km/h | 21390m | -19.3m/s | -52.1°C | 3.1% | 47.3hPa | 2.6V | 03:04:22 | 02:17:24 | 00:00:00 | |
| AA1-15 | 2026-09-03 12:49:06 | 52.46462 | 11.39127 | 104° | 18km/h | 21313m | -20.4m/s | -52°C | 0% | 48hPa | 2.7V | 03:04:55 | 02:17:28 | 00:00:00 | |
| DL1XH-west | 2026-09-03 12:49:04 | 52.46464 | 11.39111 | 96° | 24km/h | 21352m | -20.2m/s | -52.2°C | 0% | 47.7hPa | 2.6V | 03:04:55 | 02:17:26 | 00:00:00 | |
| HSKMA3-T | 2026-09-03 12:49:00 | 52.46467 | 11.39075 | 97° | 22km/h | 21429m | -21.1m/s | -52.1°C | 0% | 47.1hPa | 2.7V | 03:04:55 | 02:17:22 | 00:00:00 | |
| DB0UT-7 | 2026-09-03 12:49:00 | 52.46467 | 11.39075 | 98° | 16km/h | 21429m | -21.1m/s | -52.0°C | 3.1% | 47.0hPa | 2.7V | 00:00:00 | 00:00:00 | 00:00:00 | |
| 13BRC | 2026-09-03 12:48:59 | 52.46467 | 11.39075 | 98° | 22km/h | 21429m | -21.1m/s | -52.1°C | 0.5% | 47.1hPa | 2.7V | 03:04:00 | 00:00:00 | 00:00:00 | |
| DO2SHX-10 | 2026-09-03 12:48:58 | 52.46468 | 11.39056 | 98° | 24km/h | 21469m | -20.2m/s | -52.1°C | 3.2% | 46.7hPa | 2.7V | 00:00:00 | 02:17:20 | 00:00:00 | |
| DM0DOS-11 | 2026-09-03 12:48:57 | 52.46472 | 11.39019 | 106° | 22km/h | 21547m | -20.6m/s | -52°C | 3% | 46.2hPa | 2.7V | 03:04:30 | 02:17:16 | 00:00:00 | |
| DL1NUX | 2026-09-03 12:48:57 | 52.46477 | 11.39003 | 121° | 24km/h | 21587m | -20.7m/s | -51.7°C | 3% | 45.9hPa | 2.6V | 03:04:32 | 02:17:14 | 00:00:00 | |
| DF8AY | 2026-09-03 12:48:55 | 52.46471 | 11.39028 | 102° | 22km/h | 21527m | -20.3m/s | -52°C | 0% | 46.4hPa | 2.7V | 03:04:55 | 02:17:17 | 00:00:00 | |
| DL1XH-west | 2026-09-03 12:48:53 | 52.46474 | 11.39011 | 116° | 22km/h | 21567m | -20.5m/s | -51.8°C | 0% | 46.1hPa | 2.7V | 03:04:55 | 02:17:15 | 00:00:00 | |
| NBG1-10 | 2026-09-03 12:48:53 | 52.46474 | 11.39011 | 117° | 16km/h | 21567m | -20.5m/s | -51.8°C | 3.0% | 46.0hPa | 2.6V | 03:04:00 | 02:17:15 | 00:00:00 | |
| DL1XH-15 | 2026-09-03 12:48:52 | 52.46480 | 11.38995 | 125° | 24km/h | 21607m | -21.2m/s | -51.5°C | 2.9% | 45.8hPa | 2.6V | 03:04:33 | 02:17:13 | 00:00:00 | |
| EDDB2-11 | 2026-09-03 12:48:50 | 52.46484 | 11.38987 | 127° | 26km/h | 21628m | -20.8m/s | -51.4°C | 0.5% | 45.7hPa | 2.7V | 00:00:00 | 00:00:00 | 00:00:00 | |
| HSKMA3-T | 2026-09-03 12:48:50 | 52.46484 | 11.38987 | 128° | 26km/h | 21627m | -20.8m/s | -51.4°C | 0% | 45.7hPa | 2.7V | 03:04:55 | 02:17:12 | 00:00:00 | |
| DO2SHX-10 | 2026-09-03 12:48:49 | 52.46488 | 11.38980 | 134° | 26km/h | 21648m | -20.9m/s | -51.4°C | 2.9% | 45.5hPa | 2.7V | 00:00:00 | 02:17:11 | 00:00:00 | |
| DM0DOS-11 | 2026-09-03 12:48:47 | 52.46512 | 11.38953 | 159° | 16km/h | 21752m | -21.1m/s | -51.8°C | 3% | 44.8hPa | 2.7V | 03:04:40 | 02:17:06 | 00:00:00 | |
| DL1NUX | 2026-09-03 12:48:47 | 52.46519 | 11.38951 | 179° | 11km/h | 21795m | -20.2m/s | -51.8°C | 2.9% | 44.5hPa | 2.7V | 03:04:42 | 02:17:04 | 00:00:00 | |
| DL1XH-15 | 2026-09-03 12:48:47 | 52.46522 | 11.38951 | 182° | 11km/h | 21815m | -20.6m/s | -51.8°C | 2.9% | 44.4hPa | 2.6V | 03:04:43 | 02:17:03 | 00:00:00 | |
| AA1-15 | 2026-09-03 12:48:45 | 52.46508 | 11.38956 | 153° | 18km/h | 21731m | -21.9m/s | -51.7°C | 0% | 45hPa | 2.7V | 03:04:55 | 02:17:07 | 00:00:00 | |
| DL1XH1-15 | 2026-09-03 12:48:45 | 52.46525 | 11.38951 | 182° | 11km/h | 21836m | -21.4m/s | -51.8°C | 2.9% | 44.3hPa | 2.6V | 03:04:44 | 02:17:02 | 00:00:00 | |
| DF8AY | 2026-09-03 12:48:44 | 52.46512 | 11.38953 | 160° | 18km/h | 21753m | -21.1m/s | -51.8°C | 0% | 44.8hPa | 2.7V | 03:04:55 | 02:17:06 | 00:00:00 | |
| DL1XH-west | 2026-09-03 12:48:43 | 52.46516 | 11.38951 | 170° | 13km/h | 21774m | -21.4m/s | -51.8°C | 0% | 44.7hPa | 2.7V | 03:04:55 | 02:17:05 | 00:00:00 | |
| HSKMA3-T | 2026-09-03 12:48:40 | 52.46525 | 11.38951 | 183° | 11km/h | 21836m | -21.4m/s | -51.8°C | 0% | 44.3hPa | 2.6V | 03:04:55 | 02:17:02 | 00:00:00 | |
| DB0DAN | 2026-09-03 12:48:40 | 52.46525 | 11.38951 | 182° | 9km/h | 21836m | -21.4m/s | -51.8°C | 0.5% | 44.27hPa | 2.6V | 00:00:00 | 00:00:00 | 00:00:00 | |
| 13BRC | 2026-09-03 12:48:39 | 52.46527 | 11.38951 | 201° | 9km/h | 21856m | -20.9m/s | -51.9°C | 0.5% | 44.1hPa | 2.7V | 03:04:00 | 00:00:00 | 00:00:00 | |
| DL1NUX | 2026-09-03 12:48:38 | 52.46529 | 11.38947 | 46° | 9km/h | 22000m | -21.1m/s | -52.2°C | 3.1% | 43.1hPa | 2.7V | 03:04:52 | 02:16:54 | 00:00:00 | |
| DL1XH-15 | 2026-09-03 12:48:36 | 52.46527 | 11.38944 | 35° | 11km/h | 22021m | -20.8m/s | -52.4°C | 3.1% | 43hPa | 2.7V | 03:04:53 | 02:16:53 | 00:00:00 | |
| AA1-15 | 2026-09-03 12:48:34 | 52.46531 | 11.38952 | 78° | 5km/h | 21959m | -21.2m/s | -52.1°C | 0% | 43.4hPa | 2.6V | 03:04:55 | 02:16:56 | 00:00:00 | |
| DL1XH1-15 | 2026-09-03 12:48:33 | 52.46526 | 11.38941 | 36° | 11km/h | 22041m | -20.5m/s | -52.5°C | 3.2% | 42.9hPa | 2.7V | 03:04:54 | 02:16:52 | 00:00:00 | |
| DL1XH-west | 2026-09-03 12:48:33 | 52.46529 | 11.38947 | 47° | 9km/h | 22000m | -21.1m/s | -52.3°C | 0% | 43.1hPa | 2.7V | 03:04:55 | 02:16:54 | 00:00:00 | |
| HSKMA3-T | 2026-09-03 12:48:29 | 52.46523 | 11.38938 | 30° | 11km/h | 22061m | -19.6m/s | -52.7°C | 0% | 42.8hPa | 2.6V | 03:04:55 | 02:16:51 | 00:00:00 | |
| DL1NUX | 2026-09-03 12:48:27 | 52.46501 | 11.38902 | 58° | 20km/h | 22205m | -21.1m/s | -52.5°C | 3.2% | 41.8hPa | 2.6V | 03:05:02 | 02:16:44 | 00:00:00 | |
| DO2SHX-10 | 2026-09-03 12:48:27 | 52.46517 | 11.38932 | 31° | 18km/h | 22102m | -20.9m/s | -52.8°C | 3.3% | 42.4hPa | 2.6V | 03:04:00 | 02:16:49 | 00:00:00 | |
| DL1XH-15 | 2026-09-03 12:48:26 | 52.46498 | 11.38895 | 57° | 20km/h | 22225m | -21.7m/s | -52.6°C | 3.2% | 41.7hPa | 2.6V | 03:05:03 | 02:16:43 | 00:00:00 | |
| DO3MHA-11 | 2026-09-03 12:48:26 | 52.46514 | 11.38928 | 36° | 18km/h | 22122m | -20.8m/s | -52.7°C | 3.3% | 42.3hPa | 2.7V | 00:00:00 | 02:16:48 | 00:00:00 | |
| DM0DOS-11 | 2026-09-03 12:48:25 | 52.46507 | 11.38916 | 49° | 22km/h | 22163m | -20.6m/s | -52.5°C | 3.3% | 42hPa | 2.7V | 03:05:00 | 02:16:46 | 00:00:00 | |
| DL1XH1-15 | 2026-09-03 12:48:25 | 52.46496 | 11.38889 | 61° | 18km/h | 22246m | -21.2m/s | -52.6°C | 3.3% | 41.5hPa | 2.7V | 03:05:04 | 02:16:42 | 00:00:00 | |
| DB0DAN | 2026-09-03 12:48:25 | 52.46510 | 11.38923 | 45° | 18km/h | 22143m | -21m/s | -52.7°C | 0.6% | 42.2hPa | 2.7V | 00:00:00 | 00:00:00 | 00:00:00 | |
| DF8AY | 2026-09-03 12:48:23 | 52.46504 | 11.38909 | 53° | 22km/h | 22184m | -21m/s | -52.4°C | 0% | 42hPa | 2.6V | 03:05:46 | 02:16:45 | 00:00:00 | |
| DL1XH-west | 2026-09-03 12:48:21 | 52.46498 | 11.38895 | 58° | 20km/h | 22225m | -21.7m/s | -52.6°C | 0% | 41.7hPa | 2.6V | 03:05:46 | 02:16:43 | 00:00:00 | |
| HSKMA3-T | 2026-09-03 12:48:18 | 52.46494 | 11.38877 | 80° | 15km/h | 22289m | -21.8m/s | -52.6°C | 0% | 41.3hPa | 2.7V | 03:05:46 | 02:16:40 | 00:00:00 | |
| 13BRC | 2026-09-03 12:48:17 | 52.46493 | 11.38877 | 81° | 15km/h | 22289m | -21.8m/s | -52.6°C | 0.6% | 41.3hPa | 2.7V | 03:05:00 | 00:00:00 | 00:00:00 | |
| DO3MHA-11 | 2026-09-03 12:48:16 | 52.46492 | 11.38864 | 77° | 20km/h | 22333m | -21.6m/s | -52.3°C | 3.1% | 40.9hPa | 2.7V | 03:05:00 | 02:16:38 | 00:00:00 | |
| DM0DOS-11 | 2026-09-03 12:48:15 | 52.46490 | 11.38849 | 79° | 18km/h | 22376m | -22.1m/s | -52.1°C | 3.1% | 40.8hPa | 2.7V | 03:05:10 | 02:16:36 | 00:00:00 | |
| SONCRA | 2026-09-03 12:48:15 | 52.46490 | 11.38849 | 79° | 18km/h | 22376m | -22.1m/s | -52.1°C | 0.5% | 40.8hPa | 2.7V | 00:00:00 | 00:00:00 | 00:00:00 | |
| DL1XH-15 | 2026-09-03 12:48:14 | 52.46486 | 11.38827 | 69° | 20km/h | 22439m | -22.4m/s | -51.5°C | 2.9% | 40.3hPa | 2.7V | 03:05:13 | 02:16:33 | 00:00:00 | |
| DL1XH1-15 | 2026-09-03 12:48:13 | 52.46485 | 11.38818 | 72° | 20km/h | 22461m | -22.1m/s | -51.5°C | 2.9% | 40.2hPa | 2.6V | 03:05:14 | 02:16:32 | 00:00:00 | |
| DF8AY | 2026-09-03 12:48:12 | 52.46488 | 11.38834 | 69° | 18km/h | 22418m | -21.1m/s | -51.7°C | 0% | 40.5hPa | 2.7V | 03:05:46 | 02:16:34 | 00:00:00 | |
| DL1XH-west | 2026-09-03 12:48:10 | 52.46485 | 11.38818 | 73° | 20km/h | 22461m | -22.1m/s | -51.5°C | 0% | 40.2hPa | 2.6V | 03:05:46 | 02:16:32 | 00:00:00 | |
| HSKMA3-T | 2026-09-03 12:48:07 | 52.46480 | 11.38790 | 76° | 24km/h | 22527m | -22.3m/s | -51.4°C | 0% | 39.8hPa | 2.7V | 03:05:46 | 02:16:29 | 00:00:00 | |
| DL1NUX | 2026-09-03 12:48:07 | 52.46477 | 11.38733 | 93° | 31km/h | 22635m | -21.1m/s | -51.9°C | 3.1% | 39.2hPa | 2.6V | 03:05:22 | 02:16:24 | 00:00:00 | |
| DO3MHA-11 | 2026-09-03 12:48:07 | 52.46479 | 11.38780 | 78° | 31km/h | 22549m | -21.2m/s | -51.4°C | 2.9% | 39.6hPa | 2.7V | 00:00:00 | 02:16:28 | 00:00:00 | |
| DO2SHX-10 | 2026-09-03 12:48:06 | 52.46479 | 11.38780 | 78° | 27km/h | 22549m | -21.2m/s | -51.4°C | 2.9% | 39.6hPa | 2.7V | 00:00:00 | 02:16:28 | 00:00:00 | |
| DM0DOS-11 | 2026-09-03 12:48:05 | 52.46477 | 11.38757 | 87° | 29km/h | 22592m | -22.3m/s | -51.6°C | 3% | 39.4hPa | 2.7V | 03:05:20 | 02:16:26 | 00:00:00 | |
| DL1XH1-15 | 2026-09-03 12:48:05 | 52.46479 | 11.38705 | 98° | 35km/h | 22677m | -21.7m/s | -52.1°C | 3.1% | 38.9hPa | 2.7V | 03:05:24 | 02:16:22 | 00:00:00 | |
| AA1-15 | 2026-09-03 12:48:02 | 52.46477 | 11.38733 | 93° | 31km/h | 22635m | -21.1m/s | -51.9°C | 0% | 39.2hPa | 2.6V | 03:05:46 | 02:16:24 | 00:00:00 | |
| DF8AY | 2026-09-03 12:48:01 | 52.46478 | 11.38719 | 96° | 33km/h | 22656m | -21.7m/s | -52°C | 0% | 39hPa | 2.7V | 03:05:46 | 02:16:23 | 00:00:00 | |
| DL1XH-west | 2026-09-03 12:48:00 | 52.46479 | 11.38705 | 99° | 35km/h | 22677m | -21.7m/s | -52.1°C | 0% | 38.9hPa | 2.7V | 03:05:46 | 02:16:22 | 00:00:00 | |
| DB0UT-7 | 2026-09-03 12:48:00 | 52.46479 | 11.38705 | 99° | 18km/h | 22678m | -21.6m/s | -52.1°C | 3.1% | 38.9hPa | 2.7V | 00:00:00 | 00:00:00 | 00:00:00 | |
| DM0DOS-11 | 2026-09-03 12:47:59 | 52.46491 | 11.38628 | 113° | 26km/h | 22805m | -21.7m/s | -52.1°C | 3.1% | 38.1hPa | 2.7V | 03:05:30 | 02:16:16 | 00:00:00 | |
| DL1NUX | 2026-09-03 12:47:57 | 52.46497 | 11.38611 | 128° | 22km/h | 22848m | -21.6m/s | -52.1°C | 3.1% | 37.9hPa | 2.7V | 03:05:32 | 02:16:14 | 00:00:00 | |
| HSKMA3-T | 2026-09-03 12:47:56 | 52.46487 | 11.38650 | 104° | 29km/h | 22763m | -22.2m/s | -52.1°C | 0% | 38.4hPa | 2.6V | 03:05:46 | 02:16:18 | 00:00:00 | |
| DB0DAN | 2026-09-03 12:47:55 | 52.46489 | 11.38638 | 106° | 26km/h | 22784m | -21.8m/s | -52.1°C | 0.5% | 38.25hPa | 2.6V | 00:00:00 | 00:00:00 | 00:00:00 | |
| DF8AY-15 | 2026-09-03 12:47:55 | 52.46488 | 11.38638 | 107° | 15km/h | 22785m | -21.8m/s | -52.1°C | 3.1% | 38.2hPa | 2.7V | 00:00:00 | 02:16:17 | 00:00:00 | |
| DL1XH-15 | 2026-09-03 12:47:54 | 52.46500 | 11.38604 | 125° | 20km/h | 22870m | -22m/s | -52°C | 3.1% | 37.7hPa | 2.7V | 03:05:33 | 02:16:13 | 00:00:00 | |
| AA1-15 | 2026-09-03 12:47:52 | 52.46497 | 11.38611 | 128° | 22km/h | 22848m | -21.6m/s | -52.1°C | 0% | 37.9hPa | 2.7V | 03:05:46 | 02:16:14 | 00:00:00 | |
| DF8AY | 2026-09-03 12:47:51 | 52.46500 | 11.38604 | 126° | 20km/h | 22870m | -22m/s | -52°C | 0% | 37.7hPa | 2.7V | 03:05:46 | 02:16:13 | 00:00:00 | |
| DL1XH-west | 2026-09-03 12:47:49 | 52.46507 | 11.38592 | 140° | 20km/h | 22913m | -22.7m/s | -52°C | 0% | 37.5hPa | 2.6V | 03:05:46 | 02:16:11 | 00:00:00 | |
| DO2SHX-10 | 2026-09-03 12:47:48 | 52.46512 | 11.38587 | 149° | 18km/h | 22936m | -23.3m/s | -51.9°C | 3.1% | 37.3hPa | 2.6V | 00:00:00 | 02:16:10 | 00:00:00 | |
| DL1NUX | 2026-09-03 12:47:47 | 52.46535 | 11.38572 | 168° | 11km/h | 23068m | -21.7m/s | -51.7°C | 3.1% | 36.6hPa | 2.6V | 03:05:42 | 02:16:04 | 00:00:00 | |
| SP3WXH-11 | 2026-09-03 12:47:47 | 52.46520 | 11.38580 | 149° | 18km/h | 22980m | -23.2m/s | -51.5°C | 0.5% | 37.1hPa | 2.6V | 00:00:00 | 00:00:00 | 00:00:00 | |
| DL1XH-15 | 2026-09-03 12:47:46 | 52.46537 | 11.38571 | 159° | 9km/h | 23090m | -22.6m/s | -51.7°C | 3.1% | 36.5hPa | 2.6V | 03:05:43 | 02:16:03 | 00:00:00 | |
| HSKMA3-T | 2026-09-03 12:47:45 | 52.46524 | 11.38577 | 157° | 16km/h | 23002m | -22m/s | -51.5°C | 0% | 37hPa | 2.7V | 03:05:46 | 02:16:07 | 00:00:00 | |
| DL1XH1-15 | 2026-09-03 12:47:45 | 52.46539 | 11.38570 | 139° | 4km/h | 23112m | -22m/s | -51.7°C | 3.1% | 36.4hPa | 2.7V | 03:05:44 | 02:16:02 | 00:00:00 | |
| DJ2DS-15 | 2026-09-03 12:47:44 | 52.46528 | 11.38574 | 158° | 11km/h | 23025m | -22.7m/s | -51.6°C | 0.5% | 36.9hPa | 2.6V | 00:00:00 | 00:00:00 | 00:00:00 | |
| AA1-15 | 2026-09-03 12:47:42 | 52.46535 | 11.38572 | 169° | 11km/h | 23068m | -21.7m/s | -51.7°C | 0% | 36.6hPa | 2.6V | 03:05:46 | 02:16:04 | 00:00:00 | |
| DF8AY | 2026-09-03 12:47:42 | 52.46537 | 11.38571 | 160° | 9km/h | 23090m | -22.6m/s | -51.7°C | 0% | 36.5hPa | 2.6V | 03:05:46 | 02:16:03 | 00:00:00 | |
| DL1XH-west | 2026-09-03 12:47:39 | 52.46540 | 11.38569 | 135° | 4km/h | 23134m | -22.3m/s | -51.8°C | 0% | 36.2hPa | 2.7V | 03:05:46 | 02:16:01 | 00:00:00 | |
| DO2SHX-10 | 2026-09-03 12:47:39 | 52.46540 | 11.38569 | 135° | 4km/h | 23134m | -22.3m/s | -51.7°C | 3.1% | 36.2hPa | 2.7V | 03:05:00 | 02:16:01 | 00:00:00 | |
| DL4XJ-10 | 2026-09-03 12:47:38 | 52.46541 | 11.38567 | 94° | 15km/h | 23156m | -22.3m/s | -50.2°C | 0% | 0hPa | 2.7V | 00:00:00 | 00:00:00 | 00:00:00 | |
| DL1NUX | 2026-09-03 12:47:37 | 52.46541 | 11.38544 | 95° | 18km/h | 23286m | -21.8m/s | -52.1°C | 3.1% | 35.4hPa | 2.7V | 03:05:52 | 02:15:54 | 00:00:00 | |
| DM0DOS-11 | 2026-09-03 12:47:36 | 52.46541 | 11.38556 | 86° | 13km/h | 23243m | -22.6m/s | -52.1°C | 3.2% | 35.6hPa | 2.6V | 03:05:50 | 02:15:56 | 00:00:00 | |
| HSKMA3-T | 2026-09-03 12:47:34 | 52.46541 | 11.38556 | 86° | 13km/h | 23243m | -22.6m/s | -52.1°C | 0% | 35.6hPa | 2.6V | 03:06:37 | 02:15:56 | 00:00:00 | |
| DL1XH-15 | 2026-09-03 12:47:34 | 52.46542 | 11.38537 | 100° | 18km/h | 23307m | -21.5m/s | -52.1°C | 3.1% | 35.3hPa | 2.7V | 03:05:53 | 02:15:53 | 00:00:00 | |
| DJ8HS-15 | 2026-09-03 12:47:34 | 52.46541 | 11.38556 | 87° | 18km/h | 23244m | -22.6m/s | -52.0°C | 3.2% | 35.6hPa | 2.7V | 00:00:00 | 02:15:56 | 00:00:00 | |
| DL1XH1-15 | 2026-09-03 12:47:33 | 52.46544 | 11.38529 | 106° | 24km/h | 23328m | -22.5m/s | -52.1°C | 3.2% | 35.2hPa | 2.7V | 03:05:54 | 02:15:52 | 00:00:00 | |
| AA1-15 | 2026-09-03 12:47:31 | 52.46542 | 11.38537 | 101° | 18km/h | 23307m | -21.5m/s | -52.1°C | 0% | 35.3hPa | 2.7V | 03:06:37 | 02:15:53 | 00:00:00 | |
| DF8AY | 2026-09-03 12:47:30 | 52.46543 | 11.38529 | 107° | 24km/h | 23328m | -22.5m/s | -52.1°C | 0% | 35.2hPa | 2.7V | 03:06:37 | 02:15:52 | 00:00:00 | |
| DL1XH-west | 2026-09-03 12:47:28 | 52.46548 | 11.38512 | 122° | 26km/h | 23373m | -24.9m/s | -52°C | 0% | 34.9hPa | 2.6V | 03:06:37 | 02:15:50 | 00:00:00 | |
| DL1NUX | 2026-09-03 12:47:27 | 52.46574 | 11.38475 | 150° | 20km/h | 23515m | -22.8m/s | -51.2°C | 3% | 34.2hPa | 2.7V | 03:06:02 | 02:15:44 | 00:00:00 | |
| DO2SHX-10 | 2026-09-03 12:47:27 | 52.46551 | 11.38504 | 123° | 22km/h | 23398m | -24.9m/s | -51.8°C | 3.2% | 34.7hPa | 2.6V | 03:05:00 | 02:15:49 | 00:00:00 | |
| DL1XH-15 | 2026-09-03 12:47:26 | 52.46579 | 11.38472 | 150° | 18km/h | 23538m | -23.7m/s | -51.2°C | 3% | 34.1hPa | 2.6V | 03:06:03 | 02:15:43 | 00:00:00 | |
| DM0DOS-11 | 2026-09-03 12:47:26 | 52.46564 | 11.38485 | 141° | 26km/h | 23469m | -23.6m/s | -51.3°C | 3% | 34.4hPa | 2.7V | 03:06:00 | 02:15:46 | 00:00:00 | |
| DO3MHA-11 | 2026-09-03 12:47:26 | 52.46555 | 11.38497 | 134° | 18km/h | 23422m | -24.9m/s | -51.6°C | 3.1% | 34.6hPa | 2.6V | 00:00:00 | 02:15:48 | 00:00:00 | |
| DL1XH1-15 | 2026-09-03 12:47:25 | 52.46582 | 11.38468 | 147° | 15km/h | 23561m | -23.2m/s | -51.3°C | 3% | 33.9hPa | 2.6V | 03:06:04 | 02:15:42 | 00:00:00 | |
| HSKMA3-T | 2026-09-03 12:47:23 | 52.46569 | 11.38480 | 142° | 24km/h | 23492m | -23.2m/s | -51.3°C | 0% | 34.3hPa | 2.7V | 03:06:37 | 02:15:45 | 00:00:00 | |
| AA1-15 | 2026-09-03 12:47:21 | 52.46578 | 11.38472 | 150° | 18km/h | 23538m | -23.7m/s | -51.2°C | 0% | 34.1hPa | 2.6V | 03:06:37 | 02:15:43 | 00:00:00 | |
| DF8AY | 2026-09-03 12:47:19 | 52.46586 | 11.38466 | 145° | 11km/h | 23585m | -23.9m/s | -51.4°C | 0% | 33.8hPa | 2.7V | 03:06:37 | 02:15:41 | 00:00:00 | |
| DL1XH-west | 2026-09-03 12:47:18 | 52.46590 | 11.38462 | 126° | 7km/h | 23632m | -24.9m/s | -51.5°C | 0% | 33.6hPa | 2.7V | 03:06:37 | 02:15:39 | 00:00:00 | |
| DO2SHX-10 | 2026-09-03 12:47:18 | 52.46588 | 11.38464 | 149° | 5km/h | 23609m | -24.2m/s | -51.4°C | 3.1% | 33.7hPa | 2.7V | 00:00:00 | 02:15:40 | 00:00:00 | |
| EDDB2-11 | 2026-09-03 12:47:17 | 52.46591 | 11.38461 | 114° | 4km/h | 23657m | -24.2m/s | -51.5°C | 0.5% | 33.5hPa | 2.7V | 00:00:00 | 00:00:00 | 00:00:00 | |
| SP3WXH-11 | 2026-09-03 12:47:16 | 52.46591 | 11.38459 | 98° | 5km/h | 23680m | -23.4m/s | -51.6°C | 0.5% | 33.3hPa | 2.7V | 00:00:00 | 00:00:00 | 00:00:00 | |
| DO2SHX-10 | 2026-09-03 12:47:15 | 52.46591 | 11.38459 | 99° | 7km/h | 23681m | -23.4m/s | -51.5°C | 3.1% | 33.3hPa | 2.7V | 03:06:00 | 02:15:37 | 00:00:00 | |
| DL1XH-15 | 2026-09-03 12:47:14 | 52.46594 | 11.38447 | 117° | 9km/h | 23771m | -23.5m/s | -51.5°C | 3.1% | 32.8hPa | 2.7V | 03:06:13 | 02:15:33 | 00:00:00 | |
| DJ8HS-15 | 2026-09-03 12:47:14 | 52.46592 | 11.38456 | 93° | 15km/h | 23703m | -22.9m/s | -51.6°C | 3.2% | 33.2hPa | 2.7V | 00:00:00 | 02:15:36 | 00:00:00 | |
| DL1XH1-15 | 2026-09-03 12:47:13 | 52.46595 | 11.38443 | 121° | 15km/h | 23795m | -23.7m/s | -51.5°C | 3.1% | 32.7hPa | 2.6V | 03:06:14 | 02:15:32 | 00:00:00 | |
| HSKMA3-T | 2026-09-03 12:47:12 | 52.46593 | 11.38450 | 106° | 7km/h | 23749m | -23.2m/s | -51.5°C | 0% | 33hPa | 2.7V | 03:06:37 | 02:15:34 | 00:00:00 | |
| AA1-15 | 2026-09-03 12:47:10 | 52.46595 | 11.38443 | 122° | 15km/h | 23795m | -23.7m/s | -51.5°C | 0% | 32.7hPa | 2.6V | 03:06:37 | 02:15:32 | 00:00:00 | |
| DB0DAN | 2026-09-03 12:47:10 | 52.46595 | 11.38443 | 122° | 13km/h | 23795m | -23.7m/s | -51.5°C | 0.5% | 32.74hPa | 2.6V | 00:00:00 | 00:00:00 | 00:00:00 | |
| DF8AY | 2026-09-03 12:47:09 | 52.46598 | 11.38438 | 121° | 16km/h | 23818m | -23.8m/s | -51.4°C | 0% | 32.6hPa | 2.6V | 03:06:37 | 02:15:31 | 00:00:00 | |
| DL1XH-west | 2026-09-03 12:47:07 | 52.46603 | 11.38423 | 122° | 26km/h | 23864m | -24.2m/s | -51.2°C | 0% | 32.4hPa | 2.7V | 03:06:37 | 02:15:29 | 00:00:00 | |
| DM0DOS-11 | 2026-09-03 12:47:06 | 52.46626 | 11.38377 | 136° | 27km/h | 23982m | -24.2m/s | -50.5°C | 2.9% | 31.8hPa | 2.7V | 03:06:22 | 02:15:24 | 00:00:00 | |
| DO2SHX-10 | 2026-09-03 12:47:06 | 52.46607 | 11.38414 | 123° | 29km/h | 23887m | -24.0m/s | -51.1°C | 3.0% | 32.2hPa | 2.5V | 00:00:00 | 02:15:28 | 00:00:00 | |
| DL1XH1-15 | 2026-09-03 12:47:05 | 52.46637 | 11.38365 | 149° | 24km/h | 24031m | -24.5m/s | -50.1°C | 2.8% | 31.6hPa | 2.5V | 03:06:24 | 02:15:22 | 00:00:00 | |
| HSKMA3-T | 2026-09-03 12:47:01 | 52.46631 | 11.38371 | 144° | 24km/h | 24006m | -24.9m/s | -50.3°C | 0% | 31.7hPa | 2.7V | 03:06:37 | 02:15:23 | 00:00:00 | |
| AA1-15 | 2026-09-03 12:47:00 | 52.46637 | 11.38365 | 150° | 24km/h | 24031m | -24.5m/s | -50.2°C | 0% | 31.6hPa | 2.5V | 03:06:37 | 02:15:22 | 00:00:00 | |
| DF8AY | 2026-09-03 12:46:58 | 52.46647 | 11.38360 | 182° | 18km/h | 24080m | -24.6m/s | -50.1°C | 0% | 31.4hPa | 2.7V | 03:06:37 | 02:15:20 | 00:00:00 | |
| DL1XH-west | 2026-09-03 12:46:56 | 52.46656 | 11.38361 | 195° | 11km/h | 24129m | -24m/s | -50.3°C | 0% | 31.1hPa | 2.7V | 03:06:37 | 02:15:18 | 00:00:00 | |
| DL1XH-15 | 2026-09-03 12:46:56 | 52.46664 | 11.38365 | 134° | 4km/h | 24243m | -23.1m/s | -50.2°C | 2.9% | 30.6hPa | 2.7V | 03:06:33 | 02:15:13 | 00:00:00 | |
| DM0DOS-11 | 2026-09-03 12:46:56 | 52.46664 | 11.38365 | 180° | 4km/h | 24220m | -23.3m/s | -50.3°C | 2.9% | 30.6hPa | 2.7V | 03:06:32 | 02:15:14 | 00:00:00 | |
| DB0DAN | 2026-09-03 12:46:55 | 52.46658 | 11.38362 | 201° | 9km/h | 24152m | -23.3m/s | -50.4°C | 0.4% | 31.01hPa | 2.7V | 00:00:00 | 00:00:00 | 00:00:00 | |
| HSKMA3-T | 2026-09-03 12:46:51 | 52.46664 | 11.38365 | 134° | 4km/h | 24243m | -23.1m/s | -50.2°C | 0% | 30.6hPa | 2.7V | 03:06:37 | 02:15:13 | 00:00:00 | |
| AA1-15 | 2026-09-03 12:46:49 | 52.46666 | 11.38360 | 105° | 11km/h | 24290m | -24.1m/s | -50.1°C | 0% | 30.4hPa | 2.6V | 03:06:37 | 02:15:11 | 00:00:00 | |
| DF8AY | 2026-09-03 12:46:48 | 52.46667 | 11.38356 | 107° | 13km/h | 24313m | -24.5m/s | -50.2°C | 0% | 30.3hPa | 2.6V | 03:06:37 | 02:15:10 | 00:00:00 | |
| DO2SHX-10 | 2026-09-03 12:46:48 | 52.46667 | 11.38356 | 108° | 15km/h | 24313m | -24.5m/s | -50.2°C | 2.9% | 30.2hPa | 2.7V | 00:00:00 | 02:15:10 | 00:00:00 | |
| DL1CLM-18 | 2026-09-03 12:46:47 | 52.46667 | 11.38356 | 108° | 13km/h | 24313m | -24.5m/s | -50.2°C | 0.4% | 30.3hPa | 2.7V | 03:06:00 | 00:00:00 | 00:00:00 | |
| DL1XH-15 | 2026-09-03 12:46:46 | 52.46679 | 11.38325 | 138° | 13km/h | 24482m | -23.4m/s | -49.6°C | 2.7% | 29.4hPa | 2.7V | 03:06:43 | 02:15:03 | 00:00:00 | |
| DM0DOS-11 | 2026-09-03 12:46:46 | 52.46677 | 11.38328 | 131° | 13km/h | 24459m | -24.1m/s | -49.7°C | 2.8% | 29.6hPa | 2.6V | 03:06:42 | 02:15:04 | 00:00:00 | |
| DL1XH-west | 2026-09-03 12:46:45 | 52.46671 | 11.38341 | 117° | 15km/h | 24385m | -25.8m/s | -50°C | 0% | 29.9hPa | 2.7V | 03:07:28 | 02:15:07 | 00:00:00 | |
| SP3WXH-11 | 2026-09-03 12:46:45 | 52.46673 | 11.38336 | 127° | 13km/h | 24410m | -25.9m/s | -49.9°C | 0.4% | 29.8hPa | 2.7V | 00:00:00 | 00:00:00 | 00:00:00 | |
| HSKMA3-T | 2026-09-03 12:46:41 | 52.46679 | 11.38325 | 139° | 13km/h | 24482m | -23.4m/s | -49.6°C | 0% | 29.4hPa | 2.7V | 03:07:28 | 02:15:03 | 00:00:00 | |
| DB0DAN | 2026-09-03 12:46:40 | 52.46682 | 11.38321 | 147° | 15km/h | 24506m | -24.6m/s | -49.6°C | 0.4% | 29.39hPa | 2.7V | 00:00:00 | 00:00:00 | 00:00:00 | |
| AA1-15 | 2026-09-03 12:46:39 | 52.46686 | 11.38318 | 148° | 16km/h | 24530m | -24.3m/s | -49.6°C | 0% | 29.3hPa | 2.7V | 03:07:28 | 02:15:01 | 00:00:00 | |
| DF8AY | 2026-09-03 12:46:38 | 52.46690 | 11.38315 | 148° | 16km/h | 24555m | -24.7m/s | -49.6°C | 0% | 29.2hPa | 2.6V | 03:07:28 | 02:15:00 | 00:00:00 | |
| DL1XH-west | 2026-09-03 12:46:35 | 52.46705 | 11.38306 | 162° | 15km/h | 24654m | -25.5m/s | -49.9°C | 0% | 28.7hPa | 2.7V | 03:07:28 | 02:14:56 | 00:00:00 | |
| DL1XH-15 | 2026-09-03 12:46:34 | 52.46716 | 11.38303 | 177° | 13km/h | 24726m | -24m/s | -49.4°C | 2.7% | 28.4hPa | 2.6V | 03:06:53 | 02:14:53 | 00:00:00 | |
| DJ8HS-15 | 2026-09-03 12:46:34 | 52.46705 | 11.38306 | 163° | 5km/h | 24655m | -25.5m/s | -49.8°C | 2.9% | 28.7hPa | 2.6V | 03:06:00 | 02:14:56 | 00:00:00 | |
| DM0DOS-11 | 2026-09-03 12:46:33 | 52.46713 | 11.38304 | 169° | 13km/h | 24703m | -23.5m/s | -49.6°C | 2.8% | 28.5hPa | 2.6V | 03:06:52 | 02:14:54 | 00:00:00 | |
| HSKMA3-T | 2026-09-03 12:46:30 | 52.46719 | 11.38303 | 181° | 7km/h | 24749m | -24m/s | -49.4°C | 0% | 28.3hPa | 2.7V | 03:07:28 | 02:14:52 | 00:00:00 | |
| DF8AY | 2026-09-03 12:46:28 | 52.46722 | 11.38305 | 193° | 4km/h | 24798m | -24.3m/s | -49.6°C | 0% | 28.1hPa | 2.7V | 03:07:28 | 02:14:50 | 00:00:00 | |
| DM0DOS-11 | 2026-09-03 12:46:27 | 52.46727 | 11.38315 | 197° | 4km/h | 24941m | -25.6m/s | -49.8°C | 2.9% | 27.5hPa | 2.7V | 03:07:02 | 02:14:44 | 00:00:00 | |
| DO2SHX-10 | 2026-09-03 12:46:27 | 52.46723 | 11.38306 | 219° | 5km/h | 24822m | -23.9m/s | -49.6°C | 2.8% | 27.9hPa | 2.6V | 03:06:00 | 02:14:49 | 00:00:00 | |
| DL1XH-15 | 2026-09-03 12:46:26 | 52.46728 | 11.38316 | 246° | 5km/h | 24966m | -24.8m/s | -49.7°C | 2.9% | 27.4hPa | 2.6V | 03:07:03 | 02:14:43 | 00:00:00 | |
| DL1XH-west | 2026-09-03 12:46:24 | 52.46726 | 11.38311 | 241° | 4km/h | 24893m | -23.6m/s | -49.9°C | 0% | 27.7hPa | 2.7V | 03:07:28 | 02:14:46 | 00:00:00 | |
| HSKMA3-T | 2026-09-03 12:46:19 | 52.46729 | 11.38318 | 306° | 4km/h | 25015m | -23.4m/s | -49.5°C | 0% | 27.2hPa | 2.7V | 03:07:28 | 02:14:41 | 00:00:00 | |
| AA1-15 | 2026-09-03 12:46:18 | 52.46729 | 11.38318 | 18° | 2km/h | 25038m | -24m/s | -49.4°C | 0% | 27.1hPa | 2.7V | 03:07:28 | 02:14:40 | 00:00:00 | |
| DF8AY | 2026-09-03 12:46:17 | 52.46728 | 11.38319 | 327° | 4km/h | 25062m | -23.4m/s | -49.3°C | 0% | 27hPa | 2.7V | 03:07:28 | 02:14:39 | 00:00:00 | |
| DL1XH-west | 2026-09-03 12:46:14 | 52.46723 | 11.38322 | 332° | 13km/h | 25133m | -24.6m/s | -48.7°C | 0% | 26.7hPa | 2.7V | 03:07:28 | 02:14:36 | 00:00:00 | |
| DJ8HS-15 | 2026-09-03 12:46:14 | 52.46723 | 11.38322 | 332° | 20km/h | 25133m | -24.6m/s | -48.7°C | 2.6% | 26.7hPa | 2.7V | 00:00:00 | 02:14:36 | 00:00:00 | |
| DL1NUX | 2026-09-03 12:46:13 | 52.46717 | 11.38326 | 338° | 18km/h | 25181m | -23.9m/s | -48.6°C | 2.6% | 26.5hPa | 2.7V | 03:07:12 | 02:14:34 | 00:00:00 | |
| DL1XH1-15 | 2026-09-03 12:46:12 | 52.46709 | 11.38330 | 342° | 20km/h | 25228m | -23.3m/s | -48.7°C | 2.6% | 26.3hPa | 2.6V | 03:07:14 | 02:14:32 | 00:00:00 | |
| HSKMA3-T | 2026-09-03 12:46:08 | 52.46699 | 11.38333 | 349° | 18km/h | 25276m | -24.5m/s | -48.8°C | 0% | 26.1hPa | 2.7V | 03:07:28 | 02:14:30 | 00:00:00 | |
| AA1-15 | 2026-09-03 12:46:08 | 52.46694 | 11.38334 | 355° | 22km/h | 25300m | -22.8m/s | -48.8°C | 0% | 26hPa | 2.7V | 03:07:28 | 02:14:29 | 00:00:00 | |
| DL1NUX | 2026-09-03 12:46:07 | 52.46667 | 11.38331 | 16° | 22km/h | 25417m | -23.9m/s | -48.2°C | 2.4% | 25.6hPa | 2.7V | 03:07:22 | 02:14:24 | 00:00:00 | |
| DF8AY | 2026-09-03 12:46:07 | 52.46662 | 11.38328 | 17° | 22km/h | 25441m | -23.8m/s | -48.2°C | 0% | 25.5hPa | 2.7V | 03:07:28 | 02:14:23 | 00:00:00 | |
| DL1XH-15 | 2026-09-03 12:46:06 | 52.46662 | 11.38328 | 16° | 22km/h | 25441m | -23.8m/s | -48.2°C | 2.4% | 25.5hPa | 2.7V | 03:07:23 | 02:14:23 | 00:00:00 | |
| DO2SHX-10 | 2026-09-03 12:46:06 | 52.46689 | 11.38334 | 5° | 22km/h | 25323m | -23.8m/s | -48.7°C | 2.6% | 25.9hPa | 2.7V | 00:00:00 | 02:14:28 | 00:00:00 | |
| DL1XH1-15 | 2026-09-03 12:46:05 | 52.46657 | 11.38326 | 14° | 20km/h | 25465m | -24.2m/s | -48.3°C | 2.5% | 25.4hPa | 2.7V | 03:07:24 | 02:14:22 | 00:00:00 | |
| DL1XH-west | 2026-09-03 12:46:04 | 52.46679 | 11.38333 | 3° | 22km/h | 25371m | -23.3m/s | -48.6°C | 0% | 25.8hPa | 2.6V | 03:07:28 | 02:14:26 | 00:00:00 | |
| HSKMA3-T | 2026-09-03 12:45:58 | 52.46648 | 11.38321 | 27° | 20km/h | 25513m | -24.2m/s | -48.6°C | 0% | 25.2hPa | 2.6V | 03:07:28 | 02:14:20 | 00:00:00 | |
| AA1-15 | 2026-09-03 12:45:57 | 52.46643 | 11.38317 | 42° | 22km/h | 25536m | -23.8m/s | -48.7°C | 0% | 25.1hPa | 2.7V | 03:07:28 | 02:14:19 | 00:00:00 | |
| DO2SHX-10 | 2026-09-03 12:45:57 | 52.46643 | 11.38317 | 42° | 22km/h | 25536m | -23.7m/s | -48.6°C | 2.6% | 25.1hPa | 2.7V | 00:00:00 | 02:14:19 | 00:00:00 | |
| DL1XH-15 | 2026-09-03 12:45:56 | 52.46627 | 11.38275 | 70° | 20km/h | 25684m | -25.6m/s | -49.3°C | 2.7% | 24.6hPa | 2.7V | 03:07:33 | 02:14:13 | 00:00:00 | |
| DF8AY | 2026-09-03 12:45:55 | 52.46636 | 11.38304 | 54° | 22km/h | 25585m | -25.1m/s | -49°C | 0% | 24.9hPa | 2.7V | 03:08:19 | 02:14:17 | 00:00:00 | |
| DL1XH-west | 2026-09-03 12:45:53 | 52.46631 | 11.38290 | 65° | 20km/h | 25634m | -24.7m/s | -49.2°C | 0% | 24.7hPa | 2.6V | 03:08:19 | 02:14:15 | 00:00:00 | |
| DL1XH1-15 | 2026-09-03 12:45:52 | 52.46626 | 11.38267 | 78° | 20km/h | 25709m | -25.9m/s | -49.4°C | 2.8% | 24.4hPa | 2.7V | 03:07:34 | 02:14:12 | 00:00:00 | |
| HTAHTA | 2026-09-03 12:45:49 | 52.46622 | 11.38237 | 67° | 11km/h | 25834m | -25.2m/s | -49.5°C | 0.4% | 24.0hPa | 2.6V | 00:00:00 | 00:00:00 | 00:00:00 | |
| DO2SHX-10 | 2026-09-03 12:45:48 | 52.46624 | 11.38252 | 81° | 13km/h | 25761m | -26.1m/s | -49.4°C | 2.8% | 24.2hPa | 2.6V | 00:00:00 | 02:14:10 | 00:00:00 | |
| DL1NUX | 2026-09-03 12:45:47 | 52.46616 | 11.38227 | 34° | 15km/h | 25908m | -24.5m/s | -49.3°C | 2.8% | 23.7hPa | 2.6V | 03:07:42 | 02:14:04 | 00:00:00 | |
| AA1-15 | 2026-09-03 12:45:47 | 52.46624 | 11.38246 | 74° | 13km/h | 25785m | -24.1m/s | -49.5°C | 0% | 24.2hPa | 2.6V | 03:08:19 | 02:14:09 | 00:00:00 | |
| SP3BTT-10 | 2026-09-03 12:45:46 | 52.46623 | 11.38242 | 62° | 15km/h | 25809m | -24.5m/s | -49.5°C | 2.9% | 24.0hPa | 2.7V | 03:07:00 | 00:00:00 | 00:00:00 | |
| DL1XH1-15 | 2026-09-03 12:45:45 | 52.46610 | 11.38220 | 31° | 15km/h | 25958m | -26.9m/s | -48.9°C | 2.7% | 23.6hPa | 2.7V | 03:07:44 | 02:14:02 | 00:00:00 | |
| DL1XH-west | 2026-09-03 12:45:43 | 52.46618 | 11.38230 | 29° | 11km/h | 25884m | -23.9m/s | -49.4°C | 0% | 23.8hPa | 2.7V | 03:08:19 | 02:14:05 | 00:00:00 | |
| DF8AY | 2026-09-03 12:45:42 | 52.46616 | 11.38227 | 35° | 15km/h | 25908m | -24.5m/s | -49.3°C | 0% | 23.7hPa | 2.6V | 03:08:19 | 02:14:04 | 00:00:00 | |
| AA1-15 | 2026-09-03 12:45:36 | 52.46597 | 11.38207 | 33° | 16km/h | 26059m | -26.4m/s | -48.6°C | 0% | 23.2hPa | 2.6V | 03:08:19 | 02:13:58 | 00:00:00 | |
| DL1XH-15 | 2026-09-03 12:45:36 | 52.46582 | 11.38176 | 70° | 22km/h | 26187m | -26.6m/s | -48.9°C | 2.8% | 22.7hPa | 2.6V | 03:07:53 | 02:13:53 | 00:00:00 | |
| DO2SHX-10 | 2026-09-03 12:45:36 | 52.46597 | 11.38207 | 34° | 18km/h | 26059m | -26.3m/s | -48.6°C | 2.7% | 23.2hPa | 2.7V | 00:00:00 | 02:13:58 | 00:00:00 | |
| DF8AY-15 | 2026-09-03 12:45:35 | 52.46593 | 11.38203 | 46° | 16km/h | 26085m | -26.4m/s | -48.5°C | 2.6% | 23.1hPa | 2.7V | 00:00:00 | 02:13:57 | 00:00:00 | |
| DJ8HS-15 | 2026-09-03 12:45:34 | 52.46590 | 11.38197 | 47° | 15km/h | 26111m | -26.2m/s | -48.5°C | 2.6% | 23.0hPa | 2.7V | 00:00:00 | 02:13:56 | 00:00:00 | |
| DL1NUX | 2026-09-03 12:45:33 | 52.46585 | 11.38184 | 63° | 22km/h | 26162m | -25.5m/s | -48.8°C | 2.7% | 22.8hPa | 2.7V | 03:07:52 | 02:13:54 | 00:00:00 | |
| DL1XH-west | 2026-09-03 12:45:33 | 52.46587 | 11.38191 | 56° | 20km/h | 26137m | -25.9m/s | -48.6°C | 0% | 22.9hPa | 2.7V | 03:08:19 | 02:13:55 | 00:00:00 | |
| DF8AY | 2026-09-03 12:45:31 | 52.46583 | 11.38176 | 71° | 22km/h | 26187m | -26.6m/s | -48.9°C | 0% | 22.7hPa | 2.6V | 03:08:19 | 02:13:53 | 00:00:00 | |
| DD8BA-10 | 2026-09-03 12:45:31 | 52.46582 | 11.38176 | 71° | 18km/h | 26188m | -26.6m/s | -48.8°C | 2.8% | 22.7hPa | 2.7V | 00:00:00 | 00:00:00 | 00:00:00 | |
| DB0UT-7 | 2026-09-03 12:45:30 | 52.46581 | 11.38168 | 75° | 13km/h | 26213m | -26.5m/s | -48.9°C | 2.8% | 22.6hPa | 2.7V | 00:00:00 | 02:13:52 | 00:00:00 | |
| EDDB2-12 | 2026-09-03 12:45:29 | 52.46580 | 11.38160 | 76° | 22km/h | 26239m | -26.3m/s | -49.0°C | 0.4% | 22.6hPa | 2.7V | 00:00:00 | 00:00:00 | 00:00:00 | |
| DO2SHX-10 | 2026-09-03 12:45:27 | 52.46579 | 11.38144 | 85° | 16km/h | 26293m | -27.5m/s | -49.0°C | 2.8% | 22.3hPa | 2.7V | 03:07:00 | 02:13:49 | 00:00:00 | |
| DL1XH-15 | 2026-09-03 12:45:26 | 52.46578 | 11.38108 | 79° | 15km/h | 26455m | -26.8m/s | -48.3°C | 2.6% | 21.9hPa | 2.7V | 03:08:03 | 02:13:43 | 00:00:00 | |
| HSKMA3-T | 2026-09-03 12:45:25 | 52.46579 | 11.38131 | 90° | 16km/h | 26346m | -27.7m/s | -48.9°C | 0% | 22.2hPa | 2.6V | 03:08:19 | 02:13:47 | 00:00:00 | |
| DL1XH1-15 | 2026-09-03 12:45:25 | 52.46577 | 11.38102 | 81° | 15km/h | 26481m | -27m/s | -48.1°C | 2.6% | 21.8hPa | 2.6V | 03:08:04 | 02:13:42 | 00:00:00 | |
| NBG1-10 | 2026-09-03 12:45:25 | 52.46579 | 11.38131 | 91° | 15km/h | 26347m | -27.7m/s | -48.8°C | 2.8% | 22.2hPa | 2.6V | 00:00:00 | 02:13:47 | 00:00:00 | |
| DO2SHX-10 | 2026-09-03 12:45:24 | 52.46579 | 11.38125 | 86° | 15km/h | 26374m | -28.1m/s | -48.7°C | 2.8% | 22.1hPa | 2.7V | 00:00:00 | 02:13:46 | 00:00:00 | |
| DM0DOS-11 | 2026-09-03 12:45:23 | 52.46579 | 11.38113 | 81° | 15km/h | 26428m | -26.7m/s | -48.6°C | 2.7% | 21.9hPa | 2.7V | 03:08:02 | 02:13:44 | 00:00:00 | |
| DL1XH-west | 2026-09-03 12:45:22 | 52.46579 | 11.38113 | 82° | 15km/h | 26428m | -26.7m/s | -48.6°C | 0% | 22hPa | 2.7V | 03:08:19 | 02:13:44 | 00:00:00 | |
| DF8AY | 2026-09-03 12:45:20 | 52.46578 | 11.38102 | 81° | 15km/h | 26481m | -27m/s | -48.1°C | 0% | 21.8hPa | 2.6V | 03:08:19 | 02:13:42 | 00:00:00 | |
| DL1XH-15 | 2026-09-03 12:45:18 | 52.46573 | 11.38097 | 11° | 13km/h | 26727m | -29.3m/s | -47.6°C | 2.5% | 21hPa | 2.7V | 03:08:13 | 02:13:33 | 00:00:00 | |
| HSKMA3-T | 2026-09-03 12:45:14 | 52.46577 | 11.38093 | 281° | 4km/h | 26643m | -27.6m/s | -47.5°C | 0% | 21.2hPa | 2.6V | 03:08:19 | 02:13:36 | 00:00:00 | |
| DJ8HS-15 | 2026-09-03 12:45:14 | 52.46577 | 11.38093 | 281° | 13km/h | 26643m | -27.6m/s | -47.4°C | 2.5% | 21.2hPa | 2.6V | 03:08:00 | 02:13:36 | 00:00:00 | |
| DL1NUX | 2026-09-03 12:45:13 | 52.46576 | 11.38097 | 344° | 7km/h | 26698m | -28.4m/s | -47.5°C | 2.6% | 21hPa | 2.7V | 03:08:12 | 02:13:34 | 00:00:00 | |
| EDDB2-11 | 2026-09-03 12:45:13 | 52.46575 | 11.38097 | 344° | 7km/h | 26698m | -28.4m/s | -47.5°C | 0.4% | 21.0hPa | 2.7V | 00:00:00 | 00:00:00 | 00:00:00 | |
| DO2SHX-10 | 2026-09-03 12:45:12 | 52.46575 | 11.38097 | 345° | 11km/h | 26699m | -28.3m/s | -47.5°C | 2.6% | 21.0hPa | 2.7V | 00:00:00 | 02:13:34 | 00:00:00 | |
| DL1XH1-15 | 2026-09-03 12:45:11 | 52.46570 | 11.38096 | 12° | 15km/h | 26755m | -29.6m/s | -47.6°C | 2.5% | 20.9hPa | 2.7V | 03:08:14 | 02:13:32 | 00:00:00 | |
| DL1XH-west | 2026-09-03 12:45:11 | 52.46573 | 11.38097 | 12° | 13km/h | 26727m | -29.3m/s | -47.6°C | 0% | 21hPa | 2.7V | 03:08:19 | 02:13:33 | 00:00:00 | |
| DF8AY | 2026-09-03 12:45:09 | 52.46567 | 11.38095 | 20° | 15km/h | 26785m | -29.8m/s | -47.5°C | 0% | 20.8hPa | 2.6V | 03:08:19 | 02:13:31 | 00:00:00 | |
| DO2SHX-10 | 2026-09-03 12:45:09 | 52.46567 | 11.38095 | 21° | 18km/h | 26785m | -29.8m/s | -47.5°C | 2.5% | 20.7hPa | 2.7V | 00:00:00 | 02:13:31 | 00:00:00 | |
| SONCRA | 2026-09-03 12:45:08 | 52.46563 | 11.38092 | 30° | 18km/h | 26814m | -28.9m/s | -47.4°C | 0.3% | 20.7hPa | 2.7V | 00:00:00 | 00:00:00 | 00:00:00 | |
| DL1XH-15 | 2026-09-03 12:45:06 | 52.46555 | 11.38064 | 140° | 13km/h | 27012m | -29.1m/s | -47.2°C | 2.5% | 20.1hPa | 2.7V | 03:08:23 | 02:13:23 | 00:00:00 | |
| DL1XH1-15 | 2026-09-03 12:45:06 | 52.46558 | 11.38061 | 137° | 15km/h | 27040m | -29.4m/s | -47.1°C | 2.4% | 20hPa | 2.7V | 03:08:24 | 02:13:22 | 00:00:00 | |
| HSKMA3-T | 2026-09-03 12:45:04 | 52.46552 | 11.38071 | 103° | 7km/h | 26955m | -29m/s | -47.5°C | 0% | 20.2hPa | 2.6V | 03:09:10 | 02:13:25 | 00:00:00 | |
| DM0DOS-11 | 2026-09-03 12:45:04 | 52.46553 | 11.38067 | 120° | 9km/h | 26984m | -28.1m/s | -47.4°C | 2.5% | 20.2hPa | 2.6V | 03:08:22 | 02:13:24 | 00:00:00 | |
| DL1XH-west | 2026-09-03 12:45:01 | 52.46555 | 11.38064 | 140° | 13km/h | 27012m | -29.1m/s | -47.2°C | 0% | 20.1hPa | 2.7V | 03:09:10 | 02:13:23 | 00:00:00 | |
| DF8AY | 2026-09-03 12:44:59 | 52.46560 | 11.38057 | 138° | 15km/h | 27069m | -29.6m/s | -47.2°C | 0% | 19.9hPa | 2.7V | 03:09:10 | 02:13:21 | 00:00:00 | |
| SMARD9-15 | 2026-09-03 12:44:59 | 52.46564 | 11.38053 | 142° | 15km/h | 27099m | -29.6m/s | -47.3°C | 0.3% | 19.8hPa | 2.6V | 00:00:00 | 00:00:00 | 00:00:00 | |
| EDDB2-12 | 2026-09-03 12:44:58 | 52.46564 | 11.38053 | 142° | 15km/h | 27099m | -29.6m/s | -47.3°C | 0.3% | 19.8hPa | 2.6V | 00:00:00 | 00:00:00 | 00:00:00 | |
| DF7ER-10 | 2026-09-03 12:44:57 | 52.46571 | 11.38044 | 162° | 18km/h | 27158m | -30.8m/s | -47.1°C | 0.3% | 19.7hPa | 2.6V | 03:09:00 | 00:00:00 | 00:00:00 | |
| DL1XH-15 | 2026-09-03 12:44:56 | 52.46595 | 11.38036 | 187° | 22km/h | 27316m | -31.9m/s | -47.3°C | 2.5% | 19.2hPa | 2.6V | 03:08:33 | 02:13:13 | 00:00:00 | |
| DL1XH1-15 | 2026-09-03 12:44:55 | 52.46601 | 11.38037 | 194° | 22km/h | 27347m | -31.8m/s | -47.3°C | 2.5% | 19.1hPa | 2.7V | 03:08:34 | 02:13:12 | 00:00:00 | |
| DB0DAN | 2026-09-03 12:44:55 | 52.46576 | 11.38042 | 160° | 16km/h | 27189m | -31.2m/s | -47.2°C | 0.3% | 19.58hPa | 2.7V | 00:00:00 | 00:00:00 | 00:00:00 | |
| AA1-15 | 2026-09-03 12:44:53 | 52.46585 | 11.38037 | 164° | 20km/h | 27251m | -32.5m/s | -47.3°C | 0% | 19.4hPa | 2.7V | 03:09:10 | 02:13:15 | 00:00:00 | |
| HSKMA3-T | 2026-09-03 12:44:52 | 52.46590 | 11.38036 | 171° | 20km/h | 27284m | -32.7m/s | -47.3°C | 0% | 19.3hPa | 2.6V | 03:09:10 | 02:13:14 | 00:00:00 | |
| DL1XH-west | 2026-09-03 12:44:51 | 52.46595 | 11.38036 | 187° | 22km/h | 27316m | -32m/s | -47.3°C | 0% | 19.2hPa | 2.6V | 03:09:10 | 02:13:13 | 00:00:00 | |
| DF8AY | 2026-09-03 12:44:48 | 52.46611 | 11.38043 | 209° | 16km/h | 27411m | -31.6m/s | -47.2°C | 0% | 18.9hPa | 2.7V | 03:09:10 | 02:13:10 | 00:00:00 | |
| DO2SHX-10 | 2026-09-03 12:44:48 | 52.46610 | 11.38043 | 209° | 16km/h | 27412m | -31.6m/s | -47.2°C | 2.5% | 18.9hPa | 2.7V | 00:00:00 | 02:13:10 | 00:00:00 | |
| 13BRC | 2026-09-03 12:44:47 | 52.46610 | 11.38043 | 210° | 16km/h | 27412m | -31.6m/s | -47.2°C | 0.3% | 18.9hPa | 2.7V | 03:09:00 | 00:00:00 | 00:00:00 | |
| DL1XH-15 | 2026-09-03 12:44:46 | 52.46612 | 11.38066 | 18° | 11km/h | 27640m | -33.4m/s | -47.1°C | 2.5% | 18.3hPa | 2.7V | 03:08:43 | 02:13:03 | 00:00:00 | |
| DL1XH1-15 | 2026-09-03 12:44:45 | 52.46609 | 11.38065 | 37° | 11km/h | 27673m | -32.9m/s | -47.1°C | 2.5% | 18.2hPa | 2.6V | 03:08:44 | 02:13:02 | 00:00:00 | |
| AA1-15 | 2026-09-03 12:44:43 | 52.46617 | 11.38066 | 318° | 7km/h | 27576m | -32m/s | -47.1°C | 0% | 18.5hPa | 2.7V | 03:09:10 | 02:13:05 | 00:00:00 | |
| HSKMA3-T | 2026-09-03 12:44:42 | 52.46615 | 11.38067 | 359° | 7km/h | 27608m | -32.1m/s | -47.1°C | 0% | 18.4hPa | 2.7V | 03:09:10 | 02:13:04 | 00:00:00 | |
| DL1XH-west | 2026-09-03 12:44:40 | 52.46610 | 11.38065 | 37° | 11km/h | 27674m | -32.9m/s | -47.1°C | 0% | 18.2hPa | 2.6V | 03:09:10 | 02:13:02 | 00:00:00 | |
| DB0DAN | 2026-09-03 12:44:40 | 52.46610 | 11.38065 | 37° | 9km/h | 27673m | -32.9m/s | -47.1°C | 0.3% | 18.23hPa | 2.6V | 00:00:00 | 00:00:00 | 00:00:00 | |
| DF8AY | 2026-09-03 12:44:36 | 52.46601 | 11.38055 | 42° | 7km/h | 27808m | -33.7m/s | -47.1°C | 0% | 17.9hPa | 2.7V | 03:09:10 | 02:12:58 | 00:00:00 | |
| DL1XH-15 | 2026-09-03 12:44:36 | 52.46595 | 11.38052 | 14° | 2km/h | 27986m | -36.7m/s | -46.9°C | 2.5% | 17.4hPa | 2.7V | 03:08:53 | 02:12:53 | 00:00:00 | |
| DF8AY-15 | 2026-09-03 12:44:35 | 52.46599 | 11.38053 | 33° | 7km/h | 27843m | -34.2m/s | -47.0°C | 2.5% | 17.7hPa | 2.7V | 00:00:00 | 02:12:57 | 00:00:00 | |
| DJ8HS-15 | 2026-09-03 12:44:34 | 52.46598 | 11.38053 | 2° | 7km/h | 27878m | -36.5m/s | -46.9°C | 2.5% | 17.6hPa | 2.7V | 00:00:00 | 02:12:56 | 00:00:00 | |
| DL1XH1-15 | 2026-09-03 12:44:33 | 52.46595 | 11.38052 | 174° | 2km/h | 28022m | -36.4m/s | -46.8°C | 2.5% | 17.3hPa | 2.7V | 03:08:54 | 02:12:52 | 00:00:00 | |
| AA1-15 | 2026-09-03 12:44:32 | 52.46595 | 11.38052 | 14° | 2km/h | 27986m | -36.7m/s | -46.9°C | 0% | 17.4hPa | 2.7V | 03:09:10 | 02:12:53 | 00:00:00 | |
| DL1XH-west | 2026-09-03 12:44:29 | 52.46595 | 11.38051 | 113° | 5km/h | 28058m | -36.4m/s | -46.8°C | 0% | 17.2hPa | 2.6V | 03:09:10 | 02:12:51 | 00:00:00 | |
| SMARD9-15 | 2026-09-03 12:44:28 | 52.46597 | 11.38046 | 140° | 7km/h | 28130m | -36.4m/s | -46.9°C | 0.3% | 17.0hPa | 2.7V | 00:00:00 | 00:00:00 | 00:00:00 | |
| DO2SHX-10 | 2026-09-03 12:44:27 | 52.46597 | 11.38046 | 141° | 9km/h | 28130m | -36.4m/s | -46.9°C | 2.5% | 17.0hPa | 2.7V | 03:08:00 | 02:12:49 | 00:00:00 | |
| GOEST3-10 | 2026-09-03 12:44:26 | 52.46599 | 11.38045 | 149° | 11km/h | 28167m | -37.0m/s | -46.9°C | 2.5% | 16.9hPa | 2.7V | 00:00:00 | 02:12:48 | 00:00:00 | |
| DF8AY | 2026-09-03 12:44:26 | 52.46599 | 11.38045 | 148° | 9km/h | 28166m | -37.1m/s | -47°C | 0% | 16.9hPa | 2.7V | 03:09:10 | 02:12:48 | 00:00:00 | |
| DL1XH1-15 | 2026-09-03 12:44:25 | 52.46612 | 11.38047 | 244° | 7km/h | 28393m | -38.3m/s | -46.2°C | 2.5% | 16.4hPa | 2.7V | 03:09:04 | 02:12:42 | 00:00:00 | |
| DB0DAN | 2026-09-03 12:44:25 | 52.46601 | 11.38043 | 147° | 13km/h | 28203m | -37.2m/s | -47°C | 0.3% | 16.82hPa | 2.7V | 00:00:00 | 00:00:00 | 00:00:00 | |
| DO2SHX-10 | 2026-09-03 12:44:24 | 52.46604 | 11.38040 | 160° | 11km/h | 28240m | -37.5m/s | -46.9°C | 2.6% | 16.7hPa | 2.6V | 00:00:00 | 02:12:46 | 00:00:00 | |
| DL1NUX | 2026-09-03 12:44:23 | 52.46609 | 11.38042 | 219° | 9km/h | 28317m | -40m/s | -46.7°C | 2.6% | 16.6hPa | 2.6V | 03:09:02 | 02:12:44 | 00:00:00 | |
| AA1-15 | 2026-09-03 12:44:22 | 52.46609 | 11.38042 | 219° | 9km/h | 28317m | -40m/s | -46.7°C | 0% | 16.6hPa | 2.6V | 03:09:10 | 02:12:44 | 00:00:00 | |
| DL1XH-west | 2026-09-03 12:44:19 | 52.46613 | 11.38050 | 252° | 9km/h | 28431m | -38.1m/s | -46.1°C | 0% | 16.3hPa | 2.7V | 03:09:10 | 02:12:41 | 00:00:00 | |
| DL1NUX | 2026-09-03 12:44:17 | 52.46600 | 11.38041 | 63° | 20km/h | 28700m | -37.7m/s | -45.5°C | 2.4% | 15.6hPa | 2.6V | 03:09:12 | 02:12:34 | 00:00:00 | |
| DF8AY | 2026-09-03 12:44:16 | 52.46610 | 11.38056 | 7° | 7km/h | 28547m | -37.5m/s | -45.9°C | 0% | 16hPa | 2.7V | 03:09:10 | 02:12:38 | 00:00:00 | |
| DL1XH-15 | 2026-09-03 12:44:16 | 52.46597 | 11.38033 | 64° | 24km/h | 28738m | -39.9m/s | -45.5°C | 2.4% | 15.5hPa | 2.6V | 03:09:13 | 02:12:33 | 00:00:00 | |
| AA1-15 | 2026-09-03 12:44:12 | 52.46600 | 11.38042 | 63° | 20km/h | 28700m | -37.7m/s | -45.5°C | 0% | 15.6hPa | 2.6V | 03:10:01 | 02:12:34 | 00:00:00 | |
| DL1XH-west | 2026-09-03 12:44:09 | 52.46593 | 11.38015 | 67° | 24km/h | 28818m | -38.8m/s | -45.9°C | 0% | 15.4hPa | 2.7V | 03:10:01 | 02:12:31 | 00:00:00 | |
| DF8AY | 2026-09-03 12:44:05 | 52.46588 | 11.37979 | 92° | 24km/h | 28975m | -39.3m/s | -45.5°C | 0% | 15hPa | 2.6V | 03:10:01 | 02:12:27 | 00:00:00 | |
| DL1XH1-15 | 2026-09-03 12:44:05 | 52.46600 | 11.37934 | 152° | 18km/h | 29213m | -40.6m/s | -44.2°C | 2.2% | 14.5hPa | 2.7V | 03:09:25 | 02:12:21 | 00:00:00 | |
| DO2SHX-10 | 2026-09-03 12:44:04 | 52.46588 | 11.37969 | 96° | 20km/h | 29015m | -39.2m/s | -45.2°C | 2.4% | 14.9hPa | 2.6V | 00:00:00 | 02:12:26 | 00:00:00 | |
| DL1XH-15 | 2026-09-03 12:44:02 | 52.46593 | 11.37945 | 119° | 20km/h | 29133m | -39.5m/s | -44.8°C | 2.3% | 14.6hPa | 2.6V | 03:09:23 | 02:12:23 | 00:00:00 | |
| HSKMA3-T | 2026-09-03 12:44:01 | 52.46596 | 11.37939 | 132° | 18km/h | 29172m | -39.7m/s | -44.5°C | 0% | 14.5hPa | 2.6V | 03:10:01 | 02:12:22 | 00:00:00 | |
| DL1XH-west | 2026-09-03 12:43:57 | 52.46608 | 11.37929 | 167° | 15km/h | 29293m | -38.3m/s | -43.5°C | 0% | 14.3hPa | 2.7V | 03:10:01 | 02:12:19 | 00:00:00 | |
| DL1XH-15 | 2026-09-03 12:43:56 | 52.46624 | 11.37928 | 189° | 4km/h | 29513m | -33.2m/s | -43.6°C | 2.1% | 13.8hPa | 2.7V | 03:09:33 | 02:12:13 | 00:00:00 | |
| DB0DAN | 2026-09-03 12:43:55 | 52.46616 | 11.37927 | 178° | 15km/h | 29367m | -37.1m/s | -43.4°C | 0.2% | 14.12hPa | 2.6V | 00:00:00 | 00:00:00 | 00:00:00 | |
| DF8AY | 2026-09-03 12:43:54 | 52.46619 | 11.37927 | 186° | 13km/h | 29405m | -37.7m/s | -43.4°C | 0% | 0hPa | 2.6V | 03:10:01 | 02:12:16 | 00:00:00 | |
| DJ8HS-15 | 2026-09-03 12:43:54 | 52.46619 | 11.37927 | 186° | 11km/h | 29406m | -37.6m/s | -43.3°C | 2.0% | 14.0hPa | 2.7V | 03:09:00 | 02:12:16 | 00:00:00 | |
| DL1XH1-15 | 2026-09-03 12:43:53 | 52.46625 | 11.37928 | 196° | 5km/h | 29546m | -33.9m/s | -43.6°C | 2.1% | 13.8hPa | 2.7V | 03:09:34 | 02:12:12 | 00:00:00 | |
| HSKMA3-T | 2026-09-03 12:43:51 | 52.46624 | 11.37928 | 189° | 4km/h | 29513m | -33.3m/s | -43.6°C | 0% | 13.8hPa | 2.7V | 03:10:01 | 02:12:13 | 00:00:00 | |
| AA1-15 | 2026-09-03 12:43:50 | 52.46625 | 11.37928 | 197° | 5km/h | 29546m | -33.9m/s | -43.6°C | 0% | 13.8hPa | 2.7V | 03:10:01 | 02:12:12 | 00:00:00 | |
| DL1XH-west | 2026-09-03 12:43:46 | 52.46627 | 11.37928 | 119° | 5km/h | 29675m | -32.9m/s | -43.6°C | 0% | 13.5hPa | 2.7V | 03:10:01 | 02:12:08 | 00:00:00 | |
| DL1XH1-15 | 2026-09-03 12:43:45 | 52.46636 | 11.37903 | 116° | 20km/h | 29876m | -34.2m/s | -43.5°C | 2.1% | 13.1hPa | 2.7V | 03:09:44 | 02:12:02 | 00:00:00 | |
| DF8AY | 2026-09-03 12:43:44 | 52.46631 | 11.37919 | 122° | 11km/h | 29773m | -34m/s | -43.4°C | 0% | 0hPa | 2.6V | 03:10:01 | 02:12:05 | 00:00:00 | |
| DM0DOS-11 | 2026-09-03 12:43:43 | 52.46633 | 11.37915 | 126° | 15km/h | 29807m | -35m/s | -43.4°C | 2.1% | 13.2hPa | 2.7V | 03:09:42 | 02:12:04 | 00:00:00 | |
| DO2SHX-10 | 2026-09-03 12:43:42 | 52.46632 | 11.37915 | 127° | 16km/h | 29807m | -35.0m/s | -43.4°C | 2.1% | 13.2hPa | 2.7V | 00:00:00 | 02:12:04 | 00:00:00 | |
| DF7ER-10 | 2026-09-03 12:43:41 | 52.46633 | 11.37915 | 128° | 15km/h | 29807m | -35.0m/s | -43.4°C | 0.2% | 13.2hPa | 2.7V | 03:10:00 | 00:00:00 | 00:00:00 | |
| DB0DAN | 2026-09-03 12:43:40 | 52.46636 | 11.37903 | 116° | 18km/h | 29876m | -34.2m/s | -43.5°C | 0.2% | 13.07hPa | 2.7V | 00:00:00 | 00:00:00 | 00:00:00 | |
| AA1-15 | 2026-09-03 12:43:40 | 52.46636 | 11.37903 | 116° | 20km/h | 29876m | -34.2m/s | -43.5°C | 0% | 13.1hPa | 2.7V | 03:10:01 | 02:12:02 | 00:00:00 | |
| DO2SHX-10 | 2026-09-03 12:43:39 | 52.46638 | 11.37896 | 113° | 18km/h | 29910m | -33.9m/s | -43.5°C | 2.1% | 13.0hPa | 2.6V | 00:00:00 | 02:12:01 | 00:00:00 | |
| SP3WXH-11 | 2026-09-03 12:43:38 | 52.46640 | 11.37890 | 113° | 18km/h | 29944m | -33.6m/s | -43.5°C | 0.2% | 12.9hPa | 2.6V | 00:00:00 | 00:00:00 | 00:00:00 | |
| DL1NUX | 2026-09-03 12:43:37 | 52.46648 | 11.37865 | 107° | 5km/h | 30141m | -33.2m/s | -43°C | 2.1% | 12.6hPa | 2.6V | 03:09:52 | 02:11:54 | 00:00:00 | |
| DO2SHX-10 | 2026-09-03 12:43:36 | 52.46643 | 11.37877 | 122° | 13km/h | 30008m | -32.2m/s | -43.3°C | 2.1% | 12.8hPa | 2.7V | 03:09:00 | 02:11:58 | 00:00:00 | |
| DL1XH-west | 2026-09-03 12:43:36 | 52.46644 | 11.37877 | 122° | 15km/h | 30008m | -32.2m/s | -43.4°C | 0% | 12.8hPa | 2.7V | 03:10:01 | 02:11:58 | 00:00:00 | |
| DF8AY-15 | 2026-09-03 12:43:35 | 52.46645 | 11.37873 | 125° | 16km/h | 30041m | -32.3m/s | -43.2°C | 2.1% | 12.7hPa | 2.7V | 03:09:00 | 02:11:57 | 00:00:00 | |
| DJ8HS-15 | 2026-09-03 12:43:34 | 52.46646 | 11.37869 | 127° | 16km/h | 30075m | -33.2m/s | -43.2°C | 2.1% | 12.7hPa | 2.7V | 00:00:00 | 02:11:56 | 00:00:00 | |
| DL1XH1-15 | 2026-09-03 12:43:33 | 52.46648 | 11.37859 | 71° | 11km/h | 30208m | -34.2m/s | -42.9°C | 2.1% | 12.4hPa | 2.7V | 03:09:54 | 02:11:52 | 00:00:00 | |
| DF8AY | 2026-09-03 12:43:32 | 52.46648 | 11.37865 | 108° | 5km/h | 30141m | -33.2m/s | -43°C | 0% | 0hPa | 2.6V | 03:10:01 | 02:11:54 | 00:00:00 | |
| AA1-15 | 2026-09-03 12:43:29 | 52.46647 | 11.37855 | 61° | 13km/h | 30242m | -35.4m/s | -42.8°C | 0% | 12.4hPa | 2.7V | 03:10:01 | 02:11:51 | 00:00:00 | |
| S3001 | 2026-09-03 12:43:29 | 52.46645 | 11.37850 | 54° | 15km/h | 30278m | -35.9m/s | -42.8°C | 0.2% | 12.3hPa | 2.6V | 00:00:00 | 00:00:00 | 00:00:00 | |
| DO2SHX-10 | 2026-09-03 12:43:27 | 52.46642 | 11.37845 | 48° | 15km/h | 30314m | -35.6m/s | -42.8°C | 2.1% | 12.2hPa | 2.6V | 00:00:00 | 02:11:49 | 00:00:00 | |
| DL1XH-15 | 2026-09-03 12:43:26 | 52.46621 | 11.37826 | 24° | 22km/h | 30515m | -34.8m/s | -42.7°C | 2.1% | 11.9hPa | 2.6V | 03:10:03 | 02:11:43 | 00:00:00 | |
| DL1XH-west | 2026-09-03 12:43:25 | 52.46637 | 11.37838 | 35° | 16km/h | 30383m | -34.6m/s | -43°C | 0% | 12.1hPa | 2.6V | 03:10:01 | 02:11:47 | 00:00:00 | |
| DO2SHX-10 | 2026-09-03 12:43:24 | 52.46634 | 11.37834 | 33° | 16km/h | 30418m | -33.6m/s | -43.0°C | 2.1% | 12.0hPa | 2.7V | 03:10:00 | 02:11:46 | 00:00:00 | |
| DM0DOS-11 | 2026-09-03 12:43:23 | 52.46626 | 11.37829 | 25° | 20km/h | 30482m | -32.1m/s | -42.9°C | 2.2% | 12hPa | 2.7V | 03:10:02 | 02:11:44 | 00:00:00 | |
| DF8AY | 2026-09-03 12:43:22 | 52.46626 | 11.37829 | 26° | 20km/h | 30482m | -32.1m/s | -42.9°C | 0% | 0hPa | 2.7V | 03:12:34 | 02:11:44 | 00:00:00 | |
| AA1-15 | 2026-09-03 12:43:19 | 52.46611 | 11.37818 | 29° | 24km/h | 30583m | -33.4m/s | -42.6°C | 0% | 11.8hPa | 2.7V | 03:10:52 | 02:11:41 | 00:00:00 | |
| BUE01 | 2026-09-03 12:43:19 | 52.46605 | 11.37813 | 32° | 24km/h | 30617m | -33.3m/s | -42.5°C | 0.2% | 11.7hPa | 2.7V | 00:00:00 | 00:00:00 | 00:00:00 | |
| DO2SHX-10 | 2026-09-03 12:43:18 | 52.46605 | 11.37812 | 33° | 27km/h | 30617m | -33.2m/s | -42.5°C | 2.1% | 11.7hPa | 2.7V | 00:00:00 | 02:11:40 | 00:00:00 | |
| DL1NUX | 2026-09-03 12:43:17 | 52.46578 | 11.37763 | 52° | 24km/h | 30829m | -37.4m/s | -41.9°C | 2% | 11.4hPa | 2.7V | 03:10:12 | 02:11:34 | 00:00:00 | |
| DL1XH-15 | 2026-09-03 12:43:16 | 52.46574 | 11.37755 | 47° | 24km/h | 30867m | -37.8m/s | -41.7°C | 2% | 11.3hPa | 2.7V | 03:10:13 | 02:11:33 | 00:00:00 | |
| DL1XH-west | 2026-09-03 12:43:15 | 52.46589 | 11.37790 | 51° | 27km/h | 30721m | -36.3m/s | -42.2°C | 0% | 11.6hPa | 2.6V | 03:10:52 | 02:11:37 | 00:00:00 | |
| DO2SHX-10 | 2026-09-03 12:43:15 | 52.46589 | 11.37790 | 51° | 27km/h | 30721m | -36.3m/s | -42.1°C | 2.1% | 11.5hPa | 2.6V | 00:00:00 | 02:11:37 | 00:00:00 | |
| DJ8HS-15 | 2026-09-03 12:43:14 | 52.46585 | 11.37781 | 56° | 33km/h | 30758m | -35.6m/s | -42.0°C | 2.0% | 11.4hPa | 2.6V | 00:00:00 | 02:11:36 | 00:00:00 | |
| HTAHTA | 2026-09-03 12:43:13 | 52.46578 | 11.37763 | 52° | 24km/h | 30830m | -37.4m/s | -41.9°C | 0.1% | 11.4hPa | 2.7V | 00:00:00 | 00:00:00 | 00:00:00 | |
| DO2SHX-10 | 2026-09-03 12:43:12 | 52.46578 | 11.37763 | 53° | 24km/h | 30830m | -37.4m/s | -41.8°C | 2.0% | 11.3hPa | 2.7V | 03:10:00 | 02:11:34 | 00:00:00 | |
| DF8AY | 2026-09-03 12:43:12 | 52.46570 | 11.37748 | 42° | 24km/h | 30905m | -38.3m/s | -41.6°C | 0% | 0hPa | 2.7V | 03:12:34 | 02:11:32 | 00:00:00 | |
| DB0DAN | 2026-09-03 12:43:10 | 52.46570 | 11.37748 | 42° | 22km/h | 30905m | -38.3m/s | -41.6°C | 0.2% | 11.25hPa | 2.7V | 00:00:00 | 00:00:00 | 00:00:00 | |
| AA1-15 | 2026-09-03 12:43:09 | 52.46565 | 11.37742 | 38° | 24km/h | 30944m | -39.8m/s | -41.4°C | 0% | 11.2hPa | 2.6V | 03:10:52 | 02:11:31 | 00:00:00 | |
| DL1XH-west | 2026-09-03 12:43:04 | 52.46528 | 11.37698 | 49° | 42km/h | 31160m | -48.8m/s | -40.5°C | 0% | 10.9hPa | 2.7V | 03:10:52 | 02:11:26 | 00:00:00 | |
| DM0DOS-11 | 2026-09-03 12:43:03 | 52.46516 | 11.37670 | 56° | 38km/h | 31257m | -48.4m/s | -40.4°C | 1.8% | 10.8hPa | 2.6V | 03:10:22 | 02:11:24 | 00:00:00 | |
| DF8AY | 2026-09-03 12:43:01 | 52.46512 | 11.37656 | 72° | 40km/h | 31305m | -48.3m/s | -40.3°C | 0% | 0hPa | 2.7V | 03:12:34 | 02:11:23 | 00:00:00 | |
| HSKMA3-T | 2026-09-03 12:42:58 | 52.46508 | 11.37611 | 89° | 33km/h | 31445m | -46.7m/s | -40.5°C | 0% | 10.4hPa | 2.6V | 03:10:52 | 02:11:20 | 00:00:00 | |
| S3001 | 2026-09-03 12:42:58 | 52.46508 | 11.37599 | 93° | 27km/h | 31492m | -47.3m/s | -40.4°C | 0.1% | 10.4hPa | 2.6V | 00:00:00 | 00:00:00 | 00:00:00 | |
| AA1-15 | 2026-09-03 12:42:58 | 52.46508 | 11.37599 | 94° | 29km/h | 31491m | -47.3m/s | -40.4°C | 0% | 10.4hPa | 2.6V | 03:10:52 | 02:11:19 | 00:00:00 | |
| DL1XH-15 | 2026-09-03 12:42:56 | 52.46507 | 11.37544 | 70° | 24km/h | 31780m | -47.9m/s | -39.9°C | 1.8% | 9.9hPa | 2.6V | 03:10:33 | 02:11:13 | 00:00:00 | |
| DL1XH-west | 2026-09-03 12:42:54 | 52.46510 | 11.37568 | 81° | 20km/h | 31637m | -49.8m/s | -40.1°C | 0% | 10.2hPa | 2.7V | 03:10:52 | 02:11:16 | 00:00:00 | |
| DJ8HS-15 | 2026-09-03 12:42:54 | 52.46510 | 11.37568 | 81° | 18km/h | 31638m | -49.7m/s | -40.0°C | 1.8% | 10.1hPa | 2.7V | 00:00:00 | 02:11:16 | 00:00:00 | |
| DL1XH1-15 | 2026-09-03 12:42:53 | 52.46506 | 11.37536 | 78° | 22km/h | 31828m | -48.8m/s | -39.8°C | 1.8% | 9.8hPa | 2.7V | 03:10:34 | 02:11:12 | 00:00:00 | |
| DF8AY | 2026-09-03 12:42:51 | 52.46505 | 11.37488 | 111° | 22km/h | 32083m | -54.3m/s | -39.6°C | 0% | 0hPa | 2.6V | 03:12:34 | 02:11:07 | 00:00:00 | |
| HSKMA3-T | 2026-09-03 12:42:47 | 52.46502 | 11.37506 | 94° | 27km/h | 31977m | -51.6m/s | -39.6°C | 0% | 9.6hPa | 2.7V | 03:10:52 | 02:11:09 | 00:00:00 | |
| DO2SHX-10 | 2026-09-03 12:42:47 | 52.46502 | 11.37506 | 95° | 24km/h | 31977m | -51.5m/s | -39.5°C | 1.8% | 9.6hPa | 2.7V | 03:10:00 | 02:11:09 | 00:00:00 | |
| DL1XH-15 | 2026-09-03 12:42:46 | 52.46511 | 11.37466 | 96° | 13km/h | 32295m | -51.5m/s | -39.8°C | 1.9% | 9.2hPa | 2.6V | 03:10:43 | 02:11:03 | 00:00:00 | |
| DO3MHA-11 | 2026-09-03 12:42:46 | 52.46503 | 11.37496 | 103° | 18km/h | 32030m | -52.9m/s | -39.5°C | 1.8% | 9.5hPa | 2.6V | 00:00:00 | 02:11:08 | 00:00:00 | |
| DL1XH1-15 | 2026-09-03 12:42:45 | 52.46511 | 11.37462 | 95° | 11km/h | 32346m | -50.1m/s | -39.8°C | 1.9% | 9.1hPa | 2.6V | 03:10:44 | 02:11:02 | 00:00:00 | |
| DL1XH-west | 2026-09-03 12:42:44 | 52.46507 | 11.37480 | 125° | 18km/h | 32137m | -54m/s | -39.5°C | 0% | 9.4hPa | 2.7V | 03:10:52 | 02:11:06 | 00:00:00 | |
| DF8AY | 2026-09-03 12:42:38 | 52.46511 | 11.37453 | 64° | 11km/h | 32443m | -49.5m/s | -39.7°C | 0% | 0hPa | 2.7V | 03:12:34 | 02:11:00 | 00:00:00 | |
| HSKMA3-T | 2026-09-03 12:42:37 | 52.46510 | 11.37448 | 74° | 13km/h | 32492m | -49.8m/s | -39.5°C | 0% | 8.9hPa | 2.7V | 03:10:52 | 02:10:59 | 00:00:00 | |
| AA1-15 | 2026-09-03 12:42:36 | 52.46509 | 11.37442 | 80° | 18km/h | 32542m | -50.5m/s | -39.2°C | 0% | 8.9hPa | 2.7V | 03:10:52 | 02:10:58 | 00:00:00 | |
| DL1XH-15 | 2026-09-03 12:42:36 | 52.46515 | 11.37391 | 118° | 29km/h | 32784m | -46.6m/s | -38.5°C | 1.8% | 8.6hPa | 2.7V | 03:10:53 | 02:10:53 | 00:00:00 | |
| DO3MHA-11 | 2026-09-03 12:42:36 | 52.46508 | 11.37442 | 81° | 24km/h | 32542m | -50.4m/s | -39.1°C | 1.8% | 8.8hPa | 2.7V | 03:10:00 | 02:10:58 | 00:00:00 | |
| DJ8HS-15 | 2026-09-03 12:42:34 | 52.46508 | 11.37424 | 98° | 26km/h | 32640m | -48.3m/s | -38.7°C | 1.8% | 8.7hPa | 2.7V | 03:10:00 | 02:10:56 | 00:00:00 | |
| DL1XH1-15 | 2026-09-03 12:42:33 | 52.46519 | 11.37381 | 126° | 29km/h | 32830m | -47m/s | -38.4°C | 1.8% | 8.5hPa | 2.7V | 03:10:54 | 02:10:52 | 00:00:00 | |
| DL1XH-west | 2026-09-03 12:42:33 | 52.46509 | 11.37413 | 110° | 29km/h | 32689m | -48.6m/s | -38.6°C | 0% | 8.7hPa | 2.7V | 03:10:52 | 02:10:55 | 00:00:00 | |
| MECKS9 | 2026-09-03 12:42:32 | 52.46509 | 11.37413 | 111° | 29km/h | 32689m | -48.6m/s | -38.6°C | 0.1% | 8.7hPa | 2.6V | 00:00:00 | 00:00:00 | 00:00:00 | |
| DO9LL-15 | 2026-09-03 12:42:31 | 52.46515 | 11.37391 | 119° | 31km/h | 32784m | -46.6m/s | -38.5°C | 1.8% | 8.5hPa | 2.6V | 00:00:00 | 02:10:53 | 00:00:00 | |
| DB0UT-7 | 2026-09-03 12:42:30 | 52.46519 | 11.37381 | 127° | 27km/h | 32831m | -46.9m/s | -38.4°C | 1.8% | 8.4hPa | 2.6V | 03:10:00 | 02:10:52 | 00:00:00 | |
| DO2SHX-10 | 2026-09-03 12:42:28 | 52.46527 | 11.37364 | 129° | 16km/h | 32924m | -46.7m/s | -38.1°C | 1.8% | 8.3hPa | 2.6V | 00:00:00 | 02:10:50 | 00:00:00 | |
| S3001 | 2026-09-03 12:42:27 | 52.46531 | 11.37353 | 117° | 13km/h | 33016m | -45.6m/s | -37.9°C | 0.1% | 8.2hPa | 2.7V | 00:00:00 | 00:00:00 | 00:00:00 | |
| GOEST3-10 | 2026-09-03 12:42:26 | 52.46531 | 11.37353 | 118° | 13km/h | 33016m | -45.5m/s | -37.9°C | 1.8% | 8.2hPa | 2.7V | 00:00:00 | 02:10:48 | 00:00:00 | |
| AA1-15 | 2026-09-03 12:42:26 | 52.46531 | 11.37353 | 117° | 15km/h | 33015m | -45.6m/s | -37.9°C | 0% | 8.2hPa | 2.7V | 03:11:43 | 02:10:48 | 00:00:00 | |
| DL1XH1-15 | 2026-09-03 12:42:25 | 52.46528 | 11.37318 | 91° | 20km/h | 33291m | -50.1m/s | -36.8°C | 1.6% | 7.9hPa | 2.7V | 03:11:04 | 02:10:42 | 00:00:00 | |
| DB0DAN | 2026-09-03 12:42:25 | 52.46532 | 11.37348 | 104° | 9km/h | 33060m | -43.8m/s | -37.8°C | 0.1% | 8.18hPa | 2.7V | 00:00:00 | 00:00:00 | 00:00:00 | |
| DL1XH-west | 2026-09-03 12:42:22 | 52.46529 | 11.37332 | 69° | 18km/h | 33196m | -47.3m/s | -37°C | 0% | 8hPa | 2.6V | 03:11:43 | 02:10:44 | 00:00:00 | |
| SO1NDE-10 | 2026-09-03 12:42:22 | 52.46529 | 11.37332 | 69° | 35km/h | 33197m | -47.2m/s | -37.0°C | 1.7% | 8.0hPa | 2.7V | 03:11:00 | 02:10:44 | 00:00:00 | |
| DD8BA-10 | 2026-09-03 12:42:21 | 52.46528 | 11.37325 | 81° | 35km/h | 33243m | -47.1m/s | -36.8°C | 1.6% | 7.9hPa | 2.7V | 03:11:00 | 00:00:00 | 00:00:00 | |
| DO2SHX-10 | 2026-09-03 12:42:19 | 52.46529 | 11.37308 | 108° | 33km/h | 33342m | -50.3m/s | -36.6°C | 1.6% | 7.8hPa | 2.7V | 00:00:00 | 02:10:41 | 00:00:00 | |
| DL1NUX | 2026-09-03 12:42:17 | 52.46569 | 11.37223 | 127° | 35km/h | 33683m | -46.8m/s | -34.4°C | 1.4% | 7.5hPa | 2.6V | 03:11:12 | 02:10:34 | 00:00:00 | |
| AA1-15 | 2026-09-03 12:42:16 | 52.46542 | 11.37272 | 130° | 40km/h | 33490m | -49.3m/s | -35.5°C | 0% | 7.7hPa | 2.7V | 03:11:43 | 02:10:38 | 00:00:00 | |
| DL1XH-west | 2026-09-03 12:42:11 | 52.46574 | 11.37212 | 116° | 29km/h | 33730m | -49.4m/s | -34.4°C | 0% | 7.4hPa | 2.6V | 03:11:43 | 02:10:33 | 00:00:00 | |
| AA1-15 | 2026-09-03 12:42:06 | 52.46567 | 11.37172 | 29° | 31km/h | 33953m | -44.8m/s | -34.5°C | 0% | 7.2hPa | 2.6V | 03:11:43 | 02:10:28 | 00:00:00 | |
| HSKMA3-T | 2026-09-03 12:42:05 | 52.46559 | 11.37165 | 28° | 35km/h | 33996m | -43.2m/s | -34.5°C | 0% | 7.2hPa | 2.6V | 03:11:43 | 02:10:27 | 00:00:00 | |
| DO3MHA-11 | 2026-09-03 12:42:05 | 52.46559 | 11.37165 | 29° | 38km/h | 33996m | -43.2m/s | -34.5°C | 1.4% | 7.1hPa | 2.7V | 00:00:00 | 02:10:27 | 00:00:00 | |
| DO2SHX-10 | 2026-09-03 12:42:04 | 52.46552 | 11.37158 | 35° | 26km/h | 34040m | -44.3m/s | -34.3°C | 1.3% | 7.0hPa | 2.7V | 00:00:00 | 02:10:26 | 00:00:00 | |
| DM0DOS-11 | 2026-09-03 12:42:03 | 52.46542 | 11.37143 | 54° | 24km/h | 34129m | -44.1m/s | -34.3°C | 1.3% | 7hPa | 2.7V | 03:11:22 | 02:10:24 | 00:00:00 | |
| DL1XH-15 | 2026-09-03 12:42:02 | 52.46539 | 11.37134 | 61° | 22km/h | 34171m | -40m/s | -34.3°C | 1.3% | 6.9hPa | 2.6V | 03:11:23 | 02:10:23 | 00:00:00 | |
| DL1XH-west | 2026-09-03 12:42:01 | 52.46539 | 11.37134 | 62° | 22km/h | 34171m | -40m/s | -34.3°C | 0% | 7hPa | 2.6V | 03:11:43 | 02:10:23 | 00:00:00 | |
| DD8BA-10 | 2026-09-03 12:42:01 | 52.46539 | 11.37134 | 62° | 44km/h | 34171m | -40.0m/s | -34.2°C | 1.3% | 6.9hPa | 2.6V | 00:00:00 | 00:00:00 | 00:00:00 | |
| DO2SHX-10 | 2026-09-03 12:42:00 | 52.46538 | 11.37126 | 101° | 31km/h | 34210m | -39.1m/s | -34.0°C | 1.3% | 6.9hPa | 2.6V | 00:00:00 | 02:10:22 | 00:00:00 | |
| SMARD9-10 | 2026-09-03 12:41:59 | 52.46538 | 11.37126 | 101° | 22km/h | 34210m | -39.2m/s | -34.1°C | 0.0% | 6.9hPa | 2.7V | 00:00:00 | 00:00:00 | 00:00:00 | |
| DL1NUX | 2026-09-03 12:41:57 | 52.46612 | 11.37024 | 128° | 44km/h | 34516m | -37.7m/s | -33.4°C | 1.3% | 6.5hPa | 2.7V | 03:11:32 | 02:10:14 | 00:00:00 | |
| DO2SHX-10 | 2026-09-03 12:41:57 | 52.46557 | 11.37095 | 146° | 58km/h | 34317m | -35.1m/s | -33.3°C | 1.2% | 6.8hPa | 2.7V | 03:11:00 | 02:10:19 | 00:00:00 | |
| DL1XH-15 | 2026-09-03 12:41:56 | 52.46618 | 11.37010 | 114° | 35km/h | 34549m | -32.7m/s | -33.3°C | 1.3% | 6.5hPa | 2.7V | 03:11:33 | 02:10:13 | 00:00:00 | |
| AA1-15 | 2026-09-03 12:41:55 | 52.46583 | 11.37067 | 148° | 64km/h | 34395m | -40.3m/s | -33.2°C | 0% | 6.7hPa | 2.6V | 03:11:43 | 02:10:17 | 00:00:00 | |
| HSKMA3-T | 2026-09-03 12:41:54 | 52.46595 | 11.37053 | 140° | 53km/h | 34436m | -44m/s | -33.2°C | 0% | 6.6hPa | 2.6V | 03:11:43 | 02:10:16 | 00:00:00 | |
| DL1XH-west | 2026-09-03 12:41:51 | 52.46617 | 11.37010 | 115° | 35km/h | 34549m | -32.7m/s | -33.3°C | 0% | 6.5hPa | 2.7V | 03:11:43 | 02:10:13 | 00:00:00 | |
| DF8AY | 2026-09-03 12:41:47 | 52.46608 | 11.36962 | 63° | 31km/h | 34639m | -3.8m/s | -33.2°C | 0% | 0hPa | 2.7V | 03:12:34 | 02:10:09 | 00:00:00 | |
| BUE01 | 2026-09-03 12:41:46 | 52.46602 | 11.36940 | 75° | 31km/h | 34637m | 4.5m/s | -33.1°C | 0.0% | 6.5hPa | 2.7V | 00:00:00 | 00:00:00 | 00:00:00 | |
| DL1XH-15 | 2026-09-03 12:41:45 | 52.46610 | 11.36885 | 129° | 38km/h | 34613m | 6.6m/s | -33°C | 1.3% | 6.4hPa | 2.7V | 03:11:43 | 02:10:03 | 00:00:00 | |
| HSKMA3-T | 2026-09-03 12:41:44 | 52.46601 | 11.36926 | 89° | 33km/h | 34631m | 4.4m/s | -33.2°C | 0% | 6.5hPa | 2.6V | 03:11:43 | 02:10:06 | 00:00:00 | |
| GOEST3-10 | 2026-09-03 12:41:44 | 52.46601 | 11.36926 | 90° | 37km/h | 34632m | 4.4m/s | -33.1°C | 1.3% | 6.4hPa | 2.7V | 00:00:00 | 02:10:06 | 00:00:00 | |
| DM0DOS-11 | 2026-09-03 12:41:43 | 52.46605 | 11.36899 | 116° | 37km/h | 34620m | 7.1m/s | -33.2°C | 1.3% | 6.5hPa | 2.7V | 03:11:42 | 02:10:04 | 00:00:00 | |
| DL1XH1-15 | 2026-09-03 12:41:43 | 52.46617 | 11.36874 | 138° | 38km/h | 34608m | 4.8m/s | -32.9°C | 1.3% | 6.5hPa | 2.7V | 03:11:44 | 02:10:02 | 00:00:00 | |
| DO2SHX-10 | 2026-09-03 12:41:43 | 52.46602 | 11.36912 | 104° | 37km/h | 34626m | 5.5m/s | -33.2°C | 1.3% | 6.4hPa | 2.7V | 03:11:00 | 02:10:05 | 00:00:00 | |
| DD8BA-10 | 2026-09-03 12:41:40 | 52.46617 | 11.36874 | 139° | 29km/h | 34608m | 4.8m/s | -32.9°C | 1.3% | 6.4hPa | 2.7V | 03:11:00 | 00:00:00 | 00:00:00 | |
| DL1XH-west | 2026-09-03 12:41:40 | 52.46617 | 11.36874 | 138° | 38km/h | 34608m | 4.8m/s | -32.9°C | 0% | 6.5hPa | 2.7V | 03:12:34 | 02:10:02 | 00:00:00 | |
| GOEST3-10 | 2026-09-03 12:41:39 | 52.46623 | 11.36865 | 141° | 20km/h | 34604m | 3.2m/s | -32.9°C | 1.3% | 6.4hPa | 2.7V | 00:00:00 | 00:00:00 | 00:00:00 | |
| DH0BRO-15 | 2026-09-03 12:41:38 | 52.46623 | 11.36865 | 142° | 31km/h | 34604m | 3.3m/s | -33.0°C | 0% | 0hPa | 2.6V | 00:00:00 | 00:00:00 | 00:00:00 | |
| DO2SHX-10 | 2026-09-03 12:41:37 | 52.46631 | 11.36852 | 110° | 16km/h | 34596m | 5.9m/s | -32.9°C | 1.3% | 6.5hPa | 2.6V | 00:00:00 | 02:09:59 | 00:00:00 | |
| DL1XH-15 | 2026-09-03 12:41:36 | 52.46606 | 11.36797 | 80° | 42km/h | 34564m | 5.9m/s | -33.4°C | 1.3% | 6.5hPa | 2.6V | 03:11:53 | 02:09:53 | 00:00:00 | |
| DL1XH1-15 | 2026-09-03 12:41:35 | 52.46606 | 11.36779 | 99° | 47km/h | 34557m | 7.6m/s | -33.4°C | 1.4% | 6.5hPa | 2.7V | 03:11:54 | 02:09:52 | 00:00:00 | |
| AA1-15 | 2026-09-03 12:41:34 | 52.46621 | 11.36836 | 35° | 33km/h | 34576m | 4.7m/s | -33.2°C | 0% | 6.5hPa | 2.7V | 03:12:34 | 02:09:56 | 00:00:00 | |
| HSKMA3-T | 2026-09-03 12:41:33 | 52.46614 | 11.36826 | 48° | 38km/h | 34572m | 2.9m/s | -33.2°C | 0% | 6.5hPa | 2.7V | 03:12:34 | 02:09:55 | 00:00:00 | |
| DM0DOS-11 | 2026-09-03 12:41:33 | 52.46609 | 11.36813 | 63° | 40km/h | 34569m | 3.5m/s | -33.2°C | 1.3% | 6.5hPa | 2.6V | 03:11:52 | 02:09:54 | 00:00:00 | |
| DL1XH-west | 2026-09-03 12:41:29 | 52.46610 | 11.36759 | 114° | 55km/h | 34550m | 7.6m/s | -33.2°C | 0% | 6.5hPa | 2.7V | 03:12:34 | 02:09:51 | 00:00:00 | |
| DF8AY | 2026-09-03 12:41:27 | 52.46623 | 11.36585 | 96° | 42km/h | 34486m | 6.6m/s | -33.3°C | 0% | 0hPa | 2.7V | 03:12:34 | 02:09:39 | 00:00:00 | |
| DL1NUX | 2026-09-03 12:41:27 | 52.46641 | 11.36648 | 55° | 29km/h | 34512m | 6.3m/s | -33.2°C | 1.3% | 6.5hPa | 2.7V | 03:12:02 | 02:09:44 | 00:00:00 | |
| DB0DAN | 2026-09-03 12:41:25 | 52.46640 | 11.36684 | 120° | 40km/h | 34530m | 4.4m/s | -33.2°C | 0% | 6.55hPa | 2.7V | 00:00:00 | 00:00:00 | 00:00:00 | |
| AA1-15 | 2026-09-03 12:41:23 | 52.46644 | 11.36658 | 78° | 27km/h | 34518m | 6.7m/s | -33.2°C | 0% | 6.6hPa | 2.7V | 03:12:34 | 02:09:45 | 00:00:00 | |
| DL1XH1-15 | 2026-09-03 12:41:23 | 52.46630 | 11.36627 | 51° | 35km/h | 34502m | 4m/s | -33.3°C | 1.3% | 6.6hPa | 2.6V | 03:12:04 | 02:09:42 | 00:00:00 | |
| HSKMA3-T | 2026-09-03 12:41:22 | 52.46641 | 11.36648 | 55° | 29km/h | 34512m | 6.3m/s | -33.2°C | 0% | 6.5hPa | 2.7V | 03:12:34 | 02:09:44 | 00:00:00 | |
| DL1XH-15 | 2026-09-03 12:41:22 | 52.46636 | 11.36638 | 47° | 33km/h | 34506m | 4.8m/s | -33.4°C | 1.3% | 6.5hPa | 2.6V | 03:12:03 | 02:09:43 | 00:00:00 | |
| DL1XH-west | 2026-09-03 12:41:19 | 52.46626 | 11.36615 | 63° | 37km/h | 34497m | 4.6m/s | -33.2°C | 0% | 6.6hPa | 2.7V | 03:12:34 | 02:09:41 | 00:00:00 | |
| DD8BA-10 | 2026-09-03 12:41:19 | 52.46626 | 11.36615 | 64° | 42km/h | 34498m | 4.6m/s | -33.2°C | 1.3% | 6.5hPa | 2.7V | 00:00:00 | 00:00:00 | 00:00:00 | |
| DL1XH-15 | 2026-09-03 12:41:16 | 52.46645 | 11.36475 | 93° | 35km/h | 34452m | 6m/s | -33.2°C | 1.3% | 6.5hPa | 2.7V | 03:12:13 | 02:09:33 | 00:00:00 | |
| DL1XH1-15 | 2026-09-03 12:41:16 | 52.46645 | 11.36462 | 77° | 29km/h | 34446m | 6.5m/s | -33.3°C | 1.3% | 6.6hPa | 2.6V | 03:12:14 | 02:09:32 | 00:00:00 | |
| DB0NH | 2026-09-03 12:41:15 | 52.46629 | 11.36547 | 113° | 27km/h | 34474m | 5.5m/s | -33.2°C | 1.3% | 6.6hPa | 2.6V | 00:00:00 | 02:09:37 | 00:00:00 | |
| DJ8HS-15 | 2026-09-03 12:41:14 | 52.46635 | 11.36527 | 115° | 29km/h | 34469m | 5.2m/s | -33.3°C | 1.3% | 6.6hPa | 2.6V | 03:12:00 | 02:09:36 | 00:00:00 | |
| DM0DOS-11 | 2026-09-03 12:41:13 | 52.46643 | 11.36490 | 105° | 42km/h | 34458m | 5.5m/s | -33.2°C | 1.3% | 6.6hPa | 2.7V | 03:12:12 | 02:09:34 | 00:00:00 | |
| AA1-15 | 2026-09-03 12:41:13 | 52.46640 | 11.36507 | 111° | 49km/h | 34463m | 5.2m/s | -33.3°C | 0% | 6.6hPa | 2.7V | 03:12:34 | 02:09:35 | 00:00:00 | |
| HSKMA3-T | 2026-09-03 12:41:11 | 52.46645 | 11.36475 | 94° | 35km/h | 34452m | 6.1m/s | -33.2°C | 0% | 6.6hPa | 2.7V | 03:12:34 | 02:09:33 | 00:00:00 | |
| DF8AY | 2026-09-03 12:41:09 | 52.46642 | 11.36451 | 63° | 27km/h | 34440m | 6.3m/s | -33.4°C | 0% | 0hPa | 2.6V | 03:12:34 | 02:09:31 | 00:00:00 | |
| DL1XH-west | 2026-09-03 12:41:08 | 52.46636 | 11.36433 | 60° | 26km/h | 34427m | 6.2m/s | -33.4°C | 0% | 6.6hPa | 2.7V | 03:12:34 | 02:09:29 | 00:00:00 | |
| DL1NUX | 2026-09-03 12:41:08 | 52.46631 | 11.36374 | 95° | 35km/h | 34396m | 5.9m/s | -33.6°C | 1.4% | 6.7hPa | 2.7V | 03:12:22 | 02:09:24 | 00:00:00 | |
| DO2SHX-10 | 2026-09-03 12:41:07 | 52.46636 | 11.36433 | 61° | 27km/h | 34427m | 6.2m/s | -33.3°C | 1.3% | 6.6hPa | 2.7V | 03:12:00 | 02:09:29 | 00:00:00 | |
| DL1XH-15 | 2026-09-03 12:41:06 | 52.46632 | 11.36360 | 95° | 33km/h | 34390m | 5.8m/s | -33.5°C | 1.3% | 6.7hPa | 2.7V | 03:12:23 | 02:09:23 | 00:00:00 | |
| DO3MHA-11 | 2026-09-03 12:41:05 | 52.46631 | 11.36412 | 79° | 27km/h | 34415m | 6.2m/s | -33.4°C | 1.3% | 6.6hPa | 2.6V | 00:00:00 | 02:09:27 | 00:00:00 | |
| DO2SHX-10 | 2026-09-03 12:41:04 | 52.46630 | 11.36401 | 89° | 33km/h | 34409m | 6.2m/s | -33.4°C | 1.3% | 6.6hPa | 2.6V | 00:00:00 | 02:09:26 | 00:00:00 | |
| DL1XH1-15 | 2026-09-03 12:41:03 | 52.46632 | 11.36347 | 92° | 29km/h | 34384m | 6m/s | -33.6°C | 1.4% | 6.7hPa | 2.7V | 03:12:24 | 02:09:22 | 00:00:00 | |
| AA1-15 | 2026-09-03 12:41:02 | 52.46631 | 11.36374 | 96° | 35km/h | 34396m | 5.9m/s | -33.6°C | 0% | 6.7hPa | 2.7V | 03:12:34 | 02:09:24 | 00:00:00 | |
| HSKMA3-T | 2026-09-03 12:41:01 | 52.46632 | 11.36360 | 95° | 33km/h | 34390m | 5.8m/s | -33.5°C | 0% | 6.7hPa | 2.7V | 03:12:34 | 02:09:23 | 00:00:00 | |
| DF8AY | 2026-09-03 12:40:58 | 52.46632 | 11.36326 | 86° | 22km/h | 34373m | 5.5m/s | -33.7°C | 0% | 0hPa | 2.6V | 03:12:34 | 02:09:20 | 00:00:00 | |
| DL1XH-west | 2026-09-03 12:40:57 | 52.46632 | 11.36318 | 84° | 18km/h | 34367m | 5.3m/s | -33.7°C | 0% | 6.7hPa | 2.7V | 03:12:34 | 02:09:19 | 00:00:00 | |
| DL1XH-15 | 2026-09-03 12:40:56 | 52.46638 | 11.36273 | 122° | 20km/h | 34334m | 4.6m/s | -34°C | 1.4% | 6.7hPa | 2.7V | 03:12:33 | 02:09:13 | 00:00:00 | |
| DO3MHA-11 | 2026-09-03 12:40:55 | 52.46631 | 11.36303 | 94° | 13km/h | 34358m | 5.4m/s | -33.8°C | 1.3% | 6.7hPa | 2.6V | 00:00:00 | 02:09:17 | 00:00:00 | |
| DJ8HS-15 | 2026-09-03 12:40:54 | 52.46632 | 11.36296 | 102° | 18km/h | 34352m | 6.2m/s | -33.8°C | 1.3% | 6.6hPa | 2.6V | 00:00:00 | 02:09:16 | 00:00:00 | |
| DM0DOS-11 | 2026-09-03 12:40:53 | 52.46635 | 11.36280 | 115° | 22km/h | 34339m | 5.1m/s | -34°C | 1.4% | 6.7hPa | 2.6V | 03:12:32 | 02:09:14 | 00:00:00 | |
| AA1-15 | 2026-09-03 12:40:51 | 52.46638 | 11.36273 | 123° | 20km/h | 34334m | 4.6m/s | -34°C | 0% | 6.7hPa | 2.7V | 03:12:34 | 02:09:13 | 00:00:00 | |
| HSKMA3-T | 2026-09-03 12:40:50 | 52.46640 | 11.36267 | 130° | 16km/h | 34330m | 4.9m/s | -34°C | 0% | 6.7hPa | 2.7V | 03:12:34 | 02:09:12 | 00:00:00 | |
| DL1XH-west | 2026-09-03 12:40:47 | 52.46644 | 11.36262 | 348° | 4km/h | 34312m | 5.3m/s | -34.2°C | 0% | 6.7hPa | 2.6V | 03:13:25 | 02:09:09 | 00:00:00 | |
| DL1XH-15 | 2026-09-03 12:40:46 | 52.46627 | 11.36218 | 76° | 40km/h | 34278m | 4.9m/s | -34.5°C | 1.4% | 6.8hPa | 2.6V | 03:12:43 | 02:09:03 | 00:00:00 | |
| DO2SHX-10 | 2026-09-03 12:40:46 | 52.46642 | 11.36261 | 15° | 15km/h | 34307m | 4.2m/s | -34.1°C | 1.4% | 6.7hPa | 2.6V | 00:00:00 | 02:09:08 | 00:00:00 | |
| DB0NH | 2026-09-03 12:40:45 | 52.46640 | 11.36259 | 37° | 20km/h | 34303m | 4.4m/s | -34.2°C | 1.4% | 6.7hPa | 2.7V | 03:12:00 | 02:09:07 | 00:00:00 | |
| GOEST3-10 | 2026-09-03 12:40:44 | 52.46637 | 11.36254 | 52° | 33km/h | 34298m | 5.8m/s | -34.4°C | 1.4% | 6.7hPa | 2.7V | 00:00:00 | 02:09:06 | 00:00:00 | |
| DL1XH1-15 | 2026-09-03 12:40:43 | 52.46626 | 11.36203 | 82° | 37km/h | 34273m | 4m/s | -34.6°C | 1.4% | 6.8hPa | 2.7V | 03:12:44 | 02:09:02 | 00:00:00 | |
| HSKMA3-T | 2026-09-03 12:40:41 | 52.46626 | 11.36203 | 83° | 37km/h | 34273m | 4m/s | -34.6°C | 0% | 6.8hPa | 2.7V | 03:13:25 | 02:09:02 | 00:00:00 | |
| DL1XH-west | 2026-09-03 12:40:37 | 52.46626 | 11.36174 | 114° | 7km/h | 34258m | 6.8m/s | -34.7°C | 0% | 6.8hPa | 2.7V | 03:13:25 | 02:08:59 | 00:00:00 | |
| DO2SHX-10 | 2026-09-03 12:40:37 | 52.46625 | 11.36174 | 114° | 9km/h | 34258m | 6.8m/s | -34.6°C | 1.4% | 6.8hPa | 2.7V | 00:00:00 | 02:08:59 | 00:00:00 | |
| DL1XH-15 | 2026-09-03 12:40:36 | 52.46623 | 11.36182 | 75° | 18km/h | 34225m | 6.7m/s | -34.8°C | 1.5% | 6.8hPa | 2.6V | 03:12:53 | 02:08:53 | 00:00:00 | |
| DL1XH1-15 | 2026-09-03 12:40:35 | 52.46622 | 11.36173 | 84° | 27km/h | 34218m | 7m/s | -34.6°C | 1.5% | 6.9hPa | 2.6V | 03:12:54 | 02:08:52 | 00:00:00 | |
| DF8AY | 2026-09-03 12:40:34 | 52.46626 | 11.36183 | 278° | 13km/h | 34241m | 4.1m/s | -34.7°C | 0% | 0hPa | 2.7V | 03:14:16 | 02:08:56 | 00:00:00 | |
| AA1-15 | 2026-09-03 12:40:30 | 52.46622 | 11.36173 | 84° | 27km/h | 34218m | 7m/s | -34.6°C | 0% | 6.9hPa | 2.6V | 03:13:25 | 02:08:52 | 00:00:00 | |
| HSKMA3-T | 2026-09-03 12:40:29 | 52.46622 | 11.36160 | 90° | 37km/h | 34211m | 6.6m/s | -34.7°C | 0% | 6.8hPa | 2.7V | 03:13:25 | 02:08:51 | 00:00:00 | |
| DL1XH-west | 2026-09-03 12:40:27 | 52.46624 | 11.36114 | 97° | 31km/h | 34194m | 5.2m/s | -34.6°C | 0% | 6.8hPa | 2.7V | 03:13:25 | 02:08:48 | 00:00:00 | |
| DL1XH-15 | 2026-09-03 12:40:26 | 52.46626 | 11.36091 | 65° | 2km/h | 34165m | 5.3m/s | -34.6°C | 1.4% | 6.9hPa | 2.7V | 03:13:03 | 02:08:43 | 00:00:00 | |
| DO2SHX-10 | 2026-09-03 12:40:25 | 52.46625 | 11.36103 | 98° | 13km/h | 34189m | 5.5m/s | -34.6°C | 1.5% | 6.8hPa | 2.6V | 00:00:00 | 02:08:47 | 00:00:00 | |
| GOEST3-10 | 2026-09-03 12:40:24 | 52.46625 | 11.36096 | 97° | 5km/h | 34183m | 6.1m/s | -34.7°C | 1.5% | 6.8hPa | 2.6V | 00:00:00 | 02:08:46 | 00:00:00 | |
| DL1XH1-15 | 2026-09-03 12:40:23 | 52.46626 | 11.36090 | 96° | 7km/h | 34160m | 6.1m/s | -34.7°C | 1.4% | 6.9hPa | 2.7V | 03:13:04 | 02:08:42 | 00:00:00 | |
| DF8AY | 2026-09-03 12:40:22 | 52.46626 | 11.36092 | 54° | 0km/h | 34171m | 5.6m/s | -34.6°C | 0% | 0hPa | 2.7V | 03:14:16 | 02:08:44 | 00:00:00 | |
| AA1-15 | 2026-09-03 12:40:19 | 52.46626 | 11.36085 | 101° | 13km/h | 34153m | 6.4m/s | -34.7°C | 0% | 6.9hPa | 2.6V | 03:13:25 | 02:08:41 | 00:00:00 | |
| DL1XH-west | 2026-09-03 12:40:16 | 52.46630 | 11.36058 | 107° | 29km/h | 34136m | 5.8m/s | -34.8°C | 0% | 6.9hPa | 2.7V | 03:13:25 | 02:08:38 | 00:00:00 | |
| DL1XH-15 | 2026-09-03 12:40:16 | 52.46642 | 11.36010 | 114° | 22km/h | 34107m | 4.9m/s | -34.8°C | 1.5% | 6.9hPa | 2.7V | 03:13:13 | 02:08:33 | 00:00:00 | |
| DO2SHX-10 | 2026-09-03 12:40:16 | 52.46630 | 11.36058 | 108° | 27km/h | 34136m | 5.7m/s | -34.7°C | 1.5% | 6.9hPa | 2.7V | 00:00:00 | 02:08:38 | 00:00:00 | |
| DL1XH1-15 | 2026-09-03 12:40:15 | 52.46646 | 11.35991 | 106° | 27km/h | 34095m | 6.7m/s | -35°C | 1.5% | 7hPa | 2.7V | 03:13:15 | 02:08:31 | 00:00:00 | |
| DO3MHA-11 | 2026-09-03 12:40:15 | 52.46632 | 11.36047 | 109° | 27km/h | 34130m | 6.4m/s | -34.6°C | 1.5% | 6.9hPa | 2.7V | 00:00:00 | 02:08:37 | 00:00:00 | |
| DJ8HS-15 | 2026-09-03 12:40:14 | 52.46635 | 11.36036 | 113° | 29km/h | 34124m | 6.1m/s | -34.7°C | 1.5% | 6.9hPa | 2.6V | 00:00:00 | 02:08:36 | 00:00:00 | |
| DM0DOS-11 | 2026-09-03 12:40:13 | 52.46640 | 11.36018 | 114° | 22km/h | 34112m | 5.2m/s | -34.9°C | 1.5% | 6.9hPa | 2.7V | 03:13:12 | 02:08:34 | 00:00:00 | |
| DF8AY | 2026-09-03 12:40:12 | 52.46651 | 11.35955 | 101° | 29km/h | 34077m | 5.3m/s | -35°C | 0% | 0hPa | 2.7V | 03:14:16 | 02:08:28 | 00:00:00 | |
| AA1-15 | 2026-09-03 12:40:10 | 52.46648 | 11.35980 | 104° | 31km/h | 34089m | 6.6m/s | -35°C | 0% | 7hPa | 2.6V | 03:13:25 | 02:08:30 | 00:00:00 | |
| HSKMA3-T | 2026-09-03 12:40:09 | 52.46650 | 11.35968 | 102° | 31km/h | 34082m | 5.8m/s | -35°C | 0% | 7hPa | 2.6V | 03:13:25 | 02:08:29 | 00:00:00 | |
| DL1XH-west | 2026-09-03 12:40:06 | 52.46656 | 11.35888 | 92° | 35km/h | 34036m | 7.2m/s | -35.2°C | 0% | 7hPa | 2.7V | 03:13:25 | 02:08:21 | 00:00:00 | |
| DO2SHX-10 | 2026-09-03 12:40:05 | 52.46653 | 11.35935 | 99° | 18km/h | 34065m | 6.7m/s | -35.1°C | 1.5% | 6.9hPa | 2.7V | 00:00:00 | 02:08:26 | 00:00:00 | |
| DL1XH1-15 | 2026-09-03 12:40:03 | 52.46656 | 11.35901 | 94° | 27km/h | 34043m | 6.6m/s | -35.1°C | 1.5% | 7hPa | 2.7V | 03:13:24 | 02:08:22 | 00:00:00 | |
| HSKMA3-T | 2026-09-03 12:39:59 | 52.46656 | 11.35872 | 90° | 42km/h | 34030m | 6m/s | -35.1°C | 0% | 7hPa | 2.7V | 03:14:16 | 02:08:20 | 00:00:00 | |
| AA1-15 | 2026-09-03 12:39:57 | 52.46656 | 11.35854 | 90° | 44km/h | 34024m | 5m/s | -34.9°C | 0% | 7hPa | 2.6V | 03:14:16 | 02:08:19 | 00:00:00 | |
| DL1XH-15 | 2026-09-03 12:39:56 | 52.46655 | 11.35779 | 83° | 15km/h | 33990m | 5.1m/s | -35°C | 1.5% | 7.1hPa | 2.6V | 03:13:33 | 02:08:13 | 00:00:00 | |
| SONDE2-11 | 2026-09-03 12:39:56 | 52.46656 | 11.35836 | 89° | 42km/h | 34020m | 4.4m/s | -34.9°C | 0.1% | 7.1hPa | 2.7V | 00:00:00 | 00:00:00 | 00:00:00 | |
| DB0DAN | 2026-09-03 12:39:55 | 52.46656 | 11.35819 | 90° | 37km/h | 34014m | 5.6m/s | -35°C | 0% | 7.06hPa | 2.7V | 00:00:00 | 00:00:00 | 00:00:00 | |
| DL1XH-west | 2026-09-03 12:39:52 | 52.46655 | 11.35785 | 82° | 16km/h | 33995m | 5.9m/s | -35.1°C | 0% | 7.1hPa | 2.6V | 03:14:16 | 02:08:14 | 00:00:00 | |
| HSKMA3-T | 2026-09-03 12:39:47 | 52.46655 | 11.35740 | 98° | 37km/h | 33967m | 6.7m/s | -35.1°C | 0% | 7.1hPa | 2.7V | 03:14:16 | 02:08:09 | 00:00:00 | |
| AA1-15 | 2026-09-03 12:39:47 | 52.46657 | 11.35723 | 98° | 42km/h | 33961m | 5.4m/s | -34.9°C | 0% | 7.1hPa | 2.6V | 03:14:16 | 02:08:08 | 00:00:00 | |
| DM0DOS-11 | 2026-09-03 12:39:46 | 52.46666 | 11.35666 | 113° | 22km/h | 33939m | 6.9m/s | -34.9°C | 1.5% | 7.1hPa | 2.7V | 03:13:42 | 02:08:04 | 00:00:00 | |
| DF8AY | 2026-09-03 12:39:45 | 52.46659 | 11.35706 | 102° | 42km/h | 33956m | 4.4m/s | -34.7°C | 0% | 0hPa | 2.6V | 03:14:16 | 02:08:07 | 00:00:00 | |
| DO3MHA-11 | 2026-09-03 12:39:45 | 52.46658 | 11.35706 | 102° | 22km/h | 33957m | 4.4m/s | -34.7°C | 1.5% | 7.1hPa | 2.6V | 00:00:00 | 02:08:07 | 00:00:00 | |
| DB0NH | 2026-09-03 12:39:44 | 52.46661 | 11.35690 | 106° | 24km/h | 33952m | 4.8m/s | -34.7°C | 1.5% | 7.1hPa | 2.6V | 00:00:00 | 02:08:06 | 00:00:00 | |
| DL1XH1-15 | 2026-09-03 12:39:43 | 52.46669 | 11.35656 | 136° | 9km/h | 33927m | 5.2m/s | -34.9°C | 1.5% | 7.1hPa | 2.6V | 03:13:44 | 02:08:02 | 00:00:00 | |
| DL1XH-west | 2026-09-03 12:39:42 | 52.46666 | 11.35666 | 114° | 22km/h | 33939m | 6.9m/s | -34.9°C | 0% | 7.1hPa | 2.7V | 03:14:16 | 02:08:04 | 00:00:00 | |
| DB0DAN | 2026-09-03 12:39:40 | 52.46669 | 11.35656 | 137° | 9km/h | 33927m | 5.2m/s | -34.9°C | 0% | 7.15hPa | 2.6V | 00:00:00 | 00:00:00 | 00:00:00 | |
| DD8BA-10 | 2026-09-03 12:39:39 | 52.46671 | 11.35653 | 134° | 26km/h | 33923m | 4.7m/s | -34.8°C | 1.5% | 7.1hPa | 2.7V | 03:13:00 | 00:00:00 | 00:00:00 | |
| DF7ER-10 | 2026-09-03 12:39:38 | 52.46671 | 11.35653 | 135° | 9km/h | 33923m | 4.7m/s | -34.9°C | 0.0% | 7.1hPa | 2.7V | 03:14:00 | 00:00:00 | 00:00:00 | |
| DO2SHX-10 | 2026-09-03 12:39:37 | 52.46674 | 11.35644 | 109° | 27km/h | 33911m | 6.6m/s | -34.8°C | 1.5% | 7.1hPa | 2.7V | 00:00:00 | 02:07:59 | 00:00:00 | |
| DM0DOS-11 | 2026-09-03 12:39:36 | 52.46684 | 11.35579 | 106° | 35km/h | 33882m | 5.7m/s | -34.6°C | 1.5% | 7.2hPa | 2.7V | 03:13:52 | 02:07:54 | 00:00:00 | |
| HSKMA3-T | 2026-09-03 12:39:36 | 52.46675 | 11.35635 | 105° | 27km/h | 33904m | 6.6m/s | -34.7°C | 0% | 7.2hPa | 2.7V | 03:14:16 | 02:07:58 | 00:00:00 | |
| HTAHTA | 2026-09-03 12:39:36 | 52.46675 | 11.35635 | 104° | 26km/h | 33904m | 6.6m/s | -34.7°C | 0.0% | 7.2hPa | 2.6V | 00:00:00 | 00:00:00 | 00:00:00 | |
| DL1XH1-15 | 2026-09-03 12:39:35 | 52.46688 | 11.35558 | 113° | 18km/h | 33869m | 6.8m/s | -34.7°C | 1.4% | 7.2hPa | 2.6V | 03:13:54 | 02:07:52 | 00:00:00 | |
| DF8AY | 2026-09-03 12:39:35 | 52.46679 | 11.35608 | 103° | 38km/h | 33892m | 5.3m/s | -34.6°C | 0% | 0hPa | 2.6V | 03:14:16 | 02:07:56 | 00:00:00 | |
| DL1XH-west | 2026-09-03 12:39:31 | 52.46686 | 11.35567 | 110° | 26km/h | 33876m | 6.6m/s | -34.7°C | 0% | 7.2hPa | 2.7V | 03:14:16 | 02:07:53 | 00:00:00 | |
| OE5DXL-15 | 2026-09-03 12:39:31 | 52.46686 | 11.35567 | 110° | 27km/h | 33876m | 6.5m/s | 0°C | 0% | 0hPa | 2.7V | 00:00:00 | 00:00:00 | 00:00:00 | |
| DB0UT-7 | 2026-09-03 12:39:30 | 52.46688 | 11.35558 | 114° | 27km/h | 33870m | 6.7m/s | -34.7°C | 1.4% | 7.1hPa | 2.7V | 00:00:00 | 02:07:52 | 00:00:00 | |
| DD8BA-10 | 2026-09-03 12:39:29 | 52.46690 | 11.35553 | 121° | 26km/h | 33863m | 6.1m/s | -34.7°C | 1.5% | 7.2hPa | 2.7V | 00:00:00 | 00:00:00 | 00:00:00 | |
| DO2SHX-10 | 2026-09-03 12:39:28 | 52.46691 | 11.35549 | 124° | 11km/h | 33857m | 5.4m/s | -34.7°C | 1.4% | 7.2hPa | 2.7V | 00:00:00 | 02:07:50 | 00:00:00 | |
| DF7ER-10 | 2026-09-03 12:39:27 | 52.46691 | 11.35549 | 125° | 7km/h | 33857m | 5.4m/s | -34.8°C | 0.0% | 7.2hPa | 2.7V | 03:14:00 | 00:00:00 | 00:00:00 | |
| DM0DOS-11 | 2026-09-03 12:39:26 | 52.46698 | 11.35491 | 98° | 44km/h | 33821m | 5.3m/s | -35°C | 1.4% | 7.3hPa | 2.7V | 03:14:02 | 02:07:44 | 00:00:00 | |
| DL1XH-15 | 2026-09-03 12:39:26 | 52.46700 | 11.35473 | 98° | 44km/h | 33816m | 4.4m/s | -35.1°C | 1.5% | 7.2hPa | 2.7V | 03:14:03 | 02:07:43 | 00:00:00 | |
| HSKMA3-T | 2026-09-03 12:39:25 | 52.46694 | 11.35533 | 100° | 22km/h | 33841m | 7m/s | -34.8°C | 0% | 7.2hPa | 2.7V | 03:14:16 | 02:07:47 | 00:00:00 | |
| DB0DAN | 2026-09-03 12:39:25 | 52.46694 | 11.35533 | 100° | 22km/h | 33841m | 7m/s | -34.8°C | 0% | 7.24hPa | 2.7V | 00:00:00 | 00:00:00 | 00:00:00 | |
| DF8AY | 2026-09-03 12:39:21 | 52.46700 | 11.35473 | 99° | 44km/h | 33816m | 4.4m/s | -35.1°C | 0% | 0hPa | 2.7V | 03:14:16 | 02:07:43 | 00:00:00 | |
| DL1XH-west | 2026-09-03 12:39:20 | 52.46701 | 11.35456 | 99° | 37km/h | 33812m | 4.3m/s | -35°C | 0% | 7.3hPa | 2.7V | 03:14:16 | 02:07:42 | 00:00:00 | |
| S3001 | 2026-09-03 12:39:20 | 52.46701 | 11.35456 | 99° | 37km/h | 33812m | 4.3m/s | -35.0°C | 0.1% | 7.3hPa | 2.6V | 00:00:00 | 00:00:00 | 00:00:00 | |
| DD8BA-10 | 2026-09-03 12:39:19 | 52.46703 | 11.35442 | 98° | 22km/h | 33808m | 5.9m/s | -34.9°C | 1.4% | 7.2hPa | 2.6V | 00:00:00 | 00:00:00 | 00:00:00 | |
| EDDB2-12 | 2026-09-03 12:39:17 | 52.46705 | 11.35425 | 124° | 4km/h | 33787m | 5.6m/s | -35.0°C | 0.0% | 7.3hPa | 2.7V | 00:00:00 | 00:00:00 | 00:00:00 | |
| DL1XH-15 | 2026-09-03 12:39:16 | 52.46710 | 11.35386 | 95° | 44km/h | 33760m | 6.4m/s | -34.9°C | 1.4% | 7.3hPa | 2.7V | 03:14:13 | 02:07:33 | 00:00:00 | |
| DO2SHX-10 | 2026-09-03 12:39:16 | 52.46705 | 11.35425 | 125° | 7km/h | 33788m | 5.6m/s | -34.9°C | 1.4% | 7.2hPa | 2.7V | 00:00:00 | 02:07:38 | 00:00:00 | |
| DM0DOS-11 | 2026-09-03 12:39:15 | 52.46709 | 11.35401 | 100° | 33km/h | 33766m | 7m/s | -35°C | 1.4% | 7.3hPa | 2.6V | 03:14:12 | 02:07:34 | 00:00:00 | |
| AA1-15 | 2026-09-03 12:39:15 | 52.46705 | 11.35423 | 121° | 5km/h | 33783m | 4.3m/s | -35°C | 0% | 7.3hPa | 2.7V | 03:14:16 | 02:07:37 | 00:00:00 | |
| DF8AY | 2026-09-03 12:39:10 | 52.46711 | 11.35367 | 93° | 49km/h | 33754m | 6m/s | -34.9°C | 0% | 0hPa | 2.7V | 03:14:16 | 02:07:32 | 00:00:00 | |
| DB0DAN | 2026-09-03 12:39:10 | 52.46711 | 11.35367 | 93° | 47km/h | 33754m | 6m/s | -34.9°C | 0% | 7.31hPa | 2.7V | 00:00:00 | 00:00:00 | 00:00:00 | |
| AA1-15 | 2026-09-03 12:39:05 | 52.46703 | 11.35270 | 78° | 22km/h | 33719m | 5.5m/s | -35°C | 0% | 7.3hPa | 2.7V | 03:15:07 | 02:07:26 | 00:00:00 | |
| HSKMA3-T | 2026-09-03 12:39:05 | 52.46702 | 11.35262 | 90° | 20km/h | 33713m | 6.2m/s | -35.2°C | 0% | 7.3hPa | 2.7V | 03:15:07 | 02:07:25 | 00:00:00 | |
| DO3MHA-11 | 2026-09-03 12:39:05 | 52.46704 | 11.35280 | 74° | 26km/h | 33725m | 5.4m/s | -35.0°C | 1.4% | 7.3hPa | 2.6V | 00:00:00 | 02:07:27 | 00:00:00 | |
| DM0DOS-11 | 2026-09-03 12:39:04 | 52.46703 | 11.35253 | 102° | 22km/h | 33707m | 6.4m/s | -35.3°C | 1.5% | 7.4hPa | 2.6V | 03:14:22 | 02:07:24 | 00:00:00 | |
| DL1XH1-15 | 2026-09-03 12:39:03 | 52.46707 | 11.35233 | 111° | 29km/h | 33695m | 5.3m/s | -35.2°C | 1.5% | 7.4hPa | 2.7V | 03:14:24 | 02:07:22 | 00:00:00 | |
| DL1XH-15 | 2026-09-03 12:39:03 | 52.46704 | 11.35243 | 111° | 26km/h | 33701m | 6.1m/s | -35.3°C | 1.5% | 7.4hPa | 2.6V | 03:14:23 | 02:07:23 | 00:00:00 | |
| DL1XH-west | 2026-09-03 12:39:00 | 52.46707 | 11.35233 | 111° | 29km/h | 33695m | 5.3m/s | -35.2°C | 0% | 7.4hPa | 2.7V | 03:15:07 | 02:07:22 | 00:00:00 | |
| DF8AY | 2026-09-03 12:38:59 | 52.46710 | 11.35221 | 109° | 29km/h | 33690m | 5.1m/s | -35.1°C | 0% | 0hPa | 2.7V | 03:15:07 | 02:07:21 | 00:00:00 | |
| SP3WXH-11 | 2026-09-03 12:38:59 | 52.46710 | 11.35221 | 109° | 29km/h | 33690m | 5.1m/s | -35.1°C | 0.0% | 7.4hPa | 2.7V | 00:00:00 | 00:00:00 | 00:00:00 | |
| DO2SHX-10 | 2026-09-03 12:38:58 | 52.46712 | 11.35210 | 103° | 27km/h | 33685m | 5.4m/s | -35.1°C | 1.4% | 7.3hPa | 2.7V | 00:00:00 | 02:07:20 | 00:00:00 | |
| DL1NUX | 2026-09-03 12:38:57 | 52.46710 | 11.35146 | 100° | 31km/h | 33650m | 6m/s | -35.7°C | 1.4% | 7.4hPa | 2.7V | 03:14:32 | 02:07:14 | 00:00:00 | |
| DL1XH-15 | 2026-09-03 12:38:56 | 52.46712 | 11.35132 | 108° | 37km/h | 33643m | 7.1m/s | -35.7°C | 1.5% | 7.4hPa | 2.6V | 03:14:33 | 02:07:13 | 00:00:00 | |
| DL1XH1-15 | 2026-09-03 12:38:55 | 52.46716 | 11.35118 | 115° | 40km/h | 33636m | 6.5m/s | -35.7°C | 1.5% | 7.4hPa | 2.6V | 03:14:34 | 02:07:12 | 00:00:00 | |
| HSKMA3-T | 2026-09-03 12:38:54 | 52.46710 | 11.35168 | 79° | 26km/h | 33660m | 5.2m/s | -35.4°C | 0% | 7.4hPa | 2.7V | 03:15:07 | 02:07:16 | 00:00:00 | |
| AA1-15 | 2026-09-03 12:38:53 | 52.46710 | 11.35157 | 86° | 27km/h | 33655m | 5.1m/s | -35.6°C | 0% | 7.4hPa | 2.7V | 03:15:07 | 02:07:15 | 00:00:00 | |
| DL1XH-west | 2026-09-03 12:38:50 | 52.46716 | 11.35118 | 116° | 40km/h | 33636m | 6.5m/s | -35.7°C | 0% | 7.5hPa | 2.6V | 03:15:07 | 02:07:12 | 00:00:00 | |
| DF8AY | 2026-09-03 12:38:49 | 52.46721 | 11.35103 | 121° | 42km/h | 33630m | 5.1m/s | -35.7°C | 0% | 0hPa | 2.7V | 03:15:07 | 02:07:11 | 00:00:00 | |
| DF7PN | 2026-09-03 12:38:47 | 52.46735 | 11.35069 | 125° | 20km/h | 33614m | 6.9m/s | -35.8°C | 0.1% | 7.5hPa | 2.7V | 00:00:00 | 00:00:00 | 00:00:00 | |
| DL1XH-15 | 2026-09-03 12:38:46 | 52.46740 | 11.35045 | 106° | 18km/h | 33584m | 6.5m/s | -35.9°C | 1.5% | 7.5hPa | 2.7V | 03:14:43 | 02:07:03 | 00:00:00 | |
| EDDB2-12 | 2026-09-03 12:38:45 | 52.46738 | 11.35063 | 118° | 13km/h | 33607m | 6.2m/s | -35.9°C | 0.1% | 7.5hPa | 2.7V | 00:00:00 | 00:00:00 | 00:00:00 | |
| HSKMA3-T | 2026-09-03 12:38:43 | 52.46739 | 11.35055 | 92° | 9km/h | 33596m | 5.3m/s | -35.8°C | 0% | 7.5hPa | 2.7V | 03:15:07 | 02:07:05 | 00:00:00 | |
| DM0DOS-11 | 2026-09-03 12:38:43 | 52.46739 | 11.35051 | 95° | 13km/h | 33590m | 6.2m/s | -35.8°C | 1.4% | 7.5hPa | 2.7V | 03:14:42 | 02:07:04 | 00:00:00 | |
| AA1-15 | 2026-09-03 12:38:42 | 52.46739 | 11.35051 | 95° | 13km/h | 33590m | 6.2m/s | -35.8°C | 0% | 7.5hPa | 2.7V | 03:15:07 | 02:07:04 | 00:00:00 | |
| DL1XH1-15 | 2026-09-03 12:38:41 | 52.46741 | 11.35037 | 111° | 24km/h | 33578m | 6.2m/s | -35.9°C | 1.4% | 7.5hPa | 2.6V | 03:14:44 | 02:07:02 | 00:00:00 | |
| DL1XH-west | 2026-09-03 12:38:39 | 52.46748 | 11.35017 | 119° | 31km/h | 33566m | 5.6m/s | -36.1°C | 0% | 7.5hPa | 2.7V | 03:15:07 | 02:07:00 | 00:00:00 | |
| DF8AY | 2026-09-03 12:38:39 | 52.46744 | 11.35027 | 116° | 29km/h | 33572m | 5.7m/s | -36°C | 0% | 0hPa | 2.6V | 03:15:07 | 02:07:01 | 00:00:00 | |
| DD8BA-10 | 2026-09-03 12:38:39 | 52.46744 | 11.35027 | 117° | 24km/h | 33572m | 5.6m/s | -36.0°C | 1.4% | 7.5hPa | 2.7V | 00:00:00 | 00:00:00 | 00:00:00 | |
| DL4XJ-10 | 2026-09-03 12:38:38 | 52.46747 | 11.35017 | 119° | 26km/h | 33566m | 5.6m/s | -34.4°C | 0% | 0hPa | 2.7V | 00:00:00 | 00:00:00 | 00:00:00 | |
| DM0DOS-11 | 2026-09-03 12:38:37 | 52.46769 | 11.34971 | 138° | 18km/h | 33531m | 4.9m/s | -36.9°C | 1.6% | 7.6hPa | 2.7V | 03:14:52 | 02:06:54 | 00:00:00 | |
| DO2SHX-10 | 2026-09-03 12:38:37 | 52.46751 | 11.35006 | 121° | 26km/h | 33561m | 6.1m/s | -36.2°C | 1.4% | 7.4hPa | 2.6V | 00:00:00 | 02:06:59 | 00:00:00 | |
| DL1XH1-15 | 2026-09-03 12:38:35 | 52.46776 | 11.34959 | 132° | 26km/h | 33519m | 6.8m/s | -37°C | 1.6% | 7.6hPa | 2.6V | 03:14:54 | 02:06:52 | 00:00:00 | |
| HSKMA3-T | 2026-09-03 12:38:32 | 52.46768 | 11.34971 | 138° | 18km/h | 33531m | 4.9m/s | -36.9°C | 0% | 7.6hPa | 2.7V | 03:15:07 | 02:06:54 | 00:00:00 | |
| DL1NUX | 2026-09-03 12:38:31 | 52.46781 | 11.34950 | 131° | 29km/h | 33513m | 6.1m/s | -37°C | 1.6% | 7.6hPa | 2.6V | 03:14:55 | 02:06:51 | 00:00:00 | |
| AA1-15 | 2026-09-03 12:38:31 | 52.46772 | 11.34966 | 136° | 22km/h | 33526m | 6.2m/s | -37°C | 0% | 7.6hPa | 2.7V | 03:15:07 | 02:06:53 | 00:00:00 | |
| DL1XH-west | 2026-09-03 12:38:29 | 52.46781 | 11.34950 | 131° | 29km/h | 33513m | 6.1m/s | -37°C | 0% | 7.6hPa | 2.6V | 03:15:07 | 02:06:51 | 00:00:00 | |
| DF8AY | 2026-09-03 12:38:28 | 52.46786 | 11.34941 | 128° | 29km/h | 33507m | 5.2m/s | -37.1°C | 0% | 0hPa | 2.7V | 03:15:07 | 02:06:50 | 00:00:00 | |
| DM0DOS-11 | 2026-09-03 12:38:27 | 52.46798 | 11.34897 | 117° | 15km/h | 33473m | 4.4m/s | -37°C | 1.6% | 7.6hPa | 2.6V | 03:15:02 | 02:06:44 | 00:00:00 | |
| DO2SHX-10 | 2026-09-03 12:38:25 | 52.46795 | 11.34914 | 111° | 15km/h | 33491m | 7.0m/s | -37.1°C | 1.6% | 7.6hPa | 2.7V | 00:00:00 | 02:06:47 | 00:00:00 | |
| DL1NUX | 2026-09-03 12:38:24 | 52.46812 | 11.34875 | 140° | 38km/h | 33455m | 7.4m/s | -37.1°C | 1.6% | 7.7hPa | 2.7V | 03:15:05 | 02:06:41 | 00:00:00 | |
| DF8AY-15 | 2026-09-03 12:38:24 | 52.46797 | 11.34908 | 101° | 22km/h | 33484m | 6.3m/s | -37.0°C | 1.6% | 7.6hPa | 2.7V | 03:15:00 | 02:06:46 | 00:00:00 | |
| SONDE2-11 | 2026-09-03 12:38:23 | 52.46798 | 11.34897 | 117° | 15km/h | 33473m | 4.4m/s | -37.0°C | 0.1% | 7.6hPa | 2.6V | 00:00:00 | 00:00:00 | 00:00:00 | |
| DO2SHX-10 | 2026-09-03 12:38:22 | 52.46798 | 11.34897 | 118° | 22km/h | 33473m | 4.3m/s | -36.9°C | 1.6% | 7.6hPa | 2.6V | 00:00:00 | 02:06:44 | 00:00:00 | |
| DL1XH1-15 | 2026-09-03 12:38:21 | 52.46806 | 11.34884 | 137° | 29km/h | 33462m | 7m/s | -37°C | 1.6% | 7.6hPa | 2.7V | 03:15:04 | 02:06:42 | 00:00:00 | |
| AA1-15 | 2026-09-03 12:38:21 | 52.46801 | 11.34892 | 132° | 22km/h | 33468m | 5.5m/s | -37°C | 0% | 7.6hPa | 2.6V | 03:15:07 | 02:06:43 | 00:00:00 | |
| DL1XH-west | 2026-09-03 12:38:18 | 52.46820 | 11.34865 | 142° | 46km/h | 33448m | 6.2m/s | -37.2°C | 0% | 7.7hPa | 2.7V | 03:15:07 | 02:06:40 | 00:00:00 | |
| S3001 | 2026-09-03 12:38:18 | 52.46820 | 11.34865 | 141° | 44km/h | 33448m | 6.2m/s | -37.2°C | 0.1% | 7.7hPa | 2.7V | 00:00:00 | 00:00:00 | 00:00:00 | |
| DM0DOS-11 | 2026-09-03 12:38:17 | 52.46854 | 11.34813 | 107° | 11km/h | 33413m | 5.8m/s | -37.2°C | 1.6% | 7.7hPa | 2.7V | 03:15:12 | 02:06:34 | 00:00:00 | |
| DF8AY | 2026-09-03 12:38:16 | 52.46845 | 11.34832 | 139° | 33km/h | 33432m | 6.3m/s | -37.1°C | 0% | 0hPa | 2.6V | 03:15:58 | 02:06:37 | 00:00:00 | |
| DL1XH-15 | 2026-09-03 12:38:16 | 52.46855 | 11.34808 | 102° | 11km/h | 33407m | 5.7m/s | -37.4°C | 1.6% | 7.7hPa | 2.7V | 03:15:13 | 02:06:33 | 00:00:00 | |
| AA1-15 | 2026-09-03 12:38:11 | 52.46855 | 11.34808 | 102° | 11km/h | 33407m | 5.7m/s | -37.4°C | 0% | 7.7hPa | 2.7V | 03:15:58 | 02:06:33 | 00:00:00 | |
| HSKMA3-T | 2026-09-03 12:38:10 | 52.46856 | 11.34803 | 112° | 15km/h | 33401m | 6.5m/s | -37.4°C | 0% | 7.7hPa | 2.7V | 03:15:58 | 02:06:32 | 00:00:00 | |
| DL1NUX | 2026-09-03 12:38:10 | 52.46858 | 11.34797 | 122° | 18km/h | 33395m | 6.3m/s | -37.3°C | 1.6% | 7.7hPa | 2.7V | 03:15:15 | 02:06:31 | 00:00:00 | |
| DL1XH-west | 2026-09-03 12:38:08 | 52.46861 | 11.34790 | 132° | 24km/h | 33389m | 5.4m/s | -37.3°C | 0% | 7.7hPa | 2.7V | 03:15:58 | 02:06:30 | 00:00:00 | |
| DO3MHA-11 | 2026-09-03 12:38:07 | 52.46866 | 11.34783 | 138° | 24km/h | 33384m | 5.1m/s | -37.3°C | 1.6% | 7.7hPa | 2.6V | 00:00:00 | 02:06:29 | 00:00:00 | |
| DL1XH-15 | 2026-09-03 12:38:06 | 52.46895 | 11.34753 | 157° | 20km/h | 33348m | 5.5m/s | -37.5°C | 1.7% | 7.8hPa | 2.7V | 03:15:23 | 02:06:23 | 00:00:00 | |
| DF8AY | 2026-09-03 12:38:06 | 52.46876 | 11.34769 | 145° | 26km/h | 33373m | 6.3m/s | -37.5°C | 0% | 0hPa | 2.6V | 03:15:58 | 02:06:27 | 00:00:00 | |
| DM0DOS-11 | 2026-09-03 12:38:05 | 52.46891 | 11.34756 | 159° | 18km/h | 33354m | 5.5m/s | -37.4°C | 1.6% | 7.8hPa | 2.7V | 03:15:22 | 02:06:24 | 00:00:00 | |
| DL1XH1-15 | 2026-09-03 12:38:04 | 52.46900 | 11.34750 | 151° | 22km/h | 33343m | 5.8m/s | -37.5°C | 1.6% | 7.8hPa | 2.7V | 03:15:24 | 02:06:22 | 00:00:00 | |
| AA1-15 | 2026-09-03 12:38:00 | 52.46900 | 11.34750 | 152° | 22km/h | 33343m | 5.8m/s | -37.5°C | 0% | 7.8hPa | 2.7V | 03:15:58 | 02:06:22 | 00:00:00 | |
| DL1XH-west | 2026-09-03 12:37:58 | 52.46911 | 11.34737 | 139° | 29km/h | 33330m | 5.8m/s | -37.3°C | 0% | 7.8hPa | 2.6V | 03:15:58 | 02:06:20 | 00:00:00 | |
| DO2SHX-10 | 2026-09-03 12:37:58 | 52.46911 | 11.34737 | 140° | 29km/h | 33331m | 5.7m/s | -37.3°C | 1.6% | 7.7hPa | 2.6V | 00:00:00 | 02:06:20 | 00:00:00 | |
| DO3MHA-11 | 2026-09-03 12:37:57 | 52.46916 | 11.34729 | 135° | 22km/h | 33325m | 5.0m/s | -37.3°C | 1.6% | 7.8hPa | 2.6V | 00:00:00 | 02:06:19 | 00:00:00 | |
| DL1XH1-15 | 2026-09-03 12:37:55 | 52.46927 | 11.34677 | 115° | 20km/h | 33287m | 5.3m/s | -37.6°C | 1.6% | 7.8hPa | 2.6V | 03:15:34 | 02:06:12 | 00:00:00 | |
| DB0DAN | 2026-09-03 12:37:55 | 52.46924 | 11.34711 | 116° | 22km/h | 33314m | 6.3m/s | -37.5°C | 0.1% | 7.81hPa | 2.7V | 00:00:00 | 00:00:00 | 00:00:00 | |
| DF8AY | 2026-09-03 12:37:54 | 52.46926 | 11.34703 | 103° | 18km/h | 33307m | 7.2m/s | -37.4°C | 0% | 0hPa | 2.7V | 03:15:58 | 02:06:16 | 00:00:00 | |
| DJ8HS-15 | 2026-09-03 12:37:54 | 52.46925 | 11.34703 | 103° | 26km/h | 33308m | 7.1m/s | -37.3°C | 1.6% | 7.8hPa | 2.6V | 00:00:00 | 02:06:16 | 00:00:00 | |
| DL1XH-15 | 2026-09-03 12:37:53 | 52.46926 | 11.34684 | 99° | 16km/h | 33291m | 4m/s | -37.5°C | 1.6% | 7.8hPa | 2.6V | 03:15:33 | 02:06:13 | 00:00:00 | |
| SONDE2-11 | 2026-09-03 12:37:52 | 52.46926 | 11.34684 | 99° | 15km/h | 33292m | 4.0m/s | -37.5°C | 0.1% | 7.8hPa | 2.6V | 00:00:00 | 00:00:00 | 00:00:00 | |
| SO1NDE-10 | 2026-09-03 12:37:51 | 52.46926 | 11.34684 | 100° | 27km/h | 33292m | 3.9m/s | -37.4°C | 1.6% | 7.8hPa | 2.6V | 00:00:00 | 02:06:13 | 00:00:00 | |
| DL1NUX | 2026-09-03 12:37:50 | 52.46930 | 11.34669 | 126° | 26km/h | 33281m | 7m/s | -37.5°C | 1.7% | 7.8hPa | 2.6V | 03:15:35 | 02:06:11 | 00:00:00 | |
| AA1-15 | 2026-09-03 12:37:50 | 52.46927 | 11.34677 | 116° | 20km/h | 33287m | 5.3m/s | -37.6°C | 0% | 7.8hPa | 2.6V | 03:15:58 | 02:06:12 | 00:00:00 | |
| DD8BA-10 | 2026-09-03 12:37:49 | 52.46930 | 11.34669 | 127° | 27km/h | 33281m | 7.0m/s | -37.4°C | 1.7% | 7.8hPa | 2.6V | 00:00:00 | 00:00:00 | 00:00:00 | |
| DM0DOS-11 | 2026-09-03 12:37:47 | 52.46967 | 11.34603 | 87° | 15km/h | 33240m | 6.7m/s | -37.6°C | 1.6% | 7.9hPa | 2.6V | 03:15:42 | 02:06:04 | 00:00:00 | |
| HSKMA3-T | 2026-09-03 12:37:47 | 52.46942 | 11.34648 | 137° | 38km/h | 33267m | 5.7m/s | -37.5°C | 0% | 7.9hPa | 2.7V | 03:15:58 | 02:06:09 | 00:00:00 | |
| DF7PN | 2026-09-03 12:37:45 | 52.46962 | 11.34618 | 133° | 27km/h | 33253m | 5.8m/s | -37.5°C | 0.1% | 7.9hPa | 2.7V | 00:00:00 | 00:00:00 | 00:00:00 | |
| DL1NUX | 2026-09-03 12:37:44 | 52.46960 | 11.34583 | 66° | 24km/h | 33224m | 4.9m/s | -37.8°C | 1.7% | 7.9hPa | 2.7V | 03:15:45 | 02:06:01 | 00:00:00 | |
| SMARD9-15 | 2026-09-03 12:37:44 | 52.46962 | 11.34618 | 133° | 27km/h | 33253m | 5.8m/s | -37.5°C | 0.1% | 7.9hPa | 2.6V | 00:00:00 | 00:00:00 | 00:00:00 | |
| DF8AY | 2026-09-03 12:37:43 | 52.46965 | 11.34610 | 119° | 20km/h | 33247m | 6.9m/s | -37.6°C | 0% | 0hPa | 2.6V | 03:15:58 | 02:06:05 | 00:00:00 | |
| DL1XH1-15 | 2026-09-03 12:37:43 | 52.46963 | 11.34591 | 56° | 22km/h | 33228m | 4.7m/s | -37.8°C | 1.6% | 7.9hPa | 2.7V | 03:15:44 | 02:06:02 | 00:00:00 | |
| AA1-15 | 2026-09-03 12:37:40 | 52.46960 | 11.34583 | 67° | 24km/h | 33224m | 4.9m/s | -37.8°C | 0% | 7.9hPa | 2.7V | 03:15:58 | 02:06:01 | 00:00:00 | |
| HSKMA3-T | 2026-09-03 12:37:36 | 52.46961 | 11.34545 | 109° | 40km/h | 33205m | 6.2m/s | -37.8°C | 0% | 7.9hPa | 2.7V | 03:15:58 | 02:05:58 | 00:00:00 | |
| DL1XH1-15 | 2026-09-03 12:37:35 | 52.46989 | 11.34471 | 122° | 16km/h | 33164m | 5.8m/s | -38°C | 1.7% | 8hPa | 2.7V | 03:15:55 | 02:05:51 | 00:00:00 | |
| DJ8HS-15 | 2026-09-03 12:37:34 | 52.46969 | 11.34515 | 122° | 29km/h | 33194m | 5.0m/s | -37.7°C | 1.7% | 7.9hPa | 2.7V | 00:00:00 | 02:05:56 | 00:00:00 | |
| DM0DOS-11 | 2026-09-03 12:37:33 | 52.46980 | 11.34491 | 127° | 29km/h | 33182m | 6.3m/s | -38°C | 1.7% | 7.9hPa | 2.7V | 03:15:52 | 02:05:54 | 00:00:00 | |
| DF8AY | 2026-09-03 12:37:32 | 52.46984 | 11.34483 | 130° | 22km/h | 33176m | 5.8m/s | 0°C | 0% | 0hPa | 2.7V | 03:15:58 | 02:05:53 | 00:00:00 | |
| DO2SHX-10 | 2026-09-03 12:37:31 | 52.46984 | 11.34483 | 130° | 18km/h | 33176m | 5.8m/s | -38.0°C | 1.7% | 7.9hPa | 2.7V | 03:15:00 | 02:05:53 | 00:00:00 | |
| DL1NUX | 2026-09-03 12:37:30 | 52.46989 | 11.34471 | 122° | 16km/h | 33164m | 5.8m/s | -38°C | 1.7% | 8hPa | 2.7V | 03:15:55 | 02:05:51 | 00:00:00 | |
| AA1-15 | 2026-09-03 12:37:29 | 52.46991 | 11.34464 | 113° | 18km/h | 33159m | 6.7m/s | -38.1°C | 0% | 8hPa | 2.7V | 03:15:58 | 02:05:50 | 00:00:00 | |
| DO2SHX-10 | 2026-09-03 12:37:28 | 52.46991 | 11.34464 | 113° | 24km/h | 33159m | 6.6m/s | -38.1°C | 1.8% | 7.9hPa | 2.7V | 00:00:00 | 02:05:50 | 00:00:00 | |
| EDDB2-11 | 2026-09-03 12:37:27 | 52.46994 | 11.34446 | 100° | 27km/h | 33147m | 5.1m/s | -38.1°C | 0.1% | 8.0hPa | 2.7V | 00:00:00 | 00:00:00 | 00:00:00 | |
| DL1XH-15 | 2026-09-03 12:37:26 | 52.46991 | 11.34384 | 77° | 27km/h | 33118m | 5.4m/s | -38.3°C | 1.7% | 8hPa | 2.7V | 03:16:03 | 02:05:43 | 00:00:00 | |
| DL1XH-west | 2026-09-03 12:37:25 | 52.46995 | 11.34434 | 94° | 31km/h | 33142m | 4.9m/s | -38.2°C | 0% | 8hPa | 2.6V | 03:16:49 | 02:05:47 | 00:00:00 | |
| DO3MHA-11 | 2026-09-03 12:37:25 | 52.46995 | 11.34434 | 94° | 31km/h | 33142m | 4.9m/s | -38.1°C | 1.7% | 7.9hPa | 2.6V | 00:00:00 | 02:05:47 | 00:00:00 | |
| DL1XH1-15 | 2026-09-03 12:37:24 | 52.46991 | 11.34363 | 99° | 26km/h | 33109m | 4.5m/s | -38.5°C | 1.7% | 8.1hPa | 2.6V | 03:16:05 | 02:05:41 | 00:00:00 | |
| DF8AY | 2026-09-03 12:37:21 | 52.46991 | 11.34384 | 77° | 27km/h | 33118m | 5.4m/s | 0°C | 0% | 0hPa | 2.7V | 18:12:15 | 02:05:43 | 00:00:00 | |
| AA1-15 | 2026-09-03 12:37:18 | 52.46993 | 11.34352 | 115° | 29km/h | 33104m | 6.3m/s | -38.4°C | 0% | 8.1hPa | 2.6V | 03:16:49 | 02:05:40 | 00:00:00 | |
| DL1XH-west | 2026-09-03 12:37:15 | 52.47008 | 11.34316 | 126° | 38km/h | 33085m | 4.6m/s | -38.4°C | 0% | 8.1hPa | 2.7V | 03:16:49 | 02:05:37 | 00:00:00 | |
| DO3MHA-11 | 2026-09-03 12:37:15 | 52.47008 | 11.34316 | 126° | 31km/h | 33085m | 4.5m/s | -38.3°C | 1.7% | 8.0hPa | 2.7V | 00:00:00 | 02:05:37 | 00:00:00 | |
| DJ8HS-15 | 2026-09-03 12:37:14 | 52.47012 | 11.34303 | 120° | 29km/h | 33081m | 4.4m/s | -38.3°C | 1.7% | 8.0hPa | 2.7V | 03:16:00 | 02:05:36 | 00:00:00 | |
| DM0DOS-11 | 2026-09-03 12:37:13 | 52.47017 | 11.34280 | 87° | 26km/h | 33068m | 7.1m/s | -38.5°C | 1.7% | 8.1hPa | 2.7V | 03:16:12 | 02:05:34 | 00:00:00 | |
| DF8AY | 2026-09-03 12:37:11 | 52.47015 | 11.34270 | 61° | 26km/h | 33062m | 7m/s | 0°C | 0% | 0hPa | 2.6V | 18:12:15 | 02:05:33 | 00:00:00 | |
| AA1-15 | 2026-09-03 12:37:07 | 52.46996 | 11.34218 | 91° | 31km/h | 33035m | 6.4m/s | -38.5°C | 0% | 8.1hPa | 2.7V | 03:16:49 | 02:05:28 | 00:00:00 | |
| DM0DOS-11 | 2026-09-03 12:37:07 | 52.47016 | 11.34158 | 125° | 27km/h | 33005m | 5.7m/s | -38.6°C | 1.8% | 8.1hPa | 2.7V | 03:16:23 | 02:05:23 | 00:00:00 | |
| DL1XH-west | 2026-09-03 12:37:04 | 52.47001 | 11.34191 | 121° | 37km/h | 33022m | 5.6m/s | -38.6°C | 0% | 8.2hPa | 2.6V | 03:16:49 | 02:05:26 | 00:00:00 | |
| DF8AY | 2026-09-03 12:37:01 | 52.47016 | 11.34158 | 126° | 27km/h | 33005m | 5.7m/s | 0°C | 0% | 0hPa | 2.7V | 18:12:15 | 02:05:23 | 00:00:00 | |
| HTAHTA | 2026-09-03 12:37:01 | 52.47019 | 11.34149 | 113° | 20km/h | 33000m | 5.5m/s | -38.7°C | 0.1% | 8.2hPa | 2.7V | 00:00:00 | 00:00:00 | 00:00:00 | |
| DB0UT-7 | 2026-09-03 12:37:00 | 52.47019 | 11.34149 | 114° | 24km/h | 33000m | 5.5m/s | -38.7°C | 1.8% | 8.1hPa | 2.7V | 00:00:00 | 00:00:00 | 00:00:00 | |
| DO9LL-15 | 2026-09-03 12:36:59 | 52.47020 | 11.34141 | 92° | 20km/h | 32995m | 5.3m/s | -38.6°C | 1.8% | 8.1hPa | 2.7V | 03:16:00 | 02:05:21 | 00:00:00 | |
| DO2SHX-10 | 2026-09-03 12:36:58 | 52.47020 | 11.34134 | 75° | 22km/h | 32989m | 5.3m/s | -38.6°C | 1.8% | 8.1hPa | 2.7V | 00:00:00 | 02:05:20 | 00:00:00 | |
| DL1XH-15 | 2026-09-03 12:36:57 | 52.47015 | 11.34066 | 97° | 26km/h | 32949m | 4.9m/s | -38.8°C | 1.8% | 8.2hPa | 2.7V | 03:16:33 | 02:05:13 | 00:00:00 | |
| DM0DOS-11 | 2026-09-03 12:36:56 | 52.47015 | 11.34077 | 99° | 26km/h | 32954m | 5.2m/s | -38.9°C | 1.8% | 8.2hPa | 2.6V | 03:16:32 | 02:05:14 | 00:00:00 | |
| AA1-15 | 2026-09-03 12:36:55 | 52.47014 | 11.34108 | 79° | 24km/h | 32971m | 6.3m/s | -38.8°C | 0% | 8.2hPa | 2.7V | 03:16:49 | 02:05:17 | 00:00:00 | |
| HSKMA3-T | 2026-09-03 12:36:54 | 52.47013 | 11.34098 | 89° | 26km/h | 32965m | 6.2m/s | -38.8°C | 0% | 8.2hPa | 2.7V | 03:16:49 | 02:05:16 | 00:00:00 | |
| DL1XH-west | 2026-09-03 12:36:53 | 52.47014 | 11.34087 | 95° | 26km/h | 32959m | 5.9m/s | -38.9°C | 0% | 8.2hPa | 2.6V | 03:16:49 | 02:05:15 | 00:00:00 | |
| DF8AY | 2026-09-03 12:36:51 | 52.47015 | 11.34066 | 97° | 26km/h | 32949m | 4.9m/s | 0°C | 0% | 0hPa | 2.7V | 18:12:15 | 02:05:13 | 00:00:00 | |
| SONDE2-11 | 2026-09-03 12:36:50 | 52.47015 | 11.34047 | 80° | 20km/h | 32938m | 7.0m/s | -39.0°C | 0.1% | 8.2hPa | 2.7V | 00:00:00 | 00:00:00 | 00:00:00 | |
| DO2SHX-10 | 2026-09-03 12:36:49 | 52.47015 | 11.34047 | 81° | 20km/h | 32938m | 6.9m/s | -39.0°C | 1.8% | 8.2hPa | 2.7V | 00:00:00 | 02:05:11 | 00:00:00 | |
| 13BRC | 2026-09-03 12:36:48 | 52.47015 | 11.34047 | 82° | 22km/h | 32938m | 7.0m/s | -39.0°C | 0.1% | 8.2hPa | 2.7V | 03:16:00 | 00:00:00 | 00:00:00 | |
| DL1XH-15 | 2026-09-03 12:36:46 | 52.47020 | 11.33977 | 116° | 31km/h | 32891m | 4.7m/s | -39°C | 1.8% | 8.3hPa | 2.7V | 03:16:43 | 02:05:03 | 00:00:00 | |
| DM0DOS-11 | 2026-09-03 12:36:46 | 52.47016 | 11.33988 | 120° | 31km/h | 32896m | 5.5m/s | -39°C | 1.8% | 8.3hPa | 2.6V | 03:16:42 | 02:05:04 | 00:00:00 | |
| AA1-15 | 2026-09-03 12:36:45 | 52.47009 | 11.34016 | 88° | 20km/h | 32915m | 5.4m/s | -39.1°C | 0% | 8.2hPa | 2.7V | 03:16:49 | 02:05:07 | 00:00:00 | |
| DO2SHX-10 | 2026-09-03 12:36:45 | 52.47009 | 11.34016 | 89° | 22km/h | 32916m | 5.4m/s | -39.0°C | 1.8% | 8.2hPa | 2.7V | 00:00:00 | 02:05:07 | 00:00:00 | |
| DL1XH1-15 | 2026-09-03 12:36:44 | 52.47023 | 11.33954 | 91° | 27km/h | 32880m | 7m/s | -39°C | 1.8% | 8.3hPa | 2.7V | 03:16:45 | 02:05:01 | 00:00:00 | |
| HSKMA3-T | 2026-09-03 12:36:43 | 52.47012 | 11.33998 | 118° | 27km/h | 32903m | 6.6m/s | -39°C | 0% | 8.3hPa | 2.6V | 03:16:49 | 02:05:05 | 00:00:00 | |
| DL1XH-west | 2026-09-03 12:36:43 | 52.47016 | 11.33988 | 121° | 31km/h | 32896m | 5.6m/s | -39°C | 0% | 8.3hPa | 2.6V | 03:16:49 | 02:05:04 | 00:00:00 | |
| DL4XJ-10 | 2026-09-03 12:36:41 | 52.47019 | 11.33977 | 117° | 22km/h | 32892m | 4.6m/s | -37.2°C | 0% | 0hPa | 2.6V | 00:00:00 | 00:00:00 | 00:00:00 | |
| DF7ER-10 | 2026-09-03 12:36:40 | 52.47022 | 11.33965 | 107° | 29km/h | 32887m | 5.0m/s | -38.9°C | 0.1% | 8.3hPa | 2.6V | 03:16:00 | 00:00:00 | 00:00:00 | |
| DD8BA-10 | 2026-09-03 12:36:39 | 52.47023 | 11.33954 | 92° | 22km/h | 32881m | 7.0m/s | -38.9°C | 1.8% | 8.3hPa | 2.6V | 00:00:00 | 00:00:00 | 00:00:00 | |
| DL1XH-15 | 2026-09-03 12:36:36 | 52.47008 | 11.33890 | 106° | 20km/h | 32833m | 5.4m/s | -39.1°C | 1.8% | 8.4hPa | 2.6V | 03:16:53 | 02:04:53 | 00:00:00 | |
| AA1-15 | 2026-09-03 12:36:35 | 52.47008 | 11.33910 | 61° | 18km/h | 32850m | 6.4m/s | -39.1°C | 0% | 8.3hPa | 2.7V | 03:17:40 | 02:04:56 | 00:00:00 | |
| DM0DOS-11 | 2026-09-03 12:36:35 | 52.47007 | 11.33897 | 99° | 16km/h | 32838m | 5.4m/s | -39°C | 1.8% | 8.4hPa | 2.6V | 03:16:52 | 02:04:54 | 00:00:00 | |
| DL1XH-west | 2026-09-03 12:36:33 | 52.47006 | 11.33904 | 80° | 16km/h | 32844m | 5.9m/s | -39°C | 0% | 8.3hPa | 2.7V | 03:17:40 | 02:04:55 | 00:00:00 | |
| HSKMA3-T | 2026-09-03 12:36:32 | 52.47006 | 11.33897 | 99° | 16km/h | 32838m | 5.4m/s | -39°C | 0% | 8.4hPa | 2.6V | 03:17:40 | 02:04:54 | 00:00:00 | |
| DL1NUX | 2026-09-03 12:36:31 | 52.47010 | 11.33873 | 100° | 22km/h | 32820m | 6.6m/s | -39°C | 1.8% | 8.4hPa | 2.7V | 03:16:55 | 02:04:51 | 00:00:00 | |
| DO2SHX-10 | 2026-09-03 12:36:30 | 52.47009 | 11.33882 | 107° | 22km/h | 32827m | 6.6m/s | -39.1°C | 1.8% | 8.3hPa | 2.6V | 03:16:00 | 02:04:52 | 00:00:00 | |
| DD8BA-10 | 2026-09-03 12:36:29 | 52.47010 | 11.33873 | 101° | 20km/h | 32821m | 6.5m/s | -38.9°C | 1.8% | 8.3hPa | 2.6V | 00:00:00 | 00:00:00 | 00:00:00 | |
| 13BRC | 2026-09-03 12:36:28 | 52.47010 | 11.33873 | 101° | 22km/h | 32821m | 6.6m/s | -39.0°C | 0.1% | 8.4hPa | 2.6V | 03:17:00 | 00:00:00 | 00:00:00 | |
| DO2SHX-10 | 2026-09-03 12:36:27 | 52.47012 | 11.33853 | 94° | 24km/h | 32809m | 5.0m/s | -39.0°C | 1.7% | 8.3hPa | 2.6V | 00:00:00 | 02:04:49 | 00:00:00 | |
| DL1XH-15 | 2026-09-03 12:36:26 | 52.47020 | 11.33805 | 95° | 13km/h | 32774m | 4.9m/s | -39°C | 1.7% | 8.4hPa | 2.6V | 03:17:03 | 02:04:43 | 00:00:00 | |
| DB0DAN | 2026-09-03 12:36:25 | 52.47014 | 11.33833 | 103° | 22km/h | 32798m | 5.8m/s | -39°C | 0.1% | 8.39hPa | 2.7V | 00:00:00 | 00:00:00 | 00:00:00 | |
| AA1-15 | 2026-09-03 12:36:24 | 52.47015 | 11.33825 | 110° | 22km/h | 32792m | 6.7m/s | -39°C | 0% | 8.4hPa | 2.7V | 03:17:40 | 02:04:46 | 00:00:00 | |
| DM0DOS-11 | 2026-09-03 12:36:24 | 52.47019 | 11.33810 | 112° | 16km/h | 32779m | 5.3m/s | -39.1°C | 1.8% | 8.5hPa | 2.7V | 03:17:02 | 02:04:44 | 00:00:00 | |
| DL1XH-west | 2026-09-03 12:36:22 | 52.47019 | 11.33810 | 113° | 16km/h | 32780m | 5.3m/s | -39.1°C | 0% | 8.5hPa | 2.7V | 03:17:40 | 02:04:44 | 00:00:00 | |
| HSKMA3-T | 2026-09-03 12:36:22 | 52.47020 | 11.33805 | 96° | 15km/h | 32775m | 4.9m/s | -39°C | 0% | 8.4hPa | 2.6V | 03:17:40 | 02:04:43 | 00:00:00 | |
| SONCRA | 2026-09-03 12:36:20 | 52.47019 | 11.33799 | 69° | 15km/h | 32769m | 6.4m/s | -39.0°C | 0.1% | 8.4hPa | 2.7V | 00:00:00 | 00:00:00 | 00:00:00 | |
| AP2371 | 2026-09-03 12:36:19 | 52.47017 | 11.33793 | 54° | 20km/h | 32762m | 6.9m/s | -39.1°C | 0.1% | 8.5hPa | 2.7V | 00:00:00 | 00:00:00 | 00:00:00 | |
| DO9LL-15 | 2026-09-03 12:36:18 | 52.47014 | 11.33786 | 52° | 22km/h | 32756m | 5.5m/s | -39.2°C | 1.8% | 8.4hPa | 2.7V | 00:00:00 | 02:04:40 | 00:00:00 | |
| DL1XH-15 | 2026-09-03 12:36:16 | 52.47028 | 11.33717 | 134° | 33km/h | 32716m | 5.7m/s | -39.3°C | 1.8% | 8.5hPa | 2.7V | 03:17:13 | 02:04:33 | 00:00:00 | |
| AA1-15 | 2026-09-03 12:36:14 | 52.47011 | 11.33748 | 120° | 29km/h | 32734m | 7.1m/s | -39.3°C | 0% | 8.5hPa | 2.6V | 03:17:40 | 02:04:36 | 00:00:00 | |
| TFSTFS | 2026-09-03 12:36:14 | 52.47011 | 11.33748 | 121° | 29km/h | 32734m | 7.1m/s | -39.3°C | 0.1% | 8.5hPa | 2.7V | 03:17:00 | 00:00:00 | 00:00:00 | |
| DM0DOS-11 | 2026-09-03 12:36:13 | 52.47022 | 11.33727 | 135° | 37km/h | 32721m | 4.7m/s | -39.2°C | 1.7% | 8.5hPa | 2.7V | 03:17:12 | 02:04:34 | 00:00:00 | |
| DO3MHA-11 | 2026-09-03 12:36:12 | 52.47022 | 11.33727 | 136° | 22km/h | 32722m | 4.7m/s | -39.1°C | 1.7% | 8.5hPa | 2.7V | 03:17:00 | 02:04:34 | 00:00:00 | |
| DL1NUX | 2026-09-03 12:36:11 | 52.47037 | 11.33699 | 118° | 22km/h | 32704m | 6.3m/s | -39.4°C | 1.8% | 8.5hPa | 2.7V | 03:17:15 | 02:04:31 | 00:00:00 | |
| HSKMA3-T | 2026-09-03 12:36:11 | 52.47034 | 11.33707 | 130° | 27km/h | 32711m | 6.4m/s | -39.4°C | 0% | 8.5hPa | 2.7V | 03:17:40 | 02:04:32 | 00:00:00 | |
| DB0DAN | 2026-09-03 12:36:10 | 52.47034 | 11.33707 | 130° | 27km/h | 32710m | 6.4m/s | -39.4°C | 0.1% | 8.52hPa | 2.7V | 00:00:00 | 00:00:00 | 00:00:00 | |
| DD8BA-10 | 2026-09-03 12:36:09 | 52.47037 | 11.33699 | 119° | 16km/h | 32704m | 6.3m/s | -39.3°C | 1.8% | 8.5hPa | 2.7V | 00:00:00 | 00:00:00 | 00:00:00 | |
| 13BRC | 2026-09-03 12:36:08 | 52.47038 | 11.33692 | 106° | 16km/h | 32699m | 6.0m/s | -39.3°C | 0.1% | 8.5hPa | 2.7V | 03:17:00 | 00:00:00 | 00:00:00 | |
| DF7ER-10 | 2026-09-03 12:36:07 | 52.47038 | 11.33692 | 106° | 16km/h | 32699m | 6.0m/s | -39.3°C | 0.1% | 8.5hPa | 2.7V | 03:17:00 | 00:00:00 | 00:00:00 | |
| DL1XH-15 | 2026-09-03 12:36:06 | 52.47051 | 11.33658 | 139° | 26km/h | 32657m | 5.2m/s | -39.6°C | 1.8% | 8.6hPa | 2.7V | 03:17:23 | 02:04:23 | 00:00:00 | |
| DO2SHX-10 | 2026-09-03 12:36:06 | 52.47039 | 11.33681 | 83° | 11km/h | 32687m | 5.3m/s | -39.4°C | 1.8% | 8.5hPa | 2.6V | 03:17:00 | 02:04:28 | 00:00:00 | |
| DM0DOS-11 | 2026-09-03 12:36:05 | 52.47047 | 11.33664 | 142° | 22km/h | 32663m | 5.8m/s | -39.5°C | 1.8% | 8.6hPa | 2.7V | 03:17:22 | 02:04:24 | 00:00:00 | |
| AA1-15 | 2026-09-03 12:36:04 | 52.47043 | 11.33669 | 141° | 16km/h | 32669m | 6.4m/s | -39.5°C | 0% | 8.6hPa | 2.7V | 03:17:40 | 02:04:25 | 00:00:00 | |
| DL1XH1-15 | 2026-09-03 12:36:03 | 52.47062 | 11.33633 | 107° | 24km/h | 32639m | 6.8m/s | -39.6°C | 1.8% | 8.6hPa | 2.7V | 03:17:26 | 02:04:20 | 00:00:00 | |
| DO2SHX-10 | 2026-09-03 12:36:03 | 52.47043 | 11.33669 | 142° | 22km/h | 32669m | 6.3m/s | -39.4°C | 1.8% | 8.6hPa | 2.6V | 00:00:00 | 02:04:25 | 00:00:00 | |
| DL1NUX | 2026-09-03 12:36:01 | 52.47060 | 11.33642 | 118° | 26km/h | 32646m | 7m/s | -39.5°C | 1.8% | 8.6hPa | 2.6V | 03:17:25 | 02:04:21 | 00:00:00 | |
| HSKMA3-T | 2026-09-03 12:36:00 | 52.47060 | 11.33642 | 119° | 26km/h | 32646m | 7m/s | -39.5°C | 0% | 8.6hPa | 2.6V | 03:17:40 | 02:04:21 | 00:00:00 | |
| HTAHTA | 2026-09-03 12:35:59 | 52.47062 | 11.33633 | 107° | 24km/h | 32639m | 6.8m/s | -39.6°C | 0.1% | 8.6hPa | 2.7V | 00:00:00 | 00:00:00 | 00:00:00 | |
| MECKS9 | 2026-09-03 12:35:58 | 52.47060 | 11.33642 | 120° | 26km/h | 32646m | 7.0m/s | -39.5°C | 0.1% | 8.6hPa | 2.7V | 00:00:00 | 00:00:00 | 00:00:00 | |
| DO2SHX-10 | 2026-09-03 12:35:57 | 52.47063 | 11.33624 | 100° | 18km/h | 32633m | 5.5m/s | -39.7°C | 1.8% | 8.6hPa | 2.7V | 00:00:00 | 02:04:19 | 00:00:00 | |
| DL1XH-15 | 2026-09-03 12:35:56 | 52.47078 | 11.33595 | 148° | 15km/h | 32598m | 5.3m/s | -40°C | 1.9% | 8.7hPa | 2.7V | 03:17:33 | 02:04:13 | 00:00:00 | |
| DL1NUX | 2026-09-03 12:35:54 | 52.47083 | 11.33587 | 110° | 15km/h | 32585m | 7.1m/s | -40°C | 1.9% | 8.7hPa | 2.7V | 03:17:35 | 02:04:11 | 00:00:00 | |
| AA1-15 | 2026-09-03 12:35:53 | 52.47075 | 11.33597 | 158° | 16km/h | 32603m | 4.8m/s | -39.9°C | 0% | 8.6hPa | 2.6V | 03:17:40 | 02:04:14 | 00:00:00 | |
| DM0DOS-11 | 2026-09-03 12:35:53 | 52.47075 | 11.33597 | 157° | 16km/h | 32603m | 4.8m/s | -39.9°C | 1.9% | 8.6hPa | 2.6V | 03:17:32 | 02:04:14 | 00:00:00 | |
| DL1XH1-15 | 2026-09-03 12:35:53 | 52.47084 | 11.33580 | 97° | 18km/h | 32578m | 6.1m/s | -40.1°C | 1.9% | 8.7hPa | 2.7V | 03:17:36 | 02:04:10 | 00:00:00 | |
| DL1XH-west | 2026-09-03 12:35:50 | 52.47081 | 11.33591 | 134° | 13km/h | 32592m | 7.1m/s | -39.9°C | 0% | 8.7hPa | 2.7V | 03:17:40 | 02:04:12 | 00:00:00 | |
| HSKMA3-T | 2026-09-03 12:35:48 | 52.47084 | 11.33580 | 98° | 18km/h | 32578m | 6.1m/s | -40.1°C | 0% | 8.7hPa | 2.7V | 03:17:40 | 02:04:10 | 00:00:00 | |
| DO2SHX-10 | 2026-09-03 12:35:48 | 52.47084 | 11.33580 | 98° | 22km/h | 32578m | 6.1m/s | -40.0°C | 1.9% | 8.6hPa | 2.7V | 00:00:00 | 02:04:10 | 00:00:00 | |
| DM0DOS-11 | 2026-09-03 12:35:47 | 52.47102 | 11.33527 | 143° | 26km/h | 32542m | 5.5m/s | -40.3°C | 1.9% | 8.8hPa | 2.7V | 03:17:42 | 02:04:04 | 00:00:00 | |
| DO9LL-15 | 2026-09-03 12:35:47 | 52.47084 | 11.33572 | 98° | 24km/h | 32572m | 5.6m/s | -40.2°C | 1.9% | 8.7hPa | 2.7V | 00:00:00 | 02:04:09 | 00:00:00 | |
| DL1XH-15 | 2026-09-03 12:35:46 | 52.47106 | 11.33521 | 143° | 22km/h | 32536m | 5.4m/s | -40.4°C | 2% | 8.8hPa | 2.7V | 03:17:43 | 02:04:03 | 00:00:00 | |
| DO2SHX-10 | 2026-09-03 12:35:45 | 52.47088 | 11.33552 | 114° | 27km/h | 32561m | 6.4m/s | -40.2°C | 1.9% | 8.7hPa | 2.6V | 00:00:00 | 02:04:07 | 00:00:00 | |
| GOEST3-10 | 2026-09-03 12:35:44 | 52.47091 | 11.33542 | 127° | 24km/h | 32554m | 6.5m/s | -40.1°C | 1.9% | 8.7hPa | 2.6V | 00:00:00 | 02:04:06 | 00:00:00 | |
| S3001 | 2026-09-03 12:35:43 | 52.47101 | 11.33527 | 143° | 26km/h | 32542m | 5.5m/s | -40.3°C | 0.1% | 8.8hPa | 2.6V | 00:00:00 | 00:00:00 | 00:00:00 | |
| DL1XH1-15 | 2026-09-03 12:35:42 | 52.47112 | 11.33505 | 84° | 15km/h | 32517m | 6.2m/s | -40.2°C | 1.9% | 8.8hPa | 2.6V | 03:17:46 | 02:04:00 | 00:00:00 | |
| AA1-15 | 2026-09-03 12:35:42 | 52.47106 | 11.33521 | 144° | 22km/h | 32536m | 5.4m/s | -40.4°C | 0% | 8.8hPa | 2.7V | 03:18:31 | 02:04:03 | 00:00:00 | |
| DO2SHX-10 | 2026-09-03 12:35:42 | 52.47101 | 11.33527 | 144° | 22km/h | 32542m | 5.5m/s | -40.3°C | 1.9% | 8.7hPa | 2.6V | 03:17:00 | 02:04:04 | 00:00:00 | |
| DL1NUX | 2026-09-03 12:35:41 | 52.47112 | 11.33510 | 109° | 15km/h | 32523m | 7.1m/s | -40.3°C | 2% | 8.8hPa | 2.6V | 03:17:45 | 02:04:01 | 00:00:00 | |
| HSKMA3-T | 2026-09-03 12:35:38 | 52.47112 | 11.33505 | 84° | 15km/h | 32517m | 6.3m/s | -40.3°C | 0% | 8.8hPa | 2.6V | 03:18:31 | 02:04:00 | 00:00:00 | |
| DO2SHX-10 | 2026-09-03 12:35:36 | 52.47112 | 11.33492 | 90° | 18km/h | 32505m | 5.6m/s | -40.2°C | 1.9% | 8.8hPa | 2.6V | 00:00:00 | 02:03:58 | 00:00:00 | |
| DL1XH-15 | 2026-09-03 12:35:34 | 52.47125 | 11.33449 | 117° | 33km/h | 32475m | 6.4m/s | -40.3°C | 1.9% | 8.8hPa | 2.6V | 03:17:53 | 02:03:53 | 00:00:00 | |
| AA1-15 | 2026-09-03 12:35:32 | 52.47125 | 11.33449 | 118° | 33km/h | 32475m | 6.4m/s | -40.3°C | 0% | 8.8hPa | 2.6V | 03:18:31 | 02:03:53 | 00:00:00 | |
| DL1NUX | 2026-09-03 12:35:31 | 52.47131 | 11.33424 | 102° | 33km/h | 32461m | 6.3m/s | -40.3°C | 1.9% | 8.9hPa | 2.7V | 03:17:55 | 02:03:51 | 00:00:00 | |
| DL1XH-west | 2026-09-03 12:35:29 | 52.47132 | 11.33411 | 98° | 31km/h | 32455m | 5.8m/s | -40.4°C | 0% | 8.8hPa | 2.7V | 03:18:31 | 02:03:50 | 00:00:00 | |
| DL1XH1-15 | 2026-09-03 12:35:29 | 52.47132 | 11.33411 | 97° | 31km/h | 32455m | 5.8m/s | -40.4°C | 1.9% | 8.8hPa | 2.7V | 03:17:56 | 02:03:50 | 00:00:00 | |
| HSKMA3-T | 2026-09-03 12:35:27 | 52.47133 | 11.33399 | 95° | 29km/h | 32449m | 5.8m/s | -40.5°C | 0% | 8.9hPa | 2.7V | 03:18:31 | 02:03:49 | 00:00:00 | |
| DO2SHX-10 | 2026-09-03 12:35:27 | 52.47133 | 11.33399 | 95° | 24km/h | 32450m | 5.8m/s | -40.4°C | 1.9% | 8.8hPa | 2.7V | 00:00:00 | 02:03:49 | 00:00:00 | |
| DL1XH-15 | 2026-09-03 12:35:26 | 52.47141 | 11.33338 | 84° | 27km/h | 32407m | 7.5m/s | -40.4°C | 1.9% | 8.9hPa | 2.7V | 03:18:04 | 02:03:42 | 00:00:00 | |
| DB0DAN | 2026-09-03 12:35:25 | 52.47135 | 11.33379 | 107° | 20km/h | 32437m | 6.6m/s | -40.4°C | 0.1% | 8.88hPa | 2.6V | 00:00:00 | 00:00:00 | 00:00:00 | |
| DL1NUX | 2026-09-03 12:35:24 | 52.47140 | 11.33326 | 76° | 33km/h | 32400m | 6.5m/s | -40.4°C | 1.9% | 8.9hPa | 2.7V | 03:18:05 | 02:03:41 | 00:00:00 | |
| DL1XH1-15 | 2026-09-03 12:35:23 | 52.47138 | 11.33313 | 74° | 33km/h | 32394m | 5.2m/s | -40.4°C | 1.9% | 8.9hPa | 2.6V | 03:18:06 | 02:03:40 | 00:00:00 | |
| AA1-15 | 2026-09-03 12:35:21 | 52.47141 | 11.33338 | 84° | 27km/h | 32407m | 7.5m/s | -40.4°C | 0% | 8.9hPa | 2.7V | 03:18:31 | 02:03:42 | 00:00:00 | |
| HSKMA3-T | 2026-09-03 12:35:16 | 52.47134 | 11.33287 | 82° | 29km/h | 32383m | 6.3m/s | -40.3°C | 0% | 8.9hPa | 2.7V | 03:18:31 | 02:03:38 | 00:00:00 | |
| DO2SHX-10 | 2026-09-03 12:35:15 | 52.47134 | 11.33276 | 91° | 20km/h | 32377m | 6.9m/s | -40.3°C | 1.9% | 8.9hPa | 2.7V | 00:00:00 | 02:03:37 | 00:00:00 | |
| DM0DOS-11 | 2026-09-03 12:35:15 | 52.47138 | 11.33255 | 114° | 16km/h | 32358m | 5m/s | -40.4°C | 1.9% | 9hPa | 2.6V | 03:18:12 | 02:03:34 | 00:00:00 | |
| DJ8HS-15 | 2026-09-03 12:35:14 | 52.47134 | 11.33268 | 107° | 22km/h | 32370m | 6.7m/s | -40.3°C | 1.9% | 8.9hPa | 2.7V | 00:00:00 | 02:03:36 | 00:00:00 | |
| DL1NUX | 2026-09-03 12:35:13 | 52.47137 | 11.33232 | 65° | 27km/h | 32340m | 7.1m/s | -40.3°C | 1.9% | 9hPa | 2.7V | 03:18:15 | 02:03:31 | 00:00:00 | |
| AA1-15 | 2026-09-03 12:35:10 | 52.47137 | 11.33232 | 66° | 27km/h | 32340m | 7.1m/s | -40.3°C | 0% | 9hPa | 2.7V | 03:18:31 | 02:03:31 | 00:00:00 | |
| DB0DAN | 2026-09-03 12:35:10 | 52.47139 | 11.33241 | 78° | 20km/h | 32347m | 6.7m/s | -40.3°C | 0.2% | 9hPa | 2.6V | 00:00:00 | 00:00:00 | 00:00:00 | |
| DL1XH1-15 | 2026-09-03 12:35:10 | 52.47134 | 11.33221 | 60° | 33km/h | 32333m | 6.4m/s | -40.3°C | 1.9% | 9hPa | 2.7V | 03:18:16 | 02:03:30 | 00:00:00 | |
| DL1XH-west | 2026-09-03 12:35:09 | 52.47134 | 11.33221 | 60° | 33km/h | 32333m | 6.4m/s | -40.3°C | 0% | 9hPa | 2.7V | 03:18:31 | 02:03:30 | 00:00:00 | |
| DD8BA-10 | 2026-09-03 12:35:09 | 52.47137 | 11.33232 | 66° | 26km/h | 32340m | 7.1m/s | -40.2°C | 1.9% | 8.9hPa | 2.7V | 00:00:00 | 00:00:00 | 00:00:00 | |
| EDDB2-12 | 2026-09-03 12:35:08 | 52.47134 | 11.33221 | 60° | 33km/h | 32333m | 6.4m/s | -40.3°C | 0.2% | 9.0hPa | 2.7V | 00:00:00 | 00:00:00 | 00:00:00 | |
| DL1XH-15 | 2026-09-03 12:35:06 | 52.47110 | 11.33156 | 55° | 20km/h | 32287m | 7.2m/s | -40°C | 1.9% | 9.1hPa | 2.7V | 03:18:23 | 02:03:23 | 00:00:00 | |
| DO2SHX-10 | 2026-09-03 12:35:06 | 52.47125 | 11.33197 | 58° | 27km/h | 32321m | 6.4m/s | -40.4°C | 1.9% | 9.0hPa | 2.6V | 03:18:00 | 02:03:28 | 00:00:00 | |
| HSKMA3-T | 2026-09-03 12:35:06 | 52.47125 | 11.33197 | 57° | 33km/h | 32320m | 6.4m/s | -40.5°C | 0% | 9.1hPa | 2.7V | 03:18:31 | 02:03:28 | 00:00:00 | |
| DM0DOS-11 | 2026-09-03 12:35:04 | 52.47112 | 11.33163 | 61° | 18km/h | 32294m | 5.9m/s | -40.2°C | 1.9% | 9.1hPa | 2.6V | 03:18:22 | 02:03:24 | 00:00:00 | |
| DL1NUX | 2026-09-03 12:35:03 | 52.47103 | 11.33142 | 52° | 22km/h | 32274m | 5.7m/s | -39.8°C | 1.8% | 9.1hPa | 2.7V | 03:18:25 | 02:03:21 | 00:00:00 | |
| DL1XH1-15 | 2026-09-03 12:35:03 | 52.47096 | 11.33128 | 51° | 20km/h | 32263m | 6.1m/s | -39.8°C | 1.8% | 9.1hPa | 2.6V | 03:18:27 | 02:03:19 | 00:00:00 | |
| AA1-15 | 2026-09-03 12:35:00 | 52.47103 | 11.33142 | 53° | 22km/h | 32274m | 5.7m/s | -39.8°C | 0% | 9.1hPa | 2.7V | 03:18:31 | 02:03:21 | 00:00:00 | |
| DL1XH-west | 2026-09-03 12:34:58 | 52.47100 | 11.33135 | 52° | 22km/h | 32269m | 5.5m/s | -39.8°C | 0% | 9.1hPa | 2.7V | 03:18:31 | 02:03:20 | 00:00:00 | |
| HTAHTA | 2026-09-03 12:34:57 | 52.47093 | 11.33122 | 52° | 16km/h | 32256m | 7.2m/s | -39.8°C | 0.1% | 9.2hPa | 2.6V | 00:00:00 | 00:00:00 | 00:00:00 | |
| DL1XH-15 | 2026-09-03 12:34:56 | 52.47075 | 11.33087 | 47° | 35km/h | 32223m | 7m/s | -40°C | 1.8% | 9.1hPa | 2.6V | 03:18:33 | 02:03:13 | 00:00:00 | |
| HSKMA3-T | 2026-09-03 12:34:55 | 52.47091 | 11.33116 | 52° | 16km/h | 32249m | 6.5m/s | -39.8°C | 0% | 9.1hPa | 2.7V | 03:18:31 | 02:03:17 | 00:00:00 | |
| DO2SHX-10 | 2026-09-03 12:34:54 | 52.47088 | 11.33111 | 51° | 24km/h | 32244m | 5.5m/s | -39.8°C | 1.8% | 9.1hPa | 2.7V | 03:18:00 | 02:03:16 | 00:00:00 | |
| DL1NUX | 2026-09-03 12:34:53 | 52.47064 | 11.33064 | 54° | 33km/h | 32212m | 5m/s | -39.9°C | 1.8% | 9.2hPa | 2.6V | 03:18:35 | 02:03:11 | 00:00:00 | |
| DL1XH1-15 | 2026-09-03 12:34:52 | 52.47057 | 11.33045 | 73° | 20km/h | 32200m | 7.7m/s | -40°C | 1.8% | 9.2hPa | 2.7V | 03:18:37 | 02:03:09 | 00:00:00 | |
| DL1XH-west | 2026-09-03 12:34:48 | 52.47060 | 11.33054 | 62° | 27km/h | 32206m | 6m/s | -39.9°C | 0% | 9.2hPa | 2.7V | 03:19:22 | 02:03:10 | 00:00:00 | |
| DO2SHX-10 | 2026-09-03 12:34:48 | 52.47060 | 11.33054 | 62° | 20km/h | 32207m | 6.0m/s | -39.8°C | 1.8% | 9.1hPa | 2.6V | 00:00:00 | 02:03:10 | 00:00:00 | |
| DL1XH-15 | 2026-09-03 12:34:46 | 52.47056 | 11.33014 | 49° | 20km/h | 32161m | 6.4m/s | -40.1°C | 1.8% | 9.2hPa | 2.6V | 03:18:43 | 02:03:03 | 00:00:00 | |
| HSKMA3-T | 2026-09-03 12:34:44 | 52.47059 | 11.33029 | 115° | 9km/h | 32180m | 5.3m/s | -40.1°C | 0% | 9.2hPa | 2.7V | 03:19:22 | 02:03:06 | 00:00:00 | |
| GOEST3-10 | 2026-09-03 12:34:44 | 52.47058 | 11.33029 | 116° | 16km/h | 32180m | 5.2m/s | -40.0°C | 1.8% | 9.2hPa | 2.7V | 00:00:00 | 02:03:06 | 00:00:00 | |
| DL1XH1-15 | 2026-09-03 12:34:42 | 52.47037 | 11.32983 | 49° | 26km/h | 32135m | 6.3m/s | -40.1°C | 1.9% | 9.3hPa | 2.7V | 03:18:47 | 02:02:59 | 00:00:00 | |
| AA1-15 | 2026-09-03 12:34:38 | 52.47033 | 11.32975 | 56° | 24km/h | 32129m | 5.8m/s | -40°C | 0% | 9.3hPa | 2.6V | 03:19:22 | 02:02:58 | 00:00:00 | |
| SMARD9-15 | 2026-09-03 12:34:38 | 52.47037 | 11.32983 | 49° | 24km/h | 32135m | 6.3m/s | -40.1°C | 0.2% | 9.3hPa | 2.7V | 00:00:00 | 00:00:00 | 00:00:00 | |
| DL1XH-15 | 2026-09-03 12:34:37 | 52.47025 | 11.32928 | 96° | 24km/h | 32097m | 5.6m/s | -40°C | 1.9% | 9.3hPa | 2.7V | 03:18:53 | 02:02:53 | 00:00:00 | |
| HSKMA3-T | 2026-09-03 12:34:34 | 52.47028 | 11.32958 | 70° | 24km/h | 32117m | 7.2m/s | -40°C | 0% | 9.3hPa | 2.7V | 03:19:22 | 02:02:56 | 00:00:00 | |
| DL1NUX | 2026-09-03 12:34:34 | 52.47029 | 11.32911 | 126° | 24km/h | 32084m | 8.1m/s | -39.8°C | 1.8% | 9.3hPa | 2.6V | 03:18:55 | 02:02:51 | 00:00:00 | |
| DJ8HS-15 | 2026-09-03 12:34:34 | 52.47028 | 11.32958 | 70° | 24km/h | 32117m | 7.1m/s | -39.9°C | 1.8% | 9.3hPa | 2.7V | 03:18:00 | 02:02:56 | 00:00:00 | |
| DO2SHX-10 | 2026-09-03 12:34:33 | 52.47026 | 11.32948 | 75° | 24km/h | 32110m | 7.0m/s | -39.9°C | 1.8% | 9.3hPa | 2.7V | 00:00:00 | 02:02:55 | 00:00:00 | |
| DL1XH1-15 | 2026-09-03 12:34:32 | 52.47036 | 11.32898 | 133° | 20km/h | 32071m | 5.1m/s | -39.8°C | 1.8% | 9.4hPa | 2.7V | 03:18:57 | 02:02:49 | 00:00:00 | |
| DL1XH-west | 2026-09-03 12:34:28 | 52.47033 | 11.32904 | 136° | 22km/h | 32077m | 6.6m/s | -39.8°C | 0% | 9.4hPa | 2.6V | 03:19:22 | 02:02:50 | 00:00:00 | |
| AA1-15 | 2026-09-03 12:34:26 | 52.47039 | 11.32891 | 112° | 16km/h | 32066m | 5.3m/s | -39.8°C | 0% | 9.4hPa | 2.7V | 03:19:22 | 02:02:48 | 00:00:00 | |
| DM0DOS-11 | 2026-09-03 12:34:26 | 52.47029 | 11.32857 | 51° | 33km/h | 32039m | 5.4m/s | -39.8°C | 1.8% | 9.4hPa | 2.6V | 03:19:02 | 02:02:44 | 00:00:00 | |
| HSKMA3-T | 2026-09-03 12:34:23 | 52.47034 | 11.32867 | 53° | 31km/h | 32045m | 6.6m/s | -39.7°C | 0% | 9.4hPa | 2.6V | 03:19:22 | 02:02:45 | 00:00:00 | |
| DL1XH-west | 2026-09-03 12:34:22 | 52.47022 | 11.32813 | 123° | 22km/h | 32007m | 6m/s | -39.7°C | 0% | 9.5hPa | 2.6V | 03:19:22 | 02:02:39 | 00:00:00 | |
| DL1XH1-15 | 2026-09-03 12:34:22 | 52.47022 | 11.32813 | 122° | 22km/h | 32007m | 6m/s | -39.7°C | 1.8% | 9.5hPa | 2.6V | 03:19:07 | 02:02:39 | 00:00:00 | |
| DO3MHA-11 | 2026-09-03 12:34:22 | 52.47030 | 11.32856 | 52° | 24km/h | 32039m | 5.4m/s | -39.7°C | 1.8% | 9.4hPa | 2.6V | 03:19:00 | 02:02:44 | 00:00:00 | |
| DL1NUX | 2026-09-03 12:34:21 | 52.47020 | 11.32828 | 83° | 20km/h | 32020m | 6.6m/s | -39.8°C | 1.8% | 9.4hPa | 2.7V | 03:19:05 | 02:02:41 | 00:00:00 | |
| AA1-15 | 2026-09-03 12:34:16 | 52.47025 | 11.32806 | 126° | 24km/h | 32001m | 5.9m/s | -39.7°C | 0% | 9.4hPa | 2.7V | 03:19:22 | 02:02:38 | 00:00:00 | |
| DL1XH-15 | 2026-09-03 12:34:16 | 52.47035 | 11.32757 | 93° | 26km/h | 31967m | 6.7m/s | -39.5°C | 1.8% | 9.5hPa | 2.7V | 03:19:13 | 02:02:33 | 00:00:00 | |
| SONCRA | 2026-09-03 12:34:16 | 52.47029 | 11.32797 | 121° | 24km/h | 31995m | 7.0m/s | -39.7°C | 0.1% | 9.5hPa | 2.7V | 00:00:00 | 00:00:00 | 00:00:00 | |
| DO2SHX-10 | 2026-09-03 12:34:15 | 52.47029 | 11.32797 | 122° | 26km/h | 31995m | 7.0m/s | -39.7°C | 1.8% | 9.4hPa | 2.7V | 00:00:00 | 02:02:37 | 00:00:00 | |
| DL1NUX | 2026-09-03 12:34:14 | 52.47036 | 11.32738 | 95° | 24km/h | 31954m | 6.5m/s | -39.6°C | 1.8% | 9.5hPa | 2.7V | 03:19:15 | 02:02:31 | 00:00:00 | |
| HSKMA3-T | 2026-09-03 12:34:12 | 52.47034 | 11.32768 | 96° | 26km/h | 31974m | 6.3m/s | -39.5°C | 0% | 9.5hPa | 2.6V | 03:19:22 | 02:02:34 | 00:00:00 | |
| DL1XH-west | 2026-09-03 12:34:08 | 52.47036 | 11.32718 | 84° | 26km/h | 31942m | 5.8m/s | -39.7°C | 0% | 9.5hPa | 2.6V | 03:19:22 | 02:02:29 | 00:00:00 | |
| SMARD9-15 | 2026-09-03 12:34:07 | 52.47035 | 11.32708 | 77° | 26km/h | 31936m | 7.8m/s | -39.6°C | 0.1% | 9.6hPa | 2.6V | 00:00:00 | 00:00:00 | 00:00:00 | |
| DM0DOS-11 | 2026-09-03 12:34:06 | 52.47031 | 11.32663 | 103° | 24km/h | 31910m | 7.3m/s | -39.5°C | 1.8% | 9.6hPa | 2.6V | 03:19:22 | 02:02:24 | 00:00:00 | |
| AA1-15 | 2026-09-03 12:34:05 | 52.47033 | 11.32696 | 76° | 29km/h | 31928m | 7m/s | -39.5°C | 0% | 9.6hPa | 2.7V | 03:19:22 | 02:02:27 | 00:00:00 | |
| HSKMA3-T | 2026-09-03 12:34:02 | 52.47032 | 11.32663 | 104° | 24km/h | 31910m | 7.4m/s | -39.5°C | 0% | 9.6hPa | 2.6V | 03:19:22 | 02:02:24 | 00:00:00 | |
| DL1XH1-15 | 2026-09-03 12:34:02 | 52.47049 | 11.32621 | 109° | 27km/h | 31876m | 7.4m/s | -39.6°C | 1.7% | 9.6hPa | 2.7V | 03:19:27 | 02:02:19 | 00:00:00 | |
| DL1XH-west | 2026-09-03 12:33:57 | 52.47050 | 11.32610 | 93° | 27km/h | 31870m | 6.5m/s | -39.7°C | 0% | 9.6hPa | 2.6V | 03:20:13 | 02:02:18 | 00:00:00 | |
| DO9LL-15 | 2026-09-03 12:33:57 | 52.47049 | 11.32621 | 110° | 29km/h | 31877m | 7.3m/s | -39.6°C | 1.7% | 9.6hPa | 2.7V | 03:19:00 | 02:02:19 | 00:00:00 | |
| DM0DOS-11 | 2026-09-03 12:33:56 | 52.47046 | 11.32562 | 81° | 27km/h | 31843m | 6.7m/s | -39.7°C | 1.7% | 9.7hPa | 2.7V | 03:19:32 | 02:02:14 | 00:00:00 | |
| AA1-15 | 2026-09-03 12:33:54 | 52.47049 | 11.32585 | 78° | 31km/h | 31857m | 6.1m/s | -39.6°C | 0% | 9.7hPa | 2.6V | 03:20:13 | 02:02:16 | 00:00:00 | |
| DL1NUX | 2026-09-03 12:33:54 | 52.47046 | 11.32529 | 92° | 27km/h | 31824m | 7.2m/s | -39.8°C | 1.8% | 9.7hPa | 2.7V | 03:19:35 | 02:02:11 | 00:00:00 | |
| DJ8HS-15 | 2026-09-03 12:33:54 | 52.47049 | 11.32585 | 79° | 27km/h | 31857m | 6.1m/s | -39.6°C | 1.7% | 9.6hPa | 2.6V | 00:00:00 | 02:02:16 | 00:00:00 | |
| DL1XH1-15 | 2026-09-03 12:33:52 | 52.47047 | 11.32506 | 99° | 29km/h | 31810m | 5.7m/s | -39.6°C | 1.8% | 9.7hPa | 2.6V | 03:19:37 | 02:02:09 | 00:00:00 | |
| HSKMA3-T | 2026-09-03 12:33:51 | 52.47046 | 11.32551 | 88° | 26km/h | 31837m | 6.5m/s | -39.7°C | 0% | 9.7hPa | 2.7V | 03:20:13 | 02:02:13 | 00:00:00 | |
| SP3WXH-11 | 2026-09-03 12:33:49 | 52.47046 | 11.32518 | 93° | 27km/h | 31817m | 7.4m/s | -39.7°C | 0.1% | 9.7hPa | 2.7V | 00:00:00 | 00:00:00 | 00:00:00 | |
| DO2SHX-10 | 2026-09-03 12:33:48 | 52.47046 | 11.32518 | 94° | 29km/h | 31817m | 7.3m/s | -39.7°C | 1.7% | 9.7hPa | 2.7V | 00:00:00 | 02:02:10 | 00:00:00 | |
| DM0DOS-11 | 2026-09-03 12:33:46 | 52.47063 | 11.32457 | 123° | 22km/h | 31779m | 4.8m/s | -39.7°C | 1.8% | 9.8hPa | 2.7V | 03:19:42 | 02:02:04 | 00:00:00 | |
| DL1XH-west | 2026-09-03 12:33:45 | 52.47051 | 11.32483 | 117° | 29km/h | 31799m | 6.6m/s | -39.5°C | 0% | 9.7hPa | 2.7V | 03:20:13 | 02:02:07 | 00:00:00 | |
| SONCRA | 2026-09-03 12:33:45 | 52.47055 | 11.32473 | 127° | 26km/h | 31792m | 7.8m/s | -39.6°C | 0.2% | 9.8hPa | 2.7V | 00:00:00 | 00:00:00 | 00:00:00 | |
| AA1-15 | 2026-09-03 12:33:43 | 52.47059 | 11.32465 | 133° | 26km/h | 31785m | 6.1m/s | -39.6°C | 0% | 9.8hPa | 2.7V | 03:20:13 | 02:02:05 | 00:00:00 | |
| SONDE2-11 | 2026-09-03 12:33:43 | 52.47059 | 11.32465 | 133° | 26km/h | 31785m | 6.1m/s | -39.6°C | 0.2% | 9.8hPa | 2.7V | 00:00:00 | 00:00:00 | 00:00:00 | |
| DO2SHX-10 | 2026-09-03 12:33:42 | 52.47063 | 11.32457 | 124° | 24km/h | 31779m | 4.7m/s | -39.7°C | 1.8% | 9.7hPa | 2.7V | 03:19:00 | 02:02:04 | 00:00:00 | |
| DL1NUX | 2026-09-03 12:33:41 | 52.47064 | 11.32428 | 71° | 29km/h | 31760m | 7.2m/s | -39.9°C | 1.8% | 9.8hPa | 2.7V | 03:19:45 | 02:02:01 | 00:00:00 | |
| HSKMA3-T | 2026-09-03 12:33:40 | 52.47066 | 11.32439 | 88° | 24km/h | 31767m | 7.6m/s | -39.8°C | 0% | 9.8hPa | 2.6V | 03:20:13 | 02:02:02 | 00:00:00 | |
| DF7ER-10 | 2026-09-03 12:33:39 | 52.47064 | 11.32428 | 72° | 29km/h | 31760m | 7.2m/s | -39.9°C | 0.2% | 9.8hPa | 2.7V | 03:20:00 | 00:00:00 | 00:00:00 | |
| DM0DOS-11 | 2026-09-03 12:33:36 | 52.47057 | 11.32341 | 110° | 33km/h | 31716m | 6.8m/s | -39.8°C | 1.8% | 9.8hPa | 2.7V | 03:19:52 | 02:01:54 | 00:00:00 | |
| DL1XH-west | 2026-09-03 12:33:35 | 52.47053 | 11.32378 | 84° | 31km/h | 31735m | 6.4m/s | -39.9°C | 0% | 9.8hPa | 2.6V | 03:20:13 | 02:01:57 | 00:00:00 | |
| DL1NUX | 2026-09-03 12:33:34 | 52.47066 | 11.32299 | 103° | 35km/h | 31696m | 5.7m/s | -39.5°C | 1.8% | 9.9hPa | 2.6V | 03:19:55 | 02:01:51 | 00:00:00 | |
| AA1-15 | 2026-09-03 12:33:33 | 52.47057 | 11.32341 | 111° | 33km/h | 31716m | 6.8m/s | -39.8°C | 0% | 9.9hPa | 2.7V | 03:20:13 | 02:01:54 | 00:00:00 | |
| HSKMA3-T | 2026-09-03 12:33:29 | 52.47066 | 11.32299 | 104° | 35km/h | 31696m | 5.7m/s | -39.5°C | 0% | 9.9hPa | 2.6V | 03:20:13 | 02:01:51 | 00:00:00 | |
| DD8BA-10 | 2026-09-03 12:33:29 | 52.47066 | 11.32299 | 104° | 35km/h | 31697m | 5.7m/s | -39.5°C | 1.8% | 9.8hPa | 2.7V | 00:00:00 | 00:00:00 | 00:00:00 | |
| BUE01 | 2026-09-03 12:33:28 | 52.47067 | 11.32285 | 100° | 33km/h | 31691m | 5.8m/s | -39.5°C | 0.2% | 9.9hPa | 2.7V | 00:00:00 | 00:00:00 | 00:00:00 | |
| SMARD9-10 | 2026-09-03 12:33:27 | 52.47069 | 11.32273 | 99° | 29km/h | 31685m | 6.5m/s | -39.5°C | 0.1% | 9.9hPa | 2.7V | 00:00:00 | 00:00:00 | 00:00:00 | |
| DL1XH-15 | 2026-09-03 12:33:26 | 52.47067 | 11.32195 | 79° | 47km/h | 31646m | 7.4m/s | -39.5°C | 1.8% | 10hPa | 2.7V | 03:20:03 | 02:01:43 | 00:00:00 | |
| DM0DOS-11 | 2026-09-03 12:33:26 | 52.47069 | 11.32212 | 80° | 40km/h | 31654m | 6.8m/s | -39.5°C | 1.8% | 10hPa | 2.6V | 03:20:02 | 02:01:44 | 00:00:00 | |
| DL1XH-west | 2026-09-03 12:33:25 | 52.47070 | 11.32250 | 95° | 26km/h | 31671m | 6m/s | -39.6°C | 0% | 10hPa | 2.7V | 03:20:13 | 02:01:47 | 00:00:00 | |
| AA1-15 | 2026-09-03 12:33:22 | 52.47067 | 11.32194 | 80° | 47km/h | 31647m | 7.4m/s | -39.5°C | 0% | 10hPa | 2.7V | 03:20:13 | 02:01:43 | 00:00:00 | |
| DL1NUX | 2026-09-03 12:33:21 | 52.47063 | 11.32152 | 82° | 53km/h | 31634m | 5.2m/s | -39.7°C | 1.8% | 10hPa | 2.7V | 03:20:05 | 02:01:41 | 00:00:00 | |
| HSKMA3-T | 2026-09-03 12:33:18 | 52.47062 | 11.32131 | 86° | 49km/h | 31628m | 5.8m/s | -39.8°C | 0% | 10hPa | 2.7V | 03:20:13 | 02:01:40 | 00:00:00 | |
| DO2SHX-10 | 2026-09-03 12:33:18 | 52.47062 | 11.32131 | 87° | 42km/h | 31629m | 5.8m/s | -39.7°C | 1.8% | 9.9hPa | 2.7V | 03:20:00 | 02:01:40 | 00:00:00 | |
| DF7ER-10 | 2026-09-03 12:33:17 | 52.47062 | 11.32131 | 87° | 49km/h | 31629m | 5.8m/s | -39.8°C | 0.1% | 10.0hPa | 2.7V | 03:20:00 | 00:00:00 | 00:00:00 | |
| DL1XH-15 | 2026-09-03 12:33:16 | 52.47059 | 11.32038 | 75° | 35km/h | 31585m | 6m/s | -39.6°C | 1.8% | 10hPa | 2.7V | 03:20:13 | 02:01:33 | 00:00:00 | |
| DM0DOS-11 | 2026-09-03 12:33:16 | 52.47061 | 11.32051 | 77° | 29km/h | 31592m | 7m/s | -39.5°C | 1.8% | 10.1hPa | 2.7V | 03:20:12 | 02:01:34 | 00:00:00 | |
| DL1XH-west | 2026-09-03 12:33:15 | 52.47062 | 11.32083 | 95° | 27km/h | 31609m | 5.2m/s | -39.5°C | 0% | 10hPa | 2.6V | 03:20:13 | 02:01:37 | 00:00:00 | |
| DO2SHX-10 | 2026-09-03 12:33:15 | 52.47062 | 11.32083 | 96° | 26km/h | 31610m | 5.2m/s | -39.5°C | 1.8% | 10.0hPa | 2.6V | 00:00:00 | 02:01:37 | 00:00:00 | |
| DL1NUX | 2026-09-03 12:33:14 | 52.47054 | 11.32006 | 76° | 44km/h | 31574m | 5.7m/s | -39.8°C | 1.8% | 10.1hPa | 2.6V | 03:20:15 | 02:01:31 | 00:00:00 | |
| AA1-15 | 2026-09-03 12:33:11 | 52.47057 | 11.32023 | 75° | 40km/h | 31579m | 5.5m/s | -39.8°C | 0% | 10.1hPa | 2.6V | 03:21:04 | 02:01:32 | 00:00:00 | |
| HSKMA3-T | 2026-09-03 12:33:08 | 52.47052 | 11.31988 | 81° | 44km/h | 31568m | 6.3m/s | -39.6°C | 0% | 10.1hPa | 2.7V | 03:21:04 | 02:01:30 | 00:00:00 | |
| DF7ER-10 | 2026-09-03 12:33:07 | 52.47051 | 11.31988 | 82° | 44km/h | 31568m | 6.3m/s | -39.6°C | 0.2% | 10.1hPa | 2.7V | 03:21:00 | 00:00:00 | 00:00:00 | |
| DL1XH-15 | 2026-09-03 12:33:06 | 52.47052 | 11.31870 | 77° | 44km/h | 31525m | 7.1m/s | -39.8°C | 1.9% | 10.2hPa | 2.7V | 03:20:23 | 02:01:23 | 00:00:00 | |
| DM0DOS-11 | 2026-09-03 12:33:06 | 52.47054 | 11.31887 | 85° | 42km/h | 31532m | 6.3m/s | -39.9°C | 1.9% | 10.1hPa | 2.7V | 03:20:22 | 02:01:24 | 00:00:00 | |
| DL1XH-west | 2026-09-03 12:33:04 | 52.47053 | 11.31920 | 99° | 38km/h | 31543m | 5.2m/s | -39.8°C | 0% | 10.1hPa | 2.6V | 03:21:04 | 02:01:26 | 00:00:00 | |
| GOEST3-10 | 2026-09-03 12:33:04 | 52.47053 | 11.31920 | 99° | 42km/h | 31543m | 5.2m/s | -39.7°C | 1.9% | 10.1hPa | 2.7V | 00:00:00 | 02:01:26 | 00:00:00 | |
| DO2SHX-10 | 2026-09-03 12:33:03 | 52.47054 | 11.31904 | 94° | 42km/h | 31538m | 4.9m/s | -39.8°C | 1.9% | 10.1hPa | 2.7V | 00:00:00 | 02:01:25 | 00:00:00 | |
| DO3MHA-11 | 2026-09-03 12:33:02 | 52.47054 | 11.31887 | 86° | 37km/h | 31532m | 6.3m/s | -39.9°C | 1.9% | 10.1hPa | 2.7V | 03:20:00 | 02:01:24 | 00:00:00 | |
| DL1XH1-15 | 2026-09-03 12:33:01 | 52.47029 | 11.31796 | 54° | 29km/h | 31494m | 6.1m/s | -39.7°C | 1.8% | 10.2hPa | 2.7V | 03:20:28 | 02:01:18 | 00:00:00 | |
| AA1-15 | 2026-09-03 12:33:00 | 52.47049 | 11.31852 | 69° | 46km/h | 31519m | 5.9m/s | -39.7°C | 0% | 10.2hPa | 2.7V | 03:21:04 | 02:01:22 | 00:00:00 | |
| DL1NUX | 2026-09-03 12:33:00 | 52.47044 | 11.31835 | 62° | 44km/h | 31513m | 5.2m/s | -39.7°C | 1.8% | 10.2hPa | 2.6V | 03:20:25 | 02:01:21 | 00:00:00 | |
| HSKMA3-T | 2026-09-03 12:32:57 | 52.47033 | 11.31807 | 54° | 35km/h | 31501m | 7.1m/s | -39.8°C | 0% | 10.2hPa | 2.6V | 03:21:04 | 02:01:19 | 00:00:00 | |
| DO2SHX-10 | 2026-09-03 12:32:57 | 52.47033 | 11.31807 | 54° | 29km/h | 31502m | 7.1m/s | -39.7°C | 1.8% | 10.1hPa | 2.6V | 00:00:00 | 02:01:19 | 00:00:00 | |
| DM0DOS-11 | 2026-09-03 12:32:56 | 52.47020 | 11.31750 | 86° | 40km/h | 31473m | 7m/s | -39.9°C | 1.8% | 10.2hPa | 2.6V | 03:20:32 | 02:01:14 | 00:00:00 | |
| DL1XH-15 | 2026-09-03 12:32:56 | 52.47020 | 11.31732 | 89° | 47km/h | 31466m | 6.8m/s | -39.9°C | 1.8% | 10.2hPa | 2.6V | 03:20:33 | 02:01:13 | 00:00:00 | |
| DL1XH-west | 2026-09-03 12:32:54 | 52.47023 | 11.31777 | 73° | 27km/h | 31484m | 4.7m/s | -39.8°C | 0% | 10.2hPa | 2.7V | 03:21:04 | 02:01:16 | 00:00:00 | |
| DO2SHX-10 | 2026-09-03 12:32:54 | 52.47023 | 11.31777 | 74° | 33km/h | 31485m | 4.7m/s | -39.7°C | 1.8% | 10.2hPa | 2.6V | 03:20:00 | 02:01:16 | 00:00:00 | |
| AP2371 | 2026-09-03 12:32:53 | 52.47023 | 11.31777 | 74° | 27km/h | 31485m | 4.7m/s | -39.8°C | 0.2% | 10.2hPa | 2.6V | 00:00:00 | 00:00:00 | 00:00:00 | |
| DO3MHA-11 | 2026-09-03 12:32:52 | 52.47020 | 11.31750 | 87° | 42km/h | 31473m | 7.0m/s | -39.8°C | 1.8% | 10.2hPa | 2.6V | 00:00:00 | 02:01:14 | 00:00:00 | |
| DL1XH1-15 | 2026-09-03 12:32:51 | 52.47016 | 11.31633 | 75° | 37km/h | 31439m | 6.2m/s | -39.9°C | 1.8% | 10.3hPa | 2.6V | 03:20:38 | 02:01:08 | 00:00:00 | |
| DL1NUX | 2026-09-03 12:32:50 | 52.47020 | 11.31689 | 88° | 53km/h | 31455m | 4.5m/s | -39.9°C | 1.9% | 10.3hPa | 2.7V | 03:20:35 | 02:01:11 | 00:00:00 | |
| AA1-15 | 2026-09-03 12:32:50 | 52.47020 | 11.31711 | 90° | 53km/h | 31460m | 5.4m/s | -39.9°C | 0% | 10.3hPa | 2.7V | 03:21:04 | 02:01:12 | 00:00:00 | |
| HSKMA3-T | 2026-09-03 12:32:47 | 52.47018 | 11.31649 | 83° | 44km/h | 31445m | 6m/s | -39.8°C | 0% | 10.3hPa | 2.6V | 03:21:04 | 02:01:09 | 00:00:00 | |
| SP3WXH-11 | 2026-09-03 12:32:47 | 52.47016 | 11.31633 | 75° | 35km/h | 31439m | 6.2m/s | -39.9°C | 0.2% | 10.3hPa | 2.6V | 00:00:00 | 00:00:00 | 00:00:00 | |
| DL1XH-15 | 2026-09-03 12:32:46 | 52.46987 | 11.31576 | 42° | 49km/h | 31408m | 6.1m/s | -40°C | 1.8% | 10.3hPa | 2.6V | 03:20:43 | 02:01:03 | 00:00:00 | |
| DL1XH-west | 2026-09-03 12:32:44 | 52.46995 | 11.31589 | 41° | 42km/h | 31414m | 7.2m/s | -40°C | 0% | 10.3hPa | 2.7V | 03:21:04 | 02:01:04 | 00:00:00 | |
| DL1NUX | 2026-09-03 12:32:44 | 52.46969 | 11.31546 | 51° | 51km/h | 31397m | 4.2m/s | -39.8°C | 1.8% | 10.3hPa | 2.6V | 03:20:45 | 02:01:01 | 00:00:00 | |
| AA1-15 | 2026-09-03 12:32:39 | 52.46969 | 11.31546 | 51° | 51km/h | 31397m | 4.2m/s | -39.8°C | 0% | 10.3hPa | 2.6V | 03:21:04 | 02:01:01 | 00:00:00 | |
| HSKMA3-T | 2026-09-03 12:32:37 | 52.46956 | 11.31514 | 63° | 42km/h | 31386m | 6.9m/s | -39.8°C | 0% | 10.3hPa | 2.7V | 03:21:04 | 02:00:59 | 00:00:00 | |
| DM0DOS-11 | 2026-09-03 12:32:36 | 52.46949 | 11.31443 | 84° | 38km/h | 31358m | 5.7m/s | -39.8°C | 1.9% | 10.4hPa | 2.7V | 03:20:52 | 02:00:54 | 00:00:00 | |
| DL1XH-west | 2026-09-03 12:32:32 | 52.46947 | 11.31427 | 77° | 44km/h | 31352m | 6m/s | -39.8°C | 0% | 10.4hPa | 2.7V | 03:21:04 | 02:00:53 | 00:00:00 | |
| DL1NUX | 2026-09-03 12:32:30 | 52.46938 | 11.31389 | 60° | 53km/h | 31340m | 5.4m/s | -39.9°C | 1.8% | 10.4hPa | 2.6V | 03:20:55 | 02:00:51 | 00:00:00 | |
| AA1-15 | 2026-09-03 12:32:28 | 52.46931 | 11.31371 | 52° | 53km/h | 31335m | 5m/s | -40°C | 0% | 10.5hPa | 2.6V | 03:21:04 | 02:00:50 | 00:00:00 | |
| HSKMA3-T | 2026-09-03 12:32:26 | 52.46914 | 11.31343 | 39° | 44km/h | 31323m | 7.4m/s | -39.8°C | 0% | 10.5hPa | 2.7V | 03:21:04 | 02:00:48 | 00:00:00 | |
| DM0DOS-11 | 2026-09-03 12:32:26 | 52.46883 | 11.31308 | 40° | 35km/h | 31299m | 6.2m/s | -39.9°C | 1.9% | 10.5hPa | 2.6V | 03:21:02 | 02:00:44 | 00:00:00 | |
| DL1NUX | 2026-09-03 12:32:25 | 52.46865 | 11.31272 | 60° | 38km/h | 31283m | 5.1m/s | -39.8°C | 1.8% | 10.5hPa | 2.7V | 03:21:05 | 02:00:41 | 00:00:00 | |
| DL1XH-west | 2026-09-03 12:32:21 | 52.46870 | 11.31285 | 56° | 38km/h | 31288m | 4.7m/s | -39.7°C | 0% | 10.5hPa | 2.7V | 03:21:04 | 02:00:42 | 00:00:00 | |
| AA1-15 | 2026-09-03 12:32:18 | 52.46861 | 11.31258 | 62° | 37km/h | 31278m | 6.2m/s | -39.9°C | 0% | 10.5hPa | 2.7V | 03:21:55 | 02:00:40 | 00:00:00 | |
| DO2SHX-10 | 2026-09-03 12:32:18 | 52.46860 | 11.31258 | 63° | 35km/h | 31278m | 6.2m/s | -39.8°C | 1.9% | 10.5hPa | 2.6V | 03:21:00 | 02:00:40 | 00:00:00 | |
| DL1XH-15 | 2026-09-03 12:32:16 | 52.46820 | 11.31174 | 39° | 51km/h | 31237m | 5.9m/s | -39.8°C | 1.9% | 10.6hPa | 2.6V | 03:21:13 | 02:00:33 | 00:00:00 | |
| HSKMA3-T | 2026-09-03 12:32:15 | 52.46848 | 11.31221 | 56° | 31km/h | 31259m | 5m/s | -39.6°C | 0% | 10.6hPa | 2.6V | 03:21:55 | 02:00:37 | 00:00:00 | |
| DL1NUX | 2026-09-03 12:32:14 | 52.46799 | 11.31149 | 33° | 49km/h | 31227m | 4m/s | -39.7°C | 1.8% | 10.6hPa | 2.7V | 03:21:15 | 02:00:31 | 00:00:00 | |
| DL1XH-west | 2026-09-03 12:32:10 | 52.46810 | 11.31161 | 37° | 53km/h | 31231m | 4.4m/s | -39.7°C | 0% | 10.6hPa | 2.6V | 03:21:55 | 02:00:32 | 00:00:00 | |
| AA1-15 | 2026-09-03 12:32:08 | 52.46781 | 11.31132 | 25° | 35km/h | 31216m | 7m/s | -39.7°C | 0% | 10.6hPa | 2.7V | 03:21:55 | 02:00:29 | 00:00:00 | |
| DM0DOS-11 | 2026-09-03 12:32:06 | 52.46759 | 11.31102 | 65° | 29km/h | 31186m | 6.5m/s | -39.8°C | 1.8% | 10.7hPa | 2.7V | 03:21:22 | 02:00:24 | 00:00:00 | |
| HSKMA3-T | 2026-09-03 12:32:05 | 52.46769 | 11.31123 | 30° | 20km/h | 31204m | 5.4m/s | -39.7°C | 0% | 10.7hPa | 2.6V | 03:21:55 | 02:00:27 | 00:00:00 | |
| DL1NUX | 2026-09-03 12:32:04 | 52.46746 | 11.31063 | 55° | 38km/h | 31170m | 5.7m/s | -40°C | 1.8% | 10.7hPa | 2.6V | 03:21:25 | 02:00:21 | 00:00:00 | |
| DL1XH-west | 2026-09-03 12:32:00 | 52.46751 | 11.31076 | 62° | 38km/h | 31175m | 5.1m/s | -40°C | 0% | 10.7hPa | 2.6V | 03:21:55 | 02:00:22 | 00:00:00 | |
| DB0UT-7 | 2026-09-03 12:32:00 | 52.46751 | 11.31076 | 62° | 29km/h | 31175m | 5.1m/s | -40.0°C | 1.8% | 10.6hPa | 2.7V | 00:00:00 | 00:00:00 | 00:00:00 | |
| DL1XH1-15 | 2026-09-03 12:31:59 | 52.46729 | 11.31031 | 36° | 33km/h | 31152m | 5.2m/s | -40°C | 1.8% | 10.7hPa | 2.7V | 03:21:28 | 02:00:18 | 00:00:00 | |
| DD8BA-10 | 2026-09-03 12:31:59 | 52.46746 | 11.31063 | 56° | 31km/h | 31170m | 5.6m/s | -40.0°C | 1.8% | 10.6hPa | 2.7V | 00:00:00 | 00:00:00 | 00:00:00 | |
| 13BRC | 2026-09-03 12:31:58 | 52.46746 | 11.31063 | 57° | 38km/h | 31170m | 5.7m/s | -40.0°C | 0.2% | 10.7hPa | 2.7V | 03:21:00 | 00:00:00 | 00:00:00 | |
| DO2SHX-10 | 2026-09-03 12:31:57 | 52.46735 | 11.31040 | 43° | 33km/h | 31158m | 5.5m/s | -39.8°C | 1.8% | 10.7hPa | 2.7V | 00:00:00 | 02:00:19 | 00:00:00 | |
| AA1-15 | 2026-09-03 12:31:57 | 52.46728 | 11.31031 | 36° | 33km/h | 31152m | 5.2m/s | -40°C | 0% | 10.7hPa | 2.7V | 03:21:55 | 02:00:18 | 00:00:00 | |
| DL1XH-15 | 2026-09-03 12:31:56 | 52.46696 | 11.30996 | 32° | 24km/h | 31124m | 5.1m/s | -40.3°C | 1.8% | 10.8hPa | 2.7V | 03:21:33 | 02:00:13 | 00:00:00 | |
| DM0DOS-11 | 2026-09-03 12:31:56 | 52.46701 | 11.31002 | 35° | 29km/h | 31130m | 5m/s | -40.2°C | 1.8% | 10.8hPa | 2.6V | 03:21:32 | 02:00:14 | 00:00:00 | |
| HSKMA3-T | 2026-09-03 12:31:54 | 52.46715 | 11.31016 | 33° | 33km/h | 31141m | 6.3m/s | -40.1°C | 0% | 10.7hPa | 2.7V | 03:21:55 | 02:00:16 | 00:00:00 | |
| DL1NUX | 2026-09-03 12:31:54 | 52.46687 | 11.30988 | 15° | 15km/h | 31112m | 6.9m/s | -40.4°C | 1.8% | 10.8hPa | 2.7V | 03:21:35 | 02:00:11 | 00:00:00 | |
| DL1XH-west | 2026-09-03 12:31:50 | 52.46691 | 11.30991 | 28° | 20km/h | 31119m | 6.6m/s | -40.4°C | 0% | 10.8hPa | 2.7V | 03:21:55 | 02:00:12 | 00:00:00 | |
| GOEST3-10 | 2026-09-03 12:31:49 | 52.46687 | 11.30988 | 16° | 18km/h | 31112m | 6.9m/s | -40.3°C | 1.8% | 10.8hPa | 2.7V | 03:21:00 | 00:00:00 | 00:00:00 | |
| DL1XH1-15 | 2026-09-03 12:31:48 | 52.46676 | 11.30981 | 37° | 20km/h | 31097m | 5.5m/s | -40.4°C | 1.9% | 10.8hPa | 2.7V | 03:21:38 | 02:00:08 | 00:00:00 | |
| DL4XJ-10 | 2026-09-03 12:31:47 | 52.46680 | 11.30985 | 26° | 31km/h | 31102m | 3.9m/s | -38.6°C | 0% | 0hPa | 2.6V | 00:00:00 | 00:00:00 | 00:00:00 | |
| DM0DOS-11 | 2026-09-03 12:31:46 | 52.46651 | 11.30943 | 39° | 44km/h | 31073m | 5m/s | -40.7°C | 2% | 10.9hPa | 2.6V | 03:21:42 | 02:00:04 | 00:00:00 | |
| DL1XH-15 | 2026-09-03 12:31:46 | 52.46642 | 11.30932 | 35° | 40km/h | 31068m | 6.2m/s | -40.6°C | 2% | 10.8hPa | 2.7V | 03:21:43 | 02:00:03 | 00:00:00 | |
| AA1-15 | 2026-09-03 12:31:45 | 52.46672 | 11.30975 | 42° | 27km/h | 31091m | 7.1m/s | -40.4°C | 0% | 10.8hPa | 2.7V | 03:21:55 | 02:00:07 | 00:00:00 | |
| HSKMA3-T | 2026-09-03 12:31:44 | 52.46666 | 11.30966 | 45° | 37km/h | 31084m | 6.2m/s | -40.5°C | 0% | 10.8hPa | 2.7V | 03:21:55 | 02:00:06 | 00:00:00 | |
| DO3MHA-11 | 2026-09-03 12:31:43 | 52.46651 | 11.30943 | 40° | 33km/h | 31074m | 5.0m/s | -40.6°C | 2.0% | 10.8hPa | 2.7V | 03:21:00 | 02:00:04 | 00:00:00 | |
| DO2SHX-10 | 2026-09-03 12:31:42 | 52.46651 | 11.30943 | 40° | 40km/h | 31074m | 5.0m/s | -40.6°C | 2.0% | 10.8hPa | 2.7V | 03:21:00 | 02:00:04 | 00:00:00 | |
| DL1XH1-15 | 2026-09-03 12:31:41 | 52.46608 | 11.30901 | 39° | 26km/h | 31039m | 6.2m/s | -40.6°C | 1.9% | 10.9hPa | 2.7V | 03:21:48 | 01:59:58 | 00:00:00 | |
| DL1XH-west | 2026-09-03 12:31:40 | 52.46626 | 11.30917 | 25° | 31km/h | 31056m | 5.2m/s | -40.5°C | 0% | 10.9hPa | 2.7V | 03:21:55 | 02:00:01 | 00:00:00 | |
| DD8BA-10 | 2026-09-03 12:31:39 | 52.46626 | 11.30917 | 25° | 29km/h | 31056m | 5.1m/s | -40.4°C | 1.9% | 10.8hPa | 2.6V | 03:21:00 | 00:00:00 | 00:00:00 | |
| 13BRC | 2026-09-03 12:31:38 | 52.46608 | 11.30901 | 40° | 26km/h | 31040m | 6.2m/s | -40.5°C | 0.2% | 10.9hPa | 2.6V | 03:21:00 | 00:00:00 | 00:00:00 | |
| DL1XH-15 | 2026-09-03 12:31:36 | 52.46582 | 11.30859 | 32° | 31km/h | 31010m | 6.6m/s | -41°C | 2% | 10.9hPa | 2.6V | 03:21:53 | 01:59:53 | 00:00:00 | |
| HSKMA3-T | 2026-09-03 12:31:35 | 52.46599 | 11.30885 | 52° | 29km/h | 31027m | 5.6m/s | -40.7°C | 0% | 10.9hPa | 2.7V | 03:21:55 | 01:59:56 | 00:00:00 | |
| DJ8HS-15 | 2026-09-03 12:31:34 | 52.46599 | 11.30885 | 53° | 29km/h | 31028m | 5.6m/s | -40.7°C | 1.9% | 10.9hPa | 2.6V | 00:00:00 | 01:59:56 | 00:00:00 | |
| DM0DOS-11 | 2026-09-03 12:31:33 | 52.46589 | 11.30866 | 41° | 31km/h | 31016m | 6.2m/s | -40.9°C | 2% | 10.9hPa | 2.6V | 03:21:52 | 01:59:54 | 00:00:00 | |
| DL1XH-west | 2026-09-03 12:31:28 | 52.46561 | 11.30838 | 34° | 35km/h | 30993m | 6.1m/s | -41°C | 0% | 11hPa | 2.7V | 03:22:46 | 01:59:50 | 00:00:00 | |
| DD8BA-10 | 2026-09-03 12:31:28 | 52.46561 | 11.30838 | 34° | 29km/h | 30993m | 6.1m/s | -41.0°C | 2.0% | 10.9hPa | 2.7V | 00:00:00 | 00:00:00 | 00:00:00 | |
| DL1XH1-15 | 2026-09-03 12:31:27 | 52.46547 | 11.30819 | 47° | 37km/h | 30980m | 5.5m/s | -40.8°C | 2% | 11hPa | 2.7V | 03:21:58 | 01:59:48 | 00:00:00 | |
| DM0DOS-11 | 2026-09-03 12:31:27 | 52.46520 | 11.30779 | 28° | 22km/h | 30952m | 4.9m/s | -40.9°C | 1.9% | 11hPa | 2.7V | 03:22:03 | 01:59:43 | 00:00:00 | |
| AA1-15 | 2026-09-03 12:31:25 | 52.46520 | 11.30779 | 29° | 22km/h | 30952m | 4.9m/s | -40.9°C | 0% | 11hPa | 2.7V | 03:22:46 | 01:59:43 | 00:00:00 | |
| HSKMA3-T | 2026-09-03 12:31:24 | 52.46530 | 11.30790 | 41° | 27km/h | 30963m | 6.7m/s | -40.9°C | 0% | 11hPa | 2.7V | 03:22:46 | 01:59:45 | 00:00:00 | |
| DL1NUX | 2026-09-03 12:31:24 | 52.46510 | 11.30769 | 34° | 24km/h | 30941m | 6.2m/s | -41°C | 1.9% | 11hPa | 2.6V | 03:22:05 | 01:59:41 | 00:00:00 | |
| AP2371 | 2026-09-03 12:31:23 | 52.46530 | 11.30790 | 42° | 27km/h | 30964m | 6.7m/s | -40.9°C | 0.2% | 11.0hPa | 2.7V | 00:00:00 | 00:00:00 | 00:00:00 | |
| DO3MHA-11 | 2026-09-03 12:31:22 | 52.46525 | 11.30784 | 33° | 26km/h | 30958m | 5.8m/s | -40.9°C | 2.0% | 11.0hPa | 2.7V | 00:00:00 | 01:59:44 | 00:00:00 | |
| DO2SHX-10 | 2026-09-03 12:31:21 | 52.46520 | 11.30779 | 29° | 24km/h | 30952m | 4.8m/s | -40.9°C | 1.9% | 11.0hPa | 2.7V | 00:00:00 | 01:59:43 | 00:00:00 | |
| DL1XH1-15 | 2026-09-03 12:31:19 | 52.46493 | 11.30748 | 34° | 29km/h | 30924m | 4.8m/s | -41.2°C | 2% | 11.1hPa | 2.7V | 03:22:08 | 01:59:38 | 00:00:00 | |
| DL1XH-west | 2026-09-03 12:31:18 | 52.46504 | 11.30763 | 40° | 27km/h | 30934m | 5.9m/s | -41°C | 0% | 11.1hPa | 2.7V | 03:22:46 | 01:59:40 | 00:00:00 | |
| DO2SHX-10 | 2026-09-03 12:31:18 | 52.46504 | 11.30762 | 40° | 29km/h | 30935m | 5.9m/s | -40.9°C | 1.9% | 11.1hPa | 2.7V | 03:22:00 | 01:59:40 | 00:00:00 | |
| DF7ER-10 | 2026-09-03 12:31:17 | 52.46505 | 11.30762 | 41° | 27km/h | 30935m | 5.9m/s | -41.0°C | 0.2% | 11.1hPa | 2.7V | 03:22:00 | 00:00:00 | 00:00:00 | |
| DL1XH-15 | 2026-09-03 12:31:16 | 52.46458 | 11.30728 | 20° | 29km/h | 30895m | 6.2m/s | -41.5°C | 2% | 11.1hPa | 2.7V | 03:22:13 | 01:59:33 | 00:00:00 | |
| HSKMA3-T | 2026-09-03 12:31:13 | 52.46472 | 11.30734 | 12° | 29km/h | 30906m | 5.4m/s | -41.5°C | 0% | 11.1hPa | 2.7V | 03:22:46 | 01:59:35 | 00:00:00 | |
| DL1NUX | 2026-09-03 12:31:13 | 52.46445 | 11.30715 | 43° | 29km/h | 30883m | 5.3m/s | -41.4°C | 2% | 11.2hPa | 2.6V | 03:22:15 | 01:59:31 | 00:00:00 | |
| AA1-15 | 2026-09-03 12:31:12 | 52.46458 | 11.30728 | 21° | 29km/h | 30895m | 6.2m/s | -41.5°C | 0% | 11.1hPa | 2.7V | 03:22:46 | 01:59:33 | 00:00:00 | |
| DL1XH-west | 2026-09-03 12:31:07 | 52.46437 | 11.30699 | 57° | 22km/h | 30873m | 5.1m/s | -41.4°C | 0% | 11.2hPa | 2.7V | 03:22:46 | 01:59:29 | 00:00:00 | |
| DL1XH-15 | 2026-09-03 12:31:07 | 52.46423 | 11.30682 | 27° | 16km/h | 30840m | 6.3m/s | -41.4°C | 2% | 11.2hPa | 2.7V | 03:22:23 | 01:59:23 | 00:00:00 | |
| DF8AY | 2026-09-03 12:31:05 | 52.46432 | 11.30687 | 45° | 11km/h | 30861m | 6.6m/s | 0°C | 0% | 0hPa | 2.6V | 03:22:46 | 01:59:27 | 00:00:00 | |
| HSKMA3-T | 2026-09-03 12:31:02 | 52.46426 | 11.30684 | 15° | 11km/h | 30845m | 4.7m/s | -41.4°C | 0% | 11.2hPa | 2.7V | 03:22:46 | 01:59:24 | 00:00:00 | |
| AA1-15 | 2026-09-03 12:31:01 | 52.46423 | 11.30682 | 28° | 16km/h | 30840m | 6.3m/s | -41.4°C | 0% | 11.2hPa | 2.7V | 03:22:46 | 01:59:23 | 00:00:00 | |
| DF7PN | 2026-09-03 12:31:01 | 52.46419 | 11.30678 | 36° | 22km/h | 30834m | 6.5m/s | -41.4°C | 0.2% | 11.2hPa | 2.6V | 00:00:00 | 00:00:00 | 00:00:00 | |
| DL1NUX | 2026-09-03 12:31:00 | 52.46413 | 11.30671 | 39° | 29km/h | 30827m | 5.7m/s | -41.4°C | 1.9% | 11.2hPa | 2.6V | 03:22:25 | 01:59:21 | 00:00:00 | |
| DL1XH-west | 2026-09-03 12:30:56 | 52.46393 | 11.30648 | 25° | 33km/h | 30810m | 6.7m/s | -41.7°C | 0% | 11.3hPa | 2.7V | 03:22:46 | 01:59:18 | 00:00:00 | |
| DM0DOS-11 | 2026-09-03 12:30:56 | 52.46368 | 11.30635 | 28° | 20km/h | 30787m | 6.7m/s | -41.7°C | 2% | 11.3hPa | 2.6V | 03:22:32 | 01:59:14 | 00:00:00 | |
| SP3BTT-10 | 2026-09-03 12:30:56 | 52.46393 | 11.30648 | 25° | 15km/h | 30810m | 6.7m/s | -41.7°C | 2.0% | 11.2hPa | 2.7V | 00:00:00 | 00:00:00 | 00:00:00 | |
| 13BRC | 2026-09-03 12:30:55 | 52.46393 | 11.30648 | 26° | 33km/h | 30810m | 6.7m/s | -41.7°C | 0.2% | 11.3hPa | 2.7V | 03:22:00 | 00:00:00 | 00:00:00 | |
| DJ8HS-15 | 2026-09-03 12:30:54 | 52.46379 | 11.30641 | 14° | 22km/h | 30799m | 4.9m/s | -41.5°C | 2.0% | 11.2hPa | 2.7V | 00:00:00 | 01:59:16 | 00:00:00 | |
| DL1NUX | 2026-09-03 12:30:53 | 52.46360 | 11.30620 | 55° | 15km/h | 30770m | 4.7m/s | -41.5°C | 2% | 11.3hPa | 2.7V | 03:22:35 | 01:59:11 | 00:00:00 | |
| AA1-15 | 2026-09-03 12:30:51 | 52.46365 | 11.30630 | 44° | 18km/h | 30781m | 6.1m/s | -41.7°C | 0% | 11.3hPa | 2.7V | 03:22:46 | 01:59:13 | 00:00:00 | |
| DF8AY | 2026-09-03 12:30:50 | 52.46362 | 11.30625 | 55° | 16km/h | 30775m | 5m/s | 0°C | 0% | 0hPa | 2.7V | 03:22:46 | 01:59:12 | 00:00:00 | |
| GOEST3-10 | 2026-09-03 12:30:49 | 52.46360 | 11.30620 | 56° | 16km/h | 30771m | 4.7m/s | -41.5°C | 2.0% | 11.3hPa | 2.6V | 03:22:00 | 00:00:00 | 00:00:00 | |
| DL1XH1-15 | 2026-09-03 12:30:48 | 52.46351 | 11.30611 | 9° | 18km/h | 30753m | 5.5m/s | -41.7°C | 2% | 11.4hPa | 2.6V | 03:22:38 | 01:59:08 | 00:00:00 | |
| DL1XH-west | 2026-09-03 12:30:46 | 52.46351 | 11.30611 | 10° | 18km/h | 30753m | 5.5m/s | -41.7°C | 0% | 11.4hPa | 2.6V | 03:22:46 | 01:59:08 | 00:00:00 | |
| DL1XH-15 | 2026-09-03 12:30:46 | 52.46319 | 11.30592 | 35° | 33km/h | 30724m | 5.4m/s | -41.7°C | 2% | 11.4hPa | 2.6V | 03:22:43 | 01:59:03 | 00:00:00 | |
| MECKS9 | 2026-09-03 12:30:46 | 52.46351 | 11.30611 | 10° | 18km/h | 30753m | 5.5m/s | -41.7°C | 0.2% | 11.4hPa | 2.6V | 00:00:00 | 00:00:00 | 00:00:00 | |
| DO2SHX-10 | 2026-09-03 12:30:45 | 52.46346 | 11.30610 | 9° | 26km/h | 30748m | 4.7m/s | -41.7°C | 1.9% | 11.3hPa | 2.6V | 00:00:00 | 01:59:07 | 00:00:00 | |
| GOEST3-10 | 2026-09-03 12:30:44 | 52.46340 | 11.30608 | 13° | 31km/h | 30743m | 5.3m/s | -41.6°C | 2.0% | 11.3hPa | 2.6V | 00:00:00 | 01:59:06 | 00:00:00 | |
| DM0DOS-11 | 2026-09-03 12:30:43 | 52.46326 | 11.30599 | 30° | 33km/h | 30730m | 6.5m/s | -41.6°C | 1.9% | 11.4hPa | 2.6V | 03:22:42 | 01:59:04 | 00:00:00 | |
| HSKMA3-T | 2026-09-03 12:30:42 | 52.46326 | 11.30599 | 30° | 33km/h | 30730m | 6.5m/s | -41.6°C | 0% | 11.4hPa | 2.6V | 03:22:46 | 01:59:04 | 00:00:00 | |
| AA1-15 | 2026-09-03 12:30:41 | 52.46313 | 11.30584 | 36° | 31km/h | 30719m | 4.7m/s | -41.8°C | 0% | 11.4hPa | 2.7V | 03:22:46 | 01:59:02 | 00:00:00 | |
| DL1NUX | 2026-09-03 12:30:40 | 52.46307 | 11.30578 | 29° | 26km/h | 30714m | 5.5m/s | -41.8°C | 2% | 11.4hPa | 2.7V | 03:22:45 | 01:59:01 | 00:00:00 | |
| DF8AY | 2026-09-03 12:30:39 | 52.46307 | 11.30578 | 30° | 26km/h | 30714m | 5.5m/s | 0°C | 0% | 0hPa | 2.7V | 03:22:46 | 01:59:01 | 00:00:00 | |
| DB0NH | 2026-09-03 12:30:39 | 52.46307 | 11.30578 | 30° | 22km/h | 30714m | 5.5m/s | -41.8°C | 2.0% | 11.4hPa | 2.6V | 03:22:00 | 01:59:01 | 00:00:00 | |
| DO3MHA-11 | 2026-09-03 12:30:38 | 52.46301 | 11.30574 | 19° | 16km/h | 30708m | 6.5m/s | -41.7°C | 2.0% | 11.4hPa | 2.6V | 00:00:00 | 01:59:00 | 00:00:00 | |
| DL1XH-15 | 2026-09-03 12:30:37 | 52.46272 | 11.30570 | 17° | 16km/h | 30667m | 5.9m/s | -42.1°C | 2% | 11.5hPa | 2.6V | 03:22:53 | 01:58:53 | 00:00:00 | |
| DL1XH-west | 2026-09-03 12:30:36 | 52.46289 | 11.30575 | 349° | 16km/h | 30691m | 5.9m/s | -42°C | 0% | 11.5hPa | 2.7V | 03:23:37 | 01:58:57 | 00:00:00 | |
| DO2SHX-10 | 2026-09-03 12:30:36 | 52.46292 | 11.30573 | 348° | 16km/h | 30697m | 4.8m/s | -41.8°C | 2.0% | 11.4hPa | 2.7V | 00:00:00 | 01:58:58 | 00:00:00 | |
| DL1NUX | 2026-09-03 12:30:34 | 52.46264 | 11.30566 | 14° | 18km/h | 30654m | 5.5m/s | -41.9°C | 2% | 11.5hPa | 2.7V | 03:22:55 | 01:58:51 | 00:00:00 | |
| HSKMA3-T | 2026-09-03 12:30:31 | 52.46272 | 11.30570 | 18° | 18km/h | 30667m | 5.9m/s | -42.1°C | 0% | 11.5hPa | 2.6V | 03:23:37 | 01:58:53 | 00:00:00 | |
| AA1-15 | 2026-09-03 12:30:29 | 52.46264 | 11.30566 | 14° | 18km/h | 30654m | 5.5m/s | -41.9°C | 0% | 11.6hPa | 2.7V | 03:23:37 | 01:58:51 | 00:00:00 | |
| DF8AY | 2026-09-03 12:30:28 | 52.46260 | 11.30564 | 24° | 18km/h | 30649m | 4.9m/s | 0°C | 0% | 0hPa | 2.7V | 18:12:15 | 01:58:50 | 00:00:00 | |
| DD8BA-10 | 2026-09-03 12:30:28 | 52.46260 | 11.30564 | 24° | 22km/h | 30649m | 4.8m/s | -41.9°C | 2.0% | 11.5hPa | 2.7V | 00:00:00 | 00:00:00 | 00:00:00 | |
| DO2SHX-10 | 2026-09-03 12:30:27 | 52.46255 | 11.30560 | 35° | 24km/h | 30644m | 6.1m/s | -42.0°C | 2.0% | 11.5hPa | 2.7V | 00:00:00 | 01:58:49 | 00:00:00 | |
| DL1XH-15 | 2026-09-03 12:30:26 | 52.46222 | 11.30530 | 350° | 20km/h | 30602m | 5m/s | -42.1°C | 2% | 11.6hPa | 2.7V | 03:23:04 | 01:58:42 | 00:00:00 | |
| DL1XH-west | 2026-09-03 12:30:24 | 52.46242 | 11.30539 | 42° | 26km/h | 30625m | 4.7m/s | -41.9°C | 0% | 11.6hPa | 2.7V | 03:23:37 | 01:58:46 | 00:00:00 | |
| DO2SHX-10 | 2026-09-03 12:30:24 | 52.46242 | 11.30539 | 42° | 22km/h | 30626m | 4.7m/s | -41.9°C | 2.0% | 11.6hPa | 2.7V | 00:00:00 | 01:58:46 | 00:00:00 | |
| DM0DOS-11 | 2026-09-03 12:30:23 | 52.46232 | 11.30530 | 15° | 20km/h | 30614m | 7.1m/s | -42°C | 2% | 11.6hPa | 2.6V | 03:23:02 | 01:58:44 | 00:00:00 | |
| DL1NUX | 2026-09-03 12:30:23 | 52.46217 | 11.30531 | 352° | 20km/h | 30597m | 4.9m/s | -42°C | 2% | 11.6hPa | 2.7V | 03:23:05 | 01:58:41 | 00:00:00 | |
| HSKMA3-T | 2026-09-03 12:30:21 | 52.46222 | 11.30530 | 350° | 20km/h | 30602m | 5m/s | -42.1°C | 0% | 11.6hPa | 2.7V | 03:23:37 | 01:58:42 | 00:00:00 | |
| AA1-15 | 2026-09-03 12:30:19 | 52.46202 | 11.30525 | 33° | 24km/h | 30579m | 5.4m/s | -42.2°C | 0% | 11.6hPa | 2.6V | 03:23:37 | 01:58:38 | 00:00:00 | |
| DM0DOS-11 | 2026-09-03 12:30:18 | 52.46181 | 11.30504 | 15° | 24km/h | 30557m | 6.7m/s | -42.2°C | 2% | 11.7hPa | 2.6V | 03:23:12 | 01:58:34 | 00:00:00 | |
| DL1XH-15 | 2026-09-03 12:30:15 | 52.46175 | 11.30503 | 1° | 24km/h | 30550m | 5.7m/s | -42.2°C | 2% | 11.7hPa | 2.6V | 03:23:13 | 01:58:33 | 00:00:00 | |
| DL1XH-west | 2026-09-03 12:30:14 | 52.46192 | 11.30513 | 36° | 26km/h | 30569m | 5m/s | -42.1°C | 0% | 11.7hPa | 2.7V | 03:23:37 | 01:58:36 | 00:00:00 | |
| DO2SHX-10 | 2026-09-03 12:30:14 | 52.46192 | 11.30513 | 36° | 24km/h | 30569m | 4.9m/s | -42.0°C | 2.0% | 11.6hPa | 2.7V | 00:00:00 | 01:58:36 | 00:00:00 | |
| 13BRC | 2026-09-03 12:30:13 | 52.46191 | 11.30513 | 37° | 26km/h | 30569m | 5.0m/s | -42.1°C | 0.2% | 11.7hPa | 2.7V | 03:23:00 | 00:00:00 | 00:00:00 | |
| DL1NUX | 2026-09-03 12:30:12 | 52.46162 | 11.30504 | 358° | 29km/h | 30540m | 5m/s | -42°C | 2% | 11.7hPa | 2.7V | 03:23:15 | 01:58:31 | 00:00:00 | |
| DB0DAN | 2026-09-03 12:30:10 | 52.46168 | 11.30503 | 356° | 26km/h | 30545m | 5.2m/s | -42°C | 0.2% | 11.73hPa | 2.7V | 00:00:00 | 00:00:00 | 00:00:00 | |
| HSKMA3-T | 2026-09-03 12:30:10 | 52.46168 | 11.30503 | 356° | 27km/h | 30545m | 5.2m/s | -42°C | 0% | 11.7hPa | 2.7V | 03:23:37 | 01:58:32 | 00:00:00 | |
| AA1-15 | 2026-09-03 12:30:08 | 52.46154 | 11.30503 | 5° | 31km/h | 30534m | 6.5m/s | -42.1°C | 0% | 11.7hPa | 2.7V | 03:23:37 | 01:58:30 | 00:00:00 | |
| DD8BA-10 | 2026-09-03 12:30:08 | 52.46154 | 11.30503 | 5° | 16km/h | 30535m | 6.4m/s | -42.0°C | 2.0% | 11.7hPa | 2.6V | 00:00:00 | 00:00:00 | 00:00:00 | |
| DL1XH1-15 | 2026-09-03 12:30:07 | 52.46139 | 11.30497 | 21° | 33km/h | 30521m | 5.8m/s | -42°C | 2% | 11.8hPa | 2.6V | 03:23:18 | 01:58:28 | 00:00:00 | |
| DL1XH-15 | 2026-09-03 12:30:06 | 52.46112 | 11.30484 | 343° | 11km/h | 30491m | 5.8m/s | -42.1°C | 2% | 11.8hPa | 2.6V | 03:23:23 | 01:58:23 | 00:00:00 | |
| DL1XH-west | 2026-09-03 12:30:05 | 52.46125 | 11.30488 | 21° | 26km/h | 30510m | 5.6m/s | -42.1°C | 0% | 11.8hPa | 2.7V | 03:23:37 | 01:58:26 | 00:00:00 | |
| DL1NUX | 2026-09-03 12:30:04 | 52.46108 | 11.30485 | 7° | 5km/h | 30479m | 6.6m/s | -42.2°C | 2% | 11.8hPa | 2.7V | 03:23:25 | 01:58:21 | 00:00:00 | |
| DM0DOS-11 | 2026-09-03 12:30:04 | 52.46115 | 11.30484 | 358° | 15km/h | 30497m | 6.6m/s | -42.1°C | 2% | 11.8hPa | 2.6V | 03:23:22 | 01:58:24 | 00:00:00 | |
| HSKMA3-T | 2026-09-03 12:30:00 | 52.46110 | 11.30485 | 346° | 7km/h | 30485m | 5.9m/s | -42.2°C | 0% | 11.8hPa | 2.7V | 03:23:37 | 01:58:22 | 00:00:00 | |
| DB0UT-7 | 2026-09-03 12:30:00 | 52.46110 | 11.30485 | 347° | 13km/h | 30486m | 5.8m/s | -42.1°C | 2.0% | 11.8hPa | 2.7V | 00:00:00 | 00:00:00 | 00:00:00 | |
| DL1XH1-15 | 2026-09-03 12:29:59 | 52.46101 | 11.30478 | 30° | 16km/h | 30461m | 5.1m/s | -42.4°C | 2.1% | 11.9hPa | 2.6V | 03:23:28 | 01:58:18 | 00:00:00 | |
| AA1-15 | 2026-09-03 12:29:58 | 52.46106 | 11.30484 | 38° | 9km/h | 30472m | 6.7m/s | -42.1°C | 0% | 11.9hPa | 2.7V | 03:23:37 | 01:58:20 | 00:00:00 | |
| DM0DOS-11 | 2026-09-03 12:29:58 | 52.46080 | 11.30476 | 353° | 26km/h | 30437m | 5.4m/s | -42.6°C | 2.1% | 11.9hPa | 2.6V | 03:23:32 | 01:58:14 | 00:00:00 | |
| DL1XH-west | 2026-09-03 12:29:53 | 52.46080 | 11.30476 | 353° | 26km/h | 30437m | 5.4m/s | -42.6°C | 0% | 11.9hPa | 2.6V | 03:23:37 | 01:58:14 | 00:00:00 | |
| 13BRC | 2026-09-03 12:29:53 | 52.46086 | 11.30474 | 354° | 26km/h | 30443m | 5.8m/s | -42.5°C | 0.2% | 11.9hPa | 2.7V | 03:23:00 | 00:00:00 | 00:00:00 | |
| DL1NUX | 2026-09-03 12:29:52 | 52.46061 | 11.30475 | 14° | 22km/h | 30418m | 5.9m/s | -42.6°C | 2.1% | 11.9hPa | 2.7V | 03:23:35 | 01:58:11 | 00:00:00 | |
| DL1XH-15 | 2026-09-03 12:29:52 | 52.46074 | 11.30477 | 356° | 26km/h | 30431m | 5.7m/s | -42.7°C | 2.1% | 11.9hPa | 2.6V | 03:23:33 | 01:58:13 | 00:00:00 | |
| HSKMA3-T | 2026-09-03 12:29:49 | 52.46061 | 11.30475 | 15° | 22km/h | 30418m | 5.9m/s | -42.6°C | 0% | 11.9hPa | 2.7V | 03:23:37 | 01:58:11 | 00:00:00 | |
| AA1-15 | 2026-09-03 12:29:48 | 52.46056 | 11.30472 | 21° | 18km/h | 30413m | 4.9m/s | -42.7°C | 0% | 12hPa | 2.7V | 03:23:37 | 01:58:10 | 00:00:00 | |
| AM1SDL-15 | 2026-09-03 12:29:48 | 52.46056 | 11.30472 | 21° | 11km/h | 30413m | 4.8m/s | -42.6°C | 2.1% | 11.9hPa | 2.6V | 00:00:00 | 01:58:10 | 00:00:00 | |
| DM0DOS-11 | 2026-09-03 12:29:47 | 52.46050 | 11.30478 | 293° | 4km/h | 30378m | 5.4m/s | -42.5°C | 2.1% | 12hPa | 2.6V | 03:23:42 | 01:58:04 | 00:00:00 | |
| DL1XH1-15 | 2026-09-03 12:29:47 | 52.46051 | 11.30469 | 5° | 5km/h | 30402m | 7m/s | -42.6°C | 2.1% | 12hPa | 2.6V | 03:23:38 | 01:58:08 | 00:00:00 | |
| DL1XH-15 | 2026-09-03 12:29:47 | 52.46049 | 11.30478 | 19° | 5km/h | 30371m | 7.1m/s | -42.6°C | 2.1% | 12hPa | 2.6V | 03:23:43 | 01:58:03 | 00:00:00 | |
| HTAHTA | 2026-09-03 12:29:46 | 52.46051 | 11.30469 | 5° | 5km/h | 30402m | 7.0m/s | -42.6°C | 0.2% | 12.0hPa | 2.6V | 00:00:00 | 00:00:00 | 00:00:00 | |
| DL1XH-west | 2026-09-03 12:29:42 | 52.46049 | 11.30478 | 19° | 5km/h | 30371m | 7.1m/s | -42.6°C | 0% | 12.1hPa | 2.6V | 03:24:28 | 01:58:03 | 00:00:00 | |
| DL1NUX | 2026-09-03 12:29:42 | 52.46045 | 11.30472 | 43° | 16km/h | 30358m | 6.2m/s | -42.4°C | 2% | 12.1hPa | 2.7V | 03:23:45 | 01:58:01 | 00:00:00 | |
| EDDB2-11 | 2026-09-03 12:29:42 | 52.46049 | 11.30478 | 19° | 4km/h | 30371m | 7.1m/s | -42.6°C | 0.2% | 12.1hPa | 2.6V | 00:00:00 | 00:00:00 | 00:00:00 | |
| DO2SHX-10 | 2026-09-03 12:29:41 | 52.46049 | 11.30478 | 20° | 11km/h | 30372m | 7.1m/s | -42.5°C | 2.1% | 12.0hPa | 2.6V | 03:23:00 | 01:58:03 | 00:00:00 | |
| SP3WXH-11 | 2026-09-03 12:29:40 | 52.46048 | 11.30476 | 40° | 11km/h | 30364m | 6.7m/s | -42.6°C | 0.2% | 12.0hPa | 2.6V | 00:00:00 | 00:00:00 | 00:00:00 | |
| DL1XH1-15 | 2026-09-03 12:29:39 | 52.46035 | 11.30461 | 16° | 13km/h | 30339m | 6.7m/s | -42.6°C | 2.1% | 12.1hPa | 2.6V | 03:23:48 | 01:57:58 | 00:00:00 | |
| AA1-15 | 2026-09-03 12:29:38 | 52.46042 | 11.30467 | 39° | 18km/h | 30352m | 5.6m/s | -42.4°C | 0% | 12.1hPa | 2.7V | 03:24:28 | 01:58:00 | 00:00:00 | |
| AP2371 | 2026-09-03 12:29:38 | 52.46041 | 11.30467 | 40° | 18km/h | 30353m | 5.6m/s | -42.4°C | 0.2% | 12.1hPa | 2.6V | 03:24:00 | 00:00:00 | 00:00:00 | |
| DD8BA-10 | 2026-09-03 12:29:37 | 52.46038 | 11.30463 | 32° | 9km/h | 30346m | 6.5m/s | -42.5°C | 2.1% | 12.1hPa | 2.6V | 03:23:00 | 00:00:00 | 00:00:00 | |
| DO3MHA-11 | 2026-09-03 12:29:36 | 52.46035 | 11.30461 | 17° | 7km/h | 30340m | 6.6m/s | -42.5°C | 2.1% | 12.0hPa | 2.6V | 00:00:00 | 01:57:58 | 00:00:00 | |
| DO2SHX-10 | 2026-09-03 12:29:35 | 52.46032 | 11.30460 | 354° | 9km/h | 30333m | 5.9m/s | -42.4°C | 2.1% | 12.0hPa | 2.7V | 00:00:00 | 01:57:57 | 00:00:00 | |
| DJ8HS-15 | 2026-09-03 12:29:34 | 52.46030 | 11.30461 | 343° | 7km/h | 30328m | 5.6m/s | -42.4°C | 2.0% | 12.1hPa | 2.7V | 00:00:00 | 01:57:56 | 00:00:00 | |
| DL1NUX | 2026-09-03 12:29:32 | 52.46025 | 11.30455 | 111° | 5km/h | 30297m | 5.6m/s | -42.5°C | 2% | 12.2hPa | 2.7V | 03:23:55 | 01:57:51 | 00:00:00 | |
| DL1XH-15 | 2026-09-03 12:29:32 | 52.46026 | 11.30460 | 65° | 7km/h | 30308m | 6.4m/s | -42.4°C | 2.1% | 12.2hPa | 2.6V | 03:23:53 | 01:57:53 | 00:00:00 | |
| DL1XH-west | 2026-09-03 12:29:32 | 52.46027 | 11.30461 | 25° | 5km/h | 30315m | 7m/s | -42.4°C | 0% | 12.2hPa | 2.6V | 03:24:28 | 01:57:54 | 00:00:00 | |
| HSKMA3-T | 2026-09-03 12:29:27 | 52.46028 | 11.30452 | 174° | 7km/h | 30283m | 6.5m/s | -42.4°C | 0% | 12.2hPa | 2.6V | 03:24:28 | 01:57:49 | 00:00:00 | |
| EDDB2-12 | 2026-09-03 12:29:27 | 52.46030 | 11.30452 | 163° | 5km/h | 30277m | 5.2m/s | -42.4°C | 0.2% | 12.2hPa | 2.7V | 00:00:00 | 00:00:00 | 00:00:00 | |
| DO2SHX-10 | 2026-09-03 12:29:26 | 52.46030 | 11.30452 | 164° | 7km/h | 30277m | 5.2m/s | -42.4°C | 2.0% | 12.2hPa | 2.7V | 00:00:00 | 01:57:48 | 00:00:00 | |
| NBG1-10 | 2026-09-03 12:29:24 | 52.46031 | 11.30448 | 92° | 13km/h | 30265m | 7.3m/s | -42.3°C | 2.0% | 12.2hPa | 2.7V | 03:24:00 | 01:57:46 | 00:00:00 | |
| DO2SHX-10 | 2026-09-03 12:29:23 | 52.46031 | 11.30444 | 69° | 13km/h | 30258m | 6.2m/s | -42.4°C | 2.0% | 12.2hPa | 2.7V | 00:00:00 | 01:57:45 | 00:00:00 | |
| DL1NUX | 2026-09-03 12:29:22 | 52.46025 | 11.30430 | 357° | 4km/h | 30234m | 6.8m/s | -42.5°C | 2% | 12.3hPa | 2.7V | 03:24:05 | 01:57:41 | 00:00:00 | |
| DL1XH-west | 2026-09-03 12:29:22 | 52.46028 | 11.30434 | 54° | 13km/h | 30247m | 5.4m/s | -42.4°C | 0% | 12.3hPa | 2.6V | 03:24:28 | 01:57:43 | 00:00:00 | |
| SO1NDE-10 | 2026-09-03 12:29:21 | 52.46028 | 11.30434 | 55° | 15km/h | 30247m | 5.3m/s | -42.4°C | 2.0% | 12.2hPa | 2.7V | 00:00:00 | 01:57:43 | 00:00:00 | |
| DO2SHX-10 | 2026-09-03 12:29:20 | 52.46026 | 11.30431 | 48° | 5km/h | 30241m | 6.9m/s | -42.5°C | 2.0% | 12.2hPa | 2.7V | 00:00:00 | 01:57:42 | 00:00:00 | |
| DL1XH1-15 | 2026-09-03 12:29:19 | 52.46025 | 11.30432 | 143° | 2km/h | 30216m | 6.3m/s | -42.6°C | 2.1% | 12.3hPa | 2.6V | 03:24:08 | 01:57:38 | 00:00:00 | |
| HSKMA3-T | 2026-09-03 12:29:17 | 52.46025 | 11.30432 | 143° | 2km/h | 30216m | 6.3m/s | -42.6°C | 0% | 12.3hPa | 2.6V | 03:24:28 | 01:57:38 | 00:00:00 | |
| DL1NUX | 2026-09-03 12:29:15 | 52.46035 | 11.30402 | 123° | 11km/h | 30172m | 5.4m/s | -42.7°C | 2% | 12.4hPa | 2.7V | 03:24:15 | 01:57:31 | 00:00:00 | |
| DL1XH-west | 2026-09-03 12:29:10 | 52.46033 | 11.30406 | 135° | 13km/h | 30178m | 6m/s | -42.7°C | 0% | 12.4hPa | 2.7V | 03:24:28 | 01:57:32 | 00:00:00 | |
| 13BRC | 2026-09-03 12:29:10 | 52.46033 | 11.30406 | 136° | 13km/h | 30178m | 6.0m/s | -42.7°C | 0.2% | 12.4hPa | 2.6V | 03:24:00 | 00:00:00 | 00:00:00 | |
| DB0NH | 2026-09-03 12:29:09 | 52.46035 | 11.30402 | 124° | 18km/h | 30173m | 5.4m/s | -42.6°C | 2.0% | 12.4hPa | 2.6V | 00:00:00 | 01:57:31 | 00:00:00 | |
| DO2SHX-10 | 2026-09-03 12:29:08 | 52.46036 | 11.30398 | 100° | 13km/h | 30167m | 5.8m/s | -42.7°C | 2.1% | 12.3hPa | 2.6V | 00:00:00 | 01:57:30 | 00:00:00 | |
| DL1XH1-15 | 2026-09-03 12:29:07 | 52.46034 | 11.30388 | 54° | 15km/h | 30153m | 6.3m/s | -42.7°C | 2% | 12.4hPa | 2.6V | 03:24:18 | 01:57:28 | 00:00:00 | |
| HSKMA3-T | 2026-09-03 12:29:06 | 52.46034 | 11.30388 | 55° | 15km/h | 30153m | 6.4m/s | -42.7°C | 0% | 12.4hPa | 2.6V | 03:24:28 | 01:57:28 | 00:00:00 | |
| AA1-15 | 2026-09-03 12:29:05 | 52.46032 | 11.30384 | 40° | 16km/h | 30147m | 5.2m/s | -42.9°C | 0% | 12.4hPa | 2.7V | 03:24:28 | 01:57:27 | 00:00:00 | |
| DO2SHX-10 | 2026-09-03 12:29:05 | 52.46032 | 11.30384 | 41° | 13km/h | 30148m | 5.2m/s | -42.8°C | 2.0% | 12.4hPa | 2.6V | 03:24:00 | 01:57:27 | 00:00:00 | |
| GOEST3-10 | 2026-09-03 12:29:04 | 52.46029 | 11.30380 | 33° | 9km/h | 30143m | 5.5m/s | -42.9°C | 2.1% | 12.4hPa | 2.6V | 00:00:00 | 01:57:26 | 00:00:00 | |
| DO2SHX-10 | 2026-09-03 12:29:02 | 52.46025 | 11.30376 | 42° | 7km/h | 30130m | 6.0m/s | -42.9°C | 2.1% | 12.5hPa | 2.6V | 00:00:00 | 01:57:24 | 00:00:00 | |
| DM0DOS-11 | 2026-09-03 12:29:01 | 52.46027 | 11.30372 | 134° | 13km/h | 30119m | 5.1m/s | -43°C | 2.1% | 12.5hPa | 2.7V | 03:24:24 | 01:57:22 | 00:00:00 | |
| DL1XH-west | 2026-09-03 12:29:00 | 52.46030 | 11.30367 | 128° | 20km/h | 30112m | 7.3m/s | -43°C | 0% | 12.5hPa | 2.7V | 03:24:28 | 01:57:21 | 00:00:00 | |
| DL1XH1-15 | 2026-09-03 12:28:59 | 52.46040 | 11.30335 | 110° | 33km/h | 30092m | 5.6m/s | -43°C | 2.1% | 12.5hPa | 2.6V | 03:24:28 | 01:57:18 | 00:00:00 | |
| HSKMA3-T | 2026-09-03 12:28:55 | 52.46042 | 11.30323 | 109° | 29km/h | 30086m | 6.6m/s | -43.1°C | 0% | 12.6hPa | 2.7V | 03:25:19 | 01:57:17 | 00:00:00 | |
| AA1-15 | 2026-09-03 12:28:54 | 52.46044 | 11.30312 | 109° | 24km/h | 30079m | 6.7m/s | -43°C | 0% | 12.6hPa | 2.7V | 03:25:19 | 01:57:16 | 00:00:00 | |
| DM0DOS-11 | 2026-09-03 12:28:54 | 52.46047 | 11.30289 | 90° | 13km/h | 30054m | 6.9m/s | -43.1°C | 2.1% | 12.6hPa | 2.7V | 03:24:34 | 01:57:12 | 00:00:00 | |
| DJ8HS-15 | 2026-09-03 12:28:54 | 52.46044 | 11.30312 | 109° | 20km/h | 30079m | 6.7m/s | -42.9°C | 2.1% | 12.5hPa | 2.7V | 00:00:00 | 01:57:16 | 00:00:00 | |
| SP3BTT-10 | 2026-09-03 12:28:53 | 52.46046 | 11.30304 | 106° | 13km/h | 30073m | 6.1m/s | -43.0°C | 2.1% | 12.5hPa | 2.7V | 00:00:00 | 00:00:00 | 00:00:00 | |
| DL1NUX | 2026-09-03 12:28:52 | 52.46047 | 11.30283 | 95° | 16km/h | 30047m | 6.4m/s | -43.1°C | 2.1% | 12.6hPa | 2.7V | 03:24:35 | 01:57:11 | 00:00:00 | |
| DL1XH-west | 2026-09-03 12:28:48 | 52.46048 | 11.30276 | 106° | 18km/h | 30041m | 5.6m/s | -43.1°C | 0% | 12.6hPa | 2.7V | 03:25:19 | 01:57:10 | 00:00:00 | |
| AM1SDL-15 | 2026-09-03 12:28:48 | 52.46048 | 11.30276 | 106° | 24km/h | 30041m | 5.6m/s | -43.1°C | 2.1% | 12.6hPa | 2.7V | 00:00:00 | 01:57:10 | 00:00:00 | |
| DL1XH1-15 | 2026-09-03 12:28:47 | 52.46053 | 11.30262 | 130° | 20km/h | 30028m | 7.4m/s | -43.1°C | 2.1% | 12.7hPa | 2.6V | 03:24:38 | 01:57:08 | 00:00:00 | |
| TFSTFS | 2026-09-03 12:28:47 | 52.46050 | 11.30268 | 119° | 20km/h | 30036m | 6.3m/s | -43.1°C | 0.2% | 12.7hPa | 2.6V | 03:25:00 | 00:00:00 | 00:00:00 | |
| DL1XH-15 | 2026-09-03 12:28:46 | 52.46073 | 11.30221 | 108° | 29km/h | 29997m | 7m/s | -43.1°C | 2.1% | 12.7hPa | 2.6V | 03:24:43 | 01:57:03 | 00:00:00 | |
| HSKMA3-T | 2026-09-03 12:28:45 | 52.46057 | 11.30256 | 141° | 22km/h | 30021m | 6.3m/s | -43.1°C | 0% | 12.7hPa | 2.7V | 03:25:19 | 01:57:07 | 00:00:00 | |
| AA1-15 | 2026-09-03 12:28:43 | 52.46066 | 11.30242 | 133° | 27km/h | 30010m | 5.3m/s | -43.2°C | 0% | 12.7hPa | 2.7V | 03:25:19 | 01:57:05 | 00:00:00 | |
| DL1NUX | 2026-09-03 12:28:42 | 52.46075 | 11.30198 | 87° | 27km/h | 29986m | 4.8m/s | -43.2°C | 2.1% | 12.7hPa | 2.7V | 03:24:45 | 01:57:01 | 00:00:00 | |
| MECKS9 | 2026-09-03 12:28:41 | 52.46070 | 11.30232 | 123° | 29km/h | 30004m | 6.6m/s | -43.2°C | 0.2% | 12.7hPa | 2.6V | 00:00:00 | 00:00:00 | 00:00:00 | |
| DL1XH1-15 | 2026-09-03 12:28:39 | 52.46073 | 11.30175 | 76° | 9km/h | 29966m | 6.5m/s | -43.2°C | 2.1% | 12.8hPa | 2.6V | 03:24:48 | 01:56:58 | 00:00:00 | |
| DL1XH-west | 2026-09-03 12:28:37 | 52.46074 | 11.30180 | 78° | 16km/h | 29973m | 7.1m/s | -43.4°C | 0% | 12.8hPa | 2.6V | 03:25:19 | 01:56:59 | 00:00:00 | |
| DD8BA-10 | 2026-09-03 12:28:37 | 52.46073 | 11.30180 | 78° | 22km/h | 29974m | 7.0m/s | -43.3°C | 2.2% | 12.7hPa | 2.6V | 00:00:00 | 00:00:00 | 00:00:00 | |
| DL1XH-15 | 2026-09-03 12:28:36 | 52.46080 | 11.30145 | 115° | 31km/h | 29935m | 6.5m/s | -43.4°C | 2.1% | 12.8hPa | 2.6V | 03:24:53 | 01:56:53 | 00:00:00 | |
| HSKMA3-T | 2026-09-03 12:28:35 | 52.46073 | 11.30171 | 101° | 7km/h | 29961m | 5.8m/s | -43.3°C | 0% | 12.8hPa | 2.7V | 03:25:19 | 01:56:57 | 00:00:00 | |
| DM0DOS-11 | 2026-09-03 12:28:34 | 52.46083 | 11.30133 | 116° | 35km/h | 29930m | 5.5m/s | -43.4°C | 2.1% | 12.8hPa | 2.7V | 03:24:54 | 01:56:52 | 00:00:00 | |
| AA1-15 | 2026-09-03 12:28:32 | 52.46077 | 11.30155 | 114° | 24km/h | 29942m | 6.9m/s | -43.3°C | 0% | 12.8hPa | 2.6V | 03:25:19 | 01:56:54 | 00:00:00 | |
| DO2SHX-10 | 2026-09-03 12:28:32 | 52.46077 | 11.30155 | 114° | 31km/h | 29943m | 6.8m/s | -43.2°C | 2.1% | 12.8hPa | 2.6V | 00:00:00 | 01:56:54 | 00:00:00 | |
| DJ2DS-15 | 2026-09-03 12:28:30 | 52.46088 | 11.30120 | 120° | 35km/h | 29924m | 6.4m/s | -43.2°C | 0.2% | 12.9hPa | 2.6V | 00:00:00 | 00:00:00 | 00:00:00 | |
| 13BRC | 2026-09-03 12:28:29 | 52.46088 | 11.30120 | 122° | 35km/h | 29924m | 6.4m/s | -43.2°C | 0.2% | 12.9hPa | 2.6V | 03:25:00 | 00:00:00 | 00:00:00 | |
| S3001 | 2026-09-03 12:28:28 | 52.46092 | 11.30108 | 124° | 31km/h | 29917m | 6.7m/s | -43.3°C | 0.3% | 12.9hPa | 2.6V | 00:00:00 | 00:00:00 | 00:00:00 | |
| DL1XH1-15 | 2026-09-03 12:28:27 | 52.46099 | 11.30091 | 114° | 20km/h | 29905m | 5.2m/s | -43.3°C | 2.1% | 12.9hPa | 2.6V | 03:24:58 | 01:56:48 | 00:00:00 | |
| DL1XH-west | 2026-09-03 12:28:27 | 52.46096 | 11.30099 | 124° | 26km/h | 29911m | 5.7m/s | -43.3°C | 0% | 12.9hPa | 2.6V | 03:25:19 | 01:56:49 | 00:00:00 | |
| DD8BA-10 | 2026-09-03 12:28:27 | 52.46096 | 11.30099 | 124° | 15km/h | 29911m | 5.7m/s | -43.3°C | 2.1% | 12.8hPa | 2.6V | 00:00:00 | 00:00:00 | 00:00:00 | |
| DL1XH-15 | 2026-09-03 12:28:26 | 52.46091 | 11.30066 | 14° | 13km/h | 29873m | 6.8m/s | -43.2°C | 2.1% | 12.9hPa | 2.6V | 03:25:03 | 01:56:43 | 00:00:00 | |
| HSKMA3-T | 2026-09-03 12:28:24 | 52.46100 | 11.30077 | 68° | 15km/h | 29892m | 7.6m/s | -43.3°C | 0% | 12.9hPa | 2.7V | 03:25:19 | 01:56:46 | 00:00:00 | |
| DL1NUX | 2026-09-03 12:28:24 | 52.46088 | 11.30065 | 18° | 2km/h | 29860m | 5.2m/s | -43.2°C | 2.1% | 13hPa | 2.7V | 03:25:05 | 01:56:41 | 00:00:00 | |
| AA1-15 | 2026-09-03 12:28:22 | 52.46095 | 11.30068 | 28° | 15km/h | 29879m | 5.7m/s | -43.4°C | 0% | 12.9hPa | 2.6V | 03:25:19 | 01:56:44 | 00:00:00 | |
| DM0DOS-11 | 2026-09-03 12:28:21 | 52.46089 | 11.30065 | 1° | 7km/h | 29866m | 6.6m/s | -43.2°C | 2.1% | 13hPa | 2.7V | 03:25:04 | 01:56:42 | 00:00:00 | |
| DL1XH-west | 2026-09-03 12:28:17 | 52.46090 | 11.30061 | 126° | 13km/h | 29849m | 6.6m/s | -43.1°C | 0% | 13hPa | 2.6V | 03:25:19 | 01:56:39 | 00:00:00 | |
| DD8BA-10 | 2026-09-03 12:28:17 | 52.46090 | 11.30061 | 126° | 20km/h | 29850m | 6.6m/s | -43.1°C | 2.1% | 12.9hPa | 2.6V | 03:25:00 | 00:00:00 | 00:00:00 | |
| DL1XH-15 | 2026-09-03 12:28:16 | 52.46106 | 11.30006 | 122° | 18km/h | 29809m | 6.2m/s | -43.1°C | 2.2% | 13.1hPa | 2.6V | 03:25:13 | 01:56:33 | 00:00:00 | |
| DM0DOS-11 | 2026-09-03 12:28:14 | 52.46108 | 11.30001 | 116° | 11km/h | 29803m | 5.9m/s | -43.1°C | 2.1% | 13.1hPa | 2.7V | 03:25:14 | 01:56:32 | 00:00:00 | |
| HSKMA3-T | 2026-09-03 12:28:13 | 52.46101 | 11.30023 | 115° | 29km/h | 29822m | 6.2m/s | -43.2°C | 0% | 13.1hPa | 2.7V | 03:25:19 | 01:56:35 | 00:00:00 | |
| DO3MHA-11 | 2026-09-03 12:28:13 | 52.46101 | 11.30023 | 116° | 15km/h | 29823m | 6.2m/s | -43.1°C | 2.1% | 13.0hPa | 2.7V | 00:00:00 | 01:56:35 | 00:00:00 | |
| DL1NUX | 2026-09-03 12:28:12 | 52.46109 | 11.29997 | 98° | 9km/h | 29797m | 6.7m/s | -43.2°C | 2.1% | 13.1hPa | 2.7V | 03:25:15 | 01:56:31 | 00:00:00 | |
| AA1-15 | 2026-09-03 12:28:12 | 52.46106 | 11.30006 | 123° | 18km/h | 29809m | 6.2m/s | -43.1°C | 0% | 13.1hPa | 2.6V | 03:25:19 | 01:56:33 | 00:00:00 | |
| DO2SHX-10 | 2026-09-03 12:28:11 | 52.46106 | 11.30006 | 123° | 13km/h | 29809m | 6.2m/s | -43.1°C | 2.2% | 13.1hPa | 2.6V | 00:00:00 | 01:56:33 | 00:00:00 | |
| DF7ER-10 | 2026-09-03 12:28:10 | 52.46106 | 11.30006 | 124° | 18km/h | 29809m | 6.2m/s | -43.1°C | 0.3% | 13.1hPa | 2.6V | 03:25:00 | 00:00:00 | 00:00:00 | |
| DB0NH | 2026-09-03 12:28:09 | 52.46109 | 11.29997 | 99° | 11km/h | 29797m | 6.6m/s | -43.1°C | 2.1% | 13.1hPa | 2.6V | 00:00:00 | 01:56:31 | 00:00:00 | |
| 13BRC | 2026-09-03 12:28:08 | 52.46108 | 11.29993 | 75° | 9km/h | 29791m | 7.0m/s | -43.2°C | 0.3% | 13.1hPa | 2.6V | 03:25:00 | 00:00:00 | 00:00:00 | |
| DL1XH1-15 | 2026-09-03 12:28:07 | 52.46107 | 11.29986 | 67° | 9km/h | 29778m | 5.1m/s | -43.1°C | 2.1% | 13.1hPa | 2.6V | 03:25:18 | 01:56:28 | 00:00:00 | |
| DL1XH-west | 2026-09-03 12:28:06 | 52.46107 | 11.29986 | 68° | 9km/h | 29778m | 5.1m/s | -43.1°C | 0% | 13.1hPa | 2.6V | 03:25:19 | 01:56:28 | 00:00:00 | |
| DO2SHX-10 | 2026-09-03 12:28:05 | 52.46106 | 11.29982 | 86° | 7km/h | 29773m | 6.3m/s | -43.2°C | 2.1% | 13.1hPa | 2.7V | 03:25:00 | 01:56:27 | 00:00:00 | |
| DL1NUX | 2026-09-03 12:28:04 | 52.46118 | 11.29963 | 114° | 20km/h | 29733m | 6.2m/s | -43.1°C | 2.1% | 13.2hPa | 2.7V | 03:25:25 | 01:56:21 | 00:00:00 | |
| HSKMA3-T | 2026-09-03 12:28:03 | 52.46113 | 11.29975 | 142° | 15km/h | 29747m | 6.3m/s | -43°C | 0% | 13.2hPa | 2.6V | 03:26:10 | 01:56:23 | 00:00:00 | |
| DL1XH-15 | 2026-09-03 12:28:02 | 52.46116 | 11.29970 | 126° | 18km/h | 29740m | 7.8m/s | -43°C | 2.1% | 13.2hPa | 2.7V | 03:25:24 | 01:56:22 | 00:00:00 | |
| SONDE2-11 | 2026-09-03 12:28:02 | 52.46113 | 11.29975 | 141° | 15km/h | 29747m | 6.3m/s | -43.0°C | 0.2% | 13.2hPa | 2.6V | 00:00:00 | 00:00:00 | 00:00:00 | |
| DF7ER-10 | 2026-09-03 12:28:01 | 52.46113 | 11.29975 | 143° | 15km/h | 29748m | 6.3m/s | -43.0°C | 0.3% | 13.2hPa | 2.6V | 03:26:00 | 00:00:00 | 00:00:00 | |
| AA1-15 | 2026-09-03 12:28:01 | 52.46116 | 11.29970 | 127° | 18km/h | 29740m | 7.8m/s | -43°C | 0% | 13.2hPa | 2.7V | 03:26:10 | 01:56:22 | 00:00:00 | |
| DB0UT-7 | 2026-09-03 12:28:00 | 52.46116 | 11.29970 | 127° | 11km/h | 29741m | 7.7m/s | -43.0°C | 2.1% | 13.2hPa | 2.6V | 00:00:00 | 00:00:00 | 00:00:00 | |
| DL1XH1-15 | 2026-09-03 12:27:59 | 52.46123 | 11.29944 | 120° | 11km/h | 29716m | 7m/s | -43.1°C | 2.1% | 13.2hPa | 2.6V | 03:25:28 | 01:56:18 | 00:00:00 | |
| DL1XH-west | 2026-09-03 12:27:56 | 52.46123 | 11.29944 | 120° | 11km/h | 29716m | 7m/s | -43.1°C | 0% | 13.2hPa | 2.6V | 03:26:10 | 01:56:18 | 00:00:00 | |
| DO2SHX-10 | 2026-09-03 12:27:56 | 52.46123 | 11.29943 | 121° | 7km/h | 29716m | 7.0m/s | -43.1°C | 2.1% | 13.2hPa | 2.7V | 00:00:00 | 01:56:18 | 00:00:00 | |
| DM0DOS-11 | 2026-09-03 12:27:54 | 52.46130 | 11.29946 | 126° | 4km/h | 29679m | 6.4m/s | -43.2°C | 2.1% | 13.3hPa | 2.7V | 03:25:34 | 01:56:12 | 00:00:00 | |
| DJ8HS-15 | 2026-09-03 12:27:54 | 52.46126 | 11.29942 | 215° | 11km/h | 29703m | 5.6m/s | -43.1°C | 2.1% | 13.2hPa | 2.7V | 03:25:00 | 01:56:16 | 00:00:00 | |
| DO2SHX-10 | 2026-09-03 12:27:53 | 52.46127 | 11.29943 | 230° | 5km/h | 29698m | 5.6m/s | -43.1°C | 2.1% | 13.2hPa | 2.7V | 03:25:00 | 01:56:15 | 00:00:00 | |
| DL1NUX | 2026-09-03 12:27:52 | 52.46130 | 11.29944 | 117° | 5km/h | 29673m | 5.7m/s | -43.3°C | 2.1% | 13.3hPa | 2.7V | 03:25:35 | 01:56:11 | 00:00:00 | |
| HSKMA3-T | 2026-09-03 12:27:51 | 52.46129 | 11.29946 | 189° | 4km/h | 29685m | 6.4m/s | -43.2°C | 0% | 13.3hPa | 2.6V | 03:26:10 | 01:56:13 | 00:00:00 | |
| AA1-15 | 2026-09-03 12:27:50 | 52.46130 | 11.29944 | 117° | 5km/h | 29673m | 5.7m/s | -43.3°C | 0% | 13.3hPa | 2.7V | 03:26:10 | 01:56:11 | 00:00:00 | |
| DF7ER-10 | 2026-09-03 12:27:49 | 52.46130 | 11.29946 | 128° | 4km/h | 29679m | 6.4m/s | -43.2°C | 0.3% | 13.4hPa | 2.6V | 03:26:00 | 00:00:00 | 00:00:00 | |
| GOEST3-10 | 2026-09-03 12:27:48 | 52.46131 | 11.29942 | 128° | 9km/h | 29667m | 5.8m/s | -43.2°C | 2.1% | 13.3hPa | 2.6V | 03:25:00 | 00:00:00 | 00:00:00 | |
| DO3MHA-11 | 2026-09-03 12:27:47 | 52.46132 | 11.29942 | 172° | 15km/h | 29661m | 7.1m/s | -43.2°C | 2.1% | 13.4hPa | 2.6V | 00:00:00 | 01:56:09 | 00:00:00 | |
| DF8AY-15 | 2026-09-03 12:27:46 | 52.46134 | 11.29942 | 188° | 15km/h | 29654m | 6.3m/s | -43.2°C | 2.1% | 13.3hPa | 2.7V | 00:00:00 | 01:56:08 | 00:00:00 | |
| DL1XH-west | 2026-09-03 12:27:46 | 52.46134 | 11.29942 | 188° | 7km/h | 29654m | 6.3m/s | -43.2°C | 0% | 13.4hPa | 2.6V | 03:26:10 | 01:56:08 | 00:00:00 | |
| AM1SDL-15 | 2026-09-03 12:27:45 | 52.46136 | 11.29942 | 183° | 13km/h | 29649m | 5.4m/s | -43.3°C | 2.1% | 13.3hPa | 2.7V | 00:00:00 | 01:56:07 | 00:00:00 | |
| DL1NUX | 2026-09-03 12:27:44 | 52.46161 | 11.29929 | 176° | 16km/h | 29610m | 7.2m/s | -43.3°C | 2.1% | 13.5hPa | 2.7V | 03:25:45 | 01:56:01 | 00:00:00 | |
| DO2SHX-10 | 2026-09-03 12:27:44 | 52.46139 | 11.29942 | 171° | 18km/h | 29643m | 6.1m/s | -43.2°C | 2.1% | 13.4hPa | 2.7V | 00:00:00 | 01:56:06 | 00:00:00 | |
| GOEST3-10 | 2026-09-03 12:27:43 | 52.46143 | 11.29940 | 162° | 18km/h | 29636m | 7.6m/s | -43.2°C | 2.1% | 13.4hPa | 2.7V | 00:00:00 | 01:56:05 | 00:00:00 | |
| DM0DOS-11 | 2026-09-03 12:27:42 | 52.46157 | 11.29930 | 162° | 18km/h | 29617m | 5.5m/s | -43.2°C | 2.1% | 13.5hPa | 2.7V | 03:25:44 | 01:56:02 | 00:00:00 | |
| HSKMA3-T | 2026-09-03 12:27:41 | 52.46152 | 11.29933 | 154° | 20km/h | 29622m | 5.7m/s | -43.3°C | 0% | 13.4hPa | 2.6V | 03:26:10 | 01:56:03 | 00:00:00 | |
| DB0DAN | 2026-09-03 12:27:40 | 52.46157 | 11.29930 | 163° | 18km/h | 29617m | 5.5m/s | -43.2°C | 0.3% | 13.46hPa | 2.7V | 00:00:00 | 00:00:00 | 00:00:00 | |
| DL1XH1-15 | 2026-09-03 12:27:39 | 52.46169 | 11.29935 | 232° | 9km/h | 29591m | 5.7m/s | -43.2°C | 2.1% | 13.5hPa | 2.6V | 03:25:48 | 01:55:58 | 00:00:00 | |
| AA1-15 | 2026-09-03 12:27:39 | 52.46165 | 11.29929 | 198° | 13km/h | 29603m | 7.1m/s | -43.3°C | 0% | 13.5hPa | 2.7V | 03:26:10 | 01:56:00 | 00:00:00 | |
| DL1XH-west | 2026-09-03 12:27:35 | 52.46170 | 11.29937 | 214° | 4km/h | 29585m | 6.7m/s | -43.2°C | 0% | 13.5hPa | 2.7V | 03:26:10 | 01:55:57 | 00:00:00 | |
| DO3MHA-11 | 2026-09-03 12:27:35 | 52.46170 | 11.29936 | 214° | 13km/h | 29585m | 6.7m/s | -43.2°C | 2.1% | 13.5hPa | 2.7V | 00:00:00 | 01:55:57 | 00:00:00 | |
| DJ8HS-15 | 2026-09-03 12:27:34 | 52.46171 | 11.29936 | 111° | 16km/h | 29578m | 7.1m/s | -43.3°C | 2.1% | 13.5hPa | 2.7V | 00:00:00 | 01:55:56 | 00:00:00 | |
| DL1NUX | 2026-09-03 12:27:33 | 52.46175 | 11.29915 | 141° | 13km/h | 29546m | 5.8m/s | -43.1°C | 2.1% | 13.6hPa | 2.7V | 03:25:55 | 01:55:51 | 00:00:00 | |
| HSKMA3-T | 2026-09-03 12:27:31 | 52.46173 | 11.29919 | 123° | 11km/h | 29552m | 6.9m/s | -43.3°C | 0% | 13.6hPa | 2.7V | 03:26:10 | 01:55:52 | 00:00:00 | |
| AA1-15 | 2026-09-03 12:27:28 | 52.46178 | 11.29911 | 149° | 16km/h | 29541m | 5.3m/s | -43.2°C | 0% | 13.6hPa | 2.7V | 03:26:10 | 01:55:50 | 00:00:00 | |
| GOEST3-10 | 2026-09-03 12:27:28 | 52.46178 | 11.29911 | 150° | 22km/h | 29541m | 5.3m/s | -43.2°C | 2.1% | 13.5hPa | 2.6V | 03:25:00 | 00:00:00 | 00:00:00 | |
| DL1XH1-15 | 2026-09-03 12:27:27 | 52.46187 | 11.29903 | 152° | 26km/h | 29527m | 6.8m/s | -43.2°C | 2.1% | 13.6hPa | 2.6V | 03:25:58 | 01:55:48 | 00:00:00 | |
| DD8BA-10 | 2026-09-03 12:27:27 | 52.46182 | 11.29907 | 150° | 18km/h | 29535m | 7.1m/s | -43.2°C | 2.1% | 13.6hPa | 2.7V | 00:00:00 | 00:00:00 | 00:00:00 | |
| DB0DAN | 2026-09-03 12:27:25 | 52.46193 | 11.29898 | 157° | 24km/h | 29521m | 5.7m/s | -43.2°C | 0.3% | 13.66hPa | 2.7V | 00:00:00 | 00:00:00 | 00:00:00 | |
| DL1XH-west | 2026-09-03 12:27:25 | 52.46193 | 11.29898 | 157° | 26km/h | 29521m | 5.7m/s | -43.2°C | 0% | 13.7hPa | 2.7V | 03:26:10 | 01:55:47 | 00:00:00 | |
| DO3MHA-11 | 2026-09-03 12:27:25 | 52.46193 | 11.29898 | 158° | 16km/h | 29521m | 5.7m/s | -43.1°C | 2.1% | 13.6hPa | 2.7V | 00:00:00 | 01:55:47 | 00:00:00 | |
| MECKS9 | 2026-09-03 12:27:24 | 52.46199 | 11.29895 | 169° | 24km/h | 29515m | 6.0m/s | -43.2°C | 0.3% | 13.7hPa | 2.7V | 03:26:00 | 00:00:00 | 00:00:00 | |
| DO2SHX-10 | 2026-09-03 12:27:23 | 52.46205 | 11.29894 | 181° | 18km/h | 29509m | 7.4m/s | -43.2°C | 2.1% | 13.6hPa | 2.7V | 00:00:00 | 01:55:45 | 00:00:00 | |
| DL1NUX | 2026-09-03 12:27:22 | 52.46219 | 11.29898 | 145° | 7km/h | 29485m | 7.3m/s | -43.3°C | 2.1% | 13.7hPa | 2.7V | 03:26:05 | 01:55:41 | 00:00:00 | |
| HSKMA3-T | 2026-09-03 12:27:19 | 52.46219 | 11.29898 | 145° | 7km/h | 29485m | 7.3m/s | -43.3°C | 0% | 13.7hPa | 2.7V | 03:26:10 | 01:55:41 | 00:00:00 | |
| DL1XH1-15 | 2026-09-03 12:27:19 | 52.46222 | 11.29883 | 109° | 18km/h | 29466m | 4.9m/s | -43.1°C | 2.1% | 13.8hPa | 2.6V | 03:26:08 | 01:55:38 | 00:00:00 | |
| AA1-15 | 2026-09-03 12:27:18 | 52.46220 | 11.29895 | 110° | 11km/h | 29478m | 6.7m/s | -43.4°C | 0% | 13.7hPa | 2.7V | 03:26:10 | 01:55:40 | 00:00:00 | |
| DL1XH-west | 2026-09-03 12:27:15 | 52.46227 | 11.29870 | 144° | 18km/h | 29455m | 6.7m/s | -43.3°C | 0% | 13.8hPa | 2.7V | 03:26:10 | 01:55:36 | 00:00:00 | |
| DO2SHX-10 | 2026-09-03 12:27:14 | 52.46227 | 11.29870 | 144° | 20km/h | 29455m | 6.6m/s | -43.2°C | 2.1% | 13.7hPa | 2.7V | 00:00:00 | 01:55:36 | 00:00:00 | |
| GOEST3-10 | 2026-09-03 12:27:13 | 52.46232 | 11.29867 | 169° | 24km/h | 29448m | 6.8m/s | -43.2°C | 2.1% | 13.7hPa | 2.7V | 00:00:00 | 01:55:35 | 00:00:00 | |
| MECKS9 | 2026-09-03 12:27:12 | 52.46231 | 11.29867 | 170° | 20km/h | 29448m | 6.8m/s | -43.2°C | 0.2% | 13.8hPa | 2.7V | 00:00:00 | 00:00:00 | 00:00:00 | |
| DM0DOS-11 | 2026-09-03 12:27:11 | 52.46249 | 11.29868 | 181° | 24km/h | 29430m | 5.6m/s | -43°C | 2.1% | 13.8hPa | 2.7V | 03:26:14 | 01:55:32 | 00:00:00 | |
| HSKMA3-T | 2026-09-03 12:27:09 | 52.46255 | 11.29868 | 172° | 22km/h | 29424m | 6.4m/s | -43.1°C | 0% | 13.9hPa | 2.7V | 03:27:01 | 01:55:31 | 00:00:00 | |
| AA1-15 | 2026-09-03 12:27:08 | 52.46264 | 11.29862 | 143° | 15km/h | 29412m | 6.2m/s | -42.9°C | 0% | 13.9hPa | 2.6V | 03:27:01 | 01:55:29 | 00:00:00 | |
| DL1XH1-15 | 2026-09-03 12:27:08 | 52.46267 | 11.29858 | 130° | 13km/h | 29405m | 7m/s | -42.9°C | 2% | 13.9hPa | 2.6V | 03:26:18 | 01:55:28 | 00:00:00 | |
| DD8BA-10 | 2026-09-03 12:27:07 | 52.46264 | 11.29862 | 144° | 26km/h | 29412m | 6.2m/s | -42.9°C | 2.1% | 13.8hPa | 2.7V | 00:00:00 | 00:00:00 | 00:00:00 | |
| EDDB2-11 | 2026-09-03 12:27:06 | 52.46268 | 11.29854 | 120° | 11km/h | 29398m | 6.6m/s | -43.0°C | 0.2% | 13.9hPa | 2.7V | 00:00:00 | 00:00:00 | 00:00:00 | |
| 13BRC | 2026-09-03 12:27:05 | 52.46268 | 11.29854 | 122° | 11km/h | 29399m | 6.6m/s | -43.0°C | 0.2% | 13.9hPa | 2.7V | 03:27:00 | 00:00:00 | 00:00:00 | |
| DM0DOS-11 | 2026-09-03 12:27:04 | 52.46282 | 11.29814 | 130° | 35km/h | 29368m | 5.8m/s | -43°C | 2.1% | 14hPa | 2.7V | 03:26:24 | 01:55:22 | 00:00:00 | |
| DL1XH-west | 2026-09-03 12:27:04 | 52.46270 | 11.29850 | 114° | 15km/h | 29392m | 5.2m/s | -43.1°C | 0% | 13.9hPa | 2.7V | 03:27:01 | 01:55:26 | 00:00:00 | |
| HSKMA3-T | 2026-09-03 12:26:59 | 52.46295 | 11.29795 | 150° | 33km/h | 29357m | 6.3m/s | -43.2°C | 0% | 14hPa | 2.7V | 03:27:01 | 01:55:20 | 00:00:00 | |
| DL1XH1-15 | 2026-09-03 12:26:59 | 52.46309 | 11.29788 | 170° | 24km/h | 29344m | 5.5m/s | -43.1°C | 2.1% | 14hPa | 2.6V | 03:26:28 | 01:55:18 | 00:00:00 | |
| AA1-15 | 2026-09-03 12:26:57 | 52.46308 | 11.29788 | 171° | 24km/h | 29344m | 5.5m/s | -43.1°C | 0% | 14hPa | 2.6V | 03:27:01 | 01:55:18 | 00:00:00 | |
| DL1XH-west | 2026-09-03 12:26:53 | 52.46323 | 11.29781 | 144° | 18km/h | 29327m | 6.6m/s | -43°C | 0% | 14.1hPa | 2.7V | 03:27:01 | 01:55:15 | 00:00:00 | |
| DO2SHX-10 | 2026-09-03 12:26:53 | 52.46323 | 11.29781 | 145° | 18km/h | 29327m | 6.5m/s | -43.0°C | 2.1% | 14.0hPa | 2.7V | 03:26:00 | 01:55:15 | 00:00:00 | |
| DM0DOS-11 | 2026-09-03 12:26:52 | 52.46331 | 11.29762 | 121° | 20km/h | 29308m | 6.6m/s | -43°C | 2% | 14.1hPa | 2.7V | 03:26:34 | 01:55:12 | 00:00:00 | |
| HSKMA3-T | 2026-09-03 12:26:48 | 52.46344 | 11.29742 | 144° | 31km/h | 29292m | 4.8m/s | -43.1°C | 0% | 14.1hPa | 2.6V | 03:27:01 | 01:55:09 | 00:00:00 | |
| DL1XH1-15 | 2026-09-03 12:26:47 | 52.46350 | 11.29734 | 144° | 35km/h | 29286m | 6.3m/s | -43.2°C | 2% | 14.2hPa | 2.6V | 03:26:38 | 01:55:08 | 00:00:00 | |
| AA1-15 | 2026-09-03 12:26:46 | 52.46350 | 11.29734 | 145° | 37km/h | 29286m | 6.3m/s | -43.2°C | 0% | 14.2hPa | 2.6V | 03:27:01 | 01:55:08 | 00:00:00 | |
| BUE01 | 2026-09-03 12:26:45 | 52.46367 | 11.29714 | 144° | 44km/h | 29273m | 5.9m/s | -43.2°C | 0.2% | 14.2hPa | 2.7V | 00:00:00 | 00:00:00 | 00:00:00 | |
| DL1XH-west | 2026-09-03 12:26:43 | 52.46376 | 11.29704 | 145° | 42km/h | 29268m | 4.7m/s | -43.3°C | 0% | 14.2hPa | 2.7V | 03:27:01 | 01:55:05 | 00:00:00 | |
| GOEST3-10 | 2026-09-03 12:26:43 | 52.46376 | 11.29704 | 146° | 26km/h | 29268m | 4.6m/s | -43.2°C | 2.1% | 14.1hPa | 2.6V | 00:00:00 | 01:55:05 | 00:00:00 | |
| DM0DOS-11 | 2026-09-03 12:26:41 | 52.46396 | 11.29685 | 152° | 16km/h | 29250m | 6.2m/s | -43.5°C | 2.1% | 14.2hPa | 2.6V | 03:26:44 | 01:55:02 | 00:00:00 | |
| DO2SHX-10 | 2026-09-03 12:26:41 | 52.46391 | 11.29689 | 155° | 18km/h | 29257m | 6.8m/s | -43.4°C | 2.1% | 14.2hPa | 2.7V | 03:26:00 | 01:55:03 | 00:00:00 | |
| DL1XH1-15 | 2026-09-03 12:26:40 | 52.46396 | 11.29666 | 71° | 24km/h | 29224m | 5.8m/s | -44.1°C | 2.2% | 14.3hPa | 2.7V | 03:26:48 | 01:54:58 | 00:00:00 | |
| HSKMA3-T | 2026-09-03 12:26:37 | 52.46398 | 11.29674 | 67° | 16km/h | 29230m | 7.2m/s | -44°C | 0% | 14.2hPa | 2.7V | 03:27:01 | 01:54:59 | 00:00:00 | |
| AA1-15 | 2026-09-03 12:26:36 | 52.46394 | 11.29635 | 102° | 26km/h | 29207m | 6.5m/s | -44.2°C | 0% | 14.3hPa | 2.7V | 03:27:01 | 01:54:55 | 00:00:00 | |
| DO3MHA-11 | 2026-09-03 12:26:35 | 52.46393 | 11.29645 | 89° | 24km/h | 29214m | 5.3m/s | -44.0°C | 2.2% | 14.3hPa | 2.6V | 00:00:00 | 01:54:56 | 00:00:00 | |
| DL1NUX | 2026-09-03 12:26:34 | 52.46413 | 11.29601 | 144° | 35km/h | 29183m | 6.8m/s | -44.3°C | 2.3% | 14.3hPa | 2.6V | 03:26:55 | 01:54:51 | 00:00:00 | |
| DL1XH-west | 2026-09-03 12:26:34 | 52.46396 | 11.29626 | 121° | 26km/h | 29201m | 6m/s | -44.2°C | 0% | 14.3hPa | 2.7V | 03:27:01 | 01:54:54 | 00:00:00 | |
| DO2SHX-10 | 2026-09-03 12:26:32 | 52.46396 | 11.29626 | 121° | 29km/h | 29202m | 5.9m/s | -44.2°C | 2.2% | 14.3hPa | 2.6V | 00:00:00 | 01:54:54 | 00:00:00 | |
| DM0DOS-11 | 2026-09-03 12:26:31 | 52.46406 | 11.29609 | 141° | 33km/h | 29190m | 5.9m/s | -44.3°C | 2.2% | 14.3hPa | 2.6V | 03:26:54 | 01:54:52 | 00:00:00 | |
| HSKMA3-T | 2026-09-03 12:26:26 | 52.46431 | 11.29578 | 139° | 20km/h | 29167m | 5.5m/s | -44.5°C | 0% | 14.4hPa | 2.7V | 03:27:01 | 01:54:48 | 00:00:00 | |
| AA1-15 | 2026-09-03 12:26:24 | 52.46433 | 11.29568 | 40° | 13km/h | 29148m | 4.6m/s | -44.7°C | 0% | 14.4hPa | 2.7V | 03:27:01 | 01:54:45 | 00:00:00 | |
| S3001 | 2026-09-03 12:26:24 | 52.46433 | 11.29568 | 40° | 11km/h | 29149m | 4.6m/s | -44.7°C | 0.3% | 14.4hPa | 2.6V | 00:00:00 | 00:00:00 | 00:00:00 | |
| DL1NUX | 2026-09-03 12:26:23 | 52.46424 | 11.29533 | 85° | 33km/h | 29126m | 4.4m/s | -44.7°C | 2.3% | 14.5hPa | 2.6V | 03:27:05 | 01:54:41 | 00:00:00 | |
| DO2SHX-10 | 2026-09-03 12:26:23 | 52.46433 | 11.29568 | 41° | 18km/h | 29149m | 4.5m/s | -44.6°C | 2.3% | 14.4hPa | 2.7V | 00:00:00 | 01:54:45 | 00:00:00 | |
| DM0DOS-11 | 2026-09-03 12:26:21 | 52.46425 | 11.29546 | 74° | 31km/h | 29131m | 5.8m/s | -44.6°C | 2.3% | 14.5hPa | 2.7V | 03:27:04 | 01:54:42 | 00:00:00 | |
| DL1XH-west | 2026-09-03 12:26:21 | 52.46428 | 11.29556 | 60° | 24km/h | 29137m | 7m/s | -44.6°C | 0% | 14.5hPa | 2.7V | 03:27:52 | 01:54:43 | 00:00:00 | |
| HSKMA3-T | 2026-09-03 12:26:16 | 52.46427 | 11.29495 | 116° | 27km/h | 29108m | 7.1m/s | -44.8°C | 0% | 14.5hPa | 2.7V | 03:27:52 | 01:54:38 | 00:00:00 | |
| DD8BA-10 | 2026-09-03 12:26:15 | 52.46431 | 11.29486 | 128° | 26km/h | 29102m | 6.6m/s | -44.8°C | 2.3% | 14.5hPa | 2.7V | 03:27:00 | 00:00:00 | 00:00:00 | |
| BUE01 | 2026-09-03 12:26:14 | 52.46438 | 11.29473 | 136° | 18km/h | 29091m | 4.9m/s | -44.9°C | 0.3% | 14.6hPa | 2.7V | 00:00:00 | 00:00:00 | 00:00:00 | |
| DL1NUX | 2026-09-03 12:26:13 | 52.46446 | 11.29440 | 84° | 29km/h | 29068m | 6.1m/s | -44.9°C | 2.2% | 14.6hPa | 2.7V | 03:27:15 | 01:54:31 | 00:00:00 | |
| AA1-15 | 2026-09-03 12:26:13 | 52.46442 | 11.29467 | 127° | 18km/h | 29085m | 5.3m/s | -44.9°C | 0% | 14.6hPa | 2.6V | 03:27:52 | 01:54:34 | 00:00:00 | |
| GOEST3-10 | 2026-09-03 12:26:12 | 52.46442 | 11.29467 | 128° | 26km/h | 29086m | 5.3m/s | -44.8°C | 2.3% | 14.5hPa | 2.7V | 00:00:00 | 01:54:34 | 00:00:00 | |
| DB0DAN | 2026-09-03 12:26:10 | 52.46446 | 11.29451 | 97° | 24km/h | 29074m | 6.1m/s | -44.9°C | 0.3% | 14.61hPa | 2.7V | 00:00:00 | 00:00:00 | 00:00:00 | |
| DL1XH-west | 2026-09-03 12:26:10 | 52.46446 | 11.29451 | 97° | 26km/h | 29074m | 6.1m/s | -44.9°C | 0% | 14.6hPa | 2.7V | 03:27:52 | 01:54:32 | 00:00:00 | |
| DB0NH | 2026-09-03 12:26:09 | 52.46446 | 11.29440 | 85° | 31km/h | 29069m | 6.1m/s | -44.8°C | 2.2% | 14.6hPa | 2.7V | 00:00:00 | 01:54:31 | 00:00:00 | |
| DO2SHX-10 | 2026-09-03 12:26:08 | 52.46444 | 11.29427 | 72° | 33km/h | 29063m | 5.2m/s | -44.9°C | 2.2% | 14.6hPa | 2.7V | 00:00:00 | 01:54:30 | 00:00:00 | |
| DL1XH1-15 | 2026-09-03 12:26:07 | 52.46436 | 11.29403 | 52° | 33km/h | 29050m | 7.3m/s | -45.1°C | 2.3% | 14.7hPa | 2.7V | 03:27:18 | 01:54:28 | 00:00:00 | |
| HSKMA3-T | 2026-09-03 12:26:05 | 52.46431 | 11.29393 | 49° | 31km/h | 29044m | 5.1m/s | -45.2°C | 0% | 14.7hPa | 2.7V | 03:27:52 | 01:54:27 | 00:00:00 | |
| AA1-15 | 2026-09-03 12:26:02 | 52.46424 | 11.29351 | 106° | 29km/h | 29021m | 6.6m/s | -45.4°C | 0% | 14.7hPa | 2.7V | 03:27:52 | 01:54:23 | 00:00:00 | |
| DO2SHX-10 | 2026-09-03 12:26:02 | 52.46423 | 11.29362 | 89° | 29km/h | 29029m | 7.1m/s | -45.3°C | 2.3% | 14.7hPa | 2.6V | 00:00:00 | 01:54:24 | 00:00:00 | |
| DM0DOS-11 | 2026-09-03 12:26:01 | 52.46426 | 11.29340 | 118° | 31km/h | 29015m | 6.2m/s | -45.4°C | 2.3% | 14.7hPa | 2.7V | 03:27:24 | 01:54:22 | 00:00:00 | |
| DL1XH1-15 | 2026-09-03 12:26:01 | 52.46439 | 11.29294 | 96° | 33km/h | 28993m | 5.2m/s | -45.5°C | 2.3% | 14.8hPa | 2.6V | 03:27:28 | 01:54:18 | 00:00:00 | |
| DL1XH-west | 2026-09-03 12:26:00 | 52.46427 | 11.29340 | 119° | 31km/h | 29015m | 6.2m/s | -45.4°C | 0% | 14.7hPa | 2.7V | 03:27:52 | 01:54:22 | 00:00:00 | |
| HSKMA3-T | 2026-09-03 12:25:54 | 52.46437 | 11.29264 | 75° | 42km/h | 28981m | 5.9m/s | -45.8°C | 0% | 14.8hPa | 2.7V | 03:27:52 | 01:54:16 | 00:00:00 | |
| AA1-15 | 2026-09-03 12:25:52 | 52.46428 | 11.29231 | 54° | 46km/h | 28970m | 5.5m/s | -45.9°C | 0% | 14.8hPa | 2.7V | 03:27:52 | 01:54:14 | 00:00:00 | |
| SP3BTT-10 | 2026-09-03 12:25:52 | 52.46428 | 11.29231 | 55° | 24km/h | 28971m | 5.4m/s | -45.9°C | 2.4% | 14.8hPa | 2.6V | 00:00:00 | 00:00:00 | 00:00:00 | |
| DM0DOS-11 | 2026-09-03 12:25:51 | 52.46413 | 11.29206 | 36° | 38km/h | 28957m | 5.8m/s | -45.7°C | 2.4% | 14.9hPa | 2.6V | 03:27:34 | 01:54:12 | 00:00:00 | |
| DL1XH-west | 2026-09-03 12:25:50 | 52.46406 | 11.29198 | 35° | 31km/h | 28952m | 4.7m/s | -45.8°C | 0% | 14.9hPa | 2.7V | 03:27:52 | 01:54:11 | 00:00:00 | |
| EDDB2-12 | 2026-09-03 12:25:49 | 52.46406 | 11.29198 | 35° | 29km/h | 28952m | 4.7m/s | -45.8°C | 0.3% | 14.9hPa | 2.6V | 00:00:00 | 00:00:00 | 00:00:00 | |
| DL1XH1-15 | 2026-09-03 12:25:48 | 52.46394 | 11.29174 | 75° | 26km/h | 28935m | 6.3m/s | -46°C | 2.4% | 14.9hPa | 2.6V | 03:27:38 | 01:54:08 | 00:00:00 | |
| HSKMA3-T | 2026-09-03 12:25:43 | 52.46393 | 11.29138 | 85° | 29km/h | 28919m | 5.9m/s | -46.2°C | 0% | 15hPa | 2.7V | 03:27:52 | 01:54:05 | 00:00:00 | |
| 13BRC | 2026-09-03 12:25:43 | 52.46392 | 11.29138 | 86° | 29km/h | 28919m | 5.9m/s | -46.2°C | 0.3% | 15.0hPa | 2.6V | 03:27:00 | 00:00:00 | 00:00:00 | |
| DM0DOS-11 | 2026-09-03 12:25:42 | 52.46384 | 11.29108 | 45° | 29km/h | 28901m | 5.5m/s | -46.2°C | 2.4% | 15hPa | 2.6V | 03:27:44 | 01:54:02 | 00:00:00 | |
| AA1-15 | 2026-09-03 12:25:42 | 52.46389 | 11.29117 | 58° | 27km/h | 28907m | 5.8m/s | -46.2°C | 0% | 15hPa | 2.7V | 03:27:52 | 01:54:03 | 00:00:00 | |
| DL1NUX | 2026-09-03 12:25:41 | 52.46378 | 11.29099 | 40° | 33km/h | 28896m | 5.8m/s | -46.3°C | 2.4% | 15hPa | 2.6V | 03:27:45 | 01:54:01 | 00:00:00 | |
| DB0DAN | 2026-09-03 12:25:40 | 52.46384 | 11.29108 | 46° | 27km/h | 28901m | 5.5m/s | -46.2°C | 0.3% | 14.99hPa | 2.6V | 00:00:00 | 00:00:00 | 00:00:00 | |
| DL1XH-west | 2026-09-03 12:25:40 | 52.46378 | 11.29099 | 40° | 33km/h | 28896m | 5.8m/s | -46.3°C | 0% | 15hPa | 2.6V | 03:27:52 | 01:54:01 | 00:00:00 | |
| DB0NH | 2026-09-03 12:25:39 | 52.46378 | 11.29099 | 41° | 18km/h | 28896m | 5.7m/s | -46.2°C | 2.4% | 14.9hPa | 2.6V | 00:00:00 | 01:54:01 | 00:00:00 | |
| DL1XH1-15 | 2026-09-03 12:25:38 | 52.46358 | 11.29070 | 42° | 33km/h | 28878m | 4.4m/s | -46.2°C | 2.4% | 15.1hPa | 2.7V | 03:27:48 | 01:53:58 | 00:00:00 | |
| HTAHTA | 2026-09-03 12:25:38 | 52.46365 | 11.29080 | 41° | 35km/h | 28883m | 5.8m/s | -46.3°C | 0.3% | 15.0hPa | 2.7V | 00:00:00 | 00:00:00 | 00:00:00 | |
| GOEST3-10 | 2026-09-03 12:25:37 | 52.46365 | 11.29080 | 42° | 27km/h | 28883m | 5.7m/s | -46.2°C | 2.4% | 15.0hPa | 2.7V | 00:00:00 | 00:00:00 | 00:00:00 | |
| DD8BA-10 | 2026-09-03 12:25:35 | 52.46353 | 11.29062 | 42° | 18km/h | 28874m | 4.1m/s | -46.2°C | 2.5% | 15.0hPa | 2.6V | 03:27:00 | 00:00:00 | 00:00:00 | |
| DL1NUX | 2026-09-03 12:25:34 | 52.46338 | 11.29036 | 79° | 16km/h | 28841m | 6.5m/s | -46.2°C | 2.5% | 15.1hPa | 2.6V | 03:27:55 | 01:53:51 | 00:00:00 | |
| HSKMA3-T | 2026-09-03 12:25:33 | 52.46344 | 11.29051 | 33° | 15km/h | 28862m | 6.6m/s | -46.1°C | 0% | 15.1hPa | 2.6V | 03:27:52 | 01:53:55 | 00:00:00 | |
| AA1-15 | 2026-09-03 12:25:31 | 52.46340 | 11.29046 | 58° | 7km/h | 28851m | 4.4m/s | -46.1°C | 0% | 15.1hPa | 2.7V | 03:28:43 | 01:53:53 | 00:00:00 | |
| DM0DOS-11 | 2026-09-03 12:25:31 | 52.46339 | 11.29042 | 76° | 11km/h | 28847m | 4.9m/s | -46.2°C | 2.4% | 15.1hPa | 2.7V | 03:27:54 | 01:53:52 | 00:00:00 | |
| DL1XH-west | 2026-09-03 12:25:29 | 52.46337 | 11.29028 | 75° | 24km/h | 28835m | 6m/s | -46.2°C | 0% | 15.1hPa | 2.6V | 03:28:43 | 01:53:50 | 00:00:00 | |
| DL1XH1-15 | 2026-09-03 12:25:27 | 52.46332 | 11.29008 | 59° | 27km/h | 28825m | 4.4m/s | -46.1°C | 2.5% | 15.2hPa | 2.7V | 03:27:58 | 01:53:48 | 00:00:00 | |
| GOEST3-10 | 2026-09-03 12:25:27 | 52.46335 | 11.29018 | 69° | 24km/h | 28830m | 4.3m/s | -46.0°C | 2.5% | 15.1hPa | 2.7V | 03:27:00 | 00:00:00 | 00:00:00 | |
| DB0DAN | 2026-09-03 12:25:25 | 52.46328 | 11.28999 | 47° | 24km/h | 28820m | 5.5m/s | -46.1°C | 0.3% | 15.17hPa | 2.7V | 00:00:00 | 00:00:00 | 00:00:00 | |
| DL1XH-15 | 2026-09-03 12:25:25 | 52.46310 | 11.28996 | 321° | 7km/h | 28791m | 5.5m/s | -45.6°C | 2.4% | 15.2hPa | 2.7V | 03:28:04 | 01:53:42 | 00:00:00 | |
| HSKMA3-T | 2026-09-03 12:25:22 | 52.46315 | 11.28991 | 343° | 15km/h | 28802m | 5.4m/s | -45.7°C | 0% | 15.2hPa | 2.6V | 03:28:43 | 01:53:44 | 00:00:00 | |
| GOEST3-10 | 2026-09-03 12:25:22 | 52.46315 | 11.28990 | 343° | 9km/h | 28802m | 5.4m/s | -45.7°C | 2.4% | 15.2hPa | 2.6V | 00:00:00 | 01:53:44 | 00:00:00 | |
| DL1NUX | 2026-09-03 12:25:21 | 52.46309 | 11.28997 | 8° | 4km/h | 28786m | 5.3m/s | -45.5°C | 2.3% | 15.3hPa | 2.7V | 03:28:05 | 01:53:41 | 00:00:00 | |
| AA1-15 | 2026-09-03 12:25:21 | 52.46312 | 11.28993 | 324° | 13km/h | 28797m | 5.1m/s | -45.7°C | 0% | 15.2hPa | 2.6V | 03:28:43 | 01:53:43 | 00:00:00 | |
| DL1XH-west | 2026-09-03 12:25:18 | 52.46308 | 11.28995 | 58° | 7km/h | 28781m | 5.3m/s | -45.5°C | 0% | 15.2hPa | 2.7V | 03:28:43 | 01:53:40 | 00:00:00 | |
| DO2SHX-10 | 2026-09-03 12:25:17 | 52.46306 | 11.28992 | 56° | 15km/h | 28776m | 6.0m/s | -45.5°C | 2.3% | 15.2hPa | 2.6V | 03:28:00 | 01:53:39 | 00:00:00 | |
| DD8BA-10 | 2026-09-03 12:25:15 | 52.46301 | 11.28983 | 42° | 11km/h | 28762m | 6.0m/s | -45.6°C | 2.3% | 15.2hPa | 2.7V | 00:00:00 | 00:00:00 | 00:00:00 | |
| DL1NUX | 2026-09-03 12:25:14 | 52.46289 | 11.28961 | 109° | 4km/h | 28728m | 4.9m/s | -45.5°C | 2.3% | 15.3hPa | 2.7V | 03:28:15 | 01:53:31 | 00:00:00 | |
| DJ8HS-15 | 2026-09-03 12:25:14 | 52.46298 | 11.28978 | 39° | 9km/h | 28757m | 5.3m/s | -45.6°C | 2.3% | 15.3hPa | 2.7V | 03:28:00 | 01:53:36 | 00:00:00 | |
| DF7ER-10 | 2026-09-03 12:25:12 | 52.46292 | 11.28970 | 49° | 15km/h | 28746m | 5.9m/s | -45.6°C | 0.3% | 15.4hPa | 2.7V | 03:28:00 | 00:00:00 | 00:00:00 | |
| DM0DOS-11 | 2026-09-03 12:25:11 | 52.46289 | 11.28963 | 83° | 7km/h | 28733m | 5.7m/s | -45.5°C | 2.3% | 15.4hPa | 2.7V | 03:28:14 | 01:53:32 | 00:00:00 | |
| AA1-15 | 2026-09-03 12:25:11 | 52.46290 | 11.28966 | 62° | 9km/h | 28740m | 6.4m/s | -45.5°C | 0% | 15.4hPa | 2.6V | 03:28:43 | 01:53:33 | 00:00:00 | |
| DB0DAN | 2026-09-03 12:25:10 | 52.46289 | 11.28963 | 84° | 5km/h | 28733m | 5.7m/s | -45.5°C | 0.3% | 15.4hPa | 2.7V | 00:00:00 | 00:00:00 | 00:00:00 | |
| DL1XH-west | 2026-09-03 12:25:08 | 52.46289 | 11.28961 | 333° | 7km/h | 28718m | 5.8m/s | -45.8°C | 0% | 15.4hPa | 2.7V | 03:28:43 | 01:53:29 | 00:00:00 | |
| HSKMA3-T | 2026-09-03 12:25:01 | 52.46267 | 11.28963 | 44° | 9km/h | 28683m | 6m/s | -45.7°C | 0% | 15.5hPa | 2.7V | 03:28:43 | 01:53:23 | 00:00:00 | |
| DL1NUX | 2026-09-03 12:25:01 | 52.46265 | 11.28957 | 59° | 5km/h | 28671m | 6.5m/s | -45.7°C | 2.4% | 15.5hPa | 2.6V | 03:28:25 | 01:53:21 | 00:00:00 | |
| DM0DOS-11 | 2026-09-03 12:25:01 | 52.46266 | 11.28960 | 59° | 7km/h | 28677m | 5.5m/s | -45.7°C | 2.4% | 15.5hPa | 2.6V | 03:28:24 | 01:53:22 | 00:00:00 | |
| AA1-15 | 2026-09-03 12:25:00 | 52.46266 | 11.28960 | 59° | 7km/h | 28677m | 5.5m/s | -45.7°C | 0% | 15.5hPa | 2.6V | 03:28:43 | 01:53:22 | 00:00:00 | |
| DB0UT-7 | 2026-09-03 12:25:00 | 52.46266 | 11.28960 | 60° | 11km/h | 28677m | 5.4m/s | -45.6°C | 2.4% | 15.4hPa | 2.6V | 00:00:00 | 00:00:00 | 00:00:00 | |
| DO2SHX-10 | 2026-09-03 12:24:59 | 52.46265 | 11.28957 | 60° | 4km/h | 28671m | 6.5m/s | -45.6°C | 2.4% | 15.5hPa | 2.6V | 00:00:00 | 01:53:21 | 00:00:00 | |
| AM1SDL-15 | 2026-09-03 12:24:58 | 52.46264 | 11.28956 | 5° | 13km/h | 28665m | 5.7m/s | -45.6°C | 2.4% | 15.5hPa | 2.7V | 00:00:00 | 01:53:20 | 00:00:00 | |
| DL1XH1-15 | 2026-09-03 12:24:57 | 52.46265 | 11.28960 | 240° | 9km/h | 28654m | 5.8m/s | -45.7°C | 2.3% | 15.6hPa | 2.7V | 03:28:28 | 01:53:18 | 00:00:00 | |
| DL1XH-west | 2026-09-03 12:24:56 | 52.46265 | 11.28960 | 241° | 9km/h | 28654m | 5.8m/s | -45.7°C | 0% | 15.6hPa | 2.7V | 03:28:43 | 01:53:18 | 00:00:00 | |
| DB0DAN | 2026-09-03 12:24:55 | 52.46267 | 11.28964 | 234° | 13km/h | 28648m | 7.3m/s | -45.6°C | 0.3% | 15.57hPa | 2.7V | 00:00:00 | 00:00:00 | 00:00:00 | |
| DD8BA-10 | 2026-09-03 12:24:55 | 52.46267 | 11.28964 | 234° | 13km/h | 28648m | 7.2m/s | -45.6°C | 2.4% | 15.5hPa | 2.7V | 03:28:00 | 00:00:00 | 00:00:00 | |
| DL1NUX | 2026-09-03 12:24:54 | 52.46264 | 11.28996 | 334° | 16km/h | 28613m | 4.8m/s | -45.9°C | 2.3% | 15.6hPa | 2.7V | 03:28:35 | 01:53:11 | 00:00:00 | |
| DJ8HS-15 | 2026-09-03 12:24:54 | 52.46269 | 11.28969 | 237° | 13km/h | 28642m | 5.5m/s | -45.5°C | 2.3% | 15.5hPa | 2.7V | 00:00:00 | 01:53:16 | 00:00:00 | |
| DM0DOS-11 | 2026-09-03 12:24:53 | 52.46267 | 11.28992 | 319° | 18km/h | 28618m | 5.8m/s | -45.8°C | 2.3% | 15.7hPa | 2.7V | 03:28:34 | 01:53:12 | 00:00:00 | |
| HSKMA3-T | 2026-09-03 12:24:51 | 52.46270 | 11.28987 | 298° | 16km/h | 28624m | 7m/s | -45.7°C | 0% | 15.6hPa | 2.7V | 03:28:43 | 01:53:13 | 00:00:00 | |
| AA1-15 | 2026-09-03 12:24:50 | 52.46267 | 11.28992 | 320° | 18km/h | 28618m | 5.9m/s | -45.8°C | 0% | 15.7hPa | 2.7V | 03:28:43 | 01:53:12 | 00:00:00 | |
| DL1XH-west | 2026-09-03 12:24:45 | 52.46260 | 11.28997 | 171° | 11km/h | 28591m | 4.9m/s | -46.2°C | 0% | 15.7hPa | 2.7V | 03:28:43 | 01:53:07 | 00:00:00 | |
| DD8BA-10 | 2026-09-03 12:24:45 | 52.46260 | 11.28997 | 171° | 11km/h | 28591m | 4.9m/s | -46.2°C | 2.4% | 15.7hPa | 2.7V | 00:00:00 | 00:00:00 | 00:00:00 | |
| DO2SHX-10 | 2026-09-03 12:24:44 | 52.46263 | 11.28997 | 180° | 15km/h | 28586m | 5.3m/s | -46.3°C | 2.4% | 15.6hPa | 2.6V | 00:00:00 | 01:53:06 | 00:00:00 | |
| DM0DOS-11 | 2026-09-03 12:24:43 | 52.46275 | 11.29005 | 221° | 13km/h | 28563m | 5.7m/s | -46.5°C | 2.4% | 15.8hPa | 2.6V | 03:28:44 | 01:53:02 | 00:00:00 | |
| DL1NUX | 2026-09-03 12:24:42 | 52.46277 | 11.29008 | 221° | 11km/h | 28557m | 6.7m/s | -46.5°C | 2.4% | 15.8hPa | 2.7V | 03:28:45 | 01:53:01 | 00:00:00 | |
| HSKMA3-T | 2026-09-03 12:24:41 | 52.46273 | 11.29002 | 218° | 13km/h | 28569m | 5.6m/s | -46.5°C | 0% | 15.8hPa | 2.6V | 03:28:43 | 01:53:03 | 00:00:00 | |
| DB0DAN | 2026-09-03 12:24:40 | 52.46275 | 11.29005 | 222° | 11km/h | 28563m | 5.7m/s | -46.5°C | 0.3% | 15.78hPa | 2.6V | 00:00:00 | 00:00:00 | 00:00:00 | |
| AA1-15 | 2026-09-03 12:24:39 | 52.46277 | 11.29008 | 222° | 11km/h | 28557m | 6.7m/s | -46.5°C | 0% | 15.8hPa | 2.7V | 03:29:34 | 01:53:01 | 00:00:00 | |
| DB0NH | 2026-09-03 12:24:39 | 52.46277 | 11.29008 | 222° | 9km/h | 28558m | 6.7m/s | -46.5°C | 2.4% | 15.7hPa | 2.6V | 03:28:00 | 01:53:01 | 00:00:00 | |
| DL1XH1-15 | 2026-09-03 12:24:38 | 52.46280 | 11.29017 | 278° | 7km/h | 28541m | 5.8m/s | -46.5°C | 2.4% | 15.8hPa | 2.6V | 03:28:48 | 01:52:58 | 00:00:00 | |
| DL1XH-west | 2026-09-03 12:24:35 | 52.46280 | 11.29020 | 302° | 11km/h | 28535m | 6.9m/s | -46.5°C | 0% | 15.8hPa | 2.6V | 03:29:34 | 01:52:57 | 00:00:00 | |
| DO2SHX-10 | 2026-09-03 12:24:35 | 52.46280 | 11.29020 | 302° | 9km/h | 28535m | 6.8m/s | -46.5°C | 2.4% | 15.8hPa | 2.6V | 00:00:00 | 01:52:57 | 00:00:00 | |
| DJ8HS-15 | 2026-09-03 12:24:34 | 52.46278 | 11.29024 | 304° | 9km/h | 28529m | 5.3m/s | -46.5°C | 2.4% | 15.8hPa | 2.6V | 00:00:00 | 01:52:56 | 00:00:00 | |
| DM0DOS-11 | 2026-09-03 12:24:33 | 52.46284 | 11.29032 | 180° | 22km/h | 28506m | 5.3m/s | -46.3°C | 2.4% | 15.9hPa | 2.6V | 03:28:54 | 01:52:52 | 00:00:00 | |
| HSKMA3-T | 2026-09-03 12:24:30 | 52.46285 | 11.29032 | 181° | 22km/h | 28506m | 5.3m/s | -46.3°C | 0% | 15.9hPa | 2.6V | 03:29:34 | 01:52:52 | 00:00:00 | |
| AA1-15 | 2026-09-03 12:24:29 | 52.46290 | 11.29032 | 179° | 24km/h | 28501m | 4.4m/s | -46.4°C | 0% | 15.9hPa | 2.7V | 03:29:34 | 01:52:51 | 00:00:00 | |
| DL1XH1-15 | 2026-09-03 12:24:28 | 52.46304 | 11.29032 | 178° | 9km/h | 28484m | 5.9m/s | -46.3°C | 2.4% | 15.9hPa | 2.7V | 03:28:58 | 01:52:48 | 00:00:00 | |
| DB0DAN | 2026-09-03 12:24:25 | 52.46306 | 11.29031 | 170° | 2km/h | 28479m | 5.5m/s | -46.3°C | 0.3% | 15.97hPa | 2.6V | 00:00:00 | 00:00:00 | 00:00:00 | |
| DL1XH-west | 2026-09-03 12:24:25 | 52.46306 | 11.29031 | 170° | 2km/h | 28479m | 5.5m/s | -46.3°C | 0% | 16hPa | 2.6V | 03:29:34 | 01:52:47 | 00:00:00 | |
| DD8BA-10 | 2026-09-03 12:24:25 | 52.46306 | 11.29031 | 170° | 4km/h | 28479m | 5.4m/s | -46.3°C | 2.4% | 15.9hPa | 2.7V | 00:00:00 | 00:00:00 | 00:00:00 | |
| SONDE2-11 | 2026-09-03 12:24:24 | 52.46306 | 11.29031 | 21° | 2km/h | 28473m | 5.6m/s | -46.4°C | 0.3% | 16.0hPa | 2.7V | 00:00:00 | 00:00:00 | 00:00:00 | |
| DM0DOS-11 | 2026-09-03 12:24:23 | 52.46305 | 11.29030 | 221° | 2km/h | 28450m | 5m/s | -46.4°C | 2.4% | 16hPa | 2.7V | 03:29:04 | 01:52:42 | 00:00:00 | |
| DO2SHX-10 | 2026-09-03 12:24:23 | 52.46305 | 11.29031 | 19° | 2km/h | 28467m | 6.1m/s | -46.4°C | 2.4% | 16.0hPa | 2.6V | 00:00:00 | 01:52:45 | 00:00:00 | |
| AM1SDL-15 | 2026-09-03 12:24:22 | 52.46305 | 11.29030 | 38° | 5km/h | 28462m | 5.5m/s | -46.5°C | 2.4% | 16.0hPa | 2.6V | 00:00:00 | 01:52:44 | 00:00:00 | |
| DL1CLM-18 | 2026-09-03 12:24:21 | 52.46305 | 11.29030 | 0° | 0km/h | 28456m | 5.5m/s | -46.4°C | 0.3% | 16.0hPa | 2.6V | 00:00:00 | 00:00:00 | 00:00:00 | |
| DL1NUX | 2026-09-03 12:24:20 | 52.46305 | 11.29031 | 265° | 4km/h | 28445m | 4.9m/s | -46.5°C | 2.4% | 16hPa | 2.6V | 03:29:05 | 01:52:41 | 00:00:00 | |
| HSKMA3-T | 2026-09-03 12:24:19 | 52.46305 | 11.29031 | 265° | 4km/h | 28445m | 4.9m/s | -46.5°C | 0% | 16hPa | 2.6V | 03:29:34 | 01:52:41 | 00:00:00 | |
| AA1-15 | 2026-09-03 12:24:18 | 52.46305 | 11.29033 | 287° | 5km/h | 28440m | 6.5m/s | -46.6°C | 0% | 16.1hPa | 2.6V | 03:29:34 | 01:52:40 | 00:00:00 | |
| DF8AY | 2026-09-03 12:24:17 | 52.46306 | 11.29034 | 125° | 13km/h | 28404m | 5.5m/s | -46.8°C | 0% | 16.1hPa | 2.6V | 03:31:16 | 01:52:34 | 00:00:00 | |
| DL1XH1-15 | 2026-09-03 12:24:17 | 52.46303 | 11.29038 | 302° | 7km/h | 28427m | 4.8m/s | -46.7°C | 2.5% | 16.1hPa | 2.7V | 03:29:08 | 01:52:38 | 00:00:00 | |
| DL1XH-west | 2026-09-03 12:24:15 | 52.46304 | 11.29037 | 130° | 9km/h | 28411m | 6.9m/s | -46.7°C | 0% | 16.1hPa | 2.6V | 03:29:34 | 01:52:35 | 00:00:00 | |
| DL1NUX | 2026-09-03 12:24:14 | 52.46309 | 11.29022 | 91° | 4km/h | 28388m | 6m/s | -46.9°C | 2.5% | 16.2hPa | 2.7V | 03:29:15 | 01:52:31 | 00:00:00 | |
| AP2371 | 2026-09-03 12:24:14 | 52.46303 | 11.29039 | 135° | 4km/h | 28418m | 6.6m/s | -46.6°C | 0% | 0hPa | 2.7V | 00:00:00 | 00:00:00 | 00:00:00 | |
| DM0DOS-11 | 2026-09-03 12:24:11 | 52.46309 | 11.29025 | 113° | 9km/h | 28394m | 6m/s | -46.8°C | 2.5% | 16.2hPa | 2.7V | 03:29:14 | 01:52:32 | 00:00:00 | |
| DL1XH1-15 | 2026-09-03 12:24:11 | 52.46309 | 11.29024 | 244° | 5km/h | 28371m | 6.2m/s | -46.9°C | 2.5% | 16.2hPa | 2.6V | 03:29:18 | 01:52:28 | 00:00:00 | |
| AA1-15 | 2026-09-03 12:24:08 | 52.46309 | 11.29021 | 329° | 2km/h | 28382m | 5.2m/s | -47°C | 0% | 16.2hPa | 2.7V | 03:29:34 | 01:52:30 | 00:00:00 | |
| MECKS9 | 2026-09-03 12:24:07 | 52.46309 | 11.29022 | 279° | 4km/h | 28377m | 5.2m/s | -47.0°C | 0.4% | 16.2hPa | 2.6V | 00:00:00 | 00:00:00 | 00:00:00 | |
| GOEST3-10 | 2026-09-03 12:24:06 | 52.46309 | 11.29024 | 245° | 7km/h | 28372m | 6.2m/s | -46.9°C | 2.5% | 16.2hPa | 2.6V | 03:29:00 | 00:00:00 | 00:00:00 | |
| DD8BA-10 | 2026-09-03 12:24:05 | 52.46310 | 11.29027 | 222° | 7km/h | 28365m | 6.1m/s | -46.9°C | 2.5% | 16.2hPa | 2.6V | 00:00:00 | 00:00:00 | 00:00:00 | |
| DL1XH-15 | 2026-09-03 12:24:04 | 52.46316 | 11.29035 | 252° | 4km/h | 28336m | 5m/s | -47.1°C | 2.5% | 16.3hPa | 2.6V | 03:29:24 | 01:52:22 | 00:00:00 | |
| DL1XH-west | 2026-09-03 12:24:02 | 52.46315 | 11.29033 | 225° | 5km/h | 28348m | 6.8m/s | -47°C | 0% | 16.3hPa | 2.7V | 03:29:34 | 01:52:24 | 00:00:00 | |
| DO3MHA-11 | 2026-09-03 12:24:01 | 52.46315 | 11.29034 | 261° | 5km/h | 28342m | 6.0m/s | -47.0°C | 2.5% | 16.3hPa | 2.6V | 00:00:00 | 01:52:23 | 00:00:00 | |
| DL1NUX | 2026-09-03 12:24:00 | 52.46317 | 11.29037 | 210° | 4km/h | 28330m | 5.5m/s | -47.2°C | 2.5% | 16.3hPa | 2.6V | 03:29:25 | 01:52:21 | 00:00:00 | |
| EDDB2-11 | 2026-09-03 12:24:00 | 52.46316 | 11.29037 | 210° | 4km/h | 28331m | 5.5m/s | -47.2°C | 0.3% | 16.3hPa | 2.7V | 00:00:00 | 00:00:00 | 00:00:00 | |
| DO2SHX-10 | 2026-09-03 12:23:59 | 52.46316 | 11.29036 | 211° | 7km/h | 28331m | 5.4m/s | -47.1°C | 2.5% | 16.3hPa | 2.7V | 00:00:00 | 01:52:21 | 00:00:00 | |
| DL1XH1-15 | 2026-09-03 12:23:58 | 52.46323 | 11.29038 | 176° | 11km/h | 28312m | 4.8m/s | -47.2°C | 2.6% | 16.4hPa | 2.7V | 03:29:28 | 01:52:18 | 00:00:00 | |
| AA1-15 | 2026-09-03 12:23:57 | 52.46320 | 11.29038 | 182° | 11km/h | 28318m | 5.9m/s | -47.1°C | 0% | 16.4hPa | 2.7V | 03:29:34 | 01:52:19 | 00:00:00 | |
| DF7ER-10 | 2026-09-03 12:23:56 | 52.46320 | 11.29038 | 183° | 11km/h | 28318m | 5.9m/s | -47.1°C | 0.4% | 16.4hPa | 2.6V | 03:29:00 | 00:00:00 | 00:00:00 | |
| DB0DAN | 2026-09-03 12:23:55 | 52.46325 | 11.29037 | 173° | 7km/h | 28307m | 6m/s | -47.2°C | 0.4% | 16.39hPa | 2.6V | 00:00:00 | 00:00:00 | 00:00:00 | |
| SONCRA | 2026-09-03 12:23:55 | 52.46327 | 11.29037 | 163° | 2km/h | 28301m | 6.6m/s | -47.1°C | 0.4% | 16.4hPa | 2.6V | 00:00:00 | 00:00:00 | 00:00:00 | |
| DL1NUX | 2026-09-03 12:23:54 | 52.46330 | 11.29037 | 191° | 7km/h | 28271m | 5.1m/s | -47.1°C | 2.6% | 16.5hPa | 2.6V | 03:29:35 | 01:52:11 | 00:00:00 | |
| DJ8HS-15 | 2026-09-03 12:23:54 | 52.46327 | 11.29037 | 164° | 4km/h | 28301m | 6.6m/s | -47.1°C | 2.5% | 16.3hPa | 2.7V | 03:29:00 | 01:52:16 | 00:00:00 | |
| DM0DOS-11 | 2026-09-03 12:23:53 | 52.46328 | 11.29036 | 187° | 5km/h | 28277m | 6.6m/s | -47.1°C | 2.6% | 16.4hPa | 2.7V | 03:29:34 | 01:52:12 | 00:00:00 | |
| DL1XH-west | 2026-09-03 12:23:52 | 52.46327 | 11.29036 | 181° | 2km/h | 28283m | 6.7m/s | -47.3°C | 0% | 16.5hPa | 2.7V | 03:29:34 | 01:52:13 | 00:00:00 | |
| AA1-15 | 2026-09-03 12:23:47 | 52.46333 | 11.29038 | 217° | 4km/h | 28260m | 6.6m/s | -47.2°C | 0% | 16.5hPa | 2.6V | 03:30:25 | 01:52:09 | 00:00:00 | |
| HSKMA3-T | 2026-09-03 12:23:46 | 52.46333 | 11.29039 | 305° | 2km/h | 28253m | 6.7m/s | -47.1°C | 0% | 16.5hPa | 2.7V | 03:30:25 | 01:52:08 | 00:00:00 | |
| GOEST3-10 | 2026-09-03 12:23:46 | 52.46333 | 11.29039 | 305° | 4km/h | 28253m | 6.7m/s | -47.0°C | 2.6% | 16.5hPa | 2.7V | 03:29:00 | 00:00:00 | 00:00:00 | |
| DD8BA-10 | 2026-09-03 12:23:45 | 52.46332 | 11.29040 | 333° | 4km/h | 28247m | 5.7m/s | -47.0°C | 2.5% | 16.5hPa | 2.7V | 00:00:00 | 00:00:00 | 00:00:00 | |
| DO2SHX-10 | 2026-09-03 12:23:44 | 52.46332 | 11.29040 | 349° | 4km/h | 28241m | 6.0m/s | -47.1°C | 2.6% | 16.5hPa | 2.7V | 00:00:00 | 01:52:06 | 00:00:00 | |
| MECKS9 | 2026-09-03 12:23:43 | 52.46332 | 11.29040 | 0° | 0km/h | 28241m | 6.1m/s | -47.1°C | 0.4% | 16.6hPa | 2.7V | 03:30:00 | 00:00:00 | 00:00:00 | |
| DM0DOS-11 | 2026-09-03 12:23:41 | 52.46335 | 11.29037 | 138° | 5km/h | 28217m | 5.2m/s | -47°C | 2.5% | 16.6hPa | 2.7V | 03:29:44 | 01:52:02 | 00:00:00 | |
| DL1XH-west | 2026-09-03 12:23:41 | 52.46334 | 11.29038 | 148° | 7km/h | 28222m | 4.9m/s | -46.9°C | 0% | 16.6hPa | 2.7V | 03:30:25 | 01:52:03 | 00:00:00 | |
| DB0DAN | 2026-09-03 12:23:40 | 52.46335 | 11.29037 | 138° | 5km/h | 28217m | 5.3m/s | -47°C | 0.3% | 16.61hPa | 2.7V | 00:00:00 | 00:00:00 | 00:00:00 | |
| DL1NUX | 2026-09-03 12:23:40 | 52.46336 | 11.29035 | 100° | 4km/h | 28210m | 7m/s | -47°C | 2.6% | 16.6hPa | 2.7V | 03:29:45 | 01:52:01 | 00:00:00 | |
| DB0NH | 2026-09-03 12:23:39 | 52.46336 | 11.29035 | 101° | 7km/h | 28211m | 7.0m/s | -47.0°C | 2.6% | 16.6hPa | 2.7V | 00:00:00 | 01:52:01 | 00:00:00 | |
| DO2SHX-10 | 2026-09-03 12:23:38 | 52.46335 | 11.29034 | 49° | 4km/h | 28204m | 6.4m/s | -46.8°C | 2.5% | 16.6hPa | 2.7V | 00:00:00 | 01:52:00 | 00:00:00 | |
| DL1XH1-15 | 2026-09-03 12:23:37 | 52.46334 | 11.29032 | 69° | 2km/h | 28192m | 5.6m/s | -46.9°C | 2.5% | 16.7hPa | 2.6V | 03:29:48 | 01:51:58 | 00:00:00 | |
| AA1-15 | 2026-09-03 12:23:36 | 52.46334 | 11.29032 | 70° | 2km/h | 28192m | 5.6m/s | -46.9°C | 0% | 16.7hPa | 2.6V | 03:30:25 | 01:51:58 | 00:00:00 | |
| DF8AY | 2026-09-03 12:23:36 | 52.46335 | 11.29032 | 180° | 4km/h | 28186m | 7.1m/s | -47°C | 0% | 16.7hPa | 2.6V | 03:31:16 | 01:51:57 | 00:00:00 | |
| DF7ER-10 | 2026-09-03 12:23:36 | 52.46334 | 11.29032 | 0° | 0km/h | 28193m | 5.6m/s | -46.9°C | 0.4% | 16.7hPa | 2.7V | 03:30:00 | 00:00:00 | 00:00:00 | |
| DD8BA-10 | 2026-09-03 12:23:35 | 52.46335 | 11.29032 | 180° | 9km/h | 28186m | 7.0m/s | -46.9°C | 2.5% | 16.6hPa | 2.7V | 03:29:00 | 00:00:00 | 00:00:00 | |
| DL1NUX | 2026-09-03 12:23:34 | 52.46346 | 11.29044 | 239° | 4km/h | 28150m | 4.8m/s | -46.7°C | 2.5% | 16.8hPa | 2.7V | 03:29:55 | 01:51:51 | 00:00:00 | |
| DJ8HS-15 | 2026-09-03 12:23:34 | 52.46337 | 11.29032 | 198° | 7km/h | 28179m | 6.3m/s | -46.8°C | 2.5% | 16.7hPa | 2.7V | 00:00:00 | 01:51:56 | 00:00:00 | |
| HTAHTA | 2026-09-03 12:23:33 | 52.46339 | 11.29034 | 203° | 13km/h | 28174m | 5.1m/s | -46.8°C | 0.4% | 16.7hPa | 2.7V | 00:00:00 | 00:00:00 | 00:00:00 | |
| DO2SHX-10 | 2026-09-03 12:23:32 | 52.46342 | 11.29036 | 216° | 9km/h | 28168m | 5.6m/s | -46.7°C | 2.5% | 16.7hPa | 2.7V | 00:00:00 | 01:51:54 | 00:00:00 | |
| DL1XH1-15 | 2026-09-03 12:23:31 | 52.46350 | 11.29044 | 147° | 7km/h | 28132m | 5.1m/s | -46.7°C | 2.5% | 16.8hPa | 2.7V | 03:29:58 | 01:51:48 | 00:00:00 | |
| DL1XH-west | 2026-09-03 12:23:31 | 52.46346 | 11.29042 | 241° | 7km/h | 28156m | 5.7m/s | -46.8°C | 0% | 16.8hPa | 2.6V | 03:30:25 | 01:51:52 | 00:00:00 | |
| AA1-15 | 2026-09-03 12:23:26 | 52.46350 | 11.29044 | 148° | 7km/h | 28132m | 5.1m/s | -46.7°C | 0% | 16.8hPa | 2.7V | 03:30:25 | 01:51:48 | 00:00:00 | |
| DB0DAN | 2026-09-03 12:23:25 | 52.46352 | 11.29042 | 131° | 5km/h | 28127m | 5.1m/s | -46.6°C | 0.4% | 16.83hPa | 2.6V | 00:00:00 | 00:00:00 | 00:00:00 | |
| HSKMA3-T | 2026-09-03 12:23:25 | 52.46352 | 11.29042 | 131° | 5km/h | 28127m | 5.1m/s | -46.6°C | 0% | 16.8hPa | 2.6V | 03:30:25 | 01:51:47 | 00:00:00 | |
| DL1XH-west | 2026-09-03 12:23:19 | 52.46352 | 11.29044 | 210° | 7km/h | 28091m | 6.4m/s | -46.6°C | 0% | 16.9hPa | 2.6V | 03:30:25 | 01:51:41 | 00:00:00 | |
| DO2SHX-10 | 2026-09-03 12:23:19 | 52.46352 | 11.29044 | 211° | 11km/h | 28091m | 6.4m/s | -46.6°C | 2.5% | 16.9hPa | 2.6V | 00:00:00 | 01:51:41 | 00:00:00 | |
| DL1XH1-15 | 2026-09-03 12:23:17 | 52.46360 | 11.29050 | 212° | 11km/h | 28075m | 5.4m/s | -46.6°C | 2.5% | 17hPa | 2.7V | 03:30:08 | 01:51:38 | 00:00:00 | |
| AA1-15 | 2026-09-03 12:23:16 | 52.46360 | 11.29050 | 212° | 11km/h | 28075m | 5.4m/s | -46.6°C | 0% | 17hPa | 2.7V | 03:30:25 | 01:51:38 | 00:00:00 | |
| HSKMA3-T | 2026-09-03 12:23:14 | 52.46360 | 11.29054 | 322° | 7km/h | 28062m | 7m/s | -46.5°C | 0% | 17hPa | 2.7V | 03:30:25 | 01:51:36 | 00:00:00 | |
| DL1NUX | 2026-09-03 12:23:14 | 52.46348 | 11.29050 | 49° | 9km/h | 28031m | 5.3m/s | -46.4°C | 2.5% | 17.1hPa | 2.7V | 03:30:15 | 01:51:31 | 00:00:00 | |
| DF7ER-10 | 2026-09-03 12:23:14 | 52.46360 | 11.29054 | 323° | 7km/h | 28063m | 7.0m/s | -46.5°C | 0.3% | 17.0hPa | 2.7V | 03:30:00 | 00:00:00 | 00:00:00 | |
| DO3MHA-11 | 2026-09-03 12:23:13 | 52.46358 | 11.29055 | 348° | 7km/h | 28056m | 6.4m/s | -46.4°C | 2.4% | 17.0hPa | 2.7V | 00:00:00 | 01:51:35 | 00:00:00 | |
| DO2SHX-10 | 2026-09-03 12:23:12 | 52.46355 | 11.29056 | 4° | 11km/h | 28050m | 5.5m/s | -46.5°C | 2.4% | 17.0hPa | 2.7V | 00:00:00 | 01:51:34 | 00:00:00 | |
| DB0DAN | 2026-09-03 12:23:10 | 52.46350 | 11.29053 | 38° | 9km/h | 28037m | 6.3m/s | -46.4°C | 0.4% | 17.1hPa | 2.7V | 00:00:00 | 00:00:00 | 00:00:00 | |
| DL1XH-west | 2026-09-03 12:23:09 | 52.46348 | 11.29050 | 49° | 9km/h | 28031m | 5.3m/s | -46.4°C | 0% | 17.1hPa | 2.7V | 03:30:25 | 01:51:31 | 00:00:00 | |
| DB0NH | 2026-09-03 12:23:09 | 52.46348 | 11.29050 | 50° | 13km/h | 28032m | 5.3m/s | -46.4°C | 2.5% | 17.0hPa | 2.6V | 00:00:00 | 01:51:31 | 00:00:00 | |
| DL1XH1-15 | 2026-09-03 12:23:07 | 52.46344 | 11.29043 | 16° | 5km/h | 28013m | 6.3m/s | -46.4°C | 2.4% | 17.1hPa | 2.6V | 03:30:18 | 01:51:28 | 00:00:00 | |
| AA1-15 | 2026-09-03 12:23:06 | 52.46342 | 11.29044 | 241° | 4km/h | 28001m | 6.3m/s | -46.5°C | 0% | 17.2hPa | 2.7V | 03:30:25 | 01:51:26 | 00:00:00 | |
| DM0DOS-11 | 2026-09-03 12:23:05 | 52.46347 | 11.29049 | 301° | 2km/h | 27977m | 6.1m/s | -46.4°C | 2.5% | 17.2hPa | 2.6V | 03:30:24 | 01:51:22 | 00:00:00 | |
| HSKMA3-T | 2026-09-03 12:23:03 | 52.46343 | 11.29045 | 213° | 5km/h | 27994m | 7.5m/s | -46.5°C | 0% | 17.2hPa | 2.7V | 03:30:25 | 01:51:25 | 00:00:00 | |
| DL1XH-west | 2026-09-03 12:22:58 | 52.46343 | 11.29048 | 12° | 16km/h | 27963m | 6.6m/s | -46.4°C | 0% | 17.2hPa | 2.7V | 03:31:16 | 01:51:20 | 00:00:00 | |
| DL1XH1-15 | 2026-09-03 12:22:57 | 52.46333 | 11.29043 | 25° | 20km/h | 27951m | 6.7m/s | -46.4°C | 2.4% | 17.3hPa | 2.7V | 03:30:28 | 01:51:18 | 00:00:00 | |
| AA1-15 | 2026-09-03 12:22:55 | 52.46326 | 11.29034 | 42° | 16km/h | 27938m | 5.2m/s | -46.4°C | 0% | 17.3hPa | 2.6V | 03:31:16 | 01:51:16 | 00:00:00 | |
| DM0DOS-11 | 2026-09-03 12:22:55 | 52.46314 | 11.29024 | 8° | 9km/h | 27914m | 5.6m/s | -46.4°C | 2.4% | 17.4hPa | 2.7V | 03:30:34 | 01:51:12 | 00:00:00 | |
| DO2SHX-10 | 2026-09-03 12:22:54 | 52.46325 | 11.29034 | 42° | 15km/h | 27939m | 5.2m/s | -46.3°C | 2.4% | 17.3hPa | 2.6V | 00:00:00 | 01:51:16 | 00:00:00 | |
| DL1NUX | 2026-09-03 12:22:53 | 52.46312 | 11.29023 | 358° | 5km/h | 27907m | 6.3m/s | -46.4°C | 2.4% | 17.4hPa | 2.6V | 03:30:35 | 01:51:11 | 00:00:00 | |
| HSKMA3-T | 2026-09-03 12:22:52 | 52.46320 | 11.29027 | 31° | 15km/h | 27926m | 7.2m/s | -46.3°C | 0% | 17.4hPa | 2.7V | 03:31:16 | 01:51:14 | 00:00:00 | |
| DL1XH-west | 2026-09-03 12:22:48 | 52.46311 | 11.29023 | 6° | 2km/h | 27901m | 7.1m/s | -46.3°C | 0% | 17.4hPa | 2.6V | 03:31:16 | 01:51:10 | 00:00:00 | |
| DO2SHX-10 | 2026-09-03 12:22:48 | 52.46311 | 11.29023 | 7° | 4km/h | 27901m | 7.0m/s | -46.3°C | 2.4% | 17.4hPa | 2.7V | 00:00:00 | 01:51:10 | 00:00:00 | |
| DL1CLM-18 | 2026-09-03 12:22:46 | 52.46310 | 11.29022 | 32° | 5km/h | 27890m | 4.6m/s | -46.3°C | 0.4% | 17.5hPa | 2.7V | 00:00:00 | 00:00:00 | 00:00:00 | |
| DD8BA-10 | 2026-09-03 12:22:45 | 52.46308 | 11.29020 | 19° | 22km/h | 27885m | 6.0m/s | -46.2°C | 2.5% | 17.4hPa | 2.7V | 00:00:00 | 00:00:00 | 00:00:00 | |
| SMARD9-15 | 2026-09-03 12:22:44 | 52.46299 | 11.29017 | 10° | 24km/h | 27871m | 7.0m/s | -46.2°C | 0.3% | 17.5hPa | 2.7V | 00:00:00 | 00:00:00 | 00:00:00 | |
| AA1-15 | 2026-09-03 12:22:44 | 52.46299 | 11.29017 | 10° | 26km/h | 27871m | 7m/s | -46.2°C | 0% | 17.5hPa | 2.6V | 03:31:16 | 01:51:05 | 00:00:00 | |
| DO3MHA-11 | 2026-09-03 12:22:43 | 52.46299 | 11.29017 | 11° | 22km/h | 27871m | 7.0m/s | -46.2°C | 2.4% | 17.5hPa | 2.7V | 00:00:00 | 01:51:05 | 00:00:00 | |
| DL1NUX | 2026-09-03 12:22:42 | 52.46272 | 11.29005 | 27° | 22km/h | 27846m | 6.5m/s | -46.3°C | 2.4% | 17.6hPa | 2.7V | 03:30:45 | 01:51:01 | 00:00:00 | |
| HSKMA3-T | 2026-09-03 12:22:41 | 52.46284 | 11.29012 | 15° | 31km/h | 27858m | 5.5m/s | -46.3°C | 0% | 17.6hPa | 2.7V | 03:31:16 | 01:51:03 | 00:00:00 | |
| DF7ER-10 | 2026-09-03 12:22:41 | 52.46292 | 11.29015 | 13° | 31km/h | 27865m | 6.0m/s | -46.3°C | 0.4% | 17.5hPa | 2.7V | 03:31:00 | 00:00:00 | 00:00:00 | |
| DB0DAN | 2026-09-03 12:22:40 | 52.46277 | 11.29009 | 20° | 26km/h | 27852m | 6.8m/s | -46.2°C | 0.4% | 17.56hPa | 2.7V | 00:00:00 | 00:00:00 | 00:00:00 | |
| DL1XH-west | 2026-09-03 12:22:38 | 52.46264 | 11.28997 | 32° | 15km/h | 27833m | 6.3m/s | -46.2°C | 0% | 17.6hPa | 2.6V | 03:31:16 | 01:50:59 | 00:00:00 | |
| DF8AY | 2026-09-03 12:22:35 | 52.46245 | 11.28978 | 20° | 20km/h | 27791m | 5.2m/s | -46.3°C | 0% | 17.7hPa | 2.6V | 03:31:16 | 01:50:52 | 00:00:00 | |
| AA1-15 | 2026-09-03 12:22:32 | 52.46251 | 11.28984 | 48° | 11km/h | 27802m | 6.4m/s | -46.2°C | 0% | 17.7hPa | 2.7V | 03:31:16 | 01:50:54 | 00:00:00 | |
| HSKMA3-T | 2026-09-03 12:22:31 | 52.46248 | 11.28981 | 36° | 15km/h | 27796m | 4.9m/s | -46.3°C | 0% | 17.7hPa | 2.6V | 03:31:16 | 01:50:53 | 00:00:00 | |
| DL1NUX | 2026-09-03 12:22:31 | 52.46239 | 11.28976 | 9° | 24km/h | 27785m | 7.5m/s | -46.3°C | 2.4% | 17.8hPa | 2.7V | 03:30:55 | 01:50:51 | 00:00:00 | |
| DF8AY | 2026-09-03 12:22:26 | 52.46204 | 11.28975 | 6° | 18km/h | 27754m | 6.1m/s | -46.3°C | 0% | 17.8hPa | 2.6V | 03:31:16 | 01:50:46 | 00:00:00 | |
| DL1XH-west | 2026-09-03 12:22:26 | 52.46217 | 11.28975 | 358° | 31km/h | 27767m | 5.5m/s | -46.4°C | 0% | 17.8hPa | 2.7V | 03:31:16 | 01:50:48 | 00:00:00 | |
| GOEST3-10 | 2026-09-03 12:22:26 | 52.46217 | 11.28975 | 359° | 22km/h | 27767m | 5.5m/s | -46.4°C | 2.5% | 17.7hPa | 2.6V | 03:30:00 | 00:00:00 | 00:00:00 | |
| DD8BA-10 | 2026-09-03 12:22:25 | 52.46210 | 11.28975 | 1° | 16km/h | 27761m | 6.4m/s | -46.3°C | 2.4% | 17.8hPa | 2.6V | 00:00:00 | 00:00:00 | 00:00:00 | |
| DO2SHX-10 | 2026-09-03 12:22:24 | 52.46204 | 11.28975 | 6° | 15km/h | 27755m | 6.0m/s | -46.3°C | 2.4% | 17.8hPa | 2.6V | 00:00:00 | 01:50:46 | 00:00:00 | |
| TFSTFS | 2026-09-03 12:22:23 | 52.46204 | 11.28975 | 7° | 18km/h | 27755m | 6.1m/s | -46.3°C | 0.3% | 17.8hPa | 2.7V | 03:31:00 | 00:00:00 | 00:00:00 | |
| DL1XH-15 | 2026-09-03 12:22:21 | 52.46191 | 11.28974 | 355° | 15km/h | 27730m | 6.6m/s | -46.3°C | 2.5% | 17.9hPa | 2.7V | 03:31:04 | 01:50:42 | 00:00:00 | |
| AA1-15 | 2026-09-03 12:22:21 | 52.46194 | 11.28974 | 360° | 11km/h | 27736m | 6.9m/s | -46.3°C | 0% | 17.9hPa | 2.7V | 03:31:16 | 01:50:43 | 00:00:00 | |
| HSKMA3-T | 2026-09-03 12:22:20 | 52.46191 | 11.28974 | 356° | 15km/h | 27730m | 6.6m/s | -46.3°C | 0% | 17.9hPa | 2.7V | 03:31:16 | 01:50:42 | 00:00:00 | |
| DL1XH-west | 2026-09-03 12:22:16 | 52.46176 | 11.28975 | 360° | 13km/h | 27706m | 6.4m/s | -46.2°C | 0% | 17.9hPa | 2.6V | 03:31:16 | 01:50:38 | 00:00:00 | |
| DF8AY | 2026-09-03 12:22:14 | 52.46170 | 11.28977 | 340° | 13km/h | 27695m | 5.1m/s | -46.2°C | 0% | 18hPa | 2.7V | 03:31:16 | 01:50:36 | 00:00:00 | |
| DO2SHX-10 | 2026-09-03 12:22:14 | 52.46170 | 11.28977 | 340° | 18km/h | 27695m | 5.1m/s | -46.2°C | 2.4% | 17.9hPa | 2.7V | 03:31:00 | 01:50:36 | 00:00:00 | |
| DL1NUX | 2026-09-03 12:22:13 | 52.46151 | 11.28996 | 336° | 13km/h | 27665m | 6.5m/s | -46.2°C | 2.4% | 18.1hPa | 2.7V | 03:31:15 | 01:50:31 | 00:00:00 | |
| SMARD9-15 | 2026-09-03 12:22:13 | 52.46162 | 11.28983 | 325° | 20km/h | 27682m | 6.9m/s | -46.2°C | 0.3% | 18.0hPa | 2.7V | 00:00:00 | 00:00:00 | 00:00:00 | |
| EDDB2-12 | 2026-09-03 12:22:12 | 52.46162 | 11.28983 | 325° | 20km/h | 27682m | 6.9m/s | -46.2°C | 0.3% | 18.0hPa | 2.7V | 00:00:00 | 00:00:00 | 00:00:00 | |
| DM0DOS-11 | 2026-09-03 12:22:11 | 52.46154 | 11.28993 | 326° | 16km/h | 27671m | 5.1m/s | -46.3°C | 2.4% | 18hPa | 2.7V | 03:31:14 | 01:50:32 | 00:00:00 | |
| MECKS9 | 2026-09-03 12:22:11 | 52.46158 | 11.28988 | 327° | 22km/h | 27676m | 5.0m/s | -46.2°C | 0.3% | 18.1hPa | 2.6V | 03:31:00 | 00:00:00 | 00:00:00 | |
| DO2SHX-10 | 2026-09-03 12:22:10 | 52.46154 | 11.28993 | 327° | 13km/h | 27671m | 5.1m/s | -46.3°C | 2.4% | 18.0hPa | 2.6V | 00:00:00 | 01:50:32 | 00:00:00 | |
| AA1-15 | 2026-09-03 12:22:10 | 52.46154 | 11.28993 | 327° | 16km/h | 27671m | 5.1m/s | -46.3°C | 0% | 18hPa | 2.7V | 03:31:16 | 01:50:32 | 00:00:00 | |
| DL4XJ-10 | 2026-09-03 12:22:09 | 52.46151 | 11.28996 | 337° | 11km/h | 27665m | 6.5m/s | -44.5°C | 0% | 0hPa | 2.6V | 00:00:00 | 00:00:00 | 00:00:00 | |
| DB0NH | 2026-09-03 12:22:08 | 52.46149 | 11.28996 | 12° | 11km/h | 27658m | 7.0m/s | -46.2°C | 2.4% | 18.0hPa | 2.6V | 00:00:00 | 01:50:30 | 00:00:00 | |
| DL1XH1-15 | 2026-09-03 12:22:07 | 52.46146 | 11.28991 | 64° | 13km/h | 27646m | 5.4m/s | -46.2°C | 2.4% | 18.1hPa | 2.6V | 03:31:18 | 01:50:28 | 00:00:00 | |
| DL1XH-west | 2026-09-03 12:22:06 | 52.46144 | 11.28986 | 57° | 13km/h | 27640m | 6.4m/s | -46.1°C | 0% | 18.1hPa | 2.6V | 03:32:07 | 01:50:27 | 00:00:00 | |
| DF8AY | 2026-09-03 12:22:04 | 52.46139 | 11.28980 | 18° | 13km/h | 27628m | 5.5m/s | -46.3°C | 0% | 18.2hPa | 2.7V | 03:32:07 | 01:50:25 | 00:00:00 | |
| DO2SHX-10 | 2026-09-03 12:22:04 | 52.46142 | 11.28982 | 39° | 13km/h | 27634m | 6.1m/s | -46.2°C | 2.4% | 18.1hPa | 2.6V | 00:00:00 | 01:50:26 | 00:00:00 | |
| DL1XH1-15 | 2026-09-03 12:22:02 | 52.46128 | 11.29002 | 289° | 16km/h | 27586m | 6.7m/s | -46.2°C | 2.4% | 18.3hPa | 2.7V | 03:31:28 | 01:50:18 | 00:00:00 | |
| AA1-15 | 2026-09-03 12:22:00 | 52.46132 | 11.28982 | 309° | 9km/h | 27611m | 6.7m/s | -46.3°C | 0% | 18.2hPa | 2.7V | 03:32:07 | 01:50:22 | 00:00:00 | |
| DL1NUX | 2026-09-03 12:22:00 | 52.46131 | 11.28986 | 285° | 11km/h | 27605m | 5.8m/s | -46.2°C | 2.4% | 18.2hPa | 2.6V | 03:31:25 | 01:50:21 | 00:00:00 | |
| DL1XH-west | 2026-09-03 12:21:55 | 52.46127 | 11.29008 | 289° | 15km/h | 27580m | 5.3m/s | -46.2°C | 0% | 18.3hPa | 2.7V | 03:32:07 | 01:50:17 | 00:00:00 | |
| DO2SHX-10 | 2026-09-03 12:21:55 | 52.46127 | 11.29008 | 290° | 13km/h | 27581m | 5.3m/s | -46.2°C | 2.4% | 18.3hPa | 2.7V | 00:00:00 | 01:50:17 | 00:00:00 | |
| DL1NUX | 2026-09-03 12:21:54 | 52.46135 | 11.29023 | 189° | 5km/h | 27544m | 6.6m/s | -46.2°C | 2.4% | 18.4hPa | 2.7V | 03:31:35 | 01:50:11 | 00:00:00 | |
| AA1-15 | 2026-09-03 12:21:49 | 52.46135 | 11.29023 | 190° | 5km/h | 27544m | 6.6m/s | -46.2°C | 0% | 18.4hPa | 2.7V | 03:32:07 | 01:50:11 | 00:00:00 | |
| DF8AY | 2026-09-03 12:21:48 | 52.46131 | 11.29031 | 298° | 11km/h | 27519m | 6.7m/s | -46.3°C | 0% | 18.5hPa | 2.6V | 03:32:07 | 01:50:07 | 00:00:00 | |
| MECKS9 | 2026-09-03 12:21:48 | 52.46134 | 11.29023 | 191° | 5km/h | 27544m | 6.6m/s | -46.2°C | 0% | 0hPa | 2.6V | 00:00:00 | 00:00:00 | 00:00:00 | |
| DL1XH1-15 | 2026-09-03 12:21:47 | 52.46132 | 11.29027 | 314° | 11km/h | 27525m | 5m/s | -46.2°C | 2.4% | 18.4hPa | 2.6V | 03:31:38 | 01:50:08 | 00:00:00 | |
| DM0DOS-11 | 2026-09-03 12:21:46 | 52.46134 | 11.29053 | 225° | 11km/h | 27488m | 5.4m/s | -46.4°C | 2.4% | 18.6hPa | 2.6V | 03:31:44 | 01:50:02 | 00:00:00 | |
| DL1XH-west | 2026-09-03 12:21:45 | 52.46130 | 11.29035 | 272° | 13km/h | 27512m | 6.8m/s | -46.2°C | 0% | 18.5hPa | 2.7V | 03:32:07 | 01:50:06 | 00:00:00 | |
| S3001 | 2026-09-03 12:21:44 | 52.46130 | 11.29035 | 271° | 11km/h | 27512m | 6.8m/s | -46.2°C | 0.3% | 18.5hPa | 2.7V | 00:00:00 | 00:00:00 | 00:00:00 | |
| AM1SDL-15 | 2026-09-03 12:21:43 | 52.46130 | 11.29040 | 255° | 18km/h | 27507m | 5.3m/s | -46.2°C | 2.4% | 18.4hPa | 2.7V | 00:00:00 | 01:50:05 | 00:00:00 | |
| DO2SHX-10 | 2026-09-03 12:21:42 | 52.46131 | 11.29045 | 248° | 11km/h | 27501m | 5.9m/s | -46.3°C | 2.4% | 18.4hPa | 2.7V | 00:00:00 | 01:50:04 | 00:00:00 | |
| DL1XH1-15 | 2026-09-03 12:21:41 | 52.46149 | 11.29066 | 203° | 20km/h | 27463m | 5.5m/s | -46.4°C | 2.4% | 18.6hPa | 2.7V | 03:31:48 | 01:49:58 | 00:00:00 | |
| DB0DAN | 2026-09-03 12:21:40 | 52.46134 | 11.29053 | 225° | 11km/h | 27488m | 5.4m/s | -46.4°C | 0.3% | 18.56hPa | 2.6V | 00:00:00 | 00:00:00 | 00:00:00 | |
| AA1-15 | 2026-09-03 12:21:39 | 52.46137 | 11.29057 | 212° | 15km/h | 27483m | 4.6m/s | -46.3°C | 0% | 18.6hPa | 2.6V | 03:32:07 | 01:50:01 | 00:00:00 | |
| DF8AY | 2026-09-03 12:21:38 | 52.46140 | 11.29060 | 207° | 16km/h | 27477m | 7.3m/s | -46.4°C | 0% | 18.6hPa | 2.6V | 03:32:07 | 01:50:00 | 00:00:00 | |
| DL1XH-west | 2026-09-03 12:21:34 | 52.46156 | 11.29071 | 206° | 11km/h | 27451m | 7.2m/s | -46.6°C | 0% | 18.6hPa | 2.6V | 03:32:07 | 01:49:56 | 00:00:00 | |
| BUE01 | 2026-09-03 12:21:34 | 52.46156 | 11.29071 | 206° | 9km/h | 27451m | 7.2m/s | -46.6°C | 0.3% | 18.6hPa | 2.7V | 00:00:00 | 00:00:00 | 00:00:00 | |
| DO2SHX-10 | 2026-09-03 12:21:33 | 52.46158 | 11.29073 | 218° | 5km/h | 27445m | 6.0m/s | -46.5°C | 2.4% | 18.6hPa | 2.7V | 00:00:00 | 01:49:55 | 00:00:00 | |
| DM0DOS-11 | 2026-09-03 12:21:32 | 52.46160 | 11.29078 | 222° | 9km/h | 27427m | 6.7m/s | -46.6°C | 2.5% | 18.7hPa | 2.7V | 03:31:54 | 01:49:52 | 00:00:00 | |
| DL1NUX | 2026-09-03 12:21:32 | 52.46163 | 11.29081 | 213° | 15km/h | 27420m | 5.9m/s | -46.7°C | 2.5% | 18.8hPa | 2.7V | 03:31:55 | 01:49:51 | 00:00:00 | |
| AA1-15 | 2026-09-03 12:21:29 | 52.46163 | 11.29081 | 213° | 15km/h | 27420m | 5.9m/s | -46.7°C | 0% | 18.8hPa | 2.7V | 03:32:07 | 01:49:51 | 00:00:00 | |
| DF8AY | 2026-09-03 12:21:28 | 52.46166 | 11.29084 | 208° | 18km/h | 27415m | 5.5m/s | -46.7°C | 0% | 18.8hPa | 2.6V | 03:32:07 | 01:49:50 | 00:00:00 | |
| DL1XH1-15 | 2026-09-03 12:21:27 | 52.46175 | 11.29091 | 199° | 18km/h | 27403m | 6.6m/s | -46.7°C | 2.5% | 18.8hPa | 2.6V | 03:31:58 | 01:49:48 | 00:00:00 | |
| DO2SHX-10 | 2026-09-03 12:21:27 | 52.46171 | 11.29088 | 204° | 18km/h | 27410m | 5.8m/s | -46.6°C | 2.4% | 18.7hPa | 2.6V | 00:00:00 | 01:49:49 | 00:00:00 | |
| MECKS9 | 2026-09-03 12:21:26 | 52.46170 | 11.29088 | 204° | 20km/h | 27410m | 5.9m/s | -46.6°C | 0% | 0hPa | 2.7V | 00:00:00 | 00:00:00 | 00:00:00 | |
| DB0DAN | 2026-09-03 12:21:25 | 52.46179 | 11.29093 | 195° | 18km/h | 27397m | 5.9m/s | -46.7°C | 0.4% | 18.81hPa | 2.7V | 00:00:00 | 00:00:00 | 00:00:00 | |
| DD8BA-10 | 2026-09-03 12:21:25 | 52.46179 | 11.29093 | 196° | 24km/h | 27397m | 5.8m/s | -46.6°C | 2.5% | 18.8hPa | 2.6V | 00:00:00 | 00:00:00 | 00:00:00 | |
| DL1NUX | 2026-09-03 12:21:24 | 52.46218 | 11.29101 | 175° | 27km/h | 27361m | 5.8m/s | -46.8°C | 2.5% | 18.9hPa | 2.6V | 03:32:05 | 01:49:41 | 00:00:00 | |
| DL1XH-west | 2026-09-03 12:21:24 | 52.46190 | 11.29096 | 191° | 24km/h | 27385m | 6m/s | -46.8°C | 0% | 18.8hPa | 2.7V | 03:32:07 | 01:49:45 | 00:00:00 | |
| DM0DOS-11 | 2026-09-03 12:21:22 | 52.46211 | 11.29101 | 182° | 29km/h | 27366m | 4.8m/s | -46.7°C | 2.5% | 18.9hPa | 2.6V | 03:32:04 | 01:49:42 | 00:00:00 | |
| DL1XH1-15 | 2026-09-03 12:21:21 | 52.46233 | 11.29093 | 147° | 16km/h | 27341m | 5.8m/s | -46.8°C | 2.5% | 18.9hPa | 2.7V | 03:32:08 | 01:49:38 | 00:00:00 | |
| HSKMA3-T | 2026-09-03 12:21:19 | 52.46225 | 11.29100 | 165° | 24km/h | 27354m | 7.2m/s | -46.8°C | 0% | 18.9hPa | 2.7V | 03:32:07 | 01:49:40 | 00:00:00 | |
| DF8AY | 2026-09-03 12:21:18 | 52.46230 | 11.29096 | 151° | 20km/h | 27348m | 6.5m/s | -46.7°C | 0% | 18.9hPa | 2.7V | 03:32:07 | 01:49:39 | 00:00:00 | |
| DF7ER-10 | 2026-09-03 12:21:17 | 52.46230 | 11.29096 | 152° | 20km/h | 27348m | 6.5m/s | -46.7°C | 0.4% | 18.9hPa | 2.7V | 03:32:00 | 00:00:00 | 00:00:00 | |
| DM0DOS-11 | 2026-09-03 12:21:15 | 52.46260 | 11.29093 | 188° | 18km/h | 27306m | 6.6m/s | -46.8°C | 2.4% | 19.1hPa | 2.7V | 03:32:14 | 01:49:32 | 00:00:00 | |
| DO2SHX-10 | 2026-09-03 12:21:15 | 52.46237 | 11.29089 | 155° | 16km/h | 27336m | 5.5m/s | -46.8°C | 2.5% | 19.0hPa | 2.6V | 00:00:00 | 01:49:37 | 00:00:00 | |
| DL1NUX | 2026-09-03 12:21:14 | 52.46265 | 11.29093 | 179° | 16km/h | 27300m | 5.7m/s | -46.7°C | 2.4% | 19.1hPa | 2.6V | 03:32:15 | 01:49:31 | 00:00:00 | |
| DL1XH-west | 2026-09-03 12:21:13 | 52.46251 | 11.29089 | 194° | 22km/h | 27318m | 5.2m/s | -46.7°C | 0% | 19hPa | 2.7V | 03:32:58 | 01:49:34 | 00:00:00 | |
| 13BRC | 2026-09-03 12:21:13 | 52.46251 | 11.29089 | 195° | 22km/h | 27318m | 5.2m/s | -46.7°C | 0.4% | 19.0hPa | 2.7V | 03:32:00 | 00:00:00 | 00:00:00 | |
| DO2SHX-10 | 2026-09-03 12:21:12 | 52.46251 | 11.29089 | 194° | 20km/h | 27318m | 5.2m/s | -46.7°C | 2.5% | 19.0hPa | 2.7V | 03:32:00 | 01:49:34 | 00:00:00 | |
| DB0DAN | 2026-09-03 12:21:10 | 52.46260 | 11.29093 | 189° | 16km/h | 27306m | 6.6m/s | -46.8°C | 0.3% | 19.05hPa | 2.7V | 00:00:00 | 00:00:00 | 00:00:00 | |
| HSKMA3-T | 2026-09-03 12:21:08 | 52.46274 | 11.29092 | 175° | 20km/h | 27289m | 5.7m/s | -46.8°C | 0% | 19.1hPa | 2.6V | 03:32:58 | 01:49:29 | 00:00:00 | |
| DF8AY | 2026-09-03 12:21:06 | 52.46285 | 11.29090 | 175° | 26km/h | 27276m | 6.2m/s | -46.7°C | 0% | 19.2hPa | 2.7V | 03:32:58 | 01:49:27 | 00:00:00 | |
| DD8BA-10 | 2026-09-03 12:21:05 | 52.46285 | 11.29090 | 175° | 24km/h | 27276m | 6.1m/s | -46.6°C | 2.5% | 19.1hPa | 2.7V | 00:00:00 | 00:00:00 | 00:00:00 | |
| DL1NUX | 2026-09-03 12:21:04 | 52.46320 | 11.29075 | 173° | 24km/h | 27242m | 6.7m/s | -46.8°C | 2.5% | 19.2hPa | 2.7V | 03:32:25 | 01:49:21 | 00:00:00 | |
| GOEST3-10 | 2026-09-03 12:21:04 | 52.46292 | 11.29089 | 171° | 24km/h | 27270m | 5.7m/s | -46.7°C | 2.5% | 19.1hPa | 2.7V | 03:32:00 | 00:00:00 | 00:00:00 | |
| DO2SHX-10 | 2026-09-03 12:21:03 | 52.46298 | 11.29087 | 166° | 24km/h | 27264m | 6.8m/s | -46.6°C | 2.4% | 19.2hPa | 2.6V | 00:00:00 | 01:49:25 | 00:00:00 | |
| DM0DOS-11 | 2026-09-03 12:21:02 | 52.46314 | 11.29077 | 163° | 22km/h | 27248m | 4.5m/s | -46.7°C | 2.5% | 19.2hPa | 2.6V | 03:32:24 | 01:49:22 | 00:00:00 | |
| DL1XH-west | 2026-09-03 12:21:01 | 52.46309 | 11.29080 | 157° | 22km/h | 27252m | 4m/s | -46.8°C | 0% | 19.2hPa | 2.6V | 03:32:58 | 01:49:23 | 00:00:00 | |
| HSKMA3-T | 2026-09-03 12:20:57 | 52.46333 | 11.29075 | 186° | 27km/h | 27230m | 5.3m/s | -46.8°C | 0% | 19.3hPa | 2.7V | 03:32:58 | 01:49:19 | 00:00:00 | |
| DL1XH1-15 | 2026-09-03 12:20:57 | 52.46339 | 11.29076 | 182° | 26km/h | 27225m | 5.1m/s | -46.7°C | 2.5% | 19.3hPa | 2.7V | 03:32:28 | 01:49:18 | 00:00:00 | |
| DO2SHX-10 | 2026-09-03 12:20:57 | 52.46333 | 11.29075 | 186° | 26km/h | 27230m | 5.3m/s | -46.7°C | 2.5% | 19.2hPa | 2.7V | 00:00:00 | 01:49:19 | 00:00:00 | |
| DD8BA-10 | 2026-09-03 12:20:55 | 52.46345 | 11.29076 | 174° | 24km/h | 27220m | 5.7m/s | -46.8°C | 2.5% | 19.3hPa | 2.7V | 03:32:00 | 00:00:00 | 00:00:00 | |
| AP2371 | 2026-09-03 12:20:54 | 52.46350 | 11.29074 | 160° | 20km/h | 27213m | 6.8m/s | -46.8°C | 0% | 0hPa | 2.7V | 00:00:00 | 00:00:00 | 00:00:00 | |
| DL1NUX | 2026-09-03 12:20:53 | 52.46372 | 11.29047 | 159° | 26km/h | 27185m | 6.3m/s | -46.8°C | 2.5% | 19.4hPa | 2.7V | 03:32:35 | 01:49:11 | 00:00:00 | |
| SP3WXH-11 | 2026-09-03 12:20:53 | 52.46358 | 11.29064 | 130° | 20km/h | 27202m | 4.9m/s | -46.8°C | 0.4% | 19.4hPa | 2.6V | 00:00:00 | 00:00:00 | 00:00:00 | |
| DL1CLM-18 | 2026-09-03 12:20:52 | 52.46358 | 11.29064 | 131° | 20km/h | 27202m | 4.9m/s | -46.8°C | 0.4% | 19.4hPa | 2.6V | 00:00:00 | 00:00:00 | 00:00:00 | |
| DL1XH1-15 | 2026-09-03 12:20:51 | 52.46391 | 11.29039 | 165° | 26km/h | 27168m | 6.8m/s | -46.8°C | 2.4% | 19.5hPa | 2.6V | 03:32:38 | 01:49:08 | 00:00:00 | |
| DL1XH-west | 2026-09-03 12:20:50 | 52.46367 | 11.29051 | 147° | 24km/h | 27191m | 6m/s | -46.8°C | 0% | 19.4hPa | 2.7V | 03:32:58 | 01:49:12 | 00:00:00 | |
| HSKMA3-T | 2026-09-03 12:20:47 | 52.46391 | 11.29039 | 166° | 26km/h | 27168m | 6.8m/s | -46.8°C | 0% | 19.5hPa | 2.6V | 03:32:58 | 01:49:08 | 00:00:00 | |
| AA1-15 | 2026-09-03 12:20:47 | 52.46385 | 11.29041 | 169° | 26km/h | 27174m | 5.1m/s | -46.8°C | 0% | 19.5hPa | 2.6V | 03:32:58 | 01:49:09 | 00:00:00 | |
| DD8BA-10 | 2026-09-03 12:20:45 | 52.46397 | 11.29036 | 161° | 24km/h | 27161m | 6.5m/s | -46.7°C | 2.5% | 19.5hPa | 2.7V | 00:00:00 | 00:00:00 | 00:00:00 | |
| DL1NUX | 2026-09-03 12:20:44 | 52.46429 | 11.29011 | 140° | 27km/h | 27128m | 6.3m/s | -46.8°C | 2.5% | 19.6hPa | 2.7V | 03:32:45 | 01:49:01 | 00:00:00 | |
| GOEST3-10 | 2026-09-03 12:20:44 | 52.46402 | 11.29032 | 157° | 24km/h | 27156m | 5.2m/s | -46.7°C | 2.5% | 19.5hPa | 2.7V | 03:32:00 | 00:00:00 | 00:00:00 | |
| DM0DOS-11 | 2026-09-03 12:20:43 | 52.46424 | 11.29018 | 149° | 26km/h | 27133m | 4.3m/s | -46.7°C | 2.5% | 19.6hPa | 2.7V | 03:32:44 | 01:49:02 | 00:00:00 | |
| DO2SHX-10 | 2026-09-03 12:20:42 | 52.46413 | 11.29025 | 161° | 24km/h | 27144m | 6.5m/s | -46.7°C | 2.4% | 19.5hPa | 2.6V | 00:00:00 | 01:49:04 | 00:00:00 | |
| DB0DAN | 2026-09-03 12:20:40 | 52.46424 | 11.29018 | 150° | 26km/h | 27133m | 4.3m/s | -46.7°C | 0.4% | 19.58hPa | 2.7V | 00:00:00 | 00:00:00 | 00:00:00 | |
| DL1XH-west | 2026-09-03 12:20:40 | 52.46430 | 11.29011 | 141° | 27km/h | 27128m | 6.3m/s | -46.8°C | 0% | 19.6hPa | 2.7V | 03:32:58 | 01:49:01 | 00:00:00 | |
| DF8AY | 2026-09-03 12:20:39 | 52.46449 | 11.28971 | 148° | 22km/h | 27099m | 6.7m/s | -46.8°C | 0% | 19.7hPa | 2.6V | 03:32:58 | 01:48:56 | 00:00:00 | |
| DO2SHX-10 | 2026-09-03 12:20:39 | 52.46430 | 11.29011 | 141° | 26km/h | 27128m | 6.3m/s | -46.8°C | 2.5% | 19.5hPa | 2.6V | 00:00:00 | 01:49:01 | 00:00:00 | |
| DL1XH1-15 | 2026-09-03 12:20:37 | 52.46442 | 11.28985 | 121° | 26km/h | 27110m | 4.7m/s | -46.6°C | 2.4% | 19.6hPa | 2.6V | 03:32:48 | 01:48:58 | 00:00:00 | |
| AA1-15 | 2026-09-03 12:20:36 | 52.46442 | 11.28985 | 122° | 26km/h | 27110m | 4.7m/s | -46.6°C | 0% | 19.7hPa | 2.6V | 03:32:58 | 01:48:58 | 00:00:00 | |
| HSKMA3-T | 2026-09-03 12:20:35 | 52.46445 | 11.28977 | 131° | 22km/h | 27105m | 4.6m/s | -46.7°C | 0% | 19.6hPa | 2.6V | 03:32:58 | 01:48:57 | 00:00:00 | |
| DO2SHX-10 | 2026-09-03 12:20:35 | 52.46445 | 11.28977 | 131° | 22km/h | 27105m | 4.6m/s | -46.7°C | 2.4% | 19.6hPa | 2.6V | 03:32:00 | 01:48:57 | 00:00:00 | |
| DL1NUX | 2026-09-03 12:20:34 | 52.46470 | 11.28972 | 181° | 7km/h | 27069m | 6.4m/s | -46.8°C | 2.5% | 19.8hPa | 2.6V | 03:32:55 | 01:48:51 | 00:00:00 | |
| DL1XH-west | 2026-09-03 12:20:27 | 52.46472 | 11.28970 | 115° | 7km/h | 27057m | 5.9m/s | -47°C | 0% | 19.8hPa | 2.6V | 03:32:58 | 01:48:49 | 00:00:00 | |
| DL1XH1-15 | 2026-09-03 12:20:27 | 52.46473 | 11.28967 | 109° | 9km/h | 27050m | 6.3m/s | -46.8°C | 2.4% | 19.8hPa | 2.7V | 03:32:58 | 01:48:48 | 00:00:00 | |
| AA1-15 | 2026-09-03 12:20:26 | 52.46473 | 11.28967 | 109° | 9km/h | 27050m | 6.3m/s | -46.8°C | 0% | 19.8hPa | 2.7V | 03:32:58 | 01:48:48 | 00:00:00 | |
| DB0DAN | 2026-09-03 12:20:25 | 52.46474 | 11.28962 | 108° | 15km/h | 27045m | 5.2m/s | -46.7°C | 0.4% | 19.84hPa | 2.7V | 00:00:00 | 00:00:00 | 00:00:00 | |
| HSKMA3-T | 2026-09-03 12:20:25 | 52.46474 | 11.28962 | 108° | 15km/h | 27045m | 5.2m/s | -46.7°C | 0% | 19.8hPa | 2.7V | 03:33:49 | 01:48:47 | 00:00:00 | |
| DL1NUX | 2026-09-03 12:20:24 | 52.46484 | 11.28913 | 146° | 16km/h | 27013m | 6.3m/s | -46.7°C | 2.4% | 19.9hPa | 2.7V | 03:33:05 | 01:48:41 | 00:00:00 | |
| DF8AY | 2026-09-03 12:20:22 | 52.46477 | 11.28937 | 101° | 26km/h | 27027m | 6.2m/s | -46.8°C | 0% | 19.9hPa | 2.6V | 03:33:49 | 01:48:44 | 00:00:00 | |
| SP3WXH-11 | 2026-09-03 12:20:22 | 52.46479 | 11.28926 | 106° | 24km/h | 27022m | 4.2m/s | -46.6°C | 0.4% | 19.9hPa | 2.7V | 00:00:00 | 00:00:00 | 00:00:00 | |
| SO1NDE-10 | 2026-09-03 12:20:21 | 52.46479 | 11.28926 | 107° | 15km/h | 27023m | 4.2m/s | -46.6°C | 2.4% | 19.8hPa | 2.7V | 03:33:00 | 01:48:43 | 00:00:00 | |
| DL1CLM-18 | 2026-09-03 12:20:20 | 52.46479 | 11.28926 | 108° | 24km/h | 27023m | 4.2m/s | -46.6°C | 0.4% | 19.9hPa | 2.7V | 03:33:00 | 00:00:00 | 00:00:00 | |
| DO2SHX-10 | 2026-09-03 12:20:19 | 52.46484 | 11.28913 | 147° | 18km/h | 27013m | 6.3m/s | -46.7°C | 2.4% | 19.9hPa | 2.7V | 00:00:00 | 01:48:41 | 00:00:00 | |
| DL1XH1-15 | 2026-09-03 12:20:17 | 52.46495 | 11.28918 | 228° | 18km/h | 26995m | 4.1m/s | -46.8°C | 2.4% | 20hPa | 2.7V | 03:33:08 | 01:48:38 | 00:00:00 | |
| AA1-15 | 2026-09-03 12:20:16 | 52.46495 | 11.28918 | 228° | 18km/h | 26995m | 4.1m/s | -46.8°C | 0% | 20hPa | 2.7V | 03:33:49 | 01:48:38 | 00:00:00 | |
| HSKMA3-T | 2026-09-03 12:20:15 | 52.46498 | 11.28927 | 284° | 5km/h | 26986m | 5.6m/s | -46.9°C | 0% | 20hPa | 2.6V | 03:33:49 | 01:48:36 | 00:00:00 | |
| DD8BA-10 | 2026-09-03 12:20:15 | 52.46497 | 11.28923 | 246° | 16km/h | 26991m | 4.6m/s | -46.8°C | 2.5% | 19.9hPa | 2.6V | 03:33:00 | 00:00:00 | 00:00:00 | |
| GOEST3-10 | 2026-09-03 12:20:14 | 52.46498 | 11.28927 | 285° | 18km/h | 26986m | 5.5m/s | -46.8°C | 2.5% | 20.0hPa | 2.7V | 00:00:00 | 00:00:00 | 00:00:00 | |
| DO2SHX-10 | 2026-09-03 12:20:12 | 52.46494 | 11.28923 | 50° | 24km/h | 26974m | 6.0m/s | -47.0°C | 2.5% | 20.0hPa | 2.7V | 00:00:00 | 01:48:34 | 00:00:00 | |
| DL1NUX | 2026-09-03 12:20:11 | 52.46487 | 11.28895 | 84° | 26km/h | 26956m | 5.4m/s | -47.2°C | 2.5% | 20.1hPa | 2.6V | 03:33:15 | 01:48:31 | 00:00:00 | |
| DB0DAN | 2026-09-03 12:20:10 | 52.46489 | 11.28906 | 73° | 26km/h | 26962m | 5.7m/s | -47.3°C | 0.4% | 20.08hPa | 2.7V | 00:00:00 | 00:00:00 | 00:00:00 | |
| DO2SHX-10 | 2026-09-03 12:20:10 | 52.46487 | 11.28895 | 85° | 16km/h | 26957m | 5.3m/s | -47.2°C | 2.5% | 20.1hPa | 2.7V | 03:33:00 | 01:48:31 | 00:00:00 | |
| AP2371 | 2026-09-03 12:20:09 | 52.46486 | 11.28879 | 183° | 11km/h | 26501m | 6.2m/s | -47.3°C | 0% | 0hPa | 2.7V | 00:00:00 | 00:00:00 | 00:00:00 | |
| DL1XH1-15 | 2026-09-03 12:20:08 | 52.46489 | 11.28874 | 115° | 7km/h | 26941m | 5.9m/s | -47.2°C | 2.5% | 20.1hPa | 2.7V | 03:33:18 | 01:48:28 | 00:00:00 | |
| DL1XH-west | 2026-09-03 12:20:06 | 52.46489 | 11.28874 | 116° | 7km/h | 26941m | 5.9m/s | -47.2°C | 0% | 20.1hPa | 2.7V | 03:33:49 | 01:48:28 | 00:00:00 | |
| HSKMA3-T | 2026-09-03 12:20:04 | 52.46489 | 11.28874 | 317° | 7km/h | 26928m | 6.7m/s | -47.2°C | 0% | 20.2hPa | 2.7V | 03:33:49 | 01:48:26 | 00:00:00 | |
| DL1NUX | 2026-09-03 12:20:04 | 52.46478 | 11.28885 | 33° | 5km/h | 26899m | 5.5m/s | -47.2°C | 2.5% | 20.3hPa | 2.7V | 03:33:25 | 01:48:21 | 00:00:00 | |
| DF8AY | 2026-09-03 12:19:57 | 52.46475 | 11.28879 | 51° | 15km/h | 26887m | 7.1m/s | -47.3°C | 0% | 20.3hPa | 2.7V | 03:33:49 | 01:48:19 | 00:00:00 | |
| DL1XH1-15 | 2026-09-03 12:19:57 | 52.46473 | 11.28875 | 46° | 16km/h | 26881m | 6.2m/s | -47.2°C | 2.5% | 20.3hPa | 2.6V | 03:33:28 | 01:48:18 | 00:00:00 | |
| AA1-15 | 2026-09-03 12:19:56 | 52.46472 | 11.28875 | 46° | 16km/h | 26881m | 6.2m/s | -47.2°C | 0% | 20.4hPa | 2.6V | 03:33:49 | 01:48:18 | 00:00:00 | |
| HTAHTA | 2026-09-03 12:19:56 | 52.46464 | 11.28862 | 291° | 9km/h | 26841m | 7.2m/s | 0°C | -1.0% | 20.4hPa | 2.6V | 00:00:00 | 00:00:00 | 00:00:00 | |
| DB0DAN | 2026-09-03 12:19:55 | 52.46469 | 11.28870 | 46° | 16km/h | 26875m | 5.2m/s | -47.3°C | 0.4% | 20.36hPa | 2.6V | 00:00:00 | 00:00:00 | 00:00:00 | |
| DL1XH-west | 2026-09-03 12:19:55 | 52.46469 | 11.28870 | 46° | 16km/h | 26875m | 5.2m/s | -47.3°C | 0% | 20.4hPa | 2.6V | 03:33:49 | 01:48:17 | 00:00:00 | |
| HSKMA3-T | 2026-09-03 12:19:54 | 52.46467 | 11.28865 | 48° | 15km/h | 26870m | 5.3m/s | -47.3°C | 0% | 20.4hPa | 2.6V | 03:33:49 | 01:48:16 | 00:00:00 | |
| SP3WXH-11 | 2026-09-03 12:19:51 | 52.46464 | 11.28859 | 278° | 5km/h | 26847m | 5.8m/s | -47.5°C | 0.4% | 20.4hPa | 2.7V | 00:00:00 | 00:00:00 | 00:00:00 | |
| MECKS9 | 2026-09-03 12:19:50 | 52.46464 | 11.28858 | 0° | 0km/h | 26853m | 4.7m/s | -47.4°C | 0% | 0hPa | 2.7V | 00:00:00 | 00:00:00 | 00:00:00 | |
| DJ8HS-15 | 2026-09-03 12:19:49 | 52.46464 | 11.28862 | 292° | 11km/h | 26841m | 7.1m/s | -47.6°C | 2.5% | 20.4hPa | 2.7V | 03:33:00 | 01:48:11 | 00:00:00 | |
| DL1XH1-15 | 2026-09-03 12:19:48 | 52.46459 | 11.28879 | 288° | 15km/h | 26823m | 6m/s | -47.6°C | 2.5% | 20.5hPa | 2.7V | 03:33:38 | 01:48:08 | 00:00:00 | |
| DF8AY | 2026-09-03 12:19:46 | 52.46459 | 11.28879 | 289° | 15km/h | 26823m | 6m/s | -47.6°C | 0% | 20.5hPa | 2.7V | 03:33:49 | 01:48:08 | 00:00:00 | |
| DL1XH-west | 2026-09-03 12:19:45 | 52.46458 | 11.28884 | 279° | 11km/h | 26817m | 6.4m/s | -47.6°C | 0% | 20.5hPa | 2.7V | 03:33:49 | 01:48:07 | 00:00:00 | |
| HSKMA3-T | 2026-09-03 12:19:44 | 52.46458 | 11.28887 | 270° | 5km/h | 26811m | 5.9m/s | -47.7°C | 0% | 20.5hPa | 2.7V | 03:33:49 | 01:48:06 | 00:00:00 | |
| DO2SHX-10 | 2026-09-03 12:19:42 | 52.46458 | 11.28887 | 51° | 9km/h | 26800m | 6.9m/s | -47.6°C | 2.6% | 20.5hPa | 2.6V | 03:33:00 | 01:48:04 | 00:00:00 | |
| S3001 | 2026-09-03 12:19:40 | 52.46453 | 11.28876 | 65° | 11km/h | 26782m | 4.7m/s | -47.4°C | 0.4% | 20.6hPa | 2.7V | 00:00:00 | 00:00:00 | 00:00:00 | |
| DO2SHX-10 | 2026-09-03 12:19:39 | 52.46453 | 11.28876 | 66° | 9km/h | 26783m | 4.6m/s | -47.4°C | 2.6% | 20.6hPa | 2.7V | 00:00:00 | 01:48:01 | 00:00:00 | |
| DL1XH1-15 | 2026-09-03 12:19:38 | 52.46454 | 11.28868 | 181° | 5km/h | 26765m | 4.8m/s | -47.5°C | 2.5% | 20.7hPa | 2.7V | 03:33:48 | 01:47:58 | 00:00:00 | |
| SMARD9-15 | 2026-09-03 12:19:38 | 52.46453 | 11.28869 | 128° | 5km/h | 26771m | 5.8m/s | -47.5°C | 0.4% | 20.7hPa | 2.7V | 00:00:00 | 00:00:00 | 00:00:00 | |
| DO2SHX-10 | 2026-09-03 12:19:37 | 52.46454 | 11.28868 | 182° | 7km/h | 26766m | 4.8m/s | -47.5°C | 2.5% | 20.6hPa | 2.7V | 00:00:00 | 01:47:58 | 00:00:00 | |
| DM0DOS-11 | 2026-09-03 12:19:35 | 52.46456 | 11.28901 | 264° | 18km/h | 26731m | 6.3m/s | -47.7°C | 2.6% | 20.8hPa | 2.7V | 03:33:54 | 01:47:52 | 00:00:00 | |
| AA1-15 | 2026-09-03 12:19:34 | 52.46456 | 11.28873 | 261° | 11km/h | 26754m | 6.9m/s | -47.7°C | 0% | 20.7hPa | 2.6V | 03:34:40 | 01:47:56 | 00:00:00 | |
| DO2SHX-10 | 2026-09-03 12:19:33 | 52.46456 | 11.28878 | 276° | 18km/h | 26748m | 5.7m/s | -47.6°C | 2.6% | 20.7hPa | 2.6V | 00:00:00 | 01:47:55 | 00:00:00 | |
| HSKMA3-T | 2026-09-03 12:19:33 | 52.46456 | 11.28878 | 276° | 16km/h | 26748m | 5.8m/s | -47.7°C | 0% | 20.8hPa | 2.6V | 03:34:40 | 01:47:55 | 00:00:00 | |
| GOEST3-10 | 2026-09-03 12:19:32 | 52.46456 | 11.28886 | 277° | 15km/h | 26743m | 4.9m/s | -47.6°C | 2.5% | 20.7hPa | 2.7V | 00:00:00 | 00:00:00 | 00:00:00 | |
| DF8AY-15 | 2026-09-03 12:19:31 | 52.46456 | 11.28894 | 273° | 9km/h | 26737m | 5.4m/s | -47.6°C | 2.6% | 20.7hPa | 2.6V | 03:33:00 | 01:47:53 | 00:00:00 | |
| 13BRC | 2026-09-03 12:19:30 | 52.46456 | 11.28901 | 266° | 18km/h | 26732m | 6.3m/s | -47.7°C | 0.4% | 20.8hPa | 2.6V | 03:34:00 | 00:00:00 | 00:00:00 | |
| DJ8HS-15 | 2026-09-03 12:19:29 | 52.46456 | 11.28908 | 252° | 9km/h | 26726m | 5.2m/s | -47.6°C | 2.5% | 20.7hPa | 2.6V | 00:00:00 | 01:47:51 | 00:00:00 | |
| DF7ER-10 | 2026-09-03 12:19:28 | 52.46456 | 11.28908 | 252° | 13km/h | 26726m | 5.3m/s | -47.7°C | 0.4% | 20.8hPa | 2.6V | 03:34:00 | 00:00:00 | 00:00:00 | |
| DL1XH1-15 | 2026-09-03 12:19:27 | 52.46458 | 11.28912 | 56° | 5km/h | 26709m | 6.5m/s | -47.8°C | 2.6% | 20.8hPa | 2.6V | 03:33:58 | 01:47:48 | 00:00:00 | |
| DO3MHA-11 | 2026-09-03 12:19:27 | 52.46458 | 11.28913 | 210° | 9km/h | 26715m | 5.8m/s | -47.7°C | 2.6% | 20.8hPa | 2.6V | 00:00:00 | 01:47:49 | 00:00:00 | |
| DB0DAN | 2026-09-03 12:19:25 | 52.46457 | 11.28910 | 58° | 9km/h | 26702m | 6m/s | -47.8°C | 0.4% | 20.88hPa | 2.7V | 00:00:00 | 00:00:00 | 00:00:00 | |
| DL1XH-west | 2026-09-03 12:19:24 | 52.46456 | 11.28906 | 65° | 11km/h | 26697m | 5m/s | -47.7°C | 0% | 20.9hPa | 2.7V | 03:34:40 | 01:47:46 | 00:00:00 | |
| AA1-15 | 2026-09-03 12:19:23 | 52.46455 | 11.28902 | 84° | 9km/h | 26692m | 5.2m/s | -47.7°C | 0% | 20.9hPa | 2.7V | 03:34:40 | 01:47:45 | 00:00:00 | |
| DM0DOS-11 | 2026-09-03 12:19:23 | 52.46459 | 11.28897 | 207° | 11km/h | 26675m | 4.8m/s | -47.8°C | 2.6% | 21hPa | 2.6V | 03:34:04 | 01:47:42 | 00:00:00 | |
| HSKMA3-T | 2026-09-03 12:19:22 | 52.46455 | 11.28899 | 117° | 7km/h | 26686m | 6.5m/s | -47.8°C | 0% | 20.9hPa | 2.7V | 03:34:40 | 01:47:44 | 00:00:00 | |
| GOEST3-10 | 2026-09-03 12:19:22 | 52.46455 | 11.28899 | 117° | 9km/h | 26686m | 6.4m/s | -47.7°C | 2.6% | 20.9hPa | 2.6V | 03:34:00 | 00:00:00 | 00:00:00 | |
| SO1NDE-10 | 2026-09-03 12:19:21 | 52.46457 | 11.28897 | 170° | 9km/h | 26680m | 5.5m/s | -47.7°C | 2.6% | 20.9hPa | 2.6V | 00:00:00 | 01:47:43 | 00:00:00 | |
| DL1NUX | 2026-09-03 12:19:20 | 52.46461 | 11.28900 | 234° | 11km/h | 26669m | 6m/s | -47.9°C | 2.5% | 21hPa | 2.6V | 03:34:05 | 01:47:41 | 00:00:00 | |
| SP3WXH-11 | 2026-09-03 12:19:20 | 52.46461 | 11.28900 | 234° | 11km/h | 26669m | 6.0m/s | -47.9°C | 0.4% | 21.0hPa | 2.7V | 00:00:00 | 00:00:00 | 00:00:00 | |
| DL1CLM-18 | 2026-09-03 12:19:19 | 52.46461 | 11.28900 | 235° | 11km/h | 26669m | 6.0m/s | -47.9°C | 0.4% | 21.0hPa | 2.7V | 00:00:00 | 00:00:00 | 00:00:00 | |
| DO3MHA-11 | 2026-09-03 12:19:17 | 52.46462 | 11.28910 | 282° | 9km/h | 26657m | 4.9m/s | -47.8°C | 2.5% | 21.0hPa | 2.7V | 03:34:00 | 01:47:39 | 00:00:00 | |
| DO2SHX-10 | 2026-09-03 12:19:15 | 52.46460 | 11.28917 | 295° | 4km/h | 26647m | 5.7m/s | -48.0°C | 2.6% | 21.0hPa | 2.7V | 00:00:00 | 01:47:37 | 00:00:00 | |
| DL1NUX | 2026-09-03 12:19:14 | 52.46463 | 11.28902 | 87° | 11km/h | 26612m | 5.3m/s | -47.9°C | 2.6% | 21.2hPa | 2.7V | 03:34:15 | 01:47:31 | 00:00:00 | |
| DL1XH-west | 2026-09-03 12:19:13 | 52.46461 | 11.28918 | 119° | 5km/h | 26635m | 5.5m/s | -48°C | 0% | 21.1hPa | 2.6V | 03:34:40 | 01:47:35 | 00:00:00 | |
| AA1-15 | 2026-09-03 12:19:12 | 52.46462 | 11.28915 | 116° | 9km/h | 26630m | 5.2m/s | -47.8°C | 0% | 21.1hPa | 2.6V | 03:34:40 | 01:47:34 | 00:00:00 | |
| DF8AY | 2026-09-03 12:19:12 | 52.46463 | 11.28911 | 109° | 11km/h | 26624m | 6.1m/s | -47.8°C | 0% | 21.1hPa | 2.7V | 03:34:40 | 01:47:33 | 00:00:00 | |
| DM0DOS-11 | 2026-09-03 12:19:11 | 52.46463 | 11.28906 | 98° | 11km/h | 26618m | 6.2m/s | -47.9°C | 2.6% | 21.1hPa | 2.7V | 03:34:14 | 01:47:32 | 00:00:00 | |
| DB0DAN | 2026-09-03 12:19:10 | 52.46463 | 11.28906 | 99° | 11km/h | 26618m | 6.2m/s | -47.9°C | 0.4% | 21.15hPa | 2.7V | 00:00:00 | 00:00:00 | 00:00:00 | |
| AM1SDL-15 | 2026-09-03 12:19:10 | 52.46463 | 11.28906 | 99° | 11km/h | 26618m | 6.2m/s | -47.8°C | 2.6% | 21.1hPa | 2.7V | 00:00:00 | 01:47:32 | 00:00:00 | |
| S3001 | 2026-09-03 12:19:09 | 52.46463 | 11.28897 | 86° | 9km/h | 26607m | 4.6m/s | -48.0°C | 0.4% | 21.2hPa | 2.6V | 00:00:00 | 00:00:00 | 00:00:00 | |
| SMARD9-15 | 2026-09-03 12:19:07 | 52.46464 | 11.28889 | 111° | 9km/h | 26597m | 6.3m/s | -48.2°C | 0.4% | 21.2hPa | 2.6V | 00:00:00 | 00:00:00 | 00:00:00 | |
| EDDB2-12 | 2026-09-03 12:19:06 | 52.46465 | 11.28885 | 134° | 9km/h | 26591m | 5.6m/s | -48.3°C | 0.4% | 21.2hPa | 2.6V | 00:00:00 | 00:00:00 | 00:00:00 | |
| DM0DOS-11 | 2026-09-03 12:19:05 | 52.46469 | 11.28894 | 283° | 15km/h | 26562m | 4.9m/s | -48.3°C | 2.6% | 21.4hPa | 2.6V | 03:34:24 | 01:47:22 | 00:00:00 | |
| DL1NUX | 2026-09-03 12:19:04 | 52.46468 | 11.28899 | 279° | 11km/h | 26558m | 4.6m/s | -48.3°C | 2.6% | 21.3hPa | 2.6V | 03:34:25 | 01:47:21 | 00:00:00 | |
| DL1XH-west | 2026-09-03 12:19:02 | 52.46470 | 11.28885 | 257° | 7km/h | 26575m | 7m/s | -48.2°C | 0% | 21.3hPa | 2.7V | 03:34:40 | 01:47:24 | 00:00:00 | |
| AA1-15 | 2026-09-03 12:19:02 | 52.46470 | 11.28889 | 280° | 11km/h | 26568m | 6.3m/s | -48.2°C | 0% | 21.3hPa | 2.7V | 03:34:40 | 01:47:23 | 00:00:00 | |
| HSKMA3-T | 2026-09-03 12:19:01 | 52.46469 | 11.28894 | 283° | 15km/h | 26562m | 4.9m/s | -48.3°C | 0% | 21.4hPa | 2.6V | 03:34:40 | 01:47:22 | 00:00:00 | |
| BUE01 | 2026-09-03 12:18:59 | 52.46468 | 11.28902 | 258° | 5km/h | 26552m | 6.2m/s | -48.2°C | 0.4% | 21.4hPa | 2.7V | 00:00:00 | 00:00:00 | 00:00:00 | |
| AM1SDL-15 | 2026-09-03 12:18:58 | 52.46468 | 11.28902 | 259° | 11km/h | 26552m | 6.1m/s | -48.1°C | 2.5% | 21.3hPa | 2.7V | 00:00:00 | 01:47:20 | 00:00:00 | |
| DL1XH1-15 | 2026-09-03 12:18:57 | 52.46471 | 11.28902 | 147° | 13km/h | 26540m | 5.4m/s | -48.2°C | 2.5% | 21.4hPa | 2.7V | 03:34:28 | 01:47:18 | 00:00:00 | |
| DO2SHX-10 | 2026-09-03 12:18:57 | 52.46469 | 11.28903 | 177° | 11km/h | 26546m | 6.2m/s | -48.1°C | 2.5% | 21.3hPa | 2.7V | 00:00:00 | 01:47:19 | 00:00:00 | |
| DF7ER-10 | 2026-09-03 12:18:56 | 52.46469 | 11.28903 | 178° | 7km/h | 26546m | 6.2m/s | -48.1°C | 0.4% | 21.4hPa | 2.7V | 03:34:00 | 00:00:00 | 00:00:00 | |
| DB0DAN | 2026-09-03 12:18:55 | 52.46474 | 11.28898 | 132° | 15km/h | 26535m | 5.1m/s | -48.3°C | 0.5% | 21.42hPa | 2.7V | 00:00:00 | 00:00:00 | 00:00:00 | |
| DL1NUX | 2026-09-03 12:18:54 | 52.46486 | 11.28879 | 182° | 11km/h | 26501m | 6.2m/s | -48.7°C | 2.7% | 21.6hPa | 2.7V | 03:34:35 | 01:47:11 | 00:00:00 | |
| DM0DOS-11 | 2026-09-03 12:18:54 | 52.46483 | 11.28879 | 166° | 9km/h | 26507m | 6.7m/s | -48.6°C | 2.6% | 21.5hPa | 2.7V | 03:34:34 | 01:47:12 | 00:00:00 | |
| DL1XH-west | 2026-09-03 12:18:52 | 52.46480 | 11.28884 | 120° | 11km/h | 26518m | 4.8m/s | -48.3°C | 0% | 21.5hPa | 2.6V | 03:34:40 | 01:47:14 | 00:00:00 | |
| AA1-15 | 2026-09-03 12:18:51 | 52.46483 | 11.28879 | 167° | 9km/h | 26507m | 6.7m/s | -48.6°C | 0% | 21.5hPa | 2.7V | 03:34:40 | 01:47:12 | 00:00:00 | |
| HSKMA3-T | 2026-09-03 12:18:50 | 52.46486 | 11.28879 | 182° | 11km/h | 26501m | 6.2m/s | -48.7°C | 0% | 21.6hPa | 2.7V | 03:34:40 | 01:47:11 | 00:00:00 | |
| 13BRC | 2026-09-03 12:18:49 | 52.46486 | 11.28879 | 183° | 11km/h | 26501m | 6.2m/s | -48.7°C | 0.5% | 21.6hPa | 2.7V | 03:34:00 | 00:00:00 | 00:00:00 | |
| DL4XJ-10 | 2026-09-03 12:18:48 | 52.46489 | 11.28879 | 192° | 16km/h | 26496m | 4.8m/s | -47.1°C | 0% | 0hPa | 2.7V | 00:00:00 | 00:00:00 | 00:00:00 | |
| GOEST3-10 | 2026-09-03 12:18:47 | 52.46491 | 11.28880 | 198° | 9km/h | 26491m | 4.6m/s | -48.8°C | 2.7% | 21.5hPa | 2.7V | 00:00:00 | 01:47:09 | 00:00:00 | |
| DO3MHA-11 | 2026-09-03 12:18:46 | 52.46492 | 11.28881 | 200° | 15km/h | 26486m | 6.1m/s | -48.8°C | 2.7% | 21.6hPa | 2.6V | 00:00:00 | 01:47:08 | 00:00:00 | |
| DO2SHX-10 | 2026-09-03 12:18:45 | 52.46492 | 11.28880 | 40° | 11km/h | 26480m | 6.3m/s | -48.9°C | 2.7% | 21.6hPa | 2.6V | 00:00:00 | 01:47:07 | 00:00:00 | |
| DL1NUX | 2026-09-03 12:18:44 | 52.46493 | 11.28842 | 121° | 22km/h | 26445m | 5.2m/s | -49.1°C | 2.7% | 21.7hPa | 2.6V | 03:34:45 | 01:47:01 | 00:00:00 | |
| SONCRA | 2026-09-03 12:18:44 | 52.46491 | 11.28878 | 51° | 11km/h | 26473m | 5.3m/s | -49.0°C | 0.4% | 21.6hPa | 2.7V | 00:00:00 | 00:00:00 | 00:00:00 | |
| DL1XH-west | 2026-09-03 12:18:41 | 52.46488 | 11.28859 | 100° | 20km/h | 26457m | 6.6m/s | -49°C | 0% | 21.7hPa | 2.7V | 03:35:31 | 01:47:03 | 00:00:00 | |
| DB0DAN | 2026-09-03 12:18:40 | 52.46490 | 11.28851 | 115° | 22km/h | 26451m | 5.7m/s | -49°C | 0.4% | 21.72hPa | 2.7V | 00:00:00 | 00:00:00 | 00:00:00 | |
| HSKMA3-T | 2026-09-03 12:18:39 | 52.46493 | 11.28842 | 121° | 22km/h | 26445m | 5.2m/s | -49.1°C | 0% | 21.7hPa | 2.6V | 03:35:31 | 01:47:01 | 00:00:00 | |
| DO2SHX-10 | 2026-09-03 12:18:39 | 52.46492 | 11.28842 | 122° | 18km/h | 26446m | 5.2m/s | -49.0°C | 2.7% | 21.7hPa | 2.6V | 00:00:00 | 01:47:01 | 00:00:00 | |
| DL1XH1-15 | 2026-09-03 12:18:37 | 52.46500 | 11.28825 | 126° | 13km/h | 26426m | 5.4m/s | -49°C | 2.6% | 21.8hPa | 2.7V | 03:34:48 | 01:46:58 | 00:00:00 | |
| DB0NH | 2026-09-03 12:18:37 | 52.46498 | 11.28829 | 126° | 16km/h | 26433m | 6.4m/s | -49.0°C | 2.7% | 21.7hPa | 2.6V | 03:34:00 | 01:46:59 | 00:00:00 | |
| DO2SHX-10 | 2026-09-03 12:18:36 | 52.46500 | 11.28825 | 127° | 13km/h | 26427m | 5.4m/s | -49.0°C | 2.6% | 21.7hPa | 2.6V | 00:00:00 | 01:46:58 | 00:00:00 | |
| TFSTFS | 2026-09-03 12:18:35 | 52.46502 | 11.28820 | 131° | 13km/h | 26421m | 5.9m/s | -49.1°C | 0.4% | 21.8hPa | 2.6V | 03:35:00 | 00:00:00 | 00:00:00 | |
| DM0DOS-11 | 2026-09-03 12:18:34 | 52.46502 | 11.28790 | 52° | 24km/h | 26391m | 6.5m/s | -49.2°C | 2.7% | 21.9hPa | 2.6V | 03:34:54 | 01:46:52 | 00:00:00 | |
| DL1NUX | 2026-09-03 12:18:34 | 52.46498 | 11.28782 | 52° | 27km/h | 26386m | 4.5m/s | -49.3°C | 2.7% | 21.9hPa | 2.7V | 03:34:55 | 01:46:51 | 00:00:00 | |
| DL1XH-west | 2026-09-03 12:18:30 | 52.46502 | 11.28790 | 52° | 24km/h | 26391m | 6.5m/s | -49.2°C | 0% | 21.9hPa | 2.6V | 03:35:31 | 01:46:52 | 00:00:00 | |
| DF8AY | 2026-09-03 12:18:29 | 52.46492 | 11.28734 | 112° | 20km/h | 26359m | 5.1m/s | -49.6°C | 0% | 22hPa | 2.6V | 03:35:31 | 01:46:46 | 00:00:00 | |
| AA1-15 | 2026-09-03 12:18:29 | 52.46498 | 11.28782 | 52° | 27km/h | 26386m | 4.5m/s | -49.3°C | 0% | 21.9hPa | 2.7V | 03:35:31 | 01:46:51 | 00:00:00 | |
| DL1XH1-15 | 2026-09-03 12:18:28 | 52.46490 | 11.28752 | 88° | 26km/h | 26369m | 5.9m/s | -49.5°C | 2.8% | 22hPa | 2.7V | 03:34:58 | 01:46:48 | 00:00:00 | |
| HSKMA3-T | 2026-09-03 12:18:27 | 52.46491 | 11.28762 | 71° | 26km/h | 26376m | 6.5m/s | -49.5°C | 0% | 22hPa | 2.7V | 03:35:31 | 01:46:49 | 00:00:00 | |
| DL4XJ-10 | 2026-09-03 12:18:27 | 52.46491 | 11.28762 | 71° | 15km/h | 26376m | 6.4m/s | -47.8°C | 0% | 0hPa | 2.6V | 00:00:00 | 00:00:00 | 00:00:00 | |
| DB0DAN | 2026-09-03 12:18:25 | 52.46491 | 11.28742 | 103° | 22km/h | 26364m | 4.9m/s | -49.6°C | 0.4% | 21.98hPa | 2.6V | 00:00:00 | 00:00:00 | 00:00:00 | |
| DF7ER-10 | 2026-09-03 12:18:25 | 52.46490 | 11.28742 | 104° | 24km/h | 26365m | 4.9m/s | -49.6°C | 0.5% | 22.0hPa | 2.7V | 03:35:00 | 00:00:00 | 00:00:00 | |
| DD8BA-10 | 2026-09-03 12:18:24 | 52.46492 | 11.28734 | 112° | 13km/h | 26359m | 5.0m/s | -49.5°C | 2.8% | 22.0hPa | 2.7V | 00:00:00 | 00:00:00 | 00:00:00 | |
| DL1XH-15 | 2026-09-03 12:18:23 | 52.46494 | 11.28712 | 64° | 9km/h | 26331m | 6.1m/s | -49.3°C | 2.9% | 22.1hPa | 2.7V | 03:35:05 | 01:46:41 | 00:00:00 | |
| DO9LL-15 | 2026-09-03 12:18:23 | 52.46494 | 11.28727 | 115° | 11km/h | 26354m | 6.3m/s | -49.5°C | 2.9% | 22.0hPa | 2.7V | 00:00:00 | 01:46:45 | 00:00:00 | |
| DM0DOS-11 | 2026-09-03 12:18:22 | 52.46495 | 11.28716 | 63° | 7km/h | 26336m | 5.3m/s | -49.3°C | 2.9% | 22.1hPa | 2.7V | 03:35:04 | 01:46:42 | 00:00:00 | |
| DL1XH-west | 2026-09-03 12:18:19 | 52.46494 | 11.28712 | 64° | 9km/h | 26331m | 6.1m/s | -49.3°C | 0% | 22.1hPa | 2.7V | 03:35:31 | 01:46:41 | 00:00:00 | |
| AA1-15 | 2026-09-03 12:18:18 | 52.46493 | 11.28708 | 65° | 13km/h | 26325m | 6.2m/s | -49.3°C | 0% | 22.1hPa | 2.6V | 03:35:31 | 01:46:40 | 00:00:00 | |
| HSKMA3-T | 2026-09-03 12:18:17 | 52.46492 | 11.28703 | 67° | 15km/h | 26319m | 5.2m/s | -49.3°C | 0% | 22.1hPa | 2.6V | 03:35:31 | 01:46:39 | 00:00:00 | |
| DL1XH1-15 | 2026-09-03 12:18:17 | 52.46490 | 11.28697 | 59° | 16km/h | 26314m | 4.8m/s | -49.4°C | 2.9% | 22.1hPa | 2.6V | 03:35:08 | 01:46:38 | 00:00:00 | |
| DO3MHA-11 | 2026-09-03 12:18:16 | 52.46490 | 11.28697 | 60° | 16km/h | 26314m | 4.8m/s | -49.3°C | 2.9% | 22.1hPa | 2.7V | 00:00:00 | 01:46:38 | 00:00:00 | |
| DO2SHX-10 | 2026-09-03 12:18:15 | 52.46488 | 11.28692 | 51° | 16km/h | 26309m | 5.7m/s | -49.4°C | 2.9% | 22.1hPa | 2.7V | 00:00:00 | 01:46:37 | 00:00:00 | |
| DM0DOS-11 | 2026-09-03 12:18:15 | 52.46474 | 11.28666 | 78° | 18km/h | 26279m | 5.8m/s | -49.7°C | 2.9% | 22.2hPa | 2.6V | 03:35:14 | 01:46:32 | 00:00:00 | |
| DD8BA-10 | 2026-09-03 12:18:14 | 52.46484 | 11.28687 | 39° | 16km/h | 26302m | 6.8m/s | -49.5°C | 2.8% | 22.1hPa | 2.7V | 03:35:00 | 00:00:00 | 00:00:00 | |
| SONCRA | 2026-09-03 12:18:13 | 52.46478 | 11.28678 | 47° | 15km/h | 26291m | 5.2m/s | -49.6°C | 0.5% | 22.2hPa | 2.6V | 00:00:00 | 00:00:00 | 00:00:00 | |
| DL1NUX | 2026-09-03 12:18:12 | 52.46474 | 11.28659 | 84° | 18km/h | 26273m | 4.3m/s | -49.5°C | 2.9% | 22.3hPa | 2.6V | 03:35:15 | 01:46:31 | 00:00:00 | |
| SONDE2-11 | 2026-09-03 12:18:12 | 52.46476 | 11.28673 | 61° | 15km/h | 26285m | 6.7m/s | -49.7°C | 0.5% | 22.2hPa | 2.7V | 00:00:00 | 00:00:00 | 00:00:00 | |
| DL1XH1-15 | 2026-09-03 12:18:11 | 52.46471 | 11.28640 | 53° | 11km/h | 26257m | 6.2m/s | -49.4°C | 2.8% | 22.4hPa | 2.7V | 03:35:18 | 01:46:28 | 00:00:00 | |
| DB0DAN | 2026-09-03 12:18:10 | 52.46475 | 11.28666 | 78° | 16km/h | 26279m | 5.8m/s | -49.7°C | 0.5% | 22.24hPa | 2.6V | 00:00:00 | 00:00:00 | 00:00:00 | |
| DL1XH-west | 2026-09-03 12:18:09 | 52.46474 | 11.28659 | 84° | 18km/h | 26273m | 4.3m/s | -49.5°C | 0% | 22.3hPa | 2.6V | 03:35:31 | 01:46:31 | 00:00:00 | |
| HSKMA3-T | 2026-09-03 12:18:07 | 52.46473 | 11.28645 | 73° | 15km/h | 26263m | 6.5m/s | -49.4°C | 0% | 22.3hPa | 2.7V | 03:35:31 | 01:46:29 | 00:00:00 | |
| AP2371 | 2026-09-03 12:18:07 | 52.46473 | 11.28645 | 74° | 15km/h | 26263m | 6.5m/s | -49.4°C | 0% | 0hPa | 2.6V | 00:00:00 | 00:00:00 | 00:00:00 | |
| DO2SHX-10 | 2026-09-03 12:18:06 | 52.46471 | 11.28640 | 54° | 13km/h | 26257m | 6.2m/s | -49.4°C | 2.8% | 22.3hPa | 2.6V | 03:35:00 | 01:46:28 | 00:00:00 | |
| SP3BTT-10 | 2026-09-03 12:18:05 | 52.46466 | 11.28635 | 23° | 11km/h | 26246m | 5.4m/s | -49.2°C | 2.8% | 22.4hPa | 2.6V | 03:35:00 | 00:00:00 | 00:00:00 | |
| DF7ER-10 | 2026-09-03 12:18:04 | 52.46466 | 11.28635 | 23° | 13km/h | 26246m | 5.4m/s | -49.3°C | 0.5% | 22.4hPa | 2.6V | 03:35:00 | 00:00:00 | 00:00:00 | |
| DO2SHX-10 | 2026-09-03 12:18:03 | 52.46463 | 11.28633 | 28° | 13km/h | 26240m | 6.0m/s | -49.1°C | 2.8% | 22.4hPa | 2.6V | 00:00:00 | 01:46:25 | 00:00:00 | |
| DL1NUX | 2026-09-03 12:18:02 | 52.46457 | 11.28617 | 73° | 11km/h | 26216m | 5.5m/s | -49.1°C | 2.8% | 22.5hPa | 2.7V | 03:35:25 | 01:46:21 | 00:00:00 | |
| DM0DOS-11 | 2026-09-03 12:18:01 | 52.46458 | 11.28621 | 73° | 13km/h | 26222m | 5.4m/s | -49.1°C | 2.7% | 22.5hPa | 2.7V | 03:35:24 | 01:46:22 | 00:00:00 | |
| DL1XH-west | 2026-09-03 12:17:58 | 52.46456 | 11.28613 | 64° | 9km/h | 26210m | 6.6m/s | -49.1°C | 0% | 22.5hPa | 2.7V | 03:35:31 | 01:46:20 | 00:00:00 | |
| DL1XH1-15 | 2026-09-03 12:17:57 | 52.46453 | 11.28609 | 30° | 5km/h | 26198m | 4.8m/s | -49.1°C | 2.8% | 22.6hPa | 2.6V | 03:35:28 | 01:46:18 | 00:00:00 | |
| HSKMA3-T | 2026-09-03 12:17:56 | 52.46454 | 11.28609 | 31° | 5km/h | 26198m | 4.8m/s | -49.1°C | 0% | 22.6hPa | 2.6V | 03:35:31 | 01:46:18 | 00:00:00 | |
| DB0DAN | 2026-09-03 12:17:55 | 52.46453 | 11.28608 | 52° | 4km/h | 26193m | 5.7m/s | -49.1°C | 0.4% | 22.58hPa | 2.6V | 00:00:00 | 00:00:00 | 00:00:00 | |
| AM1SDL-15 | 2026-09-03 12:17:55 | 52.46453 | 11.28608 | 53° | 9km/h | 26194m | 5.6m/s | -49.0°C | 2.8% | 22.5hPa | 2.6V | 03:35:00 | 01:46:17 | 00:00:00 | |
| DL1NUX | 2026-09-03 12:17:54 | 52.46450 | 11.28595 | 11° | 13km/h | 26159m | 6.1m/s | -48.9°C | 2.7% | 22.7hPa | 2.6V | 03:35:35 | 01:46:11 | 00:00:00 | |
| DF8AY | 2026-09-03 12:17:49 | 52.46430 | 11.28579 | 33° | 7km/h | 26120m | 6.4m/s | -49.1°C | 0% | 22.8hPa | 2.6V | 03:36:22 | 01:46:04 | 00:00:00 | |
| DL1XH1-15 | 2026-09-03 12:17:49 | 52.46438 | 11.28591 | 22° | 15km/h | 26143m | 6.2m/s | -49.1°C | 2.7% | 22.7hPa | 2.7V | 03:35:38 | 01:46:08 | 00:00:00 | |
| DL1XH-west | 2026-09-03 12:17:48 | 52.46446 | 11.28594 | 7° | 16km/h | 26154m | 4.6m/s | -48.9°C | 0% | 22.7hPa | 2.6V | 03:36:22 | 01:46:10 | 00:00:00 | |
| HSKMA3-T | 2026-09-03 12:17:46 | 52.46438 | 11.28591 | 22° | 15km/h | 26143m | 6.2m/s | -49.1°C | 0% | 22.7hPa | 2.7V | 03:36:22 | 01:46:08 | 00:00:00 | |
| AA1-15 | 2026-09-03 12:17:45 | 52.46435 | 11.28588 | 39° | 13km/h | 26138m | 5.9m/s | -49°C | 0% | 22.8hPa | 2.7V | 03:36:22 | 01:46:07 | 00:00:00 | |
| DD8BA-10 | 2026-09-03 12:17:44 | 52.46433 | 11.28585 | 54° | 9km/h | 26132m | 5.5m/s | -48.9°C | 2.7% | 22.7hPa | 2.7V | 00:00:00 | 00:00:00 | 00:00:00 | |
| AM1SDL-15 | 2026-09-03 12:17:43 | 52.46432 | 11.28582 | 54° | 9km/h | 26127m | 5.3m/s | -49.0°C | 2.7% | 22.7hPa | 2.7V | 00:00:00 | 01:46:05 | 00:00:00 | |
| DO2SHX-10 | 2026-09-03 12:17:42 | 52.46430 | 11.28579 | 33° | 9km/h | 26121m | 6.4m/s | -49.1°C | 2.7% | 22.8hPa | 2.7V | 03:35:00 | 01:46:04 | 00:00:00 | |
| DF7ER-10 | 2026-09-03 12:17:41 | 52.46430 | 11.28579 | 34° | 7km/h | 26121m | 6.4m/s | -49.1°C | 0.5% | 22.8hPa | 2.7V | 03:36:00 | 00:00:00 | 00:00:00 | |
| DB0DAN | 2026-09-03 12:17:40 | 52.46426 | 11.28578 | 359° | 9km/h | 26109m | 5.1m/s | -49.2°C | 0.4% | 22.86hPa | 2.7V | 00:00:00 | 00:00:00 | 00:00:00 | |
| DL1XH-15 | 2026-09-03 12:17:40 | 52.46424 | 11.28578 | 2° | 9km/h | 26103m | 6.1m/s | -49°C | 2.7% | 22.9hPa | 2.7V | 03:35:45 | 01:46:01 | 00:00:00 | |
| DL1XH-west | 2026-09-03 12:17:38 | 52.46422 | 11.28578 | 19° | 9km/h | 26097m | 6.6m/s | -49°C | 0% | 22.9hPa | 2.7V | 03:36:22 | 01:46:00 | 00:00:00 | |
| DL1XH1-15 | 2026-09-03 12:17:37 | 52.46418 | 11.28574 | 25° | 11km/h | 26086m | 4.5m/s | -49.1°C | 2.8% | 23hPa | 2.6V | 03:35:48 | 01:45:58 | 00:00:00 | |
| HSKMA3-T | 2026-09-03 12:17:36 | 52.46415 | 11.28573 | 14° | 13km/h | 26081m | 5.6m/s | -49°C | 0% | 23hPa | 2.6V | 03:36:22 | 01:45:57 | 00:00:00 | |
| DF8AY | 2026-09-03 12:17:34 | 52.46412 | 11.28572 | 3° | 15km/h | 26074m | 7.1m/s | -49°C | 0% | 23hPa | 2.6V | 03:36:22 | 01:45:56 | 00:00:00 | |
| DL1XH-west | 2026-09-03 12:17:27 | 52.46389 | 11.28559 | 37° | 7km/h | 26029m | 6.7m/s | -49.1°C | 0% | 23.2hPa | 2.7V | 03:36:22 | 01:45:48 | 00:00:00 | |
| DL1XH1-15 | 2026-09-03 12:17:27 | 52.46389 | 11.28559 | 36° | 7km/h | 26029m | 6.7m/s | -49.1°C | 2.7% | 23.2hPa | 2.7V | 03:35:58 | 01:45:48 | 00:00:00 | |
| AA1-15 | 2026-09-03 12:17:24 | 52.46386 | 11.28556 | 28° | 9km/h | 26017m | 5.7m/s | -49.4°C | 0% | 23.2hPa | 2.7V | 03:36:22 | 01:45:46 | 00:00:00 | |
| DD8BA-10 | 2026-09-03 12:17:24 | 52.46386 | 11.28556 | 29° | 11km/h | 26017m | 5.7m/s | -49.3°C | 2.8% | 23.2hPa | 2.6V | 00:00:00 | 00:00:00 | 00:00:00 | |
| DM0DOS-11 | 2026-09-03 12:17:23 | 52.46380 | 11.28543 | 60° | 9km/h | 25993m | 4.7m/s | -49.5°C | 2.8% | 23.3hPa | 2.6V | 03:36:04 | 01:45:42 | 00:00:00 | |
| DO2SHX-10 | 2026-09-03 12:17:21 | 52.46381 | 11.28547 | 67° | 9km/h | 25998m | 4.9m/s | -49.3°C | 2.8% | 23.2hPa | 2.7V | 00:00:00 | 01:45:43 | 00:00:00 | |
| SMARD9-10 | 2026-09-03 12:17:20 | 52.46381 | 11.28547 | 68° | 11km/h | 25998m | 5.0m/s | -49.4°C | 0.5% | 23.3hPa | 2.7V | 00:00:00 | 00:00:00 | 00:00:00 | |
| DO9LL-15 | 2026-09-03 12:17:19 | 52.46379 | 11.28540 | 36° | 11km/h | 25988m | 6.7m/s | -49.4°C | 2.8% | 23.2hPa | 2.7V | 00:00:00 | 01:45:41 | 00:00:00 | |
| DO2SHX-10 | 2026-09-03 12:17:18 | 52.46376 | 11.28539 | 16° | 11km/h | 25981m | 6.1m/s | -49.4°C | 2.8% | 23.3hPa | 2.7V | 03:36:00 | 01:45:40 | 00:00:00 | |
| DL1XH1-15 | 2026-09-03 12:17:17 | 52.46370 | 11.28537 | 18° | 11km/h | 25970m | 5.2m/s | -49.6°C | 2.8% | 23.4hPa | 2.7V | 03:36:08 | 01:45:38 | 00:00:00 | |
| DL1XH-west | 2026-09-03 12:17:17 | 52.46373 | 11.28538 | 10° | 13km/h | 25975m | 5.4m/s | -49.4°C | 0% | 23.4hPa | 2.7V | 03:36:22 | 01:45:39 | 00:00:00 | |
| DJ8HS-15 | 2026-09-03 12:17:17 | 52.46373 | 11.28538 | 10° | 9km/h | 25975m | 5.4m/s | -49.4°C | 2.8% | 23.3hPa | 2.7V | 00:00:00 | 01:45:39 | 00:00:00 | |
| DO3MHA-11 | 2026-09-03 12:17:16 | 52.46370 | 11.28537 | 19° | 5km/h | 25970m | 5.2m/s | -49.5°C | 2.8% | 23.3hPa | 2.7V | 03:36:00 | 01:45:38 | 00:00:00 | |
| DO2SHX-10 | 2026-09-03 12:17:15 | 52.46368 | 11.28535 | 37° | 9km/h | 25964m | 6.6m/s | -49.5°C | 2.8% | 23.3hPa | 2.7V | 00:00:00 | 01:45:37 | 00:00:00 | |
| DL1NUX | 2026-09-03 12:17:14 | 52.46366 | 11.28523 | 75° | 2km/h | 25928m | 4.8m/s | -49.6°C | 2.8% | 23.5hPa | 2.7V | 03:36:15 | 01:45:31 | 00:00:00 | |
| HSKMA3-T | 2026-09-03 12:17:14 | 52.46367 | 11.28532 | 67° | 9km/h | 25957m | 6.3m/s | -49.5°C | 0% | 23.4hPa | 2.6V | 03:36:22 | 01:45:36 | 00:00:00 | |
| DF8AY | 2026-09-03 12:17:14 | 52.46366 | 11.28522 | 82° | 5km/h | 25922m | 6.7m/s | -49.7°C | 0% | 23.5hPa | 2.6V | 03:36:22 | 01:45:30 | 00:00:00 | |
| AA1-15 | 2026-09-03 12:17:14 | 52.46366 | 11.28529 | 89° | 7km/h | 25951m | 5.4m/s | -49.6°C | 0% | 23.4hPa | 2.6V | 03:36:22 | 01:45:35 | 00:00:00 | |
| DO2SHX-10 | 2026-09-03 12:17:12 | 52.46366 | 11.28526 | 87° | 4km/h | 25946m | 6.0m/s | -49.6°C | 2.8% | 23.4hPa | 2.7V | 00:00:00 | 01:45:34 | 00:00:00 | |
| DB0DAN | 2026-09-03 12:17:10 | 52.46366 | 11.28524 | 10° | 2km/h | 25933m | 5.1m/s | -49.6°C | 0.5% | 23.49hPa | 2.7V | 00:00:00 | 00:00:00 | 00:00:00 | |
| SONDE2-11 | 2026-09-03 12:17:10 | 52.46366 | 11.28523 | 75° | 2km/h | 25928m | 4.8m/s | -49.6°C | 0.5% | 23.5hPa | 2.7V | 00:00:00 | 00:00:00 | 00:00:00 | |
| DO2SHX-10 | 2026-09-03 12:17:09 | 52.46366 | 11.28523 | 76° | 5km/h | 25928m | 4.7m/s | -49.6°C | 2.8% | 23.4hPa | 2.7V | 00:00:00 | 01:45:31 | 00:00:00 | |
| DF7ER-10 | 2026-09-03 12:17:08 | 52.46366 | 11.28523 | 76° | 2km/h | 25928m | 4.8m/s | -49.6°C | 0.5% | 23.5hPa | 2.6V | 03:36:00 | 00:00:00 | 00:00:00 | |
| DL1XH1-15 | 2026-09-03 12:17:07 | 52.46365 | 11.28516 | 71° | 11km/h | 25910m | 5.1m/s | -49.6°C | 2.8% | 23.6hPa | 2.6V | 03:36:18 | 01:45:28 | 00:00:00 | |
| DL1XH-west | 2026-09-03 12:17:06 | 52.46365 | 11.28516 | 72° | 11km/h | 25910m | 5.1m/s | -49.6°C | 0% | 23.6hPa | 2.6V | 03:36:22 | 01:45:28 | 00:00:00 | |
| S3001 | 2026-09-03 12:17:05 | 52.46362 | 11.28507 | 42° | 13km/h | 25898m | 7.1m/s | -49.6°C | 0.4% | 23.6hPa | 2.6V | 00:00:00 | 00:00:00 | 00:00:00 | |
| DL1NUX | 2026-09-03 12:17:04 | 52.46350 | 11.28480 | 73° | 18km/h | 25869m | 4.5m/s | -49.6°C | 2.8% | 23.7hPa | 2.6V | 03:36:25 | 01:45:21 | 00:00:00 | |
| HSKMA3-T | 2026-09-03 12:17:03 | 52.46359 | 11.28504 | 38° | 15km/h | 25892m | 5.6m/s | -49.5°C | 0% | 23.6hPa | 2.7V | 03:36:22 | 01:45:25 | 00:00:00 | |
| AA1-15 | 2026-09-03 12:17:03 | 52.46356 | 11.28499 | 44° | 16km/h | 25886m | 5.3m/s | -49.6°C | 0% | 23.7hPa | 2.7V | 03:36:22 | 01:45:24 | 00:00:00 | |
| DF8AY | 2026-09-03 12:17:00 | 52.46350 | 11.28480 | 74° | 18km/h | 25869m | 4.5m/s | -49.7°C | 0% | 23.7hPa | 2.6V | 03:37:13 | 01:45:21 | 00:00:00 | |
| DF7ER-10 | 2026-09-03 12:16:58 | 52.46350 | 11.28480 | 75° | 18km/h | 25869m | 4.5m/s | -49.7°C | 0.5% | 23.7hPa | 2.7V | 03:37:00 | 00:00:00 | 00:00:00 | |
| DL1XH1-15 | 2026-09-03 12:16:57 | 52.46346 | 11.28462 | 77° | 11km/h | 25851m | 5.2m/s | -49.7°C | 2.8% | 23.8hPa | 2.7V | 03:36:28 | 01:45:18 | 00:00:00 | |
| DJ8HS-15 | 2026-09-03 12:16:57 | 52.46347 | 11.28467 | 69° | 16km/h | 25857m | 6.5m/s | -49.6°C | 2.9% | 23.7hPa | 2.7V | 00:00:00 | 01:45:19 | 00:00:00 | |
| DB0DAN | 2026-09-03 12:16:55 | 52.46346 | 11.28457 | 98° | 9km/h | 25846m | 5.3m/s | -49.7°C | 0.5% | 23.83hPa | 2.7V | 00:00:00 | 00:00:00 | 00:00:00 | |
| DL1XH-west | 2026-09-03 12:16:55 | 52.46347 | 11.28453 | 114° | 13km/h | 25840m | 7m/s | -49.7°C | 0% | 23.8hPa | 2.6V | 03:37:13 | 01:45:16 | 00:00:00 | |
| DM0DOS-11 | 2026-09-03 12:16:55 | 52.46352 | 11.28436 | 85° | 7km/h | 25816m | 6.5m/s | -49.7°C | 2.9% | 23.9hPa | 2.7V | 03:36:34 | 01:45:12 | 00:00:00 | |
| HSKMA3-T | 2026-09-03 12:16:52 | 52.46350 | 11.28444 | 120° | 13km/h | 25828m | 4.6m/s | -49.7°C | 0% | 23.9hPa | 2.6V | 03:37:13 | 01:45:14 | 00:00:00 | |
| AA1-15 | 2026-09-03 12:16:51 | 52.46351 | 11.28440 | 113° | 11km/h | 25823m | 6.4m/s | -49.7°C | 0% | 23.9hPa | 2.7V | 03:37:13 | 01:45:13 | 00:00:00 | |
| DF8AY | 2026-09-03 12:16:49 | 52.46346 | 11.28417 | 76° | 16km/h | 25794m | 5.7m/s | -49.6°C | 0% | 24hPa | 2.6V | 03:37:13 | 01:45:08 | 00:00:00 | |
| DO2SHX-10 | 2026-09-03 12:16:48 | 52.46349 | 11.28429 | 59° | 15km/h | 25806m | 4.9m/s | -49.6°C | 2.8% | 23.9hPa | 2.6V | 00:00:00 | 01:45:10 | 00:00:00 | |
| AP2371 | 2026-09-03 12:16:47 | 52.46349 | 11.28429 | 59° | 13km/h | 25806m | 4.9m/s | -49.7°C | 0% | 0hPa | 2.6V | 00:00:00 | 00:00:00 | 00:00:00 | |
| GOEST3-10 | 2026-09-03 12:16:46 | 52.46346 | 11.28417 | 76° | 15km/h | 25795m | 5.7m/s | -49.5°C | 2.9% | 24.0hPa | 2.6V | 00:00:00 | 01:45:08 | 00:00:00 | |
| DO9LL-15 | 2026-09-03 12:16:45 | 52.46345 | 11.28410 | 83° | 18km/h | 25789m | 4.9m/s | -49.6°C | 2.8% | 24.0hPa | 2.6V | 03:36:00 | 01:45:07 | 00:00:00 | |
| DL1NUX | 2026-09-03 12:16:44 | 52.46336 | 11.28378 | 54° | 20km/h | 25756m | 6.1m/s | -49.5°C | 2.9% | 24.1hPa | 2.6V | 03:36:45 | 01:45:01 | 00:00:00 | |
| DL1XH-west | 2026-09-03 12:16:44 | 52.46345 | 11.28404 | 81° | 15km/h | 25784m | 5m/s | -49.6°C | 0% | 24hPa | 2.7V | 03:37:13 | 01:45:06 | 00:00:00 | |
| HSKMA3-T | 2026-09-03 12:16:42 | 52.46343 | 11.28394 | 60° | 11km/h | 25773m | 5.4m/s | -49.6°C | 0% | 24.1hPa | 2.7V | 03:37:13 | 01:45:04 | 00:00:00 | |
| AA1-15 | 2026-09-03 12:16:41 | 52.46341 | 11.28389 | 46° | 15km/h | 25768m | 5.4m/s | -49.6°C | 0% | 24.1hPa | 2.7V | 03:37:13 | 01:45:03 | 00:00:00 | |
| DB0DAN | 2026-09-03 12:16:40 | 52.46339 | 11.28385 | 47° | 16km/h | 25762m | 6.3m/s | -49.5°C | 0.5% | 24.13hPa | 2.6V | 00:00:00 | 00:00:00 | 00:00:00 | |
| SONCRA | 2026-09-03 12:16:40 | 52.46335 | 11.28378 | 54° | 20km/h | 25756m | 6.1m/s | -49.5°C | 0.5% | 24.1hPa | 2.7V | 00:00:00 | 00:00:00 | 00:00:00 | |
| DL1XH1-15 | 2026-09-03 12:16:39 | 52.46329 | 11.28356 | 82° | 18km/h | 25739m | 6.3m/s | -49.5°C | 2.8% | 24.2hPa | 2.7V | 03:36:48 | 01:44:58 | 00:00:00 | |
| DF8AY | 2026-09-03 12:16:36 | 52.46329 | 11.28349 | 90° | 15km/h | 25732m | 6.1m/s | -49.4°C | 0% | 24.2hPa | 2.7V | 03:37:13 | 01:44:57 | 00:00:00 | |
| DJ8HS-15 | 2026-09-03 12:16:36 | 52.46329 | 11.28356 | 83° | 16km/h | 25739m | 6.3m/s | -49.4°C | 2.8% | 24.1hPa | 2.7V | 03:36:00 | 01:44:58 | 00:00:00 | |
| DM0DOS-11 | 2026-09-03 12:16:35 | 52.46322 | 11.28327 | 47° | 22km/h | 25704m | 5.5m/s | -49.3°C | 2.8% | 24.3hPa | 2.7V | 03:36:54 | 01:44:52 | 00:00:00 | |
| DO3MHA-11 | 2026-09-03 12:16:35 | 52.46329 | 11.28349 | 90° | 15km/h | 25733m | 6.0m/s | -49.4°C | 2.8% | 24.2hPa | 2.7V | 03:36:00 | 01:44:57 | 00:00:00 | |
| DL1NUX | 2026-09-03 12:16:34 | 52.46318 | 11.28320 | 50° | 24km/h | 25699m | 5.4m/s | -49.3°C | 2.8% | 24.3hPa | 2.7V | 03:36:55 | 01:44:51 | 00:00:00 | |
| DL1XH-west | 2026-09-03 12:16:34 | 52.46329 | 11.28340 | 75° | 9km/h | 25722m | 5.1m/s | -49.4°C | 0% | 24.3hPa | 2.6V | 03:37:13 | 01:44:55 | 00:00:00 | |
| HSKMA3-T | 2026-09-03 12:16:32 | 52.46325 | 11.28332 | 46° | 16km/h | 25710m | 6.2m/s | -49.4°C | 0% | 24.3hPa | 2.6V | 03:37:13 | 01:44:53 | 00:00:00 | |
| AA1-15 | 2026-09-03 12:16:31 | 52.46322 | 11.28327 | 48° | 22km/h | 25704m | 5.5m/s | -49.3°C | 0% | 24.4hPa | 2.7V | 03:37:13 | 01:44:52 | 00:00:00 | |
| EDDB2-12 | 2026-09-03 12:16:31 | 52.46322 | 11.28327 | 47° | 20km/h | 25705m | 5.5m/s | -49.3°C | 0.4% | 24.4hPa | 2.7V | 00:00:00 | 00:00:00 | 00:00:00 | |
| DB0UT-7 | 2026-09-03 12:16:30 | 52.46322 | 11.28327 | 48° | 16km/h | 25705m | 5.5m/s | -49.2°C | 2.8% | 24.3hPa | 2.7V | 03:36:00 | 01:44:52 | 00:00:00 | |
| DJ2DS-15 | 2026-09-03 12:16:28 | 52.46312 | 11.28305 | 58° | 18km/h | 25688m | 5.6m/s | -49.3°C | 0.5% | 24.4hPa | 2.6V | 00:00:00 | 00:00:00 | 00:00:00 | |
| DO2SHX-10 | 2026-09-03 12:16:27 | 52.46312 | 11.28305 | 59° | 15km/h | 25689m | 5.6m/s | -49.3°C | 2.8% | 24.4hPa | 2.6V | 00:00:00 | 01:44:49 | 00:00:00 | |
| DB0DAN | 2026-09-03 12:16:25 | 52.46308 | 11.28295 | 47° | 11km/h | 25677m | 5.7m/s | -49.3°C | 0.4% | 24.41hPa | 2.6V | 00:00:00 | 00:00:00 | 00:00:00 | |
| DF8AY | 2026-09-03 12:16:25 | 52.46306 | 11.28292 | 37° | 11km/h | 25671m | 5.6m/s | -49.3°C | 0% | 24.4hPa | 2.6V | 03:37:13 | 01:44:46 | 00:00:00 | |
| GOEST3-10 | 2026-09-03 12:16:25 | 52.46308 | 11.28295 | 47° | 15km/h | 25677m | 5.6m/s | -49.2°C | 2.8% | 24.4hPa | 2.6V | 00:00:00 | 01:44:47 | 00:00:00 | |
| DL1NUX | 2026-09-03 12:16:24 | 52.46292 | 11.28269 | 54° | 16km/h | 25640m | 6m/s | -49.2°C | 2.8% | 24.6hPa | 2.6V | 03:37:05 | 01:44:41 | 00:00:00 | |
| DL1XH-west | 2026-09-03 12:16:22 | 52.46301 | 11.28285 | 40° | 15km/h | 25659m | 6.1m/s | -49.2°C | 0% | 24.5hPa | 2.7V | 03:37:13 | 01:44:44 | 00:00:00 | |
| DM0DOS-11 | 2026-09-03 12:16:22 | 52.46294 | 11.28275 | 48° | 18km/h | 25646m | 6.2m/s | -49.1°C | 2.8% | 24.5hPa | 2.7V | 03:37:04 | 01:44:42 | 00:00:00 | |
| HSKMA3-T | 2026-09-03 12:16:22 | 52.46298 | 11.28281 | 44° | 18km/h | 25653m | 6.3m/s | -49.3°C | 0% | 24.5hPa | 2.7V | 03:37:13 | 01:44:43 | 00:00:00 | |
| AA1-15 | 2026-09-03 12:16:20 | 52.46292 | 11.28270 | 54° | 16km/h | 25640m | 6.1m/s | -49.2°C | 0% | 24.6hPa | 2.6V | 03:37:13 | 01:44:41 | 00:00:00 | |
| TFSTFS | 2026-09-03 12:16:20 | 52.46294 | 11.28275 | 50° | 18km/h | 25647m | 6.2m/s | -49.1°C | 0.5% | 24.5hPa | 2.7V | 03:37:00 | 00:00:00 | 00:00:00 | |
| AM1SDL-15 | 2026-09-03 12:16:19 | 52.46292 | 11.28269 | 55° | 16km/h | 25641m | 6.0m/s | -49.1°C | 2.8% | 24.5hPa | 2.7V | 00:00:00 | 01:44:41 | 00:00:00 | |
| DO2SHX-10 | 2026-09-03 12:16:18 | 52.46290 | 11.28264 | 59° | 13km/h | 25634m | 6.6m/s | -49.1°C | 2.8% | 24.5hPa | 2.7V | 03:37:00 | 01:44:40 | 00:00:00 | |
| DL1XH1-15 | 2026-09-03 12:16:17 | 52.46287 | 11.28254 | 69° | 13km/h | 25623m | 4.8m/s | -49°C | 2.7% | 24.6hPa | 2.7V | 03:37:08 | 01:44:38 | 00:00:00 | |
| SMARD9-10 | 2026-09-03 12:16:16 | 52.46287 | 11.28254 | 71° | 13km/h | 25623m | 4.8m/s | -49.0°C | 0.4% | 24.6hPa | 2.6V | 00:00:00 | 00:00:00 | 00:00:00 | |
| DM0DOS-11 | 2026-09-03 12:16:15 | 52.46270 | 11.28226 | 3° | 16km/h | 25587m | 5.9m/s | -48.8°C | 2.8% | 24.8hPa | 2.6V | 03:37:14 | 01:44:32 | 00:00:00 | |
| DL1NUX | 2026-09-03 12:16:14 | 52.46266 | 11.28226 | 357° | 18km/h | 25581m | 4.9m/s | -48.9°C | 2.7% | 24.8hPa | 2.7V | 03:37:15 | 01:44:31 | 00:00:00 | |
| DL1XH-west | 2026-09-03 12:16:11 | 52.46274 | 11.28228 | 23° | 15km/h | 25593m | 6.7m/s | -48.9°C | 0% | 24.7hPa | 2.6V | 03:37:13 | 01:44:33 | 00:00:00 | |
| DB0DAN | 2026-09-03 12:16:10 | 52.46270 | 11.28226 | 4° | 15km/h | 25587m | 5.9m/s | -48.8°C | 0.4% | 24.76hPa | 2.6V | 00:00:00 | 00:00:00 | 00:00:00 | |
| HSKMA3-T | 2026-09-03 12:16:10 | 52.46270 | 11.28226 | 4° | 16km/h | 25587m | 5.9m/s | -48.8°C | 0% | 24.8hPa | 2.6V | 03:38:04 | 01:44:32 | 00:00:00 | |
| AA1-15 | 2026-09-03 12:16:09 | 52.46266 | 11.28226 | 358° | 18km/h | 25582m | 4.9m/s | -48.9°C | 0% | 24.8hPa | 2.7V | 03:38:04 | 01:44:31 | 00:00:00 | |
| MECKS9 | 2026-09-03 12:16:09 | 52.46266 | 11.28226 | 359° | 18km/h | 25582m | 4.9m/s | -48.9°C | 0% | 0hPa | 2.7V | 00:00:00 | 00:00:00 | 00:00:00 | |
| DB0NH | 2026-09-03 12:16:07 | 52.46256 | 11.28225 | 7° | 15km/h | 25570m | 6.9m/s | -48.8°C | 2.8% | 24.8hPa | 2.7V | 00:00:00 | 01:44:29 | 00:00:00 | |
| DO2SHX-10 | 2026-09-03 12:16:06 | 52.46251 | 11.28224 | 16° | 18km/h | 25564m | 5.0m/s | -48.7°C | 2.7% | 24.8hPa | 2.7V | 03:37:00 | 01:44:28 | 00:00:00 | |
| DF7ER-10 | 2026-09-03 12:16:05 | 52.46251 | 11.28224 | 16° | 20km/h | 25564m | 5.0m/s | -48.8°C | 0.5% | 24.8hPa | 2.7V | 03:38:00 | 00:00:00 | 00:00:00 | |
| DL1NUX | 2026-09-03 12:16:04 | 52.46231 | 11.28210 | 44° | 13km/h | 25524m | 6.5m/s | -48.7°C | 2.7% | 25hPa | 2.7V | 03:37:25 | 01:44:21 | 00:00:00 | |
| DD8BA-10 | 2026-09-03 12:16:04 | 52.46242 | 11.28219 | 24° | 11km/h | 25554m | 6.1m/s | -48.7°C | 2.7% | 24.9hPa | 2.7V | 00:00:00 | 00:00:00 | 00:00:00 | |
| S3001 | 2026-09-03 12:16:03 | 52.46237 | 11.28215 | 18° | 5km/h | 25541m | 5.7m/s | -48.7°C | 0.4% | 24.9hPa | 2.7V | 00:00:00 | 00:00:00 | 00:00:00 | |
| AP2371 | 2026-09-03 12:16:02 | 52.46237 | 11.28215 | 20° | 7km/h | 25542m | 5.7m/s | -48.7°C | 0% | 0hPa | 2.7V | 00:00:00 | 00:00:00 | 00:00:00 | |
| DM0DOS-11 | 2026-09-03 12:16:01 | 52.46233 | 11.28212 | 37° | 9km/h | 25530m | 5.8m/s | -48.7°C | 2.7% | 25hPa | 2.7V | 03:37:24 | 01:44:22 | 00:00:00 | |
| DL1XH-west | 2026-09-03 12:16:01 | 52.46235 | 11.28214 | 31° | 7km/h | 25536m | 5.1m/s | -48.8°C | 0% | 25hPa | 2.7V | 03:38:04 | 01:44:23 | 00:00:00 | |
| HSKMA3-T | 2026-09-03 12:15:59 | 52.46232 | 11.28210 | 45° | 13km/h | 25524m | 6.5m/s | -48.7°C | 0% | 25hPa | 2.7V | 03:38:04 | 01:44:21 | 00:00:00 | |
| AA1-15 | 2026-09-03 12:15:58 | 52.46229 | 11.28206 | 42° | 15km/h | 25518m | 5.3m/s | -48.6°C | 0% | 25hPa | 2.6V | 03:38:04 | 01:44:20 | 00:00:00 | |
| TFSTFS | 2026-09-03 12:15:58 | 52.46229 | 11.28206 | 43° | 15km/h | 25519m | 5.3m/s | -48.6°C | 0.4% | 25.0hPa | 2.6V | 03:38:00 | 00:00:00 | 00:00:00 | |
| MECKS9 | 2026-09-03 12:15:57 | 52.46226 | 11.28202 | 41° | 16km/h | 25514m | 4.2m/s | -48.7°C | 0% | 0hPa | 2.6V | 00:00:00 | 00:00:00 | 00:00:00 | |
| DM0DOS-11 | 2026-09-03 12:15:55 | 52.46203 | 11.28204 | 359° | 16km/h | 25475m | 6m/s | -48.6°C | 2.7% | 25.2hPa | 2.6V | 03:37:34 | 01:44:12 | 00:00:00 | |
| GOEST3-10 | 2026-09-03 12:15:55 | 52.46220 | 11.28196 | 13° | 13km/h | 25503m | 6.5m/s | -48.6°C | 2.7% | 25.0hPa | 2.6V | 00:00:00 | 01:44:17 | 00:00:00 | |
| DL1NUX | 2026-09-03 12:15:54 | 52.46199 | 11.28203 | 5° | 16km/h | 25469m | 4.8m/s | -48.7°C | 2.7% | 25.2hPa | 2.6V | 03:37:35 | 01:44:11 | 00:00:00 | |
| DL1XH-west | 2026-09-03 12:15:50 | 52.46203 | 11.28204 | 359° | 16km/h | 25475m | 6m/s | -48.6°C | 0% | 25.2hPa | 2.6V | 03:38:04 | 01:44:12 | 00:00:00 | |
| AA1-15 | 2026-09-03 12:15:48 | 52.46195 | 11.28203 | 7° | 15km/h | 25464m | 5.1m/s | -48.6°C | 0% | 25.2hPa | 2.7V | 03:38:04 | 01:44:10 | 00:00:00 | |
| HTAHTA | 2026-09-03 12:15:48 | 52.46187 | 11.28203 | 356° | 9km/h | 25447m | 5.1m/s | 0°C | -1.0% | -1.0hPa | 2.7V | 00:00:00 | 00:00:00 | 00:00:00 | |
| DL1XH1-15 | 2026-09-03 12:15:47 | 52.46189 | 11.28203 | 352° | 9km/h | 25451m | 5.8m/s | -48.7°C | 2.7% | 25.3hPa | 2.7V | 03:37:38 | 01:44:08 | 00:00:00 | |
| MECKS9 | 2026-09-03 12:15:45 | 52.46187 | 11.28203 | 357° | 9km/h | 25447m | 5.1m/s | -48.7°C | 0% | 0hPa | 2.7V | 00:00:00 | 00:00:00 | 00:00:00 | |
| DM0DOS-11 | 2026-09-03 12:15:44 | 52.46170 | 11.28207 | 327° | 18km/h | 25417m | 6.6m/s | -48.8°C | 2.7% | 25.4hPa | 2.7V | 03:37:44 | 01:44:02 | 00:00:00 | |
| DD8BA-10 | 2026-09-03 12:15:44 | 52.46184 | 11.28203 | 3° | 18km/h | 25440m | 6.6m/s | -48.7°C | 2.7% | 25.3hPa | 2.6V | 00:00:00 | 00:00:00 | 00:00:00 | |
| DL1NUX | 2026-09-03 12:15:43 | 52.46166 | 11.28212 | 320° | 20km/h | 25411m | 6m/s | -48.9°C | 2.7% | 25.4hPa | 2.7V | 03:37:45 | 01:44:01 | 00:00:00 | |
| EDDB2-11 | 2026-09-03 12:15:43 | 52.46177 | 11.28203 | 354° | 15km/h | 25429m | 4.7m/s | -48.8°C | 0.5% | 25.4hPa | 2.7V | 00:00:00 | 00:00:00 | 00:00:00 | |
| DO2SHX-10 | 2026-09-03 12:15:42 | 52.46177 | 11.28203 | 355° | 16km/h | 25429m | 4.6m/s | -48.7°C | 2.7% | 25.3hPa | 2.7V | 03:37:00 | 01:44:04 | 00:00:00 | |
| DB0DAN | 2026-09-03 12:15:40 | 52.46170 | 11.28207 | 328° | 16km/h | 25417m | 6.6m/s | -48.8°C | 0.4% | 25.43hPa | 2.7V | 00:00:00 | 00:00:00 | 00:00:00 | |
| DF8AY | 2026-09-03 12:15:40 | 52.46170 | 11.28207 | 328° | 18km/h | 25417m | 6.6m/s | -48.8°C | 0% | 25.4hPa | 2.7V | 03:38:04 | 01:44:02 | 00:00:00 | |
| DL1XH-west | 2026-09-03 12:15:39 | 52.46166 | 11.28212 | 321° | 20km/h | 25411m | 6m/s | -48.9°C | 0% | 25.4hPa | 2.7V | 03:38:04 | 01:44:01 | 00:00:00 | |
| HSKMA3-T | 2026-09-03 12:15:38 | 52.46162 | 11.28217 | 322° | 20km/h | 25405m | 5.6m/s | -48.8°C | 0% | 25.5hPa | 2.7V | 03:38:04 | 01:44:00 | 00:00:00 | |
| AA1-15 | 2026-09-03 12:15:38 | 52.46153 | 11.28225 | 343° | 20km/h | 25393m | 5.4m/s | -48.8°C | 0% | 25.5hPa | 2.6V | 03:38:04 | 01:43:58 | 00:00:00 | |
| DL1XH1-15 | 2026-09-03 12:15:37 | 52.46153 | 11.28225 | 343° | 20km/h | 25393m | 5.4m/s | -48.8°C | 2.7% | 25.5hPa | 2.6V | 03:37:48 | 01:43:58 | 00:00:00 | |
| DB0NH | 2026-09-03 12:15:37 | 52.46158 | 11.28221 | 331° | 13km/h | 25400m | 6.3m/s | -48.8°C | 2.7% | 25.5hPa | 2.6V | 00:00:00 | 01:43:59 | 00:00:00 | |
| DO2SHX-10 | 2026-09-03 12:15:36 | 52.46153 | 11.28225 | 344° | 18km/h | 25393m | 5.4m/s | -48.8°C | 2.7% | 25.5hPa | 2.6V | 00:00:00 | 01:43:58 | 00:00:00 | |
| GOEST3-10 | 2026-09-03 12:15:35 | 52.46148 | 11.28227 | 351° | 15km/h | 25389m | 3.9m/s | -48.7°C | 2.7% | 25.5hPa | 2.6V | 00:00:00 | 01:43:57 | 00:00:00 | |
| DL1NUX | 2026-09-03 12:15:34 | 52.46126 | 11.28235 | 355° | 18km/h | 25354m | 5.9m/s | -48.8°C | 2.7% | 25.6hPa | 2.6V | 03:37:55 | 01:43:51 | 00:00:00 | |
| DO2SHX-10 | 2026-09-03 12:15:33 | 52.46140 | 11.28229 | 347° | 13km/h | 25378m | 6.3m/s | -48.8°C | 2.7% | 25.5hPa | 2.7V | 00:00:00 | 01:43:55 | 00:00:00 | |
| DL1XH1-15 | 2026-09-03 12:15:31 | 52.46113 | 11.28236 | 353° | 13km/h | 25338m | 6.6m/s | -48.8°C | 2.7% | 25.7hPa | 2.7V | 03:37:58 | 01:43:48 | 00:00:00 | |
| DF8AY | 2026-09-03 12:15:29 | 52.46126 | 11.28235 | 356° | 18km/h | 25354m | 5.9m/s | -48.8°C | 0% | 25.6hPa | 2.6V | 03:38:04 | 01:43:51 | 00:00:00 | |
| DL1XH-west | 2026-09-03 12:15:28 | 52.46121 | 11.28236 | 359° | 18km/h | 25349m | 4.4m/s | -48.8°C | 0% | 25.7hPa | 2.6V | 03:38:04 | 01:43:50 | 00:00:00 | |
| HSKMA3-T | 2026-09-03 12:15:27 | 52.46117 | 11.28236 | 358° | 16km/h | 25344m | 5.2m/s | -48.8°C | 0% | 25.7hPa | 2.7V | 03:38:04 | 01:43:49 | 00:00:00 | |
| AA1-15 | 2026-09-03 12:15:26 | 52.46110 | 11.28237 | 345° | 9km/h | 25332m | 6m/s | -48.8°C | 0% | 25.8hPa | 2.7V | 03:38:04 | 01:43:47 | 00:00:00 | |
| DB0DAN | 2026-09-03 12:15:25 | 52.46110 | 11.28237 | 345° | 9km/h | 25332m | 6m/s | -48.8°C | 0.4% | 25.76hPa | 2.7V | 00:00:00 | 00:00:00 | 00:00:00 | |
| DO2SHX-10 | 2026-09-03 12:15:24 | 52.46108 | 11.28238 | 334° | 9km/h | 25326m | 5.2m/s | -48.7°C | 2.7% | 25.7hPa | 2.7V | 00:00:00 | 01:43:46 | 00:00:00 | |
| DF7ER-10 | 2026-09-03 12:15:23 | 52.46108 | 11.28238 | 334° | 7km/h | 25326m | 5.2m/s | -48.7°C | 0.5% | 25.8hPa | 2.7V | 03:38:00 | 00:00:00 | 00:00:00 | |
| DD8BA-10 | 2026-09-03 12:15:22 | 52.46105 | 11.28240 | 3° | 11km/h | 25315m | 6.0m/s | -48.7°C | 2.7% | 25.8hPa | 2.7V | 00:00:00 | 00:00:00 | 00:00:00 | |
| DL1NUX | 2026-09-03 12:15:21 | 52.46097 | 11.28238 | 4° | 9km/h | 25298m | 5.7m/s | -48.7°C | 2.7% | 25.9hPa | 2.7V | 03:38:05 | 01:43:41 | 00:00:00 | |
| DF8AY | 2026-09-03 12:15:18 | 52.46093 | 11.28239 | 333° | 7km/h | 25286m | 5.4m/s | -48.6°C | 0% | 25.9hPa | 2.7V | 03:38:55 | 01:43:39 | 00:00:00 | |
| DL4XJ-10 | 2026-09-03 12:15:18 | 52.46095 | 11.28238 | 348° | 9km/h | 25293m | 6.7m/s | -46.9°C | 0% | 0hPa | 2.6V | 00:00:00 | 00:00:00 | 00:00:00 | |
| DL1XH1-15 | 2026-09-03 12:15:17 | 52.46091 | 11.28240 | 334° | 9km/h | 25281m | 5.2m/s | -48.6°C | 2.7% | 25.9hPa | 2.6V | 03:38:08 | 01:43:38 | 00:00:00 | |
| HSKMA3-T | 2026-09-03 12:15:17 | 52.46091 | 11.28240 | 334° | 9km/h | 25281m | 5.2m/s | -48.6°C | 0% | 25.9hPa | 2.6V | 03:38:55 | 01:43:38 | 00:00:00 | |
| AA1-15 | 2026-09-03 12:15:15 | 52.46085 | 11.28244 | 343° | 16km/h | 25269m | 5.4m/s | -48.6°C | 0% | 26hPa | 2.6V | 03:38:55 | 01:43:36 | 00:00:00 | |
| DM0DOS-11 | 2026-09-03 12:15:14 | 52.46072 | 11.28257 | 310° | 13km/h | 25245m | 5.4m/s | -48.6°C | 2.7% | 26.1hPa | 2.7V | 03:38:14 | 01:43:32 | 00:00:00 | |
| DF7ER-10 | 2026-09-03 12:15:14 | 52.46085 | 11.28244 | 344° | 16km/h | 25269m | 5.4m/s | -48.6°C | 0.5% | 26.0hPa | 2.7V | 03:38:00 | 00:00:00 | 00:00:00 | |
| DD8BA-10 | 2026-09-03 12:15:12 | 52.46077 | 11.28249 | 331° | 13km/h | 25258m | 6.5m/s | -48.6°C | 2.6% | 26.0hPa | 2.7V | 00:00:00 | 00:00:00 | 00:00:00 | |
| DB0DAN | 2026-09-03 12:15:10 | 52.46072 | 11.28257 | 310° | 13km/h | 25245m | 5.4m/s | -48.7°C | 0.5% | 26.09hPa | 2.7V | 00:00:00 | 00:00:00 | 00:00:00 | |
| DO2SHX-10 | 2026-09-03 12:15:10 | 52.46071 | 11.28257 | 311° | 13km/h | 25245m | 5.3m/s | -48.6°C | 2.7% | 26.0hPa | 2.7V | 00:00:00 | 01:43:32 | 00:00:00 | |
| DL1XH1-15 | 2026-09-03 12:15:09 | 52.46062 | 11.28267 | 348° | 11km/h | 25223m | 4.4m/s | -48.6°C | 2.6% | 26.2hPa | 2.7V | 03:38:18 | 01:43:28 | 00:00:00 | |
| DL1XH-west | 2026-09-03 12:15:07 | 52.46065 | 11.28266 | 343° | 13km/h | 25228m | 5.6m/s | -48.7°C | 0% | 26.2hPa | 2.6V | 03:38:55 | 01:43:29 | 00:00:00 | |
| HSKMA3-T | 2026-09-03 12:15:06 | 52.46062 | 11.28267 | 348° | 11km/h | 25223m | 4.4m/s | -48.6°C | 0% | 26.2hPa | 2.7V | 03:38:55 | 01:43:28 | 00:00:00 | |
| AA1-15 | 2026-09-03 12:15:04 | 52.46057 | 11.28270 | 326° | 9km/h | 25213m | 6.3m/s | -48.7°C | 0% | 26.2hPa | 2.7V | 03:38:55 | 01:43:26 | 00:00:00 | |
| DO2SHX-10 | 2026-09-03 12:15:04 | 52.46057 | 11.28270 | 326° | 9km/h | 25213m | 6.3m/s | -48.7°C | 2.6% | 26.2hPa | 2.7V | 03:38:00 | 01:43:26 | 00:00:00 | |
| DL1XH1-15 | 2026-09-03 12:15:02 | 52.46043 | 11.28291 | 302° | 5km/h | 25169m | 6.2m/s | -49°C | 2.7% | 26.4hPa | 2.7V | 03:38:28 | 01:43:18 | 00:00:00 | |
| DL1NUX | 2026-09-03 12:15:01 | 52.46049 | 11.28286 | 333° | 13km/h | 25185m | 5m/s | -49°C | 2.7% | 26.3hPa | 2.7V | 03:38:25 | 01:43:21 | 00:00:00 | |
| DF8AY | 2026-09-03 12:14:59 | 52.46044 | 11.28289 | 329° | 7km/h | 25175m | 5.6m/s | -49.1°C | 0% | 26.4hPa | 2.7V | 03:38:55 | 01:43:19 | 00:00:00 | |
| DL1XH-west | 2026-09-03 12:14:57 | 52.46043 | 11.28291 | 302° | 5km/h | 25169m | 6.3m/s | -49°C | 0% | 26.4hPa | 2.7V | 03:38:55 | 01:43:18 | 00:00:00 | |
| DB0DAN | 2026-09-03 12:14:55 | 52.46043 | 11.28293 | 267° | 4km/h | 25164m | 5.5m/s | -49.1°C | 0.5% | 26.43hPa | 2.6V | 00:00:00 | 00:00:00 | 00:00:00 | |
| HSKMA3-T | 2026-09-03 12:14:55 | 52.46043 | 11.28293 | 267° | 4km/h | 25164m | 5.5m/s | -49.1°C | 0% | 26.4hPa | 2.6V | 03:38:55 | 01:43:17 | 00:00:00 | |
| AA1-15 | 2026-09-03 12:14:53 | 52.46043 | 11.28295 | 348° | 0km/h | 25152m | 6.5m/s | -49.2°C | 0% | 26.5hPa | 2.6V | 03:38:55 | 01:43:15 | 00:00:00 | |
| DL1NUX | 2026-09-03 12:14:53 | 52.46043 | 11.28294 | 204° | 5km/h | 25130m | 6.7m/s | -49.3°C | 2.7% | 26.6hPa | 2.7V | 03:38:35 | 01:43:11 | 00:00:00 | |
| DD8BA-10 | 2026-09-03 12:14:52 | 52.46042 | 11.28294 | 45° | 4km/h | 25147m | 5.5m/s | -49.1°C | 2.6% | 26.5hPa | 2.6V | 03:38:00 | 00:00:00 | 00:00:00 | |
| DL1XH1-15 | 2026-09-03 12:14:51 | 52.46046 | 11.28296 | 186° | 2km/h | 25112m | 6.4m/s | -49.3°C | 2.8% | 26.6hPa | 2.6V | 03:38:38 | 01:43:08 | 00:00:00 | |
| DF8AY | 2026-09-03 12:14:47 | 52.46045 | 11.28296 | 198° | 5km/h | 25119m | 5.3m/s | -49.3°C | 0% | 26.6hPa | 2.6V | 03:38:55 | 01:43:09 | 00:00:00 | |
| DL1XH-west | 2026-09-03 12:14:45 | 52.46046 | 11.28296 | 93° | 2km/h | 25107m | 5.3m/s | -49.4°C | 0% | 26.7hPa | 2.7V | 03:38:55 | 01:43:07 | 00:00:00 | |
| HSKMA3-T | 2026-09-03 12:14:44 | 52.46046 | 11.28295 | 86° | 2km/h | 25101m | 4.8m/s | -49.4°C | 0% | 26.7hPa | 2.7V | 03:38:55 | 01:43:06 | 00:00:00 | |
| AA1-15 | 2026-09-03 12:14:42 | 52.46047 | 11.28294 | 190° | 4km/h | 25090m | 6.2m/s | -49.5°C | 0% | 26.7hPa | 2.7V | 03:38:55 | 01:43:04 | 00:00:00 | |
| DD8BA-10 | 2026-09-03 12:14:42 | 52.46047 | 11.28294 | 190° | 4km/h | 25090m | 6.2m/s | -49.4°C | 2.9% | 26.6hPa | 2.7V | 00:00:00 | 00:00:00 | 00:00:00 | |
| DL1XH1-15 | 2026-09-03 12:14:41 | 52.46049 | 11.28297 | 234° | 2km/h | 25052m | 5.7m/s | -49.6°C | 2.8% | 26.9hPa | 2.7V | 03:38:49 | 01:42:57 | 00:00:00 | |
| DF8AY | 2026-09-03 12:14:37 | 52.46049 | 11.28297 | 235° | 2km/h | 25052m | 5.7m/s | -49.6°C | 0% | 26.9hPa | 2.7V | 03:38:55 | 01:42:57 | 00:00:00 | |
| DM0DOS-11 | 2026-09-03 12:14:36 | 52.46060 | 11.28305 | 190° | 9km/h | 25023m | 6.6m/s | -49.6°C | 2.7% | 27hPa | 2.7V | 03:38:54 | 01:42:52 | 00:00:00 | |
| DL1XH-west | 2026-09-03 12:14:34 | 52.46050 | 11.28298 | 214° | 7km/h | 25046m | 6.4m/s | -49.5°C | 0% | 26.9hPa | 2.6V | 03:38:55 | 01:42:56 | 00:00:00 | |
| AA1-15 | 2026-09-03 12:14:31 | 52.46058 | 11.28304 | 198° | 11km/h | 25029m | 6.2m/s | -49.6°C | 0% | 27hPa | 2.7V | 03:38:55 | 01:42:53 | 00:00:00 | |
| DF8AY-15 | 2026-09-03 12:14:31 | 52.46058 | 11.28303 | 198° | 7km/h | 25029m | 6.1m/s | -49.5°C | 2.7% | 26.9hPa | 2.7V | 00:00:00 | 01:42:53 | 00:00:00 | |
| DL1CLM-18 | 2026-09-03 12:14:30 | 52.46058 | 11.28303 | 199° | 11km/h | 25029m | 6.2m/s | -49.6°C | 0.4% | 27.0hPa | 2.7V | 03:38:00 | 00:00:00 | 00:00:00 | |
| S3001 | 2026-09-03 12:14:29 | 52.46062 | 11.28305 | 179° | 5km/h | 25017m | 5.0m/s | -49.6°C | 0.5% | 27.0hPa | 2.7V | 00:00:00 | 00:00:00 | 00:00:00 | |
| DL1XH1-15 | 2026-09-03 12:14:28 | 52.46070 | 11.28307 | 205° | 7km/h | 24995m | 5m/s | -49.8°C | 2.9% | 27.1hPa | 2.7V | 03:38:59 | 01:42:47 | 00:00:00 | |
| DF8AY | 2026-09-03 12:14:26 | 52.46068 | 11.28306 | 198° | 9km/h | 25000m | 5.4m/s | -49.7°C | 0% | 27.1hPa | 2.7V | 03:39:46 | 01:42:48 | 00:00:00 | |
| DB0DAN | 2026-09-03 12:14:25 | 52.46070 | 11.28307 | 206° | 5km/h | 24995m | 5m/s | -49.8°C | 0.5% | 27.13hPa | 2.7V | 00:00:00 | 00:00:00 | 00:00:00 | |
| DL1XH-west | 2026-09-03 12:14:24 | 52.46071 | 11.28308 | 224° | 4km/h | 24989m | 6.7m/s | -49.8°C | 0% | 27.1hPa | 2.7V | 03:39:46 | 01:42:46 | 00:00:00 | |
| HSKMA3-T | 2026-09-03 12:14:23 | 52.46071 | 11.28309 | 269° | 2km/h | 24982m | 6.1m/s | -49.7°C | 0% | 27.2hPa | 2.6V | 03:39:46 | 01:42:45 | 00:00:00 | |
| AA1-15 | 2026-09-03 12:14:21 | 52.46071 | 11.28312 | 261° | 4km/h | 24972m | 5.2m/s | -49.9°C | 0% | 27.2hPa | 2.7V | 03:39:46 | 01:42:43 | 00:00:00 | |
| DL1NUX | 2026-09-03 12:14:21 | 52.46074 | 11.28317 | 229° | 13km/h | 24960m | 5.4m/s | -49.8°C | 2.9% | 27.2hPa | 2.7V | 03:39:05 | 01:42:41 | 00:00:00 | |
| DF8AY | 2026-09-03 12:14:15 | 52.46083 | 11.28327 | 162° | 7km/h | 24939m | 5.8m/s | -49.8°C | 0% | 27.4hPa | 2.7V | 03:39:46 | 01:42:37 | 00:00:00 | |
| DM0DOS-11 | 2026-09-03 12:14:14 | 52.46091 | 11.28316 | 155° | 7km/h | 24911m | 4m/s | -49.6°C | 2.8% | 27.4hPa | 2.6V | 03:39:14 | 01:42:32 | 00:00:00 | |
| HSKMA3-T | 2026-09-03 12:14:13 | 52.46086 | 11.28323 | 133° | 9km/h | 24927m | 6m/s | -49.6°C | 0% | 27.4hPa | 2.7V | 03:39:46 | 01:42:35 | 00:00:00 | |
| DL1NUX | 2026-09-03 12:14:12 | 52.46093 | 11.28315 | 155° | 5km/h | 24906m | 6.4m/s | -49.6°C | 2.9% | 27.5hPa | 2.6V | 03:39:15 | 01:42:31 | 00:00:00 | |
| AA1-15 | 2026-09-03 12:14:10 | 52.46092 | 11.28316 | 156° | 7km/h | 24911m | 4m/s | -49.7°C | 0% | 27.5hPa | 2.6V | 03:39:46 | 01:42:32 | 00:00:00 | |
| DB0DAN | 2026-09-03 12:14:10 | 52.46092 | 11.28316 | 156° | 7km/h | 24911m | 4m/s | -49.7°C | 0.5% | 27.46hPa | 2.6V | 00:00:00 | 00:00:00 | 00:00:00 | |
| EDDB2-11 | 2026-09-03 12:14:10 | 52.46093 | 11.28315 | 155° | 4km/h | 24906m | 6.4m/s | -49.6°C | 0.5% | 27.5hPa | 2.7V | 00:00:00 | 00:00:00 | 00:00:00 | |
| GOEST3-10 | 2026-09-03 12:14:09 | 52.46093 | 11.28315 | 156° | 9km/h | 24906m | 6.4m/s | -49.5°C | 2.9% | 27.4hPa | 2.7V | 00:00:00 | 00:00:00 | 00:00:00 | |
| SMARD9-10 | 2026-09-03 12:14:08 | 52.46094 | 11.28314 | 172° | 4km/h | 24900m | 5.9m/s | -49.5°C | 0.4% | 27.5hPa | 2.7V | 00:00:00 | 00:00:00 | 00:00:00 | |
| DO9LL-15 | 2026-09-03 12:14:07 | 52.46095 | 11.28315 | 226° | 13km/h | 24894m | 4.8m/s | 0°C | 0% | 0hPa | 2.7V | 00:00:00 | 01:42:29 | 00:00:00 | |
| DM0DOS-11 | 2026-09-03 12:14:05 | 52.46115 | 11.28328 | 148° | 15km/h | 24853m | 5.2m/s | -49.5°C | 2.8% | 27.7hPa | 2.7V | 03:39:24 | 01:42:22 | 00:00:00 | |
| DF8AY | 2026-09-03 12:14:05 | 52.46101 | 11.28325 | 216° | 16km/h | 24876m | 5.2m/s | -49.4°C | 0% | 27.6hPa | 2.6V | 03:39:46 | 01:42:26 | 00:00:00 | |
| SONCRA | 2026-09-03 12:14:05 | 52.46101 | 11.28325 | 216° | 16km/h | 24876m | 5.2m/s | -49.4°C | 0.5% | 27.6hPa | 2.7V | 00:00:00 | 00:00:00 | 00:00:00 | |
| DL1NUX | 2026-09-03 12:14:04 | 52.46118 | 11.28325 | 148° | 15km/h | 24848m | 6.4m/s | -49.6°C | 2.8% | 27.7hPa | 2.7V | 03:39:25 | 01:42:21 | 00:00:00 | |
| DL1XH-west | 2026-09-03 12:14:02 | 52.46109 | 11.28330 | 190° | 15km/h | 24865m | 6.2m/s | -49.4°C | 0% | 27.7hPa | 2.6V | 03:39:46 | 01:42:24 | 00:00:00 | |
| DD8BA-10 | 2026-09-03 12:14:02 | 52.46108 | 11.28330 | 191° | 11km/h | 24866m | 6.2m/s | -49.3°C | 2.9% | 27.6hPa | 2.6V | 00:00:00 | 00:00:00 | 00:00:00 | |
| DO2SHX-10 | 2026-09-03 12:14:01 | 52.46112 | 11.28330 | 165° | 15km/h | 24859m | 5.6m/s | -49.3°C | 2.8% | 27.6hPa | 2.6V | 00:00:00 | 01:42:23 | 00:00:00 | |
| DL1XH1-15 | 2026-09-03 12:14:00 | 52.46128 | 11.28313 | 124° | 7km/h | 24825m | 6.7m/s | -49.5°C | 2.8% | 27.8hPa | 2.6V | 03:39:29 | 01:42:17 | 00:00:00 | |
| AA1-15 | 2026-09-03 12:13:59 | 52.46118 | 11.28325 | 148° | 15km/h | 24848m | 6.4m/s | -49.6°C | 0% | 27.7hPa | 2.7V | 03:39:46 | 01:42:21 | 00:00:00 | |
| S3001 | 2026-09-03 12:13:58 | 52.46121 | 11.28322 | 148° | 13km/h | 24842m | 6.0m/s | -49.5°C | 0.5% | 27.8hPa | 2.6V | 00:00:00 | 00:00:00 | 00:00:00 | |
| SMARD9-15 | 2026-09-03 12:13:56 | 52.46128 | 11.28313 | 124° | 5km/h | 24826m | 6.7m/s | -49.5°C | 0.5% | 27.8hPa | 2.6V | 00:00:00 | 00:00:00 | 00:00:00 | |
| DB0DAN | 2026-09-03 12:13:55 | 52.46128 | 11.28313 | 124° | 7km/h | 24826m | 6.7m/s | -49.5°C | 0.5% | 27.84hPa | 2.6V | 00:00:00 | 00:00:00 | 00:00:00 | |
| DO2SHX-10 | 2026-09-03 12:13:55 | 52.46127 | 11.28313 | 125° | 5km/h | 24826m | 6.7m/s | -49.4°C | 2.8% | 27.8hPa | 2.6V | 00:00:00 | 01:42:17 | 00:00:00 | |
| DM0DOS-11 | 2026-09-03 12:13:54 | 52.46136 | 11.28313 | 192° | 20km/h | 24799m | 5.2m/s | -49.1°C | 2.8% | 27.9hPa | 2.6V | 03:39:34 | 01:42:12 | 00:00:00 | |
| GOEST3-10 | 2026-09-03 12:13:53 | 52.46129 | 11.28310 | 154° | 13km/h | 24815m | 3.9m/s | -49.2°C | 2.8% | 27.8hPa | 2.6V | 00:00:00 | 01:42:15 | 00:00:00 | |
| DJ8HS-15 | 2026-09-03 12:13:52 | 52.46130 | 11.28310 | 195° | 11km/h | 24810m | 5.4m/s | -49.1°C | 2.7% | 27.9hPa | 2.6V | 03:39:00 | 01:42:14 | 00:00:00 | |
| HSKMA3-T | 2026-09-03 12:13:52 | 52.46130 | 11.28310 | 194° | 7km/h | 24810m | 5.4m/s | -49.1°C | 0% | 27.9hPa | 2.7V | 03:39:46 | 01:42:14 | 00:00:00 | |
| DL1NUX | 2026-09-03 12:13:51 | 52.46142 | 11.28314 | 184° | 24km/h | 24793m | 4.6m/s | -49°C | 2.7% | 28hPa | 2.6V | 03:39:35 | 01:42:11 | 00:00:00 | |
| DL1XH-west | 2026-09-03 12:13:51 | 52.46132 | 11.28311 | 199° | 13km/h | 24804m | 6.6m/s | -49.1°C | 0% | 27.9hPa | 2.7V | 03:39:46 | 01:42:13 | 00:00:00 | |
| AA1-15 | 2026-09-03 12:13:49 | 52.46142 | 11.28314 | 184° | 26km/h | 24793m | 4.6m/s | -49.1°C | 0% | 28hPa | 2.6V | 03:39:46 | 01:42:11 | 00:00:00 | |
| DO2SHX-10 | 2026-09-03 12:13:49 | 52.46142 | 11.28314 | 185° | 24km/h | 24794m | 4.5m/s | -49.0°C | 2.7% | 27.9hPa | 2.6V | 00:00:00 | 01:42:11 | 00:00:00 | |
| GOEST3-10 | 2026-09-03 12:13:48 | 52.46148 | 11.28314 | 177° | 18km/h | 24788m | 5.5m/s | -49.0°C | 2.7% | 27.9hPa | 2.7V | 00:00:00 | 00:00:00 | 00:00:00 | |
| DF7ER-10 | 2026-09-03 12:13:47 | 52.46148 | 11.28314 | 177° | 26km/h | 24788m | 5.6m/s | -49.0°C | 0.5% | 28.0hPa | 2.7V | 03:39:00 | 00:00:00 | 00:00:00 | |
| DL1XH1-15 | 2026-09-03 12:13:46 | 52.46163 | 11.28306 | 144° | 16km/h | 24772m | 5.1m/s | -49.1°C | 2.6% | 28hPa | 2.7V | 03:39:39 | 01:42:07 | 00:00:00 | |
| DO2SHX-10 | 2026-09-03 12:13:46 | 52.46159 | 11.28310 | 154° | 16km/h | 24777m | 5.0m/s | -49.0°C | 2.6% | 28.0hPa | 2.7V | 00:00:00 | 01:42:08 | 00:00:00 | |
| DL1NUX | 2026-09-03 12:13:44 | 52.46170 | 11.28300 | 125° | 4km/h | 24738m | 5.4m/s | -49.5°C | 2.8% | 28.2hPa | 2.7V | 03:39:45 | 01:42:01 | 00:00:00 | |
| HSKMA3-T | 2026-09-03 12:13:41 | 52.46170 | 11.28301 | 215° | 2km/h | 24749m | 4.7m/s | -49.4°C | 0% | 28.2hPa | 2.6V | 03:39:46 | 01:42:03 | 00:00:00 | |
| DF8AY | 2026-09-03 12:13:41 | 52.46185 | 11.28294 | 171° | 29km/h | 24716m | 5.2m/s | -49.7°C | 0% | 28.3hPa | 2.7V | 03:40:37 | 01:41:57 | 00:00:00 | |
| DL1XH-west | 2026-09-03 12:13:41 | 52.46170 | 11.28301 | 134° | 0km/h | 24744m | 6.3m/s | -49.5°C | 0% | 28.2hPa | 2.7V | 03:39:46 | 01:42:02 | 00:00:00 | |
| DB0DAN | 2026-09-03 12:13:40 | 52.46170 | 11.28301 | 134° | 0km/h | 24744m | 6.3m/s | -49.5°C | 0.5% | 28.2hPa | 2.7V | 00:00:00 | 00:00:00 | 00:00:00 | |
| AA1-15 | 2026-09-03 12:13:38 | 52.46172 | 11.28299 | 153° | 9km/h | 24733m | 4.4m/s | -49.6°C | 0% | 28.2hPa | 2.7V | 03:39:46 | 01:42:00 | 00:00:00 | |
| HSKMA3-T | 2026-09-03 12:13:31 | 52.46215 | 11.28274 | 145° | 29km/h | 24695m | 4.1m/s | -49.6°C | 0% | 28.4hPa | 2.6V | 03:40:37 | 01:41:53 | 00:00:00 | |
| DL1NUX | 2026-09-03 12:13:31 | 52.46226 | 11.28262 | 142° | 20km/h | 24685m | 6m/s | -49.6°C | 2.8% | 28.5hPa | 2.7V | 03:39:55 | 01:41:51 | 00:00:00 | |
| DL1XH-west | 2026-09-03 12:13:30 | 52.46221 | 11.28268 | 144° | 26km/h | 24690m | 5m/s | -49.6°C | 0% | 28.4hPa | 2.7V | 03:40:37 | 01:41:52 | 00:00:00 | |
| AA1-15 | 2026-09-03 12:13:27 | 52.46231 | 11.28255 | 141° | 9km/h | 24673m | 5.3m/s | -49.5°C | 0% | 28.5hPa | 2.6V | 03:40:37 | 01:41:49 | 00:00:00 | |
| DF7ER-10 | 2026-09-03 12:13:27 | 52.46231 | 11.28255 | 142° | 9km/h | 24674m | 5.3m/s | -49.5°C | 0.5% | 28.5hPa | 2.6V | 03:40:00 | 00:00:00 | 00:00:00 | |
| DB0DAN | 2026-09-03 12:13:25 | 52.46234 | 11.28249 | 116° | 9km/h | 24662m | 6.2m/s | -49.6°C | 0.5% | 28.56hPa | 2.6V | 00:00:00 | 00:00:00 | 00:00:00 | |
| DF8AY | 2026-09-03 12:13:24 | 52.46235 | 11.28246 | 119° | 11km/h | 24656m | 5.1m/s | -49.6°C | 0% | 28.6hPa | 2.7V | 03:40:37 | 01:41:46 | 00:00:00 | |
| DM0DOS-11 | 2026-09-03 12:13:24 | 52.46247 | 11.28236 | 169° | 20km/h | 24633m | 5.2m/s | -49.6°C | 2.8% | 28.6hPa | 2.6V | 03:40:04 | 01:41:42 | 00:00:00 | |
| HSKMA3-T | 2026-09-03 12:13:21 | 52.46243 | 11.28238 | 169° | 16km/h | 24639m | 6.2m/s | -49.7°C | 0% | 28.6hPa | 2.7V | 03:40:37 | 01:41:43 | 00:00:00 | |
| DL1XH-west | 2026-09-03 12:13:19 | 52.46253 | 11.28234 | 162° | 22km/h | 24628m | 5.7m/s | -49.6°C | 0% | 28.7hPa | 2.6V | 03:40:37 | 01:41:41 | 00:00:00 | |
| AA1-15 | 2026-09-03 12:13:17 | 52.46268 | 11.28221 | 143° | 20km/h | 24611m | 5.5m/s | -49.5°C | 0% | 28.8hPa | 2.7V | 03:40:37 | 01:41:38 | 00:00:00 | |
| DF8AY | 2026-09-03 12:13:14 | 52.46274 | 11.28213 | 139° | 13km/h | 24599m | 5.3m/s | -49.4°C | 0% | 28.8hPa | 2.7V | 03:40:37 | 01:41:36 | 00:00:00 | |
| 13BRC | 2026-09-03 12:13:14 | 52.46274 | 11.28212 | 140° | 13km/h | 24599m | 5.3m/s | 0°C | 0% | 0hPa | 2.6V | 00:00:00 | 00:00:00 | 00:00:00 | |
| DO2SHX-10 | 2026-09-03 12:13:13 | 52.46276 | 11.28209 | 133° | 13km/h | 24594m | 4.9m/s | -49.3°C | 2.8% | 28.8hPa | 2.6V | 00:00:00 | 01:41:35 | 00:00:00 | |
| DM0DOS-11 | 2026-09-03 12:13:12 | 52.46282 | 11.28197 | 131° | 13km/h | 24576m | 5.3m/s | -49.4°C | 2.8% | 28.9hPa | 2.7V | 03:40:14 | 01:41:32 | 00:00:00 | |
| HSKMA3-T | 2026-09-03 12:13:10 | 52.46282 | 11.28197 | 132° | 13km/h | 24577m | 5.3m/s | -49.4°C | 0% | 28.9hPa | 2.7V | 03:40:37 | 01:41:32 | 00:00:00 | |
| DL1XH1-15 | 2026-09-03 12:13:10 | 52.46299 | 11.28185 | 154° | 22km/h | 24549m | 6.2m/s | -49.5°C | 2.9% | 29hPa | 2.6V | 03:40:19 | 01:41:27 | 00:00:00 | |
| DL1NUX | 2026-09-03 12:13:10 | 52.46284 | 11.28193 | 145° | 13km/h | 24571m | 6.4m/s | -49.4°C | 2.8% | 28.9hPa | 2.7V | 03:40:15 | 01:41:31 | 00:00:00 | |
| DL1XH-west | 2026-09-03 12:13:09 | 52.46284 | 11.28193 | 146° | 13km/h | 24571m | 6.4m/s | -49.4°C | 0% | 28.9hPa | 2.7V | 03:40:37 | 01:41:31 | 00:00:00 | |
| AA1-15 | 2026-09-03 12:13:06 | 52.46295 | 11.28188 | 164° | 18km/h | 24554m | 4.6m/s | -49.5°C | 0% | 29hPa | 2.6V | 03:40:37 | 01:41:28 | 00:00:00 | |
| DL1NUX | 2026-09-03 12:13:04 | 52.46323 | 11.28146 | 113° | 15km/h | 24516m | 4.8m/s | -49.5°C | 2.8% | 29.2hPa | 2.6V | 03:40:25 | 01:41:21 | 00:00:00 | |
| DF8AY | 2026-09-03 12:13:03 | 52.46310 | 11.28173 | 137° | 27km/h | 24537m | 4.8m/s | -49.4°C | 0% | 29.1hPa | 2.7V | 03:40:37 | 01:41:25 | 00:00:00 | |
| HSKMA3-T | 2026-09-03 12:13:00 | 52.46321 | 11.28152 | 122° | 16km/h | 24521m | 5.3m/s | -49.5°C | 0% | 29.2hPa | 2.6V | 03:40:37 | 01:41:22 | 00:00:00 | |
| DL1XH-west | 2026-09-03 12:12:59 | 52.46323 | 11.28146 | 114° | 15km/h | 24516m | 4.8m/s | -49.5°C | 0% | 29.2hPa | 2.6V | 03:40:37 | 01:41:21 | 00:00:00 | |
| DO2SHX-10 | 2026-09-03 12:12:58 | 52.46324 | 11.28140 | 107° | 16km/h | 24511m | 5.4m/s | -49.3°C | 2.7% | 29.1hPa | 2.6V | 00:00:00 | 01:41:20 | 00:00:00 | |
| DL1XH1-15 | 2026-09-03 12:12:57 | 52.46328 | 11.28120 | 114° | 18km/h | 24495m | 4.5m/s | -49.3°C | 2.7% | 29.2hPa | 2.6V | 03:40:29 | 01:41:17 | 00:00:00 | |
| AA1-15 | 2026-09-03 12:12:55 | 52.46328 | 11.28120 | 114° | 18km/h | 24495m | 4.5m/s | -49.3°C | 0% | 29.3hPa | 2.6V | 03:40:37 | 01:41:17 | 00:00:00 | |
| DB0DAN | 2026-09-03 12:12:55 | 52.46328 | 11.28120 | 114° | 16km/h | 24495m | 4.5m/s | -49.3°C | 0.5% | 29.26hPa | 2.6V | 00:00:00 | 00:00:00 | 00:00:00 | |
| DO2SHX-10 | 2026-09-03 12:12:55 | 52.46328 | 11.28120 | 115° | 16km/h | 24495m | 4.4m/s | -49.2°C | 2.7% | 29.2hPa | 2.6V | 00:00:00 | 01:41:17 | 00:00:00 | |
| DL1NUX | 2026-09-03 12:12:54 | 52.46349 | 11.28084 | 132° | 27km/h | 24461m | 4.5m/s | -49.5°C | 2.8% | 29.4hPa | 2.6V | 03:40:35 | 01:41:11 | 00:00:00 | |
| DF8AY | 2026-09-03 12:12:53 | 52.46358 | 11.28068 | 126° | 22km/h | 24451m | 6.2m/s | -49.6°C | 0% | 29.5hPa | 2.7V | 03:40:37 | 01:41:09 | 00:00:00 | |
| HSKMA3-T | 2026-09-03 12:12:50 | 52.46345 | 11.28092 | 137° | 27km/h | 24466m | 5.9m/s | -49.5°C | 0% | 29.4hPa | 2.6V | 03:40:37 | 01:41:12 | 00:00:00 | |
| DL1XH-west | 2026-09-03 12:12:48 | 52.46354 | 11.28076 | 129° | 26km/h | 24456m | 4.6m/s | -49.6°C | 0% | 29.4hPa | 2.6V | 03:40:37 | 01:41:10 | 00:00:00 | |
| AA1-15 | 2026-09-03 12:12:45 | 52.46361 | 11.28052 | 86° | 13km/h | 24434m | 5.8m/s | -49.7°C | 0% | 29.5hPa | 2.7V | 03:41:28 | 01:41:06 | 00:00:00 | |
| DO2SHX-10 | 2026-09-03 12:12:43 | 52.46361 | 11.28047 | 81° | 13km/h | 24428m | 6.0m/s | -49.8°C | 2.8% | 29.5hPa | 2.7V | 00:00:00 | 01:41:05 | 00:00:00 | |
| DM0DOS-11 | 2026-09-03 12:12:42 | 52.46359 | 11.28032 | 77° | 9km/h | 24412m | 6.4m/s | -49.9°C | 2.8% | 29.6hPa | 2.7V | 03:40:44 | 01:41:02 | 00:00:00 | |
| DF8AY | 2026-09-03 12:12:41 | 52.46359 | 11.28036 | 77° | 11km/h | 24418m | 4.6m/s | -50°C | 0% | 29.6hPa | 2.6V | 03:41:28 | 01:41:03 | 00:00:00 | |
| HSKMA3-T | 2026-09-03 12:12:40 | 52.46359 | 11.28032 | 77° | 9km/h | 24412m | 6.4m/s | -49.9°C | 0% | 29.6hPa | 2.7V | 03:42:19 | 01:41:02 | 00:00:00 | |
| DL1XH-west | 2026-09-03 12:12:38 | 52.46359 | 11.28027 | 121° | 7km/h | 24401m | 4.7m/s | -49.8°C | 0% | 29.7hPa | 2.7V | 03:41:28 | 01:41:00 | 00:00:00 | |
| AA1-15 | 2026-09-03 12:12:34 | 52.46369 | 11.28006 | 123° | 18km/h | 24379m | 4.2m/s | -50°C | 0% | 29.8hPa | 2.6V | 03:41:28 | 01:40:56 | 00:00:00 | |
| DO2SHX-10 | 2026-09-03 12:12:34 | 52.46369 | 11.28006 | 124° | 13km/h | 24380m | 4.2m/s | -50.0°C | 3.0% | 29.7hPa | 2.6V | 00:00:00 | 01:40:56 | 00:00:00 | |
| GOEST3-10 | 2026-09-03 12:12:33 | 52.46371 | 11.28000 | 119° | 9km/h | 24375m | 5.7m/s | -50.1°C | 3.0% | 29.8hPa | 2.6V | 00:00:00 | 01:40:55 | 00:00:00 | |
| DM0DOS-11 | 2026-09-03 12:12:32 | 52.46370 | 11.27993 | 11° | 9km/h | 24358m | 4.8m/s | -50.3°C | 3% | 29.9hPa | 2.6V | 03:40:54 | 01:40:52 | 00:00:00 | |
| DF8AY | 2026-09-03 12:12:31 | 52.46371 | 11.27994 | 31° | 5km/h | 24363m | 5.3m/s | -50.3°C | 0% | 29.9hPa | 2.7V | 03:41:28 | 01:40:53 | 00:00:00 | |
| HSKMA3-T | 2026-09-03 12:12:30 | 52.46367 | 11.27992 | 17° | 13km/h | 24353m | 6m/s | -50.3°C | 0% | 29.9hPa | 2.6V | 03:42:19 | 01:40:51 | 00:00:00 | |
| DL1XH-west | 2026-09-03 12:12:28 | 52.46364 | 11.27990 | 28° | 15km/h | 24347m | 5.8m/s | -50.3°C | 0% | 30hPa | 2.7V | 03:41:28 | 01:40:50 | 00:00:00 | |
| DO2SHX-10 | 2026-09-03 12:12:28 | 52.46364 | 11.27990 | 29° | 13km/h | 24347m | 5.8m/s | -50.3°C | 2.9% | 29.9hPa | 2.7V | 03:40:00 | 01:40:50 | 00:00:00 | |
| TFSTFS | 2026-09-03 12:12:27 | 52.46361 | 11.27986 | 41° | 13km/h | 24342m | 4.8m/s | -50.2°C | 0.5% | 30.0hPa | 2.6V | 00:00:00 | 00:00:00 | 00:00:00 | |
| DL1XH1-15 | 2026-09-03 12:12:26 | 52.46358 | 11.27980 | 80° | 5km/h | 24331m | 6.2m/s | -50.2°C | 2.8% | 30hPa | 2.6V | 03:40:59 | 01:40:47 | 00:00:00 | |
| DB0DAN | 2026-09-03 12:12:25 | 52.46358 | 11.27980 | 81° | 5km/h | 24331m | 6.2m/s | -50.2°C | 0.5% | 30.01hPa | 2.6V | 00:00:00 | 00:00:00 | 00:00:00 | |
| TFSTFS | 2026-09-03 12:12:25 | 52.46358 | 11.27980 | 82° | 5km/h | 24332m | 6.2m/s | -50.2°C | 0.5% | 30.0hPa | 2.6V | 03:41:00 | 00:00:00 | 00:00:00 | |
| DL1NUX | 2026-09-03 12:12:24 | 52.46371 | 11.27968 | 128° | 13km/h | 24298m | 4.7m/s | -50°C | 3% | 30.2hPa | 2.6V | 03:41:05 | 01:40:41 | 00:00:00 | |
| AA1-15 | 2026-09-03 12:12:23 | 52.46360 | 11.27978 | 170° | 9km/h | 24319m | 4.9m/s | -50.3°C | 0% | 30.1hPa | 2.7V | 03:41:28 | 01:40:45 | 00:00:00 | |
| SMARD9-15 | 2026-09-03 12:12:23 | 52.46363 | 11.27977 | 168° | 11km/h | 24315m | 5.0m/s | -50.3°C | 0.5% | 30.1hPa | 2.6V | 00:00:00 | 00:00:00 | 00:00:00 | |
| DM0DOS-11 | 2026-09-03 12:12:22 | 52.46369 | 11.27972 | 138° | 15km/h | 24303m | 5.7m/s | -50.1°C | 3% | 30.1hPa | 2.6V | 03:41:04 | 01:40:42 | 00:00:00 | |
| DF8AY | 2026-09-03 12:12:20 | 52.46369 | 11.27972 | 138° | 15km/h | 24303m | 5.7m/s | -50.1°C | 0% | 30.1hPa | 2.6V | 03:41:28 | 01:40:42 | 00:00:00 | |
| HSKMA3-T | 2026-09-03 12:12:19 | 52.46371 | 11.27968 | 128° | 13km/h | 24298m | 4.7m/s | -50°C | 0% | 30.2hPa | 2.6V | 03:42:19 | 01:40:41 | 00:00:00 | |
| DL1XH-west | 2026-09-03 12:12:18 | 52.46373 | 11.27962 | 116° | 4km/h | 24287m | 6.5m/s | -50.2°C | 0% | 30.2hPa | 2.7V | 03:41:28 | 01:40:39 | 00:00:00 | |
| DL4BBY-15 | 2026-09-03 12:12:17 | 52.46373 | 11.27962 | 116° | 26km/h | 24287m | 6.5m/s | -48.5°C | 0% | 0hPa | 2.7V | 00:00:00 | 00:00:00 | 00:00:00 | |
| DJ2DS-15 | 2026-09-03 12:12:16 | 52.46373 | 11.27963 | 298° | 4km/h | 24277m | 4.3m/s | -50.4°C | 0.5% | 30.3hPa | 2.7V | 00:00:00 | 00:00:00 | 00:00:00 | |
| BUE01 | 2026-09-03 12:12:15 | 52.46372 | 11.27965 | 309° | 0km/h | 24266m | 6.0m/s | 0°C | -1.0% | -1.0hPa | 2.7V | 00:00:00 | 00:00:00 | 00:00:00 | |
| DL1NUX | 2026-09-03 12:12:14 | 52.46378 | 11.27965 | 194° | 13km/h | 24244m | 5.9m/s | -50.2°C | 2.8% | 30.4hPa | 2.7V | 03:41:15 | 01:40:31 | 00:00:00 | |
| AA1-15 | 2026-09-03 12:12:14 | 52.46372 | 11.27965 | 310° | 2km/h | 24266m | 6m/s | -50.4°C | 0% | 30.3hPa | 2.6V | 03:41:28 | 01:40:35 | 00:00:00 | |
| GOEST3-10 | 2026-09-03 12:12:14 | 52.46372 | 11.27965 | 310° | 9km/h | 24266m | 6.0m/s | -50.3°C | 2.9% | 30.3hPa | 2.6V | 00:00:00 | 01:40:35 | 00:00:00 | |
| DO2SHX-10 | 2026-09-03 12:12:13 | 52.46372 | 11.27965 | 310° | 4km/h | 24266m | 6.0m/s | -50.3°C | 2.9% | 30.3hPa | 2.7V | 00:00:00 | 01:40:35 | 00:00:00 | |
| DM0DOS-11 | 2026-09-03 12:12:12 | 52.46375 | 11.27965 | 178° | 9km/h | 24250m | 5m/s | -50.2°C | 2.8% | 30.4hPa | 2.7V | 03:41:14 | 01:40:32 | 00:00:00 | |
| DB0DAN | 2026-09-03 12:12:10 | 52.46375 | 11.27965 | 179° | 9km/h | 24250m | 5m/s | -50.2°C | 0.4% | 30.41hPa | 2.7V | 00:00:00 | 00:00:00 | 00:00:00 | |
| DF8AY | 2026-09-03 12:12:10 | 52.46375 | 11.27965 | 179° | 9km/h | 24250m | 5m/s | -50.2°C | 0% | 30.4hPa | 2.7V | 03:41:28 | 01:40:32 | 00:00:00 | |
| DL1XH-west | 2026-09-03 12:12:06 | 52.46389 | 11.27972 | 198° | 16km/h | 24229m | 4.5m/s | -50.2°C | 0% | 30.5hPa | 2.6V | 03:41:28 | 01:40:28 | 00:00:00 | |
| EDDB2-11 | 2026-09-03 12:12:05 | 52.46393 | 11.27974 | 187° | 15km/h | 24223m | 6.3m/s | -50.2°C | 0.5% | 30.5hPa | 2.6V | 00:00:00 | 00:00:00 | 00:00:00 | |
| DL1NUX | 2026-09-03 12:12:04 | 52.46414 | 11.27977 | 202° | 15km/h | 24191m | 3.8m/s | -50.2°C | 3% | 30.7hPa | 2.6V | 03:41:25 | 01:40:21 | 00:00:00 | |
| AA1-15 | 2026-09-03 12:12:02 | 52.46404 | 11.27973 | 179° | 13km/h | 24207m | 5.4m/s | -50.2°C | 0% | 30.6hPa | 2.7V | 03:41:28 | 01:40:24 | 00:00:00 | |
| DM0DOS-11 | 2026-09-03 12:12:02 | 52.46411 | 11.27975 | 201° | 15km/h | 24195m | 4.7m/s | -50.2°C | 3% | 30.6hPa | 2.6V | 03:41:24 | 01:40:22 | 00:00:00 | |
| HSKMA3-T | 2026-09-03 12:12:01 | 52.46408 | 11.27973 | 191° | 13km/h | 24201m | 6.1m/s | -50.2°C | 0% | 30.6hPa | 2.7V | 03:42:19 | 01:40:23 | 00:00:00 | |
| DF8AY | 2026-09-03 12:11:59 | 52.46414 | 11.27977 | 202° | 15km/h | 24191m | 3.8m/s | -50.2°C | 0% | 30.7hPa | 2.6V | 03:41:28 | 01:40:21 | 00:00:00 | |
| SONDE2-11 | 2026-09-03 12:11:59 | 52.46414 | 11.27977 | 202° | 13km/h | 24191m | 3.8m/s | -50.2°C | 0.5% | 30.7hPa | 2.7V | 00:00:00 | 00:00:00 | 00:00:00 | |
| DO2SHX-10 | 2026-09-03 12:11:58 | 52.46417 | 11.27979 | 195° | 11km/h | 24186m | 5.9m/s | -50.2°C | 2.9% | 30.7hPa | 2.7V | 00:00:00 | 01:40:20 | 00:00:00 | |
| GOEST3-10 | 2026-09-03 12:11:57 | 52.46420 | 11.27979 | 176° | 11km/h | 24180m | 6.3m/s | -50.2°C | 2.9% | 30.7hPa | 2.7V | 03:41:00 | 00:00:00 | 00:00:00 | |
| DL1XH1-15 | 2026-09-03 12:11:56 | 52.46426 | 11.27977 | 159° | 11km/h | 24169m | 4.8m/s | -50.5°C | 2.9% | 30.8hPa | 2.6V | 03:41:29 | 01:40:17 | 00:00:00 | |
| DB0DAN | 2026-09-03 12:11:55 | 52.46426 | 11.27977 | 160° | 11km/h | 24169m | 4.9m/s | -50.5°C | 0.5% | 30.78hPa | 2.6V | 00:00:00 | 00:00:00 | 00:00:00 | |
| DL1XH-west | 2026-09-03 12:11:55 | 52.46426 | 11.27977 | 160° | 11km/h | 24169m | 4.9m/s | -50.5°C | 0% | 30.8hPa | 2.6V | 03:42:19 | 01:40:17 | 00:00:00 | |
| DO2SHX-10 | 2026-09-03 12:11:55 | 52.46426 | 11.27977 | 160° | 11km/h | 24169m | 4.8m/s | -50.4°C | 2.9% | 30.7hPa | 2.6V | 00:00:00 | 01:40:17 | 00:00:00 | |
| DL1NUX | 2026-09-03 12:11:54 | 52.46443 | 11.27966 | 133° | 16km/h | 24136m | 5.8m/s | -50.1°C | 2.9% | 30.9hPa | 2.6V | 03:41:35 | 01:40:11 | 00:00:00 | |
| AA1-15 | 2026-09-03 12:11:51 | 52.46437 | 11.27973 | 160° | 13km/h | 24148m | 5.1m/s | -50.3°C | 0% | 30.9hPa | 2.7V | 03:42:19 | 01:40:13 | 00:00:00 | |
| DF8AY | 2026-09-03 12:11:49 | 52.46443 | 11.27966 | 133° | 16km/h | 24136m | 5.8m/s | -50.1°C | 0% | 30.9hPa | 2.6V | 03:42:19 | 01:40:11 | 00:00:00 | |
| DF8AY-15 | 2026-09-03 12:11:49 | 52.46443 | 11.27966 | 134° | 18km/h | 24136m | 5.7m/s | -50.1°C | 2.9% | 30.9hPa | 2.6V | 00:00:00 | 01:40:11 | 00:00:00 | |
| GOEST3-10 | 2026-09-03 12:11:47 | 52.46449 | 11.27956 | 137° | 15km/h | 24126m | 5.0m/s | -50.1°C | 2.9% | 30.9hPa | 2.7V | 00:00:00 | 00:00:00 | 00:00:00 | |
| DL1XH1-15 | 2026-09-03 12:11:46 | 52.46456 | 11.27949 | 159° | 15km/h | 24115m | 5.2m/s | -50.2°C | 2.9% | 31hPa | 2.7V | 03:41:39 | 01:40:07 | 00:00:00 | |
| DL1XH-west | 2026-09-03 12:11:45 | 52.46456 | 11.27949 | 160° | 15km/h | 24115m | 5.2m/s | -50.2°C | 0% | 31hPa | 2.7V | 03:42:19 | 01:40:07 | 00:00:00 | |
| DL1NUX | 2026-09-03 12:11:44 | 52.46473 | 11.27924 | 132° | 20km/h | 24082m | 6.2m/s | -50.4°C | 2.8% | 31.2hPa | 2.7V | 03:41:45 | 01:40:01 | 00:00:00 | |
| HSKMA3-T | 2026-09-03 12:11:42 | 52.46465 | 11.27942 | 134° | 15km/h | 24098m | 6m/s | -50.4°C | 0% | 31.1hPa | 2.6V | 03:42:19 | 01:40:04 | 00:00:00 | |
| DJ8HS-15 | 2026-09-03 12:11:42 | 52.46465 | 11.27942 | 135° | 20km/h | 24099m | 6.0m/s | -50.4°C | 2.9% | 31.1hPa | 2.7V | 00:00:00 | 01:40:04 | 00:00:00 | |
| DB0DAN | 2026-09-03 12:11:40 | 52.46470 | 11.27930 | 126° | 18km/h | 24088m | 4.8m/s | -50.4°C | 0.5% | 31.19hPa | 2.7V | 00:00:00 | 00:00:00 | 00:00:00 | |
| AA1-15 | 2026-09-03 12:11:40 | 52.46470 | 11.27930 | 126° | 18km/h | 24088m | 4.8m/s | -50.4°C | 0% | 31.2hPa | 2.7V | 03:42:19 | 01:40:02 | 00:00:00 | |
| DF8AY | 2026-09-03 12:11:38 | 52.46477 | 11.27919 | 139° | 20km/h | 24076m | 5.8m/s | -50.3°C | 0% | 31.2hPa | 2.7V | 03:42:19 | 01:40:00 | 00:00:00 | |
| DL1XH-west | 2026-09-03 12:11:34 | 52.46491 | 11.27892 | 121° | 24km/h | 24055m | 5.5m/s | -50.4°C | 0% | 31.3hPa | 2.6V | 03:42:19 | 01:39:56 | 00:00:00 | |
| DO2SHX-10 | 2026-09-03 12:11:34 | 52.46491 | 11.27892 | 121° | 24km/h | 24055m | 5.4m/s | -50.3°C | 2.9% | 31.3hPa | 2.6V | 00:00:00 | 01:39:56 | 00:00:00 | |
| DL1LOL-11 | 2026-09-03 12:11:32 | 52.46498 | 11.27876 | 131° | 22km/h | 24044m | 6.7m/s | -50.5°C | 0.5% | 31.4hPa | 2.7V | 00:00:00 | 00:00:00 | 00:00:00 | |
| DM0DOS-11 | 2026-09-03 12:11:31 | 52.46504 | 11.27865 | 137° | 16km/h | 24031m | 5.6m/s | -50.6°C | 2.9% | 31.4hPa | 2.7V | 03:41:54 | 01:39:52 | 00:00:00 | |
| AA1-15 | 2026-09-03 12:11:30 | 52.46504 | 11.27865 | 137° | 16km/h | 24032m | 5.6m/s | -50.6°C | 0% | 31.4hPa | 2.7V | 03:42:19 | 01:39:52 | 00:00:00 | |
| DF8AY | 2026-09-03 12:11:28 | 52.46510 | 11.27855 | 124° | 18km/h | 24019m | 5.5m/s | -50.7°C | 0% | 31.5hPa | 2.6V | 03:42:19 | 01:39:50 | 00:00:00 | |
| SONDE2-11 | 2026-09-03 12:11:28 | 52.46512 | 11.27849 | 124° | 18km/h | 24015m | 4.4m/s | -50.8°C | 0.5% | 31.5hPa | 2.6V | 00:00:00 | 00:00:00 | 00:00:00 | |
| GOEST3-10 | 2026-09-03 12:11:27 | 52.46512 | 11.27849 | 125° | 22km/h | 24015m | 4.4m/s | -50.7°C | 3.0% | 31.5hPa | 2.6V | 00:00:00 | 00:00:00 | 00:00:00 | |
| DB0DAN | 2026-09-03 12:11:25 | 52.46519 | 11.27836 | 135° | 20km/h | 24004m | 6.1m/s | -50.9°C | 0.5% | 31.53hPa | 2.7V | 00:00:00 | 00:00:00 | 00:00:00 | |
| DM0DOS-11 | 2026-09-03 12:11:25 | 52.46539 | 11.27787 | 106° | 35km/h | 23977m | 4.2m/s | -50.9°C | 3.1% | 31.7hPa | 2.7V | 03:42:04 | 01:39:42 | 00:00:00 | |
| DL1XH-west | 2026-09-03 12:11:24 | 52.46523 | 11.27830 | 136° | 26km/h | 23998m | 4.6m/s | -50.9°C | 0% | 31.6hPa | 2.7V | 03:42:19 | 01:39:46 | 00:00:00 | |
| DL1NUX | 2026-09-03 12:11:24 | 52.46541 | 11.27773 | 104° | 33km/h | 23973m | 4.9m/s | -50.9°C | 3% | 31.7hPa | 2.7V | 03:42:05 | 01:39:41 | 00:00:00 | |
| AA1-15 | 2026-09-03 12:11:19 | 52.46541 | 11.27773 | 104° | 33km/h | 23973m | 4.9m/s | -50.9°C | 0% | 31.7hPa | 2.7V | 03:42:19 | 01:39:41 | 00:00:00 | |
| HSKMA3-T | 2026-09-03 12:11:19 | 52.46543 | 11.27761 | 105° | 29km/h | 23968m | 5.7m/s | -51°C | 0% | 31.7hPa | 2.6V | 03:42:19 | 01:39:40 | 00:00:00 | |
| DF8AY | 2026-09-03 12:11:18 | 52.46545 | 11.27751 | 106° | 24km/h | 23962m | 5.6m/s | -51.1°C | 0% | 31.7hPa | 2.6V | 03:42:19 | 01:39:39 | 00:00:00 | |
| GOEST3-10 | 2026-09-03 12:11:17 | 52.46545 | 11.27751 | 106° | 18km/h | 23962m | 5.6m/s | -51.0°C | 3.1% | 31.7hPa | 2.6V | 03:42:00 | 00:00:00 | 00:00:00 | |
| DO2SHX-10 | 2026-09-03 12:11:16 | 52.46546 | 11.27742 | 105° | 18km/h | 23957m | 4.6m/s | -51.1°C | 3.1% | 31.7hPa | 2.6V | 03:42:00 | 01:39:38 | 00:00:00 | |
| DM0DOS-11 | 2026-09-03 12:11:15 | 52.46552 | 11.27709 | 130° | 11km/h | 23923m | 4.8m/s | -51.2°C | 3% | 31.9hPa | 2.6V | 03:42:14 | 01:39:32 | 00:00:00 | |
| DL1NUX | 2026-09-03 12:11:14 | 52.46554 | 11.27705 | 119° | 13km/h | 23919m | 4.3m/s | -51.2°C | 3% | 31.9hPa | 2.6V | 03:42:15 | 01:39:31 | 00:00:00 | |
| DL1XH-west | 2026-09-03 12:11:13 | 52.46549 | 11.27722 | 100° | 15km/h | 23940m | 4.4m/s | -51.1°C | 0% | 31.9hPa | 2.7V | 03:42:19 | 01:39:35 | 00:00:00 | |
| DO2SHX-10 | 2026-09-03 12:11:13 | 52.46549 | 11.27722 | 100° | 13km/h | 23940m | 4.4m/s | -51.1°C | 3.0% | 31.8hPa | 2.7V | 00:00:00 | 01:39:35 | 00:00:00 | |
| GOEST3-10 | 2026-09-03 12:11:12 | 52.46549 | 11.27717 | 110° | 13km/h | 23935m | 5.2m/s | -51.1°C | 3.0% | 31.8hPa | 2.7V | 00:00:00 | 01:39:34 | 00:00:00 | |
| DB0DAN | 2026-09-03 12:11:10 | 52.46552 | 11.27709 | 130° | 11km/h | 23923m | 4.8m/s | -51.2°C | 0.6% | 31.95hPa | 2.6V | 00:00:00 | 00:00:00 | 00:00:00 | |
| AA1-15 | 2026-09-03 12:11:09 | 52.46554 | 11.27705 | 119° | 13km/h | 23919m | 4.3m/s | -51.3°C | 0% | 32hPa | 2.6V | 03:42:19 | 01:39:31 | 00:00:00 | |
| HSKMA3-T | 2026-09-03 12:11:08 | 52.46555 | 11.27700 | 106° | 15km/h | 23913m | 6.5m/s | -51.3°C | 0% | 32hPa | 2.7V | 03:42:19 | 01:39:30 | 00:00:00 | |
| DF8AY | 2026-09-03 12:11:07 | 52.46557 | 11.27684 | 95° | 24km/h | 23902m | 4.5m/s | -51.2°C | 0% | 32hPa | 2.7V | 03:42:19 | 01:39:28 | 00:00:00 | |
| DL1XH1-15 | 2026-09-03 12:11:06 | 52.46557 | 11.27675 | 96° | 22km/h | 23897m | 4.7m/s | -51.1°C | 3% | 32.1hPa | 2.7V | 03:42:19 | 01:39:27 | 00:00:00 | |
| DM0DOS-11 | 2026-09-03 12:11:05 | 52.46561 | 11.27646 | 91° | 7km/h | 23872m | 6.1m/s | -51.1°C | 3% | 32.2hPa | 2.7V | 03:42:24 | 01:39:22 | 00:00:00 | |
| DL1NUX | 2026-09-03 12:11:04 | 52.46561 | 11.27643 | 83° | 9km/h | 23866m | 5.8m/s | -51.1°C | 3.1% | 32.2hPa | 2.7V | 03:42:25 | 01:39:21 | 00:00:00 | |
| DL1XH-west | 2026-09-03 12:11:03 | 52.46560 | 11.27653 | 112° | 11km/h | 23882m | 4.5m/s | -51.1°C | 0% | 32.2hPa | 2.6V | 03:43:10 | 01:39:24 | 00:00:00 | |
| AA1-15 | 2026-09-03 12:10:59 | 52.46561 | 11.27643 | 83° | 9km/h | 23866m | 5.8m/s | -51.1°C | 0% | 32.2hPa | 2.7V | 03:43:10 | 01:39:21 | 00:00:00 | |
| HSKMA3-T | 2026-09-03 12:10:58 | 52.46562 | 11.27636 | 113° | 11km/h | 23855m | 6.1m/s | -51.2°C | 0% | 32.3hPa | 2.6V | 03:43:10 | 01:39:19 | 00:00:00 | |
| DF8AY | 2026-09-03 12:10:57 | 52.46569 | 11.27601 | 82° | 11km/h | 23816m | 6.4m/s | -51.2°C | 0% | 32.5hPa | 2.6V | 03:43:10 | 01:39:12 | 00:00:00 | |
| DL1XH1-15 | 2026-09-03 12:10:56 | 52.46565 | 11.27627 | 130° | 15km/h | 23843m | 4.2m/s | -51.1°C | 3.1% | 32.3hPa | 2.6V | 03:42:29 | 01:39:17 | 00:00:00 | |
| DB0DAN | 2026-09-03 12:10:55 | 52.46565 | 11.27627 | 130° | 15km/h | 23844m | 4.3m/s | -51.2°C | 0.6% | 32.31hPa | 2.6V | 00:00:00 | 00:00:00 | 00:00:00 | |
| DO2SHX-10 | 2026-09-03 12:10:55 | 52.46565 | 11.27627 | 131° | 15km/h | 23844m | 4.2m/s | -51.1°C | 3.1% | 32.3hPa | 2.7V | 00:00:00 | 01:39:17 | 00:00:00 | |
| DL1NUX | 2026-09-03 12:10:54 | 52.46569 | 11.27598 | 80° | 7km/h | 23810m | 5.8m/s | -51.1°C | 3.1% | 32.5hPa | 2.7V | 03:42:35 | 01:39:11 | 00:00:00 | |
| DM0DOS-11 | 2026-09-03 12:10:53 | 52.46569 | 11.27601 | 82° | 11km/h | 23816m | 6.4m/s | -51.2°C | 3.1% | 32.5hPa | 2.6V | 03:42:34 | 01:39:12 | 00:00:00 | |
| DL1XH-west | 2026-09-03 12:10:52 | 52.46570 | 11.27611 | 90° | 15km/h | 23827m | 5.7m/s | -51.3°C | 0% | 32.4hPa | 2.7V | 03:43:10 | 01:39:14 | 00:00:00 | |
| AA1-15 | 2026-09-03 12:10:49 | 52.46568 | 11.27595 | 64° | 5km/h | 23804m | 5.1m/s | -51.1°C | 0% | 32.5hPa | 2.7V | 03:43:10 | 01:39:10 | 00:00:00 | |
| HSKMA3-T | 2026-09-03 12:10:47 | 52.46567 | 11.27594 | 38° | 5km/h | 23799m | 5.9m/s | -51.1°C | 0% | 32.6hPa | 2.7V | 03:43:10 | 01:39:09 | 00:00:00 | |
| GOEST3-10 | 2026-09-03 12:10:47 | 52.46567 | 11.27594 | 38° | 5km/h | 23799m | 5.8m/s | -51.0°C | 3.1% | 32.5hPa | 2.7V | 00:00:00 | 00:00:00 | 00:00:00 | |
| DO2SHX-10 | 2026-09-03 12:10:46 | 52.46566 | 11.27592 | 27° | 7km/h | 23793m | 5.9m/s | -51.0°C | 3.1% | 32.5hPa | 2.7V | 00:00:00 | 01:39:08 | 00:00:00 | |
| DM0DOS-11 | 2026-09-03 12:10:45 | 52.46564 | 11.27584 | 121° | 7km/h | 23762m | 5.6m/s | -51.2°C | 3.1% | 32.8hPa | 2.7V | 03:42:44 | 01:39:02 | 00:00:00 | |
| DF8AY | 2026-09-03 12:10:45 | 52.46564 | 11.27584 | 122° | 7km/h | 23762m | 5.6m/s | -51.2°C | 0% | 32.8hPa | 2.7V | 03:43:10 | 01:39:02 | 00:00:00 | |
| DL1NUX | 2026-09-03 12:10:43 | 52.46564 | 11.27581 | 96° | 9km/h | 23756m | 6.2m/s | -51°C | 3% | 32.8hPa | 2.6V | 03:42:45 | 01:39:01 | 00:00:00 | |
| DL1XH-west | 2026-09-03 12:10:42 | 52.46563 | 11.27586 | 139° | 5km/h | 23767m | 4.5m/s | -51.1°C | 0% | 32.8hPa | 2.7V | 03:43:10 | 01:39:03 | 00:00:00 | |
| DB0DAN | 2026-09-03 12:10:40 | 52.46564 | 11.27584 | 122° | 7km/h | 23762m | 5.6m/s | -51.2°C | 0.6% | 32.76hPa | 2.7V | 00:00:00 | 00:00:00 | 00:00:00 | |
| AA1-15 | 2026-09-03 12:10:38 | 52.46564 | 11.27573 | 82° | 9km/h | 23746m | 4.6m/s | -51°C | 0% | 32.9hPa | 2.6V | 03:43:10 | 01:38:59 | 00:00:00 | |
| HSKMA3-T | 2026-09-03 12:10:37 | 52.46564 | 11.27569 | 90° | 7km/h | 23740m | 6.1m/s | -51°C | 0% | 32.9hPa | 2.7V | 03:43:10 | 01:38:58 | 00:00:00 | |
| DL1XH1-15 | 2026-09-03 12:10:37 | 52.46564 | 11.27567 | 115° | 4km/h | 23734m | 5.6m/s | -51.1°C | 3% | 32.9hPa | 2.7V | 03:42:49 | 01:38:57 | 00:00:00 | |
| DL1NUX | 2026-09-03 12:10:34 | 52.46561 | 11.27572 | 305° | 4km/h | 23702m | 5.7m/s | -51.3°C | 3.1% | 33hPa | 2.7V | 03:42:55 | 01:38:51 | 00:00:00 | |
| DL1XH-west | 2026-09-03 12:10:31 | 52.46563 | 11.27570 | 335° | 7km/h | 23712m | 5.5m/s | -51.4°C | 0% | 33hPa | 2.7V | 03:43:10 | 01:38:53 | 00:00:00 | |
| DF8AY | 2026-09-03 12:10:29 | 52.46561 | 11.27572 | 305° | 4km/h | 23702m | 5.7m/s | -51.3°C | 0% | 33hPa | 2.7V | 03:43:10 | 01:38:51 | 00:00:00 | |
| AA1-15 | 2026-09-03 12:10:27 | 52.46565 | 11.27573 | 164° | 11km/h | 23685m | 5.1m/s | -51.2°C | 0% | 33.1hPa | 2.7V | 03:43:10 | 01:38:48 | 00:00:00 | |
| DL1XH1-15 | 2026-09-03 12:10:26 | 52.46568 | 11.27571 | 150° | 13km/h | 23679m | 6.5m/s | -51.2°C | 3.1% | 33.2hPa | 2.7V | 03:42:59 | 01:38:47 | 00:00:00 | |
| HSKMA3-T | 2026-09-03 12:10:26 | 52.46568 | 11.27571 | 151° | 13km/h | 23679m | 6.5m/s | -51.2°C | 0% | 33.2hPa | 2.7V | 03:43:10 | 01:38:47 | 00:00:00 | |
| DB0DAN | 2026-09-03 12:10:25 | 52.46568 | 11.27571 | 151° | 13km/h | 23679m | 6.5m/s | -51.2°C | 0.6% | 33.19hPa | 2.7V | 00:00:00 | 00:00:00 | 00:00:00 | |
| DO2SHX-10 | 2026-09-03 12:10:25 | 52.46568 | 11.27571 | 151° | 15km/h | 23679m | 6.4m/s | -51.2°C | 3.1% | 33.1hPa | 2.7V | 00:00:00 | 01:38:47 | 00:00:00 | |
| DL1NUX | 2026-09-03 12:10:24 | 52.46588 | 11.27551 | 160° | 11km/h | 23647m | 5.8m/s | -51.1°C | 3% | 33.3hPa | 2.7V | 03:43:05 | 01:38:41 | 00:00:00 | |
| DL1XH-west | 2026-09-03 12:10:20 | 52.46584 | 11.27553 | 160° | 15km/h | 23652m | 4.4m/s | -51.1°C | 0% | 33.3hPa | 2.7V | 03:43:10 | 01:38:42 | 00:00:00 | |
| DF8AY | 2026-09-03 12:10:19 | 52.46590 | 11.27550 | 160° | 7km/h | 23641m | 6m/s | -51.1°C | 0% | 33.4hPa | 2.7V | 03:43:10 | 01:38:40 | 00:00:00 | |
| SMARD9-15 | 2026-09-03 12:10:19 | 52.46590 | 11.27550 | 159° | 5km/h | 23642m | 6.0m/s | -51.1°C | 0.5% | 33.4hPa | 2.6V | 00:00:00 | 00:00:00 | 00:00:00 | |
| EDDB2-12 | 2026-09-03 12:10:18 | 52.46591 | 11.27550 | 173° | 4km/h | 23636m | 4.2m/s | -51.2°C | 0.6% | 33.4hPa | 2.6V | 00:00:00 | 00:00:00 | 00:00:00 | |
| DL1XH1-15 | 2026-09-03 12:10:16 | 52.46594 | 11.27551 | 198° | 9km/h | 23626m | 5.8m/s | -51.1°C | 3.1% | 33.4hPa | 2.6V | 03:43:09 | 01:38:37 | 00:00:00 | |
| AA1-15 | 2026-09-03 12:10:16 | 52.46594 | 11.27551 | 198° | 9km/h | 23626m | 5.8m/s | -51.1°C | 0% | 33.4hPa | 2.6V | 03:43:10 | 01:38:37 | 00:00:00 | |
| HSKMA3-T | 2026-09-03 12:10:15 | 52.46597 | 11.27552 | 192° | 13km/h | 23621m | 5.1m/s | -51°C | 0% | 33.5hPa | 2.6V | 03:43:10 | 01:38:36 | 00:00:00 | |
| AP2371 | 2026-09-03 12:10:13 | 52.46600 | 11.27552 | 184° | 15km/h | 23616m | 4.3m/s | -51.1°C | 0% | 0hPa | 2.7V | 00:00:00 | 00:00:00 | 00:00:00 | |
| DB0DAN | 2026-09-03 12:10:10 | 52.46610 | 11.27549 | 149° | 11km/h | 23601m | 5.4m/s | -50.9°C | 0.6% | 33.59hPa | 2.7V | 00:00:00 | 00:00:00 | 00:00:00 | |
| DL1XH-west | 2026-09-03 12:10:10 | 52.46610 | 11.27549 | 149° | 13km/h | 23601m | 5.4m/s | -50.9°C | 0% | 33.6hPa | 2.7V | 03:44:01 | 01:38:32 | 00:00:00 | |
| DF8AY | 2026-09-03 12:10:08 | 52.46619 | 11.27541 | 158° | 16km/h | 23586m | 5.8m/s | -51°C | 0% | 33.6hPa | 2.6V | 03:44:01 | 01:38:29 | 00:00:00 | |
| DB0NH | 2026-09-03 12:10:07 | 52.46619 | 11.27540 | 158° | 20km/h | 23586m | 5.8m/s | -51.0°C | 3.1% | 33.6hPa | 2.6V | 00:00:00 | 01:38:29 | 00:00:00 | |
| DL1CLM-18 | 2026-09-03 12:10:06 | 52.46623 | 11.27538 | 165° | 18km/h | 23581m | 5.1m/s | -50.9°C | 0.5% | 33.7hPa | 2.6V | 00:00:00 | 00:00:00 | 00:00:00 | |
| AA1-15 | 2026-09-03 12:10:06 | 52.46628 | 11.27536 | 165° | 18km/h | 23575m | 4.9m/s | -50.9°C | 0% | 33.7hPa | 2.7V | 03:44:01 | 01:38:27 | 00:00:00 | |
| DM0DOS-11 | 2026-09-03 12:10:05 | 52.46644 | 11.27525 | 154° | 16km/h | 23548m | 6.2m/s | -50.8°C | 3% | 33.9hPa | 2.6V | 03:43:24 | 01:38:22 | 00:00:00 | |
| HSKMA3-T | 2026-09-03 12:10:05 | 52.46632 | 11.27535 | 164° | 16km/h | 23569m | 6.3m/s | -50.9°C | 0% | 33.8hPa | 2.7V | 03:44:01 | 01:38:26 | 00:00:00 | |
| DL1XH-west | 2026-09-03 12:10:00 | 52.46644 | 11.27525 | 155° | 16km/h | 23548m | 6.2m/s | -50.8°C | 0% | 33.9hPa | 2.6V | 03:44:01 | 01:38:22 | 00:00:00 | |
| DF8AY | 2026-09-03 12:09:56 | 52.46659 | 11.27507 | 126° | 20km/h | 23528m | 5.6m/s | -50.7°C | 0% | 33.9hPa | 2.6V | 03:44:01 | 01:38:18 | 00:00:00 | |
| SONCRA | 2026-09-03 12:09:56 | 52.46659 | 11.27507 | 125° | 18km/h | 23528m | 5.6m/s | -50.7°C | 0.5% | 33.9hPa | 2.6V | 00:00:00 | 00:00:00 | 00:00:00 | |
| DB0DAN | 2026-09-03 12:09:55 | 52.46662 | 11.27500 | 115° | 18km/h | 23522m | 5.2m/s | -50.7°C | 0.6% | 33.96hPa | 2.6V | 00:00:00 | 00:00:00 | 00:00:00 | |
| AA1-15 | 2026-09-03 12:09:55 | 52.46664 | 11.27493 | 115° | 18km/h | 23517m | 4.3m/s | -50.7°C | 0% | 34hPa | 2.7V | 03:44:01 | 01:38:16 | 00:00:00 | |
| SONDE2-11 | 2026-09-03 12:09:55 | 52.46664 | 11.27493 | 115° | 18km/h | 23518m | 4.3m/s | -50.7°C | 0.5% | 34.0hPa | 2.6V | 00:00:00 | 00:00:00 | 00:00:00 | |
| DL1NUX | 2026-09-03 12:09:54 | 52.46681 | 11.27469 | 146° | 16km/h | 23491m | 5.9m/s | -50.7°C | 2.9% | 34.1hPa | 2.6V | 03:43:35 | 01:38:11 | 00:00:00 | |
| HSKMA3-T | 2026-09-03 12:09:53 | 52.46666 | 11.27486 | 125° | 18km/h | 23513m | 5.3m/s | -50.8°C | 0% | 34hPa | 2.7V | 03:44:01 | 01:38:15 | 00:00:00 | |
| DL1XH-west | 2026-09-03 12:09:49 | 52.46681 | 11.27469 | 146° | 16km/h | 23491m | 5.9m/s | -50.7°C | 0% | 34.1hPa | 2.6V | 03:44:01 | 01:38:11 | 00:00:00 | |
| SMARD9-15 | 2026-09-03 12:09:48 | 52.46688 | 11.27460 | 137° | 18km/h | 23481m | 4.0m/s | -50.8°C | 0.5% | 34.2hPa | 2.7V | 00:00:00 | 00:00:00 | 00:00:00 | |
| EDDB2-12 | 2026-09-03 12:09:47 | 52.46691 | 11.27455 | 139° | 20km/h | 23475m | 6.1m/s | -50.7°C | 0.5% | 34.2hPa | 2.7V | 00:00:00 | 00:00:00 | 00:00:00 | |
| DL1XH1-15 | 2026-09-03 12:09:46 | 52.46696 | 11.27449 | 138° | 24km/h | 23470m | 5.4m/s | -50.7°C | 2.9% | 34.2hPa | 2.7V | 03:43:39 | 01:38:07 | 00:00:00 | |
| DF8AY | 2026-09-03 12:09:45 | 52.46696 | 11.27449 | 139° | 24km/h | 23470m | 5.4m/s | -50.7°C | 0% | 34.2hPa | 2.7V | 03:44:01 | 01:38:07 | 00:00:00 | |
| AA1-15 | 2026-09-03 12:09:43 | 52.46704 | 11.27433 | 122° | 26km/h | 23460m | 5.4m/s | -50.8°C | 0% | 34.3hPa | 2.6V | 03:44:01 | 01:38:05 | 00:00:00 | |
| DM0DOS-11 | 2026-09-03 12:09:43 | 52.46710 | 11.27404 | 106° | 24km/h | 23445m | 4.3m/s | -51°C | 2.9% | 34.4hPa | 2.7V | 03:43:44 | 01:38:02 | 00:00:00 | |
| HSKMA3-T | 2026-09-03 12:09:42 | 52.46706 | 11.27424 | 112° | 26km/h | 23454m | 6m/s | -50.7°C | 0% | 34.3hPa | 2.6V | 03:44:01 | 01:38:04 | 00:00:00 | |
| DO2SHX-10 | 2026-09-03 12:09:42 | 52.46706 | 11.27424 | 112° | 26km/h | 23454m | 5.9m/s | -50.7°C | 2.9% | 34.3hPa | 2.7V | 00:00:00 | 01:38:04 | 00:00:00 | |
| DB0DAN | 2026-09-03 12:09:40 | 52.46710 | 11.27404 | 107° | 24km/h | 23445m | 4.3m/s | -51°C | 0.5% | 34.41hPa | 2.7V | 00:00:00 | 00:00:00 | 00:00:00 | |
| DL1XH-west | 2026-09-03 12:09:39 | 52.46712 | 11.27395 | 115° | 24km/h | 23439m | 5.8m/s | -51.1°C | 0% | 34.4hPa | 2.7V | 03:44:01 | 01:38:01 | 00:00:00 | |
| DO2SHX-10 | 2026-09-03 12:09:39 | 52.46712 | 11.27395 | 116° | 24km/h | 23440m | 5.7m/s | -51.1°C | 2.9% | 34.4hPa | 2.7V | 03:43:00 | 01:38:01 | 00:00:00 | |
| TFSTFS | 2026-09-03 12:09:38 | 52.46740 | 11.27327 | 128° | 24km/h | 23392m | 4.2m/s | -51.2°C | 0.6% | 34.5hPa | 2.7V | 03:44:00 | 00:00:00 | 00:00:00 | |
| DB0NH | 2026-09-03 12:09:37 | 52.46718 | 11.27379 | 128° | 22km/h | 23429m | 4.6m/s | -51.3°C | 3.0% | 34.4hPa | 2.7V | 00:00:00 | 01:37:59 | 00:00:00 | |
| DL1XH1-15 | 2026-09-03 12:09:36 | 52.46725 | 11.27364 | 123° | 22km/h | 23418m | 6.3m/s | -51.5°C | 3.1% | 34.5hPa | 2.7V | 03:43:49 | 01:37:57 | 00:00:00 | |
| DF8AY | 2026-09-03 12:09:35 | 52.46728 | 11.27356 | 117° | 22km/h | 23413m | 5m/s | -51.5°C | 0% | 34.6hPa | 2.7V | 03:44:01 | 01:37:56 | 00:00:00 | |
| DL1NUX | 2026-09-03 12:09:34 | 52.46743 | 11.27318 | 119° | 24km/h | 23387m | 4.8m/s | -51.6°C | 3.2% | 34.7hPa | 2.7V | 03:43:55 | 01:37:51 | 00:00:00 | |
| AA1-15 | 2026-09-03 12:09:32 | 52.46733 | 11.27341 | 124° | 22km/h | 23403m | 5.6m/s | -51.6°C | 0% | 34.6hPa | 2.6V | 03:44:01 | 01:37:54 | 00:00:00 | |
| HSKMA3-T | 2026-09-03 12:09:31 | 52.46736 | 11.27334 | 129° | 22km/h | 23397m | 5.7m/s | -51.6°C | 0% | 34.6hPa | 2.7V | 03:44:01 | 01:37:53 | 00:00:00 | |
| DL1XH-west | 2026-09-03 12:09:28 | 52.46746 | 11.27309 | 112° | 27km/h | 23382m | 6.1m/s | -51.6°C | 0% | 34.7hPa | 2.6V | 03:44:01 | 01:37:50 | 00:00:00 | |
| DF8AY-15 | 2026-09-03 12:09:28 | 52.46746 | 11.27309 | 113° | 22km/h | 23382m | 6.0m/s | -51.6°C | 3.1% | 34.7hPa | 2.7V | 00:00:00 | 01:37:50 | 00:00:00 | |
| DL1XH1-15 | 2026-09-03 12:09:26 | 52.46752 | 11.27273 | 105° | 31km/h | 23367m | 5.2m/s | -51.7°C | 3.1% | 34.8hPa | 2.7V | 03:43:59 | 01:37:47 | 00:00:00 | |
| DB0DAN | 2026-09-03 12:09:25 | 52.46752 | 11.27273 | 105° | 29km/h | 23367m | 5.2m/s | -51.7°C | 0.6% | 34.81hPa | 2.7V | 00:00:00 | 00:00:00 | 00:00:00 | |
| DF8AY | 2026-09-03 12:09:24 | 52.46757 | 11.27250 | 110° | 27km/h | 23357m | 4.4m/s | -51.7°C | 0% | 34.8hPa | 2.7V | 03:44:01 | 01:37:45 | 00:00:00 | |
| DL1NUX | 2026-09-03 12:09:24 | 52.46761 | 11.27211 | 87° | 20km/h | 23338m | 4.5m/s | -51.8°C | 3.1% | 35hPa | 2.6V | 03:44:05 | 01:37:41 | 00:00:00 | |
| SONDE2-11 | 2026-09-03 12:09:24 | 52.46757 | 11.27250 | 109° | 27km/h | 23357m | 4.4m/s | -51.7°C | 0.6% | 34.8hPa | 2.6V | 00:00:00 | 00:00:00 | 00:00:00 | |
| DM0DOS-11 | 2026-09-03 12:09:23 | 52.46761 | 11.27220 | 92° | 22km/h | 23343m | 5.4m/s | -51.7°C | 3.1% | 34.9hPa | 2.6V | 03:44:04 | 01:37:42 | 00:00:00 | |
| AA1-15 | 2026-09-03 12:09:22 | 52.46759 | 11.27239 | 108° | 26km/h | 23353m | 4.1m/s | -51.7°C | 0% | 34.9hPa | 2.7V | 03:44:52 | 01:37:44 | 00:00:00 | |
| HSKMA3-T | 2026-09-03 12:09:20 | 52.46761 | 11.27220 | 93° | 22km/h | 23343m | 5.4m/s | -51.7°C | 0% | 34.9hPa | 2.6V | 03:45:43 | 01:37:42 | 00:00:00 | |
| DL1XH-west | 2026-09-03 12:09:18 | 52.46760 | 11.27203 | 87° | 18km/h | 23334m | 3.8m/s | -51.7°C | 0% | 35hPa | 2.7V | 03:44:52 | 01:37:40 | 00:00:00 | |
| SP3BTT-10 | 2026-09-03 12:09:17 | 52.46760 | 11.27197 | 95° | 13km/h | 23330m | 4.6m/s | -51.7°C | 3.1% | 35.0hPa | 2.7V | 03:44:00 | 00:00:00 | 00:00:00 | |
| DL1XH1-15 | 2026-09-03 12:09:16 | 52.46763 | 11.27186 | 132° | 15km/h | 23319m | 5.3m/s | -51.8°C | 3.2% | 35hPa | 2.7V | 03:44:09 | 01:37:37 | 00:00:00 | |
| DF8AY | 2026-09-03 12:09:14 | 52.46766 | 11.27181 | 133° | 18km/h | 23314m | 4.4m/s | -51.8°C | 0% | 35.1hPa | 2.6V | 03:44:52 | 01:37:36 | 00:00:00 | |
| DL1NUX | 2026-09-03 12:09:14 | 52.46769 | 11.27144 | 64° | 18km/h | 23290m | 5m/s | -51.8°C | 3.1% | 35.2hPa | 2.7V | 03:44:15 | 01:37:31 | 00:00:00 | |
| DO2SHX-10 | 2026-09-03 12:09:14 | 52.46766 | 11.27181 | 134° | 18km/h | 23314m | 4.3m/s | -51.8°C | 3.2% | 35.0hPa | 2.7V | 03:44:00 | 01:37:36 | 00:00:00 | |
| DM0DOS-11 | 2026-09-03 12:09:12 | 52.46771 | 11.27151 | 75° | 20km/h | 23295m | 4.2m/s | -51.8°C | 3.1% | 35.2hPa | 2.7V | 03:44:14 | 01:37:32 | 00:00:00 | |
| AA1-15 | 2026-09-03 12:09:11 | 52.46772 | 11.27160 | 89° | 20km/h | 23300m | 4.8m/s | -51.9°C | 0% | 35.2hPa | 2.7V | 03:44:52 | 01:37:33 | 00:00:00 | |
| DB0DAN | 2026-09-03 12:09:10 | 52.46771 | 11.27151 | 75° | 20km/h | 23295m | 4.2m/s | -51.8°C | 0.6% | 35.18hPa | 2.7V | 00:00:00 | 00:00:00 | 00:00:00 | |
| HSKMA3-T | 2026-09-03 12:09:10 | 52.46771 | 11.27151 | 75° | 20km/h | 23295m | 4.2m/s | -51.8°C | 0% | 35.2hPa | 2.7V | 03:45:43 | 01:37:32 | 00:00:00 | |
| DL1XH-west | 2026-09-03 12:09:08 | 52.46767 | 11.27138 | 60° | 15km/h | 23286m | 5.3m/s | -51.9°C | 0% | 35.2hPa | 2.7V | 03:44:52 | 01:37:30 | 00:00:00 | |
| DB0NH | 2026-09-03 12:09:07 | 52.46766 | 11.27133 | 63° | 9km/h | 23280m | 5.1m/s | -51.7°C | 3.1% | 35.2hPa | 2.6V | 00:00:00 | 01:37:29 | 00:00:00 | |
| DO2SHX-10 | 2026-09-03 12:09:05 | 52.46765 | 11.27126 | 103° | 11km/h | 23271m | 4.1m/s | -51.7°C | 3.1% | 35.2hPa | 2.7V | 00:00:00 | 01:37:27 | 00:00:00 | |
| DL1NUX | 2026-09-03 12:09:04 | 52.46771 | 11.27102 | 131° | 5km/h | 23240m | 4.6m/s | -51.9°C | 3.2% | 35.5hPa | 2.7V | 03:44:25 | 01:37:21 | 00:00:00 | |
| DF8AY | 2026-09-03 12:09:02 | 52.46767 | 11.27112 | 112° | 13km/h | 23255m | 4.5m/s | -51.9°C | 0% | 35.4hPa | 2.7V | 03:44:52 | 01:37:24 | 00:00:00 | |
| DM0DOS-11 | 2026-09-03 12:09:02 | 52.46770 | 11.27104 | 128° | 9km/h | 23245m | 5.9m/s | -51.9°C | 3.2% | 35.5hPa | 2.6V | 03:44:24 | 01:37:22 | 00:00:00 | |
| HSKMA3-T | 2026-09-03 12:09:00 | 52.46770 | 11.27104 | 129° | 9km/h | 23245m | 5.9m/s | -51.9°C | 0% | 35.5hPa | 2.6V | 03:45:43 | 01:37:22 | 00:00:00 | |
| DL1XH-west | 2026-09-03 12:08:58 | 52.46771 | 11.27098 | 69° | 5km/h | 23230m | 6m/s | -51.9°C | 0% | 35.5hPa | 2.7V | 03:44:52 | 01:37:19 | 00:00:00 | |
| DB0DAN | 2026-09-03 12:08:55 | 52.46769 | 11.27091 | 53° | 11km/h | 23220m | 4m/s | -52°C | 0.6% | 35.61hPa | 2.6V | 00:00:00 | 00:00:00 | 00:00:00 | |
| DF8AY | 2026-09-03 12:08:52 | 52.46764 | 11.27083 | 54° | 5km/h | 23205m | 4.7m/s | -51.8°C | 0% | 35.7hPa | 2.7V | 03:44:52 | 01:37:14 | 00:00:00 | |
| DM0DOS-11 | 2026-09-03 12:08:52 | 52.46764 | 11.27078 | 91° | 7km/h | 23195m | 5.8m/s | -51.9°C | 3.1% | 35.8hPa | 2.7V | 03:44:34 | 01:37:12 | 00:00:00 | |
| AA1-15 | 2026-09-03 12:08:50 | 52.46764 | 11.27078 | 91° | 9km/h | 23195m | 5.8m/s | -51.9°C | 0% | 35.8hPa | 2.7V | 03:44:52 | 01:37:12 | 00:00:00 | |
| HSKMA3-T | 2026-09-03 12:08:50 | 52.46764 | 11.27074 | 107° | 9km/h | 23189m | 4.7m/s | -51.9°C | 0% | 35.8hPa | 2.6V | 03:45:43 | 01:37:11 | 00:00:00 | |
| DL1XH-west | 2026-09-03 12:08:46 | 52.46769 | 11.27069 | 180° | 11km/h | 23173m | 5m/s | -51.9°C | 0% | 35.9hPa | 2.7V | 03:44:52 | 01:37:08 | 00:00:00 | |
| DL1XH1-15 | 2026-09-03 12:08:46 | 52.46772 | 11.27069 | 184° | 13km/h | 23168m | 4.4m/s | -51.9°C | 3.2% | 35.9hPa | 2.7V | 03:44:39 | 01:37:07 | 00:00:00 | |
| EDDB2-12 | 2026-09-03 12:08:45 | 52.46775 | 11.27069 | 170° | 11km/h | 23164m | 5.8m/s | -52.0°C | 0.6% | 35.9hPa | 2.7V | 00:00:00 | 00:00:00 | 00:00:00 | |
| DL1NUX | 2026-09-03 12:08:44 | 52.46789 | 11.27057 | 148° | 11km/h | 23137m | 4.5m/s | -51.8°C | 3.1% | 36hPa | 2.7V | 03:44:45 | 01:37:01 | 00:00:00 | |
| DF8AY | 2026-09-03 12:08:42 | 52.46781 | 11.27065 | 148° | 15km/h | 23153m | 4.9m/s | -51.9°C | 0% | 36hPa | 2.6V | 03:44:52 | 01:37:04 | 00:00:00 | |
| DB0DAN | 2026-09-03 12:08:40 | 52.46787 | 11.27059 | 149° | 11km/h | 23142m | 5.8m/s | -51.8°C | 0.6% | 36.06hPa | 2.6V | 00:00:00 | 00:00:00 | 00:00:00 | |
| DL1XH1-15 | 2026-09-03 12:08:40 | 52.46796 | 11.27042 | 128° | 13km/h | 23117m | 4.3m/s | -51.9°C | 3.1% | 36.2hPa | 2.6V | 03:44:49 | 01:36:57 | 00:00:00 | |
| AA1-15 | 2026-09-03 12:08:40 | 52.46789 | 11.27057 | 148° | 11km/h | 23137m | 4.5m/s | -51.8°C | 0% | 36hPa | 2.7V | 03:44:52 | 01:37:01 | 00:00:00 | |
| DF8AY | 2026-09-03 12:08:37 | 52.46811 | 11.27032 | 169° | 20km/h | 23097m | 4.6m/s | -51.8°C | 0% | 36.3hPa | 2.7V | 03:45:43 | 01:36:53 | 00:00:00 | |
| DL1XH-west | 2026-09-03 12:08:36 | 52.46796 | 11.27042 | 128° | 13km/h | 23117m | 4.3m/s | -51.9°C | 0% | 36.2hPa | 2.6V | 03:44:52 | 01:36:57 | 00:00:00 | |
| TFSTFS | 2026-09-03 12:08:35 | 52.46796 | 11.27042 | 129° | 13km/h | 23117m | 4.3m/s | -51.9°C | 0.6% | 36.2hPa | 2.6V | 03:44:00 | 00:00:00 | 00:00:00 | |
| DL1NUX | 2026-09-03 12:08:34 | 52.46821 | 11.27026 | 154° | 22km/h | 23086m | 5.2m/s | -51.8°C | 3.2% | 36.3hPa | 2.6V | 03:44:55 | 01:36:51 | 00:00:00 | |
| HSKMA3-T | 2026-09-03 12:08:33 | 52.46802 | 11.27035 | 160° | 16km/h | 23107m | 5.7m/s | -51.9°C | 0% | 36.2hPa | 2.6V | 03:45:43 | 01:36:55 | 00:00:00 | |
| AA1-15 | 2026-09-03 12:08:29 | 52.46826 | 11.27021 | 148° | 22km/h | 23081m | 4.4m/s | -51.8°C | 0% | 36.4hPa | 2.6V | 03:45:43 | 01:36:50 | 00:00:00 | |
| EDDB2-11 | 2026-09-03 12:08:28 | 52.46826 | 11.27021 | 147° | 20km/h | 23082m | 4.4m/s | -51.8°C | 0.6% | 36.4hPa | 2.7V | 00:00:00 | 00:00:00 | 00:00:00 | |
| AP2371 | 2026-09-03 12:08:27 | 52.46830 | 11.27017 | 149° | 18km/h | 23077m | 4.9m/s | -51.8°C | 0% | 0hPa | 2.7V | 00:00:00 | 00:00:00 | 00:00:00 | |
| DL1XH1-15 | 2026-09-03 12:08:26 | 52.46836 | 11.27011 | 151° | 13km/h | 23066m | 4.8m/s | -51.8°C | 3.2% | 36.4hPa | 2.7V | 03:44:59 | 01:36:47 | 00:00:00 | |
| DB0DAN | 2026-09-03 12:08:25 | 52.46836 | 11.27011 | 151° | 13km/h | 23066m | 4.9m/s | -51.8°C | 0.6% | 36.45hPa | 2.7V | 00:00:00 | 00:00:00 | 00:00:00 | |
| DL1XH-west | 2026-09-03 12:08:25 | 52.46839 | 11.27008 | 145° | 13km/h | 23061m | 4.7m/s | -51.8°C | 0% | 36.5hPa | 2.6V | 03:45:43 | 01:36:46 | 00:00:00 | |
| DL1NUX | 2026-09-03 12:08:24 | 52.46856 | 11.26984 | 145° | 20km/h | 23036m | 5.7m/s | -51.8°C | 3.1% | 36.6hPa | 2.7V | 03:45:05 | 01:36:41 | 00:00:00 | |
| DF8AY | 2026-09-03 12:08:21 | 52.46852 | 11.26989 | 139° | 20km/h | 23041m | 5m/s | -51.7°C | 0% | 36.6hPa | 2.7V | 03:45:43 | 01:36:42 | 00:00:00 | |
| AA1-15 | 2026-09-03 12:08:17 | 52.46864 | 11.26974 | 146° | 22km/h | 23026m | 3.9m/s | -51.7°C | 0% | 36.7hPa | 2.6V | 03:45:43 | 01:36:39 | 00:00:00 | |
| HSKMA3-T | 2026-09-03 12:08:16 | 52.46869 | 11.26969 | 141° | 24km/h | 23021m | 5.8m/s | -51.8°C | 0% | 36.7hPa | 2.6V | 03:45:43 | 01:36:38 | 00:00:00 | |
| DL1XH1-15 | 2026-09-03 12:08:16 | 52.46873 | 11.26962 | 135° | 26km/h | 23015m | 5.5m/s | -51.7°C | 3.1% | 36.7hPa | 2.6V | 03:45:09 | 01:36:37 | 00:00:00 | |
| DL1XH-west | 2026-09-03 12:08:15 | 52.46878 | 11.26955 | 132° | 26km/h | 23010m | 4.7m/s | -51.7°C | 0% | 36.8hPa | 2.7V | 03:45:43 | 01:36:36 | 00:00:00 | |
| EDDB2-12 | 2026-09-03 12:08:14 | 52.46882 | 11.26947 | 128° | 22km/h | 23005m | 5.6m/s | -51.8°C | 0.5% | 36.8hPa | 2.6V | 00:00:00 | 00:00:00 | 00:00:00 | |
| DB0DAN | 2026-09-03 12:08:10 | 52.46890 | 11.26928 | 123° | 18km/h | 22990m | 4.5m/s | -52°C | 0.6% | 36.91hPa | 2.6V | 00:00:00 | 00:00:00 | 00:00:00 | |
| DF8AY | 2026-09-03 12:08:10 | 52.46890 | 11.26928 | 123° | 18km/h | 22990m | 4.5m/s | -52°C | 0% | 36.9hPa | 2.6V | 03:45:43 | 01:36:32 | 00:00:00 | |
| AA1-15 | 2026-09-03 12:08:06 | 52.46904 | 11.26898 | 133° | 24km/h | 22970m | 5.7m/s | -52.1°C | 0% | 37hPa | 2.7V | 03:45:43 | 01:36:28 | 00:00:00 | |
| DL1XH1-15 | 2026-09-03 12:08:06 | 52.46908 | 11.26891 | 138° | 22km/h | 22964m | 6m/s | -52.1°C | 3.1% | 37hPa | 2.7V | 03:45:19 | 01:36:27 | 00:00:00 | |
| HSKMA3-T | 2026-09-03 12:08:05 | 52.46908 | 11.26891 | 138° | 22km/h | 22965m | 6m/s | -52.1°C | 0% | 37hPa | 2.7V | 03:45:43 | 01:36:27 | 00:00:00 | |
| DL1XH-west | 2026-09-03 12:08:04 | 52.46912 | 11.26885 | 142° | 22km/h | 22959m | 5m/s | -52.1°C | 0% | 37.1hPa | 2.7V | 03:45:43 | 01:36:26 | 00:00:00 | |
| DL1LOL-11 | 2026-09-03 12:08:04 | 52.46912 | 11.26885 | 143° | 22km/h | 22959m | 5.0m/s | -52.1°C | 0.6% | 37.1hPa | 2.7V | 00:00:00 | 00:00:00 | 00:00:00 | |
| DJ2DS-15 | 2026-09-03 12:08:03 | 52.46917 | 11.26879 | 141° | 24km/h | 22955m | 4.4m/s | -52.1°C | 0.6% | 37.1hPa | 2.7V | 00:00:00 | 00:00:00 | 00:00:00 | |
| DM0DOS-11 | 2026-09-03 12:08:02 | 52.46933 | 11.26854 | 129° | 33km/h | 22938m | 4.5m/s | -52.1°C | 3.1% | 37.2hPa | 2.7V | 03:45:24 | 01:36:22 | 00:00:00 | |
| DF8AY | 2026-09-03 12:08:00 | 52.46932 | 11.26854 | 130° | 33km/h | 22938m | 4.6m/s | -52.1°C | 0% | 37.2hPa | 2.7V | 03:45:43 | 01:36:22 | 00:00:00 | |
| AA1-15 | 2026-09-03 12:07:56 | 52.46953 | 11.26807 | 127° | 27km/h | 22912m | 5.9m/s | -52.3°C | 0% | 37.4hPa | 2.7V | 03:45:43 | 01:36:17 | 00:00:00 | |
| DB0DAN | 2026-09-03 12:07:55 | 52.46953 | 11.26807 | 127° | 26km/h | 22912m | 5.9m/s | -52.3°C | 0.6% | 37.35hPa | 2.7V | 00:00:00 | 00:00:00 | 00:00:00 | |
| DL1XH-west | 2026-09-03 12:07:55 | 52.46962 | 11.26789 | 128° | 27km/h | 22901m | 4.2m/s | -52.4°C | 0% | 37.4hPa | 2.7V | 03:45:43 | 01:36:15 | 00:00:00 | |
| HSKMA3-T | 2026-09-03 12:07:55 | 52.46957 | 11.26798 | 128° | 27km/h | 22906m | 5.6m/s | -52.4°C | 0% | 37.4hPa | 2.7V | 03:45:43 | 01:36:16 | 00:00:00 | |
| DF8AY | 2026-09-03 12:07:50 | 52.46971 | 11.26766 | 116° | 22km/h | 22886m | 4.3m/s | -52.4°C | 0% | 37.5hPa | 2.6V | 03:45:43 | 01:36:12 | 00:00:00 | |
| DO2SHX-10 | 2026-09-03 12:07:50 | 52.46971 | 11.26766 | 117° | 26km/h | 22886m | 4.3m/s | -52.3°C | 3.3% | 37.4hPa | 2.7V | 03:45:00 | 01:36:12 | 00:00:00 | |
| GOEST3-10 | 2026-09-03 12:07:49 | 52.46974 | 11.26757 | 111° | 31km/h | 22881m | 5.2m/s | -52.4°C | 3.3% | 37.5hPa | 2.7V | 00:00:00 | 01:36:11 | 00:00:00 | |
| DF8AY-15 | 2026-09-03 12:07:48 | 52.46976 | 11.26746 | 111° | 29km/h | 22875m | 6.1m/s | -52.3°C | 3.2% | 37.5hPa | 2.7V | 00:00:00 | 01:36:10 | 00:00:00 | |
| DO2SHX-10 | 2026-09-03 12:07:47 | 52.46979 | 11.26734 | 110° | 35km/h | 22870m | 5.2m/s | -52.3°C | 3.2% | 37.5hPa | 2.7V | 00:00:00 | 01:36:09 | 00:00:00 | |
| DL1XH1-15 | 2026-09-03 12:07:46 | 52.46984 | 11.26706 | 106° | 37km/h | 22859m | 6m/s | -52.4°C | 3.3% | 37.6hPa | 2.6V | 03:45:39 | 01:36:07 | 00:00:00 | |
| AA1-15 | 2026-09-03 12:07:46 | 52.46985 | 11.26706 | 106° | 37km/h | 22859m | 6m/s | -52.4°C | 0% | 37.6hPa | 2.6V | 03:45:43 | 01:36:07 | 00:00:00 | |
| BIOWL9-15 | 2026-09-03 12:07:45 | 52.46987 | 11.26692 | 106° | 33km/h | 22854m | 5.4m/s | -52.3°C | 0.6% | 37.7hPa | 2.7V | 00:00:00 | 00:00:00 | 00:00:00 | |
| DL1NUX | 2026-09-03 12:07:44 | 52.47002 | 11.26627 | 111° | 31km/h | 22827m | 5.2m/s | -52.3°C | 3.3% | 37.8hPa | 2.7V | 03:45:45 | 01:36:01 | 00:00:00 | |
| HSKMA3-T | 2026-09-03 12:07:43 | 52.46990 | 11.26679 | 107° | 33km/h | 22849m | 4.2m/s | -52.3°C | 0% | 37.8hPa | 2.6V | 03:45:43 | 01:36:05 | 00:00:00 | |
| DL1XH-west | 2026-09-03 12:07:42 | 52.46992 | 11.26665 | 111° | 35km/h | 22844m | 5.4m/s | -52.3°C | 0% | 37.8hPa | 2.7V | 03:45:43 | 01:36:04 | 00:00:00 | |
| TFSTFS | 2026-09-03 12:07:42 | 52.46992 | 11.26665 | 112° | 35km/h | 22844m | 5.4m/s | -52.3°C | 0.6% | 37.8hPa | 2.7V | 03:45:00 | 00:00:00 | 00:00:00 | |
| DB0DAN | 2026-09-03 12:07:40 | 52.46999 | 11.26639 | 113° | 31km/h | 22832m | 4.8m/s | -52.4°C | 0.6% | 37.82hPa | 2.7V | 00:00:00 | 00:00:00 | 00:00:00 | |
| DL1XH1-15 | 2026-09-03 12:07:40 | 52.47006 | 11.26591 | 93° | 18km/h | 22806m | 5m/s | -52°C | 3.2% | 38hPa | 2.7V | 03:45:49 | 01:35:57 | 00:00:00 | |
| DF8AY | 2026-09-03 12:07:39 | 52.47002 | 11.26627 | 111° | 31km/h | 22827m | 5.2m/s | -52.3°C | 0% | 37.8hPa | 2.7V | 03:46:34 | 01:36:01 | 00:00:00 | |
| AA1-15 | 2026-09-03 12:07:35 | 52.47007 | 11.26583 | 96° | 20km/h | 22801m | 5.9m/s | -52°C | 0% | 38hPa | 2.7V | 03:46:34 | 01:35:56 | 00:00:00 | |
| HSKMA3-T | 2026-09-03 12:07:33 | 52.47008 | 11.26574 | 100° | 24km/h | 22795m | 4.9m/s | -52°C | 0% | 38hPa | 2.7V | 03:46:34 | 01:35:55 | 00:00:00 | |
| DL1XH-west | 2026-09-03 12:07:32 | 52.47009 | 11.26564 | 98° | 27km/h | 22791m | 4.7m/s | -52.1°C | 0% | 38.1hPa | 2.7V | 03:46:34 | 01:35:54 | 00:00:00 | |
| DM0DOS-11 | 2026-09-03 12:07:32 | 52.47009 | 11.26540 | 87° | 31km/h | 22780m | 6m/s | -52.2°C | 3.1% | 38.1hPa | 2.6V | 03:45:54 | 01:35:52 | 00:00:00 | |
| DF8AY | 2026-09-03 12:07:27 | 52.47009 | 11.26470 | 93° | 35km/h | 22753m | 4.6m/s | -52.2°C | 0% | 38.3hPa | 2.6V | 03:46:34 | 01:35:47 | 00:00:00 | |
| DJ2DS-15 | 2026-09-03 12:07:27 | 52.47008 | 11.26499 | 89° | 35km/h | 22763m | 6.2m/s | -52.2°C | 0.6% | 38.2hPa | 2.6V | 00:00:00 | 00:00:00 | 00:00:00 | |
| DL1XH1-15 | 2026-09-03 12:07:26 | 52.47009 | 11.26470 | 93° | 35km/h | 22753m | 4.6m/s | -52.2°C | 3.3% | 38.3hPa | 2.6V | 03:45:59 | 01:35:47 | 00:00:00 | |
| DB0DAN | 2026-09-03 12:07:25 | 52.47009 | 11.26470 | 93° | 33km/h | 22753m | 4.6m/s | -52.2°C | 0.6% | 38.28hPa | 2.6V | 00:00:00 | 00:00:00 | 00:00:00 | |
| AA1-15 | 2026-09-03 12:07:25 | 52.47009 | 11.26456 | 89° | 33km/h | 22748m | 6.3m/s | -52.2°C | 0% | 38.3hPa | 2.6V | 03:46:34 | 01:35:46 | 00:00:00 | |
| DL1NUX | 2026-09-03 12:07:24 | 52.47006 | 11.26397 | 85° | 27km/h | 22721m | 4.3m/s | -52.2°C | 3.2% | 38.5hPa | 2.6V | 03:46:05 | 01:35:41 | 00:00:00 | |
| DL1XH-west | 2026-09-03 12:07:22 | 52.47007 | 11.26431 | 84° | 29km/h | 22737m | 4.8m/s | -52.2°C | 0% | 38.4hPa | 2.7V | 03:46:34 | 01:35:44 | 00:00:00 | |
| DM0DOS-11 | 2026-09-03 12:07:21 | 52.47006 | 11.26408 | 88° | 27km/h | 22725m | 5.2m/s | -52.2°C | 3.2% | 38.5hPa | 2.6V | 03:46:04 | 01:35:42 | 00:00:00 | |
| HSKMA3-T | 2026-09-03 12:07:20 | 52.47006 | 11.26408 | 88° | 27km/h | 22726m | 5.2m/s | -52.2°C | 0% | 38.5hPa | 2.6V | 03:46:34 | 01:35:42 | 00:00:00 | |
| DF8AY | 2026-09-03 12:07:16 | 52.47001 | 11.26363 | 70° | 31km/h | 22704m | 5.1m/s | -52.2°C | 0% | 38.5hPa | 2.7V | 03:46:34 | 01:35:38 | 00:00:00 | |
| DL1XH1-15 | 2026-09-03 12:07:16 | 52.46999 | 11.26350 | 73° | 33km/h | 22699m | 4.9m/s | -52°C | 3.2% | 38.6hPa | 2.7V | 03:46:09 | 01:35:37 | 00:00:00 | |
| AA1-15 | 2026-09-03 12:07:14 | 52.46996 | 11.26324 | 86° | 31km/h | 22688m | 5.3m/s | -51.9°C | 0% | 38.6hPa | 2.6V | 03:46:34 | 01:35:35 | 00:00:00 | |
| DL1NUX | 2026-09-03 12:07:14 | 52.46993 | 11.26271 | 80° | 33km/h | 22667m | 4.8m/s | -52°C | 3.2% | 38.8hPa | 2.7V | 03:46:15 | 01:35:31 | 00:00:00 | |
| DL1XH-west | 2026-09-03 12:07:12 | 52.46995 | 11.26311 | 88° | 31km/h | 22683m | 5m/s | -52°C | 0% | 38.7hPa | 2.6V | 03:46:34 | 01:35:34 | 00:00:00 | |
| SMARD9-10 | 2026-09-03 12:07:12 | 52.46995 | 11.26311 | 89° | 31km/h | 22684m | 5.0m/s | -52.0°C | 0.6% | 38.7hPa | 2.7V | 00:00:00 | 00:00:00 | 00:00:00 | |
| DM0DOS-11 | 2026-09-03 12:07:11 | 52.46994 | 11.26284 | 84° | 33km/h | 22672m | 5.9m/s | -52.1°C | 3.3% | 38.7hPa | 2.7V | 03:46:14 | 01:35:32 | 00:00:00 | |
| HSKMA3-T | 2026-09-03 12:07:10 | 52.46994 | 11.26284 | 85° | 33km/h | 22673m | 5.9m/s | -52.1°C | 0% | 38.7hPa | 2.7V | 03:46:34 | 01:35:32 | 00:00:00 | |
| DL1XH1-15 | 2026-09-03 12:07:10 | 52.46988 | 11.26222 | 79° | 27km/h | 22647m | 4.3m/s | -51.9°C | 3.1% | 38.9hPa | 2.6V | 03:46:19 | 01:35:27 | 00:00:00 | |
| DF8AY | 2026-09-03 12:07:06 | 52.46989 | 11.26233 | 84° | 27km/h | 22651m | 5.1m/s | -51.9°C | 0% | 38.8hPa | 2.6V | 03:46:34 | 01:35:28 | 00:00:00 | |
| AP2371 | 2026-09-03 12:07:06 | 52.46989 | 11.26233 | 85° | 27km/h | 22652m | 5.1m/s | -51.9°C | 0% | 0hPa | 2.6V | 00:00:00 | 00:00:00 | 00:00:00 | |
| DO2SHX-10 | 2026-09-03 12:07:05 | 52.46988 | 11.26222 | 80° | 29km/h | 22647m | 4.3m/s | -51.8°C | 3.1% | 38.9hPa | 2.6V | 00:00:00 | 01:35:27 | 00:00:00 | |
| DL1NUX | 2026-09-03 12:07:04 | 52.46975 | 11.26154 | 74° | 27km/h | 22613m | 4.5m/s | -51.6°C | 3.1% | 39.1hPa | 2.6V | 03:46:25 | 01:35:21 | 00:00:00 | |
| AA1-15 | 2026-09-03 12:07:02 | 52.46982 | 11.26188 | 67° | 31km/h | 22630m | 5.3m/s | -51.8°C | 0% | 39hPa | 2.7V | 03:46:34 | 01:35:24 | 00:00:00 | |
| DL1XH-west | 2026-09-03 12:07:02 | 52.46979 | 11.26176 | 70° | 29km/h | 22624m | 6.1m/s | -51.7°C | 0% | 39hPa | 2.7V | 03:46:34 | 01:35:23 | 00:00:00 | |
| HSKMA3-T | 2026-09-03 12:07:00 | 52.46976 | 11.26165 | 72° | 27km/h | 22618m | 5.8m/s | -51.7°C | 0% | 39.1hPa | 2.7V | 03:46:34 | 01:35:22 | 00:00:00 | |
| HTAHTA | 2026-09-03 12:07:00 | 52.46954 | 11.26064 | 48° | 24km/h | 22561m | 4.9m/s | -52.0°C | 0.6% | 39.4hPa | 2.7V | 00:00:00 | 00:00:00 | 00:00:00 | |
| DO2SHX-10 | 2026-09-03 12:06:59 | 52.46975 | 11.26154 | 75° | 27km/h | 22613m | 4.4m/s | -51.6°C | 3.1% | 39.0hPa | 2.7V | 00:00:00 | 01:35:21 | 00:00:00 | |
| AM1SDL-15 | 2026-09-03 12:06:57 | 52.46971 | 11.26132 | 74° | 22km/h | 22603m | 6.1m/s | -51.6°C | 3.2% | 39.1hPa | 2.7V | 00:00:00 | 01:35:19 | 00:00:00 | |
| DL1XH1-15 | 2026-09-03 12:06:56 | 52.46967 | 11.26110 | 72° | 26km/h | 22593m | 4.7m/s | -51.7°C | 3.2% | 39.2hPa | 2.7V | 03:46:29 | 01:35:17 | 00:00:00 | |
| DB0DAN | 2026-09-03 12:06:55 | 52.46967 | 11.26110 | 73° | 26km/h | 22593m | 4.7m/s | -51.7°C | 0.6% | 39.22hPa | 2.7V | 00:00:00 | 00:00:00 | 00:00:00 | |
| DF8AY | 2026-09-03 12:06:55 | 52.46967 | 11.26110 | 73° | 26km/h | 22593m | 4.7m/s | -51.7°C | 0% | 39.2hPa | 2.7V | 03:46:34 | 01:35:17 | 00:00:00 | |
| DL1NUX | 2026-09-03 12:06:54 | 52.46954 | 11.26064 | 48° | 24km/h | 22560m | 4.9m/s | -52°C | 3.2% | 39.4hPa | 2.7V | 03:46:35 | 01:35:11 | 00:00:00 | |
| DL1XH-west | 2026-09-03 12:06:52 | 52.46957 | 11.26071 | 54° | 22km/h | 22566m | 6.3m/s | -52°C | 0% | 39.4hPa | 2.7V | 03:46:34 | 01:35:12 | 00:00:00 | |
| AA1-15 | 2026-09-03 12:06:52 | 52.46960 | 11.26078 | 61° | 18km/h | 22572m | 5.4m/s | -51.9°C | 0% | 39.3hPa | 2.7V | 03:46:34 | 01:35:13 | 00:00:00 | |
| DM0DOS-11 | 2026-09-03 12:06:51 | 52.46957 | 11.26071 | 53° | 22km/h | 22566m | 6.3m/s | -52°C | 3.1% | 39.4hPa | 2.7V | 03:46:34 | 01:35:12 | 00:00:00 | |
| DD8BA-10 | 2026-09-03 12:06:51 | 52.46960 | 11.26078 | 62° | 22km/h | 22572m | 5.3m/s | -51.9°C | 3.1% | 39.3hPa | 2.7V | 03:46:00 | 00:00:00 | 00:00:00 | |
| DL1XH1-15 | 2026-09-03 12:06:50 | 52.46938 | 11.26037 | 57° | 18km/h | 22540m | 5m/s | -52°C | 3.1% | 39.5hPa | 2.7V | 03:46:39 | 01:35:07 | 00:00:00 | |
| HSKMA3-T | 2026-09-03 12:06:47 | 52.46945 | 11.26049 | 45° | 24km/h | 22551m | 5.8m/s | -52.1°C | 0% | 39.5hPa | 2.6V | 03:47:25 | 01:35:09 | 00:00:00 | |
| DF8AY | 2026-09-03 12:06:45 | 52.46936 | 11.26030 | 63° | 18km/h | 22534m | 5.1m/s | -52°C | 0% | 39.6hPa | 2.7V | 03:47:25 | 01:35:06 | 00:00:00 | |
| DL1NUX | 2026-09-03 12:06:44 | 52.46926 | 11.25987 | 70° | 20km/h | 22509m | 4m/s | -52°C | 3.1% | 39.7hPa | 2.6V | 03:46:45 | 01:35:01 | 00:00:00 | |
| AA1-15 | 2026-09-03 12:06:42 | 52.46930 | 11.26005 | 69° | 26km/h | 22518m | 5.2m/s | -51.8°C | 0% | 39.7hPa | 2.6V | 03:47:25 | 01:35:03 | 00:00:00 | |
| DL1XH-west | 2026-09-03 12:06:41 | 52.46928 | 11.25995 | 70° | 26km/h | 22513m | 4m/s | -52°C | 0% | 39.7hPa | 2.6V | 03:47:25 | 01:35:02 | 00:00:00 | |
| DM0DOS-11 | 2026-09-03 12:06:41 | 52.46928 | 11.25995 | 69° | 24km/h | 22513m | 4m/s | -52°C | 3.1% | 39.7hPa | 2.6V | 03:46:44 | 01:35:02 | 00:00:00 | |
| DB0DAN | 2026-09-03 12:06:40 | 52.46928 | 11.25995 | 70° | 24km/h | 22513m | 4m/s | -52°C | 0.6% | 39.71hPa | 2.6V | 00:00:00 | 00:00:00 | 00:00:00 | |
| HSKMA3-T | 2026-09-03 12:06:38 | 52.46923 | 11.25975 | 75° | 9km/h | 22498m | 5.7m/s | -51.9°C | 0% | 39.8hPa | 2.7V | 03:47:25 | 01:34:59 | 00:00:00 | |
| DB0NH | 2026-09-03 12:06:37 | 52.46923 | 11.25975 | 76° | 15km/h | 22498m | 5.6m/s | -51.9°C | 3.1% | 39.7hPa | 2.7V | 03:46:00 | 01:34:59 | 00:00:00 | |
| DO2SHX-10 | 2026-09-03 12:06:35 | 52.46921 | 11.25969 | 54° | 11km/h | 22488m | 5.5m/s | -51.8°C | 3.2% | 39.8hPa | 2.7V | 00:00:00 | 01:34:57 | 00:00:00 | |
| DL1NUX | 2026-09-03 12:06:34 | 52.46905 | 11.25942 | 44° | 20km/h | 22455m | 5.1m/s | -51.8°C | 3.1% | 40.1hPa | 2.7V | 03:46:55 | 01:34:51 | 00:00:00 | |
| DF8AY | 2026-09-03 12:06:33 | 52.46901 | 11.25936 | 52° | 22km/h | 22450m | 6.2m/s | -52°C | 0% | 40.1hPa | 2.7V | 03:47:25 | 01:34:50 | 00:00:00 | |
| DO2SHX-10 | 2026-09-03 12:06:32 | 52.46915 | 11.25957 | 46° | 18km/h | 22472m | 4.3m/s | -51.9°C | 3.2% | 39.9hPa | 2.7V | 00:00:00 | 01:34:54 | 00:00:00 | |
| DM0DOS-11 | 2026-09-03 12:06:31 | 52.46909 | 11.25948 | 39° | 18km/h | 22461m | 5.6m/s | -51.8°C | 3.1% | 40hPa | 2.7V | 03:46:54 | 01:34:52 | 00:00:00 | |
| AA1-15 | 2026-09-03 12:06:30 | 52.46908 | 11.25948 | 40° | 18km/h | 22461m | 5.6m/s | -51.8°C | 0% | 40hPa | 2.7V | 03:47:25 | 01:34:52 | 00:00:00 | |
| HSKMA3-T | 2026-09-03 12:06:26 | 52.46896 | 11.25920 | 70° | 20km/h | 22439m | 4.1m/s | -52.2°C | 0% | 40.2hPa | 2.6V | 03:47:25 | 01:34:48 | 00:00:00 | |
| DB0DAN | 2026-09-03 12:06:25 | 52.46895 | 11.25913 | 76° | 16km/h | 22434m | 4.9m/s | -52.2°C | 0.6% | 40.17hPa | 2.6V | 00:00:00 | 00:00:00 | 00:00:00 | |
| DL4XJ-10 | 2026-09-03 12:06:25 | 52.46895 | 11.25913 | 77° | 18km/h | 22434m | 4.8m/s | -50.6°C | 0% | 0hPa | 2.7V | 00:00:00 | 00:00:00 | 00:00:00 | |
| DL1NUX | 2026-09-03 12:06:24 | 52.46894 | 11.25892 | 60° | 13km/h | 22402m | 5.3m/s | -52.3°C | 3.1% | 40.4hPa | 2.7V | 03:47:05 | 01:34:41 | 00:00:00 | |
| DF8AY | 2026-09-03 12:06:22 | 52.46894 | 11.25901 | 105° | 5km/h | 22418m | 4.7m/s | -52.2°C | 0% | 40.3hPa | 2.7V | 03:47:25 | 01:34:44 | 00:00:00 | |
| DM0DOS-11 | 2026-09-03 12:06:21 | 52.46894 | 11.25896 | 75° | 7km/h | 22407m | 5.4m/s | -52.4°C | 3.2% | 40.4hPa | 2.6V | 03:47:04 | 01:34:42 | 00:00:00 | |
| AA1-15 | 2026-09-03 12:06:19 | 52.46894 | 11.25892 | 61° | 13km/h | 22402m | 5.3m/s | -52.3°C | 0% | 40.4hPa | 2.7V | 03:47:25 | 01:34:41 | 00:00:00 | |
| GOEST3-10 | 2026-09-03 12:06:19 | 52.46893 | 11.25892 | 61° | 15km/h | 22402m | 5.3m/s | -52.3°C | 3.1% | 40.3hPa | 2.7V | 00:00:00 | 01:34:41 | 00:00:00 | |
| DO2SHX-10 | 2026-09-03 12:06:17 | 52.46889 | 11.25883 | 43° | 16km/h | 22391m | 6.0m/s | -52.1°C | 3.2% | 40.4hPa | 2.7V | 00:00:00 | 01:34:39 | 00:00:00 | |
| DL1XH1-15 | 2026-09-03 12:06:16 | 52.46883 | 11.25875 | 41° | 16km/h | 22380m | 4.3m/s | -52.2°C | 3.2% | 40.5hPa | 2.6V | 03:47:09 | 01:34:37 | 00:00:00 | |
| DL1NUX | 2026-09-03 12:06:14 | 52.46873 | 11.25837 | 76° | 13km/h | 22348m | 4.4m/s | -52.4°C | 3.2% | 40.8hPa | 2.6V | 03:47:15 | 01:34:31 | 00:00:00 | |
| HSKMA3-T | 2026-09-03 12:06:12 | 52.46876 | 11.25856 | 76° | 18km/h | 22364m | 4.7m/s | -52.3°C | 0% | 40.6hPa | 2.7V | 03:47:25 | 01:34:34 | 00:00:00 | |
| DF8AY | 2026-09-03 12:06:11 | 52.46875 | 11.25849 | 82° | 16km/h | 22358m | 6.1m/s | -52.3°C | 0% | 40.6hPa | 2.7V | 03:47:25 | 01:34:33 | 00:00:00 | |
| DM0DOS-11 | 2026-09-03 12:06:11 | 52.46874 | 11.25843 | 81° | 15km/h | 22353m | 5.7m/s | -52.3°C | 3.2% | 40.7hPa | 2.7V | 03:47:14 | 01:34:32 | 00:00:00 | |
| DB0DAN | 2026-09-03 12:06:10 | 52.46874 | 11.25843 | 81° | 13km/h | 22353m | 5.7m/s | -52.3°C | 0.6% | 40.7hPa | 2.7V | 00:00:00 | 00:00:00 | 00:00:00 | |
| AA1-15 | 2026-09-03 12:06:09 | 52.46874 | 11.25837 | 76° | 13km/h | 22348m | 4.4m/s | -52.4°C | 0% | 40.8hPa | 2.6V | 03:47:25 | 01:34:31 | 00:00:00 | |
| DL1XH-west | 2026-09-03 12:06:08 | 52.46872 | 11.25832 | 67° | 15km/h | 22342m | 5.2m/s | -52.5°C | 0% | 40.8hPa | 2.6V | 03:47:25 | 01:34:30 | 00:00:00 | |
| TFSTFS | 2026-09-03 12:06:08 | 52.46872 | 11.25832 | 68° | 15km/h | 22343m | 5.2m/s | -52.5°C | 0.6% | 40.8hPa | 2.6V | 03:47:00 | 00:00:00 | 00:00:00 | |
| DB0NH | 2026-09-03 12:06:07 | 52.46870 | 11.25825 | 58° | 18km/h | 22337m | 5.9m/s | -52.5°C | 3.3% | 40.8hPa | 2.6V | 00:00:00 | 01:34:29 | 00:00:00 | |
| DL1XH1-15 | 2026-09-03 12:06:06 | 52.46863 | 11.25812 | 40° | 24km/h | 22327m | 4.8m/s | -52.7°C | 3.3% | 40.9hPa | 2.7V | 03:47:19 | 01:34:27 | 00:00:00 | |
| DO2SHX-10 | 2026-09-03 12:06:05 | 52.46863 | 11.25812 | 41° | 22km/h | 22328m | 4.7m/s | -52.6°C | 3.3% | 40.8hPa | 2.7V | 00:00:00 | 01:34:27 | 00:00:00 | |
| GOEST3-10 | 2026-09-03 12:06:04 | 52.46858 | 11.25806 | 34° | 22km/h | 22322m | 6.1m/s | -52.7°C | 3.3% | 40.8hPa | 2.7V | 00:00:00 | 00:00:00 | 00:00:00 | |
| DL1NUX | 2026-09-03 12:06:03 | 52.46839 | 11.25779 | 62° | 18km/h | 22295m | 4.7m/s | -52.5°C | 3.3% | 41hPa | 2.7V | 03:47:25 | 01:34:21 | 00:00:00 | |
| HSKMA3-T | 2026-09-03 12:06:02 | 52.46849 | 11.25797 | 33° | 22km/h | 22311m | 4.3m/s | -52.6°C | 0% | 41hPa | 2.6V | 03:47:25 | 01:34:24 | 00:00:00 | |
| DO2SHX-10 | 2026-09-03 12:06:02 | 52.46849 | 11.25797 | 33° | 22km/h | 22311m | 4.3m/s | -52.6°C | 3.4% | 40.9hPa | 2.7V | 03:47:00 | 01:34:24 | 00:00:00 | |
| DM0DOS-11 | 2026-09-03 12:06:01 | 52.46841 | 11.25786 | 52° | 20km/h | 22300m | 5.5m/s | -52.5°C | 3.3% | 41hPa | 2.7V | 03:47:24 | 01:34:22 | 00:00:00 | |
| DF8AY | 2026-09-03 12:06:00 | 52.46841 | 11.25786 | 52° | 20km/h | 22300m | 5.5m/s | -52.5°C | 0% | 41hPa | 2.7V | 03:47:25 | 01:34:22 | 00:00:00 | |
| AA1-15 | 2026-09-03 12:05:58 | 52.46837 | 11.25772 | 68° | 16km/h | 22289m | 6.1m/s | -52.5°C | 0% | 41.1hPa | 2.6V | 03:48:16 | 01:34:20 | 00:00:00 | |
| DL1XH-west | 2026-09-03 12:05:57 | 52.46835 | 11.25767 | 71° | 13km/h | 22283m | 5.5m/s | -52.5°C | 0% | 41.2hPa | 2.6V | 03:48:16 | 01:34:19 | 00:00:00 | |
| DB0DAN | 2026-09-03 12:05:55 | 52.46833 | 11.25757 | 66° | 13km/h | 22273m | 6.2m/s | -52.5°C | 0.6% | 41.19hPa | 2.7V | 00:00:00 | 00:00:00 | 00:00:00 | |
| AM1SDL-15 | 2026-09-03 12:05:55 | 52.46833 | 11.25757 | 67° | 18km/h | 22273m | 6.2m/s | -52.4°C | 3.2% | 41.1hPa | 2.7V | 00:00:00 | 01:34:17 | 00:00:00 | |
| GOEST3-10 | 2026-09-03 12:05:54 | 52.46832 | 11.25752 | 58° | 18km/h | 22268m | 5.1m/s | -52.4°C | 3.2% | 41.2hPa | 2.7V | 03:47:00 | 00:00:00 | 00:00:00 | |
| DL1NUX | 2026-09-03 12:05:53 | 52.46810 | 11.25735 | 10° | 20km/h | 22242m | 4.1m/s | -52.2°C | 3.2% | 41.4hPa | 2.7V | 03:47:35 | 01:34:11 | 00:00:00 | |
| DO2SHX-10 | 2026-09-03 12:05:53 | 52.46829 | 11.25746 | 44° | 20km/h | 22263m | 4.5m/s | -52.5°C | 3.3% | 41.2hPa | 2.7V | 00:00:00 | 01:34:15 | 00:00:00 | |
| DM0DOS-11 | 2026-09-03 12:05:51 | 52.46815 | 11.25737 | 9° | 22km/h | 22246m | 4.1m/s | -52.2°C | 3.3% | 41.4hPa | 2.7V | 03:47:34 | 01:34:12 | 00:00:00 | |
| HSKMA3-T | 2026-09-03 12:05:50 | 52.46815 | 11.25737 | 9° | 22km/h | 22246m | 4.1m/s | -52.2°C | 0% | 41.4hPa | 2.7V | 03:48:16 | 01:34:12 | 00:00:00 | |
| AA1-15 | 2026-09-03 12:05:48 | 52.46800 | 11.25730 | 28° | 20km/h | 22232m | 5.7m/s | -52.2°C | 0% | 41.4hPa | 2.7V | 03:48:16 | 01:34:09 | 00:00:00 | |
| DL1XH-west | 2026-09-03 12:05:47 | 52.46796 | 11.25725 | 36° | 20km/h | 22227m | 4.8m/s | -52.2°C | 0% | 41.5hPa | 2.6V | 03:48:16 | 01:34:08 | 00:00:00 | |
| SONDE2-11 | 2026-09-03 12:05:46 | 52.46796 | 11.25725 | 35° | 20km/h | 22227m | 4.8m/s | -52.2°C | 0.6% | 41.5hPa | 2.6V | 00:00:00 | 00:00:00 | 00:00:00 | |
| TFSTFS | 2026-09-03 12:05:45 | 52.46792 | 11.25720 | 37° | 20km/h | 22222m | 4.5m/s | -52.3°C | 0.6% | 41.5hPa | 2.6V | 03:48:00 | 00:00:00 | 00:00:00 | |
| DO2SHX-10 | 2026-09-03 12:05:44 | 52.46788 | 11.25716 | 32° | 20km/h | 22217m | 5.3m/s | -52.2°C | 3.2% | 41.5hPa | 2.6V | 00:00:00 | 01:34:06 | 00:00:00 | |
| DL1NUX | 2026-09-03 12:05:43 | 52.46767 | 11.25698 | 33° | 16km/h | 22191m | 4.1m/s | -52.1°C | 3.2% | 41.7hPa | 2.6V | 03:47:45 | 01:34:01 | 00:00:00 | |
| DL1CLM-18 | 2026-09-03 12:05:41 | 52.46779 | 11.25709 | 24° | 20km/h | 22207m | 4.9m/s | -52.1°C | 0.6% | 41.6hPa | 2.6V | 00:00:00 | 00:00:00 | 00:00:00 | |
| DB0DAN | 2026-09-03 12:05:40 | 52.46771 | 11.25702 | 34° | 16km/h | 22196m | 5.9m/s | -52.1°C | 0.6% | 41.71hPa | 2.6V | 00:00:00 | 00:00:00 | 00:00:00 | |
| DF8AY | 2026-09-03 12:05:40 | 52.46771 | 11.25702 | 34° | 18km/h | 22196m | 5.9m/s | -52.1°C | 0% | 41.7hPa | 2.6V | 03:48:16 | 01:34:02 | 00:00:00 | |
| HSKMA3-T | 2026-09-03 12:05:39 | 52.46767 | 11.25698 | 34° | 16km/h | 22191m | 4.1m/s | -52.1°C | 0% | 41.7hPa | 2.6V | 03:48:16 | 01:34:01 | 00:00:00 | |
| AA1-15 | 2026-09-03 12:05:37 | 52.46760 | 11.25692 | 18° | 15km/h | 22180m | 6.2m/s | -52.3°C | 0% | 41.8hPa | 2.7V | 03:48:16 | 01:33:59 | 00:00:00 | |
| DL1XH-west | 2026-09-03 12:05:35 | 52.46754 | 11.25690 | 12° | 13km/h | 22170m | 4.5m/s | -52.3°C | 0% | 41.9hPa | 2.6V | 03:48:16 | 01:33:57 | 00:00:00 | |
| DO2SHX-10 | 2026-09-03 12:05:35 | 52.46753 | 11.25690 | 13° | 13km/h | 22171m | 4.5m/s | -52.2°C | 3.2% | 41.8hPa | 2.7V | 00:00:00 | 01:33:57 | 00:00:00 | |
| GOEST3-10 | 2026-09-03 12:05:34 | 52.46751 | 11.25688 | 27° | 15km/h | 22165m | 5.6m/s | -52.2°C | 3.3% | 41.9hPa | 2.7V | 03:47:00 | 00:00:00 | 00:00:00 | |
| DO2SHX-10 | 2026-09-03 12:05:32 | 52.46746 | 11.25680 | 58° | 16km/h | 22154m | 4.9m/s | -52.2°C | 3.2% | 41.9hPa | 2.7V | 00:00:00 | 01:33:54 | 00:00:00 | |
| DM0DOS-11 | 2026-09-03 12:05:31 | 52.46742 | 11.25670 | 49° | 16km/h | 22144m | 5.9m/s | -52.4°C | 3.3% | 42hPa | 2.6V | 03:47:54 | 01:33:52 | 00:00:00 | |
| DF8AY | 2026-09-03 12:05:29 | 52.46739 | 11.25665 | 41° | 15km/h | 22139m | 4.8m/s | -52.5°C | 0% | 42.1hPa | 2.6V | 03:48:16 | 01:33:51 | 00:00:00 | |
| HSKMA3-T | 2026-09-03 12:05:28 | 52.46736 | 11.25661 | 37° | 15km/h | 22134m | 4.1m/s | -52.6°C | 0% | 42.1hPa | 2.6V | 03:48:16 | 01:33:50 | 00:00:00 | |
| AA1-15 | 2026-09-03 12:05:27 | 52.46727 | 11.25650 | 36° | 15km/h | 22118m | 5m/s | -52.4°C | 0% | 42.2hPa | 2.7V | 03:48:16 | 01:33:47 | 00:00:00 | |
| DL1XH1-15 | 2026-09-03 12:05:26 | 52.46727 | 11.25650 | 36° | 15km/h | 22118m | 5m/s | -52.4°C | 3.3% | 42.2hPa | 2.7V | 03:47:59 | 01:33:47 | 00:00:00 | |
| DM0DOS-11 | 2026-09-03 12:05:26 | 52.46705 | 11.25648 | 347° | 20km/h | 22093m | 4.5m/s | -52.3°C | 3.3% | 42.3hPa | 2.7V | 03:48:04 | 01:33:42 | 00:00:00 | |
| DB0DAN | 2026-09-03 12:05:25 | 52.46727 | 11.25650 | 36° | 15km/h | 22118m | 5m/s | -52.4°C | 0.6% | 42.21hPa | 2.7V | 00:00:00 | 00:00:00 | 00:00:00 | |
| DL1XH-west | 2026-09-03 12:05:25 | 52.46724 | 11.25647 | 24° | 15km/h | 22114m | 4.9m/s | -52.4°C | 0% | 42.2hPa | 2.7V | 03:48:16 | 01:33:46 | 00:00:00 | |
| DF8AY | 2026-09-03 12:05:19 | 52.46701 | 11.25649 | 355° | 16km/h | 22088m | 5.5m/s | -52.2°C | 0% | 42.4hPa | 2.7V | 03:48:16 | 01:33:41 | 00:00:00 | |
| HSKMA3-T | 2026-09-03 12:05:17 | 52.46694 | 11.25648 | 23° | 13km/h | 22077m | 4.6m/s | -52°C | 0% | 42.5hPa | 2.7V | 03:48:16 | 01:33:39 | 00:00:00 | |
| DO3MHA-11 | 2026-09-03 12:05:17 | 52.46693 | 11.25648 | 24° | 15km/h | 22078m | 4.5m/s | -52.0°C | 3.3% | 42.4hPa | 2.6V | 00:00:00 | 01:33:39 | 00:00:00 | |
| DL1XH1-15 | 2026-09-03 12:05:16 | 52.46687 | 11.25642 | 28° | 18km/h | 22067m | 5.7m/s | -52°C | 3.2% | 42.5hPa | 2.6V | 03:48:09 | 01:33:37 | 00:00:00 | |
| AA1-15 | 2026-09-03 12:05:15 | 52.46687 | 11.25642 | 29° | 18km/h | 22067m | 5.7m/s | -52°C | 0% | 42.5hPa | 2.6V | 03:48:16 | 01:33:37 | 00:00:00 | |
| DL1XH-west | 2026-09-03 12:05:15 | 52.46679 | 11.25634 | 39° | 18km/h | 22057m | 5.1m/s | -51.9°C | 0% | 42.6hPa | 2.7V | 03:48:16 | 01:33:35 | 00:00:00 | |
| DF8AY | 2026-09-03 12:05:14 | 52.46666 | 11.25622 | 326° | 11km/h | 22031m | 5.7m/s | -52°C | 0% | 42.8hPa | 2.7V | 03:48:16 | 01:33:30 | 00:00:00 | |
| DM0DOS-11 | 2026-09-03 12:05:14 | 52.46671 | 11.25621 | 29° | 9km/h | 22042m | 4m/s | -52°C | 3.2% | 42.7hPa | 2.6V | 03:48:14 | 01:33:32 | 00:00:00 | |
| DB0DAN | 2026-09-03 12:05:10 | 52.46671 | 11.25621 | 30° | 9km/h | 22042m | 4m/s | -52°C | 0.6% | 42.71hPa | 2.6V | 00:00:00 | 00:00:00 | 00:00:00 | |
| HSKMA3-T | 2026-09-03 12:05:06 | 52.46662 | 11.25629 | 295° | 13km/h | 22020m | 6.1m/s | -51.8°C | 0% | 42.9hPa | 2.7V | 03:49:07 | 01:33:28 | 00:00:00 | |
| DL1XH1-15 | 2026-09-03 12:05:06 | 52.46661 | 11.25633 | 286° | 9km/h | 22014m | 5.1m/s | -51.7°C | 3.3% | 42.9hPa | 2.6V | 03:48:19 | 01:33:27 | 00:00:00 | |
| AA1-15 | 2026-09-03 12:05:05 | 52.46662 | 11.25633 | 287° | 9km/h | 22014m | 5.1m/s | -51.7°C | 0% | 42.9hPa | 2.6V | 03:49:07 | 01:33:27 | 00:00:00 | |
| DL1XH-west | 2026-09-03 12:05:03 | 52.46660 | 11.25639 | 325° | 7km/h | 22004m | 6m/s | -51.7°C | 0% | 43hPa | 2.7V | 03:49:07 | 01:33:25 | 00:00:00 | |
| DJ2DS-15 | 2026-09-03 12:05:03 | 52.46658 | 11.25639 | 3° | 7km/h | 21999m | 5.2m/s | -51.7°C | 0.6% | 43.0hPa | 2.6V | 00:00:00 | 00:00:00 | 00:00:00 | |
| DM0DOS-11 | 2026-09-03 12:05:02 | 52.46655 | 11.25635 | 53° | 11km/h | 21989m | 6.2m/s | -51.8°C | 3.2% | 43hPa | 2.6V | 03:48:24 | 01:33:22 | 00:00:00 | |
| HSKMA3-T | 2026-09-03 12:04:56 | 52.46650 | 11.25621 | 27° | 5km/h | 21968m | 5.6m/s | -51.4°C | 0% | 43.2hPa | 2.6V | 03:49:07 | 01:33:18 | 00:00:00 | |
| DL1XH1-15 | 2026-09-03 12:04:56 | 52.46649 | 11.25621 | 319° | 5km/h | 21962m | 4.7m/s | -51.4°C | 3.2% | 43.2hPa | 2.6V | 03:48:29 | 01:33:17 | 00:00:00 | |
| AA1-15 | 2026-09-03 12:04:55 | 52.46649 | 11.25621 | 320° | 5km/h | 21962m | 4.7m/s | -51.4°C | 0% | 43.2hPa | 2.6V | 03:49:07 | 01:33:17 | 00:00:00 | |
| DL1XH-west | 2026-09-03 12:04:53 | 52.46648 | 11.25628 | 271° | 13km/h | 21951m | 6.1m/s | -51.3°C | 0% | 43.3hPa | 2.7V | 03:49:07 | 01:33:15 | 00:00:00 | |
| TFSTFS | 2026-09-03 12:04:52 | 52.46648 | 11.25634 | 266° | 16km/h | 21947m | 4.6m/s | -51.2°C | 0.6% | 43.3hPa | 2.6V | 03:49:00 | 00:00:00 | 00:00:00 | |
| DM0DOS-11 | 2026-09-03 12:04:51 | 52.46648 | 11.25647 | 278° | 15km/h | 21936m | 5.5m/s | -51.1°C | 3.2% | 43.4hPa | 2.6V | 03:48:34 | 01:33:12 | 00:00:00 | |
| EDDB2-11 | 2026-09-03 12:04:51 | 52.46648 | 11.25640 | 269° | 15km/h | 21942m | 4.9m/s | -51.2°C | 0.6% | 43.4hPa | 2.7V | 00:00:00 | 00:00:00 | 00:00:00 | |
| DF8AY | 2026-09-03 12:04:46 | 52.46645 | 11.25640 | 150° | 2km/h | 21890m | 6.1m/s | -51°C | 0% | 43.7hPa | 2.7V | 03:49:07 | 01:33:03 | 00:00:00 | |
| DL1XH1-15 | 2026-09-03 12:04:46 | 52.46646 | 11.25650 | 90° | 9km/h | 21910m | 4.5m/s | -51°C | 3.1% | 43.5hPa | 2.7V | 03:48:39 | 01:33:07 | 00:00:00 | |
| DM0DOS-11 | 2026-09-03 12:04:45 | 52.46646 | 11.25640 | 219° | 5km/h | 21884m | 5.2m/s | -50.8°C | 3% | 43.7hPa | 2.7V | 03:48:44 | 01:33:02 | 00:00:00 | |
| AA1-15 | 2026-09-03 12:04:45 | 52.46646 | 11.25650 | 90° | 9km/h | 21910m | 4.5m/s | -51°C | 0% | 43.5hPa | 2.7V | 03:49:07 | 01:33:07 | 00:00:00 | |
| HSKMA3-T | 2026-09-03 12:04:44 | 52.46645 | 11.25643 | 74° | 7km/h | 21900m | 4.9m/s | -51°C | 0% | 43.7hPa | 2.6V | 03:49:07 | 01:33:05 | 00:00:00 | |
| GOEST3-10 | 2026-09-03 12:04:44 | 52.46646 | 11.25646 | 81° | 5km/h | 21905m | 5.9m/s | -50.9°C | 3.0% | 43.6hPa | 2.7V | 00:00:00 | 00:00:00 | 00:00:00 | |
| DL1NUX | 2026-09-03 12:04:43 | 52.46647 | 11.25643 | 243° | 9km/h | 21879m | 4.2m/s | -50.9°C | 2.9% | 43.8hPa | 2.7V | 03:48:45 | 01:33:01 | 00:00:00 | |
| DL1XH-west | 2026-09-03 12:04:42 | 52.46645 | 11.25641 | 89° | 4km/h | 21895m | 4.2m/s | -51°C | 0% | 43.7hPa | 2.6V | 03:49:07 | 01:33:04 | 00:00:00 | |
| DO2SHX-10 | 2026-09-03 12:04:42 | 52.46645 | 11.25641 | 89° | 4km/h | 21895m | 4.1m/s | -51.0°C | 3.0% | 43.6hPa | 2.6V | 00:00:00 | 01:33:04 | 00:00:00 | |
| S3001 | 2026-09-03 12:04:40 | 52.46647 | 11.25643 | 243° | 9km/h | 21879m | 4.2m/s | -50.9°C | 0.5% | 43.8hPa | 2.6V | 00:00:00 | 00:00:00 | 00:00:00 | |
| DL1LOL-11 | 2026-09-03 12:04:39 | 52.46647 | 11.25643 | 244° | 9km/h | 21879m | 4.2m/s | -50.9°C | 0.5% | 43.8hPa | 2.6V | 00:00:00 | 00:00:00 | 00:00:00 | |
| DB0NH | 2026-09-03 12:04:37 | 52.46648 | 11.25652 | 270° | 13km/h | 21869m | 5.1m/s | -51.0°C | 3.1% | 43.8hPa | 2.6V | 03:48:00 | 01:32:59 | 00:00:00 | |
| DL1XH1-15 | 2026-09-03 12:04:36 | 52.46649 | 11.25663 | 255° | 11km/h | 21860m | 4m/s | -50.9°C | 3.1% | 43.9hPa | 2.6V | 03:48:49 | 01:32:57 | 00:00:00 | |
| AA1-15 | 2026-09-03 12:04:35 | 52.46652 | 11.25669 | 186° | 9km/h | 21849m | 5.4m/s | -50.8°C | 0% | 44hPa | 2.7V | 03:49:07 | 01:32:55 | 00:00:00 | |
| GOEST3-10 | 2026-09-03 12:04:34 | 52.46650 | 11.25667 | 232° | 11km/h | 21855m | 6.2m/s | -50.9°C | 3.1% | 43.9hPa | 2.7V | 03:48:00 | 00:00:00 | 00:00:00 | |
| DL1NUX | 2026-09-03 12:04:33 | 52.46660 | 11.25661 | 138° | 5km/h | 21829m | 4.6m/s | -50.9°C | 3% | 44.1hPa | 2.7V | 03:48:55 | 01:32:51 | 00:00:00 | |
| HSKMA3-T | 2026-09-03 12:04:32 | 52.46655 | 11.25668 | 158° | 11km/h | 21844m | 4.3m/s | -50.9°C | 0% | 44hPa | 2.7V | 03:49:07 | 01:32:54 | 00:00:00 | |
| TFSTFS | 2026-09-03 12:04:32 | 52.46655 | 11.25668 | 159° | 11km/h | 21844m | 4.3m/s | -50.9°C | 0.6% | 44.0hPa | 2.6V | 03:49:00 | 00:00:00 | 00:00:00 | |
| DL1XH1-15 | 2026-09-03 12:04:30 | 52.46668 | 11.25669 | 216° | 16km/h | 21810m | 3.4m/s | -50.9°C | 3% | 44.2hPa | 2.6V | 03:48:59 | 01:32:47 | 00:00:00 | |
| DO2SHX-10 | 2026-09-03 12:04:30 | 52.46659 | 11.25663 | 133° | 5km/h | 21834m | 5.3m/s | -50.8°C | 3.0% | 44.0hPa | 2.7V | 00:00:00 | 01:32:52 | 00:00:00 | |
| GOEST3-10 | 2026-09-03 12:04:29 | 52.46660 | 11.25661 | 139° | 11km/h | 21829m | 4.6m/s | -50.8°C | 3.0% | 44.1hPa | 2.7V | 00:00:00 | 01:32:51 | 00:00:00 | |
| DF8AY-15 | 2026-09-03 12:04:28 | 52.46661 | 11.25660 | 191° | 13km/h | 21825m | 4.6m/s | -50.9°C | 3.0% | 44.1hPa | 2.7V | 00:00:00 | 01:32:50 | 00:00:00 | |
| DO2SHX-10 | 2026-09-03 12:04:27 | 52.46663 | 11.25662 | 216° | 13km/h | 21820m | 5.4m/s | -50.8°C | 3.0% | 44.1hPa | 2.7V | 00:00:00 | 01:32:49 | 00:00:00 | |
| DB0DAN | 2026-09-03 12:04:25 | 52.46668 | 11.25669 | 216° | 16km/h | 21810m | 3.4m/s | -50.9°C | 0.6% | 44.25hPa | 2.6V | 00:00:00 | 00:00:00 | 00:00:00 | |
| DM0DOS-11 | 2026-09-03 12:04:25 | 52.46687 | 11.25678 | 176° | 18km/h | 21785m | 4.4m/s | -50.8°C | 3% | 44.4hPa | 2.7V | 03:49:04 | 01:32:42 | 00:00:00 | |
| DO2SHX-10 | 2026-09-03 12:04:24 | 52.46672 | 11.25673 | 213° | 16km/h | 21805m | 4.7m/s | -50.8°C | 3.0% | 44.2hPa | 2.6V | 03:49:00 | 01:32:46 | 00:00:00 | |
| DL1NUX | 2026-09-03 12:04:23 | 52.46692 | 11.25677 | 178° | 20km/h | 21780m | 5.5m/s | -50.7°C | 3% | 44.4hPa | 2.6V | 03:49:05 | 01:32:41 | 00:00:00 | |
| DF8AY | 2026-09-03 12:04:22 | 52.46679 | 11.25678 | 190° | 15km/h | 21794m | 5.3m/s | -50.8°C | 0% | 44.3hPa | 2.7V | 03:49:07 | 01:32:44 | 00:00:00 | |
| DL1XH-west | 2026-09-03 12:04:22 | 52.46683 | 11.25678 | 179° | 16km/h | 21790m | 4.3m/s | -50.7°C | 0% | 44.4hPa | 2.7V | 03:49:07 | 01:32:43 | 00:00:00 | |
| DO2SHX-10 | 2026-09-03 12:04:21 | 52.46683 | 11.25678 | 179° | 18km/h | 21790m | 4.3m/s | -50.6°C | 3.0% | 44.3hPa | 2.6V | 00:00:00 | 01:32:43 | 00:00:00 | |
| EDDB2-11 | 2026-09-03 12:04:20 | 52.46687 | 11.25678 | 176° | 16km/h | 21785m | 4.4m/s | -50.8°C | 0.6% | 44.4hPa | 2.6V | 00:00:00 | 00:00:00 | 00:00:00 | |
| GOEST3-10 | 2026-09-03 12:04:19 | 52.46692 | 11.25677 | 179° | 9km/h | 21781m | 5.5m/s | -50.7°C | 3.0% | 44.4hPa | 2.6V | 00:00:00 | 01:32:41 | 00:00:00 | |
| DO2SHX-10 | 2026-09-03 12:04:18 | 52.46697 | 11.25677 | 185° | 20km/h | 21775m | 5.5m/s | -50.7°C | 3.1% | 44.4hPa | 2.6V | 00:00:00 | 01:32:40 | 00:00:00 | |
| DO3MHA-11 | 2026-09-03 12:04:17 | 52.46702 | 11.25678 | 188° | 13km/h | 21770m | 3.9m/s | -50.8°C | 3.1% | 44.5hPa | 2.7V | 03:49:00 | 01:32:39 | 00:00:00 | |
| DL1XH1-15 | 2026-09-03 12:04:16 | 52.46710 | 11.25680 | 185° | 11km/h | 21761m | 6m/s | -50.8°C | 3% | 44.6hPa | 2.7V | 03:49:09 | 01:32:37 | 00:00:00 | |
| AM1SDL-15 | 2026-09-03 12:04:16 | 52.46712 | 11.25680 | 175° | 22km/h | 21755m | 5.5m/s | -50.9°C | 3.1% | 44.6hPa | 2.6V | 00:00:00 | 01:32:36 | 00:00:00 | |
| DM0DOS-11 | 2026-09-03 12:04:15 | 52.46719 | 11.25681 | 197° | 13km/h | 21735m | 5.1m/s | -50.9°C | 3% | 44.8hPa | 2.6V | 03:49:14 | 01:32:32 | 00:00:00 | |
| BIOWL1-15 | 2026-09-03 12:04:14 | 52.46712 | 11.25680 | 175° | 7km/h | 21755m | 5.6m/s | 0°C | 0% | 0hPa | 2.7V | 18:12:15 | 01:32:36 | 00:00:00 | |
| DL1NUX | 2026-09-03 12:04:13 | 52.46723 | 11.25682 | 189° | 18km/h | 21731m | 3.8m/s | -51°C | 3% | 44.8hPa | 2.7V | 03:49:15 | 01:32:31 | 00:00:00 | |
| HSKMA3-T | 2026-09-03 12:04:12 | 52.46716 | 11.25680 | 194° | 7km/h | 21740m | 5.2m/s | -50.9°C | 0% | 44.7hPa | 2.6V | 03:49:58 | 01:32:33 | 00:00:00 | |
| TFSTFS | 2026-09-03 12:04:11 | 52.46715 | 11.25679 | 174° | 5km/h | 21746m | 4.2m/s | -50.9°C | 0.6% | 44.7hPa | 2.6V | 03:49:00 | 00:00:00 | 00:00:00 | |
| DB0DAN | 2026-09-03 12:04:10 | 52.46719 | 11.25681 | 198° | 13km/h | 21735m | 5.1m/s | -50.9°C | 0.6% | 44.75hPa | 2.6V | 00:00:00 | 00:00:00 | 00:00:00 | |
| DL1XH-west | 2026-09-03 12:04:10 | 52.46719 | 11.25681 | 198° | 13km/h | 21735m | 5.1m/s | -50.9°C | 0% | 44.8hPa | 2.6V | 03:49:58 | 01:32:32 | 00:00:00 | |
| DD8BA-10 | 2026-09-03 12:04:10 | 52.46719 | 11.25681 | 198° | 26km/h | 21736m | 5.0m/s | -50.8°C | 3.0% | 44.7hPa | 2.6V | 03:49:00 | 00:00:00 | 00:00:00 | |
| S3001 | 2026-09-03 12:04:09 | 52.46728 | 11.25683 | 179° | 22km/h | 21726m | 4.8m/s | -51.0°C | 0.6% | 44.8hPa | 2.6V | 00:00:00 | 00:00:00 | 00:00:00 | |
| DF8AY-15 | 2026-09-03 12:04:08 | 52.46728 | 11.25683 | 180° | 22km/h | 21727m | 4.7m/s | -50.9°C | 3.0% | 44.8hPa | 2.6V | 00:00:00 | 01:32:30 | 00:00:00 | |
| DB0NH | 2026-09-03 12:04:07 | 52.46734 | 11.25682 | 168° | 22km/h | 21722m | 5.4m/s | -51.0°C | 3.1% | 44.8hPa | 2.6V | 00:00:00 | 01:32:29 | 00:00:00 | |
| DL1XH1-15 | 2026-09-03 12:04:06 | 52.46747 | 11.25674 | 153° | 31km/h | 21711m | 4.5m/s | -51°C | 3.1% | 44.9hPa | 2.6V | 03:49:19 | 01:32:27 | 00:00:00 | |
| DO2SHX-10 | 2026-09-03 12:04:06 | 52.46740 | 11.25679 | 160° | 29km/h | 21716m | 5.2m/s | -50.9°C | 3.1% | 44.9hPa | 2.6V | 00:00:00 | 01:32:28 | 00:00:00 | |
| TFSTFS | 2026-09-03 12:04:05 | 52.46747 | 11.25674 | 154° | 31km/h | 21711m | 4.5m/s | -51.0°C | 0.6% | 44.9hPa | 2.6V | 00:00:00 | 00:00:00 | 00:00:00 | |
| DL1NUX | 2026-09-03 12:04:03 | 52.46783 | 11.25648 | 153° | 18km/h | 21683m | 4.8m/s | -50.9°C | 3.1% | 45.1hPa | 2.6V | 03:49:25 | 01:32:21 | 00:00:00 | |
| DO2SHX-10 | 2026-09-03 12:04:03 | 52.46760 | 11.25662 | 154° | 27km/h | 21702m | 4.3m/s | -50.9°C | 3.1% | 44.9hPa | 2.6V | 00:00:00 | 01:32:25 | 00:00:00 | |
| DM0DOS-11 | 2026-09-03 12:04:02 | 52.46779 | 11.25651 | 163° | 20km/h | 21688m | 3.8m/s | -50.9°C | 3.1% | 45.1hPa | 2.6V | 03:49:24 | 01:32:22 | 00:00:00 | |
| HSKMA3-T | 2026-09-03 12:04:01 | 52.46773 | 11.25654 | 164° | 26km/h | 21692m | 4.8m/s | -50.9°C | 0% | 45.1hPa | 2.6V | 03:49:58 | 01:32:23 | 00:00:00 | |
| DF8AY | 2026-09-03 12:04:01 | 52.46779 | 11.25651 | 163° | 20km/h | 21688m | 3.8m/s | -50.9°C | 0% | 45.1hPa | 2.6V | 03:49:58 | 01:32:22 | 00:00:00 | |
| DL1XH-west | 2026-09-03 12:03:59 | 52.46787 | 11.25645 | 139° | 15km/h | 21678m | 5.9m/s | -50.9°C | 0% | 45.1hPa | 2.7V | 03:49:58 | 01:32:20 | 00:00:00 | |
| DO3MHA-11 | 2026-09-03 12:03:57 | 52.46790 | 11.25640 | 126° | 20km/h | 21673m | 4.7m/s | -50.9°C | 3.0% | 45.1hPa | 2.7V | 00:00:00 | 01:32:19 | 00:00:00 | |
| DB0DAN | 2026-09-03 12:03:55 | 52.46795 | 11.25628 | 128° | 18km/h | 21663m | 5.6m/s | -50.9°C | 0.6% | 45.22hPa | 2.7V | 00:00:00 | 00:00:00 | 00:00:00 | |
| HTAHTA | 2026-09-03 12:03:54 | 52.46810 | 11.25606 | 135° | 22km/h | 21643m | 6.0m/s | -50.8°C | 0.6% | 45.4hPa | 2.7V | 00:00:00 | 00:00:00 | 00:00:00 | |
| DL1NUX | 2026-09-03 12:03:53 | 52.46819 | 11.25592 | 137° | 24km/h | 21633m | 4.6m/s | -50.7°C | 3% | 45.5hPa | 2.7V | 03:49:35 | 01:32:11 | 00:00:00 | |
| DM0DOS-11 | 2026-09-03 12:03:52 | 52.46814 | 11.25599 | 135° | 24km/h | 21637m | 4.5m/s | -50.7°C | 3% | 45.4hPa | 2.7V | 03:49:34 | 01:32:12 | 00:00:00 | |
| HSKMA3-T | 2026-09-03 12:03:51 | 52.46810 | 11.25606 | 136° | 24km/h | 21643m | 6m/s | -50.8°C | 0% | 45.4hPa | 2.7V | 03:49:58 | 01:32:13 | 00:00:00 | |
| DF8AY | 2026-09-03 12:03:50 | 52.46814 | 11.25599 | 136° | 24km/h | 21637m | 4.5m/s | -50.7°C | 0% | 45.4hPa | 2.7V | 03:49:58 | 01:32:12 | 00:00:00 | |
| DL1XH-west | 2026-09-03 12:03:48 | 52.46823 | 11.25586 | 142° | 24km/h | 21627m | 6m/s | -50.6°C | 0% | 45.5hPa | 2.7V | 03:49:58 | 01:32:10 | 00:00:00 | |
| DF8AY-15 | 2026-09-03 12:03:47 | 52.46828 | 11.25580 | 142° | 22km/h | 21623m | 4.1m/s | -50.6°C | 3.0% | 45.5hPa | 2.6V | 00:00:00 | 01:32:09 | 00:00:00 | |
| GOEST3-10 | 2026-09-03 12:03:46 | 52.46832 | 11.25574 | 135° | 20km/h | 21618m | 4.4m/s | -50.5°C | 3.0% | 45.5hPa | 2.6V | 00:00:00 | 01:32:08 | 00:00:00 | |
| DM0DOS-11 | 2026-09-03 12:03:45 | 52.46847 | 11.25532 | 132° | 20km/h | 21588m | 4.6m/s | -50.5°C | 2.9% | 45.8hPa | 2.6V | 03:49:44 | 01:32:02 | 00:00:00 | |
| DO2SHX-10 | 2026-09-03 12:03:45 | 52.46835 | 11.25568 | 124° | 20km/h | 21613m | 5.9m/s | -50.6°C | 3.0% | 45.6hPa | 2.7V | 00:00:00 | 01:32:07 | 00:00:00 | |
| TFSTFS | 2026-09-03 12:03:44 | 52.46835 | 11.25568 | 124° | 20km/h | 21613m | 5.9m/s | -50.6°C | 0.6% | 45.6hPa | 2.7V | 00:00:00 | 00:00:00 | 00:00:00 | |
| DL1NUX | 2026-09-03 12:03:43 | 52.46851 | 11.25526 | 138° | 22km/h | 21583m | 3.2m/s | -50.5°C | 2.9% | 45.8hPa | 2.7V | 03:49:45 | 01:32:01 | 00:00:00 | |
| DO2SHX-10 | 2026-09-03 12:03:42 | 52.46841 | 11.25545 | 115° | 20km/h | 21598m | 4.7m/s | -50.5°C | 2.9% | 45.6hPa | 2.7V | 00:00:00 | 01:32:04 | 00:00:00 | |
| DB0DAN | 2026-09-03 12:03:40 | 52.46847 | 11.25532 | 133° | 20km/h | 21588m | 4.6m/s | -50.5°C | 0.6% | 45.77hPa | 2.6V | 00:00:00 | 00:00:00 | 00:00:00 | |
| HSKMA3-T | 2026-09-03 12:03:40 | 52.46847 | 11.25532 | 133° | 20km/h | 21588m | 4.6m/s | -50.5°C | 0% | 45.8hPa | 2.6V | 03:49:58 | 01:32:02 | 00:00:00 | |
| AA1-15 | 2026-09-03 12:03:40 | 52.46851 | 11.25526 | 138° | 22km/h | 21584m | 3.2m/s | -50.5°C | 0% | 45.8hPa | 2.7V | 03:49:58 | 01:32:01 | 00:00:00 | |
| DL1XH-west | 2026-09-03 12:03:38 | 52.46859 | 11.25512 | 131° | 26km/h | 21575m | 5.3m/s | -50.5°C | 0% | 45.8hPa | 2.7V | 03:49:58 | 01:31:59 | 00:00:00 | |
| DB0NH | 2026-09-03 12:03:37 | 52.46859 | 11.25512 | 131° | 22km/h | 21575m | 5.2m/s | -50.5°C | 2.9% | 45.8hPa | 2.6V | 00:00:00 | 01:31:59 | 00:00:00 | |
| GOEST3-10 | 2026-09-03 12:03:36 | 52.46863 | 11.25503 | 127° | 22km/h | 21571m | 4.2m/s | -50.5°C | 2.9% | 45.9hPa | 2.6V | 00:00:00 | 01:31:58 | 00:00:00 | |
| DO2SHX-10 | 2026-09-03 12:03:35 | 52.46867 | 11.25496 | 126° | 22km/h | 21566m | 3.7m/s | -50.5°C | 2.9% | 45.9hPa | 2.6V | 03:49:00 | 01:31:57 | 00:00:00 | |
| AM1SDL-15 | 2026-09-03 12:03:34 | 52.46870 | 11.25489 | 128° | 24km/h | 21562m | 5.6m/s | -50.6°C | 3.0% | 45.9hPa | 2.6V | 03:49:00 | 01:31:56 | 00:00:00 | |
| DM0DOS-11 | 2026-09-03 12:03:34 | 52.46878 | 11.25462 | 105° | 22km/h | 21541m | 4.4m/s | -50.9°C | 3% | 46.1hPa | 2.7V | 03:49:54 | 01:31:52 | 00:00:00 | |
| DL1NUX | 2026-09-03 12:03:33 | 52.46879 | 11.25453 | 109° | 24km/h | 21537m | 4.4m/s | -50.9°C | 3% | 46.1hPa | 2.6V | 03:49:55 | 01:31:51 | 00:00:00 | |
| HSKMA3-T | 2026-09-03 12:03:30 | 52.46878 | 11.25462 | 106° | 22km/h | 21541m | 4.4m/s | -50.9°C | 0% | 46.1hPa | 2.7V | 03:49:58 | 01:31:52 | 00:00:00 | |
| AA1-15 | 2026-09-03 12:03:29 | 52.46879 | 11.25453 | 109° | 24km/h | 21537m | 4.4m/s | -50.9°C | 0% | 46.1hPa | 2.6V | 03:49:58 | 01:31:51 | 00:00:00 | |
| DL1XH-west | 2026-09-03 12:03:26 | 52.46887 | 11.25427 | 119° | 22km/h | 21523m | 3.9m/s | -50.9°C | 0% | 46.2hPa | 2.7V | 03:49:58 | 01:31:48 | 00:00:00 | |
| DB0DAN | 2026-09-03 12:03:25 | 52.46889 | 11.25419 | 116° | 22km/h | 21518m | 4.9m/s | -50.9°C | 0.6% | 46.27hPa | 2.7V | 00:00:00 | 00:00:00 | 00:00:00 | |
| DO2SHX-10 | 2026-09-03 12:03:25 | 52.46889 | 11.25419 | 117° | 26km/h | 21519m | 4.8m/s | -50.9°C | 3.0% | 46.2hPa | 2.7V | 00:00:00 | 01:31:47 | 00:00:00 | |
| TFSTFS | 2026-09-03 12:03:24 | 52.46892 | 11.25410 | 113° | 26km/h | 21514m | 5.5m/s | -51.0°C | 0.6% | 46.3hPa | 2.7V | 00:00:00 | 00:00:00 | 00:00:00 | |
| DL1NUX | 2026-09-03 12:03:23 | 52.46904 | 11.25366 | 126° | 18km/h | 21489m | 4.4m/s | -51°C | 3% | 46.5hPa | 2.7V | 03:50:05 | 01:31:41 | 00:00:00 | |
| TFSTFS | 2026-09-03 12:03:23 | 52.46894 | 11.25400 | 111° | 27km/h | 21509m | 4.3m/s | -50.9°C | 0.6% | 46.4hPa | 2.6V | 03:50:00 | 00:00:00 | 00:00:00 | |
| DM0DOS-11 | 2026-09-03 12:03:22 | 52.46901 | 11.25373 | 121° | 20km/h | 21494m | 5.6m/s | -51°C | 3% | 46.4hPa | 2.6V | 03:50:04 | 01:31:42 | 00:00:00 | |
| DO2SHX-10 | 2026-09-03 12:03:22 | 52.46896 | 11.25390 | 111° | 24km/h | 21505m | 3.7m/s | -50.9°C | 3.0% | 46.3hPa | 2.6V | 03:50:00 | 01:31:44 | 00:00:00 | |
| SO1NDE-10 | 2026-09-03 12:03:21 | 52.46899 | 11.25380 | 115° | 24km/h | 21500m | 5.3m/s | -50.9°C | 3.0% | 46.3hPa | 2.6V | 00:00:00 | 01:31:43 | 00:00:00 | |
| DL1XH1-15 | 2026-09-03 12:03:20 | 52.46914 | 11.25339 | 116° | 18km/h | 21470m | 3.6m/s | -51.1°C | 3% | 46.6hPa | 2.6V | 03:50:09 | 01:31:37 | 00:00:00 | |
| HSKMA3-T | 2026-09-03 12:03:19 | 52.46904 | 11.25366 | 127° | 18km/h | 21489m | 4.4m/s | -51°C | 0% | 46.5hPa | 2.7V | 03:50:49 | 01:31:41 | 00:00:00 | |
| DL1XH-west | 2026-09-03 12:03:16 | 52.46912 | 11.25346 | 116° | 20km/h | 21475m | 4.2m/s | -51°C | 0% | 46.6hPa | 2.6V | 03:50:49 | 01:31:38 | 00:00:00 | |
| NBG1-10 | 2026-09-03 12:03:16 | 52.46912 | 11.25346 | 117° | 24km/h | 21475m | 4.1m/s | -51.0°C | 2.9% | 46.5hPa | 2.6V | 00:00:00 | 01:31:38 | 00:00:00 | |
| DM0DOS-11 | 2026-09-03 12:03:15 | 52.46923 | 11.25301 | 105° | 27km/h | 21447m | 4.6m/s | -51.3°C | 3.1% | 46.8hPa | 2.6V | 03:50:14 | 01:31:32 | 00:00:00 | |
| DO2SHX-10 | 2026-09-03 12:03:15 | 52.46914 | 11.25338 | 117° | 18km/h | 21471m | 3.6m/s | -51.1°C | 3.0% | 46.6hPa | 2.6V | 00:00:00 | 01:31:37 | 00:00:00 | |
| DL1NUX | 2026-09-03 12:03:13 | 52.46925 | 11.25289 | 104° | 29km/h | 21442m | 3.7m/s | -51.4°C | 3.1% | 46.8hPa | 2.6V | 03:50:15 | 01:31:31 | 00:00:00 | |
| DO2SHX-10 | 2026-09-03 12:03:13 | 52.46919 | 11.25319 | 113° | 24km/h | 21457m | 3.9m/s | -51.3°C | 3.1% | 46.7hPa | 2.7V | 00:00:00 | 01:31:34 | 00:00:00 | |
| DB0DAN | 2026-09-03 12:03:10 | 52.46923 | 11.25301 | 106° | 26km/h | 21447m | 4.6m/s | -51.3°C | 0.6% | 46.78hPa | 2.6V | 00:00:00 | 00:00:00 | 00:00:00 | |
| AA1-15 | 2026-09-03 12:03:09 | 52.46925 | 11.25289 | 104° | 29km/h | 21442m | 3.7m/s | -51.4°C | 0% | 46.8hPa | 2.6V | 03:50:49 | 01:31:31 | 00:00:00 | |
| DL4XJ-10 | 2026-09-03 12:03:09 | 52.46925 | 11.25289 | 105° | 26km/h | 21442m | 3.6m/s | -49.7°C | 0% | 0hPa | 2.7V | 00:00:00 | 00:00:00 | 00:00:00 | |
| DF8AY-15 | 2026-09-03 12:03:07 | 52.46928 | 11.25268 | 103° | 26km/h | 21433m | 5.2m/s | -51.3°C | 3.1% | 46.9hPa | 2.7V | 00:00:00 | 01:31:29 | 00:00:00 | |
| DL1XH1-15 | 2026-09-03 12:03:06 | 52.46930 | 11.25250 | 98° | 20km/h | 21424m | 3.8m/s | -51.4°C | 3.2% | 46.9hPa | 2.7V | 03:50:19 | 01:31:27 | 00:00:00 | |
| DL1XH-west | 2026-09-03 12:03:06 | 52.46929 | 11.25258 | 100° | 22km/h | 21428m | 5.1m/s | -51.4°C | 0% | 46.9hPa | 2.7V | 03:50:49 | 01:31:28 | 00:00:00 | |
| SMARD9-15 | 2026-09-03 12:03:04 | 52.46932 | 11.25231 | 98° | 24km/h | 21414m | 5.0m/s | -51.4°C | 0.6% | 47.0hPa | 2.7V | 00:00:00 | 00:00:00 | 00:00:00 | |
| DL1NUX | 2026-09-03 12:03:03 | 52.46936 | 11.25194 | 107° | 18km/h | 21395m | 5.1m/s | -51.3°C | 3% | 47.1hPa | 2.7V | 03:50:25 | 01:31:21 | 00:00:00 | |
| HSKMA3-T | 2026-09-03 12:02:58 | 52.46938 | 11.25187 | 110° | 18km/h | 21390m | 3.8m/s | -51.3°C | 0% | 47.2hPa | 2.7V | 03:50:49 | 01:31:20 | 00:00:00 | |
| DF8AY | 2026-09-03 12:02:58 | 52.46940 | 11.25179 | 112° | 22km/h | 21386m | 3.9m/s | -51.3°C | 0% | 47.2hPa | 2.6V | 03:50:49 | 01:31:19 | 00:00:00 | |
| DO2SHX-10 | 2026-09-03 12:02:57 | 52.46940 | 11.25179 | 113° | 26km/h | 21387m | 3.9m/s | -51.3°C | 3.1% | 47.2hPa | 2.6V | 03:50:00 | 01:31:19 | 00:00:00 | |
| DL1XH1-15 | 2026-09-03 12:02:56 | 52.46944 | 11.25159 | 106° | 29km/h | 21377m | 4m/s | -51.3°C | 3.1% | 47.3hPa | 2.6V | 03:50:29 | 01:31:17 | 00:00:00 | |
| DB0DAN | 2026-09-03 12:02:55 | 52.46944 | 11.25159 | 107° | 27km/h | 21377m | 4m/s | -51.3°C | 0.6% | 47.28hPa | 2.6V | 00:00:00 | 00:00:00 | 00:00:00 | |
| DL1XH-west | 2026-09-03 12:02:55 | 52.46944 | 11.25159 | 107° | 29km/h | 21377m | 4m/s | -51.3°C | 0% | 47.3hPa | 2.6V | 03:50:49 | 01:31:17 | 00:00:00 | |
| BIOWL1-15 | 2026-09-03 12:02:52 | 52.46947 | 11.25122 | 86° | 29km/h | 21363m | 5.4m/s | 0°C | 0% | 0hPa | 2.7V | 18:12:15 | 01:31:14 | 00:00:00 | |
| DM0DOS-11 | 2026-09-03 12:02:52 | 52.46944 | 11.25100 | 77° | 26km/h | 21354m | 3.9m/s | -51.3°C | 3.2% | 47.4hPa | 2.6V | 03:50:34 | 01:31:12 | 00:00:00 | |
| HSKMA3-T | 2026-09-03 12:02:48 | 52.46943 | 11.25079 | 86° | 26km/h | 21345m | 4.8m/s | -51.3°C | 0% | 47.5hPa | 2.7V | 03:50:49 | 01:31:10 | 00:00:00 | |
| DF8AY | 2026-09-03 12:02:47 | 52.46942 | 11.25069 | 89° | 26km/h | 21341m | 4.7m/s | -51.3°C | 0% | 47.5hPa | 2.7V | 03:50:49 | 01:31:09 | 00:00:00 | |
| EDDB2-11 | 2026-09-03 12:02:47 | 52.46942 | 11.25059 | 88° | 24km/h | 21336m | 4.6m/s | -51.4°C | 0.6% | 47.6hPa | 2.6V | 00:00:00 | 00:00:00 | 00:00:00 | |
| DL1XH1-15 | 2026-09-03 12:02:46 | 52.46942 | 11.25048 | 86° | 26km/h | 21331m | 5.7m/s | -51.2°C | 3% | 47.6hPa | 2.6V | 03:50:39 | 01:31:07 | 00:00:00 | |
| DL1XH-west | 2026-09-03 12:02:44 | 52.46941 | 11.25038 | 85° | 24km/h | 21326m | 4.3m/s | -51.3°C | 0% | 47.7hPa | 2.6V | 03:50:49 | 01:31:06 | 00:00:00 | |
| DL1NUX | 2026-09-03 12:02:43 | 52.46945 | 11.24990 | 98° | 24km/h | 21302m | 5m/s | -51.1°C | 3.1% | 47.8hPa | 2.6V | 03:50:45 | 01:31:01 | 00:00:00 | |
| DM0DOS-11 | 2026-09-03 12:02:42 | 52.46944 | 11.25000 | 103° | 24km/h | 21306m | 3.6m/s | -51.2°C | 3.1% | 47.9hPa | 2.7V | 03:50:44 | 01:31:02 | 00:00:00 | |
| HSKMA3-T | 2026-09-03 12:02:37 | 52.46946 | 11.24970 | 86° | 26km/h | 21292m | 4.4m/s | -51.1°C | 0% | 47.9hPa | 2.6V | 03:50:49 | 01:30:59 | 00:00:00 | |
| DO3MHA-11 | 2026-09-03 12:02:37 | 52.46945 | 11.24970 | 86° | 26km/h | 21292m | 4.3m/s | -51.1°C | 3.0% | 47.9hPa | 2.6V | 00:00:00 | 01:30:59 | 00:00:00 | |
| DL1XH1-15 | 2026-09-03 12:02:36 | 52.46945 | 11.24949 | 92° | 27km/h | 21283m | 5.5m/s | -51.1°C | 3.1% | 48hPa | 2.7V | 03:50:49 | 01:30:57 | 00:00:00 | |
| DL1XH-west | 2026-09-03 12:02:34 | 52.46947 | 11.24928 | 97° | 24km/h | 21274m | 3.7m/s | -51.1°C | 0% | 48hPa | 2.7V | 03:51:40 | 01:30:55 | 00:00:00 | |
| DL1NUX | 2026-09-03 12:02:33 | 52.46947 | 11.24888 | 89° | 24km/h | 21256m | 4m/s | -51°C | 3% | 48.2hPa | 2.7V | 03:50:55 | 01:30:51 | 00:00:00 | |
| DO2SHX-10 | 2026-09-03 12:02:33 | 52.46947 | 11.24927 | 98° | 24km/h | 21274m | 3.7m/s | -51.0°C | 3.1% | 48.0hPa | 2.6V | 03:50:00 | 01:30:55 | 00:00:00 | |
| DF7PN | 2026-09-03 12:02:32 | 52.46947 | 11.24898 | 84° | 24km/h | 21260m | 4.8m/s | 0°C | -1.0% | -1.0hPa | 2.6V | 00:00:00 | 00:00:00 | 00:00:00 | |
| DL1XH1-15 | 2026-09-03 12:02:30 | 52.46952 | 11.24850 | 107° | 24km/h | 21236m | 5m/s | -51.2°C | 3% | 48.4hPa | 2.6V | 03:50:59 | 01:30:47 | 00:00:00 | |
| DF8AY | 2026-09-03 12:02:26 | 52.46953 | 11.24850 | 107° | 24km/h | 21236m | 5m/s | -51.2°C | 0% | 48.4hPa | 2.6V | 03:51:40 | 01:30:47 | 00:00:00 | |
| HSKMA3-T | 2026-09-03 12:02:26 | 52.46951 | 11.24859 | 111° | 24km/h | 21241m | 4.2m/s | -51.2°C | 0% | 48.3hPa | 2.6V | 03:51:40 | 01:30:48 | 00:00:00 | |
| DB0DAN | 2026-09-03 12:02:25 | 52.46953 | 11.24850 | 107° | 22km/h | 21236m | 5m/s | -51.2°C | 0.6% | 48.35hPa | 2.6V | 00:00:00 | 00:00:00 | 00:00:00 | |
| AM1SDL-15 | 2026-09-03 12:02:25 | 52.46954 | 11.24841 | 104° | 20km/h | 21231m | 4.9m/s | -51.0°C | 3.0% | 48.3hPa | 2.7V | 00:00:00 | 01:30:46 | 00:00:00 | |
| DO2SHX-10 | 2026-09-03 12:02:24 | 52.46954 | 11.24841 | 104° | 22km/h | 21231m | 4.9m/s | -51.0°C | 3.0% | 48.3hPa | 2.6V | 00:00:00 | 01:30:46 | 00:00:00 | |
| DL1NUX | 2026-09-03 12:02:23 | 52.46957 | 11.24794 | 87° | 26km/h | 21209m | 4.9m/s | -51°C | 3% | 48.5hPa | 2.6V | 03:51:05 | 01:30:41 | 00:00:00 | |
| DL1XH-west | 2026-09-03 12:02:22 | 52.46956 | 11.24823 | 99° | 22km/h | 21222m | 5m/s | -50.9°C | 0% | 48.5hPa | 2.7V | 03:51:40 | 01:30:44 | 00:00:00 | |
| HSKMA3-T | 2026-09-03 12:02:16 | 52.46955 | 11.24766 | 87° | 20km/h | 21195m | 4.7m/s | -51.1°C | 0% | 48.6hPa | 2.7V | 03:51:40 | 01:30:38 | 00:00:00 | |
| AA1-15 | 2026-09-03 12:02:16 | 52.46955 | 11.24757 | 100° | 20km/h | 21190m | 5.3m/s | -51.1°C | 0% | 48.7hPa | 2.7V | 03:51:40 | 01:30:37 | 00:00:00 | |
| DF8AY | 2026-09-03 12:02:15 | 52.46957 | 11.24750 | 112° | 20km/h | 21185m | 4.4m/s | -51.1°C | 0% | 48.7hPa | 2.6V | 03:51:40 | 01:30:36 | 00:00:00 | |
| GOEST3-10 | 2026-09-03 12:02:15 | 52.46955 | 11.24757 | 100° | 22km/h | 21190m | 5.3m/s | -51.1°C | 3.1% | 48.6hPa | 2.7V | 00:00:00 | 01:30:37 | 00:00:00 | |
| DL1XH-15 | 2026-09-03 12:02:14 | 52.46968 | 11.24707 | 119° | 24km/h | 21159m | 5.7m/s | -51°C | 3.1% | 48.9hPa | 2.7V | 03:51:15 | 01:30:31 | 00:00:00 | |
| DL1XH-west | 2026-09-03 12:02:11 | 52.46963 | 11.24724 | 113° | 24km/h | 21170m | 4.5m/s | -51°C | 0% | 48.8hPa | 2.7V | 03:51:40 | 01:30:33 | 00:00:00 | |
| DB0DAN | 2026-09-03 12:02:10 | 52.46966 | 11.24716 | 115° | 22km/h | 21165m | 5m/s | -51°C | 0.6% | 48.87hPa | 2.7V | 00:00:00 | 00:00:00 | 00:00:00 | |
| DD8BA-10 | 2026-09-03 12:02:10 | 52.46966 | 11.24716 | 116° | 22km/h | 21165m | 5.0m/s | -51.0°C | 3.0% | 48.8hPa | 2.7V | 03:51:00 | 00:00:00 | 00:00:00 | |
| SONDE2-11 | 2026-09-03 12:02:09 | 52.46969 | 11.24707 | 119° | 24km/h | 21160m | 5.7m/s | -51.0°C | 0.6% | 48.9hPa | 2.7V | 00:00:00 | 00:00:00 | 00:00:00 | |
| DF8AY-15 | 2026-09-03 12:02:07 | 52.46974 | 11.24689 | 111° | 24km/h | 21150m | 4.6m/s | -50.9°C | 3.0% | 48.9hPa | 2.7V | 03:51:00 | 01:30:29 | 00:00:00 | |
| DL1XH1-15 | 2026-09-03 12:02:06 | 52.46976 | 11.24672 | 91° | 22km/h | 21139m | 3.8m/s | -51.1°C | 3.1% | 49.1hPa | 2.7V | 03:51:19 | 01:30:27 | 00:00:00 | |
| AA1-15 | 2026-09-03 12:02:05 | 52.46976 | 11.24663 | 92° | 20km/h | 21135m | 4.5m/s | -51°C | 0% | 49.1hPa | 2.7V | 03:51:40 | 01:30:26 | 00:00:00 | |
| HSKMA3-T | 2026-09-03 12:02:05 | 52.46976 | 11.24672 | 92° | 22km/h | 21139m | 3.8m/s | -51.1°C | 0% | 49.1hPa | 2.7V | 03:51:40 | 01:30:27 | 00:00:00 | |
| GOEST3-10 | 2026-09-03 12:02:05 | 52.46976 | 11.24671 | 92° | 20km/h | 21140m | 3.8m/s | -51.0°C | 3.1% | 49.0hPa | 2.7V | 00:00:00 | 01:30:27 | 00:00:00 | |
| DL1NUX | 2026-09-03 12:02:04 | 52.46980 | 11.24621 | 99° | 22km/h | 21110m | 4.5m/s | -51.1°C | 3% | 49.3hPa | 2.7V | 03:51:25 | 01:30:21 | 00:00:00 | |
| DM0DOS-11 | 2026-09-03 12:02:04 | 52.46980 | 11.24630 | 99° | 20km/h | 21115m | 5.6m/s | -51.1°C | 3% | 49.2hPa | 2.7V | 03:51:24 | 01:30:22 | 00:00:00 | |
| DF8AY | 2026-09-03 12:02:02 | 52.46978 | 11.24647 | 100° | 20km/h | 21125m | 4.4m/s | -51°C | 0% | 49.1hPa | 2.6V | 03:51:40 | 01:30:24 | 00:00:00 | |
| DL1XH-west | 2026-09-03 12:02:01 | 52.46978 | 11.24639 | 101° | 20km/h | 21120m | 4.6m/s | -51.1°C | 0% | 49.2hPa | 2.6V | 03:51:40 | 01:30:23 | 00:00:00 | |
| BIOWL1-15 | 2026-09-03 12:02:01 | 52.46980 | 11.24621 | 100° | 22km/h | 21110m | 4.5m/s | 0°C | 0% | 0hPa | 2.7V | 18:12:15 | 01:30:21 | 00:00:00 | |
| DO2SHX-10 | 2026-09-03 12:02:01 | 52.46978 | 11.24638 | 102° | 22km/h | 21121m | 4.6m/s | -51.0°C | 3.0% | 49.1hPa | 2.7V | 00:00:00 | 01:30:23 | 00:00:00 | |
| DB0UT-7 | 2026-09-03 12:02:00 | 52.46979 | 11.24630 | 100° | 27km/h | 21115m | 5.5m/s | -51.1°C | 3.0% | 49.2hPa | 2.7V | 00:00:00 | 00:00:00 | 00:00:00 | |
| DO2SHX-10 | 2026-09-03 12:01:58 | 52.46982 | 11.24612 | 108° | 26km/h | 21106m | 3.3m/s | -51.2°C | 3.0% | 49.3hPa | 2.7V | 00:00:00 | 01:30:20 | 00:00:00 | |
| DL1XH1-15 | 2026-09-03 12:01:56 | 52.46992 | 11.24586 | 134° | 27km/h | 21092m | 4.2m/s | -51.2°C | 3.1% | 49.4hPa | 2.6V | 03:51:29 | 01:30:17 | 00:00:00 | |
| DB0DAN | 2026-09-03 12:01:55 | 52.46992 | 11.24586 | 134° | 26km/h | 21092m | 4.2m/s | -51.2°C | 0.7% | 49.41hPa | 2.6V | 00:00:00 | 00:00:00 | 00:00:00 | |
| DM0DOS-11 | 2026-09-03 12:01:55 | 52.47007 | 11.24539 | 97° | 26km/h | 21069m | 4.1m/s | -51.2°C | 3% | 49.6hPa | 2.7V | 03:51:34 | 01:30:12 | 00:00:00 | |
| HSKMA3-T | 2026-09-03 12:01:54 | 52.46997 | 11.24577 | 130° | 27km/h | 21088m | 4.3m/s | -51.2°C | 0% | 49.5hPa | 2.6V | 03:51:40 | 01:30:16 | 00:00:00 | |
| DF8AY | 2026-09-03 12:01:52 | 52.47013 | 11.24498 | 110° | 29km/h | 21049m | 5.3m/s | -51.3°C | 0% | 49.7hPa | 2.7V | 03:51:40 | 01:30:08 | 00:00:00 | |
| DL1NUX | 2026-09-03 12:01:52 | 52.47007 | 11.24529 | 99° | 24km/h | 21064m | 5.5m/s | -51.3°C | 3% | 49.6hPa | 2.6V | 03:51:35 | 01:30:11 | 00:00:00 | |
| DL1XH-west | 2026-09-03 12:01:51 | 52.47006 | 11.24549 | 101° | 26km/h | 21073m | 4.6m/s | -51.1°C | 0% | 49.6hPa | 2.7V | 03:51:40 | 01:30:13 | 00:00:00 | |
| HTAHTA | 2026-09-03 12:01:49 | 52.47008 | 11.24529 | 99° | 24km/h | 21064m | 5.5m/s | -51.3°C | 0.6% | 49.6hPa | 2.7V | 00:00:00 | 00:00:00 | 00:00:00 | |
| EDDB2-11 | 2026-09-03 12:01:45 | 52.47019 | 11.24472 | 110° | 35km/h | 21039m | 3.6m/s | -51.3°C | 0.7% | 49.8hPa | 2.7V | 00:00:00 | 00:00:00 | 00:00:00 | |
| DM0DOS-11 | 2026-09-03 12:01:44 | 52.47035 | 11.24421 | 121° | 31km/h | 21021m | 4.4m/s | -51.5°C | 3.2% | 50hPa | 2.7V | 03:51:44 | 01:30:02 | 00:00:00 | |
| HSKMA3-T | 2026-09-03 12:01:43 | 52.47026 | 11.24445 | 119° | 37km/h | 21031m | 5.4m/s | -51.4°C | 0% | 49.9hPa | 2.6V | 03:52:31 | 01:30:04 | 00:00:00 | |
| DL1NUX | 2026-09-03 12:01:42 | 52.47039 | 11.24410 | 115° | 29km/h | 21016m | 5.6m/s | -51.6°C | 3.1% | 50hPa | 2.7V | 03:51:45 | 01:30:01 | 00:00:00 | |
| DF8AY | 2026-09-03 12:01:42 | 52.47031 | 11.24433 | 122° | 35km/h | 21026m | 4.9m/s | -51.4°C | 0% | 49.9hPa | 2.7V | 03:52:31 | 01:30:03 | 00:00:00 | |
| DL1XH-west | 2026-09-03 12:01:41 | 52.47035 | 11.24421 | 121° | 31km/h | 21021m | 4.4m/s | -51.5°C | 0% | 50hPa | 2.7V | 03:52:31 | 01:30:02 | 00:00:00 | |
| DB0DAN | 2026-09-03 12:01:40 | 52.47035 | 11.24421 | 121° | 29km/h | 21021m | 4.4m/s | -51.5°C | 0.7% | 49.96hPa | 2.7V | 00:00:00 | 00:00:00 | 00:00:00 | |
| DO2SHX-10 | 2026-09-03 12:01:40 | 52.47035 | 11.24421 | 122° | 29km/h | 21021m | 4.4m/s | -51.5°C | 3.2% | 49.9hPa | 2.7V | 00:00:00 | 01:30:02 | 00:00:00 | |
| Es werden nur die letzten 3500 von 6979 Frames angezeigt. GPX/KML und Diagramme bleiben verfügbar. | |||||||||||||||